<?xml version='1.0' encoding='UTF-8'?><gpx version="1.1" creator="JPX - https://github.com/jenetics/jpx" xmlns="http://www.topografix.com/GPX/1/1"><trk><trkseg><trkpt lat="36.9743883054349" lon="15.221937643415508"><ele>27.0</ele><time>2026-04-06T07:50:03Z</time></trkpt><trkpt lat="36.97446431500919" lon="15.221959319490011"><ele>27.0</ele><time>2026-04-06T08:15:16Z</time></trkpt><trkpt lat="36.97442519015663" lon="15.221856396452145"><ele>27.0</ele><time>2026-04-06T08:27:52.999Z</time></trkpt><trkpt lat="36.97435998727747" lon="15.221816836775744"><ele>27.0</ele><time>2026-04-06T08:27:55.999Z</time></trkpt><trkpt lat="36.97441186979413" lon="15.221743139094887"><ele>27.0</ele><time>2026-04-06T08:28:45Z</time></trkpt><trkpt lat="36.974484088718214" lon="15.221757556326232"><ele>27.0</ele><time>2026-04-06T08:28:46Z</time></trkpt><trkpt lat="36.97462748669468" lon="15.22175024738824"><ele>27.0</ele><time>2026-04-06T08:28:48Z</time></trkpt><trkpt lat="36.97470471089089" lon="15.221780313817337"><ele>27.000000000000004</ele><time>2026-04-06T08:28:49Z</time></trkpt><trkpt lat="36.97480177422712" lon="15.221782213751705"><ele>27.000000000000004</ele><time>2026-04-06T08:28:50Z</time></trkpt><trkpt lat="36.9749069012812" lon="15.221784271527929"><ele>27.0</ele><time>2026-04-06T08:28:51Z</time></trkpt><trkpt lat="36.97501299550693" lon="15.221774979620234"><ele>27.0</ele><time>2026-04-06T08:28:52Z</time></trkpt><trkpt lat="36.975118663333824" lon="15.221779413745308"><ele>27.0</ele><time>2026-04-06T08:28:53Z</time></trkpt><trkpt lat="36.97522267556315" lon="15.221777069175516"><ele>27.000000000000004</ele><time>2026-04-06T08:28:54Z</time></trkpt><trkpt lat="36.975322161621534" lon="15.221773531230335"><ele>27.000000000000004</ele><time>2026-04-06T08:28:55Z</time></trkpt><trkpt lat="36.97542855660138" lon="15.221775255550918"><ele>27.0</ele><time>2026-04-06T08:28:56Z</time></trkpt><trkpt lat="36.975549443957256" lon="15.221788123723393"><ele>27.0</ele><time>2026-04-06T08:28:57Z</time></trkpt><trkpt lat="36.97567328803029" lon="15.221794169302868"><ele>27.0</ele><time>2026-04-06T08:28:58Z</time></trkpt><trkpt lat="36.97579224977105" lon="15.221795205691427"><ele>27.0</ele><time>2026-04-06T08:28:59Z</time></trkpt><trkpt lat="36.97591770935364" lon="15.221799868795237"><ele>27.0</ele><time>2026-04-06T08:29:00Z</time></trkpt><trkpt lat="36.97604110189808" lon="15.221800671546012"><ele>27.0</ele><time>2026-04-06T08:29:01Z</time></trkpt><trkpt lat="36.976159715395454" lon="15.221796236622595"><ele>26.6</ele><time>2026-04-06T08:29:02Z</time></trkpt><trkpt lat="36.97626517429921" lon="15.221816670948296"><ele>26.200000000000003</ele><time>2026-04-06T08:29:03Z</time></trkpt><trkpt lat="36.97635669842272" lon="15.221817133731573"><ele>25.8</ele><time>2026-04-06T08:29:04Z</time></trkpt><trkpt lat="36.97644446086111" lon="15.221817577493187"><ele>25.4</ele><time>2026-04-06T08:29:05Z</time></trkpt><trkpt lat="36.97654114058038" lon="15.221801468515904"><ele>25.0</ele><time>2026-04-06T08:29:06Z</time></trkpt><trkpt lat="36.976642594152075" lon="15.221816407527538"><ele>25.000000000000004</ele><time>2026-04-06T08:29:07Z</time></trkpt><trkpt lat="36.976734346292446" lon="15.221818529470369"><ele>25.0</ele><time>2026-04-06T08:29:07.999Z</time></trkpt><trkpt lat="36.97681382878514" lon="15.221817943417848"><ele>25.0</ele><time>2026-04-06T08:29:08.999Z</time></trkpt><trkpt lat="36.976882968871074" lon="15.221816669083031"><ele>25.0</ele><time>2026-04-06T08:29:09.999Z</time></trkpt><trkpt lat="36.9769577253757" lon="15.221820665487373"><ele>25.000000000000004</ele><time>2026-04-06T08:29:11.999Z</time></trkpt><trkpt lat="36.97705958030517" lon="15.221754199434395"><ele>25.0</ele><time>2026-04-06T08:29:14.999Z</time></trkpt><trkpt lat="36.97711952532742" lon="15.221661973352202"><ele>25.0</ele><time>2026-04-06T08:29:16.999Z</time></trkpt><trkpt lat="36.97722810702808" lon="15.22174372158217"><ele>25.0</ele><time>2026-04-06T08:29:18.999Z</time></trkpt><trkpt lat="36.9773046783998" lon="15.221787971373297"><ele>25.0</ele><time>2026-04-06T08:29:19.999Z</time></trkpt><trkpt lat="36.97738912614688" lon="15.221839638551353"><ele>25.0</ele><time>2026-04-06T08:29:20.999Z</time></trkpt><trkpt lat="36.977479018197705" lon="15.221901722044425"><ele>25.0</ele><time>2026-04-06T08:29:21.999Z</time></trkpt><trkpt lat="36.97756266248408" lon="15.221962236680099"><ele>24.4</ele><time>2026-04-06T08:29:22.999Z</time></trkpt><trkpt lat="36.97764351767452" lon="15.222022215452983"><ele>23.8</ele><time>2026-04-06T08:29:23.999Z</time></trkpt><trkpt lat="36.97770762010083" lon="15.22207339203201"><ele>23.200000000000003</ele><time>2026-04-06T08:29:24.999Z</time></trkpt><trkpt lat="36.977768977117485" lon="15.222172451387078"><ele>22.6</ele><time>2026-04-06T08:29:26.999Z</time></trkpt><trkpt lat="36.97779484441542" lon="15.22230864743932"><ele>22.0</ele><time>2026-04-06T08:29:28.999Z</time></trkpt><trkpt lat="36.97785339464361" lon="15.222364875790008"><ele>22.0</ele><time>2026-04-06T08:29:29.999Z</time></trkpt><trkpt lat="36.977911880432565" lon="15.222424190184107"><ele>22.0</ele><time>2026-04-06T08:29:30.999Z</time></trkpt><trkpt lat="36.97799632776662" lon="15.222499724403313"><ele>22.0</ele><time>2026-04-06T08:29:32.999Z</time></trkpt><trkpt lat="36.978069081421225" lon="15.222409023171407"><ele>22.0</ele><time>2026-04-06T08:29:34.999Z</time></trkpt><trkpt lat="36.978103231981784" lon="15.222278893926324"><ele>22.0</ele><time>2026-04-06T08:29:36.999Z</time></trkpt><trkpt lat="36.97816915491107" lon="15.222136548915742"><ele>22.0</ele><time>2026-04-06T08:29:38.999Z</time></trkpt><trkpt lat="36.978208801438164" lon="15.222034656817126"><ele>22.0</ele><time>2026-04-06T08:29:39.999Z</time></trkpt><trkpt lat="36.978247935780885" lon="15.221941826910435"><ele>22.0</ele><time>2026-04-06T08:29:40.999Z</time></trkpt><trkpt lat="36.978295140998405" lon="15.221866474847715"><ele>22.0</ele><time>2026-04-06T08:29:41.999Z</time></trkpt><trkpt lat="36.978316526547125" lon="15.221779687276802"><ele>22.0</ele><time>2026-04-06T08:29:42.999Z</time></trkpt><trkpt lat="36.97836259093341" lon="15.221716256441761"><ele>22.0</ele><time>2026-04-06T08:29:43.999Z</time></trkpt><trkpt lat="36.978393909817584" lon="15.221647308314253"><ele>22.333333333333332</ele><time>2026-04-06T08:29:44.999Z</time></trkpt><trkpt lat="36.97843580364782" lon="15.221546482631775"><ele>22.666666666666664</ele><time>2026-04-06T08:29:46.999Z</time></trkpt><trkpt lat="36.97845310063012" lon="15.221461900693779"><ele>23.0</ele><time>2026-04-06T08:29:49.999Z</time></trkpt><trkpt lat="36.97858002503951" lon="15.221532708746219"><ele>23.333333333333332</ele><time>2026-04-06T08:29:53.999Z</time></trkpt><trkpt lat="36.97864408066246" lon="15.221573879347265"><ele>23.666666666666668</ele><time>2026-04-06T08:29:54.999Z</time></trkpt><trkpt lat="36.978705764923085" lon="15.221615099790515"><ele>24.0</ele><time>2026-04-06T08:29:55.999Z</time></trkpt><trkpt lat="36.97876635760427" lon="15.221655590738116"><ele>24.0</ele><time>2026-04-06T08:29:56.999Z</time></trkpt><trkpt lat="36.97883266311128" lon="15.221699899285166"><ele>24.0</ele><time>2026-04-06T08:29:57.999Z</time></trkpt><trkpt lat="36.97890151953876" lon="15.221747214521436"><ele>24.0</ele><time>2026-04-06T08:29:58.999Z</time></trkpt><trkpt lat="36.979002034577" lon="15.221824412587408"><ele>24.0</ele><time>2026-04-06T08:30:00.999Z</time></trkpt><trkpt lat="36.979107527803684" lon="15.221911370007373"><ele>24.0</ele><time>2026-04-06T08:30:02.999Z</time></trkpt><trkpt lat="36.97917322329974" lon="15.221967078345152"><ele>24.0</ele><time>2026-04-06T08:30:03.999Z</time></trkpt><trkpt lat="36.97924474237446" lon="15.22202772502864"><ele>24.0</ele><time>2026-04-06T08:30:04.999Z</time></trkpt><trkpt lat="36.97930604085367" lon="15.222079704740267"><ele>24.0</ele><time>2026-04-06T08:30:05.999Z</time></trkpt><trkpt lat="36.97936266327413" lon="15.222127719286076"><ele>24.0</ele><time>2026-04-06T08:30:06.999Z</time></trkpt><trkpt lat="36.97941605267761" lon="15.222174097183013"><ele>24.0</ele><time>2026-04-06T08:30:07.999Z</time></trkpt><trkpt lat="36.979512460759864" lon="15.222261817096014"><ele>24.0</ele><time>2026-04-06T08:30:10Z</time></trkpt><trkpt lat="36.979563703325184" lon="15.222313542002418"><ele>23.833333333333332</ele><time>2026-04-06T08:30:11Z</time></trkpt><trkpt lat="36.97961549262617" lon="15.222371163558048"><ele>23.666666666666668</ele><time>2026-04-06T08:30:12Z</time></trkpt><trkpt lat="36.97966471717438" lon="15.222440104444901"><ele>23.5</ele><time>2026-04-06T08:30:13Z</time></trkpt><trkpt lat="36.979717067214246" lon="15.222516082476124"><ele>23.333333333333336</ele><time>2026-04-06T08:30:14Z</time></trkpt><trkpt lat="36.97976421578902" lon="15.222588555659721"><ele>23.166666666666668</ele><time>2026-04-06T08:30:15Z</time></trkpt><trkpt lat="36.97982273375799" lon="15.222653935654103"><ele>23.0</ele><time>2026-04-06T08:30:16Z</time></trkpt><trkpt lat="36.979878076521175" lon="15.222776105362488"><ele>23.0</ele><time>2026-04-06T08:30:18Z</time></trkpt><trkpt lat="36.97990918047862" lon="15.222867786938902"><ele>23.0</ele><time>2026-04-06T08:30:20Z</time></trkpt><trkpt lat="36.979966152076805" lon="15.222911652061086"><ele>23.0</ele><time>2026-04-06T08:30:22Z</time></trkpt><trkpt lat="36.98003004632428" lon="15.222892561736547"><ele>23.0</ele><time>2026-04-06T08:30:24Z</time></trkpt><trkpt lat="36.97996598360336" lon="15.2229204010993"><ele>23.0</ele><time>2026-04-06T08:31:04.999Z</time></trkpt><trkpt lat="36.980048057900156" lon="15.222844910622337"><ele>23.0</ele><time>2026-04-06T08:31:07.999Z</time></trkpt><trkpt lat="36.97977450788374" lon="15.22256391260702"><ele>23.0</ele><time>2026-04-06T08:31:08.999Z</time></trkpt><trkpt lat="36.97973019591939" lon="15.222487718329042"><ele>23.0</ele><time>2026-04-06T08:31:09.999Z</time></trkpt><trkpt lat="36.97968265582803" lon="15.222418526199975"><ele>23.0</ele><time>2026-04-06T08:31:10.999Z</time></trkpt><trkpt lat="36.979625232966605" lon="15.222350055763933"><ele>23.0</ele><time>2026-04-06T08:31:11.999Z</time></trkpt><trkpt lat="36.97956862838569" lon="15.222280954315979"><ele>23.0</ele><time>2026-04-06T08:31:12.999Z</time></trkpt><trkpt lat="36.979503734192534" lon="15.222205135221389"><ele>23.0</ele><time>2026-04-06T08:31:13.999Z</time></trkpt><trkpt lat="36.979437799615965" lon="15.222135657243768"><ele>23.166666666666668</ele><time>2026-04-06T08:31:14.999Z</time></trkpt><trkpt lat="36.97936802235848" lon="15.222064928266006"><ele>23.333333333333336</ele><time>2026-04-06T08:31:15.999Z</time></trkpt><trkpt lat="36.97929659730313" lon="15.222004718708735"><ele>23.5</ele><time>2026-04-06T08:31:16.999Z</time></trkpt><trkpt lat="36.97922612888619" lon="15.22194546161949"><ele>23.666666666666668</ele><time>2026-04-06T08:31:17.999Z</time></trkpt><trkpt lat="36.97914936388636" lon="15.221877801499556"><ele>23.833333333333332</ele><time>2026-04-06T08:31:18.999Z</time></trkpt><trkpt lat="36.9790750064289" lon="15.221811884379875"><ele>24.0</ele><time>2026-04-06T08:31:19.999Z</time></trkpt><trkpt lat="36.97900036368031" lon="15.221755465924586"><ele>24.0</ele><time>2026-04-06T08:31:20.999Z</time></trkpt><trkpt lat="36.978922660844916" lon="15.221709809723903"><ele>24.0</ele><time>2026-04-06T08:31:21.999Z</time></trkpt><trkpt lat="36.97884208553625" lon="15.221649550198258"><ele>24.0</ele><time>2026-04-06T08:31:22.999Z</time></trkpt><trkpt lat="36.97876420078514" lon="15.221588638487658"><ele>24.0</ele><time>2026-04-06T08:31:23.999Z</time></trkpt><trkpt lat="36.97866923737128" lon="15.221534934361152"><ele>24.0</ele><time>2026-04-06T08:31:24.999Z</time></trkpt><trkpt lat="36.97857038160897" lon="15.221488589220913"><ele>24.0</ele><time>2026-04-06T08:31:25.999Z</time></trkpt><trkpt lat="36.97849106912412" lon="15.221442350743063"><ele>24.0</ele><time>2026-04-06T08:31:26.999Z</time></trkpt><trkpt lat="36.97842482575292" lon="15.221399562893493"><ele>24.0</ele><time>2026-04-06T08:31:27.999Z</time></trkpt><trkpt lat="36.978357064658525" lon="15.221368588719365"><ele>24.0</ele><time>2026-04-06T08:31:28.999Z</time></trkpt><trkpt lat="36.97826695482996" lon="15.221319674745118"><ele>24.0</ele><time>2026-04-06T08:31:29.999Z</time></trkpt><trkpt lat="36.97817338413294" lon="15.221271255072994"><ele>24.0</ele><time>2026-04-06T08:31:30.999Z</time></trkpt><trkpt lat="36.97807691099559" lon="15.221225970860475"><ele>23.75</ele><time>2026-04-06T08:31:31.999Z</time></trkpt><trkpt lat="36.97797651799625" lon="15.22116948406463"><ele>23.5</ele><time>2026-04-06T08:31:32.999Z</time></trkpt><trkpt lat="36.977865363068595" lon="15.22108493749476"><ele>23.25</ele><time>2026-04-06T08:31:33.999Z</time></trkpt><trkpt lat="36.977746594828496" lon="15.22097241938898"><ele>23.0</ele><time>2026-04-06T08:31:34.999Z</time></trkpt><trkpt lat="36.97762946799302" lon="15.220853973741"><ele>23.0</ele><time>2026-04-06T08:31:35.999Z</time></trkpt><trkpt lat="36.97752867782277" lon="15.220749927344597"><ele>23.0</ele><time>2026-04-06T08:31:36.999Z</time></trkpt><trkpt lat="36.9774216506177" lon="15.220650763431392"><ele>23.0</ele><time>2026-04-06T08:31:37.999Z</time></trkpt><trkpt lat="36.97731111599629" lon="15.220548897527088"><ele>23.0</ele><time>2026-04-06T08:31:38.999Z</time></trkpt><trkpt lat="36.97719586735938" lon="15.220445993108664"><ele>24.333333333333336</ele><time>2026-04-06T08:31:39.999Z</time></trkpt><trkpt lat="36.97707324760574" lon="15.220334314659318"><ele>25.666666666666668</ele><time>2026-04-06T08:31:40.999Z</time></trkpt><trkpt lat="36.97694873293046" lon="15.220223387433018"><ele>27.0</ele><time>2026-04-06T08:31:41.999Z</time></trkpt><trkpt lat="36.976823672670434" lon="15.220113317074416"><ele>27.0</ele><time>2026-04-06T08:31:42.999Z</time></trkpt><trkpt lat="36.97669789712549" lon="15.21999785212566"><ele>27.0</ele><time>2026-04-06T08:31:43.999Z</time></trkpt><trkpt lat="36.976573532474774" lon="15.219884082691255"><ele>27.0</ele><time>2026-04-06T08:31:44.999Z</time></trkpt><trkpt lat="36.97645271933928" lon="15.219771480526088"><ele>28.0</ele><time>2026-04-06T08:31:45.999Z</time></trkpt><trkpt lat="36.97633222765458" lon="15.2196571802433"><ele>29.0</ele><time>2026-04-06T08:31:46.999Z</time></trkpt><trkpt lat="36.976213269847996" lon="15.219546102561893"><ele>30.0</ele><time>2026-04-06T08:31:47.999Z</time></trkpt><trkpt lat="36.97609939013848" lon="15.219441744547723"><ele>31.0</ele><time>2026-04-06T08:31:48.999Z</time></trkpt><trkpt lat="36.97599012913051" lon="15.219338404489307"><ele>31.0</ele><time>2026-04-06T08:31:49.999Z</time></trkpt><trkpt lat="36.9758859397806" lon="15.21923891116595"><ele>31.0</ele><time>2026-04-06T08:31:50.999Z</time></trkpt><trkpt lat="36.97578068187455" lon="15.219143094419877"><ele>31.0</ele><time>2026-04-06T08:31:51.999Z</time></trkpt><trkpt lat="36.97567104870929" lon="15.219045541707628"><ele>31.0</ele><time>2026-04-06T08:31:52.999Z</time></trkpt><trkpt lat="36.97556078728668" lon="15.218951526437763"><ele>32.0</ele><time>2026-04-06T08:31:53.999Z</time></trkpt><trkpt lat="36.97545290084819" lon="15.218860401146795"><ele>33.0</ele><time>2026-04-06T08:31:54.999Z</time></trkpt><trkpt lat="36.97534873625992" lon="15.218758321353064"><ele>34.0</ele><time>2026-04-06T08:31:55.999Z</time></trkpt><trkpt lat="36.97524681341378" lon="15.218657034329077"><ele>35.0</ele><time>2026-04-06T08:31:56.999Z</time></trkpt><trkpt lat="36.97514222376911" lon="15.218566142325727"><ele>35.0</ele><time>2026-04-06T08:31:57.999Z</time></trkpt><trkpt lat="36.97504008748601" lon="15.218474631182804"><ele>35.0</ele><time>2026-04-06T08:31:58.999Z</time></trkpt><trkpt lat="36.974940066014696" lon="15.218383310220865"><ele>35.0</ele><time>2026-04-06T08:31:59.999Z</time></trkpt><trkpt lat="36.97484016626572" lon="15.21829353788303"><ele>35.0</ele><time>2026-04-06T08:32:00.999Z</time></trkpt><trkpt lat="36.97474070030018" lon="15.218204677568364"><ele>35.0</ele><time>2026-04-06T08:32:01.999Z</time></trkpt><trkpt lat="36.97464459200704" lon="15.21811971621924"><ele>35.0</ele><time>2026-04-06T08:32:02.999Z</time></trkpt><trkpt lat="36.97455838880018" lon="15.218039657153176"><ele>35.0</ele><time>2026-04-06T08:32:03.999Z</time></trkpt><trkpt lat="36.97448253921563" lon="15.21796709361769"><ele>35.0</ele><time>2026-04-06T08:32:04.999Z</time></trkpt><trkpt lat="36.97439856138658" lon="15.21789456137809"><ele>35.0</ele><time>2026-04-06T08:32:05.999Z</time></trkpt><trkpt lat="36.97430675643297" lon="15.217814807109884"><ele>35.0</ele><time>2026-04-06T08:32:06.999Z</time></trkpt><trkpt lat="36.974210732130175" lon="15.21772981567747"><ele>35.0</ele><time>2026-04-06T08:32:07.999Z</time></trkpt><trkpt lat="36.974108360592346" lon="15.217635502736014"><ele>35.0</ele><time>2026-04-06T08:32:08.999Z</time></trkpt><trkpt lat="36.97400882103224" lon="15.217534588205103"><ele>35.0</ele><time>2026-04-06T08:32:09.999Z</time></trkpt><trkpt lat="36.97391156176436" lon="15.217434350074216"><ele>35.0</ele><time>2026-04-06T08:32:10.999Z</time></trkpt><trkpt lat="36.97381708319454" lon="15.21733102346058"><ele>35.0</ele><time>2026-04-06T08:32:11.999Z</time></trkpt><trkpt lat="36.97372462977165" lon="15.217223411592995"><ele>35.0</ele><time>2026-04-06T08:32:12.999Z</time></trkpt><trkpt lat="36.97363349428817" lon="15.217114509630138"><ele>35.0</ele><time>2026-04-06T08:32:13.999Z</time></trkpt><trkpt lat="36.97354541718979" lon="15.217020266217705"><ele>35.0</ele><time>2026-04-06T08:32:14.999Z</time></trkpt><trkpt lat="36.9734649488984" lon="15.21692720793152"><ele>35.0</ele><time>2026-04-06T08:32:15.999Z</time></trkpt><trkpt lat="36.97340118552189" lon="15.216838847889298"><ele>35.0</ele><time>2026-04-06T08:32:16.999Z</time></trkpt><trkpt lat="36.97333218142808" lon="15.216750744642903"><ele>35.0</ele><time>2026-04-06T08:32:17.999Z</time></trkpt><trkpt lat="36.973263254971634" lon="15.216671421995695"><ele>35.0</ele><time>2026-04-06T08:32:18.999Z</time></trkpt><trkpt lat="36.973199113347015" lon="15.216593939628451"><ele>35.4</ele><time>2026-04-06T08:32:19.999Z</time></trkpt><trkpt lat="36.9731372452507" lon="15.216520260707252"><ele>35.8</ele><time>2026-04-06T08:32:20.999Z</time></trkpt><trkpt lat="36.973083924466714" lon="15.21645820881695"><ele>36.2</ele><time>2026-04-06T08:32:21.999Z</time></trkpt><trkpt lat="36.973035376130376" lon="15.216400369221754"><ele>36.6</ele><time>2026-04-06T08:32:22.999Z</time></trkpt><trkpt lat="36.97295757451519" lon="15.216297426628351"><ele>37.0</ele><time>2026-04-06T08:32:24.999Z</time></trkpt><trkpt lat="36.972869790160765" lon="15.216204991247547"><ele>37.0</ele><time>2026-04-06T08:32:26.999Z</time></trkpt><trkpt lat="36.97281938467765" lon="15.216149470474473"><ele>37.0</ele><time>2026-04-06T08:32:27.999Z</time></trkpt><trkpt lat="36.97276517401145" lon="15.216084930191304"><ele>37.0</ele><time>2026-04-06T08:32:28.999Z</time></trkpt><trkpt lat="36.972720763666764" lon="15.216000077816673"><ele>37.0</ele><time>2026-04-06T08:32:29.999Z</time></trkpt><trkpt lat="36.97266045670748" lon="15.215919963450403"><ele>37.0</ele><time>2026-04-06T08:32:30.999Z</time></trkpt><trkpt lat="36.97259458162394" lon="15.215832452134483"><ele>37.0</ele><time>2026-04-06T08:32:31.999Z</time></trkpt><trkpt lat="36.97253173579335" lon="15.215748964988617"><ele>37.0</ele><time>2026-04-06T08:32:32.999Z</time></trkpt><trkpt lat="36.9724592493785" lon="15.215651106792537"><ele>37.0</ele><time>2026-04-06T08:32:33.999Z</time></trkpt><trkpt lat="36.972377495489084" lon="15.215553913371137"><ele>37.0</ele><time>2026-04-06T08:32:34.999Z</time></trkpt><trkpt lat="36.97230821646837" lon="15.21543637756338"><ele>37.0</ele><time>2026-04-06T08:32:35.999Z</time></trkpt><trkpt lat="36.97223529225576" lon="15.215315348499823"><ele>37.0</ele><time>2026-04-06T08:32:36.999Z</time></trkpt><trkpt lat="36.97214987152221" lon="15.2151878430499"><ele>37.0</ele><time>2026-04-06T08:32:37.999Z</time></trkpt><trkpt lat="36.97206671864" lon="15.215064480789268"><ele>37.0</ele><time>2026-04-06T08:32:38.999Z</time></trkpt><trkpt lat="36.97199847345477" lon="15.214953975388017"><ele>37.0</ele><time>2026-04-06T08:32:39.999Z</time></trkpt><trkpt lat="36.97193398003743" lon="15.214855241694709"><ele>36.66666666666667</ele><time>2026-04-06T08:32:40.999Z</time></trkpt><trkpt lat="36.97187307532568" lon="15.214763462032504"><ele>36.333333333333336</ele><time>2026-04-06T08:32:41.999Z</time></trkpt><trkpt lat="36.97181519211936" lon="15.214680616247156"><ele>36.0</ele><time>2026-04-06T08:32:42.999Z</time></trkpt><trkpt lat="36.971753270400434" lon="15.214609189806415"><ele>35.666666666666664</ele><time>2026-04-06T08:32:43.999Z</time></trkpt><trkpt lat="36.97169022725818" lon="15.214543813797961"><ele>35.33333333333333</ele><time>2026-04-06T08:32:44.999Z</time></trkpt><trkpt lat="36.97162181858547" lon="15.214465162606972"><ele>35.0</ele><time>2026-04-06T08:32:45.999Z</time></trkpt><trkpt lat="36.97154009755183" lon="15.214377546926732"><ele>35.0</ele><time>2026-04-06T08:32:46.999Z</time></trkpt><trkpt lat="36.971450782333825" lon="15.214282537345728"><ele>35.0</ele><time>2026-04-06T08:32:47.999Z</time></trkpt><trkpt lat="36.971360496378836" lon="15.214186856201447"><ele>35.0</ele><time>2026-04-06T08:32:48.999Z</time></trkpt><trkpt lat="36.97127723415368" lon="15.214097824827956"><ele>35.0</ele><time>2026-04-06T08:32:49.999Z</time></trkpt><trkpt lat="36.97120775816418" lon="15.21401363478695"><ele>35.0</ele><time>2026-04-06T08:32:50.999Z</time></trkpt><trkpt lat="36.971142871470505" lon="15.2139401139579"><ele>35.0</ele><time>2026-04-06T08:32:51.999Z</time></trkpt><trkpt lat="36.97107582678292" lon="15.213868134656957"><ele>35.0</ele><time>2026-04-06T08:32:52.999Z</time></trkpt><trkpt lat="36.97100470292933" lon="15.213779623982214"><ele>35.0</ele><time>2026-04-06T08:32:53.999Z</time></trkpt><trkpt lat="36.97091545683581" lon="15.213663167320433"><ele>35.0</ele><time>2026-04-06T08:32:54.999Z</time></trkpt><trkpt lat="36.97081472913771" lon="15.213552961042545"><ele>34.8</ele><time>2026-04-06T08:32:55.999Z</time></trkpt><trkpt lat="36.970718838888985" lon="15.213459068501612"><ele>34.6</ele><time>2026-04-06T08:32:56.999Z</time></trkpt><trkpt lat="36.97062913828006" lon="15.213379981548458"><ele>34.4</ele><time>2026-04-06T08:32:57.999Z</time></trkpt><trkpt lat="36.970554059196004" lon="15.21331121288872"><ele>34.2</ele><time>2026-04-06T08:32:58.999Z</time></trkpt><trkpt lat="36.97049628751424" lon="15.213249533455528"><ele>34.0</ele><time>2026-04-06T08:32:59.999Z</time></trkpt><trkpt lat="36.97043316512614" lon="15.213161559512134"><ele>34.25</ele><time>2026-04-06T08:33:01.999Z</time></trkpt><trkpt lat="36.97054530062014" lon="15.213050998472193"><ele>34.5</ele><time>2026-04-06T08:33:05.999Z</time></trkpt><trkpt lat="36.97064374923887" lon="15.212936227769159"><ele>34.75</ele><time>2026-04-06T08:33:07.999Z</time></trkpt><trkpt lat="36.970668347671655" lon="15.212837967116029"><ele>35.0</ele><time>2026-04-06T08:33:08.999Z</time></trkpt><trkpt lat="36.97070928906669" lon="15.212716706641645"><ele>35.0</ele><time>2026-04-06T08:33:09.999Z</time></trkpt><trkpt lat="36.9707523796153" lon="15.212588134397636"><ele>35.0</ele><time>2026-04-06T08:33:10.999Z</time></trkpt><trkpt lat="36.97079848479592" lon="15.212453721188258"><ele>35.0</ele><time>2026-04-06T08:33:11.999Z</time></trkpt><trkpt lat="36.97085369885839" lon="15.212294338030889"><ele>35.0</ele><time>2026-04-06T08:33:12.999Z</time></trkpt><trkpt lat="36.970898893885" lon="15.212145375986111"><ele>35.5</ele><time>2026-04-06T08:33:13.999Z</time></trkpt><trkpt lat="36.970947966661704" lon="15.21199254273014"><ele>36.0</ele><time>2026-04-06T08:33:14.999Z</time></trkpt><trkpt lat="36.971001997586136" lon="15.211834240087642"><ele>36.5</ele><time>2026-04-06T08:33:15.999Z</time></trkpt><trkpt lat="36.97105023722529" lon="15.211684699596507"><ele>37.0</ele><time>2026-04-06T08:33:16.999Z</time></trkpt><trkpt lat="36.97110034664374" lon="15.211552527815511"><ele>37.5</ele><time>2026-04-06T08:33:17.999Z</time></trkpt><trkpt lat="36.97114892052457" lon="15.211418924237806"><ele>38.0</ele><time>2026-04-06T08:33:18.999Z</time></trkpt><trkpt lat="36.97118567068662" lon="15.211277509841596"><ele>38.5</ele><time>2026-04-06T08:33:19.999Z</time></trkpt><trkpt lat="36.97122836000157" lon="15.211133086567985"><ele>39.0</ele><time>2026-04-06T08:33:20.999Z</time></trkpt><trkpt lat="36.97128738527182" lon="15.21097274676201"><ele>39.0</ele><time>2026-04-06T08:33:21.999Z</time></trkpt><trkpt lat="36.971351610374306" lon="15.210801585221455"><ele>39.0</ele><time>2026-04-06T08:33:22.999Z</time></trkpt><trkpt lat="36.97141187964396" lon="15.210631728324037"><ele>39.0</ele><time>2026-04-06T08:33:23.999Z</time></trkpt><trkpt lat="36.971463116591586" lon="15.210474192226135"><ele>39.0</ele><time>2026-04-06T08:33:24.999Z</time></trkpt><trkpt lat="36.971511475705356" lon="15.210318928961932"><ele>39.0</ele><time>2026-04-06T08:33:25.999Z</time></trkpt><trkpt lat="36.97156002488257" lon="15.210162035256678"><ele>39.0</ele><time>2026-04-06T08:33:26.999Z</time></trkpt><trkpt lat="36.97161241621003" lon="15.2100075609064"><ele>39.0</ele><time>2026-04-06T08:33:27.999Z</time></trkpt><trkpt lat="36.97166194683549" lon="15.209864236619351"><ele>39.0</ele><time>2026-04-06T08:33:28.999Z</time></trkpt><trkpt lat="36.97171245130296" lon="15.209726108950184"><ele>39.25</ele><time>2026-04-06T08:33:29.999Z</time></trkpt><trkpt lat="36.971762852559735" lon="15.20957382827344"><ele>39.5</ele><time>2026-04-06T08:33:30.999Z</time></trkpt><trkpt lat="36.97180669332477" lon="15.209419073585654"><ele>39.75</ele><time>2026-04-06T08:33:31.999Z</time></trkpt><trkpt lat="36.97185658156616" lon="15.20926901682785"><ele>40.0</ele><time>2026-04-06T08:33:32.999Z</time></trkpt><trkpt lat="36.97191229234874" lon="15.209115773326008"><ele>40.5</ele><time>2026-04-06T08:33:33.999Z</time></trkpt><trkpt lat="36.97196549130371" lon="15.20895249750736"><ele>41.0</ele><time>2026-04-06T08:33:34.999Z</time></trkpt><trkpt lat="36.97201766507969" lon="15.208791341450015"><ele>41.5</ele><time>2026-04-06T08:33:35.999Z</time></trkpt><trkpt lat="36.972070540058155" lon="15.208638162236861"><ele>42.0</ele><time>2026-04-06T08:33:36.999Z</time></trkpt><trkpt lat="36.97212283297707" lon="15.208485001879056"><ele>42.0</ele><time>2026-04-06T08:33:37.999Z</time></trkpt><trkpt lat="36.97217455535216" lon="15.20832613889684"><ele>42.0</ele><time>2026-04-06T08:33:38.999Z</time></trkpt><trkpt lat="36.972229148661405" lon="15.208162493481266"><ele>42.0</ele><time>2026-04-06T08:33:39.999Z</time></trkpt><trkpt lat="36.97228239151779" lon="15.208001151246412"><ele>42.0</ele><time>2026-04-06T08:33:40.999Z</time></trkpt><trkpt lat="36.97232934353932" lon="15.207857426256934"><ele>42.2</ele><time>2026-04-06T08:33:41.999Z</time></trkpt><trkpt lat="36.97237054868324" lon="15.207729639446883"><ele>42.400000000000006</ele><time>2026-04-06T08:33:42.999Z</time></trkpt><trkpt lat="36.97240593115218" lon="15.207618376823017"><ele>42.599999999999994</ele><time>2026-04-06T08:33:43.999Z</time></trkpt><trkpt lat="36.97243569186201" lon="15.207529911396097"><ele>42.8</ele><time>2026-04-06T08:33:44.999Z</time></trkpt><trkpt lat="36.9724572750786" lon="15.207450208490007"><ele>43.0</ele><time>2026-04-06T08:33:45.999Z</time></trkpt><trkpt lat="36.97242178665849" lon="15.20730030181575"><ele>43.16666666666667</ele><time>2026-04-06T08:33:47.999Z</time></trkpt><trkpt lat="36.972369744969896" lon="15.207230283345826"><ele>43.333333333333336</ele><time>2026-04-06T08:33:48.999Z</time></trkpt><trkpt lat="36.97230779319926" lon="15.207155201204296"><ele>43.5</ele><time>2026-04-06T08:33:49.999Z</time></trkpt><trkpt lat="36.97223640560258" lon="15.207074580045438"><ele>43.666666666666664</ele><time>2026-04-06T08:33:50.999Z</time></trkpt><trkpt lat="36.972162940556984" lon="15.20699501913291"><ele>43.83333333333333</ele><time>2026-04-06T08:33:51.999Z</time></trkpt><trkpt lat="36.972096078290946" lon="15.206915352939436"><ele>44.0</ele><time>2026-04-06T08:33:52.999Z</time></trkpt><trkpt lat="36.97203676367708" lon="15.206835128881877"><ele>44.0</ele><time>2026-04-06T08:33:53.999Z</time></trkpt><trkpt lat="36.971987799488865" lon="15.20674355144748"><ele>44.0</ele><time>2026-04-06T08:33:54.999Z</time></trkpt><trkpt lat="36.971946059869104" lon="15.206632835452368"><ele>44.0</ele><time>2026-04-06T08:33:55.999Z</time></trkpt><trkpt lat="36.97190008868816" lon="15.206517204531808"><ele>44.0</ele><time>2026-04-06T08:33:56.999Z</time></trkpt><trkpt lat="36.97185451344387" lon="15.206406869979226"><ele>44.0</ele><time>2026-04-06T08:33:57.999Z</time></trkpt><trkpt lat="36.971814089846994" lon="15.206291042457096"><ele>44.0</ele><time>2026-04-06T08:33:58.999Z</time></trkpt><trkpt lat="36.97176983684383" lon="15.20616329643271"><ele>44.0</ele><time>2026-04-06T08:33:59.999Z</time></trkpt><trkpt lat="36.97172201674726" lon="15.206031451327654"><ele>44.0</ele><time>2026-04-06T08:34:00.999Z</time></trkpt><trkpt lat="36.97167594370957" lon="15.205906839280335"><ele>44.0</ele><time>2026-04-06T08:34:01.999Z</time></trkpt><trkpt lat="36.971634692143276" lon="15.20578600085049"><ele>44.0</ele><time>2026-04-06T08:34:02.999Z</time></trkpt><trkpt lat="36.97159521051358" lon="15.205671938182812"><ele>44.400000000000006</ele><time>2026-04-06T08:34:03.999Z</time></trkpt><trkpt lat="36.97155962038766" lon="15.205566962516906"><ele>44.8</ele><time>2026-04-06T08:34:04.999Z</time></trkpt><trkpt lat="36.97152460366116" lon="15.205463877911553"><ele>45.2</ele><time>2026-04-06T08:34:05.999Z</time></trkpt><trkpt lat="36.9714847861723" lon="15.20535406714288"><ele>45.599999999999994</ele><time>2026-04-06T08:34:06.999Z</time></trkpt><trkpt lat="36.97143956519276" lon="15.205228791415488"><ele>46.0</ele><time>2026-04-06T08:34:07.999Z</time></trkpt><trkpt lat="36.97139338789574" lon="15.205098551624904"><ele>46.0</ele><time>2026-04-06T08:34:08.999Z</time></trkpt><trkpt lat="36.971346673599946" lon="15.204976405698288"><ele>46.0</ele><time>2026-04-06T08:34:09.999Z</time></trkpt><trkpt lat="36.971302387656664" lon="15.204866682045859"><ele>46.0</ele><time>2026-04-06T08:34:10.999Z</time></trkpt><trkpt lat="36.97126702041411" lon="15.204774113186067"><ele>46.0</ele><time>2026-04-06T08:34:11.999Z</time></trkpt><trkpt lat="36.97123602595675" lon="15.204691298449761"><ele>46.0</ele><time>2026-04-06T08:34:12.999Z</time></trkpt><trkpt lat="36.971220649621095" lon="15.204548845549866"><ele>46.199999999999996</ele><time>2026-04-06T08:34:14.999Z</time></trkpt><trkpt lat="36.97125133337811" lon="15.204476285086383"><ele>46.4</ele><time>2026-04-06T08:34:15.999Z</time></trkpt><trkpt lat="36.97129767766406" lon="15.204381852229723"><ele>46.6</ele><time>2026-04-06T08:34:16.999Z</time></trkpt><trkpt lat="36.97135674281443" lon="15.204267412814346"><ele>46.8</ele><time>2026-04-06T08:34:17.999Z</time></trkpt><trkpt lat="36.97142185776283" lon="15.204151079717633"><ele>47.0</ele><time>2026-04-06T08:34:18.999Z</time></trkpt><trkpt lat="36.971485430947034" lon="15.20404357872186"><ele>47.25</ele><time>2026-04-06T08:34:19.999Z</time></trkpt><trkpt lat="36.97155520883408" lon="15.203919012420481"><ele>47.5</ele><time>2026-04-06T08:34:20.999Z</time></trkpt><trkpt lat="36.97162855305568" lon="15.203786248905898"><ele>47.75</ele><time>2026-04-06T08:34:21.999Z</time></trkpt><trkpt lat="36.97170260877215" lon="15.203648178046235"><ele>48.0</ele><time>2026-04-06T08:34:22.999Z</time></trkpt><trkpt lat="36.9717754048347" lon="15.20350968676904"><ele>48.5</ele><time>2026-04-06T08:34:23.999Z</time></trkpt><trkpt lat="36.97185361806814" lon="15.203364508204334"><ele>49.0</ele><time>2026-04-06T08:34:24.999Z</time></trkpt><trkpt lat="36.97193648413884" lon="15.203215582109006"><ele>49.5</ele><time>2026-04-06T08:34:25.999Z</time></trkpt><trkpt lat="36.97202086862567" lon="15.203063085635804"><ele>50.0</ele><time>2026-04-06T08:34:26.999Z</time></trkpt><trkpt lat="36.97210254088042" lon="15.202909236449605"><ele>50.5</ele><time>2026-04-06T08:34:27.999Z</time></trkpt><trkpt lat="36.97218053498593" lon="15.202759865444929"><ele>51.0</ele><time>2026-04-06T08:34:28.999Z</time></trkpt><trkpt lat="36.97225817626592" lon="15.202615781481635"><ele>51.5</ele><time>2026-04-06T08:34:29.999Z</time></trkpt><trkpt lat="36.972336493791865" lon="15.202476941316588"><ele>52.0</ele><time>2026-04-06T08:34:30.999Z</time></trkpt><trkpt lat="36.97241512784205" lon="15.202343423645512"><ele>52.0</ele><time>2026-04-06T08:34:31.999Z</time></trkpt><trkpt lat="36.972497135373054" lon="15.202210638233934"><ele>52.0</ele><time>2026-04-06T08:34:32.999Z</time></trkpt><trkpt lat="36.97258899848068" lon="15.202080210609857"><ele>52.0</ele><time>2026-04-06T08:34:33.999Z</time></trkpt><trkpt lat="36.972699253843295" lon="15.201956442956691"><ele>52.0</ele><time>2026-04-06T08:34:34.999Z</time></trkpt><trkpt lat="36.97281718496086" lon="15.201837329245587"><ele>52.0</ele><time>2026-04-06T08:34:35.999Z</time></trkpt><trkpt lat="36.972931572532254" lon="15.201723610879277"><ele>52.0</ele><time>2026-04-06T08:34:36.999Z</time></trkpt><trkpt lat="36.97304638646" lon="15.201614183641091"><ele>52.0</ele><time>2026-04-06T08:34:37.999Z</time></trkpt><trkpt lat="36.97316160361124" lon="15.20150656910435"><ele>52.0</ele><time>2026-04-06T08:34:38.999Z</time></trkpt><trkpt lat="36.973279076277585" lon="15.201396386485007"><ele>52.0</ele><time>2026-04-06T08:34:39.999Z</time></trkpt><trkpt lat="36.973398301030535" lon="15.201280751278498"><ele>52.0</ele><time>2026-04-06T08:34:40.999Z</time></trkpt><trkpt lat="36.9735127258435" lon="15.20116350169045"><ele>52.0</ele><time>2026-04-06T08:34:41.999Z</time></trkpt><trkpt lat="36.97362611055656" lon="15.201048704441867"><ele>52.0</ele><time>2026-04-06T08:34:42.999Z</time></trkpt><trkpt lat="36.973738973657184" lon="15.200937201509069"><ele>52.0</ele><time>2026-04-06T08:34:43.999Z</time></trkpt><trkpt lat="36.973851512055695" lon="15.20083063184881"><ele>52.0</ele><time>2026-04-06T08:34:44.999Z</time></trkpt><trkpt lat="36.97396188247435" lon="15.20072103894183"><ele>52.0</ele><time>2026-04-06T08:34:45.999Z</time></trkpt><trkpt lat="36.97406862359614" lon="15.200611002172147"><ele>52.0</ele><time>2026-04-06T08:34:46.999Z</time></trkpt><trkpt lat="36.97417544814402" lon="15.200508925073162"><ele>52.5</ele><time>2026-04-06T08:34:47.999Z</time></trkpt><trkpt lat="36.97427844410676" lon="15.200410167766147"><ele>53.0</ele><time>2026-04-06T08:34:48.999Z</time></trkpt><trkpt lat="36.974371231318436" lon="15.20031793925707"><ele>53.5</ele><time>2026-04-06T08:34:49.999Z</time></trkpt><trkpt lat="36.97445770594866" lon="15.20023160803624"><ele>54.0</ele><time>2026-04-06T08:34:50.999Z</time></trkpt><trkpt lat="36.97453344566819" lon="15.200157409031682"><ele>54.0</ele><time>2026-04-06T08:34:51.999Z</time></trkpt><trkpt lat="36.97459510719426" lon="15.20009611555904"><ele>54.00000000000001</ele><time>2026-04-06T08:34:52.999Z</time></trkpt><trkpt lat="36.974646528971384" lon="15.200042667697925"><ele>54.00000000000001</ele><time>2026-04-06T08:34:53.999Z</time></trkpt><trkpt lat="36.974721834780155" lon="15.199972329148089"><ele>54.0</ele><time>2026-04-06T08:34:55.999Z</time></trkpt><trkpt lat="36.97462611798989" lon="15.199767018167156"><ele>54.0</ele><time>2026-04-06T08:34:57.999Z</time></trkpt><trkpt lat="36.97456273721994" lon="15.199684802837327"><ele>54.2</ele><time>2026-04-06T08:34:58.999Z</time></trkpt><trkpt lat="36.97449645593165" lon="15.199593925331692"><ele>54.400000000000006</ele><time>2026-04-06T08:34:59.999Z</time></trkpt><trkpt lat="36.974425890165755" lon="15.199491797016062"><ele>54.6</ele><time>2026-04-06T08:35:00.999Z</time></trkpt><trkpt lat="36.9743528620634" lon="15.19937676663364"><ele>54.8</ele><time>2026-04-06T08:35:01.999Z</time></trkpt><trkpt lat="36.97427787838202" lon="15.199251230445622"><ele>55.0</ele><time>2026-04-06T08:35:02.999Z</time></trkpt><trkpt lat="36.974201847132825" lon="15.19913225692007"><ele>55.0</ele><time>2026-04-06T08:35:03.999Z</time></trkpt><trkpt lat="36.97412898696026" lon="15.199020315906433"><ele>55.0</ele><time>2026-04-06T08:35:04.999Z</time></trkpt><trkpt lat="36.97405682590432" lon="15.198914258869063"><ele>55.0</ele><time>2026-04-06T08:35:05.999Z</time></trkpt><trkpt lat="36.97398758120248" lon="15.19881289794857"><ele>55.0</ele><time>2026-04-06T08:35:06.999Z</time></trkpt><trkpt lat="36.97392667138326" lon="15.198708786467504"><ele>55.0</ele><time>2026-04-06T08:35:07.999Z</time></trkpt><trkpt lat="36.97388233712262" lon="15.198604655605982"><ele>54.99999999999999</ele><time>2026-04-06T08:35:08.999Z</time></trkpt><trkpt lat="36.97383476755903" lon="15.19850516226927"><ele>55.0</ele><time>2026-04-06T08:35:09.999Z</time></trkpt><trkpt lat="36.97377537849441" lon="15.198419527484896"><ele>55.0</ele><time>2026-04-06T08:35:10.999Z</time></trkpt><trkpt lat="36.973714422793456" lon="15.198338121834775"><ele>55.0</ele><time>2026-04-06T08:35:11.999Z</time></trkpt><trkpt lat="36.973658146517245" lon="15.198269307281047"><ele>54.99999999999999</ele><time>2026-04-06T08:35:12.999Z</time></trkpt><trkpt lat="36.973611457251636" lon="15.198206777590336"><ele>55.0</ele><time>2026-04-06T08:35:13.999Z</time></trkpt><trkpt lat="36.973564550640425" lon="15.198079819798714"><ele>55.33333333333333</ele><time>2026-04-06T08:35:15.999Z</time></trkpt><trkpt lat="36.97362323617941" lon="15.197986352771206"><ele>55.666666666666664</ele><time>2026-04-06T08:35:17.999Z</time></trkpt><trkpt lat="36.97369104323841" lon="15.197949374997924"><ele>56.0</ele><time>2026-04-06T08:35:18.999Z</time></trkpt><trkpt lat="36.973766239766434" lon="15.19789825818762"><ele>56.33333333333333</ele><time>2026-04-06T08:35:19.999Z</time></trkpt><trkpt lat="36.973816952384226" lon="15.197842472219806"><ele>56.666666666666664</ele><time>2026-04-06T08:35:20.999Z</time></trkpt><trkpt lat="36.97386441006028" lon="15.197785546396846"><ele>57.0</ele><time>2026-04-06T08:35:21.999Z</time></trkpt><trkpt lat="36.97390976925167" lon="15.19772296831441"><ele>57.0</ele><time>2026-04-06T08:35:22.999Z</time></trkpt><trkpt lat="36.973966832776085" lon="15.197663602515588"><ele>57.0</ele><time>2026-04-06T08:35:23.999Z</time></trkpt><trkpt lat="36.9740352343491" lon="15.197607058418685"><ele>57.0</ele><time>2026-04-06T08:35:24.999Z</time></trkpt><trkpt lat="36.97410496871096" lon="15.197555054460251"><ele>57.0</ele><time>2026-04-06T08:35:25.999Z</time></trkpt><trkpt lat="36.97417552324599" lon="15.19749523150814"><ele>57.0</ele><time>2026-04-06T08:35:26.999Z</time></trkpt><trkpt lat="36.974239800717186" lon="15.197427101946376"><ele>57.0</ele><time>2026-04-06T08:35:27.999Z</time></trkpt><trkpt lat="36.97429462568597" lon="15.197367229638386"><ele>57.2</ele><time>2026-04-06T08:35:28.999Z</time></trkpt><trkpt lat="36.974388643721035" lon="15.19727912091732"><ele>57.400000000000006</ele><time>2026-04-06T08:35:30.999Z</time></trkpt><trkpt lat="36.97444187398177" lon="15.197215206278559"><ele>57.599999999999994</ele><time>2026-04-06T08:35:31.999Z</time></trkpt><trkpt lat="36.97451467390701" lon="15.197129554155254"><ele>57.8</ele><time>2026-04-06T08:35:32.999Z</time></trkpt><trkpt lat="36.97460264007265" lon="15.197047900246625"><ele>58.0</ele><time>2026-04-06T08:35:33.999Z</time></trkpt><trkpt lat="36.97469190650601" lon="15.19697332246702"><ele>58.0</ele><time>2026-04-06T08:35:34.999Z</time></trkpt><trkpt lat="36.97476897315729" lon="15.19690030781468"><ele>58.0</ele><time>2026-04-06T08:35:35.999Z</time></trkpt><trkpt lat="36.97484278825476" lon="15.19681764212062"><ele>58.0</ele><time>2026-04-06T08:35:36.999Z</time></trkpt><trkpt lat="36.97491345694862" lon="15.196735672262344"><ele>58.0</ele><time>2026-04-06T08:35:37.999Z</time></trkpt><trkpt lat="36.97497503398573" lon="15.19666250586484"><ele>58.0</ele><time>2026-04-06T08:35:38.999Z</time></trkpt><trkpt lat="36.9750447800745" lon="15.196621755105005"><ele>58.00000000000001</ele><time>2026-04-06T08:35:39.999Z</time></trkpt><trkpt lat="36.975098561508936" lon="15.196569695612768"><ele>58.0</ele><time>2026-04-06T08:35:40.999Z</time></trkpt><trkpt lat="36.9751590687575" lon="15.196509248453083"><ele>58.00000000000001</ele><time>2026-04-06T08:35:41.999Z</time></trkpt><trkpt lat="36.97521925330303" lon="15.196448082800929"><ele>58.00000000000001</ele><time>2026-04-06T08:35:42.999Z</time></trkpt><trkpt lat="36.975275002041805" lon="15.196390922040376"><ele>58.0</ele><time>2026-04-06T08:35:43.999Z</time></trkpt><trkpt lat="36.97531408012808" lon="15.196326967197221"><ele>58.00000000000001</ele><time>2026-04-06T08:35:44.999Z</time></trkpt><trkpt lat="36.97538275009005" lon="15.196280444921738"><ele>58.00000000000001</ele><time>2026-04-06T08:35:46.999Z</time></trkpt><trkpt lat="36.97544687775834" lon="15.196231118928926"><ele>58.166666666666664</ele><time>2026-04-06T08:36:01.999Z</time></trkpt><trkpt lat="36.975479905639155" lon="15.196154089186743"><ele>58.33333333333333</ele><time>2026-04-06T08:36:07.999Z</time></trkpt><trkpt lat="36.975434887896846" lon="15.196021933918379"><ele>58.5</ele><time>2026-04-06T08:36:09.999Z</time></trkpt><trkpt lat="36.97536244018788" lon="15.195954354922991"><ele>58.66666666666667</ele><time>2026-04-06T08:36:10.999Z</time></trkpt><trkpt lat="36.97530476628111" lon="15.195901490563505"><ele>58.833333333333336</ele><time>2026-04-06T08:36:11.999Z</time></trkpt><trkpt lat="36.97523646945435" lon="15.195818850267298"><ele>59.0</ele><time>2026-04-06T08:36:12.999Z</time></trkpt><trkpt lat="36.975159982204666" lon="15.195729428718394"><ele>59.0</ele><time>2026-04-06T08:36:13.999Z</time></trkpt><trkpt lat="36.97507810321806" lon="15.195638326199367"><ele>59.0</ele><time>2026-04-06T08:36:14.999Z</time></trkpt><trkpt lat="36.97498358301759" lon="15.195537474664105"><ele>59.0</ele><time>2026-04-06T08:36:15.999Z</time></trkpt><trkpt lat="36.97488322389963" lon="15.195418025008369"><ele>59.0</ele><time>2026-04-06T08:36:16.999Z</time></trkpt><trkpt lat="36.974792246942386" lon="15.195303338764516"><ele>58.75</ele><time>2026-04-06T08:36:17.999Z</time></trkpt><trkpt lat="36.97470361848188" lon="15.195197272138047"><ele>58.5</ele><time>2026-04-06T08:36:18.999Z</time></trkpt><trkpt lat="36.9746113582471" lon="15.195091507119525"><ele>58.25</ele><time>2026-04-06T08:36:19.999Z</time></trkpt><trkpt lat="36.974518878480154" lon="15.194984467845714"><ele>58.0</ele><time>2026-04-06T08:36:20.999Z</time></trkpt><trkpt lat="36.97442414523198" lon="15.194873071432069"><ele>57.75</ele><time>2026-04-06T08:36:21.999Z</time></trkpt><trkpt lat="36.97432609045475" lon="15.194759954202622"><ele>57.5</ele><time>2026-04-06T08:36:22.999Z</time></trkpt><trkpt lat="36.97422969833955" lon="15.194645630096373"><ele>57.25</ele><time>2026-04-06T08:36:23.999Z</time></trkpt><trkpt lat="36.97413025064757" lon="15.19453588718272"><ele>57.0</ele><time>2026-04-06T08:36:24.999Z</time></trkpt><trkpt lat="36.974031186449785" lon="15.194426270778752"><ele>55.75</ele><time>2026-04-06T08:36:25.999Z</time></trkpt><trkpt lat="36.97393586888027" lon="15.194314687326779"><ele>54.5</ele><time>2026-04-06T08:36:26.999Z</time></trkpt><trkpt lat="36.973839880193715" lon="15.194202816435558"><ele>53.25</ele><time>2026-04-06T08:36:27.999Z</time></trkpt><trkpt lat="36.97374388163567" lon="15.194092335637345"><ele>52.0</ele><time>2026-04-06T08:36:28.999Z</time></trkpt><trkpt lat="36.973645167935935" lon="15.193978899732471"><ele>52.0</ele><time>2026-04-06T08:36:29.999Z</time></trkpt><trkpt lat="36.9735444502572" lon="15.19386127708039"><ele>52.0</ele><time>2026-04-06T08:36:30.999Z</time></trkpt><trkpt lat="36.973434952299975" lon="15.193733813532749"><ele>52.0</ele><time>2026-04-06T08:36:31.999Z</time></trkpt><trkpt lat="36.97332159756643" lon="15.193605830510327"><ele>52.0</ele><time>2026-04-06T08:36:32.999Z</time></trkpt><trkpt lat="36.97321264894237" lon="15.193482180185985"><ele>52.0</ele><time>2026-04-06T08:36:33.999Z</time></trkpt><trkpt lat="36.97310482995569" lon="15.193360250827311"><ele>52.0</ele><time>2026-04-06T08:36:34.999Z</time></trkpt><trkpt lat="36.97299204203299" lon="15.19323067655877"><ele>52.0</ele><time>2026-04-06T08:36:35.999Z</time></trkpt><trkpt lat="36.97287798012532" lon="15.193095866444594"><ele>52.33333333333333</ele><time>2026-04-06T08:36:36.999Z</time></trkpt><trkpt lat="36.972769643204636" lon="15.192966470280858"><ele>52.66666666666667</ele><time>2026-04-06T08:36:37.999Z</time></trkpt><trkpt lat="36.97265959674372" lon="15.192843615686467"><ele>53.0</ele><time>2026-04-06T08:36:38.999Z</time></trkpt><trkpt lat="36.972541919724094" lon="15.19271715504564"><ele>52.5</ele><time>2026-04-06T08:36:39.999Z</time></trkpt><trkpt lat="36.972425891795375" lon="15.192591597351523"><ele>52.0</ele><time>2026-04-06T08:36:40.999Z</time></trkpt><trkpt lat="36.97231661239992" lon="15.192468893118265"><ele>51.5</ele><time>2026-04-06T08:36:41.999Z</time></trkpt><trkpt lat="36.97221383752171" lon="15.192351988758626"><ele>51.0</ele><time>2026-04-06T08:36:42.999Z</time></trkpt><trkpt lat="36.97212109967085" lon="15.19224522947542"><ele>50.599999999999994</ele><time>2026-04-06T08:36:43.999Z</time></trkpt><trkpt lat="36.97203771968255" lon="15.19214056099128"><ele>50.2</ele><time>2026-04-06T08:36:44.999Z</time></trkpt><trkpt lat="36.971961675651464" lon="15.192034804230918"><ele>49.8</ele><time>2026-04-06T08:36:45.999Z</time></trkpt><trkpt lat="36.97190038969027" lon="15.191932587314364"><ele>49.400000000000006</ele><time>2026-04-06T08:36:46.999Z</time></trkpt><trkpt lat="36.97185791185206" lon="15.191828053651163"><ele>49.0</ele><time>2026-04-06T08:36:47.999Z</time></trkpt><trkpt lat="36.971823345241646" lon="15.191723018306897"><ele>49.0</ele><time>2026-04-06T08:36:48.999Z</time></trkpt><trkpt lat="36.971821362783814" lon="15.191601808508732"><ele>49.0</ele><time>2026-04-06T08:36:49.999Z</time></trkpt><trkpt lat="36.97183903517187" lon="15.191476814518149"><ele>49.0</ele><time>2026-04-06T08:36:50.999Z</time></trkpt><trkpt lat="36.97190218943784" lon="15.191352433996935"><ele>49.0</ele><time>2026-04-06T08:36:51.999Z</time></trkpt><trkpt lat="36.971984784211934" lon="15.191264790522128"><ele>49.0</ele><time>2026-04-06T08:36:52.999Z</time></trkpt><trkpt lat="36.972059187661074" lon="15.191161542341163"><ele>49.800000000000004</ele><time>2026-04-06T08:36:53.999Z</time></trkpt><trkpt lat="36.97213367808525" lon="15.191066472517821"><ele>50.6</ele><time>2026-04-06T08:36:54.999Z</time></trkpt><trkpt lat="36.97218317758907" lon="15.190972651273771"><ele>51.4</ele><time>2026-04-06T08:36:55.999Z</time></trkpt><trkpt lat="36.972231392391585" lon="15.190907484413303"><ele>52.2</ele><time>2026-04-06T08:36:56.999Z</time></trkpt><trkpt lat="36.97235398576098" lon="15.190950088444957"><ele>53.0</ele><time>2026-04-06T08:36:57.999Z</time></trkpt><trkpt lat="36.972443595655946" lon="15.19097846622635"><ele>53.5</ele><time>2026-04-06T08:36:58.999Z</time></trkpt><trkpt lat="36.972534764460676" lon="15.191048540955162"><ele>54.0</ele><time>2026-04-06T08:36:59.999Z</time></trkpt><trkpt lat="36.972622993364524" lon="15.191152205423144"><ele>54.5</ele><time>2026-04-06T08:37:00.999Z</time></trkpt><trkpt lat="36.972722603867304" lon="15.191231858593198"><ele>55.0</ele><time>2026-04-06T08:37:01.999Z</time></trkpt><trkpt lat="36.97281549690117" lon="15.191329990142014"><ele>55.0</ele><time>2026-04-06T08:37:02.999Z</time></trkpt><trkpt lat="36.97291664049829" lon="15.191434641148897"><ele>55.0</ele><time>2026-04-06T08:37:03.999Z</time></trkpt><trkpt lat="36.97302606738325" lon="15.191544911076793"><ele>55.0</ele><time>2026-04-06T08:37:04.999Z</time></trkpt><trkpt lat="36.973138341967896" lon="15.19164991320237"><ele>55.0</ele><time>2026-04-06T08:37:05.999Z</time></trkpt><trkpt lat="36.97325852962452" lon="15.191752718707288"><ele>55.5</ele><time>2026-04-06T08:37:06.999Z</time></trkpt><trkpt lat="36.973372799434905" lon="15.19185989224008"><ele>56.0</ele><time>2026-04-06T08:37:07.999Z</time></trkpt><trkpt lat="36.97349906442547" lon="15.191924094040859"><ele>56.5</ele><time>2026-04-06T08:37:08.999Z</time></trkpt><trkpt lat="36.97363056167965" lon="15.191965619008421"><ele>57.0</ele><time>2026-04-06T08:37:09.999Z</time></trkpt><trkpt lat="36.973757952052814" lon="15.191980020291282"><ele>57.0</ele><time>2026-04-06T08:37:10.999Z</time></trkpt><trkpt lat="36.973882532194494" lon="15.19195919952636"><ele>57.0</ele><time>2026-04-06T08:37:11.999Z</time></trkpt><trkpt lat="36.97400714359204" lon="15.191901702061825"><ele>57.0</ele><time>2026-04-06T08:37:12.999Z</time></trkpt><trkpt lat="36.97412812659277" lon="15.19181663523126"><ele>57.0</ele><time>2026-04-06T08:37:13.999Z</time></trkpt><trkpt lat="36.97424895063707" lon="15.191730975293426"><ele>58.0</ele><time>2026-04-06T08:37:14.999Z</time></trkpt><trkpt lat="36.97436749589014" lon="15.191666736499668"><ele>59.0</ele><time>2026-04-06T08:37:15.999Z</time></trkpt><trkpt lat="36.9744902526304" lon="15.191630758350636"><ele>60.0</ele><time>2026-04-06T08:37:16.999Z</time></trkpt><trkpt lat="36.97461709052952" lon="15.191617902635636"><ele>61.0</ele><time>2026-04-06T08:37:17.999Z</time></trkpt><trkpt lat="36.97474595850101" lon="15.191630319827171"><ele>61.0</ele><time>2026-04-06T08:37:18.999Z</time></trkpt><trkpt lat="36.9748770940661" lon="15.191657876093478"><ele>61.0</ele><time>2026-04-06T08:37:19.999Z</time></trkpt><trkpt lat="36.97501090527639" lon="15.191714944175356"><ele>61.0</ele><time>2026-04-06T08:37:20.999Z</time></trkpt><trkpt lat="36.97514597249173" lon="15.191794932170735"><ele>61.0</ele><time>2026-04-06T08:37:21.999Z</time></trkpt><trkpt lat="36.97528527478709" lon="15.191895512701006"><ele>61.0</ele><time>2026-04-06T08:37:22.999Z</time></trkpt><trkpt lat="36.97542930073309" lon="15.19200223765581"><ele>61.0</ele><time>2026-04-06T08:37:23.999Z</time></trkpt><trkpt lat="36.97558102586467" lon="15.192112904320625"><ele>61.0</ele><time>2026-04-06T08:37:24.999Z</time></trkpt><trkpt lat="36.97574303367103" lon="15.192223684065935"><ele>61.0</ele><time>2026-04-06T08:37:25.999Z</time></trkpt><trkpt lat="36.97590964889732" lon="15.192336433434818"><ele>61.0</ele><time>2026-04-06T08:37:26.999Z</time></trkpt><trkpt lat="36.97608012009565" lon="15.192454504956586"><ele>61.0</ele><time>2026-04-06T08:37:27.999Z</time></trkpt><trkpt lat="36.976244894980354" lon="15.192568551756228"><ele>61.0</ele><time>2026-04-06T08:37:28.999Z</time></trkpt><trkpt lat="36.976422144837755" lon="15.192681716188455"><ele>61.0</ele><time>2026-04-06T08:37:29.999Z</time></trkpt><trkpt lat="36.9766051717927" lon="15.192792496384538"><ele>61.0</ele><time>2026-04-06T08:37:30.999Z</time></trkpt><trkpt lat="36.97678865262579" lon="15.19289964452668"><ele>61.0</ele><time>2026-04-06T08:37:31.999Z</time></trkpt><trkpt lat="36.97697401021324" lon="15.193006438463364"><ele>61.0</ele><time>2026-04-06T08:37:32.999Z</time></trkpt><trkpt lat="36.97715992255261" lon="15.193113765424153"><ele>61.0</ele><time>2026-04-06T08:37:33.999Z</time></trkpt><trkpt lat="36.97734988711524" lon="15.193221624437879"><ele>59.666666666666664</ele><time>2026-04-06T08:37:34.999Z</time></trkpt><trkpt lat="36.97754067929233" lon="15.193329498434808"><ele>58.33333333333333</ele><time>2026-04-06T08:37:35.999Z</time></trkpt><trkpt lat="36.97773503807669" lon="15.193436837868477"><ele>57.0</ele><time>2026-04-06T08:37:36.999Z</time></trkpt><trkpt lat="36.97793271929722" lon="15.193539025039907"><ele>57.0</ele><time>2026-04-06T08:37:37.999Z</time></trkpt><trkpt lat="36.97813344169762" lon="15.193638190257525"><ele>57.0</ele><time>2026-04-06T08:37:38.999Z</time></trkpt><trkpt lat="36.9783348602847" lon="15.193735515249216"><ele>57.0</ele><time>2026-04-06T08:37:39.999Z</time></trkpt><trkpt lat="36.978537564758135" lon="15.193828155315533"><ele>56.66666666666667</ele><time>2026-04-06T08:37:40.999Z</time></trkpt><trkpt lat="36.97874170288387" lon="15.1939183580759"><ele>56.333333333333336</ele><time>2026-04-06T08:37:41.999Z</time></trkpt><trkpt lat="36.97894820528423" lon="15.194011406588409"><ele>56.0</ele><time>2026-04-06T08:37:42.999Z</time></trkpt><trkpt lat="36.97915662963829" lon="15.194103023217489"><ele>56.0</ele><time>2026-04-06T08:37:43.999Z</time></trkpt><trkpt lat="36.97936770445606" lon="15.194188892501757"><ele>56.0</ele><time>2026-04-06T08:37:44.999Z</time></trkpt><trkpt lat="36.97958188734456" lon="15.19427152804984"><ele>56.0</ele><time>2026-04-06T08:37:45.999Z</time></trkpt><trkpt lat="36.97979877149944" lon="15.194356085653979"><ele>56.0</ele><time>2026-04-06T08:37:46.999Z</time></trkpt><trkpt lat="36.98001840760873" lon="15.194438160514828"><ele>56.0</ele><time>2026-04-06T08:37:47.999Z</time></trkpt><trkpt lat="36.980240848830434" lon="15.194516757624147"><ele>56.0</ele><time>2026-04-06T08:37:48.999Z</time></trkpt><trkpt lat="36.98046717390685" lon="15.19459581179836"><ele>56.0</ele><time>2026-04-06T08:37:49.999Z</time></trkpt><trkpt lat="36.98069604758277" lon="15.194674839719257"><ele>55.0</ele><time>2026-04-06T08:37:50.999Z</time></trkpt><trkpt lat="36.980927366864776" lon="15.19475318118634"><ele>54.0</ele><time>2026-04-06T08:37:51.999Z</time></trkpt><trkpt lat="36.98116332263855" lon="15.194831497261163"><ele>53.5</ele><time>2026-04-06T08:37:52.999Z</time></trkpt><trkpt lat="36.98140085160473" lon="15.194911433872647"><ele>53.0</ele><time>2026-04-06T08:37:53.999Z</time></trkpt><trkpt lat="36.981640507649175" lon="15.194993024318729"><ele>52.5</ele><time>2026-04-06T08:37:54.999Z</time></trkpt><trkpt lat="36.98188250323355" lon="15.19507524013842"><ele>52.0</ele><time>2026-04-06T08:37:55.999Z</time></trkpt><trkpt lat="36.98212145719214" lon="15.195158454852537"><ele>52.0</ele><time>2026-04-06T08:37:56.999Z</time></trkpt><trkpt lat="36.98235982064454" lon="15.19524463879351"><ele>52.0</ele><time>2026-04-06T08:37:57.999Z</time></trkpt><trkpt lat="36.98259875581615" lon="15.195331286964771"><ele>52.0</ele><time>2026-04-06T08:37:58.999Z</time></trkpt><trkpt lat="36.982838398990346" lon="15.195418218233792"><ele>52.0</ele><time>2026-04-06T08:37:59.999Z</time></trkpt><trkpt lat="36.98307982363737" lon="15.195503171945838"><ele>52.0</ele><time>2026-04-06T08:38:00.999Z</time></trkpt><trkpt lat="36.98332196017797" lon="15.19558556295816"><ele>52.0</ele><time>2026-04-06T08:38:01.999Z</time></trkpt><trkpt lat="36.98356450899763" lon="15.195667496919976"><ele>51.0</ele><time>2026-04-06T08:38:02.999Z</time></trkpt><trkpt lat="36.98380830610991" lon="15.195750128390259"><ele>50.0</ele><time>2026-04-06T08:38:03.999Z</time></trkpt><trkpt lat="36.98405066511641" lon="15.195834165363456"><ele>49.0</ele><time>2026-04-06T08:38:04.999Z</time></trkpt><trkpt lat="36.98429031671634" lon="15.195921088887841"><ele>48.0</ele><time>2026-04-06T08:38:05.999Z</time></trkpt><trkpt lat="36.98453584902186" lon="15.196008974112464"><ele>48.0</ele><time>2026-04-06T08:38:06.999Z</time></trkpt><trkpt lat="36.984784186725065" lon="15.196094038555186"><ele>48.0</ele><time>2026-04-06T08:38:07.999Z</time></trkpt><trkpt lat="36.985033874812395" lon="15.19617843777615"><ele>46.5</ele><time>2026-04-06T08:38:08.999Z</time></trkpt><trkpt lat="36.98528234209529" lon="15.196266737415307"><ele>45.0</ele><time>2026-04-06T08:38:09.999Z</time></trkpt><trkpt lat="36.98552965144628" lon="15.196359929731345"><ele>45.0</ele><time>2026-04-06T08:38:10.999Z</time></trkpt><trkpt lat="36.98577686846029" lon="15.196453447350118"><ele>45.0</ele><time>2026-04-06T08:38:11.999Z</time></trkpt><trkpt lat="36.9860222043284" lon="15.196548921557527"><ele>44.5</ele><time>2026-04-06T08:38:12.999Z</time></trkpt><trkpt lat="36.98626717876728" lon="15.196650071496318"><ele>44.0</ele><time>2026-04-06T08:38:13.999Z</time></trkpt><trkpt lat="36.98650994694184" lon="15.196753164191056"><ele>44.5</ele><time>2026-04-06T08:38:14.999Z</time></trkpt><trkpt lat="36.98675137461461" lon="15.196856849557523"><ele>45.0</ele><time>2026-04-06T08:38:15.999Z</time></trkpt><trkpt lat="36.9869956510052" lon="15.196963484148926"><ele>45.0</ele><time>2026-04-06T08:38:16.999Z</time></trkpt><trkpt lat="36.98724201069997" lon="15.197077275550102"><ele>45.0</ele><time>2026-04-06T08:38:17.999Z</time></trkpt><trkpt lat="36.98749060770335" lon="15.197198031992478"><ele>45.0</ele><time>2026-04-06T08:38:18.999Z</time></trkpt><trkpt lat="36.987740747689465" lon="15.19732087775083"><ele>45.0</ele><time>2026-04-06T08:38:19.999Z</time></trkpt><trkpt lat="36.987995771692425" lon="15.197449303778484"><ele>45.0</ele><time>2026-04-06T08:38:20.999Z</time></trkpt><trkpt lat="36.98825230410945" lon="15.197581738868722"><ele>45.0</ele><time>2026-04-06T08:38:21.999Z</time></trkpt><trkpt lat="36.98850766292775" lon="15.1977161048192"><ele>44.5</ele><time>2026-04-06T08:38:22.999Z</time></trkpt><trkpt lat="36.988762418596146" lon="15.197859961810446"><ele>44.0</ele><time>2026-04-06T08:38:23.999Z</time></trkpt><trkpt lat="36.989012408659335" lon="15.198012232023071"><ele>44.0</ele><time>2026-04-06T08:38:24.999Z</time></trkpt><trkpt lat="36.98925971376121" lon="15.198174278024014"><ele>44.0</ele><time>2026-04-06T08:38:25.999Z</time></trkpt><trkpt lat="36.989503942964845" lon="15.198343309643985"><ele>44.0</ele><time>2026-04-06T08:38:26.999Z</time></trkpt><trkpt lat="36.989747619567844" lon="15.19851647201381"><ele>44.0</ele><time>2026-04-06T08:38:27.999Z</time></trkpt><trkpt lat="36.98998816103066" lon="15.198691974785602"><ele>44.0</ele><time>2026-04-06T08:38:28.999Z</time></trkpt><trkpt lat="36.990227969661255" lon="15.19887088041283"><ele>44.0</ele><time>2026-04-06T08:38:29.999Z</time></trkpt><trkpt lat="36.99046639698006" lon="15.199051702719869"><ele>44.0</ele><time>2026-04-06T08:38:30.999Z</time></trkpt><trkpt lat="36.990703100768506" lon="15.199234800181708"><ele>44.0</ele><time>2026-04-06T08:38:31.999Z</time></trkpt><trkpt lat="36.990937973962275" lon="15.199422351768478"><ele>44.0</ele><time>2026-04-06T08:38:32.999Z</time></trkpt><trkpt lat="36.99117069001815" lon="15.199619268294867"><ele>44.0</ele><time>2026-04-06T08:38:33.999Z</time></trkpt><trkpt lat="36.991395562731874" lon="15.199825216730373"><ele>43.0</ele><time>2026-04-06T08:38:34.999Z</time></trkpt><trkpt lat="36.99162257590492" lon="15.200036848687802"><ele>42.0</ele><time>2026-04-06T08:38:35.999Z</time></trkpt><trkpt lat="36.991851514380905" lon="15.20024830220881"><ele>42.0</ele><time>2026-04-06T08:38:36.999Z</time></trkpt><trkpt lat="36.99208257345758" lon="15.200455512970086"><ele>42.0</ele><time>2026-04-06T08:38:37.999Z</time></trkpt><trkpt lat="36.99231536319944" lon="15.200665979885105"><ele>41.5</ele><time>2026-04-06T08:38:38.999Z</time></trkpt><trkpt lat="36.992545186918285" lon="15.200876336834177"><ele>41.0</ele><time>2026-04-06T08:38:39.999Z</time></trkpt><trkpt lat="36.99277696407679" lon="15.201089272460775"><ele>41.0</ele><time>2026-04-06T08:38:40.999Z</time></trkpt><trkpt lat="36.99301029305477" lon="15.20129783880681"><ele>41.0</ele><time>2026-04-06T08:38:41.999Z</time></trkpt><trkpt lat="36.99324342976906" lon="15.201507788144358"><ele>40.5</ele><time>2026-04-06T08:38:42.999Z</time></trkpt><trkpt lat="36.99347744007317" lon="15.201717661034673"><ele>40.0</ele><time>2026-04-06T08:38:43.999Z</time></trkpt><trkpt lat="36.993709571931284" lon="15.201929643246809"><ele>40.0</ele><time>2026-04-06T08:38:44.999Z</time></trkpt><trkpt lat="36.993942336290544" lon="15.20214360778998"><ele>40.0</ele><time>2026-04-06T08:38:45.999Z</time></trkpt><trkpt lat="36.994173562940844" lon="15.202357656721588"><ele>39.5</ele><time>2026-04-06T08:38:46.999Z</time></trkpt><trkpt lat="36.994405794162255" lon="15.202573341732725"><ele>39.0</ele><time>2026-04-06T08:38:47.999Z</time></trkpt><trkpt lat="36.99463832527181" lon="15.202786471032036"><ele>39.0</ele><time>2026-04-06T08:38:48.999Z</time></trkpt><trkpt lat="36.994872105579944" lon="15.202997789278385"><ele>39.0</ele><time>2026-04-06T08:38:49.999Z</time></trkpt><trkpt lat="36.995107736318865" lon="15.203208030031588"><ele>39.0</ele><time>2026-04-06T08:38:50.999Z</time></trkpt><trkpt lat="36.995341155450966" lon="15.20341857837287"><ele>39.0</ele><time>2026-04-06T08:38:51.999Z</time></trkpt><trkpt lat="36.99557680651081" lon="15.203633412629094"><ele>39.0</ele><time>2026-04-06T08:38:52.999Z</time></trkpt><trkpt lat="36.9958087472285" lon="15.20384820409238"><ele>39.0</ele><time>2026-04-06T08:38:53.999Z</time></trkpt><trkpt lat="36.996042441053454" lon="15.204065592859155"><ele>37.5</ele><time>2026-04-06T08:38:54.999Z</time></trkpt><trkpt lat="36.996276716512995" lon="15.204281545134362"><ele>36.0</ele><time>2026-04-06T08:38:55.999Z</time></trkpt><trkpt lat="36.99651090125565" lon="15.204493829892131"><ele>36.0</ele><time>2026-04-06T08:38:56.999Z</time></trkpt><trkpt lat="36.996745547779334" lon="15.204705676219792"><ele>36.0</ele><time>2026-04-06T08:38:57.999Z</time></trkpt><trkpt lat="36.99698290095492" lon="15.20492100759954"><ele>36.0</ele><time>2026-04-06T08:38:58.999Z</time></trkpt><trkpt lat="36.99721817801437" lon="15.205133266765522"><ele>36.0</ele><time>2026-04-06T08:38:59.999Z</time></trkpt><trkpt lat="36.99745410794225" lon="15.205347452555188"><ele>35.0</ele><time>2026-04-06T08:39:00.999Z</time></trkpt><trkpt lat="36.997689077713986" lon="15.20556189275734"><ele>34.0</ele><time>2026-04-06T08:39:01.999Z</time></trkpt><trkpt lat="36.99792374838136" lon="15.205776865828486"><ele>33.5</ele><time>2026-04-06T08:39:02.999Z</time></trkpt><trkpt lat="36.99815844086104" lon="15.20599108449775"><ele>33.0</ele><time>2026-04-06T08:39:03.999Z</time></trkpt><trkpt lat="36.99839338802833" lon="15.206205726747696"><ele>33.0</ele><time>2026-04-06T08:39:04.999Z</time></trkpt><trkpt lat="36.99862842155735" lon="15.206420640956807"><ele>33.0</ele><time>2026-04-06T08:39:05.999Z</time></trkpt><trkpt lat="36.99886402191584" lon="15.206637255518707"><ele>33.0</ele><time>2026-04-06T08:39:06.999Z</time></trkpt><trkpt lat="36.999101151330954" lon="15.206854322788828"><ele>33.0</ele><time>2026-04-06T08:39:07.999Z</time></trkpt><trkpt lat="36.999339378974874" lon="15.207067776948634"><ele>32.5</ele><time>2026-04-06T08:39:08.999Z</time></trkpt><trkpt lat="36.99957999816811" lon="15.20728081915055"><ele>32.0</ele><time>2026-04-06T08:39:09.999Z</time></trkpt><trkpt lat="36.9998217123647" lon="15.207494674865732"><ele>32.0</ele><time>2026-04-06T08:39:10.999Z</time></trkpt><trkpt lat="37.00006252155892" lon="15.207707430252123"><ele>32.0</ele><time>2026-04-06T08:39:11.999Z</time></trkpt><trkpt lat="37.00030376014845" lon="15.207918615746902"><ele>32.0</ele><time>2026-04-06T08:39:12.999Z</time></trkpt><trkpt lat="37.00054222893982" lon="15.208131692523757"><ele>32.0</ele><time>2026-04-06T08:39:13.999Z</time></trkpt><trkpt lat="37.000778377660794" lon="15.208344033272112"><ele>31.0</ele><time>2026-04-06T08:39:14.999Z</time></trkpt><trkpt lat="37.00101491013262" lon="15.208553041344382"><ele>30.0</ele><time>2026-04-06T08:39:15.999Z</time></trkpt><trkpt lat="37.001253624455046" lon="15.208759944039851"><ele>30.0</ele><time>2026-04-06T08:39:16.999Z</time></trkpt><trkpt lat="37.00149330802313" lon="15.208965389841172"><ele>30.0</ele><time>2026-04-06T08:39:17.999Z</time></trkpt><trkpt lat="37.00173850632856" lon="15.209170261396752"><ele>30.5</ele><time>2026-04-06T08:39:18.999Z</time></trkpt><trkpt lat="37.0019853034623" lon="15.209370568089158"><ele>31.0</ele><time>2026-04-06T08:39:19.999Z</time></trkpt><trkpt lat="37.00223505540061" lon="15.209567158662955"><ele>31.0</ele><time>2026-04-06T08:39:20.999Z</time></trkpt><trkpt lat="37.00248542251519" lon="15.20976177474102"><ele>31.0</ele><time>2026-04-06T08:39:21.999Z</time></trkpt><trkpt lat="37.002739979756825" lon="15.209953475299061"><ele>30.0</ele><time>2026-04-06T08:39:22.999Z</time></trkpt><trkpt lat="37.00299661987588" lon="15.210138574288981"><ele>29.0</ele><time>2026-04-06T08:39:23.999Z</time></trkpt><trkpt lat="37.003258328084186" lon="15.210319491902492"><ele>28.5</ele><time>2026-04-06T08:39:24.999Z</time></trkpt><trkpt lat="37.003521206827266" lon="15.210492921158062"><ele>28.0</ele><time>2026-04-06T08:39:25.999Z</time></trkpt><trkpt lat="37.00378877933459" lon="15.210660371112667"><ele>28.0</ele><time>2026-04-06T08:39:26.999Z</time></trkpt><trkpt lat="37.00405498385135" lon="15.210822698044801"><ele>28.0</ele><time>2026-04-06T08:39:27.999Z</time></trkpt><trkpt lat="37.004325254164584" lon="15.210979136043964"><ele>27.0</ele><time>2026-04-06T08:39:28.999Z</time></trkpt><trkpt lat="37.004596129835186" lon="15.211127848725186"><ele>26.0</ele><time>2026-04-06T08:39:29.999Z</time></trkpt><trkpt lat="37.00487064391112" lon="15.211269232778946"><ele>26.0</ele><time>2026-04-06T08:39:30.999Z</time></trkpt><trkpt lat="37.005146189328336" lon="15.211400739725587"><ele>26.0</ele><time>2026-04-06T08:39:31.999Z</time></trkpt><trkpt lat="37.00542411179849" lon="15.211522911767714"><ele>26.0</ele><time>2026-04-06T08:39:32.999Z</time></trkpt><trkpt lat="37.005704714854964" lon="15.211635464180786"><ele>26.0</ele><time>2026-04-06T08:39:33.999Z</time></trkpt><trkpt lat="37.00598558026613" lon="15.211743751136668"><ele>26.5</ele><time>2026-04-06T08:39:34.999Z</time></trkpt><trkpt lat="37.006266568560726" lon="15.211850367990188"><ele>27.0</ele><time>2026-04-06T08:39:35.999Z</time></trkpt><trkpt lat="37.00654697308736" lon="15.211957472303066"><ele>26.0</ele><time>2026-04-06T08:39:36.999Z</time></trkpt><trkpt lat="37.00682747668748" lon="15.212070084396167"><ele>25.0</ele><time>2026-04-06T08:39:37.999Z</time></trkpt><trkpt lat="37.00710663444694" lon="15.212188455542787"><ele>25.0</ele><time>2026-04-06T08:39:38.999Z</time></trkpt><trkpt lat="37.007387779966095" lon="15.212303463406586"><ele>25.0</ele><time>2026-04-06T08:39:39.999Z</time></trkpt><trkpt lat="37.00766775509132" lon="15.21240590296126"><ele>26.0</ele><time>2026-04-06T08:39:40.999Z</time></trkpt><trkpt lat="37.007944546099864" lon="15.212500791376652"><ele>27.0</ele><time>2026-04-06T08:39:41.999Z</time></trkpt><trkpt lat="37.008219765306855" lon="15.212588134525777"><ele>27.0</ele><time>2026-04-06T08:39:42.999Z</time></trkpt><trkpt lat="37.00849256443013" lon="15.212667406255644"><ele>27.0</ele><time>2026-04-06T08:39:43.999Z</time></trkpt><trkpt lat="37.008765571972525" lon="15.212744709080894"><ele>27.0</ele><time>2026-04-06T08:39:44.999Z</time></trkpt><trkpt lat="37.00903986768454" lon="15.212827702224962"><ele>27.0</ele><time>2026-04-06T08:39:45.999Z</time></trkpt><trkpt lat="37.009313646590485" lon="15.212917135328867"><ele>26.5</ele><time>2026-04-06T08:39:46.999Z</time></trkpt><trkpt lat="37.00958772604248" lon="15.213008072271311"><ele>26.0</ele><time>2026-04-06T08:39:47.999Z</time></trkpt><trkpt lat="37.00986304668711" lon="15.213094254666023"><ele>26.0</ele><time>2026-04-06T08:39:48.999Z</time></trkpt><trkpt lat="37.010139774653965" lon="15.213176425454028"><ele>26.0</ele><time>2026-04-06T08:39:49.999Z</time></trkpt><trkpt lat="37.0104146883543" lon="15.213259462394596"><ele>26.0</ele><time>2026-04-06T08:39:50.999Z</time></trkpt><trkpt lat="37.010689499470814" lon="15.21334450783012"><ele>26.0</ele><time>2026-04-06T08:39:51.999Z</time></trkpt><trkpt lat="37.0109639563691" lon="15.213427919238045"><ele>26.0</ele><time>2026-04-06T08:39:52.999Z</time></trkpt><trkpt lat="37.01124075544837" lon="15.213511487288658"><ele>26.0</ele><time>2026-04-06T08:39:53.999Z</time></trkpt><trkpt lat="37.01151617951253" lon="15.213596827826386"><ele>25.5</ele><time>2026-04-06T08:39:54.999Z</time></trkpt><trkpt lat="37.01179268653333" lon="15.213683537302673"><ele>25.0</ele><time>2026-04-06T08:39:55.999Z</time></trkpt><trkpt lat="37.01207836483394" lon="15.21377616212868"><ele>25.0</ele><time>2026-04-06T08:39:56.999Z</time></trkpt><trkpt lat="37.012361237514604" lon="15.213865158533459"><ele>25.0</ele><time>2026-04-06T08:39:57.999Z</time></trkpt><trkpt lat="37.01264546935305" lon="15.213955771856929"><ele>25.0</ele><time>2026-04-06T08:39:58.999Z</time></trkpt><trkpt lat="37.01292927561693" lon="15.214046872699717"><ele>25.0</ele><time>2026-04-06T08:39:59.999Z</time></trkpt><trkpt lat="37.01321174981161" lon="15.214139924727855"><ele>23.0</ele><time>2026-04-06T08:40:00.999Z</time></trkpt><trkpt lat="37.013494960380235" lon="15.214236462142914"><ele>21.0</ele><time>2026-04-06T08:40:01.999Z</time></trkpt><trkpt lat="37.013777269135595" lon="15.214335578445475"><ele>21.0</ele><time>2026-04-06T08:40:02.999Z</time></trkpt><trkpt lat="37.01405808730126" lon="15.214440315583964"><ele>21.0</ele><time>2026-04-06T08:40:03.999Z</time></trkpt><trkpt lat="37.01433776012133" lon="15.214550979596046"><ele>19.0</ele><time>2026-04-06T08:40:04.999Z</time></trkpt><trkpt lat="37.0146163950247" lon="15.214663965161838"><ele>17.0</ele><time>2026-04-06T08:40:05.999Z</time></trkpt><trkpt lat="37.01489590787366" lon="15.214777287914506"><ele>14.5</ele><time>2026-04-06T08:40:06.999Z</time></trkpt><trkpt lat="37.015172837768084" lon="15.21489232948928"><ele>12.0</ele><time>2026-04-06T08:40:07.999Z</time></trkpt><trkpt lat="37.01544864902641" lon="15.215011922954693"><ele>12.0</ele><time>2026-04-06T08:40:08.999Z</time></trkpt><trkpt lat="37.015724924724054" lon="15.215135208441907"><ele>12.0</ele><time>2026-04-06T08:40:09.999Z</time></trkpt><trkpt lat="37.01600089215982" lon="15.215259926013061"><ele>13.0</ele><time>2026-04-06T08:40:10.999Z</time></trkpt><trkpt lat="37.016276338471606" lon="15.215385179186162"><ele>14.0</ele><time>2026-04-06T08:40:11.999Z</time></trkpt><trkpt lat="37.016549312698736" lon="15.215514115705263"><ele>14.0</ele><time>2026-04-06T08:40:12.999Z</time></trkpt><trkpt lat="37.01682194031705" lon="15.215649304989718"><ele>14.0</ele><time>2026-04-06T08:40:13.999Z</time></trkpt><trkpt lat="37.017093528441734" lon="15.215790042636543"><ele>14.0</ele><time>2026-04-06T08:40:14.999Z</time></trkpt><trkpt lat="37.017363558138875" lon="15.215935207291025"><ele>14.0</ele><time>2026-04-06T08:40:15.999Z</time></trkpt><trkpt lat="37.01763229860641" lon="15.216083657200803"><ele>15.0</ele><time>2026-04-06T08:40:16.999Z</time></trkpt><trkpt lat="37.01789931605322" lon="15.21623323989164"><ele>16.0</ele><time>2026-04-06T08:40:17.999Z</time></trkpt><trkpt lat="37.01816492324503" lon="15.216383783896996"><ele>15.0</ele><time>2026-04-06T08:40:18.999Z</time></trkpt><trkpt lat="37.01843268521398" lon="15.21653193373628"><ele>14.0</ele><time>2026-04-06T08:40:19.999Z</time></trkpt><trkpt lat="37.01869977907349" lon="15.21667787811456"><ele>14.0</ele><time>2026-04-06T08:40:20.999Z</time></trkpt><trkpt lat="37.01896577048324" lon="15.216822654713157"><ele>14.0</ele><time>2026-04-06T08:40:21.999Z</time></trkpt><trkpt lat="37.01923179580776" lon="15.216965149443974"><ele>15.5</ele><time>2026-04-06T08:40:22.999Z</time></trkpt><trkpt lat="37.01949725662936" lon="15.217108451533736"><ele>17.0</ele><time>2026-04-06T08:40:23.999Z</time></trkpt><trkpt lat="37.01976260597619" lon="15.217252920833559"><ele>20.5</ele><time>2026-04-06T08:40:24.999Z</time></trkpt><trkpt lat="37.02002514152732" lon="15.217399903171309"><ele>24.0</ele><time>2026-04-06T08:40:25.999Z</time></trkpt><trkpt lat="37.020287224705804" lon="15.217547771265949"><ele>24.0</ele><time>2026-04-06T08:40:26.999Z</time></trkpt><trkpt lat="37.02054864355175" lon="15.217694451746517"><ele>24.0</ele><time>2026-04-06T08:40:27.999Z</time></trkpt><trkpt lat="37.02081116957325" lon="15.217838040411078"><ele>24.5</ele><time>2026-04-06T08:40:28.999Z</time></trkpt><trkpt lat="37.02107503330137" lon="15.217977419594957"><ele>25.0</ele><time>2026-04-06T08:40:29.999Z</time></trkpt><trkpt lat="37.0213417491105" lon="15.218110149853958"><ele>25.0</ele><time>2026-04-06T08:40:30.999Z</time></trkpt><trkpt lat="37.02160978963239" lon="15.21823424499954"><ele>25.0</ele><time>2026-04-06T08:40:31.999Z</time></trkpt><trkpt lat="37.021879622606804" lon="15.21834829487358"><ele>24.5</ele><time>2026-04-06T08:40:32.999Z</time></trkpt><trkpt lat="37.022152594678964" lon="15.218454218404354"><ele>24.0</ele><time>2026-04-06T08:40:33.999Z</time></trkpt><trkpt lat="37.022429984804035" lon="15.218552182059234"><ele>24.0</ele><time>2026-04-06T08:40:34.999Z</time></trkpt><trkpt lat="37.0227056483801" lon="15.218649288562867"><ele>24.0</ele><time>2026-04-06T08:40:35.999Z</time></trkpt><trkpt lat="37.02298243690749" lon="15.218745849500701"><ele>24.0</ele><time>2026-04-06T08:40:36.999Z</time></trkpt><trkpt lat="37.02325882905564" lon="15.218843516433937"><ele>24.0</ele><time>2026-04-06T08:40:38Z</time></trkpt><trkpt lat="37.02353887052244" lon="15.218941518715386"><ele>24.0</ele><time>2026-04-06T08:40:39Z</time></trkpt><trkpt lat="37.023817450774054" lon="15.21903954834625"><ele>24.0</ele><time>2026-04-06T08:40:40Z</time></trkpt><trkpt lat="37.02409747770763" lon="15.219138953981343"><ele>23.5</ele><time>2026-04-06T08:40:41Z</time></trkpt><trkpt lat="37.02437717588724" lon="15.219241142503382"><ele>23.0</ele><time>2026-04-06T08:40:42Z</time></trkpt><trkpt lat="37.02465700942509" lon="15.219345344566273"><ele>23.0</ele><time>2026-04-06T08:40:43Z</time></trkpt><trkpt lat="37.02493712362072" lon="15.219450331503612"><ele>23.0</ele><time>2026-04-06T08:40:44Z</time></trkpt><trkpt lat="37.025218253042475" lon="15.219553232072727"><ele>23.0</ele><time>2026-04-06T08:40:45Z</time></trkpt><trkpt lat="37.02550198373732" lon="15.219656357626112"><ele>23.0</ele><time>2026-04-06T08:40:46Z</time></trkpt><trkpt lat="37.02578497392902" lon="15.219757227047348"><ele>23.0</ele><time>2026-04-06T08:40:47Z</time></trkpt><trkpt lat="37.02606910074934" lon="15.219857062464916"><ele>23.0</ele><time>2026-04-06T08:40:48Z</time></trkpt><trkpt lat="37.026354017674656" lon="15.219954131251203"><ele>23.0</ele><time>2026-04-06T08:40:49Z</time></trkpt><trkpt lat="37.026640694844076" lon="15.220050054933289"><ele>23.0</ele><time>2026-04-06T08:40:50Z</time></trkpt><trkpt lat="37.02693051261729" lon="15.220146461571462"><ele>23.5</ele><time>2026-04-06T08:40:51Z</time></trkpt><trkpt lat="37.02722149524022" lon="15.22024354856057"><ele>24.0</ele><time>2026-04-06T08:40:52Z</time></trkpt><trkpt lat="37.02751194501954" lon="15.220343702275754"><ele>24.5</ele><time>2026-04-06T08:40:53Z</time></trkpt><trkpt lat="37.0278008243793" lon="15.220445880823974"><ele>25.0</ele><time>2026-04-06T08:40:54Z</time></trkpt><trkpt lat="37.028089873926014" lon="15.220549301487459"><ele>24.5</ele><time>2026-04-06T08:40:55Z</time></trkpt><trkpt lat="37.02838058520486" lon="15.220654856715111"><ele>24.0</ele><time>2026-04-06T08:40:56Z</time></trkpt><trkpt lat="37.02867171480961" lon="15.2207603967793"><ele>24.0</ele><time>2026-04-06T08:40:57Z</time></trkpt><trkpt lat="37.02896213548449" lon="15.22086842969975"><ele>24.0</ele><time>2026-04-06T08:40:58Z</time></trkpt><trkpt lat="37.02925293434654" lon="15.220977338878393"><ele>24.5</ele><time>2026-04-06T08:40:59Z</time></trkpt><trkpt lat="37.02954539724521" lon="15.221084866491008"><ele>25.0</ele><time>2026-04-06T08:41:00Z</time></trkpt><trkpt lat="37.029839153670785" lon="15.221186069718446"><ele>24.0</ele><time>2026-04-06T08:41:01Z</time></trkpt><trkpt lat="37.030134491210426" lon="15.221283979529808"><ele>23.0</ele><time>2026-04-06T08:41:02Z</time></trkpt><trkpt lat="37.0304311664886" lon="15.221378457499297"><ele>23.0</ele><time>2026-04-06T08:41:03Z</time></trkpt><trkpt lat="37.03072794215979" lon="15.221474621031462"><ele>23.0</ele><time>2026-04-06T08:41:04Z</time></trkpt><trkpt lat="37.03102120126566" lon="15.22157829760074"><ele>23.0</ele><time>2026-04-06T08:41:05Z</time></trkpt><trkpt lat="37.031314997972245" lon="15.221686222931892"><ele>23.0</ele><time>2026-04-06T08:41:06Z</time></trkpt><trkpt lat="37.031605138746684" lon="15.221794058817208"><ele>22.0</ele><time>2026-04-06T08:41:07Z</time></trkpt><trkpt lat="37.0318986710093" lon="15.221896898142766"><ele>21.0</ele><time>2026-04-06T08:41:08Z</time></trkpt><trkpt lat="37.0321923958018" lon="15.221987436828549"><ele>21.0</ele><time>2026-04-06T08:41:09Z</time></trkpt><trkpt lat="37.032486483482" lon="15.22206863685242"><ele>21.0</ele><time>2026-04-06T08:41:10Z</time></trkpt><trkpt lat="37.032781901874685" lon="15.222139196864765"><ele>21.0</ele><time>2026-04-06T08:41:11Z</time></trkpt><trkpt lat="37.033075078289855" lon="15.222202531900342"><ele>21.0</ele><time>2026-04-06T08:41:12Z</time></trkpt><trkpt lat="37.03336889019681" lon="15.222262396753381"><ele>21.5</ele><time>2026-04-06T08:41:13Z</time></trkpt><trkpt lat="37.033661901854785" lon="15.222312197756052"><ele>22.0</ele><time>2026-04-06T08:41:14Z</time></trkpt><trkpt lat="37.03395509208322" lon="15.222353610978427"><ele>20.5</ele><time>2026-04-06T08:41:15Z</time></trkpt><trkpt lat="37.03424817826367" lon="15.222381421351228"><ele>19.0</ele><time>2026-04-06T08:41:16Z</time></trkpt><trkpt lat="37.034543184208566" lon="15.222400962501101"><ele>19.0</ele><time>2026-04-06T08:41:17Z</time></trkpt><trkpt lat="37.03483506795704" lon="15.222411985018928"><ele>19.0</ele><time>2026-04-06T08:41:18Z</time></trkpt><trkpt lat="37.0351291503189" lon="15.222419950358516"><ele>19.0</ele><time>2026-04-06T08:41:19Z</time></trkpt><trkpt lat="37.035420976220884" lon="15.222419045094316"><ele>19.0</ele><time>2026-04-06T08:41:20Z</time></trkpt><trkpt lat="37.03571133157439" lon="15.222414878562239"><ele>18.5</ele><time>2026-04-06T08:41:21Z</time></trkpt><trkpt lat="37.03600018743004" lon="15.222404717068311"><ele>18.0</ele><time>2026-04-06T08:41:22Z</time></trkpt><trkpt lat="37.03628924309119" lon="15.222388428653046"><ele>18.0</ele><time>2026-04-06T08:41:23Z</time></trkpt><trkpt lat="37.036576463377294" lon="15.222364298170351"><ele>18.0</ele><time>2026-04-06T08:41:24Z</time></trkpt><trkpt lat="37.03686240408531" lon="15.222334450582455"><ele>19.5</ele><time>2026-04-06T08:41:25Z</time></trkpt><trkpt lat="37.03714965925399" lon="15.222302720499039"><ele>21.0</ele><time>2026-04-06T08:41:26Z</time></trkpt><trkpt lat="37.03743552641473" lon="15.222276637452477"><ele>21.5</ele><time>2026-04-06T08:41:27Z</time></trkpt><trkpt lat="37.03772395677872" lon="15.222256953947015"><ele>22.0</ele><time>2026-04-06T08:41:28Z</time></trkpt><trkpt lat="37.03801047897211" lon="15.22224916861108"><ele>22.0</ele><time>2026-04-06T08:41:29Z</time></trkpt><trkpt lat="37.03829730627265" lon="15.222250530013225"><ele>22.0</ele><time>2026-04-06T08:41:30Z</time></trkpt><trkpt lat="37.03858633483822" lon="15.222259369049278"><ele>22.0</ele><time>2026-04-06T08:41:31Z</time></trkpt><trkpt lat="37.03887377680799" lon="15.222279179530526"><ele>22.0</ele><time>2026-04-06T08:41:32Z</time></trkpt><trkpt lat="37.03916155533956" lon="15.2223137993593"><ele>20.5</ele><time>2026-04-06T08:41:33Z</time></trkpt><trkpt lat="37.039448028196986" lon="15.222366039348628"><ele>19.0</ele><time>2026-04-06T08:41:34Z</time></trkpt><trkpt lat="37.039729107482216" lon="15.222429960881959"><ele>16.5</ele><time>2026-04-06T08:41:35Z</time></trkpt><trkpt lat="37.04001318585198" lon="15.222503184962273"><ele>14.0</ele><time>2026-04-06T08:41:36Z</time></trkpt><trkpt lat="37.040294238939204" lon="15.2225875059867"><ele>14.0</ele><time>2026-04-06T08:41:37Z</time></trkpt><trkpt lat="37.040572934528925" lon="15.222685575796516"><ele>14.0</ele><time>2026-04-06T08:41:38Z</time></trkpt><trkpt lat="37.04084877348776" lon="15.222793689497305"><ele>12.0</ele><time>2026-04-06T08:41:39Z</time></trkpt><trkpt lat="37.041121846095066" lon="15.222908988740368"><ele>10.0</ele><time>2026-04-06T08:41:40Z</time></trkpt><trkpt lat="37.04139428496739" lon="15.223036042626648"><ele>8.5</ele><time>2026-04-06T08:41:41Z</time></trkpt><trkpt lat="37.041664227842645" lon="15.223171697240785"><ele>7.0</ele><time>2026-04-06T08:41:42Z</time></trkpt><trkpt lat="37.04192841498897" lon="15.223318932993935"><ele>7.0</ele><time>2026-04-06T08:41:43Z</time></trkpt><trkpt lat="37.04219111058342" lon="15.223477562396152"><ele>7.0</ele><time>2026-04-06T08:41:44Z</time></trkpt><trkpt lat="37.04244658749262" lon="15.22364564464278"><ele>7.0</ele><time>2026-04-06T08:41:45Z</time></trkpt><trkpt lat="37.042699688988485" lon="15.223818576358495"><ele>7.0</ele><time>2026-04-06T08:41:46Z</time></trkpt><trkpt lat="37.042950069140296" lon="15.223999501056836"><ele>7.0</ele><time>2026-04-06T08:41:47Z</time></trkpt><trkpt lat="37.043197944649876" lon="15.224185451717938"><ele>7.0</ele><time>2026-04-06T08:41:47.999Z</time></trkpt><trkpt lat="37.04344493454521" lon="15.224374797744321"><ele>7.5</ele><time>2026-04-06T08:41:48.999Z</time></trkpt><trkpt lat="37.04368983695965" lon="15.224564186275394"><ele>8.0</ele><time>2026-04-06T08:41:49.999Z</time></trkpt><trkpt lat="37.04393520863338" lon="15.224749790888064"><ele>9.5</ele><time>2026-04-06T08:41:50.999Z</time></trkpt><trkpt lat="37.04418207986831" lon="15.224933491169997"><ele>11.0</ele><time>2026-04-06T08:41:51.999Z</time></trkpt><trkpt lat="37.04442956650757" lon="15.225113256136552"><ele>11.0</ele><time>2026-04-06T08:41:52.999Z</time></trkpt><trkpt lat="37.04467991293808" lon="15.22528617806432"><ele>11.0</ele><time>2026-04-06T08:41:53.999Z</time></trkpt><trkpt lat="37.044934079524644" lon="15.225450249764734"><ele>12.0</ele><time>2026-04-06T08:41:54.999Z</time></trkpt><trkpt lat="37.04519220799977" lon="15.22560341564443"><ele>13.0</ele><time>2026-04-06T08:41:55.999Z</time></trkpt><trkpt lat="37.0454538285556" lon="15.225748052232895"><ele>13.5</ele><time>2026-04-06T08:41:56.999Z</time></trkpt><trkpt lat="37.045717983811194" lon="15.225878870877212"><ele>14.0</ele><time>2026-04-06T08:41:57.999Z</time></trkpt><trkpt lat="37.04598738150182" lon="15.225995567667006"><ele>14.5</ele><time>2026-04-06T08:41:58.999Z</time></trkpt><trkpt lat="37.046259439819934" lon="15.226100514254076"><ele>15.0</ele><time>2026-04-06T08:41:59.999Z</time></trkpt><trkpt lat="37.046531856436594" lon="15.226194334269486"><ele>17.0</ele><time>2026-04-06T08:42:00.999Z</time></trkpt><trkpt lat="37.04680874163789" lon="15.22627473669532"><ele>19.0</ele><time>2026-04-06T08:42:01.999Z</time></trkpt><trkpt lat="37.04708920463397" lon="15.226341954629262"><ele>19.0</ele><time>2026-04-06T08:42:02.999Z</time></trkpt><trkpt lat="37.04737153622161" lon="15.226398896860866"><ele>19.0</ele><time>2026-04-06T08:42:03.999Z</time></trkpt><trkpt lat="37.04765551087794" lon="15.226442960755753"><ele>18.0</ele><time>2026-04-06T08:42:04.999Z</time></trkpt><trkpt lat="37.04794284507033" lon="15.226476762155746"><ele>17.0</ele><time>2026-04-06T08:42:05.999Z</time></trkpt><trkpt lat="37.04822849165201" lon="15.226495627967786"><ele>14.0</ele><time>2026-04-06T08:42:06.999Z</time></trkpt><trkpt lat="37.04851652750994" lon="15.226503417450852"><ele>11.0</ele><time>2026-04-06T08:42:07.999Z</time></trkpt><trkpt lat="37.048803326892994" lon="15.226504510073969"><ele>11.0</ele><time>2026-04-06T08:42:08.999Z</time></trkpt><trkpt lat="37.049090726074176" lon="15.226502347236659"><ele>11.0</ele><time>2026-04-06T08:42:09.999Z</time></trkpt><trkpt lat="37.04937952966141" lon="15.226493732801803"><ele>11.0</ele><time>2026-04-06T08:42:10.999Z</time></trkpt><trkpt lat="37.04966879123517" lon="15.226483175050701"><ele>11.0</ele><time>2026-04-06T08:42:11.999Z</time></trkpt><trkpt lat="37.049957669649096" lon="15.22646804157235"><ele>10.5</ele><time>2026-04-06T08:42:12.999Z</time></trkpt><trkpt lat="37.0502470406247" lon="15.226453745459866"><ele>10.0</ele><time>2026-04-06T08:42:13.999Z</time></trkpt><trkpt lat="37.050532491767434" lon="15.226445061029338"><ele>9.5</ele><time>2026-04-06T08:42:14.999Z</time></trkpt><trkpt lat="37.05081710771525" lon="15.226440960821654"><ele>9.0</ele><time>2026-04-06T08:42:15.999Z</time></trkpt><trkpt lat="37.051100916004486" lon="15.226441997231381"><ele>9.0</ele><time>2026-04-06T08:42:16.999Z</time></trkpt><trkpt lat="37.05138383959296" lon="15.226439113300398"><ele>9.0</ele><time>2026-04-06T08:42:17.999Z</time></trkpt><trkpt lat="37.051664797417544" lon="15.226431574272981"><ele>9.0</ele><time>2026-04-06T08:42:18.999Z</time></trkpt><trkpt lat="37.05194379791049" lon="15.226420977610147"><ele>9.0</ele><time>2026-04-06T08:42:19.999Z</time></trkpt><trkpt lat="37.05222206771862" lon="15.226411185199362"><ele>10.0</ele><time>2026-04-06T08:42:20.999Z</time></trkpt><trkpt lat="37.05250125776571" lon="15.22640096992816"><ele>11.0</ele><time>2026-04-06T08:42:21.999Z</time></trkpt><trkpt lat="37.05277790606986" lon="15.226390721997577"><ele>11.0</ele><time>2026-04-06T08:42:22.999Z</time></trkpt><trkpt lat="37.05305336041649" lon="15.226380576303184"><ele>11.0</ele><time>2026-04-06T08:42:23.999Z</time></trkpt><trkpt lat="37.05332823596449" lon="15.226372641433256"><ele>11.5</ele><time>2026-04-06T08:42:24.999Z</time></trkpt><trkpt lat="37.05359928515787" lon="15.226365458220744"><ele>12.0</ele><time>2026-04-06T08:42:25.999Z</time></trkpt><trkpt lat="37.05387207556271" lon="15.226358178581583"><ele>11.5</ele><time>2026-04-06T08:42:26.999Z</time></trkpt><trkpt lat="37.054144108314254" lon="15.22635097057872"><ele>11.0</ele><time>2026-04-06T08:42:27.999Z</time></trkpt><trkpt lat="37.05441479494683" lon="15.226344422785559"><ele>11.0</ele><time>2026-04-06T08:42:28.999Z</time></trkpt><trkpt lat="37.05468654341058" lon="15.226341808040646"><ele>11.0</ele><time>2026-04-06T08:42:29.999Z</time></trkpt><trkpt lat="37.05495627665919" lon="15.226341456947914"><ele>10.5</ele><time>2026-04-06T08:42:30.999Z</time></trkpt><trkpt lat="37.05522456915954" lon="15.226341116906676"><ele>10.0</ele><time>2026-04-06T08:42:31.999Z</time></trkpt><trkpt lat="37.055493346376565" lon="15.226335903557764"><ele>10.0</ele><time>2026-04-06T08:42:32.999Z</time></trkpt><trkpt lat="37.05575944738315" lon="15.22632607333645"><ele>10.0</ele><time>2026-04-06T08:42:33.999Z</time></trkpt><trkpt lat="37.05602511779991" lon="15.226316714565584"><ele>10.0</ele><time>2026-04-06T08:42:34.999Z</time></trkpt><trkpt lat="37.05628907530436" lon="15.22630670405487"><ele>10.0</ele><time>2026-04-06T08:42:35.999Z</time></trkpt><trkpt lat="37.056551344394094" lon="15.22629616422167"><ele>11.5</ele><time>2026-04-06T08:42:36.999Z</time></trkpt><trkpt lat="37.056807857451716" lon="15.226285372422073"><ele>13.0</ele><time>2026-04-06T08:42:37.999Z</time></trkpt><trkpt lat="37.057052230884025" lon="15.226276267318225"><ele>13.0</ele><time>2026-04-06T08:42:38.999Z</time></trkpt><trkpt lat="37.057288351301914" lon="15.2262719522455"><ele>13.0</ele><time>2026-04-06T08:42:39.999Z</time></trkpt><trkpt lat="37.05751516115779" lon="15.226267478231097"><ele>13.666666666666666</ele><time>2026-04-06T08:42:40.999Z</time></trkpt><trkpt lat="37.0577283852684" lon="15.226259382299226"><ele>14.333333333333332</ele><time>2026-04-06T08:42:41.999Z</time></trkpt><trkpt lat="37.05792995246177" lon="15.226253028756155"><ele>15.0</ele><time>2026-04-06T08:42:43Z</time></trkpt><trkpt lat="37.05812039039959" lon="15.226250363264114"><ele>18.0</ele><time>2026-04-06T08:42:44Z</time></trkpt><trkpt lat="37.05845377049722" lon="15.22625121684739"><ele>21.0</ele><time>2026-04-06T08:42:46Z</time></trkpt><trkpt lat="37.058593447776914" lon="15.226250600500563"><ele>21.0</ele><time>2026-04-06T08:42:47Z</time></trkpt><trkpt lat="37.05873012139815" lon="15.22625731884935"><ele>21.0</ele><time>2026-04-06T08:42:48Z</time></trkpt><trkpt lat="37.05885067036859" lon="15.226272605980185"><ele>21.0</ele><time>2026-04-06T08:42:49Z</time></trkpt><trkpt lat="37.05894874058458" lon="15.226295828782902"><ele>21.0</ele><time>2026-04-06T08:42:50Z</time></trkpt><trkpt lat="37.05902660938303" lon="15.226319729403256"><ele>21.0</ele><time>2026-04-06T08:42:51Z</time></trkpt><trkpt lat="37.0590863963817" lon="15.22635227357272"><ele>21.4</ele><time>2026-04-06T08:42:52Z</time></trkpt><trkpt lat="37.05916863595919" lon="15.226454113197038"><ele>21.8</ele><time>2026-04-06T08:42:54Z</time></trkpt><trkpt lat="37.059244824428056" lon="15.226580638503634"><ele>22.2</ele><time>2026-04-06T08:42:56Z</time></trkpt><trkpt lat="37.05931150897142" lon="15.226698483825087"><ele>22.599999999999998</ele><time>2026-04-06T08:42:58Z</time></trkpt><trkpt lat="37.0593355155498" lon="15.226798030033521"><ele>23.0</ele><time>2026-04-06T08:43:00Z</time></trkpt><trkpt lat="37.05939723835748" lon="15.226855746904736"><ele>23.25</ele><time>2026-04-06T08:43:03Z</time></trkpt><trkpt lat="37.059486791699904" lon="15.22685288905221"><ele>23.5</ele><time>2026-04-06T08:48:49.999Z</time></trkpt><trkpt lat="37.059595017323765" lon="15.226814097530667"><ele>23.75</ele><time>2026-04-06T08:48:51.999Z</time></trkpt><trkpt lat="37.05968732528048" lon="15.226821862685403"><ele>24.0</ele><time>2026-04-06T08:48:53.999Z</time></trkpt><trkpt lat="37.05972638121649" lon="15.226600243128306"><ele>23.799999999999997</ele><time>2026-04-06T08:48:55.999Z</time></trkpt><trkpt lat="37.059716558397724" lon="15.226467986881758"><ele>23.599999999999998</ele><time>2026-04-06T08:48:57.999Z</time></trkpt><trkpt lat="37.05972946118852" lon="15.226357441536901"><ele>23.4</ele><time>2026-04-06T08:49:00Z</time></trkpt><trkpt lat="37.059744714321575" lon="15.226264527317436"><ele>23.2</ele><time>2026-04-06T08:49:02Z</time></trkpt><trkpt lat="37.05981606810027" lon="15.226256254809556"><ele>23.0</ele><time>2026-04-06T08:49:04Z</time></trkpt><trkpt lat="37.059923809669925" lon="15.226240891959373"><ele>23.5</ele><time>2026-04-06T08:49:06Z</time></trkpt><trkpt lat="37.05998688859078" lon="15.226204444189168"><ele>24.0</ele><time>2026-04-06T08:49:07Z</time></trkpt><trkpt lat="37.06005235023462" lon="15.226175069844262"><ele>24.5</ele><time>2026-04-06T08:49:08Z</time></trkpt><trkpt lat="37.0601437738957" lon="15.226230867625873"><ele>25.0</ele><time>2026-04-06T08:49:09Z</time></trkpt><trkpt lat="37.06023400519417" lon="15.226230925381381"><ele>25.499999999999996</ele><time>2026-04-06T08:49:10Z</time></trkpt><trkpt lat="37.060332487606395" lon="15.226226066530963"><ele>26.0</ele><time>2026-04-06T08:49:11Z</time></trkpt><trkpt lat="37.060427822133555" lon="15.226221822022517"><ele>26.0</ele><time>2026-04-06T08:49:12Z</time></trkpt><trkpt lat="37.06053359382226" lon="15.226216663387738"><ele>26.0</ele><time>2026-04-06T08:49:13Z</time></trkpt><trkpt lat="37.06064950542847" lon="15.22621129641357"><ele>26.0</ele><time>2026-04-06T08:49:14Z</time></trkpt><trkpt lat="37.060775240070576" lon="15.22620330036737"><ele>26.0</ele><time>2026-04-06T08:49:15Z</time></trkpt><trkpt lat="37.06090600133901" lon="15.226199341148137"><ele>25.75</ele><time>2026-04-06T08:49:16Z</time></trkpt><trkpt lat="37.06103088515641" lon="15.226196428523448"><ele>25.5</ele><time>2026-04-06T08:49:17Z</time></trkpt><trkpt lat="37.06116138365491" lon="15.226195241751837"><ele>25.25</ele><time>2026-04-06T08:49:18Z</time></trkpt><trkpt lat="37.061297018497434" lon="15.22619349610068"><ele>25.0</ele><time>2026-04-06T08:49:19Z</time></trkpt><trkpt lat="37.06143307818458" lon="15.226188710610675"><ele>25.0</ele><time>2026-04-06T08:49:20Z</time></trkpt><trkpt lat="37.06156865646066" lon="15.226181330557365"><ele>25.0</ele><time>2026-04-06T08:49:21Z</time></trkpt><trkpt lat="37.06170467894323" lon="15.22617416273025"><ele>25.0</ele><time>2026-04-06T08:49:22Z</time></trkpt><trkpt lat="37.06184254326914" lon="15.226167804342888"><ele>25.0</ele><time>2026-04-06T08:49:23Z</time></trkpt><trkpt lat="37.06198076818427" lon="15.226162963645757"><ele>24.25</ele><time>2026-04-06T08:49:24Z</time></trkpt><trkpt lat="37.06212018779242" lon="15.226159726834942"><ele>23.5</ele><time>2026-04-06T08:49:25Z</time></trkpt><trkpt lat="37.06226212897523" lon="15.226157360895016"><ele>22.75</ele><time>2026-04-06T08:49:26Z</time></trkpt><trkpt lat="37.06240791740649" lon="15.226153573180502"><ele>22.0</ele><time>2026-04-06T08:49:27Z</time></trkpt><trkpt lat="37.06255678224661" lon="15.226150626616741"><ele>21.0</ele><time>2026-04-06T08:49:28Z</time></trkpt><trkpt lat="37.06270949135378" lon="15.226148131991666"><ele>20.0</ele><time>2026-04-06T08:49:29Z</time></trkpt><trkpt lat="37.0628659665346" lon="15.226146507369648"><ele>19.0</ele><time>2026-04-06T08:49:30Z</time></trkpt><trkpt lat="37.06302652282117" lon="15.226146806510206"><ele>19.0</ele><time>2026-04-06T08:49:31Z</time></trkpt><trkpt lat="37.06319338075784" lon="15.226143010021957"><ele>19.0</ele><time>2026-04-06T08:49:32Z</time></trkpt><trkpt lat="37.06336233348297" lon="15.226136037262584"><ele>19.0</ele><time>2026-04-06T08:49:33Z</time></trkpt><trkpt lat="37.063535236869384" lon="15.226130340239576"><ele>18.333333333333332</ele><time>2026-04-06T08:49:34Z</time></trkpt><trkpt lat="37.06370498699171" lon="15.226126256941724"><ele>17.666666666666668</ele><time>2026-04-06T08:49:35Z</time></trkpt><trkpt lat="37.06387838224938" lon="15.226117863742678"><ele>17.0</ele><time>2026-04-06T08:49:36Z</time></trkpt><trkpt lat="37.06404229535467" lon="15.22610879582646"><ele>17.333333333333336</ele><time>2026-04-06T08:49:37Z</time></trkpt><trkpt lat="37.06420023520876" lon="15.22610122449734"><ele>17.666666666666668</ele><time>2026-04-06T08:49:38Z</time></trkpt><trkpt lat="37.06435500217976" lon="15.226094716705719"><ele>18.0</ele><time>2026-04-06T08:49:39Z</time></trkpt><trkpt lat="37.06450813264525" lon="15.226089656413635"><ele>18.0</ele><time>2026-04-06T08:49:40Z</time></trkpt><trkpt lat="37.06465894407522" lon="15.226084822965829"><ele>18.0</ele><time>2026-04-06T08:49:41Z</time></trkpt><trkpt lat="37.06480892879173" lon="15.226081362781818"><ele>18.0</ele><time>2026-04-06T08:49:42Z</time></trkpt><trkpt lat="37.064958623826705" lon="15.226079035045414"><ele>18.0</ele><time>2026-04-06T08:49:43Z</time></trkpt><trkpt lat="37.065107580391256" lon="15.226074786545636"><ele>18.0</ele><time>2026-04-06T08:49:44Z</time></trkpt><trkpt lat="37.06525478011308" lon="15.226071365695377"><ele>18.0</ele><time>2026-04-06T08:49:45Z</time></trkpt><trkpt lat="37.065400946613394" lon="15.226067736848297"><ele>18.0</ele><time>2026-04-06T08:49:46Z</time></trkpt><trkpt lat="37.06554726441079" lon="15.226063026918354"><ele>18.0</ele><time>2026-04-06T08:49:47Z</time></trkpt><trkpt lat="37.06569300788161" lon="15.226056316541088"><ele>18.0</ele><time>2026-04-06T08:49:48Z</time></trkpt><trkpt lat="37.0658372818805" lon="15.226051565224914"><ele>18.0</ele><time>2026-04-06T08:49:49Z</time></trkpt><trkpt lat="37.065980629986086" lon="15.226048765186041"><ele>18.0</ele><time>2026-04-06T08:49:50Z</time></trkpt><trkpt lat="37.06612330996747" lon="15.226048019875268"><ele>18.0</ele><time>2026-04-06T08:49:51Z</time></trkpt><trkpt lat="37.066265477335946" lon="15.226047001000822"><ele>18.0</ele><time>2026-04-06T08:49:52Z</time></trkpt><trkpt lat="37.06640565063804" lon="15.22604306781801"><ele>18.0</ele><time>2026-04-06T08:49:53Z</time></trkpt><trkpt lat="37.06654548269685" lon="15.226036879243773"><ele>18.0</ele><time>2026-04-06T08:49:54Z</time></trkpt><trkpt lat="37.06668693904651" lon="15.226030115142589"><ele>17.5</ele><time>2026-04-06T08:49:55Z</time></trkpt><trkpt lat="37.066830010334186" lon="15.226022612544018"><ele>17.0</ele><time>2026-04-06T08:49:56Z</time></trkpt><trkpt lat="37.06697605398074" lon="15.226017056257268"><ele>16.5</ele><time>2026-04-06T08:49:57Z</time></trkpt><trkpt lat="37.06712309947594" lon="15.22601349858171"><ele>16.0</ele><time>2026-04-06T08:49:58Z</time></trkpt><trkpt lat="37.06727029539991" lon="15.22600895461385"><ele>16.0</ele><time>2026-04-06T08:49:59Z</time></trkpt><trkpt lat="37.06741683025855" lon="15.22600506536674"><ele>16.0</ele><time>2026-04-06T08:50:00Z</time></trkpt><trkpt lat="37.06756206498893" lon="15.226000642490726"><ele>16.0</ele><time>2026-04-06T08:50:01Z</time></trkpt><trkpt lat="37.06770882515928" lon="15.225996708917291"><ele>16.0</ele><time>2026-04-06T08:50:02Z</time></trkpt><trkpt lat="37.067852538538496" lon="15.225991282335388"><ele>16.25</ele><time>2026-04-06T08:50:03Z</time></trkpt><trkpt lat="37.06799561353499" lon="15.225986513913641"><ele>16.5</ele><time>2026-04-06T08:50:04Z</time></trkpt><trkpt lat="37.06814094163217" lon="15.22597848731241"><ele>16.75</ele><time>2026-04-06T08:50:05Z</time></trkpt><trkpt lat="37.068289553123456" lon="15.22596494041575"><ele>17.0</ele><time>2026-04-06T08:50:06Z</time></trkpt><trkpt lat="37.06844059183739" lon="15.225946918322835"><ele>17.0</ele><time>2026-04-06T08:50:07Z</time></trkpt><trkpt lat="37.068594623512546" lon="15.225932924388744"><ele>17.0</ele><time>2026-04-06T08:50:08Z</time></trkpt><trkpt lat="37.06875130371927" lon="15.225915134358972"><ele>17.0</ele><time>2026-04-06T08:50:09Z</time></trkpt><trkpt lat="37.068911079842835" lon="15.225890150883888"><ele>17.0</ele><time>2026-04-06T08:50:10Z</time></trkpt><trkpt lat="37.06907123803015" lon="15.225856068008756"><ele>17.0</ele><time>2026-04-06T08:50:11Z</time></trkpt><trkpt lat="37.06922830040469" lon="15.225827299553552"><ele>17.0</ele><time>2026-04-06T08:50:12Z</time></trkpt><trkpt lat="37.06937594880674" lon="15.225801776014224"><ele>17.25</ele><time>2026-04-06T08:50:13Z</time></trkpt><trkpt lat="37.06951153207181" lon="15.225777725907696"><ele>17.5</ele><time>2026-04-06T08:50:14Z</time></trkpt><trkpt lat="37.06963926322405" lon="15.225762066375276"><ele>17.75</ele><time>2026-04-06T08:50:15Z</time></trkpt><trkpt lat="37.06975946237596" lon="15.225750236566068"><ele>18.0</ele><time>2026-04-06T08:50:16Z</time></trkpt><trkpt lat="37.06987384902333" lon="15.225747447532102"><ele>18.6</ele><time>2026-04-06T08:50:17Z</time></trkpt><trkpt lat="37.069978864164014" lon="15.225756511476812"><ele>19.200000000000003</ele><time>2026-04-06T08:50:18Z</time></trkpt><trkpt lat="37.07007736892124" lon="15.22578239240693"><ele>19.8</ele><time>2026-04-06T08:50:19Z</time></trkpt><trkpt lat="37.07017710325034" lon="15.225839227636158"><ele>20.400000000000002</ele><time>2026-04-06T08:50:20Z</time></trkpt><trkpt lat="37.0702723533827" lon="15.225940869125948"><ele>21.0</ele><time>2026-04-06T08:50:21Z</time></trkpt><trkpt lat="37.070362387669" lon="15.226068647357978"><ele>21.0</ele><time>2026-04-06T08:50:22Z</time></trkpt><trkpt lat="37.07045332302846" lon="15.22620852803135"><ele>21.0</ele><time>2026-04-06T08:50:23Z</time></trkpt><trkpt lat="37.07055409054893" lon="15.226339100438869"><ele>21.0</ele><time>2026-04-06T08:50:24Z</time></trkpt><trkpt lat="37.07066142803822" lon="15.226443803681033"><ele>21.0</ele><time>2026-04-06T08:50:25Z</time></trkpt><trkpt lat="37.07077972088591" lon="15.226522020024026"><ele>20.5</ele><time>2026-04-06T08:50:26Z</time></trkpt><trkpt lat="37.070913016310946" lon="15.226565780490173"><ele>20.0</ele><time>2026-04-06T08:50:27Z</time></trkpt><trkpt lat="37.07104542276797" lon="15.226589931860318"><ele>19.5</ele><time>2026-04-06T08:50:28Z</time></trkpt><trkpt lat="37.07117124740439" lon="15.226617030115811"><ele>19.0</ele><time>2026-04-06T08:50:29Z</time></trkpt><trkpt lat="37.07128520849892" lon="15.22666343438652"><ele>19.0</ele><time>2026-04-06T08:50:30Z</time></trkpt><trkpt lat="37.07138329813695" lon="15.226732577812767"><ele>19.0</ele><time>2026-04-06T08:50:30.999Z</time></trkpt><trkpt lat="37.0714697007757" lon="15.226832988322247"><ele>19.0</ele><time>2026-04-06T08:50:31.999Z</time></trkpt><trkpt lat="37.07154224135008" lon="15.22696002451508"><ele>19.0</ele><time>2026-04-06T08:50:32.999Z</time></trkpt><trkpt lat="37.07159120711108" lon="15.227112366396552"><ele>18.666666666666664</ele><time>2026-04-06T08:50:33.999Z</time></trkpt><trkpt lat="37.07162282763059" lon="15.227288234442927"><ele>18.333333333333332</ele><time>2026-04-06T08:50:34.999Z</time></trkpt><trkpt lat="37.07165080250422" lon="15.227464440566168"><ele>18.0</ele><time>2026-04-06T08:50:35.999Z</time></trkpt><trkpt lat="37.07171923301689" lon="15.227655138022389"><ele>18.0</ele><time>2026-04-06T08:50:36.999Z</time></trkpt><trkpt lat="37.071729017455596" lon="15.227907272748203"><ele>18.0</ele><time>2026-04-06T08:50:37.999Z</time></trkpt><trkpt lat="37.07176439990142" lon="15.22812413076712"><ele>18.0</ele><time>2026-04-06T08:50:38.999Z</time></trkpt><trkpt lat="37.071797513664364" lon="15.228329934159417"><ele>19.0</ele><time>2026-04-06T08:50:39.999Z</time></trkpt><trkpt lat="37.07183537200548" lon="15.22854003619156"><ele>20.0</ele><time>2026-04-06T08:50:40.999Z</time></trkpt><trkpt lat="37.07187664807957" lon="15.228753175892201"><ele>21.0</ele><time>2026-04-06T08:50:41.999Z</time></trkpt><trkpt lat="37.07191528233931" lon="15.22896833240731"><ele>20.666666666666668</ele><time>2026-04-06T08:50:42.999Z</time></trkpt><trkpt lat="37.07195157762188" lon="15.229188184626523"><ele>20.333333333333336</ele><time>2026-04-06T08:50:43.999Z</time></trkpt><trkpt lat="37.07198577773597" lon="15.229411356675996"><ele>20.0</ele><time>2026-04-06T08:50:44.999Z</time></trkpt><trkpt lat="37.07200385673731" lon="15.229657347932758"><ele>19.0</ele><time>2026-04-06T08:50:45.999Z</time></trkpt><trkpt lat="37.07203644296676" lon="15.22991490385713"><ele>18.0</ele><time>2026-04-06T08:50:46.999Z</time></trkpt><trkpt lat="37.07207077872761" lon="15.2301781944305"><ele>17.0</ele><time>2026-04-06T08:50:47.999Z</time></trkpt><trkpt lat="37.07211430264113" lon="15.230438647182092"><ele>16.0</ele><time>2026-04-06T08:50:48.999Z</time></trkpt><trkpt lat="37.07213607096283" lon="15.230701662796072"><ele>15.0</ele><time>2026-04-06T08:50:49.999Z</time></trkpt><trkpt lat="37.07216172015339" lon="15.230952418600145"><ele>14.0</ele><time>2026-04-06T08:50:50.999Z</time></trkpt><trkpt lat="37.072194327100156" lon="15.231187952853515"><ele>14.0</ele><time>2026-04-06T08:50:51.999Z</time></trkpt><trkpt lat="37.072229297512955" lon="15.23142329291883"><ele>14.0</ele><time>2026-04-06T08:50:52.999Z</time></trkpt><trkpt lat="37.07226397704645" lon="15.231664665446848"><ele>14.0</ele><time>2026-04-06T08:50:53.999Z</time></trkpt><trkpt lat="37.07229889302881" lon="15.231910998722883"><ele>14.0</ele><time>2026-04-06T08:50:54.999Z</time></trkpt><trkpt lat="37.07233559769369" lon="15.232161467222072"><ele>14.0</ele><time>2026-04-06T08:50:55.999Z</time></trkpt><trkpt lat="37.07237117967302" lon="15.232414599186262"><ele>14.0</ele><time>2026-04-06T08:50:56.999Z</time></trkpt><trkpt lat="37.072404318286296" lon="15.232680337818739"><ele>14.0</ele><time>2026-04-06T08:50:57.999Z</time></trkpt><trkpt lat="37.07243678376044" lon="15.232948302269355"><ele>14.0</ele><time>2026-04-06T08:50:58.999Z</time></trkpt><trkpt lat="37.07247184977186" lon="15.233217274487224"><ele>14.0</ele><time>2026-04-06T08:50:59.999Z</time></trkpt><trkpt lat="37.07249065160299" lon="15.233491610519211"><ele>15.666666666666668</ele><time>2026-04-06T08:51:00.999Z</time></trkpt><trkpt lat="37.072524980709275" lon="15.233765008639743"><ele>17.333333333333332</ele><time>2026-04-06T08:51:01.999Z</time></trkpt><trkpt lat="37.072559310444746" lon="15.234038411798105"><ele>19.0</ele><time>2026-04-06T08:51:02.999Z</time></trkpt><trkpt lat="37.07260726393242" lon="15.234309600672411"><ele>19.333333333333332</ele><time>2026-04-06T08:51:03.999Z</time></trkpt><trkpt lat="37.07263272057139" lon="15.234586401041641"><ele>19.666666666666668</ele><time>2026-04-06T08:51:04.999Z</time></trkpt><trkpt lat="37.07266137155458" lon="15.234863214296121"><ele>20.0</ele><time>2026-04-06T08:51:06Z</time></trkpt><trkpt lat="37.072694588394505" lon="15.235137313784554"><ele>20.666666666666668</ele><time>2026-04-06T08:51:07Z</time></trkpt><trkpt lat="37.07272945138376" lon="15.235405743761067"><ele>21.333333333333332</ele><time>2026-04-06T08:51:08Z</time></trkpt><trkpt lat="37.07276216951038" lon="15.235668150514593"><ele>22.0</ele><time>2026-04-06T08:51:09Z</time></trkpt><trkpt lat="37.07279303830557" lon="15.235917116339408"><ele>22.0</ele><time>2026-04-06T08:51:10Z</time></trkpt><trkpt lat="37.072823336944154" lon="15.236150265914016"><ele>22.0</ele><time>2026-04-06T08:51:11Z</time></trkpt><trkpt lat="37.07285164884897" lon="15.236375660218519"><ele>22.0</ele><time>2026-04-06T08:51:12Z</time></trkpt><trkpt lat="37.072877279589186" lon="15.236584606682769"><ele>22.0</ele><time>2026-04-06T08:51:13Z</time></trkpt><trkpt lat="37.07289060030239" lon="15.236776792104633"><ele>22.0</ele><time>2026-04-06T08:51:14Z</time></trkpt><trkpt lat="37.07289614268142" lon="15.236957445034884"><ele>22.0</ele><time>2026-04-06T08:51:15Z</time></trkpt><trkpt lat="37.0728843712016" lon="15.237121290103868"><ele>22.0</ele><time>2026-04-06T08:51:16Z</time></trkpt><trkpt lat="37.072860028024316" lon="15.237266507775336"><ele>21.75</ele><time>2026-04-06T08:51:17Z</time></trkpt><trkpt lat="37.07285413422265" lon="15.23739689049432"><ele>21.5</ele><time>2026-04-06T08:51:18Z</time></trkpt><trkpt lat="37.072886673411034" lon="15.237518327544867"><ele>21.25</ele><time>2026-04-06T08:51:19Z</time></trkpt><trkpt lat="37.07294712159961" lon="15.237650750649362"><ele>21.0</ele><time>2026-04-06T08:51:20Z</time></trkpt><trkpt lat="37.073008236509416" lon="15.237811897526283"><ele>21.0</ele><time>2026-04-06T08:51:21Z</time></trkpt><trkpt lat="37.07304823479487" lon="15.238000699988724"><ele>21.0</ele><time>2026-04-06T08:51:22Z</time></trkpt><trkpt lat="37.07306811412251" lon="15.238194606543189"><ele>21.0</ele><time>2026-04-06T08:51:23Z</time></trkpt><trkpt lat="37.07313636832753" lon="15.238370818389715"><ele>20.666666666666668</ele><time>2026-04-06T08:51:24Z</time></trkpt><trkpt lat="37.07323329334529" lon="15.238531710173119"><ele>20.333333333333336</ele><time>2026-04-06T08:51:25Z</time></trkpt><trkpt lat="37.073157227543135" lon="15.238858627101536"><ele>20.0</ele><time>2026-04-06T08:51:26Z</time></trkpt><trkpt lat="37.07318459708441" lon="15.239072156620631"><ele>20.0</ele><time>2026-04-06T08:51:27Z</time></trkpt><trkpt lat="37.07320714016812" lon="15.23929295485348"><ele>20.0</ele><time>2026-04-06T08:51:28Z</time></trkpt><trkpt lat="37.073237383083026" lon="15.239517844895278"><ele>20.0</ele><time>2026-04-06T08:51:29Z</time></trkpt><trkpt lat="37.07327428438696" lon="15.239747244083038"><ele>20.0</ele><time>2026-04-06T08:51:30Z</time></trkpt><trkpt lat="37.07331060904944" lon="15.239984627545025"><ele>20.0</ele><time>2026-04-06T08:51:31Z</time></trkpt><trkpt lat="37.07333961180368" lon="15.240242225544808"><ele>20.0</ele><time>2026-04-06T08:51:32Z</time></trkpt><trkpt lat="37.073364223646244" lon="15.240501210080495"><ele>20.666666666666668</ele><time>2026-04-06T08:51:33Z</time></trkpt><trkpt lat="37.07338573833865" lon="15.240751885892292"><ele>21.333333333333332</ele><time>2026-04-06T08:51:34Z</time></trkpt><trkpt lat="37.07341252428441" lon="15.241010249493163"><ele>22.0</ele><time>2026-04-06T08:51:35Z</time></trkpt><trkpt lat="37.07344736049909" lon="15.241275362431827"><ele>21.666666666666664</ele><time>2026-04-06T08:51:36Z</time></trkpt><trkpt lat="37.07348555912207" lon="15.241541086912335"><ele>21.333333333333332</ele><time>2026-04-06T08:51:37Z</time></trkpt><trkpt lat="37.07352359886453" lon="15.241800883050797"><ele>21.0</ele><time>2026-04-06T08:51:38Z</time></trkpt><trkpt lat="37.07356096788822" lon="15.242055170834474"><ele>19.666666666666668</ele><time>2026-04-06T08:51:39Z</time></trkpt><trkpt lat="37.073595870714506" lon="15.242300903265832"><ele>18.333333333333336</ele><time>2026-04-06T08:51:40Z</time></trkpt><trkpt lat="37.07363049092138" lon="15.242540236819224"><ele>17.0</ele><time>2026-04-06T08:51:41Z</time></trkpt><trkpt lat="37.07366812908632" lon="15.242771703303058"><ele>17.0</ele><time>2026-04-06T08:51:42Z</time></trkpt><trkpt lat="37.0737083518503" lon="15.242995748402455"><ele>17.0</ele><time>2026-04-06T08:51:43Z</time></trkpt><trkpt lat="37.073743885430126" lon="15.243213522227471"><ele>17.0</ele><time>2026-04-06T08:51:44Z</time></trkpt><trkpt lat="37.073774158662594" lon="15.243430965646244"><ele>17.0</ele><time>2026-04-06T08:51:45Z</time></trkpt><trkpt lat="37.07380424578887" lon="15.243651386021355"><ele>17.0</ele><time>2026-04-06T08:51:46Z</time></trkpt><trkpt lat="37.07383553548921" lon="15.243873747004836"><ele>17.0</ele><time>2026-04-06T08:51:47Z</time></trkpt><trkpt lat="37.07390616531768" lon="15.244107899212974"><ele>17.0</ele><time>2026-04-06T08:51:48Z</time></trkpt><trkpt lat="37.07394715809408" lon="15.24432141679346"><ele>17.0</ele><time>2026-04-06T08:51:49Z</time></trkpt><trkpt lat="37.07398194297033" lon="15.244522801618226"><ele>17.0</ele><time>2026-04-06T08:51:50Z</time></trkpt><trkpt lat="37.07401437698166" lon="15.244714282384464"><ele>17.0</ele><time>2026-04-06T08:51:51Z</time></trkpt><trkpt lat="37.07404958918459" lon="15.244903477649277"><ele>17.0</ele><time>2026-04-06T08:51:52Z</time></trkpt><trkpt lat="37.07409216862968" lon="15.245107954599272"><ele>17.0</ele><time>2026-04-06T08:51:53Z</time></trkpt><trkpt lat="37.074141118120494" lon="15.245322271397168"><ele>17.0</ele><time>2026-04-06T08:51:54Z</time></trkpt><trkpt lat="37.074191843159404" lon="15.2455241203806"><ele>17.0</ele><time>2026-04-06T08:51:55Z</time></trkpt><trkpt lat="37.07424236908301" lon="15.245721680970718"><ele>17.0</ele><time>2026-04-06T08:51:56Z</time></trkpt><trkpt lat="37.074290261940476" lon="15.24592634256884"><ele>16.333333333333336</ele><time>2026-04-06T08:51:57Z</time></trkpt><trkpt lat="37.07433869306051" lon="15.24613760401855"><ele>15.666666666666668</ele><time>2026-04-06T08:51:58Z</time></trkpt><trkpt lat="37.07438915987099" lon="15.24634839323594"><ele>15.0</ele><time>2026-04-06T08:51:59Z</time></trkpt><trkpt lat="37.07444076392611" lon="15.246562930718728"><ele>15.0</ele><time>2026-04-06T08:52:00Z</time></trkpt><trkpt lat="37.074494804132044" lon="15.2467818058038"><ele>15.0</ele><time>2026-04-06T08:52:01Z</time></trkpt><trkpt lat="37.0745488773424" lon="15.246994531084285"><ele>15.0</ele><time>2026-04-06T08:52:02Z</time></trkpt><trkpt lat="37.07460256136777" lon="15.247204609212163"><ele>15.0</ele><time>2026-04-06T08:52:03Z</time></trkpt><trkpt lat="37.074659856015415" lon="15.247427629830458"><ele>15.0</ele><time>2026-04-06T08:52:04Z</time></trkpt><trkpt lat="37.074713667679994" lon="15.247642954879257"><ele>15.0</ele><time>2026-04-06T08:52:05Z</time></trkpt><trkpt lat="37.07476131853506" lon="15.247844766446137"><ele>15.0</ele><time>2026-04-06T08:52:06Z</time></trkpt><trkpt lat="37.07480437799966" lon="15.248022108070998"><ele>15.0</ele><time>2026-04-06T08:52:07Z</time></trkpt><trkpt lat="37.07484572724066" lon="15.248177646283564"><ele>15.0</ele><time>2026-04-06T08:52:08Z</time></trkpt><trkpt lat="37.07488001332885" lon="15.248308046646292"><ele>15.0</ele><time>2026-04-06T08:52:09Z</time></trkpt><trkpt lat="37.074903187172154" lon="15.24841557943073"><ele>15.0</ele><time>2026-04-06T08:52:10Z</time></trkpt><trkpt lat="37.07491329771819" lon="15.248501856474856"><ele>15.0</ele><time>2026-04-06T08:52:11Z</time></trkpt><trkpt lat="37.07491739964517" lon="15.248585528321653"><ele>15.0</ele><time>2026-04-06T08:52:12Z</time></trkpt><trkpt lat="37.07491146271998" lon="15.248674426574222"><ele>15.0</ele><time>2026-04-06T08:52:13Z</time></trkpt><trkpt lat="37.074899317377216" lon="15.248767507734328"><ele>15.0</ele><time>2026-04-06T08:52:14Z</time></trkpt><trkpt lat="37.0748865757587" lon="15.24884890793654"><ele>15.0</ele><time>2026-04-06T08:52:15Z</time></trkpt><trkpt lat="37.074873289967265" lon="15.248931041130135"><ele>15.0</ele><time>2026-04-06T08:52:16Z</time></trkpt><trkpt lat="37.07486230501897" lon="15.249013532216752"><ele>15.2</ele><time>2026-04-06T08:52:17Z</time></trkpt><trkpt lat="37.07485308357245" lon="15.249093692369625"><ele>15.4</ele><time>2026-04-06T08:52:18Z</time></trkpt><trkpt lat="37.074832662463514" lon="15.249257016252638"><ele>15.600000000000001</ele><time>2026-04-06T08:52:20Z</time></trkpt><trkpt lat="37.074799783257895" lon="15.249342440864348"><ele>15.8</ele><time>2026-04-06T08:52:21Z</time></trkpt><trkpt lat="37.074745227498205" lon="15.24942781843457"><ele>16.0</ele><time>2026-04-06T08:52:22Z</time></trkpt><trkpt lat="37.07465762089169" lon="15.249514430861183"><ele>16.0</ele><time>2026-04-06T08:52:23Z</time></trkpt><trkpt lat="37.07456467952798" lon="15.249605099518982"><ele>16.0</ele><time>2026-04-06T08:52:24Z</time></trkpt><trkpt lat="37.07447489356353" lon="15.249703446340819"><ele>16.0</ele><time>2026-04-06T08:52:25Z</time></trkpt><trkpt lat="37.07438901586301" lon="15.249795679478616"><ele>16.0</ele><time>2026-04-06T08:52:26Z</time></trkpt><trkpt lat="37.074298388131666" lon="15.249872834312031"><ele>14.75</ele><time>2026-04-06T08:52:27Z</time></trkpt><trkpt lat="37.074189494876535" lon="15.249940586777493"><ele>13.5</ele><time>2026-04-06T08:52:28Z</time></trkpt><trkpt lat="37.07406131230403" lon="15.249993566515592"><ele>12.25</ele><time>2026-04-06T08:52:29Z</time></trkpt><trkpt lat="37.07393425684156" lon="15.250024096571302"><ele>11.0</ele><time>2026-04-06T08:52:30Z</time></trkpt><trkpt lat="37.07381726925128" lon="15.250033685748193"><ele>11.0</ele><time>2026-04-06T08:52:31Z</time></trkpt><trkpt lat="37.073702359427585" lon="15.250029748630894"><ele>11.0</ele><time>2026-04-06T08:52:31.999Z</time></trkpt><trkpt lat="37.07358243559379" lon="15.250011607188952"><ele>11.0</ele><time>2026-04-06T08:52:32.999Z</time></trkpt><trkpt lat="37.07345101627537" lon="15.249980045448694"><ele>11.0</ele><time>2026-04-06T08:52:33.999Z</time></trkpt><trkpt lat="37.07331998130954" lon="15.249949672686395"><ele>10.75</ele><time>2026-04-06T08:52:34.999Z</time></trkpt><trkpt lat="37.07318757398502" lon="15.249939466741033"><ele>10.5</ele><time>2026-04-06T08:52:35.999Z</time></trkpt><trkpt lat="37.073053341560886" lon="15.24994636216325"><ele>10.25</ele><time>2026-04-06T08:52:36.999Z</time></trkpt><trkpt lat="37.0729216692031" lon="15.24997386796441"><ele>10.0</ele><time>2026-04-06T08:52:37.999Z</time></trkpt><trkpt lat="37.07279690552607" lon="15.250017831604547"><ele>10.0</ele><time>2026-04-06T08:52:38.999Z</time></trkpt><trkpt lat="37.07267308676542" lon="15.250074480423528"><ele>10.0</ele><time>2026-04-06T08:52:39.999Z</time></trkpt><trkpt lat="37.07254391173544" lon="15.250149854694172"><ele>10.0</ele><time>2026-04-06T08:52:40.999Z</time></trkpt><trkpt lat="37.07241242897492" lon="15.250236518085774"><ele>10.0</ele><time>2026-04-06T08:52:41.999Z</time></trkpt><trkpt lat="37.07228543895724" lon="15.250323380798822"><ele>10.0</ele><time>2026-04-06T08:52:42.999Z</time></trkpt><trkpt lat="37.072166580243945" lon="15.25040893402789"><ele>10.0</ele><time>2026-04-06T08:52:43.999Z</time></trkpt><trkpt lat="37.0720408037003" lon="15.250497146894972"><ele>10.0</ele><time>2026-04-06T08:52:44.999Z</time></trkpt><trkpt lat="37.0719145733958" lon="15.250583069576988"><ele>10.0</ele><time>2026-04-06T08:52:45.999Z</time></trkpt><trkpt lat="37.07178595057883" lon="15.250671801644085"><ele>9.75</ele><time>2026-04-06T08:52:46.999Z</time></trkpt><trkpt lat="37.071655430709136" lon="15.2507619099057"><ele>9.5</ele><time>2026-04-06T08:52:47.999Z</time></trkpt><trkpt lat="37.07153178443606" lon="15.25084513077545"><ele>9.25</ele><time>2026-04-06T08:52:48.999Z</time></trkpt><trkpt lat="37.07140875005099" lon="15.25092929449812"><ele>9.0</ele><time>2026-04-06T08:52:49.999Z</time></trkpt><trkpt lat="37.07128597274845" lon="15.251016840039636"><ele>9.5</ele><time>2026-04-06T08:52:50.999Z</time></trkpt><trkpt lat="37.07116554360826" lon="15.251100893300531"><ele>10.0</ele><time>2026-04-06T08:52:51.999Z</time></trkpt><trkpt lat="37.07104802671322" lon="15.251185427907336"><ele>10.5</ele><time>2026-04-06T08:52:52.999Z</time></trkpt><trkpt lat="37.07093763866253" lon="15.251269401726143"><ele>11.0</ele><time>2026-04-06T08:52:53.999Z</time></trkpt><trkpt lat="37.07083665655305" lon="15.251332700830545"><ele>11.0</ele><time>2026-04-06T08:52:54.999Z</time></trkpt><trkpt lat="37.07074277289108" lon="15.251365145666563"><ele>11.0</ele><time>2026-04-06T08:52:55.999Z</time></trkpt><trkpt lat="37.07062979461246" lon="15.251368614643358"><ele>11.0</ele><time>2026-04-06T08:52:56.999Z</time></trkpt><trkpt lat="37.07050036282529" lon="15.251356663321372"><ele>11.0</ele><time>2026-04-06T08:52:57.999Z</time></trkpt><trkpt lat="37.070355702491696" lon="15.251337580933598"><ele>11.0</ele><time>2026-04-06T08:52:58.999Z</time></trkpt><trkpt lat="37.070189764753735" lon="15.251324433025445"><ele>11.0</ele><time>2026-04-06T08:52:59.999Z</time></trkpt><trkpt lat="37.07001057192807" lon="15.25131163839895"><ele>11.0</ele><time>2026-04-06T08:53:00.999Z</time></trkpt><trkpt lat="37.069845772420706" lon="15.251303758219136"><ele>10.5</ele><time>2026-04-06T08:53:01.999Z</time></trkpt><trkpt lat="37.069692947032074" lon="15.251306163902582"><ele>10.0</ele><time>2026-04-06T08:53:02.999Z</time></trkpt><trkpt lat="37.069545227818246" lon="15.25129111780566"><ele>9.5</ele><time>2026-04-06T08:53:03.999Z</time></trkpt><trkpt lat="37.069403252226" lon="15.251278473968028"><ele>9.0</ele><time>2026-04-06T08:53:04.999Z</time></trkpt><trkpt lat="37.06926553850092" lon="15.251268892865436"><ele>9.0</ele><time>2026-04-06T08:53:05.999Z</time></trkpt><trkpt lat="37.0691285741553" lon="15.251254157231623"><ele>9.0</ele><time>2026-04-06T08:53:06.999Z</time></trkpt><trkpt lat="37.06897942067978" lon="15.251219974675436"><ele>9.0</ele><time>2026-04-06T08:53:07.999Z</time></trkpt><trkpt lat="37.06881652822331" lon="15.251178983050984"><ele>8.333333333333334</ele><time>2026-04-06T08:53:08.999Z</time></trkpt><trkpt lat="37.06864667262273" lon="15.251146049574261"><ele>7.666666666666667</ele><time>2026-04-06T08:53:09.999Z</time></trkpt><trkpt lat="37.06848112068355" lon="15.251126879612032"><ele>7.0</ele><time>2026-04-06T08:53:10.999Z</time></trkpt><trkpt lat="37.0683240648746" lon="15.251121760117485"><ele>6.75</ele><time>2026-04-06T08:53:12Z</time></trkpt><trkpt lat="37.0681829354517" lon="15.251114483683422"><ele>6.5</ele><time>2026-04-06T08:53:13Z</time></trkpt><trkpt lat="37.068049164214564" lon="15.25110173478334"><ele>6.25</ele><time>2026-04-06T08:53:14Z</time></trkpt><trkpt lat="37.06791924986445" lon="15.251060401572342"><ele>6.0</ele><time>2026-04-06T08:53:15Z</time></trkpt><trkpt lat="37.067798730417934" lon="15.251023790020803"><ele>6.0</ele><time>2026-04-06T08:53:16Z</time></trkpt><trkpt lat="37.067673001394965" lon="15.251005484972744"><ele>6.0</ele><time>2026-04-06T08:53:17Z</time></trkpt><trkpt lat="37.067541397779806" lon="15.251013212132793"><ele>6.0</ele><time>2026-04-06T08:53:18Z</time></trkpt><trkpt lat="37.067416621131464" lon="15.251034351122344"><ele>6.0</ele><time>2026-04-06T08:53:19Z</time></trkpt><trkpt lat="37.067331662474274" lon="15.251048557623742"><ele>6.0</ele><time>2026-04-06T08:53:20Z</time></trkpt><trkpt lat="37.06722539158813" lon="15.251053974759087"><ele>6.0</ele><time>2026-04-06T08:53:21Z</time></trkpt><trkpt lat="37.067097196820384" lon="15.25106868894198"><ele>6.0</ele><time>2026-04-06T08:53:22Z</time></trkpt><trkpt lat="37.06690991520089" lon="15.251086837818985"><ele>6.0</ele><time>2026-04-06T08:53:23Z</time></trkpt><trkpt lat="37.06675660872274" lon="15.251105290501059"><ele>6.0</ele><time>2026-04-06T08:53:24Z</time></trkpt><trkpt lat="37.066593186028406" lon="15.251108631388485"><ele>6.0</ele><time>2026-04-06T08:53:25Z</time></trkpt><trkpt lat="37.06640190288038" lon="15.251118642224139"><ele>6.0</ele><time>2026-04-06T08:53:26Z</time></trkpt><trkpt lat="37.06622818282462" lon="15.251125172185178"><ele>6.0</ele><time>2026-04-06T08:53:27Z</time></trkpt><trkpt lat="37.0660652772457" lon="15.251122148439663"><ele>6.0</ele><time>2026-04-06T08:53:28Z</time></trkpt><trkpt lat="37.06591848169628" lon="15.251118242959002"><ele>6.0</ele><time>2026-04-06T08:53:29Z</time></trkpt><trkpt lat="37.065792804557084" lon="15.251105684480445"><ele>6.0</ele><time>2026-04-06T08:53:30Z</time></trkpt><trkpt lat="37.06568288513566" lon="15.251083414986558"><ele>6.166666666666667</ele><time>2026-04-06T08:53:31Z</time></trkpt><trkpt lat="37.065612943659765" lon="15.251052802072971"><ele>6.333333333333334</ele><time>2026-04-06T08:53:32Z</time></trkpt><trkpt lat="37.06557535863917" lon="15.250982910383987"><ele>6.5</ele><time>2026-04-06T08:53:34Z</time></trkpt><trkpt lat="37.06544834650787" lon="15.250957640970597"><ele>6.666666666666667</ele><time>2026-04-06T08:53:44Z</time></trkpt><trkpt lat="37.065373492697105" lon="15.25098066010331"><ele>6.833333333333334</ele><time>2026-04-06T08:53:45Z</time></trkpt><trkpt lat="37.06532219408273" lon="15.251039928628785"><ele>7.0</ele><time>2026-04-06T08:53:46Z</time></trkpt><trkpt lat="37.06531575911576" lon="15.251124146617101"><ele>7.0</ele><time>2026-04-06T08:53:47Z</time></trkpt><trkpt lat="37.06534989513854" lon="15.251219803299666"><ele>6.999999999999999</ele><time>2026-04-06T08:53:48Z</time></trkpt><trkpt lat="37.06540920524991" lon="15.251314915397359"><ele>6.999999999999999</ele><time>2026-04-06T08:53:49Z</time></trkpt><trkpt lat="37.06545818998553" lon="15.251437916683562"><ele>7.0</ele><time>2026-04-06T08:53:50Z</time></trkpt><trkpt lat="37.065486025596385" lon="15.2516019063471"><ele>7.0</ele><time>2026-04-06T08:53:51Z</time></trkpt><trkpt lat="37.06549302112471" lon="15.251758296120942"><ele>7.0</ele><time>2026-04-06T08:53:52Z</time></trkpt><trkpt lat="37.06551482394316" lon="15.251928404854576"><ele>7.0</ele><time>2026-04-06T08:53:53Z</time></trkpt><trkpt lat="37.06554401426626" lon="15.252123298603914"><ele>7.0</ele><time>2026-04-06T08:53:54Z</time></trkpt><trkpt lat="37.06556847274763" lon="15.252311339288873"><ele>7.0</ele><time>2026-04-06T08:53:55Z</time></trkpt><trkpt lat="37.06559957533324" lon="15.252529428961498"><ele>7.0</ele><time>2026-04-06T08:53:56Z</time></trkpt><trkpt lat="37.06563084634111" lon="15.252762318665878"><ele>7.0</ele><time>2026-04-06T08:53:57Z</time></trkpt><trkpt lat="37.065661215619805" lon="15.252984629731362"><ele>7.0</ele><time>2026-04-06T08:53:58Z</time></trkpt><trkpt lat="37.06569736246111" lon="15.253207671665166"><ele>7.0</ele><time>2026-04-06T08:53:59Z</time></trkpt><trkpt lat="37.065737033602225" lon="15.253453402526997"><ele>7.0</ele><time>2026-04-06T08:54:00Z</time></trkpt><trkpt lat="37.06577442127847" lon="15.253710032156505"><ele>7.0</ele><time>2026-04-06T08:54:01Z</time></trkpt><trkpt lat="37.06580905565929" lon="15.253969708321925"><ele>7.0</ele><time>2026-04-06T08:54:02Z</time></trkpt><trkpt lat="37.065844877033726" lon="15.254230738599897"><ele>7.0</ele><time>2026-04-06T08:54:03Z</time></trkpt><trkpt lat="37.065883598862044" lon="15.25448985340381"><ele>7.0</ele><time>2026-04-06T08:54:04Z</time></trkpt><trkpt lat="37.06591964806851" lon="15.254744205744988"><ele>7.0</ele><time>2026-04-06T08:54:05Z</time></trkpt><trkpt lat="37.065952104532336" lon="15.254993180649414"><ele>7.0</ele><time>2026-04-06T08:54:06Z</time></trkpt><trkpt lat="37.06598224180303" lon="15.25524013841152"><ele>7.0</ele><time>2026-04-06T08:54:07Z</time></trkpt><trkpt lat="37.066012688257274" lon="15.255485353862575"><ele>6.333333333333334</ele><time>2026-04-06T08:54:08Z</time></trkpt><trkpt lat="37.06604436637899" lon="15.255732590512354"><ele>5.666666666666667</ele><time>2026-04-06T08:54:09Z</time></trkpt><trkpt lat="37.066075709762096" lon="15.255979463617154"><ele>5.0</ele><time>2026-04-06T08:54:10Z</time></trkpt><trkpt lat="37.06610568802404" lon="15.256225259269005"><ele>4.666666666666667</ele><time>2026-04-06T08:54:11Z</time></trkpt><trkpt lat="37.06613201332016" lon="15.256473773157062"><ele>4.333333333333333</ele><time>2026-04-06T08:54:12Z</time></trkpt><trkpt lat="37.06615597074448" lon="15.256722571913938"><ele>4.0</ele><time>2026-04-06T08:54:13Z</time></trkpt><trkpt lat="37.06617986127299" lon="15.256973081737554"><ele>4.0</ele><time>2026-04-06T08:54:14Z</time></trkpt><trkpt lat="37.06620651743284" lon="15.257227152763562"><ele>4.0</ele><time>2026-04-06T08:54:15Z</time></trkpt><trkpt lat="37.06623409409794" lon="15.257484271646524"><ele>4.0</ele><time>2026-04-06T08:54:16Z</time></trkpt><trkpt lat="37.06625801444794" lon="15.2577458018831"><ele>4.0</ele><time>2026-04-06T08:54:17Z</time></trkpt><trkpt lat="37.06628352636396" lon="15.258008565138997"><ele>4.0</ele><time>2026-04-06T08:54:18Z</time></trkpt><trkpt lat="37.066311678436826" lon="15.258274860665793"><ele>4.0</ele><time>2026-04-06T08:54:19Z</time></trkpt><trkpt lat="37.06634165463656" lon="15.258544002015128"><ele>4.0</ele><time>2026-04-06T08:54:20Z</time></trkpt><trkpt lat="37.06637211207892" lon="15.258813903459467"><ele>4.0</ele><time>2026-04-06T08:54:21Z</time></trkpt><trkpt lat="37.066401710748245" lon="15.259084118264733"><ele>4.0</ele><time>2026-04-06T08:54:22Z</time></trkpt><trkpt lat="37.06642916370542" lon="15.259357129193384"><ele>4.333333333333333</ele><time>2026-04-06T08:54:23Z</time></trkpt><trkpt lat="37.066457883536934" lon="15.259629654886474"><ele>4.666666666666667</ele><time>2026-04-06T08:54:24Z</time></trkpt><trkpt lat="37.066485641068375" lon="15.2599049514202"><ele>5.0</ele><time>2026-04-06T08:54:25Z</time></trkpt><trkpt lat="37.06651171093242" lon="15.260176868690895"><ele>4.333333333333334</ele><time>2026-04-06T08:54:26Z</time></trkpt><trkpt lat="37.06653792533718" lon="15.260446245262184"><ele>3.666666666666667</ele><time>2026-04-06T08:54:27Z</time></trkpt><trkpt lat="37.06656425075553" lon="15.260707253489281"><ele>3.0</ele><time>2026-04-06T08:54:28Z</time></trkpt><trkpt lat="37.06658893391423" lon="15.260965821170744"><ele>3.0</ele><time>2026-04-06T08:54:29Z</time></trkpt><trkpt lat="37.06661512188615" lon="15.261219049653809"><ele>3.0</ele><time>2026-04-06T08:54:30Z</time></trkpt><trkpt lat="37.06664319313675" lon="15.261481424291906"><ele>3.0</ele><time>2026-04-06T08:54:31Z</time></trkpt><trkpt lat="37.06666821207982" lon="15.261734797093911"><ele>3.333333333333333</ele><time>2026-04-06T08:54:32Z</time></trkpt><trkpt lat="37.066689271829084" lon="15.261969686041311"><ele>3.6666666666666665</ele><time>2026-04-06T08:54:32.999Z</time></trkpt><trkpt lat="37.066705121146434" lon="15.262196585152104"><ele>4.0</ele><time>2026-04-06T08:54:33.999Z</time></trkpt><trkpt lat="37.06672123009783" lon="15.262404541533565"><ele>3.333333333333333</ele><time>2026-04-06T08:54:34.999Z</time></trkpt><trkpt lat="37.066746111151375" lon="15.26260042375502"><ele>2.6666666666666665</ele><time>2026-04-06T08:54:35.999Z</time></trkpt><trkpt lat="37.06677881454502" lon="15.262782711358795"><ele>2.0</ele><time>2026-04-06T08:54:36.999Z</time></trkpt><trkpt lat="37.06682625285811" lon="15.262959315905372"><ele>2.25</ele><time>2026-04-06T08:54:37.999Z</time></trkpt><trkpt lat="37.066884599825116" lon="15.263121208554459"><ele>2.5</ele><time>2026-04-06T08:54:38.999Z</time></trkpt><trkpt lat="37.066959346564886" lon="15.263257822266173"><ele>2.75</ele><time>2026-04-06T08:54:39.999Z</time></trkpt><trkpt lat="37.06704316691026" lon="15.263375606728706"><ele>3.0</ele><time>2026-04-06T08:54:40.999Z</time></trkpt><trkpt lat="37.067107521680775" lon="15.263496681776983"><ele>3.0</ele><time>2026-04-06T08:54:41.999Z</time></trkpt><trkpt lat="37.067148824195556" lon="15.263618808057426"><ele>3.0</ele><time>2026-04-06T08:54:42.999Z</time></trkpt><trkpt lat="37.06721527552394" lon="15.26371830335981"><ele>3.0</ele><time>2026-04-06T08:54:43.999Z</time></trkpt><trkpt lat="37.06730370532942" lon="15.263783700564787"><ele>3.0</ele><time>2026-04-06T08:54:44.999Z</time></trkpt><trkpt lat="37.067392193746464" lon="15.263811184356996"><ele>3.0</ele><time>2026-04-06T08:54:45.999Z</time></trkpt><trkpt lat="37.06747205117912" lon="15.263793747861804"><ele>3.4</ele><time>2026-04-06T08:54:46.999Z</time></trkpt><trkpt lat="37.06752967771381" lon="15.263738621622856"><ele>3.8</ele><time>2026-04-06T08:54:47.999Z</time></trkpt><trkpt lat="37.06757013262458" lon="15.2636622053329"><ele>4.2</ele><time>2026-04-06T08:54:48.999Z</time></trkpt><trkpt lat="37.06759974873212" lon="15.263559349555408"><ele>4.6</ele><time>2026-04-06T08:54:49.999Z</time></trkpt><trkpt lat="37.06763012859324" lon="15.263431412991014"><ele>5.0</ele><time>2026-04-06T08:54:50.999Z</time></trkpt><trkpt lat="37.06768044138835" lon="15.263299913885044"><ele>5.0</ele><time>2026-04-06T08:54:51.999Z</time></trkpt><trkpt lat="37.06773650543215" lon="15.263162440448054"><ele>5.0</ele><time>2026-04-06T08:54:52.999Z</time></trkpt><trkpt lat="37.06775694256217" lon="15.263009296675436"><ele>5.0</ele><time>2026-04-06T08:54:53.999Z</time></trkpt><trkpt lat="37.06776183544963" lon="15.262866165610355"><ele>5.0</ele><time>2026-04-06T08:54:54.999Z</time></trkpt><trkpt lat="37.06778023429367" lon="15.262750675057822"><ele>4.8</ele><time>2026-04-06T08:54:55.999Z</time></trkpt><trkpt lat="37.06781829718926" lon="15.262673617089126"><ele>4.6</ele><time>2026-04-06T08:54:56.999Z</time></trkpt><trkpt lat="37.06792252570144" lon="15.262593002942172"><ele>4.4</ele><time>2026-04-06T08:54:58.999Z</time></trkpt><trkpt lat="37.06798045255533" lon="15.262557668661586"><ele>4.2</ele><time>2026-04-06T08:54:59.999Z</time></trkpt><trkpt lat="37.068056173117824" lon="15.26252202225447"><ele>4.0</ele><time>2026-04-06T08:55:01.999Z</time></trkpt><trkpt lat="37.06810510030377" lon="15.262654671414657"><ele>3.9999999999999996</ele><time>2026-04-06T08:55:02.999Z</time></trkpt><trkpt lat="37.06816871811263" lon="15.262803949108621"><ele>4.0</ele><time>2026-04-06T08:55:04.999Z</time></trkpt><trkpt lat="37.068214969945146" lon="15.262874506024946"><ele>4.0</ele><time>2026-04-06T08:55:05.999Z</time></trkpt><trkpt lat="37.06827187062887" lon="15.262925383337153"><ele>4.0</ele><time>2026-04-06T08:55:06.999Z</time></trkpt><trkpt lat="37.06832822105625" lon="15.263020289865105"><ele>3.9999999999999996</ele><time>2026-04-06T08:55:08.999Z</time></trkpt><trkpt lat="37.06837322970589" lon="15.263094469920894"><ele>4.0</ele><time>2026-04-06T08:55:10.999Z</time></trkpt><trkpt lat="37.06843592078056" lon="15.263197792910027"><ele>4.5</ele><time>2026-04-06T08:55:13.999Z</time></trkpt><trkpt lat="37.06871455941294" lon="15.262939054550555"><ele>5.0</ele><time>2026-04-06T08:55:15.999Z</time></trkpt><trkpt lat="37.068785588298844" lon="15.26283531244154"><ele>5.0</ele><time>2026-04-06T08:55:18Z</time></trkpt><trkpt lat="37.06884399547314" lon="15.262894141166344"><ele>5.0</ele><time>2026-04-06T08:55:25Z</time></trkpt><trkpt lat="37.06880403949768" lon="15.262972449401095"><ele>5.0</ele><time>2026-04-06T08:55:26Z</time></trkpt><trkpt lat="37.06875557560259" lon="15.263039817532894"><ele>5.0</ele><time>2026-04-06T08:55:27Z</time></trkpt><trkpt lat="37.06869275178504" lon="15.263093053033286"><ele>5.0</ele><time>2026-04-06T08:55:28Z</time></trkpt><trkpt lat="37.06862127261268" lon="15.263111440045297"><ele>5.0</ele><time>2026-04-06T08:55:29Z</time></trkpt><trkpt lat="37.06855913558763" lon="15.263133835426913"><ele>5.0</ele><time>2026-04-06T08:55:30Z</time></trkpt><trkpt lat="37.068527110148196" lon="15.263243630196234"><ele>5.4</ele><time>2026-04-06T08:55:32Z</time></trkpt><trkpt lat="37.068591808760964" lon="15.263339911808835"><ele>5.8</ele><time>2026-04-06T08:55:34Z</time></trkpt><trkpt lat="37.06863145196189" lon="15.26340217601497"><ele>6.199999999999999</ele><time>2026-04-06T08:55:35Z</time></trkpt><trkpt lat="37.06865963657019" lon="15.26351941001998"><ele>6.6</ele><time>2026-04-06T08:55:37Z</time></trkpt><trkpt lat="37.06858539337573" lon="15.263648490407006"><ele>7.0</ele><time>2026-04-06T08:55:39Z</time></trkpt><trkpt lat="37.06853249120392" lon="15.263738684064359"><ele>7.0</ele><time>2026-04-06T08:55:40Z</time></trkpt><trkpt lat="37.06847909190676" lon="15.263853012731746"><ele>6.999999999999999</ele><time>2026-04-06T08:55:42Z</time></trkpt><trkpt lat="37.06834807020417" lon="15.263929146947008"><ele>6.999999999999999</ele><time>2026-04-06T08:55:44Z</time></trkpt><trkpt lat="37.06827433981385" lon="15.263946563278076"><ele>7.0</ele><time>2026-04-06T08:55:45Z</time></trkpt><trkpt lat="37.06817440174632" lon="15.26388827224038"><ele>7.0</ele><time>2026-04-06T08:55:47Z</time></trkpt><trkpt lat="37.06806584519372" lon="15.263840208928396"><ele>6.714285714285714</ele><time>2026-04-06T08:55:49Z</time></trkpt><trkpt lat="37.068018850016344" lon="15.26389279201437"><ele>6.428571428571429</ele><time>2026-04-06T08:55:50Z</time></trkpt><trkpt lat="37.06797988153026" lon="15.263978667976739"><ele>6.142857142857142</ele><time>2026-04-06T08:55:51Z</time></trkpt><trkpt lat="37.06793143114231" lon="15.264058352314557"><ele>5.857142857142858</ele><time>2026-04-06T08:55:52Z</time></trkpt><trkpt lat="37.067863194185506" lon="15.264093939422196"><ele>5.571428571428571</ele><time>2026-04-06T08:55:53Z</time></trkpt><trkpt lat="37.06778999739558" lon="15.264079511772671"><ele>5.285714285714286</ele><time>2026-04-06T08:55:54Z</time></trkpt><trkpt lat="37.067728133387845" lon="15.26401794089269"><ele>5.0</ele><time>2026-04-06T08:55:55Z</time></trkpt><trkpt lat="37.06767654183831" lon="15.26392746557341"><ele>5.0</ele><time>2026-04-06T08:55:56Z</time></trkpt><trkpt lat="37.06763718813454" lon="15.263831338156262"><ele>5.0</ele><time>2026-04-06T08:55:57Z</time></trkpt><trkpt lat="37.06761442254462" lon="15.26375383406652"><ele>5.0</ele><time>2026-04-06T08:55:58Z</time></trkpt><trkpt lat="37.06762356776191" lon="15.26365265601625"><ele>5.0</ele><time>2026-04-06T08:56:00Z</time></trkpt><trkpt lat="37.06762164357459" lon="15.263499587007598"><ele>5.0</ele><time>2026-04-06T08:56:02Z</time></trkpt><trkpt lat="37.06759961103198" lon="15.26341303840747"><ele>5.0</ele><time>2026-04-06T08:56:03Z</time></trkpt><trkpt lat="37.06755221892466" lon="15.26332985305854"><ele>5.0</ele><time>2026-04-06T08:56:04Z</time></trkpt><trkpt lat="37.067484134517194" lon="15.263246475950625"><ele>5.0</ele><time>2026-04-06T08:56:05Z</time></trkpt><trkpt lat="37.06740471679424" lon="15.263180887350613"><ele>5.0</ele><time>2026-04-06T08:56:06Z</time></trkpt><trkpt lat="37.06731602119676" lon="15.26314340097688"><ele>5.0</ele><time>2026-04-06T08:56:07Z</time></trkpt><trkpt lat="37.067202807194235" lon="15.263136924459651"><ele>5.0</ele><time>2026-04-06T08:56:08Z</time></trkpt><trkpt lat="37.067102494123446" lon="15.26312872414137"><ele>4.4</ele><time>2026-04-06T08:56:09Z</time></trkpt><trkpt lat="37.06701227060023" lon="15.263094751467483"><ele>3.8</ele><time>2026-04-06T08:56:10Z</time></trkpt><trkpt lat="37.06694223629529" lon="15.263035415209005"><ele>3.2</ele><time>2026-04-06T08:56:11Z</time></trkpt><trkpt lat="37.06688095848619" lon="15.262948430373399"><ele>2.6</ele><time>2026-04-06T08:56:12Z</time></trkpt><trkpt lat="37.066842948923195" lon="15.262825267192271"><ele>2.0</ele><time>2026-04-06T08:56:13Z</time></trkpt><trkpt lat="37.06681957192002" lon="15.262667662646631"><ele>2.0</ele><time>2026-04-06T08:56:14Z</time></trkpt><trkpt lat="37.06680213757688" lon="15.262501979352667"><ele>2.0</ele><time>2026-04-06T08:56:15Z</time></trkpt><trkpt lat="37.06675517802544" lon="15.26236599997204"><ele>2.0</ele><time>2026-04-06T08:56:16Z</time></trkpt><trkpt lat="37.06676867034136" lon="15.26217537263936"><ele>2.0</ele><time>2026-04-06T08:56:17Z</time></trkpt><trkpt lat="37.066748888600934" lon="15.261998823575286"><ele>2.25</ele><time>2026-04-06T08:56:18Z</time></trkpt><trkpt lat="37.066726816522866" lon="15.261819867045817"><ele>2.5</ele><time>2026-04-06T08:56:19Z</time></trkpt><trkpt lat="37.06670533109237" lon="15.261638740601176"><ele>2.75</ele><time>2026-04-06T08:56:20Z</time></trkpt><trkpt lat="37.06668591089015" lon="15.261457675600713"><ele>3.0</ele><time>2026-04-06T08:56:21Z</time></trkpt><trkpt lat="37.06666692513091" lon="15.261276113658505"><ele>3.0</ele><time>2026-04-06T08:56:22Z</time></trkpt><trkpt lat="37.0666478185329" lon="15.261093105031726"><ele>3.0</ele><time>2026-04-06T08:56:23Z</time></trkpt><trkpt lat="37.066631320115214" lon="15.260911531628844"><ele>3.0</ele><time>2026-04-06T08:56:24Z</time></trkpt><trkpt lat="37.06661475023791" lon="15.260732288941057"><ele>3.0</ele><time>2026-04-06T08:56:25Z</time></trkpt><trkpt lat="37.066596760788755" lon="15.2605540784736"><ele>3.0</ele><time>2026-04-06T08:56:26Z</time></trkpt><trkpt lat="37.06657855057607" lon="15.260377414047834"><ele>3.0</ele><time>2026-04-06T08:56:27Z</time></trkpt><trkpt lat="37.06656202787884" lon="15.26020132317809"><ele>3.0</ele><time>2026-04-06T08:56:27.999Z</time></trkpt><trkpt lat="37.06654749408127" lon="15.26002680026094"><ele>3.0</ele><time>2026-04-06T08:56:28.999Z</time></trkpt><trkpt lat="37.06653122484488" lon="15.259854374306277"><ele>3.5</ele><time>2026-04-06T08:56:29.999Z</time></trkpt><trkpt lat="37.06651150776091" lon="15.259682551603964"><ele>4.0</ele><time>2026-04-06T08:56:30.999Z</time></trkpt><trkpt lat="37.06649341383868" lon="15.259508169449076"><ele>4.5</ele><time>2026-04-06T08:56:31.999Z</time></trkpt><trkpt lat="37.06647894484682" lon="15.259337148530111"><ele>5.0</ele><time>2026-04-06T08:56:32.999Z</time></trkpt><trkpt lat="37.066460968409146" lon="15.259167359890245"><ele>5.0</ele><time>2026-04-06T08:56:33.999Z</time></trkpt><trkpt lat="37.066440080391146" lon="15.258997853954009"><ele>5.0</ele><time>2026-04-06T08:56:34.999Z</time></trkpt><trkpt lat="37.06641885300065" lon="15.258829500217132"><ele>5.0</ele><time>2026-04-06T08:56:35.999Z</time></trkpt><trkpt lat="37.06640257268115" lon="15.258660532790515"><ele>5.0</ele><time>2026-04-06T08:56:36.999Z</time></trkpt><trkpt lat="37.066387198609185" lon="15.258484980979611"><ele>5.0</ele><time>2026-04-06T08:56:37.999Z</time></trkpt><trkpt lat="37.066369264736885" lon="15.258301478466798"><ele>5.0</ele><time>2026-04-06T08:56:38.999Z</time></trkpt><trkpt lat="37.06635028056626" lon="15.258114626501463"><ele>5.0</ele><time>2026-04-06T08:56:39.999Z</time></trkpt><trkpt lat="37.066330323911195" lon="15.257921588198341"><ele>5.0</ele><time>2026-04-06T08:56:40.999Z</time></trkpt><trkpt lat="37.066311048995566" lon="15.257721914802502"><ele>5.0</ele><time>2026-04-06T08:56:41.999Z</time></trkpt><trkpt lat="37.06629423303639" lon="15.257518648462439"><ele>5.0</ele><time>2026-04-06T08:56:42.999Z</time></trkpt><trkpt lat="37.06627437398515" lon="15.257312257269886"><ele>4.75</ele><time>2026-04-06T08:56:43.999Z</time></trkpt><trkpt lat="37.06625310715433" lon="15.25711632526531"><ele>4.5</ele><time>2026-04-06T08:56:44.999Z</time></trkpt><trkpt lat="37.06623591413916" lon="15.256939600922259"><ele>4.25</ele><time>2026-04-06T08:56:45.999Z</time></trkpt><trkpt lat="37.06621750746546" lon="15.256771967553044"><ele>4.0</ele><time>2026-04-06T08:56:46.999Z</time></trkpt><trkpt lat="37.06619940172986" lon="15.256611992445341"><ele>4.0</ele><time>2026-04-06T08:56:47.999Z</time></trkpt><trkpt lat="37.06618454473447" lon="15.256455396515591"><ele>4.0</ele><time>2026-04-06T08:56:48.999Z</time></trkpt><trkpt lat="37.066164332621575" lon="15.256300995750127"><ele>4.0</ele><time>2026-04-06T08:56:49.999Z</time></trkpt><trkpt lat="37.066141429563366" lon="15.25614818040949"><ele>4.0</ele><time>2026-04-06T08:56:50.999Z</time></trkpt><trkpt lat="37.06612515080295" lon="15.255994336398517"><ele>4.25</ele><time>2026-04-06T08:56:51.999Z</time></trkpt><trkpt lat="37.06611485430616" lon="15.255839342702147"><ele>4.5</ele><time>2026-04-06T08:56:52.999Z</time></trkpt><trkpt lat="37.06609939155058" lon="15.255684309505371"><ele>4.75</ele><time>2026-04-06T08:56:53.999Z</time></trkpt><trkpt lat="37.066077545853986" lon="15.255531657185745"><ele>5.0</ele><time>2026-04-06T08:56:54.999Z</time></trkpt><trkpt lat="37.066054656676116" lon="15.255376045807786"><ele>5.5</ele><time>2026-04-06T08:56:55.999Z</time></trkpt><trkpt lat="37.06603501377219" lon="15.255217043208978"><ele>6.0</ele><time>2026-04-06T08:56:56.999Z</time></trkpt><trkpt lat="37.06601380315387" lon="15.255053621480142"><ele>6.5</ele><time>2026-04-06T08:56:57.999Z</time></trkpt><trkpt lat="37.06599176136808" lon="15.2548848681225"><ele>7.0</ele><time>2026-04-06T08:56:58.999Z</time></trkpt><trkpt lat="37.065971658028595" lon="15.254718953279053"><ele>7.0</ele><time>2026-04-06T08:56:59.999Z</time></trkpt><trkpt lat="37.065953194117945" lon="15.254561034155554"><ele>7.0</ele><time>2026-04-06T08:57:00.999Z</time></trkpt><trkpt lat="37.06593509013837" lon="15.254410656896184"><ele>7.0</ele><time>2026-04-06T08:57:01.999Z</time></trkpt><trkpt lat="37.06591804475714" lon="15.254271274188767"><ele>7.0</ele><time>2026-04-06T08:57:02.999Z</time></trkpt><trkpt lat="37.0659041460463" lon="15.254153580754807"><ele>7.0</ele><time>2026-04-06T08:57:03.999Z</time></trkpt><trkpt lat="37.06589372906389" lon="15.254061434007898"><ele>6.999999999999999</ele><time>2026-04-06T08:57:04.999Z</time></trkpt><trkpt lat="37.065878410714895" lon="15.253937870304437"><ele>6.999999999999999</ele><time>2026-04-06T08:57:06.999Z</time></trkpt><trkpt lat="37.06585542368063" lon="15.253842981998787"><ele>7.0</ele><time>2026-04-06T08:59:30Z</time></trkpt><trkpt lat="37.06583104622274" lon="15.253692592616272"><ele>7.0</ele><time>2026-04-06T08:59:32Z</time></trkpt><trkpt lat="37.06581424556402" lon="15.253582595734013"><ele>7.0</ele><time>2026-04-06T08:59:33Z</time></trkpt><trkpt lat="37.06579776928076" lon="15.253459781904363"><ele>6.999999999999999</ele><time>2026-04-06T08:59:34Z</time></trkpt><trkpt lat="37.065781891498595" lon="15.253348032466675"><ele>6.999999999999999</ele><time>2026-04-06T08:59:35Z</time></trkpt><trkpt lat="37.06576206029088" lon="15.253224756531994"><ele>7.0</ele><time>2026-04-06T08:59:36Z</time></trkpt><trkpt lat="37.0657404826333" lon="15.253090722857227"><ele>7.0</ele><time>2026-04-06T08:59:37Z</time></trkpt><trkpt lat="37.06572077165107" lon="15.252958259679074"><ele>7.0</ele><time>2026-04-06T08:59:38Z</time></trkpt><trkpt lat="37.06570352241507" lon="15.252839276583824"><ele>6.999999999999999</ele><time>2026-04-06T08:59:39Z</time></trkpt><trkpt lat="37.065690629708506" lon="15.25272617728454"><ele>6.999999999999999</ele><time>2026-04-06T08:59:40Z</time></trkpt><trkpt lat="37.06567469853387" lon="15.252613494654724"><ele>7.0</ele><time>2026-04-06T08:59:41Z</time></trkpt><trkpt lat="37.065659488736735" lon="15.252495225139318"><ele>7.0</ele><time>2026-04-06T08:59:42Z</time></trkpt><trkpt lat="37.065638685374736" lon="15.252373488362196"><ele>7.0</ele><time>2026-04-06T08:59:43Z</time></trkpt><trkpt lat="37.06562231559232" lon="15.25224815417907"><ele>6.999999999999999</ele><time>2026-04-06T08:59:44Z</time></trkpt><trkpt lat="37.065605783725246" lon="15.252122035409128"><ele>6.999999999999999</ele><time>2026-04-06T08:59:45Z</time></trkpt><trkpt lat="37.065588454967674" lon="15.251994438346866"><ele>7.0</ele><time>2026-04-06T08:59:46Z</time></trkpt><trkpt lat="37.065572864487486" lon="15.251872899818485"><ele>7.0</ele><time>2026-04-06T08:59:47Z</time></trkpt><trkpt lat="37.06555968279092" lon="15.251762589773884"><ele>7.0</ele><time>2026-04-06T08:59:48Z</time></trkpt><trkpt lat="37.06554603724341" lon="15.251662762264015"><ele>7.0</ele><time>2026-04-06T08:59:49Z</time></trkpt><trkpt lat="37.06553100641523" lon="15.25157036048933"><ele>7.0</ele><time>2026-04-06T08:59:50Z</time></trkpt><trkpt lat="37.06551782247701" lon="15.251480375876005"><ele>7.0</ele><time>2026-04-06T08:59:51Z</time></trkpt><trkpt lat="37.06550665542307" lon="15.251394757001316"><ele>7.0</ele><time>2026-04-06T08:59:52Z</time></trkpt><trkpt lat="37.065506963954" lon="15.251306999550067"><ele>7.0</ele><time>2026-04-06T08:59:53Z</time></trkpt><trkpt lat="37.06552692327118" lon="15.251212395784638"><ele>7.0</ele><time>2026-04-06T08:59:54Z</time></trkpt><trkpt lat="37.065534637568724" lon="15.251109041415932"><ele>7.0</ele><time>2026-04-06T08:59:55Z</time></trkpt><trkpt lat="37.06551750571066" lon="15.251000597794215"><ele>6.999999999999999</ele><time>2026-04-06T08:59:56Z</time></trkpt><trkpt lat="37.06547707221188" lon="15.250890566209938"><ele>6.999999999999999</ele><time>2026-04-06T08:59:57Z</time></trkpt><trkpt lat="37.06542174700615" lon="15.250763421290149"><ele>7.0</ele><time>2026-04-06T08:59:58Z</time></trkpt><trkpt lat="37.0653903927486" lon="15.25061070345388"><ele>7.0</ele><time>2026-04-06T08:59:59Z</time></trkpt><trkpt lat="37.065371314448505" lon="15.250431084760928"><ele>7.25</ele><time>2026-04-06T09:00:00Z</time></trkpt><trkpt lat="37.065350071811686" lon="15.250263121708329"><ele>7.5</ele><time>2026-04-06T09:00:01Z</time></trkpt><trkpt lat="37.06532063148785" lon="15.250088391111108"><ele>7.75</ele><time>2026-04-06T09:00:02Z</time></trkpt><trkpt lat="37.06528854775213" lon="15.249900120208958"><ele>8.0</ele><time>2026-04-06T09:00:03Z</time></trkpt><trkpt lat="37.06525868580252" lon="15.249705520486165"><ele>7.333333333333333</ele><time>2026-04-06T09:00:04Z</time></trkpt><trkpt lat="37.06523454179358" lon="15.249502036398521"><ele>6.666666666666666</ele><time>2026-04-06T09:00:05Z</time></trkpt><trkpt lat="37.06520834232993" lon="15.249294180512212"><ele>6.0</ele><time>2026-04-06T09:00:06Z</time></trkpt><trkpt lat="37.06517973210403" lon="15.249085686255919"><ele>5.666666666666667</ele><time>2026-04-06T09:00:06.999Z</time></trkpt><trkpt lat="37.065150033751195" lon="15.24887170114519"><ele>5.333333333333334</ele><time>2026-04-06T09:00:07.999Z</time></trkpt><trkpt lat="37.06511910382714" lon="15.248655104306108"><ele>5.0</ele><time>2026-04-06T09:00:08.999Z</time></trkpt><trkpt lat="37.06508722947671" lon="15.248440211273953"><ele>5.0</ele><time>2026-04-06T09:00:09.999Z</time></trkpt><trkpt lat="37.065056787898875" lon="15.248227909363072"><ele>5.0</ele><time>2026-04-06T09:00:10.999Z</time></trkpt><trkpt lat="37.065026820952376" lon="15.248022154081111"><ele>5.0</ele><time>2026-04-06T09:00:11.999Z</time></trkpt><trkpt lat="37.0649963175815" lon="15.247814600286617"><ele>5.0</ele><time>2026-04-06T09:00:12.999Z</time></trkpt><trkpt lat="37.06496520579734" lon="15.24760765533614"><ele>5.0</ele><time>2026-04-06T09:00:13.999Z</time></trkpt><trkpt lat="37.064933682819124" lon="15.247401513111571"><ele>5.0</ele><time>2026-04-06T09:00:14.999Z</time></trkpt><trkpt lat="37.06490638519689" lon="15.247200221055248"><ele>5.5</ele><time>2026-04-06T09:00:15.999Z</time></trkpt><trkpt lat="37.06488511233094" lon="15.247011822003085"><ele>6.0</ele><time>2026-04-06T09:00:16.999Z</time></trkpt><trkpt lat="37.064865933036835" lon="15.246830734727123"><ele>6.5</ele><time>2026-04-06T09:00:17.999Z</time></trkpt><trkpt lat="37.06485336515128" lon="15.246667168220469"><ele>7.0</ele><time>2026-04-06T09:00:18.999Z</time></trkpt><trkpt lat="37.064851699858046" lon="15.24653100076963"><ele>7.333333333333334</ele><time>2026-04-06T09:00:19.999Z</time></trkpt><trkpt lat="37.06486675823397" lon="15.246425109476961"><ele>7.666666666666667</ele><time>2026-04-06T09:00:20.999Z</time></trkpt><trkpt lat="37.064888311403955" lon="15.2463220793801"><ele>8.0</ele><time>2026-04-06T09:00:21.999Z</time></trkpt><trkpt lat="37.064938270278375" lon="15.246233232303346"><ele>8.333333333333334</ele><time>2026-04-06T09:00:22.999Z</time></trkpt><trkpt lat="37.06499618504378" lon="15.24614253677839"><ele>8.666666666666666</ele><time>2026-04-06T09:00:23.999Z</time></trkpt><trkpt lat="37.0650324178182" lon="15.246032949955868"><ele>9.0</ele><time>2026-04-06T09:00:24.999Z</time></trkpt><trkpt lat="37.06503618584605" lon="15.245906890749215"><ele>9.0</ele><time>2026-04-06T09:00:25.999Z</time></trkpt><trkpt lat="37.065012460364684" lon="15.245782795559814"><ele>9.0</ele><time>2026-04-06T09:00:26.999Z</time></trkpt><trkpt lat="37.064960341900786" lon="15.245664090135998"><ele>9.0</ele><time>2026-04-06T09:00:27.999Z</time></trkpt><trkpt lat="37.064876528284145" lon="15.245561064905559"><ele>9.0</ele><time>2026-04-06T09:00:28.999Z</time></trkpt><trkpt lat="37.064767931973755" lon="15.245507101826531"><ele>9.0</ele><time>2026-04-06T09:00:29.999Z</time></trkpt><trkpt lat="37.06468192080566" lon="15.245372554581712"><ele>9.0</ele><time>2026-04-06T09:00:30.999Z</time></trkpt><trkpt lat="37.06461192383769" lon="15.245243575671008"><ele>9.0</ele><time>2026-04-06T09:00:31.999Z</time></trkpt><trkpt lat="37.06455492342396" lon="15.245096420523408"><ele>9.0</ele><time>2026-04-06T09:00:32.999Z</time></trkpt><trkpt lat="37.06450159501601" lon="15.244933662730903"><ele>9.0</ele><time>2026-04-06T09:00:33.999Z</time></trkpt><trkpt lat="37.06445168535143" lon="15.244775659169099"><ele>9.0</ele><time>2026-04-06T09:00:34.999Z</time></trkpt><trkpt lat="37.064397378659784" lon="15.244614160911205"><ele>9.0</ele><time>2026-04-06T09:00:35.999Z</time></trkpt><trkpt lat="37.06432758298187" lon="15.244448843211767"><ele>9.0</ele><time>2026-04-06T09:00:36.999Z</time></trkpt><trkpt lat="37.06424644803558" lon="15.244277859874023"><ele>9.0</ele><time>2026-04-06T09:00:37.999Z</time></trkpt><trkpt lat="37.06416369732142" lon="15.244102820531483"><ele>8.666666666666666</ele><time>2026-04-06T09:00:38.999Z</time></trkpt><trkpt lat="37.06407578848446" lon="15.243921180134228"><ele>8.333333333333332</ele><time>2026-04-06T09:00:39.999Z</time></trkpt><trkpt lat="37.06398763799814" lon="15.243740218788485"><ele>8.0</ele><time>2026-04-06T09:00:40.999Z</time></trkpt><trkpt lat="37.06389377462305" lon="15.243557686251602"><ele>8.0</ele><time>2026-04-06T09:00:41.999Z</time></trkpt><trkpt lat="37.06379581159026" lon="15.243378063618128"><ele>8.0</ele><time>2026-04-06T09:00:42.999Z</time></trkpt><trkpt lat="37.063695972144764" lon="15.243202689937936"><ele>8.0</ele><time>2026-04-06T09:00:43.999Z</time></trkpt><trkpt lat="37.06359376263641" lon="15.243021948784195"><ele>8.0</ele><time>2026-04-06T09:00:44.999Z</time></trkpt><trkpt lat="37.063492911662834" lon="15.242832699113507"><ele>8.0</ele><time>2026-04-06T09:00:45.999Z</time></trkpt><trkpt lat="37.06339850845354" lon="15.242649350416379"><ele>8.0</ele><time>2026-04-06T09:00:46.999Z</time></trkpt><trkpt lat="37.06330123672432" lon="15.24247267082574"><ele>9.0</ele><time>2026-04-06T09:00:47.999Z</time></trkpt><trkpt lat="37.06320130697919" lon="15.24229032796919"><ele>10.0</ele><time>2026-04-06T09:00:48.999Z</time></trkpt><trkpt lat="37.06310783336965" lon="15.242096430505704"><ele>11.0</ele><time>2026-04-06T09:00:49.999Z</time></trkpt><trkpt lat="37.06302444818321" lon="15.241891096122663"><ele>11.0</ele><time>2026-04-06T09:00:50.999Z</time></trkpt><trkpt lat="37.06294399014943" lon="15.241680803999007"><ele>11.0</ele><time>2026-04-06T09:00:51.999Z</time></trkpt><trkpt lat="37.06286911370135" lon="15.241464612716678"><ele>11.0</ele><time>2026-04-06T09:00:52.999Z</time></trkpt><trkpt lat="37.06280075083797" lon="15.241244834858195"><ele>10.666666666666666</ele><time>2026-04-06T09:00:53.999Z</time></trkpt><trkpt lat="37.06273573243306" lon="15.241022717784869"><ele>10.333333333333334</ele><time>2026-04-06T09:00:54.999Z</time></trkpt><trkpt lat="37.062665064961415" lon="15.24080033050374"><ele>10.0</ele><time>2026-04-06T09:00:55.999Z</time></trkpt><trkpt lat="37.06258981603691" lon="15.240580852270396"><ele>10.0</ele><time>2026-04-06T09:00:56.999Z</time></trkpt><trkpt lat="37.062515683972414" lon="15.240360141132838"><ele>10.0</ele><time>2026-04-06T09:00:57.999Z</time></trkpt><trkpt lat="37.062444530895895" lon="15.240134603759245"><ele>10.0</ele><time>2026-04-06T09:00:58.999Z</time></trkpt><trkpt lat="37.06237331527916" lon="15.239907842358347"><ele>10.333333333333334</ele><time>2026-04-06T09:00:59.999Z</time></trkpt><trkpt lat="37.0622996707074" lon="15.239680955145344"><ele>10.666666666666666</ele><time>2026-04-06T09:01:00.999Z</time></trkpt><trkpt lat="37.062224099936984" lon="15.239451559440413"><ele>11.0</ele><time>2026-04-06T09:01:01.999Z</time></trkpt><trkpt lat="37.06214959788195" lon="15.239228437928594"><ele>11.0</ele><time>2026-04-06T09:01:02.999Z</time></trkpt><trkpt lat="37.06206964490398" lon="15.2390190567608"><ele>11.0</ele><time>2026-04-06T09:01:03.999Z</time></trkpt><trkpt lat="37.06198956464701" lon="15.238814477466654"><ele>11.0</ele><time>2026-04-06T09:01:04.999Z</time></trkpt><trkpt lat="37.06192549476602" lon="15.238613308339188"><ele>11.0</ele><time>2026-04-06T09:01:05.999Z</time></trkpt><trkpt lat="37.061864868509524" lon="15.238416097763947"><ele>11.0</ele><time>2026-04-06T09:01:06.999Z</time></trkpt><trkpt lat="37.061764986403524" lon="15.238229853457819"><ele>11.0</ele><time>2026-04-06T09:01:07.999Z</time></trkpt><trkpt lat="37.061695654213715" lon="15.238063762530928"><ele>11.0</ele><time>2026-04-06T09:01:08.999Z</time></trkpt><trkpt lat="37.061627643442165" lon="15.237899042154423"><ele>11.0</ele><time>2026-04-06T09:01:09.999Z</time></trkpt><trkpt lat="37.06156122815731" lon="15.237719179980408"><ele>11.0</ele><time>2026-04-06T09:01:10.999Z</time></trkpt><trkpt lat="37.061492972505846" lon="15.237526376902512"><ele>11.0</ele><time>2026-04-06T09:01:11.999Z</time></trkpt><trkpt lat="37.0614331248389" lon="15.2373289731899"><ele>11.0</ele><time>2026-04-06T09:01:12.999Z</time></trkpt><trkpt lat="37.061389038184636" lon="15.237119198227589"><ele>11.0</ele><time>2026-04-06T09:01:13.999Z</time></trkpt><trkpt lat="37.0613443412019" lon="15.236906285581247"><ele>11.0</ele><time>2026-04-06T09:01:14.999Z</time></trkpt><trkpt lat="37.06128997582755" lon="15.236683793877807"><ele>11.0</ele><time>2026-04-06T09:01:15.999Z</time></trkpt><trkpt lat="37.06122646698006" lon="15.236462170408037"><ele>11.0</ele><time>2026-04-06T09:01:16.999Z</time></trkpt><trkpt lat="37.06117060167335" lon="15.236230466620233"><ele>11.0</ele><time>2026-04-06T09:01:17.999Z</time></trkpt><trkpt lat="37.061118126999304" lon="15.23599708794793"><ele>11.0</ele><time>2026-04-06T09:01:18.999Z</time></trkpt><trkpt lat="37.061073029623756" lon="15.235762536151666"><ele>11.0</ele><time>2026-04-06T09:01:19.999Z</time></trkpt><trkpt lat="37.061053224987965" lon="15.235522856003623"><ele>11.0</ele><time>2026-04-06T09:01:20.999Z</time></trkpt><trkpt lat="37.061021489990914" lon="15.235277023874174"><ele>11.0</ele><time>2026-04-06T09:01:21.999Z</time></trkpt><trkpt lat="37.06097099736797" lon="15.235049712677325"><ele>11.0</ele><time>2026-04-06T09:01:22.999Z</time></trkpt><trkpt lat="37.0609289941483" lon="15.234833497613932"><ele>11.333333333333332</ele><time>2026-04-06T09:01:23.999Z</time></trkpt><trkpt lat="37.06086730969158" lon="15.234619807971962"><ele>11.666666666666666</ele><time>2026-04-06T09:01:24.999Z</time></trkpt><trkpt lat="37.060789321223304" lon="15.23441765629258"><ele>12.0</ele><time>2026-04-06T09:01:25.999Z</time></trkpt><trkpt lat="37.06069594674364" lon="15.234227992557564"><ele>12.0</ele><time>2026-04-06T09:01:26.999Z</time></trkpt><trkpt lat="37.060601290317884" lon="15.234033904144743"><ele>12.0</ele><time>2026-04-06T09:01:27.999Z</time></trkpt><trkpt lat="37.06050431703772" lon="15.233831041851952"><ele>12.0</ele><time>2026-04-06T09:01:28.999Z</time></trkpt><trkpt lat="37.06040629992705" lon="15.233625432498641"><ele>12.0</ele><time>2026-04-06T09:01:29.999Z</time></trkpt><trkpt lat="37.06030710228363" lon="15.233409626441306"><ele>12.0</ele><time>2026-04-06T09:01:30.999Z</time></trkpt><trkpt lat="37.0602079256693" lon="15.233197144320915"><ele>12.0</ele><time>2026-04-06T09:01:31.999Z</time></trkpt><trkpt lat="37.06010986837403" lon="15.232983117620629"><ele>12.0</ele><time>2026-04-06T09:01:32.999Z</time></trkpt><trkpt lat="37.06000578034947" lon="15.232766479833538"><ele>12.0</ele><time>2026-04-06T09:01:33.999Z</time></trkpt><trkpt lat="37.05990365127992" lon="15.232548779428152"><ele>12.0</ele><time>2026-04-06T09:01:34.999Z</time></trkpt><trkpt lat="37.059799260192364" lon="15.232330490017793"><ele>12.333333333333332</ele><time>2026-04-06T09:01:35.999Z</time></trkpt><trkpt lat="37.059692572878085" lon="15.232112791824814"><ele>12.666666666666666</ele><time>2026-04-06T09:01:36.999Z</time></trkpt><trkpt lat="37.0595911809284" lon="15.231904797335906"><ele>13.0</ele><time>2026-04-06T09:01:37.999Z</time></trkpt><trkpt lat="37.05949329852533" lon="15.231696553724827"><ele>13.0</ele><time>2026-04-06T09:01:38.999Z</time></trkpt><trkpt lat="37.059378754913155" lon="15.231498751809765"><ele>13.0</ele><time>2026-04-06T09:01:39.999Z</time></trkpt><trkpt lat="37.05923884700741" lon="15.231325395762775"><ele>13.0</ele><time>2026-04-06T09:01:40.999Z</time></trkpt><trkpt lat="37.05908435746017" lon="15.231159890196588"><ele>14.666666666666666</ele><time>2026-04-06T09:01:41.999Z</time></trkpt><trkpt lat="37.05892153313848" lon="15.23100281431695"><ele>16.333333333333332</ele><time>2026-04-06T09:01:42.999Z</time></trkpt><trkpt lat="37.058754492794364" lon="15.230855711593987"><ele>18.0</ele><time>2026-04-06T09:01:43.999Z</time></trkpt><trkpt lat="37.05858226720117" lon="15.230716812846607"><ele>18.333333333333332</ele><time>2026-04-06T09:01:44.999Z</time></trkpt><trkpt lat="37.05841110830322" lon="15.230582272966942"><ele>18.666666666666664</ele><time>2026-04-06T09:01:45.999Z</time></trkpt><trkpt lat="37.05824849720923" lon="15.23044946579391"><ele>19.0</ele><time>2026-04-06T09:01:46.999Z</time></trkpt><trkpt lat="37.058100659688364" lon="15.230322386219887"><ele>19.0</ele><time>2026-04-06T09:01:47.999Z</time></trkpt><trkpt lat="37.05796701591092" lon="15.230199384085642"><ele>19.0</ele><time>2026-04-06T09:01:48.999Z</time></trkpt><trkpt lat="37.05784468271476" lon="15.230075233353366"><ele>19.0</ele><time>2026-04-06T09:01:49.999Z</time></trkpt><trkpt lat="37.057727815943494" lon="15.229945187793627"><ele>17.0</ele><time>2026-04-06T09:01:50.999Z</time></trkpt><trkpt lat="37.05761194683069" lon="15.229801277629866"><ele>15.0</ele><time>2026-04-06T09:01:51.999Z</time></trkpt><trkpt lat="37.05736736573844" lon="15.229477097938057"><ele>14.0</ele><time>2026-04-06T09:01:53.999Z</time></trkpt><trkpt lat="37.05724437139934" lon="15.229310976766579"><ele>13.0</ele><time>2026-04-06T09:01:54.999Z</time></trkpt><trkpt lat="37.05712812138995" lon="15.229147314564742"><ele>12.0</ele><time>2026-04-06T09:01:55.999Z</time></trkpt><trkpt lat="37.05701001369201" lon="15.228985366802842"><ele>11.0</ele><time>2026-04-06T09:01:56.999Z</time></trkpt><trkpt lat="37.0568815054992" lon="15.22882688075112"><ele>10.0</ele><time>2026-04-06T09:01:57.999Z</time></trkpt><trkpt lat="37.05674345824949" lon="15.228675048631308"><ele>9.0</ele><time>2026-04-06T09:01:58.999Z</time></trkpt><trkpt lat="37.05659826254202" lon="15.22853429372671"><ele>9.0</ele><time>2026-04-06T09:01:59.999Z</time></trkpt><trkpt lat="37.05645129794233" lon="15.22839622429931"><ele>9.0</ele><time>2026-04-06T09:02:00.999Z</time></trkpt><trkpt lat="37.05631687606449" lon="15.228254662480325"><ele>9.0</ele><time>2026-04-06T09:02:01.999Z</time></trkpt><trkpt lat="37.05620230748849" lon="15.228116711829326"><ele>8.75</ele><time>2026-04-06T09:02:02.999Z</time></trkpt><trkpt lat="37.05609354434019" lon="15.227985974663362"><ele>8.5</ele><time>2026-04-06T09:02:03.999Z</time></trkpt><trkpt lat="37.05599029108322" lon="15.227868233426145"><ele>8.25</ele><time>2026-04-06T09:02:04.999Z</time></trkpt><trkpt lat="37.05589880042823" lon="15.227772458953043"><ele>8.0</ele><time>2026-04-06T09:02:05.999Z</time></trkpt><trkpt lat="37.05581764055026" lon="15.227689506863758"><ele>7.833333333333333</ele><time>2026-04-06T09:02:06.999Z</time></trkpt><trkpt lat="37.05575208040055" lon="15.22762169063262"><ele>7.666666666666666</ele><time>2026-04-06T09:02:07.999Z</time></trkpt><trkpt lat="37.05569992372073" lon="15.227557926130226"><ele>7.5</ele><time>2026-04-06T09:02:08.999Z</time></trkpt><trkpt lat="37.05566124105443" lon="15.227495657868996"><ele>7.333333333333334</ele><time>2026-04-06T09:02:09.999Z</time></trkpt><trkpt lat="37.05563147438938" lon="15.227415508889703"><ele>7.166666666666667</ele><time>2026-04-06T09:02:10.999Z</time></trkpt><trkpt lat="37.05559867672505" lon="15.227314566008872"><ele>7.0</ele><time>2026-04-06T09:02:11.999Z</time></trkpt><trkpt lat="37.055556367790246" lon="15.22719921588302"><ele>8.25</ele><time>2026-04-06T09:02:12.999Z</time></trkpt><trkpt lat="37.05550492862492" lon="15.227078481355589"><ele>9.5</ele><time>2026-04-06T09:02:13.999Z</time></trkpt><trkpt lat="37.05540922871598" lon="15.227003697808186"><ele>10.75</ele><time>2026-04-06T09:02:14.999Z</time></trkpt><trkpt lat="37.05542257711537" lon="15.226786823159031"><ele>12.0</ele><time>2026-04-06T09:02:15.999Z</time></trkpt><trkpt lat="37.055411305045254" lon="15.226615331015706"><ele>11.5</ele><time>2026-04-06T09:02:16.999Z</time></trkpt><trkpt lat="37.05540997385706" lon="15.22645000679599"><ele>11.0</ele><time>2026-04-06T09:02:17.999Z</time></trkpt><trkpt lat="37.05538643107572" lon="15.226274032006524"><ele>10.5</ele><time>2026-04-06T09:02:18.999Z</time></trkpt><trkpt lat="37.05533788603945" lon="15.226104741958965"><ele>10.0</ele><time>2026-04-06T09:02:19.999Z</time></trkpt><trkpt lat="37.05526166623821" lon="15.22592659320818"><ele>10.0</ele><time>2026-04-06T09:02:20.999Z</time></trkpt><trkpt lat="37.05518034642748" lon="15.2257449365316"><ele>10.0</ele><time>2026-04-06T09:02:21.999Z</time></trkpt><trkpt lat="37.055101461401875" lon="15.225565738931566"><ele>10.0</ele><time>2026-04-06T09:02:22.999Z</time></trkpt><trkpt lat="37.05502404446128" lon="15.225383732422689"><ele>10.666666666666668</ele><time>2026-04-06T09:02:23.999Z</time></trkpt><trkpt lat="37.05494789178346" lon="15.225201741014516"><ele>11.333333333333334</ele><time>2026-04-06T09:02:24.999Z</time></trkpt><trkpt lat="37.05487748587046" lon="15.22502114199415"><ele>12.0</ele><time>2026-04-06T09:02:25.999Z</time></trkpt><trkpt lat="37.05481048203679" lon="15.224851944308794"><ele>12.0</ele><time>2026-04-06T09:02:26.999Z</time></trkpt><trkpt lat="37.054745351672274" lon="15.224680947659223"><ele>12.0</ele><time>2026-04-06T09:02:27.999Z</time></trkpt><trkpt lat="37.05468215367525" lon="15.224520910341525"><ele>12.0</ele><time>2026-04-06T09:02:28.999Z</time></trkpt><trkpt lat="37.05461446120808" lon="15.224378158367442"><ele>12.0</ele><time>2026-04-06T09:02:29.999Z</time></trkpt><trkpt lat="37.054539736411535" lon="15.224251724155636"><ele>12.0</ele><time>2026-04-06T09:02:30.999Z</time></trkpt><trkpt lat="37.05446893439953" lon="15.224143376115059"><ele>12.0</ele><time>2026-04-06T09:02:31.999Z</time></trkpt><trkpt lat="37.054419355409124" lon="15.224051250281622"><ele>12.0</ele><time>2026-04-06T09:02:32.999Z</time></trkpt><trkpt lat="37.0543947203318" lon="15.223974138375768"><ele>12.0</ele><time>2026-04-06T09:02:33.999Z</time></trkpt><trkpt lat="37.05438191890504" lon="15.223864133055105"><ele>12.0</ele><time>2026-04-06T09:02:35.999Z</time></trkpt><trkpt lat="37.05436811622326" lon="15.223759256347645"><ele>12.0</ele><time>2026-04-06T09:02:37.999Z</time></trkpt><trkpt lat="37.05430006043771" lon="15.223620527342987"><ele>11.6</ele><time>2026-04-06T09:02:39.999Z</time></trkpt><trkpt lat="37.05425353235076" lon="15.223539731984273"><ele>11.2</ele><time>2026-04-06T09:02:40.999Z</time></trkpt><trkpt lat="37.05417373845817" lon="15.223502329319984"><ele>10.8</ele><time>2026-04-06T09:02:41.999Z</time></trkpt><trkpt lat="37.0541715907676" lon="15.22331832040242"><ele>10.4</ele><time>2026-04-06T09:02:42.999Z</time></trkpt><trkpt lat="37.05415458372865" lon="15.223182260726848"><ele>10.0</ele><time>2026-04-06T09:02:43.999Z</time></trkpt><trkpt lat="37.05415398596004" lon="15.223046785525074"><ele>10.0</ele><time>2026-04-06T09:02:44.999Z</time></trkpt><trkpt lat="37.05414283866012" lon="15.222905484269722"><ele>10.0</ele><time>2026-04-06T09:02:45.999Z</time></trkpt><trkpt lat="37.0541273512159" lon="15.222755526673748"><ele>10.0</ele><time>2026-04-06T09:02:46.999Z</time></trkpt><trkpt lat="37.05410556313422" lon="15.22260059810843"><ele>10.0</ele><time>2026-04-06T09:02:47.999Z</time></trkpt><trkpt lat="37.05406830321792" lon="15.222441714050579"><ele>10.75</ele><time>2026-04-06T09:02:48.999Z</time></trkpt><trkpt lat="37.05401870745156" lon="15.222285996817131"><ele>11.5</ele><time>2026-04-06T09:02:49.999Z</time></trkpt><trkpt lat="37.053969169385454" lon="15.222134252938357"><ele>12.25</ele><time>2026-04-06T09:02:50.999Z</time></trkpt><trkpt lat="37.05391657624368" lon="15.221993193010526"><ele>13.0</ele><time>2026-04-06T09:02:51.999Z</time></trkpt><trkpt lat="37.05385930660073" lon="15.221863346258647"><ele>13.0</ele><time>2026-04-06T09:02:52.999Z</time></trkpt><trkpt lat="37.05379796124333" lon="15.221736287880825"><ele>13.0</ele><time>2026-04-06T09:02:53.999Z</time></trkpt><trkpt lat="37.05373340056854" lon="15.221607070417246"><ele>13.0</ele><time>2026-04-06T09:02:54.999Z</time></trkpt><trkpt lat="37.05366660168085" lon="15.22147226958684"><ele>13.0</ele><time>2026-04-06T09:02:55.999Z</time></trkpt><trkpt lat="37.05360191780258" lon="15.221332462853637"><ele>13.0</ele><time>2026-04-06T09:02:56.999Z</time></trkpt><trkpt lat="37.053536507874426" lon="15.221187928964914"><ele>13.0</ele><time>2026-04-06T09:02:57.999Z</time></trkpt><trkpt lat="37.053466611271006" lon="15.221039125651636"><ele>13.0</ele><time>2026-04-06T09:02:58.999Z</time></trkpt><trkpt lat="37.05339036465564" lon="15.220887958695734"><ele>13.0</ele><time>2026-04-06T09:02:59.999Z</time></trkpt><trkpt lat="37.053307933903206" lon="15.220736793768197"><ele>15.0</ele><time>2026-04-06T09:03:00.999Z</time></trkpt><trkpt lat="37.05321609989217" lon="15.220588906100375"><ele>17.0</ele><time>2026-04-06T09:03:01.999Z</time></trkpt><trkpt lat="37.05311659448837" lon="15.2204450698025"><ele>19.0</ele><time>2026-04-06T09:03:02.999Z</time></trkpt><trkpt lat="37.05302523214587" lon="15.220307625637389"><ele>21.0</ele><time>2026-04-06T09:03:03.999Z</time></trkpt><trkpt lat="37.052942126709574" lon="15.220176707569095"><ele>21.0</ele><time>2026-04-06T09:03:04.999Z</time></trkpt><trkpt lat="37.05286035392804" lon="15.220051459105596"><ele>21.0</ele><time>2026-04-06T09:03:05.999Z</time></trkpt><trkpt lat="37.05276958332403" lon="15.219927615873686"><ele>21.0</ele><time>2026-04-06T09:03:06.999Z</time></trkpt><trkpt lat="37.05266757302931" lon="15.21980571739154"><ele>21.0</ele><time>2026-04-06T09:03:07.999Z</time></trkpt><trkpt lat="37.05256495952101" lon="15.21968467705444"><ele>21.25</ele><time>2026-04-06T09:03:08.999Z</time></trkpt><trkpt lat="37.05246728729918" lon="15.219554265545302"><ele>21.5</ele><time>2026-04-06T09:03:09.999Z</time></trkpt><trkpt lat="37.052368246271506" lon="15.219416228612973"><ele>21.75</ele><time>2026-04-06T09:03:10.999Z</time></trkpt><trkpt lat="37.05226693277413" lon="15.219273727943545"><ele>22.0</ele><time>2026-04-06T09:03:11.999Z</time></trkpt><trkpt lat="37.05216140660356" lon="15.219130051888367"><ele>25.0</ele><time>2026-04-06T09:03:12.999Z</time></trkpt><trkpt lat="37.0520552188871" lon="15.218980882133165"><ele>28.0</ele><time>2026-04-06T09:03:13.998Z</time></trkpt><trkpt lat="37.051955185873425" lon="15.218823590991757"><ele>31.0</ele><time>2026-04-06T09:03:14.998Z</time></trkpt><trkpt lat="37.05185702088295" lon="15.218658694608235"><ele>31.0</ele><time>2026-04-06T09:03:15.998Z</time></trkpt><trkpt lat="37.051759413984705" lon="15.218493587676381"><ele>31.0</ele><time>2026-04-06T09:03:16.998Z</time></trkpt><trkpt lat="37.05166419543956" lon="15.218319814291894"><ele>31.0</ele><time>2026-04-06T09:03:17.998Z</time></trkpt><trkpt lat="37.051573885429335" lon="15.218139271959444"><ele>32.66666666666667</ele><time>2026-04-06T09:03:18.998Z</time></trkpt><trkpt lat="37.05149250274903" lon="15.217953835482026"><ele>34.333333333333336</ele><time>2026-04-06T09:03:19.998Z</time></trkpt><trkpt lat="37.051413975591636" lon="15.217763108903018"><ele>36.0</ele><time>2026-04-06T09:03:20.998Z</time></trkpt><trkpt lat="37.05133905848801" lon="15.217570600717474"><ele>36.0</ele><time>2026-04-06T09:03:21.998Z</time></trkpt><trkpt lat="37.05126827247744" lon="15.217374737051538"><ele>36.0</ele><time>2026-04-06T09:03:22.998Z</time></trkpt><trkpt lat="37.05120407076596" lon="15.217176582118256"><ele>36.0</ele><time>2026-04-06T09:03:23.998Z</time></trkpt><trkpt lat="37.05114277209933" lon="15.216973831230161"><ele>36.666666666666664</ele><time>2026-04-06T09:03:24.998Z</time></trkpt><trkpt lat="37.05108685996854" lon="15.216770508462892"><ele>37.33333333333333</ele><time>2026-04-06T09:03:25.998Z</time></trkpt><trkpt lat="37.05103578285124" lon="15.216562827531018"><ele>38.0</ele><time>2026-04-06T09:03:26.998Z</time></trkpt><trkpt lat="37.05098527560113" lon="15.216358572358908"><ele>38.0</ele><time>2026-04-06T09:03:27.998Z</time></trkpt><trkpt lat="37.050934832682" lon="15.216152362355755"><ele>38.0</ele><time>2026-04-06T09:03:28.998Z</time></trkpt><trkpt lat="37.050886983397824" lon="15.215949526323266"><ele>38.0</ele><time>2026-04-06T09:03:29.998Z</time></trkpt><trkpt lat="37.05083770799984" lon="15.215747470395094"><ele>38.666666666666664</ele><time>2026-04-06T09:03:30.998Z</time></trkpt><trkpt lat="37.050785155269935" lon="15.215548705216689"><ele>39.333333333333336</ele><time>2026-04-06T09:03:31.998Z</time></trkpt><trkpt lat="37.05072601866973" lon="15.215357591862233"><ele>40.0</ele><time>2026-04-06T09:03:32.998Z</time></trkpt><trkpt lat="37.050664778439284" lon="15.215181999291378"><ele>40.0</ele><time>2026-04-06T09:03:33.998Z</time></trkpt><trkpt lat="37.05060390936888" lon="15.215024165556457"><ele>40.0</ele><time>2026-04-06T09:03:34.998Z</time></trkpt><trkpt lat="37.050542720071604" lon="15.214879091652772"><ele>40.0</ele><time>2026-04-06T09:03:35.998Z</time></trkpt><trkpt lat="37.05048682271471" lon="15.214739823140947"><ele>40.0</ele><time>2026-04-06T09:03:36.998Z</time></trkpt><trkpt lat="37.05044034704625" lon="15.21460426994708"><ele>40.2</ele><time>2026-04-06T09:03:37.998Z</time></trkpt><trkpt lat="37.05040322104271" lon="15.214470896450273"><ele>40.4</ele><time>2026-04-06T09:03:38.998Z</time></trkpt><trkpt lat="37.05038258565162" lon="15.214349975912516"><ele>40.599999999999994</ele><time>2026-04-06T09:03:39.998Z</time></trkpt><trkpt lat="37.05037605559585" lon="15.214242964205575"><ele>40.8</ele><time>2026-04-06T09:03:40.999Z</time></trkpt><trkpt lat="37.050367348576586" lon="15.214147887117427"><ele>41.0</ele><time>2026-04-06T09:03:41.999Z</time></trkpt><trkpt lat="37.050332182914985" lon="15.214058217904023"><ele>41.0</ele><time>2026-04-06T09:03:42.999Z</time></trkpt><trkpt lat="37.05025252403961" lon="15.214007570608354"><ele>41.0</ele><time>2026-04-06T09:03:43.999Z</time></trkpt><trkpt lat="37.05015513765417" lon="15.213957764971065"><ele>41.0</ele><time>2026-04-06T09:03:44.999Z</time></trkpt><trkpt lat="37.0500468059576" lon="15.21387460557678"><ele>41.0</ele><time>2026-04-06T09:03:45.999Z</time></trkpt><trkpt lat="37.04994602129246" lon="15.213753990400095"><ele>40.666666666666664</ele><time>2026-04-06T09:03:46.999Z</time></trkpt><trkpt lat="37.049844324423894" lon="15.213615703131294"><ele>40.333333333333336</ele><time>2026-04-06T09:03:47.999Z</time></trkpt><trkpt lat="37.04973691914588" lon="15.213465166685326"><ele>40.0</ele><time>2026-04-06T09:03:48.999Z</time></trkpt><trkpt lat="37.04962534428448" lon="15.213312235175763"><ele>40.0</ele><time>2026-04-06T09:03:49.999Z</time></trkpt><trkpt lat="37.049518109491466" lon="15.213170822265734"><ele>40.0</ele><time>2026-04-06T09:03:50.999Z</time></trkpt><trkpt lat="37.04940619702901" lon="15.213021972124563"><ele>40.0</ele><time>2026-04-06T09:03:51.999Z</time></trkpt><trkpt lat="37.04928739980353" lon="15.212869811223758"><ele>40.0</ele><time>2026-04-06T09:03:52.999Z</time></trkpt><trkpt lat="37.04916275052602" lon="15.212716179724291"><ele>40.0</ele><time>2026-04-06T09:03:53.999Z</time></trkpt><trkpt lat="37.049031970427535" lon="15.212560532029737"><ele>40.0</ele><time>2026-04-06T09:03:54.999Z</time></trkpt><trkpt lat="37.04889797025191" lon="15.212403324639778"><ele>40.333333333333336</ele><time>2026-04-06T09:03:55.999Z</time></trkpt><trkpt lat="37.048762914115244" lon="15.212242744677404"><ele>40.666666666666664</ele><time>2026-04-06T09:03:56.999Z</time></trkpt><trkpt lat="37.048630236834164" lon="15.212076153879549"><ele>41.0</ele><time>2026-04-06T09:03:57.999Z</time></trkpt><trkpt lat="37.048495584094894" lon="15.211905962404396"><ele>41.0</ele><time>2026-04-06T09:03:58.999Z</time></trkpt><trkpt lat="37.04836094883704" lon="15.211738579330905"><ele>41.0</ele><time>2026-04-06T09:03:59.999Z</time></trkpt><trkpt lat="37.048228809161955" lon="15.211574788975605"><ele>41.0</ele><time>2026-04-06T09:04:00.999Z</time></trkpt><trkpt lat="37.048107332749886" lon="15.211422809492047"><ele>41.0</ele><time>2026-04-06T09:04:01.999Z</time></trkpt><trkpt lat="37.047998584538796" lon="15.211283258145922"><ele>41.0</ele><time>2026-04-06T09:04:02.999Z</time></trkpt><trkpt lat="37.04790054806944" lon="15.211153414422022"><ele>41.0</ele><time>2026-04-06T09:04:03.999Z</time></trkpt><trkpt lat="37.04779990506989" lon="15.211027846296727"><ele>41.0</ele><time>2026-04-06T09:04:04.999Z</time></trkpt><trkpt lat="37.047709961925904" lon="15.210935115091186"><ele>41.0</ele><time>2026-04-06T09:04:05.999Z</time></trkpt><trkpt lat="37.047625920900266" lon="15.210835669532441"><ele>41.0</ele><time>2026-04-06T09:04:06.999Z</time></trkpt><trkpt lat="37.04754498305196" lon="15.210740926725395"><ele>41.0</ele><time>2026-04-06T09:04:07.999Z</time></trkpt><trkpt lat="37.047467677154046" lon="15.210645696887616"><ele>41.0</ele><time>2026-04-06T09:04:08.999Z</time></trkpt><trkpt lat="37.047395901193845" lon="15.21056172375171"><ele>41.0</ele><time>2026-04-06T09:04:09.999Z</time></trkpt><trkpt lat="37.047321274374134" lon="15.210484363149876"><ele>41.166666666666664</ele><time>2026-04-06T09:04:10.999Z</time></trkpt><trkpt lat="37.04725239004233" lon="15.210412190479602"><ele>41.33333333333333</ele><time>2026-04-06T09:04:11.999Z</time></trkpt><trkpt lat="37.04719317475128" lon="15.210344101940308"><ele>41.5</ele><time>2026-04-06T09:04:12.999Z</time></trkpt><trkpt lat="37.04715187001426" lon="15.210221871313252"><ele>41.666666666666664</ele><time>2026-04-06T09:04:14.999Z</time></trkpt><trkpt lat="37.047122776638076" lon="15.210151502227006"><ele>41.833333333333336</ele><time>2026-04-06T09:04:18.999Z</time></trkpt><trkpt lat="37.04711635043768" lon="15.210248145013889"><ele>42.0</ele><time>2026-04-06T09:04:23.999Z</time></trkpt><trkpt lat="37.04718985627022" lon="15.21040658863589"><ele>42.0</ele><time>2026-04-06T09:04:25.999Z</time></trkpt><trkpt lat="37.04724684489899" lon="15.210502244169136"><ele>42.0</ele><time>2026-04-06T09:04:26.999Z</time></trkpt><trkpt lat="37.04731774946588" lon="15.210577734898363"><ele>42.0</ele><time>2026-04-06T09:04:27.999Z</time></trkpt><trkpt lat="37.047393377900356" lon="15.210667513438073"><ele>42.0</ele><time>2026-04-06T09:04:28.999Z</time></trkpt><trkpt lat="37.04747443075089" lon="15.210757230878047"><ele>42.0</ele><time>2026-04-06T09:04:29.999Z</time></trkpt><trkpt lat="37.04755583766252" lon="15.210845437942488"><ele>41.8</ele><time>2026-04-06T09:04:30.999Z</time></trkpt><trkpt lat="37.0476408986853" lon="15.210944501951941"><ele>41.6</ele><time>2026-04-06T09:04:31.999Z</time></trkpt><trkpt lat="37.04772712577163" lon="15.211051077249746"><ele>41.4</ele><time>2026-04-06T09:04:32.999Z</time></trkpt><trkpt lat="37.047808146046854" lon="15.21114787751197"><ele>41.199999999999996</ele><time>2026-04-06T09:04:33.999Z</time></trkpt><trkpt lat="37.04787955803727" lon="15.211231233824693"><ele>41.0</ele><time>2026-04-06T09:04:34.999Z</time></trkpt><trkpt lat="37.04794437450996" lon="15.211309972980429"><ele>41.0</ele><time>2026-04-06T09:04:35.999Z</time></trkpt><trkpt lat="37.04799913924455" lon="15.211377861281058"><ele>41.0</ele><time>2026-04-06T09:04:36.999Z</time></trkpt><trkpt lat="37.04807444787036" lon="15.211473748858921"><ele>41.0</ele><time>2026-04-06T09:04:38.999Z</time></trkpt><trkpt lat="37.04807267838553" lon="15.211562743434033"><ele>41.0</ele><time>2026-04-06T09:04:41.999Z</time></trkpt><trkpt lat="37.048016948505165" lon="15.211639168380744"><ele>41.0</ele><time>2026-04-06T09:04:42.999Z</time></trkpt><trkpt lat="37.04795493138438" lon="15.211664715097125"><ele>41.0</ele><time>2026-04-06T09:04:43.999Z</time></trkpt><trkpt lat="37.04789374225136" lon="15.211727457999125"><ele>41.0</ele><time>2026-04-06T09:04:44.999Z</time></trkpt><trkpt lat="37.04780622876604" lon="15.211763668802215"><ele>41.0</ele><time>2026-04-06T09:04:45.999Z</time></trkpt><trkpt lat="37.04770156936041" lon="15.211793159944603"><ele>41.0</ele><time>2026-04-06T09:04:46.999Z</time></trkpt><trkpt lat="37.04760155481244" lon="15.211812294219873"><ele>41.0</ele><time>2026-04-06T09:04:47.999Z</time></trkpt><trkpt lat="37.04749596970593" lon="15.211822580534536"><ele>41.0</ele><time>2026-04-06T09:04:48.999Z</time></trkpt><trkpt lat="37.047382771253176" lon="15.211838092621145"><ele>41.0</ele><time>2026-04-06T09:04:49.999Z</time></trkpt><trkpt lat="37.04726474153455" lon="15.211862542939192"><ele>41.0</ele><time>2026-04-06T09:04:50.999Z</time></trkpt><trkpt lat="37.04714878018717" lon="15.211882690239172"><ele>41.0</ele><time>2026-04-06T09:04:51.999Z</time></trkpt><trkpt lat="37.0470252021937" lon="15.211902199886682"><ele>41.0</ele><time>2026-04-06T09:04:52.999Z</time></trkpt><trkpt lat="37.04689418861277" lon="15.211925678514541"><ele>41.0</ele><time>2026-04-06T09:04:53.999Z</time></trkpt><trkpt lat="37.046762464962185" lon="15.211953342692421"><ele>41.0</ele><time>2026-04-06T09:04:54.999Z</time></trkpt><trkpt lat="37.0466390184768" lon="15.211982695375628"><ele>41.0</ele><time>2026-04-06T09:04:55.999Z</time></trkpt><trkpt lat="37.046506928812825" lon="15.212019282341117"><ele>41.0</ele><time>2026-04-06T09:04:56.999Z</time></trkpt><trkpt lat="37.046372854356555" lon="15.212059066597986"><ele>40.75</ele><time>2026-04-06T09:04:57.999Z</time></trkpt><trkpt lat="37.046248429866644" lon="15.212097357364833"><ele>40.5</ele><time>2026-04-06T09:04:58.999Z</time></trkpt><trkpt lat="37.046133402450394" lon="15.212127696925702"><ele>40.25</ele><time>2026-04-06T09:04:59.999Z</time></trkpt><trkpt lat="37.04601505458236" lon="15.212138798088665"><ele>40.0</ele><time>2026-04-06T09:05:00.999Z</time></trkpt><trkpt lat="37.045883826783346" lon="15.212132785782254"><ele>39.5</ele><time>2026-04-06T09:05:01.999Z</time></trkpt><trkpt lat="37.04574059864776" lon="15.212110651621664"><ele>39.0</ele><time>2026-04-06T09:05:02.999Z</time></trkpt><trkpt lat="37.04559456978574" lon="15.212092796649157"><ele>38.5</ele><time>2026-04-06T09:05:03.999Z</time></trkpt><trkpt lat="37.04544475996172" lon="15.212077574420308"><ele>38.0</ele><time>2026-04-06T09:05:04.999Z</time></trkpt><trkpt lat="37.04529449026608" lon="15.212059054501047"><ele>38.0</ele><time>2026-04-06T09:05:05.999Z</time></trkpt><trkpt lat="37.04514369250903" lon="15.212040185195352"><ele>38.0</ele><time>2026-04-06T09:05:06.999Z</time></trkpt><trkpt lat="37.04499108902753" lon="15.212025566301834"><ele>38.0</ele><time>2026-04-06T09:05:07.999Z</time></trkpt><trkpt lat="37.04483739766525" lon="15.212014528533793"><ele>38.33333333333333</ele><time>2026-04-06T09:05:08.999Z</time></trkpt><trkpt lat="37.04468194955491" lon="15.211995093217359"><ele>38.666666666666664</ele><time>2026-04-06T09:05:09.999Z</time></trkpt><trkpt lat="37.044519963472695" lon="15.211957399803122"><ele>39.0</ele><time>2026-04-06T09:05:10.999Z</time></trkpt><trkpt lat="37.04435706284035" lon="15.211916499298862"><ele>39.0</ele><time>2026-04-06T09:05:11.999Z</time></trkpt><trkpt lat="37.04420265169997" lon="15.2118758179495"><ele>39.0</ele><time>2026-04-06T09:05:12.999Z</time></trkpt><trkpt lat="37.04405493166285" lon="15.211842130856892"><ele>39.0</ele><time>2026-04-06T09:05:13.999Z</time></trkpt><trkpt lat="37.04390640725999" lon="15.211812577467148"><ele>39.0</ele><time>2026-04-06T09:05:14.999Z</time></trkpt><trkpt lat="37.04375656607309" lon="15.211780083422035"><ele>39.0</ele><time>2026-04-06T09:05:15.999Z</time></trkpt><trkpt lat="37.04360635272494" lon="15.21174502752013"><ele>39.0</ele><time>2026-04-06T09:05:16.999Z</time></trkpt><trkpt lat="37.04345230262603" lon="15.211717172273918"><ele>38.333333333333336</ele><time>2026-04-06T09:05:17.999Z</time></trkpt><trkpt lat="37.04329565252074" lon="15.211699199778545"><ele>37.66666666666667</ele><time>2026-04-06T09:05:18.999Z</time></trkpt><trkpt lat="37.043132234560744" lon="15.211692171314471"><ele>37.0</ele><time>2026-04-06T09:05:19.999Z</time></trkpt><trkpt lat="37.042966172731866" lon="15.211688346064413"><ele>37.0</ele><time>2026-04-06T09:05:20.999Z</time></trkpt><trkpt lat="37.042801794793746" lon="15.211680154209295"><ele>37.0</ele><time>2026-04-06T09:05:21.999Z</time></trkpt><trkpt lat="37.042642609104526" lon="15.211670750653422"><ele>37.0</ele><time>2026-04-06T09:05:22.999Z</time></trkpt><trkpt lat="37.04249064324004" lon="15.211663020120099"><ele>36.0</ele><time>2026-04-06T09:05:23.999Z</time></trkpt><trkpt lat="37.04234177061705" lon="15.211656525583704"><ele>35.0</ele><time>2026-04-06T09:05:24.999Z</time></trkpt><trkpt lat="37.04219341356989" lon="15.211649715216982"><ele>34.0</ele><time>2026-04-06T09:05:25.999Z</time></trkpt><trkpt lat="37.04204224215002" lon="15.21164668697894"><ele>33.0</ele><time>2026-04-06T09:05:26.999Z</time></trkpt><trkpt lat="37.04188593615039" lon="15.211647400074792"><ele>33.0</ele><time>2026-04-06T09:05:27.999Z</time></trkpt><trkpt lat="37.041728222237104" lon="15.211645969609007"><ele>33.0</ele><time>2026-04-06T09:05:28.998Z</time></trkpt><trkpt lat="37.041569083155395" lon="15.211643984089944"><ele>33.0</ele><time>2026-04-06T09:05:29.998Z</time></trkpt><trkpt lat="37.04141408463603" lon="15.211641854328228"><ele>32.0</ele><time>2026-04-06T09:05:30.998Z</time></trkpt><trkpt lat="37.041261930278175" lon="15.211638775416416"><ele>31.0</ele><time>2026-04-06T09:05:31.998Z</time></trkpt><trkpt lat="37.0411140059581" lon="15.211633854017405"><ele>30.0</ele><time>2026-04-06T09:05:32.998Z</time></trkpt><trkpt lat="37.040965251617195" lon="15.211626057153184"><ele>29.0</ele><time>2026-04-06T09:05:33.998Z</time></trkpt><trkpt lat="37.04081403673298" lon="15.211612374544647"><ele>29.0</ele><time>2026-04-06T09:05:34.998Z</time></trkpt><trkpt lat="37.040658962977126" lon="15.211589711557457"><ele>29.0</ele><time>2026-04-06T09:05:35.998Z</time></trkpt><trkpt lat="37.040502302219004" lon="15.2115645280584"><ele>29.0</ele><time>2026-04-06T09:05:36.998Z</time></trkpt><trkpt lat="37.040349365213416" lon="15.211542470827647"><ele>29.0</ele><time>2026-04-06T09:05:37.998Z</time></trkpt><trkpt lat="37.040202161491194" lon="15.211524271669973"><ele>29.0</ele><time>2026-04-06T09:05:38.998Z</time></trkpt><trkpt lat="37.04005835597045" lon="15.21150416592131"><ele>29.0</ele><time>2026-04-06T09:05:39.998Z</time></trkpt><trkpt lat="37.039921245927474" lon="15.211485197982228"><ele>29.0</ele><time>2026-04-06T09:05:40.998Z</time></trkpt><trkpt lat="37.03979140918708" lon="15.21147059303667"><ele>29.0</ele><time>2026-04-06T09:05:41.998Z</time></trkpt><trkpt lat="37.03967090775334" lon="15.211451385391749"><ele>29.0</ele><time>2026-04-06T09:05:42.998Z</time></trkpt><trkpt lat="37.039558322077916" lon="15.211432486450807"><ele>29.0</ele><time>2026-04-06T09:05:43.998Z</time></trkpt><trkpt lat="37.039450670077976" lon="15.211421832480072"><ele>29.0</ele><time>2026-04-06T09:05:44.998Z</time></trkpt><trkpt lat="37.03935015953046" lon="15.211415764609962"><ele>29.0</ele><time>2026-04-06T09:05:45.998Z</time></trkpt><trkpt lat="37.03925799747967" lon="15.211403559292238"><ele>29.0</ele><time>2026-04-06T09:05:46.999Z</time></trkpt><trkpt lat="37.03915337202168" lon="15.211393419003937"><ele>29.0</ele><time>2026-04-06T09:05:47.999Z</time></trkpt><trkpt lat="37.03904438466062" lon="15.211400053509497"><ele>29.0</ele><time>2026-04-06T09:05:48.999Z</time></trkpt><trkpt lat="37.03892963573315" lon="15.211439962330314"><ele>29.0</ele><time>2026-04-06T09:05:49.999Z</time></trkpt><trkpt lat="37.03881591570337" lon="15.2114991629963"><ele>30.25</ele><time>2026-04-06T09:05:50.999Z</time></trkpt><trkpt lat="37.03869990624916" lon="15.211542646138902"><ele>31.5</ele><time>2026-04-06T09:05:51.999Z</time></trkpt><trkpt lat="37.03858129341513" lon="15.211583626964709"><ele>32.75</ele><time>2026-04-06T09:05:52.999Z</time></trkpt><trkpt lat="37.03845729800387" lon="15.211621960624955"><ele>34.0</ele><time>2026-04-06T09:05:53.999Z</time></trkpt><trkpt lat="37.038320799782504" lon="15.211640443907006"><ele>33.5</ele><time>2026-04-06T09:05:54.999Z</time></trkpt><trkpt lat="37.03817369964206" lon="15.211654085936631"><ele>33.0</ele><time>2026-04-06T09:05:55.999Z</time></trkpt><trkpt lat="37.038023056655916" lon="15.211662937817357"><ele>32.5</ele><time>2026-04-06T09:05:56.999Z</time></trkpt><trkpt lat="37.037879752090504" lon="15.211673646523348"><ele>32.0</ele><time>2026-04-06T09:05:57.999Z</time></trkpt><trkpt lat="37.03774286327664" lon="15.211687179303983"><ele>32.0</ele><time>2026-04-06T09:05:58.999Z</time></trkpt><trkpt lat="37.0376100570067" lon="15.211699537394889"><ele>32.0</ele><time>2026-04-06T09:05:59.999Z</time></trkpt><trkpt lat="37.03747494884393" lon="15.211710485100802"><ele>32.0</ele><time>2026-04-06T09:06:00.999Z</time></trkpt><trkpt lat="37.03734355796673" lon="15.211716144882704"><ele>32.0</ele><time>2026-04-06T09:06:01.999Z</time></trkpt><trkpt lat="37.03721505598668" lon="15.21171719000011"><ele>32.5</ele><time>2026-04-06T09:06:02.999Z</time></trkpt><trkpt lat="37.037098869961405" lon="15.211715709508"><ele>33.0</ele><time>2026-04-06T09:06:03.999Z</time></trkpt><trkpt lat="37.03698642014057" lon="15.211665455385047"><ele>33.5</ele><time>2026-04-06T09:06:04.999Z</time></trkpt><trkpt lat="37.03685195583361" lon="15.211622736829282"><ele>34.0</ele><time>2026-04-06T09:06:05.999Z</time></trkpt><trkpt lat="37.03672315580347" lon="15.211579500249261"><ele>34.0</ele><time>2026-04-06T09:06:06.999Z</time></trkpt><trkpt lat="37.03660240425463" lon="15.211554090273536"><ele>34.0</ele><time>2026-04-06T09:06:07.999Z</time></trkpt><trkpt lat="37.036492939294845" lon="15.211508716312968"><ele>34.0</ele><time>2026-04-06T09:06:08.999Z</time></trkpt><trkpt lat="37.036384613641815" lon="15.211472938183299"><ele>34.0</ele><time>2026-04-06T09:06:09.999Z</time></trkpt><trkpt lat="37.03628483402373" lon="15.211413354402373"><ele>34.0</ele><time>2026-04-06T09:06:10.999Z</time></trkpt><trkpt lat="37.03618158587087" lon="15.21136007781558"><ele>34.0</ele><time>2026-04-06T09:06:11.999Z</time></trkpt><trkpt lat="37.036071606199805" lon="15.21129685870296"><ele>34.0</ele><time>2026-04-06T09:06:12.999Z</time></trkpt><trkpt lat="37.03595012463296" lon="15.211237170549342"><ele>34.0</ele><time>2026-04-06T09:06:13.999Z</time></trkpt><trkpt lat="37.03583061338727" lon="15.21115533135895"><ele>33.75</ele><time>2026-04-06T09:06:14.999Z</time></trkpt><trkpt lat="37.035703502479" lon="15.211078038438119"><ele>33.5</ele><time>2026-04-06T09:06:15.999Z</time></trkpt><trkpt lat="37.035568386585624" lon="15.210999228624344"><ele>33.25</ele><time>2026-04-06T09:06:16.999Z</time></trkpt><trkpt lat="37.035433601744636" lon="15.210916920477295"><ele>33.0</ele><time>2026-04-06T09:06:17.999Z</time></trkpt><trkpt lat="37.03529573917553" lon="15.210831274623043"><ele>33.0</ele><time>2026-04-06T09:06:18.999Z</time></trkpt><trkpt lat="37.035164106983856" lon="15.210728576091073"><ele>33.0</ele><time>2026-04-06T09:06:19.999Z</time></trkpt><trkpt lat="37.0350287899587" lon="15.210640710226158"><ele>33.0</ele><time>2026-04-06T09:06:20.999Z</time></trkpt><trkpt lat="37.03488476891387" lon="15.210568735838637"><ele>33.0</ele><time>2026-04-06T09:06:21.999Z</time></trkpt><trkpt lat="37.03475115055078" lon="15.210479020813581"><ele>33.0</ele><time>2026-04-06T09:06:22.999Z</time></trkpt><trkpt lat="37.034620561599645" lon="15.210392534435714"><ele>33.0</ele><time>2026-04-06T09:06:23.999Z</time></trkpt><trkpt lat="37.034487207364656" lon="15.210309931500507"><ele>33.0</ele><time>2026-04-06T09:06:24.999Z</time></trkpt><trkpt lat="37.03435338108158" lon="15.21023529200542"><ele>33.0</ele><time>2026-04-06T09:06:25.999Z</time></trkpt><trkpt lat="37.03422614920491" lon="15.210133637960194"><ele>33.0</ele><time>2026-04-06T09:06:26.999Z</time></trkpt><trkpt lat="37.03408798066762" lon="15.210046538560665"><ele>33.0</ele><time>2026-04-06T09:06:27.999Z</time></trkpt><trkpt lat="37.03394797327213" lon="15.209976414451827"><ele>33.333333333333336</ele><time>2026-04-06T09:06:28.999Z</time></trkpt><trkpt lat="37.03381631775545" lon="15.209886770459999"><ele>33.66666666666667</ele><time>2026-04-06T09:06:29.999Z</time></trkpt><trkpt lat="37.033679565596636" lon="15.209807774191663"><ele>34.0</ele><time>2026-04-06T09:06:30.999Z</time></trkpt><trkpt lat="37.03353384508605" lon="15.209748512078907"><ele>34.333333333333336</ele><time>2026-04-06T09:06:31.999Z</time></trkpt><trkpt lat="37.033379459285754" lon="15.20970246071466"><ele>34.666666666666664</ele><time>2026-04-06T09:06:32.999Z</time></trkpt><trkpt lat="37.03321994067079" lon="15.209668536082741"><ele>35.0</ele><time>2026-04-06T09:06:33.999Z</time></trkpt><trkpt lat="37.033061730072276" lon="15.209639672840751"><ele>34.33333333333333</ele><time>2026-04-06T09:06:34.999Z</time></trkpt><trkpt lat="37.032905496666835" lon="15.20961466872266"><ele>33.666666666666664</ele><time>2026-04-06T09:06:35.999Z</time></trkpt><trkpt lat="37.032750980813105" lon="15.209586319667052"><ele>33.0</ele><time>2026-04-06T09:06:36.999Z</time></trkpt><trkpt lat="37.03259879030128" lon="15.209563431313304"><ele>33.0</ele><time>2026-04-06T09:06:37.999Z</time></trkpt><trkpt lat="37.0324469371053" lon="15.209548420041425"><ele>33.0</ele><time>2026-04-06T09:06:38.999Z</time></trkpt><trkpt lat="37.03229849455735" lon="15.209535647285644"><ele>33.0</ele><time>2026-04-06T09:06:39.999Z</time></trkpt><trkpt lat="37.03214956830079" lon="15.209522525660269"><ele>33.0</ele><time>2026-04-06T09:06:40.999Z</time></trkpt><trkpt lat="37.031999318683475" lon="15.209508627541638"><ele>33.0</ele><time>2026-04-06T09:06:41.999Z</time></trkpt><trkpt lat="37.031858155553586" lon="15.209488335829601"><ele>33.0</ele><time>2026-04-06T09:06:42.999Z</time></trkpt><trkpt lat="37.0317175683811" lon="15.209433778520545"><ele>33.0</ele><time>2026-04-06T09:06:43.999Z</time></trkpt><trkpt lat="37.03156957222093" lon="15.209384181096194"><ele>32.666666666666664</ele><time>2026-04-06T09:06:44.999Z</time></trkpt><trkpt lat="37.03141911826096" lon="15.209346232400616"><ele>32.33333333333333</ele><time>2026-04-06T09:06:45.999Z</time></trkpt><trkpt lat="37.03127703781163" lon="15.209287320653129"><ele>32.0</ele><time>2026-04-06T09:06:46.999Z</time></trkpt><trkpt lat="37.03113588267027" lon="15.20923458113072"><ele>32.0</ele><time>2026-04-06T09:06:47.999Z</time></trkpt><trkpt lat="37.030993896731815" lon="15.209183876091942"><ele>32.0</ele><time>2026-04-06T09:06:48.999Z</time></trkpt><trkpt lat="37.030854697118514" lon="15.209108261007009"><ele>32.0</ele><time>2026-04-06T09:06:49.999Z</time></trkpt><trkpt lat="37.03070680622226" lon="15.209050354210275"><ele>32.666666666666664</ele><time>2026-04-06T09:06:50.999Z</time></trkpt><trkpt lat="37.030557249292904" lon="15.208992811298145"><ele>33.333333333333336</ele><time>2026-04-06T09:06:51.999Z</time></trkpt><trkpt lat="37.030410666955206" lon="15.208936412745734"><ele>34.0</ele><time>2026-04-06T09:06:52.999Z</time></trkpt><trkpt lat="37.030267512560044" lon="15.208881333152574"><ele>34.25</ele><time>2026-04-06T09:06:53.999Z</time></trkpt><trkpt lat="37.03012720338699" lon="15.208827348527558"><ele>34.5</ele><time>2026-04-06T09:06:54.999Z</time></trkpt><trkpt lat="37.02999010009064" lon="15.208776152652996"><ele>34.75</ele><time>2026-04-06T09:06:55.999Z</time></trkpt><trkpt lat="37.02985372633968" lon="15.208727409746862"><ele>35.0</ele><time>2026-04-06T09:06:56.999Z</time></trkpt><trkpt lat="37.029713161978634" lon="15.208677922469812"><ele>34.5</ele><time>2026-04-06T09:06:57.999Z</time></trkpt><trkpt lat="37.0295698000421" lon="15.20863382548894"><ele>34.0</ele><time>2026-04-06T09:06:58.999Z</time></trkpt><trkpt lat="37.02941829924102" lon="15.208610084605292"><ele>33.5</ele><time>2026-04-06T09:06:59.999Z</time></trkpt><trkpt lat="37.02927607782614" lon="15.2085693989978"><ele>33.0</ele><time>2026-04-06T09:07:00.999Z</time></trkpt><trkpt lat="37.02913895752383" lon="15.2085407045425"><ele>32.0</ele><time>2026-04-06T09:07:01.999Z</time></trkpt><trkpt lat="37.02900073989521" lon="15.208521781471948"><ele>31.0</ele><time>2026-04-06T09:07:02.999Z</time></trkpt><trkpt lat="37.02886387973299" lon="15.208518738128857"><ele>30.0</ele><time>2026-04-06T09:07:03.999Z</time></trkpt><trkpt lat="37.02873312865868" lon="15.208524525378872"><ele>29.0</ele><time>2026-04-06T09:07:04.999Z</time></trkpt><trkpt lat="37.0286093287631" lon="15.208535396601048"><ele>29.0</ele><time>2026-04-06T09:07:05.999Z</time></trkpt><trkpt lat="37.02849275017009" lon="15.208549376395096"><ele>29.0</ele><time>2026-04-06T09:07:06.999Z</time></trkpt><trkpt lat="37.0283849555139" lon="15.208568036960791"><ele>29.0</ele><time>2026-04-06T09:07:07.999Z</time></trkpt><trkpt lat="37.02828585149458" lon="15.20858730402265"><ele>29.0</ele><time>2026-04-06T09:07:08.999Z</time></trkpt><trkpt lat="37.02819010463412" lon="15.208618178833909"><ele>29.0</ele><time>2026-04-06T09:07:09.999Z</time></trkpt><trkpt lat="37.02809698899883" lon="15.20866294866674"><ele>28.5</ele><time>2026-04-06T09:07:10.999Z</time></trkpt><trkpt lat="37.02799779635452" lon="15.208706470570425"><ele>28.0</ele><time>2026-04-06T09:07:11.999Z</time></trkpt><trkpt lat="37.02789345399632" lon="15.208749574829854"><ele>27.5</ele><time>2026-04-06T09:07:12.999Z</time></trkpt><trkpt lat="37.02777437576904" lon="15.208797033871829"><ele>27.0</ele><time>2026-04-06T09:07:13.999Z</time></trkpt><trkpt lat="37.02764772162512" lon="15.208849112275367"><ele>27.0</ele><time>2026-04-06T09:07:14.999Z</time></trkpt><trkpt lat="37.02751511651472" lon="15.20889930100424"><ele>27.0</ele><time>2026-04-06T09:07:15.999Z</time></trkpt><trkpt lat="37.027381472629564" lon="15.208954021581787"><ele>27.0</ele><time>2026-04-06T09:07:16.999Z</time></trkpt><trkpt lat="37.02725751017027" lon="15.20900587438342"><ele>27.0</ele><time>2026-04-06T09:07:17.999Z</time></trkpt><trkpt lat="37.02713529044456" lon="15.209062853066904"><ele>27.0</ele><time>2026-04-06T09:07:18.999Z</time></trkpt><trkpt lat="37.02701359063627" lon="15.209124905982415"><ele>27.0</ele><time>2026-04-06T09:07:19.999Z</time></trkpt><trkpt lat="37.02689232565433" lon="15.209186461822314"><ele>27.0</ele><time>2026-04-06T09:07:20.999Z</time></trkpt><trkpt lat="37.0267790965265" lon="15.209240906452353"><ele>27.0</ele><time>2026-04-06T09:07:21.999Z</time></trkpt><trkpt lat="37.02667278908713" lon="15.20929678617979"><ele>27.0</ele><time>2026-04-06T09:07:22.999Z</time></trkpt><trkpt lat="37.026571808862236" lon="15.209350428358407"><ele>27.000000000000004</ele><time>2026-04-06T09:07:23.999Z</time></trkpt><trkpt lat="37.02647262657504" lon="15.209391148984244"><ele>27.000000000000004</ele><time>2026-04-06T09:07:24.999Z</time></trkpt><trkpt lat="37.02637134218368" lon="15.209412560795359"><ele>27.0</ele><time>2026-04-06T09:07:25.999Z</time></trkpt><trkpt lat="37.02626575369109" lon="15.209410613318179"><ele>27.0</ele><time>2026-04-06T09:07:26.999Z</time></trkpt><trkpt lat="37.02615689881011" lon="15.20939810319045"><ele>27.0</ele><time>2026-04-06T09:07:27.999Z</time></trkpt><trkpt lat="37.02604601918228" lon="15.20938454022058"><ele>27.000000000000004</ele><time>2026-04-06T09:07:28.999Z</time></trkpt><trkpt lat="37.0259375642922" lon="15.209368685112912"><ele>27.000000000000004</ele><time>2026-04-06T09:07:29.999Z</time></trkpt><trkpt lat="37.02583583099789" lon="15.209349460768582"><ele>27.0</ele><time>2026-04-06T09:07:30.999Z</time></trkpt><trkpt lat="37.025742662072595" lon="15.209330907483789"><ele>27.0</ele><time>2026-04-06T09:07:31.999Z</time></trkpt><trkpt lat="37.025655544615894" lon="15.209317814732199"><ele>27.400000000000002</ele><time>2026-04-06T09:07:32.999Z</time></trkpt><trkpt lat="37.025567729048454" lon="15.209302964182916"><ele>27.800000000000004</ele><time>2026-04-06T09:07:33.999Z</time></trkpt><trkpt lat="37.02547417214719" lon="15.209286153800406"><ele>28.2</ele><time>2026-04-06T09:07:34.999Z</time></trkpt><trkpt lat="37.025375488660245" lon="15.209266370887754"><ele>28.6</ele><time>2026-04-06T09:07:35.999Z</time></trkpt><trkpt lat="37.02527771439341" lon="15.209232347166347"><ele>29.0</ele><time>2026-04-06T09:07:36.999Z</time></trkpt><trkpt lat="37.025179672367194" lon="15.20918157159857"><ele>29.0</ele><time>2026-04-06T09:07:37.999Z</time></trkpt><trkpt lat="37.02508078902405" lon="15.209123631230446"><ele>29.0</ele><time>2026-04-06T09:07:38.999Z</time></trkpt><trkpt lat="37.024991886308456" lon="15.20904198676217"><ele>29.0</ele><time>2026-04-06T09:07:39.999Z</time></trkpt><trkpt lat="37.02489843467141" lon="15.208969378662005"><ele>29.0</ele><time>2026-04-06T09:07:40.999Z</time></trkpt><trkpt lat="37.02480744660932" lon="15.208897592402131"><ele>29.0</ele><time>2026-04-06T09:07:41.999Z</time></trkpt><trkpt lat="37.024712963019" lon="15.208834092379732"><ele>28.25</ele><time>2026-04-06T09:07:42.999Z</time></trkpt><trkpt lat="37.02461688887989" lon="15.208751774149388"><ele>27.5</ele><time>2026-04-06T09:07:43.999Z</time></trkpt><trkpt lat="37.02452282637852" lon="15.20866265937997"><ele>26.75</ele><time>2026-04-06T09:07:44.999Z</time></trkpt><trkpt lat="37.02443226704079" lon="15.208574425303139"><ele>26.0</ele><time>2026-04-06T09:07:45.999Z</time></trkpt><trkpt lat="37.024364606399246" lon="15.208456881537183"><ele>26.0</ele><time>2026-04-06T09:07:46.999Z</time></trkpt><trkpt lat="37.02428617577366" lon="15.208351813307445"><ele>26.0</ele><time>2026-04-06T09:07:47.999Z</time></trkpt><trkpt lat="37.02420093197973" lon="15.208262752971203"><ele>26.0</ele><time>2026-04-06T09:07:48.999Z</time></trkpt><trkpt lat="37.02413173863777" lon="15.208168465716803"><ele>26.0</ele><time>2026-04-06T09:07:49.999Z</time></trkpt><trkpt lat="37.02406369918686" lon="15.208086727927714"><ele>26.0</ele><time>2026-04-06T09:07:50.999Z</time></trkpt><trkpt lat="37.02401389520196" lon="15.207994453862744"><ele>25.999999999999996</ele><time>2026-04-06T09:07:51.999Z</time></trkpt><trkpt lat="37.023957937492185" lon="15.207921444854039"><ele>26.0</ele><time>2026-04-06T09:07:52.999Z</time></trkpt><trkpt lat="37.02390088242263" lon="15.207847004154692"><ele>26.0</ele><time>2026-04-06T09:07:53.999Z</time></trkpt><trkpt lat="37.02383091354916" lon="15.207785014631387"><ele>26.0</ele><time>2026-04-06T09:07:54.999Z</time></trkpt><trkpt lat="37.02377770147639" lon="15.207700904019077"><ele>25.999999999999996</ele><time>2026-04-06T09:07:55.999Z</time></trkpt><trkpt lat="37.023715274568076" lon="15.207634240396217"><ele>26.0</ele><time>2026-04-06T09:07:56.999Z</time></trkpt><trkpt lat="37.02366019861441" lon="15.20756153944377"><ele>25.999999999999996</ele><time>2026-04-06T09:07:57.999Z</time></trkpt><trkpt lat="37.02360656976476" lon="15.2074892945779"><ele>26.0</ele><time>2026-04-06T09:07:58.999Z</time></trkpt><trkpt lat="37.02355330303933" lon="15.207411577279796"><ele>26.0</ele><time>2026-04-06T09:07:59.999Z</time></trkpt><trkpt lat="37.02349405529478" lon="15.207332251142862"><ele>26.0</ele><time>2026-04-06T09:08:00.999Z</time></trkpt><trkpt lat="37.02343802499562" lon="15.207258709216902"><ele>25.999999999999996</ele><time>2026-04-06T09:08:01.999Z</time></trkpt><trkpt lat="37.02338578314812" lon="15.207186387032982"><ele>26.0</ele><time>2026-04-06T09:08:02.999Z</time></trkpt><trkpt lat="37.0233355212019" lon="15.20712008296412"><ele>26.333333333333332</ele><time>2026-04-06T09:08:03.999Z</time></trkpt><trkpt lat="37.023280396475855" lon="15.207052432230876"><ele>26.666666666666664</ele><time>2026-04-06T09:08:04.999Z</time></trkpt><trkpt lat="37.023222051752946" lon="15.206986909683483"><ele>27.0</ele><time>2026-04-06T09:08:05.999Z</time></trkpt><trkpt lat="37.02316704375485" lon="15.206910641890182"><ele>27.333333333333336</ele><time>2026-04-06T09:08:06.999Z</time></trkpt><trkpt lat="37.02312540297798" lon="15.206819218543155"><ele>27.666666666666668</ele><time>2026-04-06T09:08:07.999Z</time></trkpt><trkpt lat="37.02309149677948" lon="15.206722057730357"><ele>28.0</ele><time>2026-04-06T09:08:08.999Z</time></trkpt><trkpt lat="37.02306223915366" lon="15.206610427637399"><ele>27.599999999999998</ele><time>2026-04-06T09:08:09.999Z</time></trkpt><trkpt lat="37.023057387963085" lon="15.206483546067568"><ele>27.199999999999996</ele><time>2026-04-06T09:08:10.999Z</time></trkpt><trkpt lat="37.023043574685786" lon="15.206367703992353"><ele>26.8</ele><time>2026-04-06T09:08:11.999Z</time></trkpt><trkpt lat="37.023030249171605" lon="15.206255123834442"><ele>26.4</ele><time>2026-04-06T09:08:12.999Z</time></trkpt><trkpt lat="37.02301811324858" lon="15.206148052023144"><ele>26.0</ele><time>2026-04-06T09:08:13.999Z</time></trkpt><trkpt lat="37.023005964321555" lon="15.206040865578847"><ele>26.0</ele><time>2026-04-06T09:08:14.999Z</time></trkpt><trkpt lat="37.02299347224452" lon="15.205930651472222"><ele>26.0</ele><time>2026-04-06T09:08:15.999Z</time></trkpt><trkpt lat="37.0229650201905" lon="15.205817775308374"><ele>26.0</ele><time>2026-04-06T09:08:16.999Z</time></trkpt><trkpt lat="37.0229525827336" lon="15.205700158593686"><ele>26.0</ele><time>2026-04-06T09:08:17.999Z</time></trkpt><trkpt lat="37.02293969313928" lon="15.20558572929567"><ele>26.0</ele><time>2026-04-06T09:08:18.999Z</time></trkpt><trkpt lat="37.022927607169244" lon="15.205473105056516"><ele>25.499999999999996</ele><time>2026-04-06T09:08:19.999Z</time></trkpt><trkpt lat="37.02292124014872" lon="15.20536513966725"><ele>25.0</ele><time>2026-04-06T09:08:20.999Z</time></trkpt><trkpt lat="37.022905148633875" lon="15.205259850342994"><ele>24.5</ele><time>2026-04-06T09:08:21.999Z</time></trkpt><trkpt lat="37.02290092856636" lon="15.205160110241678"><ele>24.0</ele><time>2026-04-06T09:08:22.999Z</time></trkpt><trkpt lat="37.02289814287117" lon="15.205061399164245"><ele>23.5</ele><time>2026-04-06T09:08:23.999Z</time></trkpt><trkpt lat="37.02291698361927" lon="15.204971166872038"><ele>23.0</ele><time>2026-04-06T09:08:24.999Z</time></trkpt><trkpt lat="37.022910204208095" lon="15.204874449694247"><ele>22.5</ele><time>2026-04-06T09:08:25.999Z</time></trkpt><trkpt lat="37.022934929302934" lon="15.204793128346703"><ele>22.0</ele><time>2026-04-06T09:08:26.999Z</time></trkpt><trkpt lat="37.02299350536585" lon="15.204695196524389"><ele>21.5</ele><time>2026-04-06T09:08:28.999Z</time></trkpt><trkpt lat="37.02305135372284" lon="15.204644115833597"><ele>21.0</ele><time>2026-04-06T09:08:30.999Z</time></trkpt><trkpt lat="37.02313750033516" lon="15.204612330307203"><ele>20.5</ele><time>2026-04-06T09:08:33.999Z</time></trkpt><trkpt lat="37.02320196061513" lon="15.204575886719166"><ele>20.0</ele><time>2026-04-06T09:08:36.999Z</time></trkpt><trkpt lat="37.02326716931402" lon="15.204536819893548"><ele>20.0</ele><time>2026-04-06T09:08:39.999Z</time></trkpt><trkpt lat="37.02333932674802" lon="15.204461684577954"><ele>20.0</ele><time>2026-04-06T09:08:42.999Z</time></trkpt><trkpt lat="37.02338122377399" lon="15.204398399365708"><ele>20.0</ele><time>2026-04-06T09:08:44.999Z</time></trkpt><trkpt lat="37.0233557000011" lon="15.204285111519663"><ele>20.0</ele><time>2026-04-06T09:08:46.999Z</time></trkpt><trkpt lat="37.023344172946075" lon="15.204206792279821"><ele>20.0</ele><time>2026-04-06T09:08:48.999Z</time></trkpt><trkpt lat="37.02331870619826" lon="15.204125459034547"><ele>20.0</ele><time>2026-04-06T09:08:50.999Z</time></trkpt><trkpt lat="37.023286423191216" lon="15.203997221015637"><ele>19.6</ele><time>2026-04-06T09:08:52.999Z</time></trkpt><trkpt lat="37.023264306609235" lon="15.20392212829916"><ele>19.2</ele><time>2026-04-06T09:08:53.999Z</time></trkpt><trkpt lat="37.02323058155975" lon="15.20385039465108"><ele>18.8</ele><time>2026-04-06T09:08:54.999Z</time></trkpt><trkpt lat="37.02316425675588" lon="15.20372361172322"><ele>18.4</ele><time>2026-04-06T09:08:56.999Z</time></trkpt><trkpt lat="37.023092989393966" lon="15.203601633887459"><ele>18.0</ele><time>2026-04-06T09:08:58.999Z</time></trkpt><trkpt lat="37.02303413012245" lon="15.20348307251867"><ele>18.000000000000004</ele><time>2026-04-06T09:09:00.999Z</time></trkpt><trkpt lat="37.02299424191784" lon="15.203419471557678"><ele>18.0</ele><time>2026-04-06T09:09:01.999Z</time></trkpt><trkpt lat="37.022943561036136" lon="15.203363402392014"><ele>18.0</ele><time>2026-04-06T09:09:02.999Z</time></trkpt><trkpt lat="37.02289944724156" lon="15.203304510381304"><ele>18.0</ele><time>2026-04-06T09:09:03.999Z</time></trkpt><trkpt lat="37.02285141099572" lon="15.203251968481666"><ele>18.0</ele><time>2026-04-06T09:09:04.999Z</time></trkpt><trkpt lat="37.022768260312105" lon="15.203150926695349"><ele>18.000000000000004</ele><time>2026-04-06T09:09:06.999Z</time></trkpt><trkpt lat="37.022728907320435" lon="15.203087888765147"><ele>18.0</ele><time>2026-04-06T09:09:07.999Z</time></trkpt><trkpt lat="37.02268920182531" lon="15.203014053878519"><ele>18.166666666666668</ele><time>2026-04-06T09:09:08.999Z</time></trkpt><trkpt lat="37.02265663571418" lon="15.202930001308689"><ele>18.333333333333332</ele><time>2026-04-06T09:09:09.999Z</time></trkpt><trkpt lat="37.022633068187034" lon="15.202834145430485"><ele>18.5</ele><time>2026-04-06T09:09:10.999Z</time></trkpt><trkpt lat="37.022616869724054" lon="15.202738185465547"><ele>18.666666666666664</ele><time>2026-04-06T09:09:11.999Z</time></trkpt><trkpt lat="37.022603795424914" lon="15.202650386503528"><ele>18.833333333333332</ele><time>2026-04-06T09:09:12.999Z</time></trkpt><trkpt lat="37.022595586005565" lon="15.20257127175202"><ele>19.0</ele><time>2026-04-06T09:09:13.999Z</time></trkpt><trkpt lat="37.022615954732586" lon="15.20242524664001"><ele>19.666666666666664</ele><time>2026-04-06T09:09:15.999Z</time></trkpt><trkpt lat="37.02264032719721" lon="15.202278341033383"><ele>20.333333333333332</ele><time>2026-04-06T09:09:17.999Z</time></trkpt><trkpt lat="37.02269720144199" lon="15.202138811753052"><ele>21.0</ele><time>2026-04-06T09:09:19.999Z</time></trkpt><trkpt lat="37.022728011661194" lon="15.202067119972668"><ele>21.666666666666668</ele><time>2026-04-06T09:09:20.999Z</time></trkpt><trkpt lat="37.02275873295233" lon="15.201995635101067"><ele>22.333333333333336</ele><time>2026-04-06T09:09:21.999Z</time></trkpt><trkpt lat="37.02277584360452" lon="15.201914902222304"><ele>23.0</ele><time>2026-04-06T09:09:22.999Z</time></trkpt><trkpt lat="37.02280504630457" lon="15.201840424163585"><ele>23.0</ele><time>2026-04-06T09:09:23.999Z</time></trkpt><trkpt lat="37.02283652348587" lon="15.201759799298891"><ele>23.0</ele><time>2026-04-06T09:09:24.999Z</time></trkpt><trkpt lat="37.02287104740047" lon="15.201670737281406"><ele>23.0</ele><time>2026-04-06T09:09:25.999Z</time></trkpt><trkpt lat="37.022921834504004" lon="15.201584040911191"><ele>23.0</ele><time>2026-04-06T09:09:26.999Z</time></trkpt><trkpt lat="37.02295953794857" lon="15.201486031322284"><ele>23.0</ele><time>2026-04-06T09:09:27.999Z</time></trkpt><trkpt lat="37.022998792630816" lon="15.20138878754871"><ele>23.0</ele><time>2026-04-06T09:09:28.999Z</time></trkpt><trkpt lat="37.02303933465392" lon="15.201291184660134"><ele>23.166666666666668</ele><time>2026-04-06T09:09:29.999Z</time></trkpt><trkpt lat="37.02308037602008" lon="15.201194977441258"><ele>23.333333333333336</ele><time>2026-04-06T09:09:30.999Z</time></trkpt><trkpt lat="37.02310760613064" lon="15.201090807188681"><ele>23.5</ele><time>2026-04-06T09:09:31.999Z</time></trkpt><trkpt lat="37.02316647114518" lon="15.201005394093446"><ele>23.666666666666668</ele><time>2026-04-06T09:09:32.999Z</time></trkpt><trkpt lat="37.023211591275775" lon="15.20091062899199"><ele>23.833333333333332</ele><time>2026-04-06T09:09:33.999Z</time></trkpt><trkpt lat="37.02325774669279" lon="15.200814802544993"><ele>24.0</ele><time>2026-04-06T09:09:34.999Z</time></trkpt><trkpt lat="37.023304000981845" lon="15.200718770880291"><ele>24.2</ele><time>2026-04-06T09:09:35.999Z</time></trkpt><trkpt lat="37.02334013932882" lon="15.20061311037656"><ele>24.4</ele><time>2026-04-06T09:09:36.999Z</time></trkpt><trkpt lat="37.02338687156264" lon="15.200516924746175"><ele>24.6</ele><time>2026-04-06T09:09:37.999Z</time></trkpt><trkpt lat="37.02344686828947" lon="15.200431936695626"><ele>24.8</ele><time>2026-04-06T09:09:38.999Z</time></trkpt><trkpt lat="37.02349823996475" lon="15.200339107435596"><ele>25.0</ele><time>2026-04-06T09:09:39.999Z</time></trkpt><trkpt lat="37.02355371748787" lon="15.200254983436574"><ele>25.000000000000004</ele><time>2026-04-06T09:09:40.999Z</time></trkpt><trkpt lat="37.02361391410065" lon="15.200172879754373"><ele>25.0</ele><time>2026-04-06T09:09:41.999Z</time></trkpt><trkpt lat="37.023665868717664" lon="15.200082670127417"><ele>25.0</ele><time>2026-04-06T09:09:42.999Z</time></trkpt><trkpt lat="37.0237287134548" lon="15.200006525969862"><ele>25.0</ele><time>2026-04-06T09:09:43.999Z</time></trkpt><trkpt lat="37.02378846958052" lon="15.199926065497381"><ele>25.000000000000004</ele><time>2026-04-06T09:09:44.999Z</time></trkpt><trkpt lat="37.02384872593815" lon="15.19984383629508"><ele>25.0</ele><time>2026-04-06T09:09:45.999Z</time></trkpt><trkpt lat="37.02390832841312" lon="15.19976028792746"><ele>25.166666666666668</ele><time>2026-04-06T09:09:46.999Z</time></trkpt><trkpt lat="37.023960845124385" lon="15.199670583747828"><ele>25.333333333333336</ele><time>2026-04-06T09:09:47.999Z</time></trkpt><trkpt lat="37.02400928633732" lon="15.199579409641462"><ele>25.5</ele><time>2026-04-06T09:09:48.999Z</time></trkpt><trkpt lat="37.02405529000882" lon="15.199488690653341"><ele>25.666666666666664</ele><time>2026-04-06T09:09:49.999Z</time></trkpt><trkpt lat="37.02409983345882" lon="15.19940212236296"><ele>25.833333333333332</ele><time>2026-04-06T09:09:50.999Z</time></trkpt><trkpt lat="37.02414325948101" lon="15.199320273074926"><ele>26.0</ele><time>2026-04-06T09:09:51.999Z</time></trkpt><trkpt lat="37.02418269174536" lon="15.199241259256619"><ele>26.499999999999996</ele><time>2026-04-06T09:09:52.999Z</time></trkpt><trkpt lat="37.02423826189024" lon="15.199180984996445"><ele>27.0</ele><time>2026-04-06T09:09:53.999Z</time></trkpt><trkpt lat="37.02427596005788" lon="15.199116337017859"><ele>27.5</ele><time>2026-04-06T09:09:54.999Z</time></trkpt><trkpt lat="37.024337162397295" lon="15.199005429457527"><ele>28.0</ele><time>2026-04-06T09:09:56.999Z</time></trkpt><trkpt lat="37.024383937435786" lon="15.19891747615595"><ele>28.499999999999996</ele><time>2026-04-06T09:09:58.999Z</time></trkpt><trkpt lat="37.02442393358337" lon="15.198842269826839"><ele>29.0</ele><time>2026-04-06T09:10:00.999Z</time></trkpt><trkpt lat="37.024414235776625" lon="15.198740088302838"><ele>29.0</ele><time>2026-04-06T09:10:02.999Z</time></trkpt><trkpt lat="37.02434335582663" lon="15.198651248319187"><ele>29.0</ele><time>2026-04-06T09:10:04.999Z</time></trkpt><trkpt lat="37.02430952740041" lon="15.198574905430155"><ele>29.0</ele><time>2026-04-06T09:10:06.999Z</time></trkpt><trkpt lat="37.024270018937955" lon="15.198464801987896"><ele>29.0</ele><time>2026-04-06T09:10:10Z</time></trkpt><trkpt lat="37.02422021117252" lon="15.198357722577226"><ele>29.0</ele><time>2026-04-06T09:10:12Z</time></trkpt><trkpt lat="37.02417012868488" lon="15.198258852449031"><ele>29.4</ele><time>2026-04-06T09:10:14Z</time></trkpt><trkpt lat="37.02413113525743" lon="15.198160650093484"><ele>29.799999999999997</ele><time>2026-04-06T09:10:16Z</time></trkpt><trkpt lat="37.02405078210486" lon="15.198084308472126"><ele>30.200000000000003</ele><time>2026-04-06T09:10:18Z</time></trkpt><trkpt lat="37.02395826015561" lon="15.197985181856785"><ele>30.6</ele><time>2026-04-06T09:10:20Z</time></trkpt><trkpt lat="37.02391270816136" lon="15.197907109547693"><ele>31.0</ele><time>2026-04-06T09:10:21Z</time></trkpt><trkpt lat="37.023851279698704" lon="15.19783909356962"><ele>31.000000000000004</ele><time>2026-04-06T09:10:22Z</time></trkpt><trkpt lat="37.02377462034207" lon="15.197781163851396"><ele>31.0</ele><time>2026-04-06T09:10:23Z</time></trkpt><trkpt lat="37.02370604798695" lon="15.197701695388469"><ele>31.0</ele><time>2026-04-06T09:10:24Z</time></trkpt><trkpt lat="37.02364517912972" lon="15.197628448781293"><ele>31.0</ele><time>2026-04-06T09:10:25Z</time></trkpt><trkpt lat="37.02358766784865" lon="15.197563810356659"><ele>31.000000000000004</ele><time>2026-04-06T09:10:26Z</time></trkpt><trkpt lat="37.02353000040387" lon="15.197501341580507"><ele>31.0</ele><time>2026-04-06T09:10:27Z</time></trkpt><trkpt lat="37.02347153325367" lon="15.19743511917982"><ele>31.000000000000004</ele><time>2026-04-06T09:10:28Z</time></trkpt><trkpt lat="37.023411852369655" lon="15.197367051680793"><ele>31.0</ele><time>2026-04-06T09:10:29Z</time></trkpt><trkpt lat="37.02335175283694" lon="15.197299704754002"><ele>31.0</ele><time>2026-04-06T09:10:30Z</time></trkpt><trkpt lat="37.02329333304815" lon="15.197232020126654"><ele>31.0</ele><time>2026-04-06T09:10:31Z</time></trkpt><trkpt lat="37.023238001424865" lon="15.197166558233727"><ele>31.000000000000004</ele><time>2026-04-06T09:10:32Z</time></trkpt><trkpt lat="37.02318566305996" lon="15.197104619316232"><ele>31.0</ele><time>2026-04-06T09:10:33Z</time></trkpt><trkpt lat="37.0231379032328" lon="15.19704496626061"><ele>31.571428571428573</ele><time>2026-04-06T09:10:34Z</time></trkpt><trkpt lat="37.0230952727763" lon="15.196985645745382"><ele>32.142857142857146</ele><time>2026-04-06T09:10:35Z</time></trkpt><trkpt lat="37.023053987182536" lon="15.196924256104909"><ele>32.714285714285715</ele><time>2026-04-06T09:10:36Z</time></trkpt><trkpt lat="37.02301067847797" lon="15.19685825651883"><ele>33.285714285714285</ele><time>2026-04-06T09:10:37Z</time></trkpt><trkpt lat="37.02296515881525" lon="15.196790102197905"><ele>33.85714285714286</ele><time>2026-04-06T09:10:38Z</time></trkpt><trkpt lat="37.02291747867524" lon="15.196718945952274"><ele>34.42857142857143</ele><time>2026-04-06T09:10:39Z</time></trkpt><trkpt lat="37.022869956360466" lon="15.196644274622532"><ele>35.0</ele><time>2026-04-06T09:10:40Z</time></trkpt><trkpt lat="37.022821799841566" lon="15.196567531098209"><ele>35.33333333333333</ele><time>2026-04-06T09:10:41Z</time></trkpt><trkpt lat="37.022772379966334" lon="15.196489143346737"><ele>35.666666666666664</ele><time>2026-04-06T09:10:42Z</time></trkpt><trkpt lat="37.022720561283414" lon="15.196406984079909"><ele>36.0</ele><time>2026-04-06T09:10:43Z</time></trkpt><trkpt lat="37.02266670232695" lon="15.196323980857345"><ele>36.333333333333336</ele><time>2026-04-06T09:10:44Z</time></trkpt><trkpt lat="37.02261120993175" lon="15.196240705151396"><ele>36.66666666666667</ele><time>2026-04-06T09:10:45Z</time></trkpt><trkpt lat="37.02255162142325" lon="15.196158989403004"><ele>37.0</ele><time>2026-04-06T09:10:46Z</time></trkpt><trkpt lat="37.022491800083834" lon="15.196077789192174"><ele>37.4</ele><time>2026-04-06T09:10:47Z</time></trkpt><trkpt lat="37.0224343379539" lon="15.195990176256165"><ele>37.800000000000004</ele><time>2026-04-06T09:10:48Z</time></trkpt><trkpt lat="37.02237920179485" lon="15.195896764545328"><ele>38.2</ele><time>2026-04-06T09:10:49Z</time></trkpt><trkpt lat="37.02232674637202" lon="15.195798421728034"><ele>38.6</ele><time>2026-04-06T09:10:50Z</time></trkpt><trkpt lat="37.02227822381215" lon="15.195694395084926"><ele>39.0</ele><time>2026-04-06T09:10:51Z</time></trkpt><trkpt lat="37.0222321075129" lon="15.195588527731251"><ele>39.2</ele><time>2026-04-06T09:10:52Z</time></trkpt><trkpt lat="37.02218696548271" lon="15.195480501029333"><ele>39.4</ele><time>2026-04-06T09:10:53Z</time></trkpt><trkpt lat="37.02214063321437" lon="15.195373768659177"><ele>39.6</ele><time>2026-04-06T09:10:54Z</time></trkpt><trkpt lat="37.022094608927766" lon="15.195267231126"><ele>39.8</ele><time>2026-04-06T09:10:55Z</time></trkpt><trkpt lat="37.0220556321615" lon="15.195158029061318"><ele>40.0</ele><time>2026-04-06T09:10:56Z</time></trkpt><trkpt lat="37.022014374831464" lon="15.195041582287294"><ele>40.0</ele><time>2026-04-06T09:10:57Z</time></trkpt><trkpt lat="37.02197115434491" lon="15.194918725091355"><ele>40.0</ele><time>2026-04-06T09:10:58Z</time></trkpt><trkpt lat="37.021925081882735" lon="15.194793578722583"><ele>40.0</ele><time>2026-04-06T09:10:59Z</time></trkpt><trkpt lat="37.0218788189076" lon="15.194664930077469"><ele>40.0</ele><time>2026-04-06T09:10:59.999Z</time></trkpt><trkpt lat="37.02183272846409" lon="15.194535432462194"><ele>40.0</ele><time>2026-04-06T09:11:00.999Z</time></trkpt><trkpt lat="37.02178480555611" lon="15.194411960826612"><ele>40.6</ele><time>2026-04-06T09:11:01.999Z</time></trkpt><trkpt lat="37.02174415677679" lon="15.194291069221892"><ele>41.2</ele><time>2026-04-06T09:11:02.999Z</time></trkpt><trkpt lat="37.02169995243304" lon="15.194175588511184"><ele>41.8</ele><time>2026-04-06T09:11:03.999Z</time></trkpt><trkpt lat="37.02166124724559" lon="15.19406115929361"><ele>42.4</ele><time>2026-04-06T09:11:04.999Z</time></trkpt><trkpt lat="37.021620846472466" lon="15.193953278520443"><ele>43.0</ele><time>2026-04-06T09:11:05.999Z</time></trkpt><trkpt lat="37.02158970978612" lon="15.193851101743194"><ele>43.333333333333336</ele><time>2026-04-06T09:11:06.999Z</time></trkpt><trkpt lat="37.021554094439644" lon="15.193754402282888"><ele>43.66666666666667</ele><time>2026-04-06T09:11:07.999Z</time></trkpt><trkpt lat="37.02152443485445" lon="15.19366232198257"><ele>44.0</ele><time>2026-04-06T09:11:08.999Z</time></trkpt><trkpt lat="37.02149245288843" lon="15.193570359047328"><ele>44.333333333333336</ele><time>2026-04-06T09:11:09.999Z</time></trkpt><trkpt lat="37.02146138827506" lon="15.193478694860138"><ele>44.666666666666664</ele><time>2026-04-06T09:11:10.999Z</time></trkpt><trkpt lat="37.02143525976333" lon="15.193387082651547"><ele>45.0</ele><time>2026-04-06T09:11:11.999Z</time></trkpt><trkpt lat="37.0214030309762" lon="15.193297840213685"><ele>45.0</ele><time>2026-04-06T09:11:12.999Z</time></trkpt><trkpt lat="37.02137382539012" lon="15.193209447104126"><ele>45.0</ele><time>2026-04-06T09:11:13.999Z</time></trkpt><trkpt lat="37.02134490652478" lon="15.193120412279892"><ele>45.0</ele><time>2026-04-06T09:11:14.999Z</time></trkpt><trkpt lat="37.02131028347676" lon="15.193028845001594"><ele>45.0</ele><time>2026-04-06T09:11:15.999Z</time></trkpt><trkpt lat="37.021275065805796" lon="15.192929607810584"><ele>45.0</ele><time>2026-04-06T09:11:16.999Z</time></trkpt><trkpt lat="37.02123270016826" lon="15.19282542493054"><ele>45.0</ele><time>2026-04-06T09:11:17.999Z</time></trkpt><trkpt lat="37.02119175492061" lon="15.19272104023085"><ele>45.166666666666664</ele><time>2026-04-06T09:11:18.999Z</time></trkpt><trkpt lat="37.02115583820258" lon="15.192623615325127"><ele>45.333333333333336</ele><time>2026-04-06T09:11:19.999Z</time></trkpt><trkpt lat="37.02111195715918" lon="15.19253332892714"><ele>45.5</ele><time>2026-04-06T09:11:20.999Z</time></trkpt><trkpt lat="37.02106695586279" lon="15.192448050031748"><ele>45.66666666666667</ele><time>2026-04-06T09:11:21.999Z</time></trkpt><trkpt lat="37.021026417183066" lon="15.192356680782344"><ele>45.833333333333336</ele><time>2026-04-06T09:11:22.999Z</time></trkpt><trkpt lat="37.02103214452335" lon="15.192253667401216"><ele>46.0</ele><time>2026-04-06T09:11:23.999Z</time></trkpt><trkpt lat="37.021029548728094" lon="15.192129389528674"><ele>46.0</ele><time>2026-04-06T09:11:24.999Z</time></trkpt><trkpt lat="37.02102761116458" lon="15.191985646552991"><ele>46.0</ele><time>2026-04-06T09:11:25.999Z</time></trkpt><trkpt lat="37.021025339648666" lon="15.191840819216083"><ele>46.0</ele><time>2026-04-06T09:11:26.999Z</time></trkpt><trkpt lat="37.02102291767198" lon="15.191690908953394"><ele>46.0</ele><time>2026-04-06T09:11:27.999Z</time></trkpt><trkpt lat="37.02102038959719" lon="15.191534431608657"><ele>46.0</ele><time>2026-04-06T09:11:28.999Z</time></trkpt><trkpt lat="37.021003933546375" lon="15.191382095323839"><ele>46.0</ele><time>2026-04-06T09:11:29.999Z</time></trkpt><trkpt lat="37.021000720319144" lon="15.19123228206358"><ele>46.0</ele><time>2026-04-06T09:11:30.999Z</time></trkpt><trkpt lat="37.02099690909808" lon="15.191082229469533"><ele>46.0</ele><time>2026-04-06T09:11:31.999Z</time></trkpt><trkpt lat="37.02099072385684" lon="15.190936113872276"><ele>46.0</ele><time>2026-04-06T09:11:32.999Z</time></trkpt><trkpt lat="37.02100211249418" lon="15.190785057288268"><ele>46.0</ele><time>2026-04-06T09:11:33.999Z</time></trkpt><trkpt lat="37.02098214128844" lon="15.190640396418274"><ele>46.0</ele><time>2026-04-06T09:11:34.999Z</time></trkpt><trkpt lat="37.020994256726325" lon="15.190491730940742"><ele>46.0</ele><time>2026-04-06T09:11:35.999Z</time></trkpt><trkpt lat="37.02099031077085" lon="15.190338226976497"><ele>46.0</ele><time>2026-04-06T09:11:36.999Z</time></trkpt><trkpt lat="37.020986212316046" lon="15.190178456195376"><ele>46.0</ele><time>2026-04-06T09:11:37.999Z</time></trkpt><trkpt lat="37.02098203787794" lon="15.190015723335096"><ele>46.0</ele><time>2026-04-06T09:11:38.999Z</time></trkpt><trkpt lat="37.02097775317855" lon="15.189848692158169"><ele>46.0</ele><time>2026-04-06T09:11:39.999Z</time></trkpt><trkpt lat="37.02097335469083" lon="15.189677225146905"><ele>47.0</ele><time>2026-04-06T09:11:40.999Z</time></trkpt><trkpt lat="37.02096885244976" lon="15.18950171348675"><ele>48.0</ele><time>2026-04-06T09:11:41.999Z</time></trkpt><trkpt lat="37.02096427868886" lon="15.189323413775394"><ele>49.0</ele><time>2026-04-06T09:11:42.999Z</time></trkpt><trkpt lat="37.02095968329496" lon="15.189144270748608"><ele>50.0</ele><time>2026-04-06T09:11:43.999Z</time></trkpt><trkpt lat="37.02095525638814" lon="15.188971695877353"><ele>50.25</ele><time>2026-04-06T09:11:44.999Z</time></trkpt><trkpt lat="37.02095088086163" lon="15.188801123991128"><ele>50.5</ele><time>2026-04-06T09:11:45.999Z</time></trkpt><trkpt lat="37.02094657061538" lon="15.188633096924418"><ele>50.75</ele><time>2026-04-06T09:11:46.999Z</time></trkpt><trkpt lat="37.020927865246925" lon="15.188470555651385"><ele>51.0</ele><time>2026-04-06T09:11:47.999Z</time></trkpt><trkpt lat="37.020924419387875" lon="15.188310340848378"><ele>51.0</ele><time>2026-04-06T09:11:48.999Z</time></trkpt><trkpt lat="37.02091803826626" lon="15.188147384225624"><ele>51.0</ele><time>2026-04-06T09:11:49.999Z</time></trkpt><trkpt lat="37.02091238644446" lon="15.187984287417493"><ele>51.0</ele><time>2026-04-06T09:11:50.999Z</time></trkpt><trkpt lat="37.02092412424164" lon="15.187817907832011"><ele>51.0</ele><time>2026-04-06T09:11:51.999Z</time></trkpt><trkpt lat="37.02091943136529" lon="15.187652050696862"><ele>51.0</ele><time>2026-04-06T09:11:52.999Z</time></trkpt><trkpt lat="37.020914750280625" lon="15.187486610313645"><ele>51.0</ele><time>2026-04-06T09:11:53.999Z</time></trkpt><trkpt lat="37.020893798442685" lon="15.187322279489317"><ele>51.0</ele><time>2026-04-06T09:11:54.999Z</time></trkpt><trkpt lat="37.020905538666895" lon="15.187161050479103"><ele>51.0</ele><time>2026-04-06T09:11:55.999Z</time></trkpt><trkpt lat="37.02090101721846" lon="15.187001252009882"><ele>51.5</ele><time>2026-04-06T09:11:56.999Z</time></trkpt><trkpt lat="37.020896638474795" lon="15.18684649703281"><ele>52.0</ele><time>2026-04-06T09:11:57.999Z</time></trkpt><trkpt lat="37.02089234964954" lon="15.186694686285016"><ele>52.5</ele><time>2026-04-06T09:11:58.999Z</time></trkpt><trkpt lat="37.0208895058516" lon="15.186544061445337"><ele>53.0</ele><time>2026-04-06T09:11:59.999Z</time></trkpt><trkpt lat="37.02088672017742" lon="15.186396515168402"><ele>53.25</ele><time>2026-04-06T09:12:00.999Z</time></trkpt><trkpt lat="37.02088394633177" lon="15.186249595434244"><ele>53.5</ele><time>2026-04-06T09:12:01.999Z</time></trkpt><trkpt lat="37.020881256316954" lon="15.186107115845772"><ele>53.75</ele><time>2026-04-06T09:12:02.999Z</time></trkpt><trkpt lat="37.02087678642269" lon="15.185967464341465"><ele>54.0</ele><time>2026-04-06T09:12:03.999Z</time></trkpt><trkpt lat="37.02087174999594" lon="15.18583027208879"><ele>54.0</ele><time>2026-04-06T09:12:05Z</time></trkpt><trkpt lat="37.020851073031444" lon="15.18569461294331"><ele>54.00000000000001</ele><time>2026-04-06T09:12:06Z</time></trkpt><trkpt lat="37.02084701201129" lon="15.18556027202231"><ele>54.00000000000001</ele><time>2026-04-06T09:12:07Z</time></trkpt><trkpt lat="37.02084330831769" lon="15.185428395584479"><ele>54.0</ele><time>2026-04-06T09:12:08Z</time></trkpt><trkpt lat="37.02083967170921" lon="15.18529863430237"><ele>54.0</ele><time>2026-04-06T09:12:09Z</time></trkpt><trkpt lat="37.02083730665302" lon="15.18517070517228"><ele>54.2</ele><time>2026-04-06T09:12:10Z</time></trkpt><trkpt lat="37.02085044867756" lon="15.185047836280896"><ele>54.400000000000006</ele><time>2026-04-06T09:12:11Z</time></trkpt><trkpt lat="37.0208393920785" lon="15.18493897897111"><ele>54.6</ele><time>2026-04-06T09:12:12Z</time></trkpt><trkpt lat="37.020802465709714" lon="15.184834510512129"><ele>54.8</ele><time>2026-04-06T09:12:13Z</time></trkpt><trkpt lat="37.0207351297624" lon="15.184744490557723"><ele>55.0</ele><time>2026-04-06T09:12:14Z</time></trkpt><trkpt lat="37.02068041232114" lon="15.184639187897583"><ele>55.6</ele><time>2026-04-06T09:12:15Z</time></trkpt><trkpt lat="37.020622819569795" lon="15.184533929599642"><ele>56.2</ele><time>2026-04-06T09:12:16Z</time></trkpt><trkpt lat="37.02056567146706" lon="15.184433718788533"><ele>56.8</ele><time>2026-04-06T09:12:17Z</time></trkpt><trkpt lat="37.02051268074574" lon="15.184334411917616"><ele>57.4</ele><time>2026-04-06T09:12:18Z</time></trkpt><trkpt lat="37.02046526553531" lon="15.184231189971545"><ele>58.0</ele><time>2026-04-06T09:12:19Z</time></trkpt><trkpt lat="37.02043221773007" lon="15.184117569463691"><ele>58.2</ele><time>2026-04-06T09:12:20Z</time></trkpt><trkpt lat="37.02038349840838" lon="15.184005452418955"><ele>58.4</ele><time>2026-04-06T09:12:21Z</time></trkpt><trkpt lat="37.020334991446" lon="15.183891960074538"><ele>58.60000000000001</ele><time>2026-04-06T09:12:22Z</time></trkpt><trkpt lat="37.02028815137372" lon="15.18378236741633"><ele>58.800000000000004</ele><time>2026-04-06T09:12:23Z</time></trkpt><trkpt lat="37.02023841078523" lon="15.183673902881456"><ele>59.0</ele><time>2026-04-06T09:12:24Z</time></trkpt><trkpt lat="37.020187424626535" lon="15.183563235708965"><ele>59.0</ele><time>2026-04-06T09:12:25Z</time></trkpt><trkpt lat="37.02013495161905" lon="15.183449341262046"><ele>59.00000000000001</ele><time>2026-04-06T09:12:26Z</time></trkpt><trkpt lat="37.02007914501672" lon="15.183332348184276"><ele>59.00000000000001</ele><time>2026-04-06T09:12:27Z</time></trkpt><trkpt lat="37.02000791614026" lon="15.183225303540782"><ele>59.0</ele><time>2026-04-06T09:12:28Z</time></trkpt><trkpt lat="37.019944440230546" lon="15.183103318922496"><ele>59.0</ele><time>2026-04-06T09:12:29Z</time></trkpt><trkpt lat="37.01989300833761" lon="15.182966145197307"><ele>59.75</ele><time>2026-04-06T09:12:30Z</time></trkpt><trkpt lat="37.019813412405355" lon="15.182848129250738"><ele>60.5</ele><time>2026-04-06T09:12:31Z</time></trkpt><trkpt lat="37.01975287536416" lon="15.182716273750085"><ele>61.25</ele><time>2026-04-06T09:12:32Z</time></trkpt><trkpt lat="37.01969526854852" lon="15.182586709919514"><ele>62.0</ele><time>2026-04-06T09:12:33Z</time></trkpt><trkpt lat="37.01965795580426" lon="15.182448258966648"><ele>62.5</ele><time>2026-04-06T09:12:34Z</time></trkpt><trkpt lat="37.01961295017402" lon="15.182305804397476"><ele>63.0</ele><time>2026-04-06T09:12:35Z</time></trkpt><trkpt lat="37.019570061966576" lon="15.182166868405812"><ele>63.5</ele><time>2026-04-06T09:12:36Z</time></trkpt><trkpt lat="37.01951701156193" lon="15.182032774995697"><ele>64.0</ele><time>2026-04-06T09:12:37Z</time></trkpt><trkpt lat="37.01944542584433" lon="15.181913988931264"><ele>64.0</ele><time>2026-04-06T09:12:38Z</time></trkpt><trkpt lat="37.01939125930946" lon="15.181785438622217"><ele>64.0</ele><time>2026-04-06T09:12:39Z</time></trkpt><trkpt lat="37.019337960670086" lon="15.181655256044284"><ele>64.0</ele><time>2026-04-06T09:12:40Z</time></trkpt><trkpt lat="37.01928285094475" lon="15.181528965008233"><ele>64.0</ele><time>2026-04-06T09:12:41Z</time></trkpt><trkpt lat="37.01922998303218" lon="15.181411374074075"><ele>64.0</ele><time>2026-04-06T09:12:42Z</time></trkpt><trkpt lat="37.0191786502482" lon="15.181295601177425"><ele>64.0</ele><time>2026-04-06T09:12:43Z</time></trkpt><trkpt lat="37.019123320829934" lon="15.181175255461913"><ele>64.0</ele><time>2026-04-06T09:12:44Z</time></trkpt><trkpt lat="37.01906993564922" lon="15.181053898581803"><ele>64.0</ele><time>2026-04-06T09:12:45Z</time></trkpt><trkpt lat="37.01901746574874" lon="15.180929697761526"><ele>64.0</ele><time>2026-04-06T09:12:46Z</time></trkpt><trkpt lat="37.01896765860649" lon="15.180811065007116"><ele>64.0</ele><time>2026-04-06T09:12:47Z</time></trkpt><trkpt lat="37.01891935587591" lon="15.180697126809156"><ele>64.0</ele><time>2026-04-06T09:12:48Z</time></trkpt><trkpt lat="37.0188808857973" lon="15.180590567496413"><ele>64.0</ele><time>2026-04-06T09:12:49Z</time></trkpt><trkpt lat="37.018859699005596" lon="15.180511020194139"><ele>64.0</ele><time>2026-04-06T09:12:50Z</time></trkpt><trkpt lat="37.01883886421965" lon="15.180425829104223"><ele>64.0</ele><time>2026-04-06T09:12:52Z</time></trkpt><trkpt lat="37.018791224506785" lon="15.18028594776617"><ele>64.16666666666666</ele><time>2026-04-06T09:12:54Z</time></trkpt><trkpt lat="37.0187525662923" lon="15.180187647666969"><ele>64.33333333333333</ele><time>2026-04-06T09:12:55Z</time></trkpt><trkpt lat="37.018711617229975" lon="15.180076744995809"><ele>64.5</ele><time>2026-04-06T09:12:56Z</time></trkpt><trkpt lat="37.01869226205422" lon="15.179965635748298"><ele>64.66666666666667</ele><time>2026-04-06T09:12:57Z</time></trkpt><trkpt lat="37.01866317821278" lon="15.179876323846527"><ele>64.83333333333334</ele><time>2026-04-06T09:12:58Z</time></trkpt><trkpt lat="37.01861742170751" lon="15.179781099692008"><ele>65.0</ele><time>2026-04-06T09:13:00Z</time></trkpt><trkpt lat="37.01862217356528" lon="15.179691667882295"><ele>65.5</ele><time>2026-04-06T09:13:03Z</time></trkpt><trkpt lat="37.018707325977516" lon="15.17961696675084"><ele>66.0</ele><time>2026-04-06T09:13:06Z</time></trkpt><trkpt lat="37.018785962400415" lon="15.179597459395088"><ele>66.5</ele><time>2026-04-06T09:13:07Z</time></trkpt><trkpt lat="37.018865565180256" lon="15.17955826004998"><ele>67.0</ele><time>2026-04-06T09:13:08Z</time></trkpt><trkpt lat="37.01893779622656" lon="15.179526991438303"><ele>67.5</ele><time>2026-04-06T09:13:09Z</time></trkpt><trkpt lat="37.01903322119525" lon="15.179484812686756"><ele>68.0</ele><time>2026-04-06T09:13:10Z</time></trkpt><trkpt lat="37.01914144974092" lon="15.17944058245551"><ele>68.25</ele><time>2026-04-06T09:13:11Z</time></trkpt><trkpt lat="37.01924602267853" lon="15.179398829331458"><ele>68.5</ele><time>2026-04-06T09:13:12Z</time></trkpt><trkpt lat="37.01936758495088" lon="15.179349054805488"><ele>68.75</ele><time>2026-04-06T09:13:13Z</time></trkpt><trkpt lat="37.019493102448514" lon="15.17929500003412"><ele>69.0</ele><time>2026-04-06T09:13:14Z</time></trkpt><trkpt lat="37.01960900108469" lon="15.179242672901083"><ele>69.0</ele><time>2026-04-06T09:13:15Z</time></trkpt><trkpt lat="37.01972571201004" lon="15.179179350169425"><ele>69.0</ele><time>2026-04-06T09:13:16Z</time></trkpt><trkpt lat="37.019838484391556" lon="15.179094104463024"><ele>69.0</ele><time>2026-04-06T09:13:17Z</time></trkpt><trkpt lat="37.01994866100164" lon="15.178990596529166"><ele>69.0</ele><time>2026-04-06T09:13:18Z</time></trkpt><trkpt lat="37.02005627513642" lon="15.178873054689152"><ele>69.33333333333333</ele><time>2026-04-06T09:13:19Z</time></trkpt><trkpt lat="37.02016347018056" lon="15.178749971104319"><ele>69.66666666666666</ele><time>2026-04-06T09:13:20Z</time></trkpt><trkpt lat="37.02027328976903" lon="15.178619556630641"><ele>70.0</ele><time>2026-04-06T09:13:20.999Z</time></trkpt><trkpt lat="37.02038916625099" lon="15.178484519413594"><ele>70.0</ele><time>2026-04-06T09:13:21.999Z</time></trkpt><trkpt lat="37.02050947469502" lon="15.17834910867469"><ele>70.0</ele><time>2026-04-06T09:13:22.999Z</time></trkpt><trkpt lat="37.02062996008381" lon="15.178208714636403"><ele>70.0</ele><time>2026-04-06T09:13:23.999Z</time></trkpt><trkpt lat="37.0207559614044" lon="15.178057864861875"><ele>71.0</ele><time>2026-04-06T09:13:24.999Z</time></trkpt><trkpt lat="37.02087911674317" lon="15.177909677356302"><ele>72.0</ele><time>2026-04-06T09:13:25.999Z</time></trkpt><trkpt lat="37.02099368855926" lon="15.177772011053348"><ele>73.0</ele><time>2026-04-06T09:13:26.999Z</time></trkpt><trkpt lat="37.02111341609195" lon="15.177627013348433"><ele>73.0</ele><time>2026-04-06T09:13:27.999Z</time></trkpt><trkpt lat="37.02123520426761" lon="15.177480776820133"><ele>73.0</ele><time>2026-04-06T09:13:28.999Z</time></trkpt><trkpt lat="37.021357483828126" lon="15.177335888965326"><ele>73.0</ele><time>2026-04-06T09:13:29.999Z</time></trkpt><trkpt lat="37.02148019237106" lon="15.177190308780125"><ele>73.66666666666666</ele><time>2026-04-06T09:13:30.999Z</time></trkpt><trkpt lat="37.02160395046212" lon="15.177046432770938"><ele>74.33333333333333</ele><time>2026-04-06T09:13:31.999Z</time></trkpt><trkpt lat="37.021724782153726" lon="15.176903488640034"><ele>75.0</ele><time>2026-04-06T09:13:32.999Z</time></trkpt><trkpt lat="37.02184584557331" lon="15.176762148857808"><ele>75.0</ele><time>2026-04-06T09:13:33.999Z</time></trkpt><trkpt lat="37.0219609312288" lon="15.176615225482966"><ele>75.0</ele><time>2026-04-06T09:13:34.999Z</time></trkpt><trkpt lat="37.02207204916373" lon="15.1764609480909"><ele>75.0</ele><time>2026-04-06T09:13:35.999Z</time></trkpt><trkpt lat="37.0221912791388" lon="15.176311946901897"><ele>75.33333333333333</ele><time>2026-04-06T09:13:36.999Z</time></trkpt><trkpt lat="37.02227062954142" lon="15.17611711965147"><ele>75.66666666666666</ele><time>2026-04-06T09:13:37.999Z</time></trkpt><trkpt lat="37.02236020328451" lon="15.175931405889914"><ele>76.0</ele><time>2026-04-06T09:13:38.999Z</time></trkpt><trkpt lat="37.02244763031957" lon="15.17573919314769"><ele>76.0</ele><time>2026-04-06T09:13:39.999Z</time></trkpt><trkpt lat="37.022531815579114" lon="15.175542907660624"><ele>76.0</ele><time>2026-04-06T09:13:40.999Z</time></trkpt><trkpt lat="37.02261830197003" lon="15.175343813143337"><ele>76.0</ele><time>2026-04-06T09:13:41.999Z</time></trkpt><trkpt lat="37.022705081320076" lon="15.175143108048792"><ele>76.0</ele><time>2026-04-06T09:13:42.999Z</time></trkpt><trkpt lat="37.02279220266806" lon="15.174941109777395"><ele>76.0</ele><time>2026-04-06T09:13:43.999Z</time></trkpt><trkpt lat="37.022878382893936" lon="15.174739361937126"><ele>76.0</ele><time>2026-04-06T09:13:44.999Z</time></trkpt><trkpt lat="37.0229664257316" lon="15.174538346566575"><ele>76.0</ele><time>2026-04-06T09:13:45.999Z</time></trkpt><trkpt lat="37.02305374212394" lon="15.174340509122459"><ele>76.0</ele><time>2026-04-06T09:13:46.999Z</time></trkpt><trkpt lat="37.02313812749555" lon="15.17414451055659"><ele>76.0</ele><time>2026-04-06T09:13:47.999Z</time></trkpt><trkpt lat="37.02322048511121" lon="15.17395706963341"><ele>76.66666666666666</ele><time>2026-04-06T09:13:48.999Z</time></trkpt><trkpt lat="37.02330127759184" lon="15.17377950055631"><ele>77.33333333333333</ele><time>2026-04-06T09:13:49.999Z</time></trkpt><trkpt lat="37.02338142478081" lon="15.173597185129234"><ele>78.0</ele><time>2026-04-06T09:13:50.999Z</time></trkpt><trkpt lat="37.02346003693674" lon="15.173409853975507"><ele>78.0</ele><time>2026-04-06T09:13:51.999Z</time></trkpt><trkpt lat="37.02353794942451" lon="15.17321657474043"><ele>78.0</ele><time>2026-04-06T09:13:52.999Z</time></trkpt><trkpt lat="37.02361689803028" lon="15.173022660885572"><ele>78.0</ele><time>2026-04-06T09:13:53.999Z</time></trkpt><trkpt lat="37.02369887659867" lon="15.172828015796537"><ele>77.66666666666667</ele><time>2026-04-06T09:13:54.999Z</time></trkpt><trkpt lat="37.02378480937933" lon="15.17263473291364"><ele>77.33333333333334</ele><time>2026-04-06T09:13:55.999Z</time></trkpt><trkpt lat="37.02387068692324" lon="15.172439887749542"><ele>77.0</ele><time>2026-04-06T09:13:56.999Z</time></trkpt><trkpt lat="37.02395716045918" lon="15.172243979760735"><ele>76.66666666666667</ele><time>2026-04-06T09:13:57.999Z</time></trkpt><trkpt lat="37.0240441373245" lon="15.172047376626882"><ele>76.33333333333333</ele><time>2026-04-06T09:13:58.999Z</time></trkpt><trkpt lat="37.02413009940404" lon="15.171849023802361"><ele>76.0</ele><time>2026-04-06T09:13:59.999Z</time></trkpt><trkpt lat="37.02421438260936" lon="15.171647397795619"><ele>76.66666666666666</ele><time>2026-04-06T09:14:00.999Z</time></trkpt><trkpt lat="37.02430058125884" lon="15.171447650357074"><ele>77.33333333333333</ele><time>2026-04-06T09:14:01.999Z</time></trkpt><trkpt lat="37.024387495625746" lon="15.171248704622176"><ele>78.0</ele><time>2026-04-06T09:14:02.999Z</time></trkpt><trkpt lat="37.02447655263501" lon="15.17105198036177"><ele>78.0</ele><time>2026-04-06T09:14:03.999Z</time></trkpt><trkpt lat="37.02456513916615" lon="15.170854437917368"><ele>78.0</ele><time>2026-04-06T09:14:04.999Z</time></trkpt><trkpt lat="37.02465309330514" lon="15.170656863655285"><ele>78.0</ele><time>2026-04-06T09:14:05.999Z</time></trkpt><trkpt lat="37.0247374711126" lon="15.17045974816289"><ele>78.33333333333333</ele><time>2026-04-06T09:14:06.999Z</time></trkpt><trkpt lat="37.024820160363745" lon="15.170261891608929"><ele>78.66666666666666</ele><time>2026-04-06T09:14:07.999Z</time></trkpt><trkpt lat="37.02490382272469" lon="15.170065351454712"><ele>79.0</ele><time>2026-04-06T09:14:08.999Z</time></trkpt><trkpt lat="37.02498859299028" lon="15.169875939968593"><ele>79.66666666666666</ele><time>2026-04-06T09:14:09.999Z</time></trkpt><trkpt lat="37.02506647772656" lon="15.169698041339176"><ele>80.33333333333333</ele><time>2026-04-06T09:14:11Z</time></trkpt><trkpt lat="37.025137780727825" lon="15.169527444824848"><ele>81.0</ele><time>2026-04-06T09:14:12Z</time></trkpt><trkpt lat="37.025199748082635" lon="15.169356137014589"><ele>81.0</ele><time>2026-04-06T09:14:13Z</time></trkpt><trkpt lat="37.025248482362564" lon="15.169174712070713"><ele>81.0</ele><time>2026-04-06T09:14:14Z</time></trkpt><trkpt lat="37.02528389964604" lon="15.16898812155469"><ele>81.0</ele><time>2026-04-06T09:14:15Z</time></trkpt><trkpt lat="37.02529500434015" lon="15.168799616124945"><ele>82.33333333333333</ele><time>2026-04-06T09:14:16Z</time></trkpt><trkpt lat="37.02528509306286" lon="15.16861014069818"><ele>83.66666666666666</ele><time>2026-04-06T09:14:17Z</time></trkpt><trkpt lat="37.025257421270304" lon="15.168422346387356"><ele>85.0</ele><time>2026-04-06T09:14:18Z</time></trkpt><trkpt lat="37.025210529431966" lon="15.16823969747554"><ele>86.66666666666666</ele><time>2026-04-06T09:14:19Z</time></trkpt><trkpt lat="37.02514951983423" lon="15.168058194786243"><ele>88.33333333333333</ele><time>2026-04-06T09:14:20Z</time></trkpt><trkpt lat="37.025079119952764" lon="15.167876137102672"><ele>90.0</ele><time>2026-04-06T09:14:21Z</time></trkpt><trkpt lat="37.02500436992515" lon="15.167693329307212"><ele>90.0</ele><time>2026-04-06T09:14:22Z</time></trkpt><trkpt lat="37.02492962725048" lon="15.167506854391503"><ele>90.0</ele><time>2026-04-06T09:14:23Z</time></trkpt><trkpt lat="37.02485191959461" lon="15.16731832728873"><ele>90.0</ele><time>2026-04-06T09:14:24Z</time></trkpt><trkpt lat="37.024775738888955" lon="15.167129451257633"><ele>90.0</ele><time>2026-04-06T09:14:25Z</time></trkpt><trkpt lat="37.0247022790082" lon="15.166937813995604"><ele>90.0</ele><time>2026-04-06T09:14:26Z</time></trkpt><trkpt lat="37.024626814533164" lon="15.166744261425443"><ele>90.0</ele><time>2026-04-06T09:14:27Z</time></trkpt><trkpt lat="37.024546897463566" lon="15.1665533827111"><ele>90.66666666666667</ele><time>2026-04-06T09:14:28Z</time></trkpt><trkpt lat="37.0244661556821" lon="15.166362395569319"><ele>91.33333333333334</ele><time>2026-04-06T09:14:29Z</time></trkpt><trkpt lat="37.02438516236645" lon="15.16617572106699"><ele>92.0</ele><time>2026-04-06T09:14:30Z</time></trkpt><trkpt lat="37.02430902560396" lon="15.16600238974007"><ele>92.0</ele><time>2026-04-06T09:14:31Z</time></trkpt><trkpt lat="37.024246265444866" lon="15.165843607148746"><ele>92.0</ele><time>2026-04-06T09:14:32Z</time></trkpt><trkpt lat="37.02419873303806" lon="15.165705008028002"><ele>92.0</ele><time>2026-04-06T09:14:33Z</time></trkpt><trkpt lat="37.02415871087921" lon="15.165589698576849"><ele>92.0</ele><time>2026-04-06T09:14:34Z</time></trkpt><trkpt lat="37.024139535636216" lon="15.16550282845579"><ele>92.0</ele><time>2026-04-06T09:14:35Z</time></trkpt><trkpt lat="37.024174849827126" lon="15.16536956914286"><ele>92.6</ele><time>2026-04-06T09:14:37Z</time></trkpt><trkpt lat="37.024291289196206" lon="15.165318732727691"><ele>93.19999999999999</ele><time>2026-04-06T09:14:39Z</time></trkpt><trkpt lat="37.02436749020285" lon="15.165323515360113"><ele>93.8</ele><time>2026-04-06T09:14:40Z</time></trkpt><trkpt lat="37.024454864271185" lon="15.165334619093144"><ele>94.4</ele><time>2026-04-06T09:14:41Z</time></trkpt><trkpt lat="37.02455488386998" lon="15.165354007976944"><ele>95.0</ele><time>2026-04-06T09:14:42Z</time></trkpt><trkpt lat="37.02466881586156" lon="15.165374708098929"><ele>95.0</ele><time>2026-04-06T09:14:43Z</time></trkpt><trkpt lat="37.02479039047222" lon="15.165395082514502"><ele>95.0</ele><time>2026-04-06T09:14:44Z</time></trkpt><trkpt lat="37.02492064064" lon="15.165419191877785"><ele>95.0</ele><time>2026-04-06T09:14:45Z</time></trkpt><trkpt lat="37.02505062652967" lon="15.165447252045244"><ele>95.0</ele><time>2026-04-06T09:14:46Z</time></trkpt><trkpt lat="37.02518084208226" lon="15.16546953379577"><ele>95.0</ele><time>2026-04-06T09:14:47Z</time></trkpt><trkpt lat="37.025303011649505" lon="15.16549023366469"><ele>95.0</ele><time>2026-04-06T09:14:48Z</time></trkpt><trkpt lat="37.02542713734073" lon="15.16551074540013"><ele>95.0</ele><time>2026-04-06T09:14:49Z</time></trkpt><trkpt lat="37.02553325680044" lon="15.1655249622206"><ele>95.0</ele><time>2026-04-06T09:14:50Z</time></trkpt><trkpt lat="37.025628439507024" lon="15.16554045996678"><ele>95.0</ele><time>2026-04-06T09:14:51Z</time></trkpt><trkpt lat="37.02572524954193" lon="15.165552699318287"><ele>95.0</ele><time>2026-04-06T09:14:52Z</time></trkpt><trkpt lat="37.02583651612819" lon="15.165586190205381"><ele>95.0</ele><time>2026-04-06T09:14:53Z</time></trkpt><trkpt lat="37.02596343805075" lon="15.16560749321022"><ele>95.0</ele><time>2026-04-06T09:14:54Z</time></trkpt><trkpt lat="37.02610640106056" lon="15.165618986469488"><ele>94.75</ele><time>2026-04-06T09:14:55Z</time></trkpt><trkpt lat="37.02625083949997" lon="15.165647170921936"><ele>94.5</ele><time>2026-04-06T09:14:56Z</time></trkpt><trkpt lat="37.02639118801881" lon="15.16567305345294"><ele>94.25</ele><time>2026-04-06T09:14:56.999Z</time></trkpt><trkpt lat="37.026539307692914" lon="15.165697521858228"><ele>94.0</ele><time>2026-04-06T09:14:57.999Z</time></trkpt><trkpt lat="37.02669686712524" lon="15.165717487156938"><ele>93.0</ele><time>2026-04-06T09:14:58.999Z</time></trkpt><trkpt lat="37.02685859095627" lon="15.165745562935054"><ele>92.0</ele><time>2026-04-06T09:14:59.999Z</time></trkpt><trkpt lat="37.02702953195367" lon="15.16576976350557"><ele>91.0</ele><time>2026-04-06T09:15:00.999Z</time></trkpt><trkpt lat="37.02720207469141" lon="15.165819793779225"><ele>91.0</ele><time>2026-04-06T09:15:01.999Z</time></trkpt><trkpt lat="37.02736831878434" lon="15.165830842074852"><ele>91.0</ele><time>2026-04-06T09:15:02.999Z</time></trkpt><trkpt lat="37.02752643295452" lon="15.165865586000539"><ele>91.0</ele><time>2026-04-06T09:15:03.999Z</time></trkpt><trkpt lat="37.02768155713708" lon="15.165898738132578"><ele>90.33333333333333</ele><time>2026-04-06T09:15:04.999Z</time></trkpt><trkpt lat="37.02783867877705" lon="15.165922477216151"><ele>89.66666666666667</ele><time>2026-04-06T09:15:05.999Z</time></trkpt><trkpt lat="37.027993166503876" lon="15.165926349865073"><ele>89.0</ele><time>2026-04-06T09:15:06.999Z</time></trkpt><trkpt lat="37.02814326446322" lon="15.165919136931642"><ele>89.0</ele><time>2026-04-06T09:15:07.999Z</time></trkpt><trkpt lat="37.028292670980825" lon="15.165906160328252"><ele>89.0</ele><time>2026-04-06T09:15:08.999Z</time></trkpt><trkpt lat="37.02844229946747" lon="15.16588643241484"><ele>89.0</ele><time>2026-04-06T09:15:09.999Z</time></trkpt><trkpt lat="37.02859171608714" lon="15.165863900383153"><ele>87.33333333333334</ele><time>2026-04-06T09:15:10.999Z</time></trkpt><trkpt lat="37.02874302514791" lon="15.165848041213675"><ele>85.66666666666667</ele><time>2026-04-06T09:15:11.999Z</time></trkpt><trkpt lat="37.028895320254485" lon="15.165831724465516"><ele>84.0</ele><time>2026-04-06T09:15:12.999Z</time></trkpt><trkpt lat="37.02904063876649" lon="15.165814292308688"><ele>83.25</ele><time>2026-04-06T09:15:13.999Z</time></trkpt><trkpt lat="37.02917824860403" lon="15.165792770164565"><ele>82.5</ele><time>2026-04-06T09:15:14.999Z</time></trkpt><trkpt lat="37.02930901025217" lon="15.165765314048143"><ele>81.75</ele><time>2026-04-06T09:15:15.999Z</time></trkpt><trkpt lat="37.029432717978494" lon="15.165727031039063"><ele>81.0</ele><time>2026-04-06T09:15:16.999Z</time></trkpt><trkpt lat="37.029555300778256" lon="15.16567834133238"><ele>81.0</ele><time>2026-04-06T09:15:17.999Z</time></trkpt><trkpt lat="37.029675779781456" lon="15.165625498606923"><ele>81.0</ele><time>2026-04-06T09:15:18.999Z</time></trkpt><trkpt lat="37.0297949218354" lon="15.165559009612531"><ele>81.0</ele><time>2026-04-06T09:15:19.999Z</time></trkpt><trkpt lat="37.02991056417358" lon="15.165489219236525"><ele>81.0</ele><time>2026-04-06T09:15:20.999Z</time></trkpt><trkpt lat="37.030026577121625" lon="15.165406375592832"><ele>80.25</ele><time>2026-04-06T09:15:21.999Z</time></trkpt><trkpt lat="37.03013558629242" lon="15.16531529405925"><ele>79.5</ele><time>2026-04-06T09:15:22.999Z</time></trkpt><trkpt lat="37.030238709470666" lon="15.165214406307507"><ele>78.75</ele><time>2026-04-06T09:15:23.999Z</time></trkpt><trkpt lat="37.03034139475859" lon="15.165107080525644"><ele>78.0</ele><time>2026-04-06T09:15:24.999Z</time></trkpt><trkpt lat="37.030448434886075" lon="15.164993279706778"><ele>78.0</ele><time>2026-04-06T09:15:25.999Z</time></trkpt><trkpt lat="37.030555856214484" lon="15.164876926237818"><ele>78.0</ele><time>2026-04-06T09:15:26.999Z</time></trkpt><trkpt lat="37.03066299700818" lon="15.164763634888082"><ele>78.0</ele><time>2026-04-06T09:15:27.999Z</time></trkpt><trkpt lat="37.030782591492795" lon="15.164622430480295"><ele>78.0</ele><time>2026-04-06T09:15:28.999Z</time></trkpt><trkpt lat="37.03090284002201" lon="15.164489084911393"><ele>78.66666666666667</ele><time>2026-04-06T09:15:29.999Z</time></trkpt><trkpt lat="37.031028229264095" lon="15.164348228832047"><ele>79.33333333333334</ele><time>2026-04-06T09:15:30.999Z</time></trkpt><trkpt lat="37.031152377514836" lon="15.164210467995446"><ele>80.0</ele><time>2026-04-06T09:15:31.999Z</time></trkpt><trkpt lat="37.031274804102246" lon="15.164073470980316"><ele>80.33333333333334</ele><time>2026-04-06T09:15:32.999Z</time></trkpt><trkpt lat="37.031401513178395" lon="15.163927196673159"><ele>80.66666666666667</ele><time>2026-04-06T09:15:33.999Z</time></trkpt><trkpt lat="37.031528526141" lon="15.163775989179225"><ele>81.0</ele><time>2026-04-06T09:15:34.999Z</time></trkpt><trkpt lat="37.03165989617552" lon="15.163642729171976"><ele>80.33333333333333</ele><time>2026-04-06T09:15:35.999Z</time></trkpt><trkpt lat="37.03179806286176" lon="15.163474617825788"><ele>79.66666666666666</ele><time>2026-04-06T09:15:36.999Z</time></trkpt><trkpt lat="37.03193348238632" lon="15.163328286543884"><ele>79.0</ele><time>2026-04-06T09:15:37.999Z</time></trkpt><trkpt lat="37.032064543364925" lon="15.163171400713106"><ele>79.0</ele><time>2026-04-06T09:15:38.999Z</time></trkpt><trkpt lat="37.03219960612019" lon="15.163016002343639"><ele>79.0</ele><time>2026-04-06T09:15:39.999Z</time></trkpt><trkpt lat="37.03233477101874" lon="15.162859266464151"><ele>79.0</ele><time>2026-04-06T09:15:40.999Z</time></trkpt><trkpt lat="37.032471742799764" lon="15.1627022054945"><ele>78.66666666666666</ele><time>2026-04-06T09:15:41.999Z</time></trkpt><trkpt lat="37.03260875203511" lon="15.162545990164512"><ele>78.33333333333333</ele><time>2026-04-06T09:15:42.999Z</time></trkpt><trkpt lat="37.03274853736865" lon="15.162386679949563"><ele>78.0</ele><time>2026-04-06T09:15:43.999Z</time></trkpt><trkpt lat="37.03289334877872" lon="15.162229903446871"><ele>78.33333333333333</ele><time>2026-04-06T09:15:44.999Z</time></trkpt><trkpt lat="37.033036474597" lon="15.16206698210288"><ele>78.66666666666666</ele><time>2026-04-06T09:15:45.999Z</time></trkpt><trkpt lat="37.03318126878806" lon="15.161901202416793"><ele>79.0</ele><time>2026-04-06T09:15:46.999Z</time></trkpt><trkpt lat="37.03332364787877" lon="15.161740255102023"><ele>79.0</ele><time>2026-04-06T09:15:47.999Z</time></trkpt><trkpt lat="37.033463463940905" lon="15.161579433615648"><ele>79.0</ele><time>2026-04-06T09:15:48.999Z</time></trkpt><trkpt lat="37.03360273235618" lon="15.161421089650467"><ele>79.0</ele><time>2026-04-06T09:15:49.999Z</time></trkpt><trkpt lat="37.0337400214072" lon="15.161261943091612"><ele>79.33333333333333</ele><time>2026-04-06T09:15:50.999Z</time></trkpt><trkpt lat="37.03387506696581" lon="15.16110552885862"><ele>79.66666666666667</ele><time>2026-04-06T09:15:51.999Z</time></trkpt><trkpt lat="37.03401390043554" lon="15.1609477672118"><ele>80.0</ele><time>2026-04-06T09:15:52.999Z</time></trkpt><trkpt lat="37.03415439035187" lon="15.16078476401206"><ele>81.0</ele><time>2026-04-06T09:15:53.999Z</time></trkpt><trkpt lat="37.03430048538976" lon="15.160624055127931"><ele>82.0</ele><time>2026-04-06T09:15:54.999Z</time></trkpt><trkpt lat="37.03444534065739" lon="15.160460196437786"><ele>83.0</ele><time>2026-04-06T09:15:55.999Z</time></trkpt><trkpt lat="37.034587469250575" lon="15.16029269289048"><ele>83.0</ele><time>2026-04-06T09:15:56.999Z</time></trkpt><trkpt lat="37.03473074379195" lon="15.160124778879966"><ele>83.0</ele><time>2026-04-06T09:15:57.999Z</time></trkpt><trkpt lat="37.03487500542026" lon="15.159957939892813"><ele>83.0</ele><time>2026-04-06T09:15:58.999Z</time></trkpt><trkpt lat="37.03502225730698" lon="15.159790258602316"><ele>83.66666666666667</ele><time>2026-04-06T09:15:59.999Z</time></trkpt><trkpt lat="37.035167776037895" lon="15.15962023049904"><ele>84.33333333333333</ele><time>2026-04-06T09:16:00.999Z</time></trkpt><trkpt lat="37.035315705575734" lon="15.159451152007922"><ele>85.0</ele><time>2026-04-06T09:16:01.999Z</time></trkpt><trkpt lat="37.03546202402245" lon="15.15928086586914"><ele>85.0</ele><time>2026-04-06T09:16:02.999Z</time></trkpt><trkpt lat="37.03560873980152" lon="15.159109556611105"><ele>85.0</ele><time>2026-04-06T09:16:03.999Z</time></trkpt><trkpt lat="37.03575976484254" lon="15.158938231127179"><ele>85.0</ele><time>2026-04-06T09:16:04.999Z</time></trkpt><trkpt lat="37.03591090361092" lon="15.158768119530817"><ele>84.33333333333333</ele><time>2026-04-06T09:16:05.999Z</time></trkpt><trkpt lat="37.036056328363486" lon="15.158613424948623"><ele>83.66666666666667</ele><time>2026-04-06T09:16:06.999Z</time></trkpt><trkpt lat="37.03621466983884" lon="15.15841648789719"><ele>83.0</ele><time>2026-04-06T09:16:07.999Z</time></trkpt><trkpt lat="37.036366005613274" lon="15.158241781599443"><ele>83.33333333333334</ele><time>2026-04-06T09:16:08.999Z</time></trkpt><trkpt lat="37.03651896808824" lon="15.158068233729907"><ele>83.66666666666667</ele><time>2026-04-06T09:16:09.999Z</time></trkpt><trkpt lat="37.036674091856575" lon="15.157885655169734"><ele>84.0</ele><time>2026-04-06T09:16:10.999Z</time></trkpt><trkpt lat="37.03682963746674" lon="15.15770059174836"><ele>84.0</ele><time>2026-04-06T09:16:11.999Z</time></trkpt><trkpt lat="37.036988624919054" lon="15.157518160649442"><ele>84.0</ele><time>2026-04-06T09:16:12.999Z</time></trkpt><trkpt lat="37.037148565899976" lon="15.157341236959972"><ele>84.0</ele><time>2026-04-06T09:16:13.999Z</time></trkpt><trkpt lat="37.03729673282359" lon="15.15718929773048"><ele>84.5</ele><time>2026-04-06T09:16:14.999Z</time></trkpt><trkpt lat="37.037459612460445" lon="15.156986829611721"><ele>85.0</ele><time>2026-04-06T09:16:15.999Z</time></trkpt><trkpt lat="37.037618370708714" lon="15.156792212504385"><ele>84.33333333333333</ele><time>2026-04-06T09:16:16.999Z</time></trkpt><trkpt lat="37.037769283434166" lon="15.156638901859692"><ele>83.66666666666667</ele><time>2026-04-06T09:16:17.999Z</time></trkpt><trkpt lat="37.03791601020826" lon="15.15650116958096"><ele>83.0</ele><time>2026-04-06T09:16:18.999Z</time></trkpt><trkpt lat="37.0380721552731" lon="15.156329237589263"><ele>83.0</ele><time>2026-04-06T09:16:19.999Z</time></trkpt><trkpt lat="37.038222294552696" lon="15.156131985868814"><ele>83.0</ele><time>2026-04-06T09:16:20.999Z</time></trkpt><trkpt lat="37.03836807649957" lon="15.155953128719686"><ele>83.0</ele><time>2026-04-06T09:16:21.999Z</time></trkpt><trkpt lat="37.038509976648974" lon="15.155808181765492"><ele>83.0</ele><time>2026-04-06T09:16:22.999Z</time></trkpt><trkpt lat="37.03864277699434" lon="15.155659984620867"><ele>83.0</ele><time>2026-04-06T09:16:23.999Z</time></trkpt><trkpt lat="37.03877605090636" lon="15.155520016809763"><ele>83.0</ele><time>2026-04-06T09:16:24.999Z</time></trkpt><trkpt lat="37.038914416664674" lon="15.15538063740283"><ele>83.0</ele><time>2026-04-06T09:16:25.999Z</time></trkpt><trkpt lat="37.039057557157136" lon="15.155255718298678"><ele>83.0</ele><time>2026-04-06T09:16:26.999Z</time></trkpt><trkpt lat="37.0392103250872" lon="15.155173770893919"><ele>83.0</ele><time>2026-04-06T09:16:27.999Z</time></trkpt><trkpt lat="37.039382870679475" lon="15.155087543618606"><ele>83.33333333333334</ele><time>2026-04-06T09:16:28.999Z</time></trkpt><trkpt lat="37.03955810453167" lon="15.155048594323858"><ele>83.66666666666667</ele><time>2026-04-06T09:16:29.999Z</time></trkpt><trkpt lat="37.039745197149074" lon="15.15504648494841"><ele>84.0</ele><time>2026-04-06T09:16:30.999Z</time></trkpt><trkpt lat="37.03994826512558" lon="15.155011752938938"><ele>83.66666666666667</ele><time>2026-04-06T09:16:31.999Z</time></trkpt><trkpt lat="37.04015442200456" lon="15.155012150896981"><ele>83.33333333333334</ele><time>2026-04-06T09:16:32.999Z</time></trkpt><trkpt lat="37.040362371785015" lon="15.155009389911278"><ele>83.0</ele><time>2026-04-06T09:16:33.999Z</time></trkpt><trkpt lat="37.04056627628461" lon="15.154999638777628"><ele>83.0</ele><time>2026-04-06T09:16:34.999Z</time></trkpt><trkpt lat="37.04077051830051" lon="15.15498766925884"><ele>83.0</ele><time>2026-04-06T09:16:35.999Z</time></trkpt><trkpt lat="37.04097341049526" lon="15.154974497213447"><ele>83.0</ele><time>2026-04-06T09:16:36.999Z</time></trkpt><trkpt lat="37.04117837542711" lon="15.1549670167254"><ele>82.33333333333334</ele><time>2026-04-06T09:16:37.999Z</time></trkpt><trkpt lat="37.041384145717714" lon="15.154965736193388"><ele>81.66666666666667</ele><time>2026-04-06T09:16:38.999Z</time></trkpt><trkpt lat="37.04159505407769" lon="15.15496889917197"><ele>81.0</ele><time>2026-04-06T09:16:39.999Z</time></trkpt><trkpt lat="37.04180763251907" lon="15.154974012387928"><ele>81.0</ele><time>2026-04-06T09:16:40.999Z</time></trkpt><trkpt lat="37.042021617740936" lon="15.15498483373008"><ele>81.0</ele><time>2026-04-06T09:16:41.999Z</time></trkpt><trkpt lat="37.042239258395036" lon="15.155001038964313"><ele>81.0</ele><time>2026-04-06T09:16:42.999Z</time></trkpt><trkpt lat="37.04245719476649" lon="15.155017438455225"><ele>80.66666666666667</ele><time>2026-04-06T09:16:43.999Z</time></trkpt><trkpt lat="37.0426764896593" lon="15.155034727334254"><ele>80.33333333333334</ele><time>2026-04-06T09:16:44.999Z</time></trkpt><trkpt lat="37.04289078364494" lon="15.155061350423757"><ele>80.0</ele><time>2026-04-06T09:16:45.999Z</time></trkpt><trkpt lat="37.0431015985968" lon="15.155086229977147"><ele>78.66666666666667</ele><time>2026-04-06T09:16:46.999Z</time></trkpt><trkpt lat="37.043302587012406" lon="15.155111791465517"><ele>77.33333333333333</ele><time>2026-04-06T09:16:47.999Z</time></trkpt><trkpt lat="37.04349435995647" lon="15.155136761809528"><ele>76.0</ele><time>2026-04-06T09:16:48.999Z</time></trkpt><trkpt lat="37.043680426467716" lon="15.15515730522309"><ele>76.0</ele><time>2026-04-06T09:16:49.999Z</time></trkpt><trkpt lat="37.04386135679089" lon="15.155168989444148"><ele>76.0</ele><time>2026-04-06T09:16:50.999Z</time></trkpt><trkpt lat="37.04403737313394" lon="15.155168458352698"><ele>76.0</ele><time>2026-04-06T09:16:51.999Z</time></trkpt><trkpt lat="37.044209004656736" lon="15.15514806527159"><ele>75.0</ele><time>2026-04-06T09:16:52.999Z</time></trkpt><trkpt lat="37.04437995431724" lon="15.15512567117945"><ele>74.0</ele><time>2026-04-06T09:16:53.999Z</time></trkpt><trkpt lat="37.04454883771714" lon="15.155105581115617"><ele>73.0</ele><time>2026-04-06T09:16:54.999Z</time></trkpt><trkpt lat="37.044720541959975" lon="15.155081217418683"><ele>73.0</ele><time>2026-04-06T09:16:55.999Z</time></trkpt><trkpt lat="37.04489544770267" lon="15.15505705898833"><ele>73.0</ele><time>2026-04-06T09:16:56.999Z</time></trkpt><trkpt lat="37.04507026872489" lon="15.155038286056989"><ele>73.0</ele><time>2026-04-06T09:16:57.999Z</time></trkpt><trkpt lat="37.04524900870978" lon="15.155017610536957"><ele>71.66666666666666</ele><time>2026-04-06T09:16:58.999Z</time></trkpt><trkpt lat="37.045426558975485" lon="15.154992134802017"><ele>70.33333333333333</ele><time>2026-04-06T09:16:59.999Z</time></trkpt><trkpt lat="37.04559929930019" lon="15.154966631284974"><ele>69.0</ele><time>2026-04-06T09:17:00.999Z</time></trkpt><trkpt lat="37.045768389012764" lon="15.154946244184408"><ele>69.0</ele><time>2026-04-06T09:17:01.999Z</time></trkpt><trkpt lat="37.04593137543874" lon="15.15492447205645"><ele>69.0</ele><time>2026-04-06T09:17:02.999Z</time></trkpt><trkpt lat="37.04609555675688" lon="15.154902336656416"><ele>69.0</ele><time>2026-04-06T09:17:03.999Z</time></trkpt><trkpt lat="37.046265007230545" lon="15.154886276218537"><ele>69.33333333333333</ele><time>2026-04-06T09:17:04.999Z</time></trkpt><trkpt lat="37.04643429856881" lon="15.15486648042401"><ele>69.66666666666666</ele><time>2026-04-06T09:17:05.999Z</time></trkpt><trkpt lat="37.046607105969215" lon="15.15484164630832"><ele>70.0</ele><time>2026-04-06T09:17:06.999Z</time></trkpt><trkpt lat="37.046780593898106" lon="15.154816975654553"><ele>70.0</ele><time>2026-04-06T09:17:07.999Z</time></trkpt><trkpt lat="37.046951357558434" lon="15.15479750052377"><ele>70.0</ele><time>2026-04-06T09:17:08.999Z</time></trkpt><trkpt lat="37.047119282172595" lon="15.154777316433046"><ele>70.0</ele><time>2026-04-06T09:17:09.999Z</time></trkpt><trkpt lat="37.047287769923436" lon="15.154752152382676"><ele>70.0</ele><time>2026-04-06T09:17:10.999Z</time></trkpt><trkpt lat="37.04746018189779" lon="15.154715627169551"><ele>70.0</ele><time>2026-04-06T09:17:11.999Z</time></trkpt><trkpt lat="37.04763176251295" lon="15.154660753905098"><ele>70.0</ele><time>2026-04-06T09:17:12.999Z</time></trkpt><trkpt lat="37.04779396090278" lon="15.1545823165775"><ele>70.0</ele><time>2026-04-06T09:17:13.999Z</time></trkpt><trkpt lat="37.047947411574306" lon="15.154473552274064"><ele>70.0</ele><time>2026-04-06T09:17:14.999Z</time></trkpt><trkpt lat="37.04810009061239" lon="15.15434649727105"><ele>70.0</ele><time>2026-04-06T09:17:15.999Z</time></trkpt><trkpt lat="37.048252825219556" lon="15.154211693676123"><ele>70.0</ele><time>2026-04-06T09:17:16.999Z</time></trkpt><trkpt lat="37.04840762831039" lon="15.154071113178489"><ele>70.0</ele><time>2026-04-06T09:17:17.999Z</time></trkpt><trkpt lat="37.04856863552285" lon="15.153932040946168"><ele>70.0</ele><time>2026-04-06T09:17:18.999Z</time></trkpt><trkpt lat="37.04872954571509" lon="15.153792988301163"><ele>70.0</ele><time>2026-04-06T09:17:19.999Z</time></trkpt><trkpt lat="37.04888856889974" lon="15.153652058920608"><ele>70.0</ele><time>2026-04-06T09:17:20.999Z</time></trkpt><trkpt lat="37.04904640025018" lon="15.153513792070033"><ele>70.0</ele><time>2026-04-06T09:17:21.999Z</time></trkpt><trkpt lat="37.04920575688335" lon="15.153375369386872"><ele>70.66666666666666</ele><time>2026-04-06T09:17:22.999Z</time></trkpt><trkpt lat="37.049364452475984" lon="15.153235765066224"><ele>71.33333333333333</ele><time>2026-04-06T09:17:23.999Z</time></trkpt><trkpt lat="37.049523459121694" lon="15.153096403433208"><ele>72.0</ele><time>2026-04-06T09:17:24.999Z</time></trkpt><trkpt lat="37.04968358720284" lon="15.152960459278873"><ele>72.0</ele><time>2026-04-06T09:17:25.999Z</time></trkpt><trkpt lat="37.04984541155238" lon="15.1528236802249"><ele>72.0</ele><time>2026-04-06T09:17:26.999Z</time></trkpt><trkpt lat="37.05000568695621" lon="15.152685906184066"><ele>72.0</ele><time>2026-04-06T09:17:27.999Z</time></trkpt><trkpt lat="37.050166439438875" lon="15.152547172073076"><ele>72.0</ele><time>2026-04-06T09:17:28.999Z</time></trkpt><trkpt lat="37.050325206498236" lon="15.152404913088626"><ele>72.0</ele><time>2026-04-06T09:17:29.999Z</time></trkpt><trkpt lat="37.050483635239054" lon="15.152263186306707"><ele>72.0</ele><time>2026-04-06T09:17:30.999Z</time></trkpt><trkpt lat="37.05064331213029" lon="15.152125927571245"><ele>73.33333333333333</ele><time>2026-04-06T09:17:31.999Z</time></trkpt><trkpt lat="37.050804819642764" lon="15.1519891339732"><ele>74.66666666666666</ele><time>2026-04-06T09:17:32.999Z</time></trkpt><trkpt lat="37.05096599197868" lon="15.15185373038843"><ele>76.0</ele><time>2026-04-06T09:17:33.999Z</time></trkpt><trkpt lat="37.05112697730474" lon="15.151715950834912"><ele>76.0</ele><time>2026-04-06T09:17:34.999Z</time></trkpt><trkpt lat="37.05128386536368" lon="15.151575802673591"><ele>76.0</ele><time>2026-04-06T09:17:35.999Z</time></trkpt><trkpt lat="37.0514404716234" lon="15.151437077354363"><ele>76.0</ele><time>2026-04-06T09:17:36.999Z</time></trkpt><trkpt lat="37.05159860655141" lon="15.151301525312059"><ele>78.0</ele><time>2026-04-06T09:17:37.999Z</time></trkpt><trkpt lat="37.05175123748477" lon="15.151177168052053"><ele>80.0</ele><time>2026-04-06T09:17:38.999Z</time></trkpt><trkpt lat="37.05190201021949" lon="15.151070465327484"><ele>82.0</ele><time>2026-04-06T09:17:39.999Z</time></trkpt><trkpt lat="37.05206416122446" lon="15.150981592954759"><ele>82.0</ele><time>2026-04-06T09:17:40.999Z</time></trkpt><trkpt lat="37.052218659925686" lon="15.150916226007691"><ele>82.0</ele><time>2026-04-06T09:17:41.999Z</time></trkpt><trkpt lat="37.052387709493104" lon="15.150864614578667"><ele>82.0</ele><time>2026-04-06T09:17:42.999Z</time></trkpt><trkpt lat="37.05255881786065" lon="15.150833941023485"><ele>83.0</ele><time>2026-04-06T09:17:43.999Z</time></trkpt><trkpt lat="37.052718670306376" lon="15.150817568877565"><ele>84.0</ele><time>2026-04-06T09:17:44.999Z</time></trkpt><trkpt lat="37.052873581817316" lon="15.150822631733417"><ele>85.0</ele><time>2026-04-06T09:17:45.999Z</time></trkpt><trkpt lat="37.05302437142011" lon="15.150847500781218"><ele>85.0</ele><time>2026-04-06T09:17:46.999Z</time></trkpt><trkpt lat="37.053167710573106" lon="15.150878727890866"><ele>85.0</ele><time>2026-04-06T09:17:47.999Z</time></trkpt><trkpt lat="37.05331200287911" lon="15.150914671716576"><ele>85.0</ele><time>2026-04-06T09:17:48.999Z</time></trkpt><trkpt lat="37.053455012027754" lon="15.150935294634916"><ele>85.0</ele><time>2026-04-06T09:17:49.999Z</time></trkpt><trkpt lat="37.053591821126886" lon="15.15097252994565"><ele>85.5</ele><time>2026-04-06T09:17:50.999Z</time></trkpt><trkpt lat="37.053725163175194" lon="15.151010702583964"><ele>86.0</ele><time>2026-04-06T09:17:51.999Z</time></trkpt><trkpt lat="37.05386633437985" lon="15.151050093060775"><ele>86.5</ele><time>2026-04-06T09:17:52.999Z</time></trkpt><trkpt lat="37.05401062017753" lon="15.15107886089694"><ele>87.0</ele><time>2026-04-06T09:17:53.999Z</time></trkpt><trkpt lat="37.05416102681371" lon="15.15111517395662"><ele>87.66666666666667</ele><time>2026-04-06T09:17:54.999Z</time></trkpt><trkpt lat="37.05432611270421" lon="15.151155198912605"><ele>88.33333333333334</ele><time>2026-04-06T09:17:55.999Z</time></trkpt><trkpt lat="37.054489121269675" lon="15.151193324340998"><ele>89.0</ele><time>2026-04-06T09:17:56.999Z</time></trkpt><trkpt lat="37.05465702300328" lon="15.151233663490158"><ele>89.0</ele><time>2026-04-06T09:17:57.999Z</time></trkpt><trkpt lat="37.05482072813498" lon="15.151268521270056"><ele>89.0</ele><time>2026-04-06T09:17:58.999Z</time></trkpt><trkpt lat="37.05498971836071" lon="15.151313254997024"><ele>89.0</ele><time>2026-04-06T09:17:59.999Z</time></trkpt><trkpt lat="37.055175720574" lon="15.15134760510668"><ele>89.0</ele><time>2026-04-06T09:18:00.999Z</time></trkpt><trkpt lat="37.055360396181676" lon="15.151407564974665"><ele>89.0</ele><time>2026-04-06T09:18:01.999Z</time></trkpt><trkpt lat="37.055547704191824" lon="15.151432000560341"><ele>89.0</ele><time>2026-04-06T09:18:02.999Z</time></trkpt><trkpt lat="37.055736787895356" lon="15.15149946977407"><ele>89.33333333333334</ele><time>2026-04-06T09:18:03.999Z</time></trkpt><trkpt lat="37.05592661479562" lon="15.151550036869756"><ele>89.66666666666667</ele><time>2026-04-06T09:18:04.999Z</time></trkpt><trkpt lat="37.05611960730282" lon="15.151588950214814"><ele>90.0</ele><time>2026-04-06T09:18:05.999Z</time></trkpt><trkpt lat="37.05631384766805" lon="15.151626553889574"><ele>90.0</ele><time>2026-04-06T09:18:06.999Z</time></trkpt><trkpt lat="37.05650935301993" lon="15.1516656561755"><ele>90.0</ele><time>2026-04-06T09:18:07.999Z</time></trkpt><trkpt lat="37.05670688413381" lon="15.151712557431688"><ele>90.0</ele><time>2026-04-06T09:18:08.999Z</time></trkpt><trkpt lat="37.056906987472416" lon="15.151766314554934"><ele>91.0</ele><time>2026-04-06T09:18:09.999Z</time></trkpt><trkpt lat="37.05710907502105" lon="15.151819094906566"><ele>92.0</ele><time>2026-04-06T09:18:10.999Z</time></trkpt><trkpt lat="37.057311983019524" lon="15.151870262952858"><ele>93.0</ele><time>2026-04-06T09:18:11.999Z</time></trkpt><trkpt lat="37.05751742833964" lon="15.151920298439704"><ele>93.0</ele><time>2026-04-06T09:18:12.999Z</time></trkpt><trkpt lat="37.057724715407474" lon="15.151970582798615"><ele>93.0</ele><time>2026-04-06T09:18:13.999Z</time></trkpt><trkpt lat="37.057934359538024" lon="15.15201737415137"><ele>93.0</ele><time>2026-04-06T09:18:14.999Z</time></trkpt><trkpt lat="37.05814672107135" lon="15.152062901116617"><ele>93.66666666666667</ele><time>2026-04-06T09:18:15.999Z</time></trkpt><trkpt lat="37.058359398277574" lon="15.152108090666832"><ele>94.33333333333334</ele><time>2026-04-06T09:18:16.999Z</time></trkpt><trkpt lat="37.05857287231761" lon="15.152153749362672"><ele>95.0</ele><time>2026-04-06T09:18:17.999Z</time></trkpt><trkpt lat="37.05878736747875" lon="15.152203103334228"><ele>95.0</ele><time>2026-04-06T09:18:18.999Z</time></trkpt><trkpt lat="37.05900221824816" lon="15.152254369914456"><ele>95.0</ele><time>2026-04-06T09:18:19.999Z</time></trkpt><trkpt lat="37.0592194237612" lon="15.15230625768622"><ele>95.0</ele><time>2026-04-06T09:18:20.999Z</time></trkpt><trkpt lat="37.05943713497308" lon="15.152358684808469"><ele>94.66666666666667</ele><time>2026-04-06T09:18:21.999Z</time></trkpt><trkpt lat="37.059656626398414" lon="15.15241268104898"><ele>94.33333333333333</ele><time>2026-04-06T09:18:22.999Z</time></trkpt><trkpt lat="37.05987579885874" lon="15.152466959584961"><ele>94.0</ele><time>2026-04-06T09:18:23.999Z</time></trkpt><trkpt lat="37.060095892969926" lon="15.152518730564948"><ele>94.0</ele><time>2026-04-06T09:18:24.999Z</time></trkpt><trkpt lat="37.06031746203673" lon="15.152569853408618"><ele>94.0</ele><time>2026-04-06T09:18:25.999Z</time></trkpt><trkpt lat="37.060537128140275" lon="15.152619062413956"><ele>94.0</ele><time>2026-04-06T09:18:26.999Z</time></trkpt><trkpt lat="37.06074801500905" lon="15.152666387415643"><ele>94.33333333333333</ele><time>2026-04-06T09:18:27.999Z</time></trkpt><trkpt lat="37.06095786670999" lon="15.152716388742558"><ele>94.66666666666667</ele><time>2026-04-06T09:18:28.999Z</time></trkpt><trkpt lat="37.061172845022234" lon="15.152766805508495"><ele>95.0</ele><time>2026-04-06T09:18:29.999Z</time></trkpt><trkpt lat="37.06138772070009" lon="15.152816456541656"><ele>95.0</ele><time>2026-04-06T09:18:30.999Z</time></trkpt><trkpt lat="37.06159729328103" lon="15.152868982655011"><ele>95.0</ele><time>2026-04-06T09:18:31.999Z</time></trkpt><trkpt lat="37.06180061949975" lon="15.152920646299512"><ele>95.0</ele><time>2026-04-06T09:18:32.999Z</time></trkpt><trkpt lat="37.06199268887668" lon="15.152964860401676"><ele>95.0</ele><time>2026-04-06T09:18:33.999Z</time></trkpt><trkpt lat="37.06219049930152" lon="15.153009847950681"><ele>95.0</ele><time>2026-04-06T09:18:34.999Z</time></trkpt><trkpt lat="37.06238827525667" lon="15.153056146709238"><ele>95.0</ele><time>2026-04-06T09:18:35.999Z</time></trkpt><trkpt lat="37.06258907617648" lon="15.153101748897003"><ele>95.0</ele><time>2026-04-06T09:18:36.999Z</time></trkpt><trkpt lat="37.062790828138716" lon="15.153149651067814"><ele>95.0</ele><time>2026-04-06T09:18:37.999Z</time></trkpt><trkpt lat="37.062993084565406" lon="15.153196043298504"><ele>95.0</ele><time>2026-04-06T09:18:38.999Z</time></trkpt><trkpt lat="37.063197992863124" lon="15.153246234745986"><ele>95.0</ele><time>2026-04-06T09:18:39.999Z</time></trkpt><trkpt lat="37.063401585928204" lon="15.153294458767016"><ele>95.0</ele><time>2026-04-06T09:18:40.999Z</time></trkpt><trkpt lat="37.06360829313863" lon="15.153341431158092"><ele>95.0</ele><time>2026-04-06T09:18:41.999Z</time></trkpt><trkpt lat="37.06381456318" lon="15.153392415599109"><ele>95.0</ele><time>2026-04-06T09:18:42.999Z</time></trkpt><trkpt lat="37.06402367442527" lon="15.153442938171818"><ele>95.0</ele><time>2026-04-06T09:18:43.999Z</time></trkpt><trkpt lat="37.06423535020344" lon="15.153493044184161"><ele>95.0</ele><time>2026-04-06T09:18:44.999Z</time></trkpt><trkpt lat="37.06445165679213" lon="15.153541746888592"><ele>95.33333333333334</ele><time>2026-04-06T09:18:45.999Z</time></trkpt><trkpt lat="37.06466839313595" lon="15.153595544732665"><ele>95.66666666666667</ele><time>2026-04-06T09:18:46.999Z</time></trkpt><trkpt lat="37.06488558563881" lon="15.153641249756129"><ele>96.0</ele><time>2026-04-06T09:18:47.999Z</time></trkpt><trkpt lat="37.065101839036785" lon="15.153690142984651"><ele>96.33333333333334</ele><time>2026-04-06T09:18:48.999Z</time></trkpt><trkpt lat="37.0653162574339" lon="15.153740921341758"><ele>96.66666666666667</ele><time>2026-04-06T09:18:49.999Z</time></trkpt><trkpt lat="37.06553090072175" lon="15.153794661351087"><ele>97.0</ele><time>2026-04-06T09:18:50.999Z</time></trkpt><trkpt lat="37.065744502887384" lon="15.15384897905344"><ele>97.33333333333334</ele><time>2026-04-06T09:18:51.999Z</time></trkpt><trkpt lat="37.06595853003453" lon="15.153901984621559"><ele>97.66666666666666</ele><time>2026-04-06T09:18:52.999Z</time></trkpt><trkpt lat="37.06617249016112" lon="15.153952726687274"><ele>98.0</ele><time>2026-04-06T09:18:53.999Z</time></trkpt><trkpt lat="37.06638817489014" lon="15.154003310070257"><ele>98.0</ele><time>2026-04-06T09:18:54.999Z</time></trkpt><trkpt lat="37.066606293599186" lon="15.15405414250346"><ele>98.0</ele><time>2026-04-06T09:18:55.999Z</time></trkpt><trkpt lat="37.066824717182236" lon="15.154103222377527"><ele>98.0</ele><time>2026-04-06T09:18:56.999Z</time></trkpt><trkpt lat="37.06704376835191" lon="15.154156500339203"><ele>98.0</ele><time>2026-04-06T09:18:57.999Z</time></trkpt><trkpt lat="37.067263837646905" lon="15.154209863663063"><ele>98.0</ele><time>2026-04-06T09:18:58.999Z</time></trkpt><trkpt lat="37.0674831642547" lon="15.154264958352684"><ele>98.0</ele><time>2026-04-06T09:18:59.999Z</time></trkpt><trkpt lat="37.067705739471414" lon="15.154318309643012"><ele>98.5</ele><time>2026-04-06T09:19:00.999Z</time></trkpt><trkpt lat="37.06792570781437" lon="15.154376709967519"><ele>99.0</ele><time>2026-04-06T09:19:01.999Z</time></trkpt><trkpt lat="37.068146888693406" lon="15.15442871923371"><ele>99.0</ele><time>2026-04-06T09:19:02.999Z</time></trkpt><trkpt lat="37.06836845635647" lon="15.154480853604813"><ele>99.0</ele><time>2026-04-06T09:19:03.999Z</time></trkpt><trkpt lat="37.06859112697128" lon="15.154534916243424"><ele>99.0</ele><time>2026-04-06T09:19:04.999Z</time></trkpt><trkpt lat="37.06881300785747" lon="15.15458988666893"><ele>99.0</ele><time>2026-04-06T09:19:05.999Z</time></trkpt><trkpt lat="37.069035338150584" lon="15.154645819521045"><ele>99.0</ele><time>2026-04-06T09:19:06.999Z</time></trkpt><trkpt lat="37.069255776372316" lon="15.154698768553923"><ele>99.0</ele><time>2026-04-06T09:19:07.999Z</time></trkpt><trkpt lat="37.069478515364786" lon="15.154752511428477"><ele>99.0</ele><time>2026-04-06T09:19:08.999Z</time></trkpt><trkpt lat="37.069700908031564" lon="15.154808475471341"><ele>99.0</ele><time>2026-04-06T09:19:09.999Z</time></trkpt><trkpt lat="37.06992306691048" lon="15.154863368458667"><ele>98.0</ele><time>2026-04-06T09:19:10.999Z</time></trkpt><trkpt lat="37.070145011590284" lon="15.154920207496879"><ele>97.0</ele><time>2026-04-06T09:19:11.999Z</time></trkpt><trkpt lat="37.07036814025694" lon="15.154979003551796"><ele>97.0</ele><time>2026-04-06T09:19:12.999Z</time></trkpt><trkpt lat="37.07059012287023" lon="15.155035952707834"><ele>97.0</ele><time>2026-04-06T09:19:13.999Z</time></trkpt><trkpt lat="37.07081135091629" lon="15.155090398589747"><ele>97.0</ele><time>2026-04-06T09:19:14.999Z</time></trkpt><trkpt lat="37.07103417945149" lon="15.155144474720542"><ele>97.0</ele><time>2026-04-06T09:19:15.999Z</time></trkpt><trkpt lat="37.07125657444038" lon="15.155198285485957"><ele>97.0</ele><time>2026-04-06T09:19:16.999Z</time></trkpt><trkpt lat="37.07147854686462" lon="15.155253695813723"><ele>97.0</ele><time>2026-04-06T09:19:17.999Z</time></trkpt><trkpt lat="37.071698599270526" lon="15.155307253556101"><ele>97.66666666666667</ele><time>2026-04-06T09:19:18.999Z</time></trkpt><trkpt lat="37.07191886564508" lon="15.155361042502822"><ele>98.33333333333334</ele><time>2026-04-06T09:19:19.999Z</time></trkpt><trkpt lat="37.072137155454314" lon="15.155416140243355"><ele>99.0</ele><time>2026-04-06T09:19:20.999Z</time></trkpt><trkpt lat="37.072349909526196" lon="15.155469771992237"><ele>99.33333333333334</ele><time>2026-04-06T09:19:21.999Z</time></trkpt><trkpt lat="37.072559380683124" lon="15.155521087618366"><ele>99.66666666666667</ele><time>2026-04-06T09:19:22.999Z</time></trkpt><trkpt lat="37.07276362631687" lon="15.155574278502867"><ele>100.0</ele><time>2026-04-06T09:19:23.999Z</time></trkpt><trkpt lat="37.072966278836084" lon="15.15562689699705"><ele>100.0</ele><time>2026-04-06T09:19:24.999Z</time></trkpt><trkpt lat="37.07316216393017" lon="15.155675795383468"><ele>100.0</ele><time>2026-04-06T09:19:25.999Z</time></trkpt><trkpt lat="37.07335131413119" lon="15.155714177311477"><ele>100.0</ele><time>2026-04-06T09:19:26.999Z</time></trkpt><trkpt lat="37.073539583402706" lon="15.155746755112345"><ele>100.33333333333334</ele><time>2026-04-06T09:19:27.999Z</time></trkpt><trkpt lat="37.07371452568165" lon="15.15574025394528"><ele>100.66666666666666</ele><time>2026-04-06T09:19:28.999Z</time></trkpt><trkpt lat="37.073889804391015" lon="15.155696335174785"><ele>101.0</ele><time>2026-04-06T09:19:29.999Z</time></trkpt><trkpt lat="37.07405745849767" lon="15.155625181800053"><ele>101.0</ele><time>2026-04-06T09:19:30.999Z</time></trkpt><trkpt lat="37.074210660133886" lon="15.155522551667529"><ele>101.0</ele><time>2026-04-06T09:19:31.999Z</time></trkpt><trkpt lat="37.07435499666836" lon="15.1554108690084"><ele>101.0</ele><time>2026-04-06T09:19:32.999Z</time></trkpt><trkpt lat="37.074489305448324" lon="15.15530594548616"><ele>101.0</ele><time>2026-04-06T09:19:33.999Z</time></trkpt><trkpt lat="37.07461725045297" lon="15.155205104442588"><ele>101.0</ele><time>2026-04-06T09:19:34.999Z</time></trkpt><trkpt lat="37.074744311711456" lon="15.155112953185165"><ele>101.0</ele><time>2026-04-06T09:19:35.999Z</time></trkpt><trkpt lat="37.0748682595271" lon="15.1550183820468"><ele>101.0</ele><time>2026-04-06T09:19:36.999Z</time></trkpt><trkpt lat="37.07499358265674" lon="15.15491762227822"><ele>100.66666666666666</ele><time>2026-04-06T09:19:37.999Z</time></trkpt><trkpt lat="37.07511982435865" lon="15.154819370976446"><ele>100.33333333333334</ele><time>2026-04-06T09:19:38.999Z</time></trkpt><trkpt lat="37.07525059503831" lon="15.154720114051601"><ele>100.0</ele><time>2026-04-06T09:19:39.999Z</time></trkpt><trkpt lat="37.07538938326133" lon="15.154614953457452"><ele>100.0</ele><time>2026-04-06T09:19:40.999Z</time></trkpt><trkpt lat="37.07552875250915" lon="15.154505902498803"><ele>100.0</ele><time>2026-04-06T09:19:41.999Z</time></trkpt><trkpt lat="37.07566652695313" lon="15.154392885751124"><ele>100.0</ele><time>2026-04-06T09:19:42.999Z</time></trkpt><trkpt lat="37.07580032932862" lon="15.154278546398265"><ele>100.66666666666667</ele><time>2026-04-06T09:19:43.999Z</time></trkpt><trkpt lat="37.07592450196801" lon="15.154158041432199"><ele>101.33333333333334</ele><time>2026-04-06T09:19:44.999Z</time></trkpt><trkpt lat="37.07603683116516" lon="15.154024790263637"><ele>102.0</ele><time>2026-04-06T09:19:45.999Z</time></trkpt><trkpt lat="37.07613435805743" lon="15.153884682699749"><ele>102.25</ele><time>2026-04-06T09:19:46.999Z</time></trkpt><trkpt lat="37.07622134329484" lon="15.15374876615239"><ele>102.5</ele><time>2026-04-06T09:19:47.999Z</time></trkpt><trkpt lat="37.07630384948832" lon="15.153621609704688"><ele>102.75</ele><time>2026-04-06T09:19:48.999Z</time></trkpt><trkpt lat="37.076382307675416" lon="15.153500168008307"><ele>103.0</ele><time>2026-04-06T09:19:49.999Z</time></trkpt><trkpt lat="37.076460638163354" lon="15.15338233570727"><ele>103.0</ele><time>2026-04-06T09:19:50.999Z</time></trkpt><trkpt lat="37.07653864508127" lon="15.153267450204984"><ele>103.0</ele><time>2026-04-06T09:19:51.999Z</time></trkpt><trkpt lat="37.07660902657218" lon="15.153154339983637"><ele>103.0</ele><time>2026-04-06T09:19:52.999Z</time></trkpt><trkpt lat="37.07667635290085" lon="15.153048427079412"><ele>103.0</ele><time>2026-04-06T09:19:53.999Z</time></trkpt><trkpt lat="37.07674491575361" lon="15.152945679509703"><ele>102.80000000000001</ele><time>2026-04-06T09:19:54.999Z</time></trkpt><trkpt lat="37.0768126392562" lon="15.152841065764251"><ele>102.6</ele><time>2026-04-06T09:19:55.999Z</time></trkpt><trkpt lat="37.07688153511819" lon="15.152737234052857"><ele>102.4</ele><time>2026-04-06T09:19:56.999Z</time></trkpt><trkpt lat="37.07694997555638" lon="15.152628509792725"><ele>102.19999999999999</ele><time>2026-04-06T09:19:57.999Z</time></trkpt><trkpt lat="37.07701397482168" lon="15.15251224958481"><ele>102.0</ele><time>2026-04-06T09:19:58.999Z</time></trkpt><trkpt lat="37.07707349323131" lon="15.152388431251213"><ele>102.39999999999999</ele><time>2026-04-06T09:19:59.999Z</time></trkpt><trkpt lat="37.077128939762424" lon="15.152268008284134"><ele>102.8</ele><time>2026-04-06T09:20:00.999Z</time></trkpt><trkpt lat="37.0771794087927" lon="15.152157160659337"><ele>103.2</ele><time>2026-04-06T09:20:01.999Z</time></trkpt><trkpt lat="37.077221670551715" lon="15.152045951991264"><ele>103.6</ele><time>2026-04-06T09:20:02.999Z</time></trkpt><trkpt lat="37.077263995453215" lon="15.151936985021232"><ele>104.0</ele><time>2026-04-06T09:20:03.999Z</time></trkpt><trkpt lat="37.077307414164686" lon="15.151832840328053"><ele>103.99999999999999</ele><time>2026-04-06T09:20:04.999Z</time></trkpt><trkpt lat="37.077350075067386" lon="15.151730806909905"><ele>104.0</ele><time>2026-04-06T09:20:05.999Z</time></trkpt><trkpt lat="37.077392288561654" lon="15.151632653967688"><ele>104.0</ele><time>2026-04-06T09:20:06.999Z</time></trkpt><trkpt lat="37.07742998511915" lon="15.151534050300459"><ele>104.0</ele><time>2026-04-06T09:20:07.999Z</time></trkpt><trkpt lat="37.0774662628775" lon="15.151438813413192"><ele>103.99999999999999</ele><time>2026-04-06T09:20:08.999Z</time></trkpt><trkpt lat="37.0774997792839" lon="15.151352694624661"><ele>104.0</ele><time>2026-04-06T09:20:09.999Z</time></trkpt><trkpt lat="37.077532737489875" lon="15.151272283207094"><ele>103.33333333333333</ele><time>2026-04-06T09:20:10.999Z</time></trkpt><trkpt lat="37.07756952692931" lon="15.151203364359606"><ele>102.66666666666666</ele><time>2026-04-06T09:20:11.999Z</time></trkpt><trkpt lat="37.07767962220612" lon="15.151100842116131"><ele>102.0</ele><time>2026-04-06T09:20:13.999Z</time></trkpt><trkpt lat="37.07775008802125" lon="15.15107086679255"><ele>101.33333333333334</ele><time>2026-04-06T09:20:14.999Z</time></trkpt><trkpt lat="37.077827382186506" lon="15.151065290662997"><ele>100.66666666666667</ele><time>2026-04-06T09:20:15.999Z</time></trkpt><trkpt lat="37.07791850509882" lon="15.151081913355856"><ele>100.0</ele><time>2026-04-06T09:20:16.999Z</time></trkpt><trkpt lat="37.07801662074056" lon="15.151112473343249"><ele>100.0</ele><time>2026-04-06T09:20:17.999Z</time></trkpt><trkpt lat="37.078122038878206" lon="15.151138546295273"><ele>100.0</ele><time>2026-04-06T09:20:18.999Z</time></trkpt><trkpt lat="37.07822225180638" lon="15.151164154236682"><ele>100.0</ele><time>2026-04-06T09:20:19.999Z</time></trkpt><trkpt lat="37.0783082310501" lon="15.151193454999914"><ele>100.0</ele><time>2026-04-06T09:20:20.999Z</time></trkpt><trkpt lat="37.07839484075482" lon="15.151219053331854"><ele>100.0</ele><time>2026-04-06T09:20:21.999Z</time></trkpt><trkpt lat="37.078481872163835" lon="15.151244726428315"><ele>98.6</ele><time>2026-04-06T09:20:22.999Z</time></trkpt><trkpt lat="37.078580649708535" lon="15.151282859226614"><ele>97.2</ele><time>2026-04-06T09:20:23.999Z</time></trkpt><trkpt lat="37.078674724448376" lon="15.151314078485203"><ele>95.80000000000001</ele><time>2026-04-06T09:20:24.999Z</time></trkpt><trkpt lat="37.07877666995211" lon="15.151339639750086"><ele>94.4</ele><time>2026-04-06T09:20:25.999Z</time></trkpt><trkpt lat="37.078891638709216" lon="15.15137334077164"><ele>93.0</ele><time>2026-04-06T09:20:26.999Z</time></trkpt><trkpt lat="37.07901184617789" lon="15.151408684118064"><ele>95.75</ele><time>2026-04-06T09:20:27.999Z</time></trkpt><trkpt lat="37.07913513206812" lon="15.15144500428372"><ele>98.5</ele><time>2026-04-06T09:20:28.999Z</time></trkpt><trkpt lat="37.07925119448184" lon="15.151479487521637"><ele>101.25</ele><time>2026-04-06T09:20:29.999Z</time></trkpt><trkpt lat="37.07936246763942" lon="15.15151183388741"><ele>104.0</ele><time>2026-04-06T09:20:30.999Z</time></trkpt><trkpt lat="37.079458846956015" lon="15.151536994131325"><ele>103.33333333333333</ele><time>2026-04-06T09:20:31.999Z</time></trkpt><trkpt lat="37.079533808285014" lon="15.151550121809034"><ele>102.66666666666666</ele><time>2026-04-06T09:20:32.999Z</time></trkpt><trkpt lat="37.079623556285334" lon="15.151579553578296"><ele>102.0</ele><time>2026-04-06T09:20:34.999Z</time></trkpt><trkpt lat="37.07969448333554" lon="15.151597230216254"><ele>101.33333333333334</ele><time>2026-04-06T09:20:40.999Z</time></trkpt><trkpt lat="37.079757334864524" lon="15.151617489380905"><ele>100.66666666666667</ele><time>2026-04-06T09:20:43.999Z</time></trkpt><trkpt lat="37.07983009320782" lon="15.151631920908432"><ele>100.0</ele><time>2026-04-06T09:20:48.999Z</time></trkpt><trkpt lat="37.079896741194865" lon="15.151671485158566"><ele>102.0</ele><time>2026-04-06T09:20:55Z</time></trkpt><trkpt lat="37.079974912655324" lon="15.151693289655416"><ele>104.0</ele><time>2026-04-06T09:21:06Z</time></trkpt><trkpt lat="37.08004569069878" lon="15.151713031897312"><ele>106.0</ele><time>2026-04-06T09:21:09Z</time></trkpt><trkpt lat="37.08012280190761" lon="15.1517389768176"><ele>108.0</ele><time>2026-04-06T09:21:16Z</time></trkpt><trkpt lat="37.080219549519036" lon="15.151595195448879"><ele>110.0</ele><time>2026-04-06T09:21:19.999Z</time></trkpt><trkpt lat="37.08021404958755" lon="15.151491196012287"><ele>110.4</ele><time>2026-04-06T09:21:21.999Z</time></trkpt><trkpt lat="37.08022193118812" lon="15.151365719651709"><ele>110.8</ele><time>2026-04-06T09:21:23.999Z</time></trkpt><trkpt lat="37.08023915022712" lon="15.151237943507537"><ele>111.19999999999999</ele><time>2026-04-06T09:21:25.999Z</time></trkpt><trkpt lat="37.080251543506165" lon="15.15114486794811"><ele>111.6</ele><time>2026-04-06T09:21:28.999Z</time></trkpt><trkpt lat="37.08035392748768" lon="15.151143323237863"><ele>112.0</ele><time>2026-04-06T09:21:29.999Z</time></trkpt><trkpt lat="37.08041695236821" lon="15.151176316876251"><ele>112.0</ele><time>2026-04-06T09:21:30.999Z</time></trkpt><trkpt lat="37.080478708622316" lon="15.151202805297665"><ele>111.99999999999999</ele><time>2026-04-06T09:21:31.999Z</time></trkpt><trkpt lat="37.080584553966666" lon="15.151237756862042"><ele>111.99999999999999</ele><time>2026-04-06T09:21:33.999Z</time></trkpt><trkpt lat="37.08069331553935" lon="15.151274295132929"><ele>112.0</ele><time>2026-04-06T09:21:35.999Z</time></trkpt><trkpt lat="37.080804906023126" lon="15.151305664945397"><ele>112.0</ele><time>2026-04-06T09:21:37.999Z</time></trkpt><trkpt lat="37.08090784106162" lon="15.151336698052829"><ele>112.71428571428572</ele><time>2026-04-06T09:21:39.999Z</time></trkpt><trkpt lat="37.080978063275246" lon="15.151363675559573"><ele>113.42857142857143</ele><time>2026-04-06T09:21:42.999Z</time></trkpt><trkpt lat="37.08104836783515" lon="15.151369539087147"><ele>114.14285714285714</ele><time>2026-04-06T09:22:12.999Z</time></trkpt><trkpt lat="37.081117173151945" lon="15.151398585601358"><ele>114.85714285714286</ele><time>2026-04-06T09:22:19.999Z</time></trkpt><trkpt lat="37.081193252207534" lon="15.151435849854941"><ele>115.57142857142858</ele><time>2026-04-06T09:22:22.999Z</time></trkpt><trkpt lat="37.0812557256748" lon="15.151455962638693"><ele>116.28571428571429</ele><time>2026-04-06T09:22:23.999Z</time></trkpt><trkpt lat="37.081330562810834" lon="15.151468866173708"><ele>117.0</ele><time>2026-04-06T09:22:24.999Z</time></trkpt><trkpt lat="37.08139618269225" lon="15.151490957961414"><ele>117.0</ele><time>2026-04-06T09:22:25.999Z</time></trkpt><trkpt lat="37.08146782487575" lon="15.15151566891074"><ele>117.0</ele><time>2026-04-06T09:22:26.999Z</time></trkpt><trkpt lat="37.08155945664959" lon="15.15154727707469"><ele>117.0</ele><time>2026-04-06T09:22:27.999Z</time></trkpt><trkpt lat="37.08166037466921" lon="15.151580125642402"><ele>117.0</ele><time>2026-04-06T09:22:28.999Z</time></trkpt><trkpt lat="37.08174869168416" lon="15.151607531651525"><ele>117.0</ele><time>2026-04-06T09:22:29.999Z</time></trkpt><trkpt lat="37.08181818641246" lon="15.151631337655024"><ele>117.0</ele><time>2026-04-06T09:22:30.999Z</time></trkpt><trkpt lat="37.08191103531646" lon="15.151661467178656"><ele>117.0</ele><time>2026-04-06T09:22:32.999Z</time></trkpt><trkpt lat="37.081978104034036" lon="15.151692539884882"><ele>117.0</ele><time>2026-04-06T09:22:36Z</time></trkpt><trkpt lat="37.08203924729908" lon="15.151491808457088"><ele>117.0</ele><time>2026-04-06T09:22:41Z</time></trkpt><trkpt lat="37.0820528826581" lon="15.151404743030588"><ele>117.0</ele><time>2026-04-06T09:22:42Z</time></trkpt><trkpt lat="37.08206141337259" lon="15.151322147137922"><ele>117.0</ele><time>2026-04-06T09:22:43Z</time></trkpt><trkpt lat="37.082076993789734" lon="15.151241354790864"><ele>117.0</ele><time>2026-04-06T09:22:44Z</time></trkpt><trkpt lat="37.08209591215744" lon="15.151157506956757"><ele>117.0</ele><time>2026-04-06T09:22:45Z</time></trkpt><trkpt lat="37.082111047251324" lon="15.151069708965704"><ele>117.00000000000001</ele><time>2026-04-06T09:22:46Z</time></trkpt><trkpt lat="37.082128671685545" lon="15.15099132107717"><ele>117.0</ele><time>2026-04-06T09:22:47Z</time></trkpt><trkpt lat="37.08214875432927" lon="15.15091603399486"><ele>117.0</ele><time>2026-04-06T09:22:48Z</time></trkpt><trkpt lat="37.082173184734195" lon="15.150842432796086"><ele>117.00000000000001</ele><time>2026-04-06T09:22:49Z</time></trkpt><trkpt lat="37.08218814738243" lon="15.150761709367815"><ele>117.0</ele><time>2026-04-06T09:22:50Z</time></trkpt><trkpt lat="37.082197438215736" lon="15.150680162661107"><ele>117.0</ele><time>2026-04-06T09:22:51Z</time></trkpt><trkpt lat="37.082207768689386" lon="15.150598990654235"><ele>117.0</ele><time>2026-04-06T09:22:52Z</time></trkpt><trkpt lat="37.08223576807232" lon="15.150450891857245"><ele>117.0</ele><time>2026-04-06T09:22:54Z</time></trkpt><trkpt lat="37.082259149129314" lon="15.150352047101691"><ele>117.0</ele><time>2026-04-06T09:22:56Z</time></trkpt><trkpt lat="37.082260121547016" lon="15.150261017615847"><ele>117.0</ele><time>2026-04-06T09:22:58Z</time></trkpt><trkpt lat="37.08227542313668" lon="15.150173391895224"><ele>117.0</ele><time>2026-04-06T09:23:00Z</time></trkpt><trkpt lat="37.08231899393651" lon="15.150089435676287"><ele>117.0</ele><time>2026-04-06T09:23:02Z</time></trkpt><trkpt lat="37.08235323625402" lon="15.149984278244048"><ele>117.16666666666667</ele><time>2026-04-06T09:23:04Z</time></trkpt><trkpt lat="37.08239517514045" lon="15.149842283579977"><ele>117.33333333333334</ele><time>2026-04-06T09:23:06Z</time></trkpt><trkpt lat="37.08242578654679" lon="15.149767526492413"><ele>117.5</ele><time>2026-04-06T09:23:07Z</time></trkpt><trkpt lat="37.08245873923143" lon="15.149689512381341"><ele>117.66666666666667</ele><time>2026-04-06T09:23:08Z</time></trkpt><trkpt lat="37.08249305120216" lon="15.149610841865165"><ele>117.83333333333334</ele><time>2026-04-06T09:23:09Z</time></trkpt><trkpt lat="37.08251968341414" lon="15.14953364151251"><ele>118.0</ele><time>2026-04-06T09:23:10Z</time></trkpt><trkpt lat="37.08254468086744" lon="15.149455332941358"><ele>117.66666666666667</ele><time>2026-04-06T09:23:11Z</time></trkpt><trkpt lat="37.08257207366249" lon="15.14938004691043"><ele>117.33333333333334</ele><time>2026-04-06T09:23:12Z</time></trkpt><trkpt lat="37.08262239980079" lon="15.149247803042023"><ele>117.0</ele><time>2026-04-06T09:23:14Z</time></trkpt><trkpt lat="37.08265617915664" lon="15.149174606895258"><ele>116.66666666666666</ele><time>2026-04-06T09:23:15Z</time></trkpt><trkpt lat="37.08268858603912" lon="15.149099286522965"><ele>116.33333333333333</ele><time>2026-04-06T09:23:16Z</time></trkpt><trkpt lat="37.08272083218786" lon="15.149000464844049"><ele>116.0</ele><time>2026-04-06T09:23:17Z</time></trkpt><trkpt lat="37.08275440209023" lon="15.148890711400721"><ele>115.99999999999999</ele><time>2026-04-06T09:23:18Z</time></trkpt><trkpt lat="37.08279226614298" lon="15.148783738382342"><ele>116.0</ele><time>2026-04-06T09:23:19Z</time></trkpt><trkpt lat="37.082834600339254" lon="15.148688854255212"><ele>116.0</ele><time>2026-04-06T09:23:20Z</time></trkpt><trkpt lat="37.08287394492467" lon="15.148595755523488"><ele>116.0</ele><time>2026-04-06T09:23:21Z</time></trkpt><trkpt lat="37.08290773546669" lon="15.148505758857711"><ele>115.99999999999999</ele><time>2026-04-06T09:23:22Z</time></trkpt><trkpt lat="37.082939603372694" lon="15.148419646654034"><ele>116.0</ele><time>2026-04-06T09:23:23Z</time></trkpt><trkpt lat="37.08296901440044" lon="15.148336585918232"><ele>115.99999999999999</ele><time>2026-04-06T09:23:24Z</time></trkpt><trkpt lat="37.08299465194502" lon="15.148248822677754"><ele>116.0</ele><time>2026-04-06T09:23:25Z</time></trkpt><trkpt lat="37.08301937612779" lon="15.148167020321088"><ele>116.0</ele><time>2026-04-06T09:23:26Z</time></trkpt><trkpt lat="37.08304954927812" lon="15.148088971665775"><ele>116.0</ele><time>2026-04-06T09:23:27Z</time></trkpt><trkpt lat="37.08311171433571" lon="15.147953077869813"><ele>115.99999999999999</ele><time>2026-04-06T09:23:29Z</time></trkpt><trkpt lat="37.083136913168" lon="15.147877153755422"><ele>116.0</ele><time>2026-04-06T09:23:30Z</time></trkpt><trkpt lat="37.08316124703422" lon="15.14780058884767"><ele>116.2857142857143</ele><time>2026-04-06T09:23:31Z</time></trkpt><trkpt lat="37.083187244160996" lon="15.147720455436888"><ele>116.57142857142858</ele><time>2026-04-06T09:23:32Z</time></trkpt><trkpt lat="37.08322015184589" lon="15.147639910844873"><ele>116.85714285714286</ele><time>2026-04-06T09:23:33Z</time></trkpt><trkpt lat="37.083255890217536" lon="15.14755359604825"><ele>117.14285714285715</ele><time>2026-04-06T09:23:34Z</time></trkpt><trkpt lat="37.08328934807946" lon="15.147465542365634"><ele>117.42857142857144</ele><time>2026-04-06T09:23:35Z</time></trkpt><trkpt lat="37.083320581879796" lon="15.147378595635265"><ele>117.71428571428571</ele><time>2026-04-06T09:23:36Z</time></trkpt><trkpt lat="37.083351081068884" lon="15.14729756892426"><ele>118.0</ele><time>2026-04-06T09:23:37Z</time></trkpt><trkpt lat="37.083380054374736" lon="15.147217906386734"><ele>119.0</ele><time>2026-04-06T09:23:38Z</time></trkpt><trkpt lat="37.08340663754648" lon="15.147140229842858"><ele>120.00000000000001</ele><time>2026-04-06T09:23:39Z</time></trkpt><trkpt lat="37.08343151676731" lon="15.147063867483299"><ele>121.00000000000001</ele><time>2026-04-06T09:23:40Z</time></trkpt><trkpt lat="37.08348083794858" lon="15.146929661804188"><ele>122.0</ele><time>2026-04-06T09:23:42Z</time></trkpt><trkpt lat="37.08352611738122" lon="15.14678844145839"><ele>123.0</ele><time>2026-04-06T09:23:44Z</time></trkpt><trkpt lat="37.08357823315463" lon="15.146660014841048"><ele>123.0</ele><time>2026-04-06T09:23:46Z</time></trkpt><trkpt lat="37.08362150676782" lon="15.146561102526931"><ele>123.0</ele><time>2026-04-06T09:23:48Z</time></trkpt><trkpt lat="37.08367292329372" lon="15.146455928249498"><ele>123.0</ele><time>2026-04-06T09:23:50Z</time></trkpt><trkpt lat="37.0837155872546" lon="15.146394424109937"><ele>123.0</ele><time>2026-04-06T09:23:51Z</time></trkpt><trkpt lat="37.083778135694914" lon="15.146304455242266"><ele>123.0</ele><time>2026-04-06T09:23:53Z</time></trkpt><trkpt lat="37.08383431952734" lon="15.146237069058769"><ele>123.0</ele><time>2026-04-06T09:23:55Z</time></trkpt><trkpt lat="37.08387445683854" lon="15.14614270113166"><ele>122.60000000000001</ele><time>2026-04-06T09:23:57Z</time></trkpt><trkpt lat="37.083983327238734" lon="15.1460650020568"><ele>122.20000000000002</ele><time>2026-04-06T09:23:59Z</time></trkpt><trkpt lat="37.08404079844775" lon="15.145998442039305"><ele>121.8</ele><time>2026-04-06T09:24:00Z</time></trkpt><trkpt lat="37.08409390130986" lon="15.145928980380354"><ele>121.4</ele><time>2026-04-06T09:24:01Z</time></trkpt><trkpt lat="37.084152912707566" lon="15.14584649043035"><ele>121.0</ele><time>2026-04-06T09:24:02Z</time></trkpt><trkpt lat="37.08420723228901" lon="15.145762436198009"><ele>120.83333333333334</ele><time>2026-04-06T09:24:03Z</time></trkpt><trkpt lat="37.08425500947149" lon="15.145684696333873"><ele>120.66666666666667</ele><time>2026-04-06T09:24:04Z</time></trkpt><trkpt lat="37.08430946813678" lon="15.145597153442097"><ele>120.5</ele><time>2026-04-06T09:24:05Z</time></trkpt><trkpt lat="37.08436434636488" lon="15.145513804370633"><ele>120.33333333333334</ele><time>2026-04-06T09:24:06Z</time></trkpt><trkpt lat="37.08442364653469" lon="15.145425006157648"><ele>120.16666666666667</ele><time>2026-04-06T09:24:07Z</time></trkpt><trkpt lat="37.08448139722729" lon="15.145338528189123"><ele>120.0</ele><time>2026-04-06T09:24:08Z</time></trkpt><trkpt lat="37.08453603333116" lon="15.145256714150289"><ele>120.0</ele><time>2026-04-06T09:24:09Z</time></trkpt><trkpt lat="37.08459446412384" lon="15.14516921774398"><ele>120.0</ele><time>2026-04-06T09:24:10Z</time></trkpt><trkpt lat="37.08465365611488" lon="15.145078190059051"><ele>120.0</ele><time>2026-04-06T09:24:11Z</time></trkpt><trkpt lat="37.08472018367623" lon="15.144975599660512"><ele>120.0</ele><time>2026-04-06T09:24:12Z</time></trkpt><trkpt lat="37.08478918650521" lon="15.144869192159636"><ele>120.0</ele><time>2026-04-06T09:24:13Z</time></trkpt><trkpt lat="37.08485384907412" lon="15.144768140035056"><ele>119.4</ele><time>2026-04-06T09:24:14Z</time></trkpt><trkpt lat="37.0849166528915" lon="15.144669586036322"><ele>118.8</ele><time>2026-04-06T09:24:15Z</time></trkpt><trkpt lat="37.08497894553652" lon="15.144571834160084"><ele>118.19999999999999</ele><time>2026-04-06T09:24:16Z</time></trkpt><trkpt lat="37.08504214981043" lon="15.14447265175141"><ele>117.6</ele><time>2026-04-06T09:24:17Z</time></trkpt><trkpt lat="37.08510549473645" lon="15.144373248782534"><ele>117.0</ele><time>2026-04-06T09:24:18Z</time></trkpt><trkpt lat="37.0851682429781" lon="15.1442731627919"><ele>117.0</ele><time>2026-04-06T09:24:19Z</time></trkpt><trkpt lat="37.08523131351885" lon="15.144172738950747"><ele>116.99999999999999</ele><time>2026-04-06T09:24:20Z</time></trkpt><trkpt lat="37.08529436969117" lon="15.144072337972794"><ele>116.99999999999999</ele><time>2026-04-06T09:24:21Z</time></trkpt><trkpt lat="37.08534576174565" lon="15.143958297709455"><ele>117.0</ele><time>2026-04-06T09:24:21.999Z</time></trkpt><trkpt lat="37.08541440928236" lon="15.14385495788502"><ele>117.0</ele><time>2026-04-06T09:24:22.999Z</time></trkpt><trkpt lat="37.08548361390404" lon="15.143747168716846"><ele>115.25</ele><time>2026-04-06T09:24:23.999Z</time></trkpt><trkpt lat="37.08555651168022" lon="15.143627759659617"><ele>113.5</ele><time>2026-04-06T09:24:24.999Z</time></trkpt><trkpt lat="37.085632649870405" lon="15.14350718191079"><ele>111.75</ele><time>2026-04-06T09:24:25.999Z</time></trkpt><trkpt lat="37.08570908959107" lon="15.143384434196898"><ele>110.0</ele><time>2026-04-06T09:24:26.999Z</time></trkpt><trkpt lat="37.085784583899844" lon="15.143264066967077"><ele>109.5</ele><time>2026-04-06T09:24:27.999Z</time></trkpt><trkpt lat="37.08586094770712" lon="15.143146935158462"><ele>109.0</ele><time>2026-04-06T09:24:28.999Z</time></trkpt><trkpt lat="37.085937399815656" lon="15.143026052694431"><ele>108.5</ele><time>2026-04-06T09:24:29.999Z</time></trkpt><trkpt lat="37.08601367310763" lon="15.142905370100202"><ele>108.0</ele><time>2026-04-06T09:24:30.999Z</time></trkpt><trkpt lat="37.086091930565146" lon="15.142783917700651"><ele>108.0</ele><time>2026-04-06T09:24:31.999Z</time></trkpt><trkpt lat="37.08617342416221" lon="15.142660569391298"><ele>108.0</ele><time>2026-04-06T09:24:32.999Z</time></trkpt><trkpt lat="37.0862570893894" lon="15.142530717214271"><ele>108.0</ele><time>2026-04-06T09:24:33.999Z</time></trkpt><trkpt lat="37.08634096254272" lon="15.14239520311459"><ele>108.0</ele><time>2026-04-06T09:24:34.999Z</time></trkpt><trkpt lat="37.08642508783618" lon="15.142256602823538"><ele>108.75</ele><time>2026-04-06T09:24:35.999Z</time></trkpt><trkpt lat="37.08651331381498" lon="15.142119985075917"><ele>109.5</ele><time>2026-04-06T09:24:36.999Z</time></trkpt><trkpt lat="37.08660151930612" lon="15.141984009647311"><ele>110.25</ele><time>2026-04-06T09:24:37.999Z</time></trkpt><trkpt lat="37.08668709096776" lon="15.14185108638944"><ele>111.0</ele><time>2026-04-06T09:24:38.999Z</time></trkpt><trkpt lat="37.08677150594071" lon="15.141719202954034"><ele>111.5</ele><time>2026-04-06T09:24:39.999Z</time></trkpt><trkpt lat="37.08685648644528" lon="15.141590931130475"><ele>112.0</ele><time>2026-04-06T09:24:40.999Z</time></trkpt><trkpt lat="37.08694017580284" lon="15.14146439541441"><ele>112.5</ele><time>2026-04-06T09:24:41.999Z</time></trkpt><trkpt lat="37.087020213943305" lon="15.141337278427315"><ele>113.0</ele><time>2026-04-06T09:24:42.999Z</time></trkpt><trkpt lat="37.087100512699706" lon="15.141214252891489"><ele>113.25</ele><time>2026-04-06T09:24:43.999Z</time></trkpt><trkpt lat="37.087178349904256" lon="15.141083983817584"><ele>113.5</ele><time>2026-04-06T09:24:44.999Z</time></trkpt><trkpt lat="37.087268934108344" lon="15.140959344546465"><ele>113.75</ele><time>2026-04-06T09:24:45.999Z</time></trkpt><trkpt lat="37.08735077550134" lon="15.14083013531995"><ele>114.0</ele><time>2026-04-06T09:24:46.999Z</time></trkpt><trkpt lat="37.087428026341904" lon="15.14070817352754"><ele>116.0</ele><time>2026-04-06T09:24:47.999Z</time></trkpt><trkpt lat="37.087500514475686" lon="15.140593732588583"><ele>118.0</ele><time>2026-04-06T09:24:48.999Z</time></trkpt><trkpt lat="37.08757488210975" lon="15.140482975598331"><ele>120.0</ele><time>2026-04-06T09:24:49.999Z</time></trkpt><trkpt lat="37.08764947594964" lon="15.140369274466952"><ele>122.0</ele><time>2026-04-06T09:24:50.999Z</time></trkpt><trkpt lat="37.08771062348269" lon="15.140251731426314"><ele>122.0</ele><time>2026-04-06T09:24:51.999Z</time></trkpt><trkpt lat="37.087784381284685" lon="15.140143504317397"><ele>121.99999999999999</ele><time>2026-04-06T09:24:52.999Z</time></trkpt><trkpt lat="37.08785851318253" lon="15.140034608978931"><ele>121.99999999999999</ele><time>2026-04-06T09:24:53.999Z</time></trkpt><trkpt lat="37.087930343764974" lon="15.139926675847422"><ele>122.0</ele><time>2026-04-06T09:24:54.999Z</time></trkpt><trkpt lat="37.087994064346155" lon="15.139826123499306"><ele>122.0</ele><time>2026-04-06T09:24:55.999Z</time></trkpt><trkpt lat="37.08805002237436" lon="15.13973249110871"><ele>121.83333333333333</ele><time>2026-04-06T09:24:56.999Z</time></trkpt><trkpt lat="37.088097223496895" lon="15.139655421304514"><ele>121.66666666666666</ele><time>2026-04-06T09:24:57.999Z</time></trkpt><trkpt lat="37.08814114750183" lon="15.139586032739556"><ele>121.5</ele><time>2026-04-06T09:24:58.999Z</time></trkpt><trkpt lat="37.08818755378094" lon="15.139513247394552"><ele>121.33333333333334</ele><time>2026-04-06T09:24:59.999Z</time></trkpt><trkpt lat="37.08823755789109" lon="15.13943369497802"><ele>121.16666666666667</ele><time>2026-04-06T09:25:00.999Z</time></trkpt><trkpt lat="37.08829344289729" lon="15.139355229846311"><ele>121.0</ele><time>2026-04-06T09:25:01.999Z</time></trkpt><trkpt lat="37.0883537027716" lon="15.1392783862693"><ele>121.83333333333334</ele><time>2026-04-06T09:25:02.999Z</time></trkpt><trkpt lat="37.08840847466293" lon="15.139203974587486"><ele>122.66666666666667</ele><time>2026-04-06T09:25:03.999Z</time></trkpt><trkpt lat="37.088454057080746" lon="15.139124304984866"><ele>123.5</ele><time>2026-04-06T09:25:04.999Z</time></trkpt><trkpt lat="37.088495921971095" lon="15.139043529938847"><ele>124.33333333333334</ele><time>2026-04-06T09:25:05.999Z</time></trkpt><trkpt lat="37.08853683396367" lon="15.138968437744522"><ele>125.16666666666667</ele><time>2026-04-06T09:25:06.999Z</time></trkpt><trkpt lat="37.08858337973382" lon="15.1388926974593"><ele>126.0</ele><time>2026-04-06T09:25:07.999Z</time></trkpt><trkpt lat="37.08864011154245" lon="15.138807917980937"><ele>126.0</ele><time>2026-04-06T09:25:08.999Z</time></trkpt><trkpt lat="37.08869742472923" lon="15.13872126042167"><ele>126.0</ele><time>2026-04-06T09:25:09.999Z</time></trkpt><trkpt lat="37.08875111835649" lon="15.138637758076912"><ele>126.0</ele><time>2026-04-06T09:25:10.999Z</time></trkpt><trkpt lat="37.088798646891036" lon="15.13856023780215"><ele>126.0</ele><time>2026-04-06T09:25:11.999Z</time></trkpt><trkpt lat="37.088845499251065" lon="15.138489138670204"><ele>126.0</ele><time>2026-04-06T09:25:12.999Z</time></trkpt><trkpt lat="37.088898202427714" lon="15.138409591438684"><ele>126.0</ele><time>2026-04-06T09:25:13.999Z</time></trkpt><trkpt lat="37.08895352763953" lon="15.138321374331397"><ele>126.0</ele><time>2026-04-06T09:25:14.999Z</time></trkpt><trkpt lat="37.08901527499903" lon="15.138227860831764"><ele>126.0</ele><time>2026-04-06T09:25:15.999Z</time></trkpt><trkpt lat="37.08907344252923" lon="15.138135787631942"><ele>126.0</ele><time>2026-04-06T09:25:16.999Z</time></trkpt><trkpt lat="37.08913085483634" lon="15.138041333162484"><ele>126.0</ele><time>2026-04-06T09:25:17.999Z</time></trkpt><trkpt lat="37.0891903667054" lon="15.1379448613687"><ele>126.0</ele><time>2026-04-06T09:25:18.999Z</time></trkpt><trkpt lat="37.08925209725787" lon="15.137851464428028"><ele>125.19999999999999</ele><time>2026-04-06T09:25:19.999Z</time></trkpt><trkpt lat="37.08931092149391" lon="15.137763097279132"><ele>124.39999999999999</ele><time>2026-04-06T09:25:20.999Z</time></trkpt><trkpt lat="37.08936823197672" lon="15.13767648281943"><ele>123.6</ele><time>2026-04-06T09:25:21.999Z</time></trkpt><trkpt lat="37.08942432843108" lon="15.137591357029162"><ele>122.8</ele><time>2026-04-06T09:25:22.999Z</time></trkpt><trkpt lat="37.08947883123344" lon="15.137500668625213"><ele>122.0</ele><time>2026-04-06T09:25:23.999Z</time></trkpt><trkpt lat="37.08953651413436" lon="15.137407486549758"><ele>122.6</ele><time>2026-04-06T09:25:24.999Z</time></trkpt><trkpt lat="37.089596875667844" lon="15.137313334517772"><ele>123.19999999999999</ele><time>2026-04-06T09:25:25.999Z</time></trkpt><trkpt lat="37.08966088579539" lon="15.137217644719104"><ele>123.8</ele><time>2026-04-06T09:25:26.999Z</time></trkpt><trkpt lat="37.08972235985508" lon="15.137120321782666"><ele>124.4</ele><time>2026-04-06T09:25:27.999Z</time></trkpt><trkpt lat="37.089782361322115" lon="15.137022807712885"><ele>125.0</ele><time>2026-04-06T09:25:28.999Z</time></trkpt><trkpt lat="37.089842386066316" lon="15.136927466734013"><ele>125.0</ele><time>2026-04-06T09:25:29.999Z</time></trkpt><trkpt lat="37.08990389205042" lon="15.136833629457797"><ele>125.0</ele><time>2026-04-06T09:25:30.999Z</time></trkpt><trkpt lat="37.08996638097797" lon="15.136739922448408"><ele>125.0</ele><time>2026-04-06T09:25:31.999Z</time></trkpt><trkpt lat="37.09002720960625" lon="15.13664615477056"><ele>125.0</ele><time>2026-04-06T09:25:32.999Z</time></trkpt><trkpt lat="37.09008692372612" lon="15.136551951873804"><ele>125.0</ele><time>2026-04-06T09:25:33.999Z</time></trkpt><trkpt lat="37.090147547119855" lon="15.13645620004399"><ele>124.0</ele><time>2026-04-06T09:25:34.999Z</time></trkpt><trkpt lat="37.09020966836011" lon="15.136358425765506"><ele>123.0</ele><time>2026-04-06T09:25:35.999Z</time></trkpt><trkpt lat="37.09028110651058" lon="15.13624960992662"><ele>122.0</ele><time>2026-04-06T09:25:36.999Z</time></trkpt><trkpt lat="37.09035883070545" lon="15.136127470071377"><ele>121.0</ele><time>2026-04-06T09:25:37.999Z</time></trkpt><trkpt lat="37.09043802863187" lon="15.135999873583613"><ele>121.0</ele><time>2026-04-06T09:25:38.999Z</time></trkpt><trkpt lat="37.090517178916215" lon="15.135870057674937"><ele>121.0</ele><time>2026-04-06T09:25:39.999Z</time></trkpt><trkpt lat="37.09059454584584" lon="15.135750989651466"><ele>121.0</ele><time>2026-04-06T09:25:40.999Z</time></trkpt><trkpt lat="37.09067420237572" lon="15.135635485303178"><ele>121.0</ele><time>2026-04-06T09:25:41.999Z</time></trkpt><trkpt lat="37.09075156184955" lon="15.13551766709451"><ele>121.5</ele><time>2026-04-06T09:25:42.999Z</time></trkpt><trkpt lat="37.09082607159735" lon="15.135399302426544"><ele>122.0</ele><time>2026-04-06T09:25:43.999Z</time></trkpt><trkpt lat="37.090901134078514" lon="15.135278396175949"><ele>122.5</ele><time>2026-04-06T09:25:44.999Z</time></trkpt><trkpt lat="37.09098175034257" lon="15.13515179632729"><ele>123.0</ele><time>2026-04-06T09:25:45.999Z</time></trkpt><trkpt lat="37.09106389480676" lon="15.135025725254161"><ele>123.0</ele><time>2026-04-06T09:25:46.999Z</time></trkpt><trkpt lat="37.09114624862411" lon="15.134899831445972"><ele>123.0</ele><time>2026-04-06T09:25:47.999Z</time></trkpt><trkpt lat="37.09122494877079" lon="15.134777087990795"><ele>123.0</ele><time>2026-04-06T09:25:48.999Z</time></trkpt><trkpt lat="37.091299400497654" lon="15.134662334221197"><ele>123.0</ele><time>2026-04-06T09:25:49.999Z</time></trkpt><trkpt lat="37.0913705061208" lon="15.13455523981331"><ele>122.80000000000001</ele><time>2026-04-06T09:25:50.999Z</time></trkpt><trkpt lat="37.09143663922475" lon="15.134453535433732"><ele>122.60000000000001</ele><time>2026-04-06T09:25:51.999Z</time></trkpt><trkpt lat="37.091501842656726" lon="15.134351098682371"><ele>122.39999999999999</ele><time>2026-04-06T09:25:52.999Z</time></trkpt><trkpt lat="37.09156598710853" lon="15.134249975658639"><ele>122.19999999999999</ele><time>2026-04-06T09:25:53.999Z</time></trkpt><trkpt lat="37.09162841843713" lon="15.134146881964016"><ele>122.0</ele><time>2026-04-06T09:25:54.999Z</time></trkpt><trkpt lat="37.09168323129805" lon="15.134038750125606"><ele>122.39999999999999</ele><time>2026-04-06T09:25:55.999Z</time></trkpt><trkpt lat="37.09173601579217" lon="15.133930054329866"><ele>122.79999999999998</ele><time>2026-04-06T09:25:56.999Z</time></trkpt><trkpt lat="37.091791073388784" lon="15.133827819852597"><ele>123.2</ele><time>2026-04-06T09:25:57.999Z</time></trkpt><trkpt lat="37.09185313440741" lon="15.133739794697735"><ele>123.6</ele><time>2026-04-06T09:25:58.999Z</time></trkpt><trkpt lat="37.09191806613421" lon="15.133662637460779"><ele>124.0</ele><time>2026-04-06T09:25:59.999Z</time></trkpt><trkpt lat="37.091977847554205" lon="15.133591160299598"><ele>124.00000000000001</ele><time>2026-04-06T09:26:00.999Z</time></trkpt><trkpt lat="37.09202403952039" lon="15.13351403478773"><ele>124.0</ele><time>2026-04-06T09:26:01.999Z</time></trkpt><trkpt lat="37.09206506754221" lon="15.133444996468429"><ele>124.0</ele><time>2026-04-06T09:26:02.999Z</time></trkpt><trkpt lat="37.09214711274628" lon="15.133335682844693"><ele>124.0</ele><time>2026-04-06T09:26:04.999Z</time></trkpt><trkpt lat="37.09219364500154" lon="15.13327376459121"><ele>124.00000000000001</ele><time>2026-04-06T09:26:05.999Z</time></trkpt><trkpt lat="37.09224075042168" lon="15.133200266301941"><ele>124.0</ele><time>2026-04-06T09:26:06.999Z</time></trkpt><trkpt lat="37.09228717164135" lon="15.133117968267547"><ele>124.6</ele><time>2026-04-06T09:26:07.999Z</time></trkpt><trkpt lat="37.09233922107391" lon="15.133023079891263"><ele>125.2</ele><time>2026-04-06T09:26:08.999Z</time></trkpt><trkpt lat="37.09240074970602" lon="15.1329239204345"><ele>125.79999999999998</ele><time>2026-04-06T09:26:09.999Z</time></trkpt><trkpt lat="37.09246883312375" lon="15.132818803192599"><ele>126.39999999999999</ele><time>2026-04-06T09:26:10.999Z</time></trkpt><trkpt lat="37.09253457701735" lon="15.132716826585927"><ele>127.0</ele><time>2026-04-06T09:26:11.999Z</time></trkpt><trkpt lat="37.092614800127684" lon="15.13259454443761"><ele>127.0</ele><time>2026-04-06T09:26:12.999Z</time></trkpt><trkpt lat="37.09270076778874" lon="15.132467420809775"><ele>127.0</ele><time>2026-04-06T09:26:13.999Z</time></trkpt><trkpt lat="37.09278769250753" lon="15.132336805344577"><ele>127.0</ele><time>2026-04-06T09:26:14.999Z</time></trkpt><trkpt lat="37.092877097146875" lon="15.13220012572387"><ele>127.0</ele><time>2026-04-06T09:26:15.999Z</time></trkpt><trkpt lat="37.09296140586332" lon="15.132069347117758"><ele>127.25</ele><time>2026-04-06T09:26:16.999Z</time></trkpt><trkpt lat="37.09304933896308" lon="15.131936894536981"><ele>127.5</ele><time>2026-04-06T09:26:17.999Z</time></trkpt><trkpt lat="37.09313586034966" lon="15.131805839461059"><ele>127.75</ele><time>2026-04-06T09:26:18.999Z</time></trkpt><trkpt lat="37.09321789632679" lon="15.131673729274942"><ele>128.0</ele><time>2026-04-06T09:26:19.999Z</time></trkpt><trkpt lat="37.093297085642014" lon="15.131540988960717"><ele>128.5</ele><time>2026-04-06T09:26:20.999Z</time></trkpt><trkpt lat="37.09337569268304" lon="15.131410635488221"><ele>129.0</ele><time>2026-04-06T09:26:21.999Z</time></trkpt><trkpt lat="37.09344927325514" lon="15.131283334999688"><ele>129.5</ele><time>2026-04-06T09:26:22.999Z</time></trkpt><trkpt lat="37.093519589995985" lon="15.131165366762728"><ele>130.0</ele><time>2026-04-06T09:26:23.999Z</time></trkpt><trkpt lat="37.09358748134031" lon="15.13105878749704"><ele>130.0</ele><time>2026-04-06T09:26:24.999Z</time></trkpt><trkpt lat="37.09365559923348" lon="15.130958582320343"><ele>130.0</ele><time>2026-04-06T09:26:25.999Z</time></trkpt><trkpt lat="37.093725947306886" lon="15.130860286550018"><ele>130.0</ele><time>2026-04-06T09:26:26.999Z</time></trkpt><trkpt lat="37.09379489949879" lon="15.13075603144456"><ele>130.0</ele><time>2026-04-06T09:26:27.999Z</time></trkpt><trkpt lat="37.09386547777589" lon="15.130646476520115"><ele>130.0</ele><time>2026-04-06T09:26:28.999Z</time></trkpt><trkpt lat="37.093934892805365" lon="15.130539387649504"><ele>130.2</ele><time>2026-04-06T09:26:29.999Z</time></trkpt><trkpt lat="37.09400309562533" lon="15.130432918742395"><ele>130.4</ele><time>2026-04-06T09:26:30.999Z</time></trkpt><trkpt lat="37.09406442447768" lon="15.130333217349028"><ele>130.6</ele><time>2026-04-06T09:26:31.999Z</time></trkpt><trkpt lat="37.094124952109695" lon="15.130236290837475"><ele>130.8</ele><time>2026-04-06T09:26:32.999Z</time></trkpt><trkpt lat="37.09418709632453" lon="15.130150214846003"><ele>131.0</ele><time>2026-04-06T09:26:33.999Z</time></trkpt><trkpt lat="37.09424416567695" lon="15.130093631496122"><ele>131.0</ele><time>2026-04-06T09:26:34.999Z</time></trkpt><trkpt lat="37.09432715422409" lon="15.13004318989387"><ele>131.0</ele><time>2026-04-06T09:26:36.999Z</time></trkpt><trkpt lat="37.094389668752484" lon="15.13002446510267"><ele>131.0</ele><time>2026-04-06T09:26:38.999Z</time></trkpt><trkpt lat="37.09447152121404" lon="15.130000751904099"><ele>131.0</ele><time>2026-04-06T09:26:41.999Z</time></trkpt><trkpt lat="37.09459521069119" lon="15.130035996786894"><ele>131.0</ele><time>2026-04-06T09:26:43.999Z</time></trkpt><trkpt lat="37.094666951657345" lon="15.13008253839375"><ele>131.0</ele><time>2026-04-06T09:26:44.999Z</time></trkpt><trkpt lat="37.094727454653814" lon="15.13014428907466"><ele>131.0</ele><time>2026-04-06T09:26:45.999Z</time></trkpt><trkpt lat="37.09479962189239" lon="15.130222423214144"><ele>131.0</ele><time>2026-04-06T09:26:46.999Z</time></trkpt><trkpt lat="37.094875706072635" lon="15.130308381491469"><ele>131.0</ele><time>2026-04-06T09:26:47.999Z</time></trkpt><trkpt lat="37.09495440304911" lon="15.130387450963056"><ele>131.0</ele><time>2026-04-06T09:26:48.999Z</time></trkpt><trkpt lat="37.095036862247376" lon="15.13047141767293"><ele>131.0</ele><time>2026-04-06T09:26:49.999Z</time></trkpt><trkpt lat="37.09511156255546" lon="15.130550942491313"><ele>131.0</ele><time>2026-04-06T09:26:50.999Z</time></trkpt><trkpt lat="37.09518629232485" lon="15.130630564177757"><ele>131.0</ele><time>2026-04-06T09:26:51.999Z</time></trkpt><trkpt lat="37.095263723595835" lon="15.130706197595229"><ele>131.0</ele><time>2026-04-06T09:26:52.999Z</time></trkpt><trkpt lat="37.09533858693668" lon="15.130771021981642"><ele>131.0</ele><time>2026-04-06T09:26:53.999Z</time></trkpt><trkpt lat="37.09539529697131" lon="15.130846239360551"><ele>131.0</ele><time>2026-04-06T09:26:54.999Z</time></trkpt><trkpt lat="37.0954631800029" lon="15.130918371931267"><ele>131.2</ele><time>2026-04-06T09:26:55.999Z</time></trkpt><trkpt lat="37.095536679023205" lon="15.131001423219743"><ele>131.39999999999998</ele><time>2026-04-06T09:26:56.999Z</time></trkpt><trkpt lat="37.095621488577166" lon="15.131074719431117"><ele>131.6</ele><time>2026-04-06T09:26:57.999Z</time></trkpt><trkpt lat="37.09569823735174" lon="15.131160352713321"><ele>131.79999999999998</ele><time>2026-04-06T09:26:58.999Z</time></trkpt><trkpt lat="37.09577783734743" lon="15.131238569179907"><ele>132.0</ele><time>2026-04-06T09:26:59.999Z</time></trkpt><trkpt lat="37.09585619051615" lon="15.131310055350598"><ele>132.0</ele><time>2026-04-06T09:27:00.999Z</time></trkpt><trkpt lat="37.09593390518903" lon="15.131366371749012"><ele>132.0</ele><time>2026-04-06T09:27:01.999Z</time></trkpt><trkpt lat="37.096009031707204" lon="15.131412029065205"><ele>132.0</ele><time>2026-04-06T09:27:02.999Z</time></trkpt><trkpt lat="37.09609088214817" lon="15.131446119215742"><ele>132.0</ele><time>2026-04-06T09:27:03.999Z</time></trkpt><trkpt lat="37.09617762512061" lon="15.131463430201263"><ele>132.0</ele><time>2026-04-06T09:27:04.999Z</time></trkpt><trkpt lat="37.09626551353635" lon="15.131480088788916"><ele>132.0</ele><time>2026-04-06T09:27:05.999Z</time></trkpt><trkpt lat="37.09635984677403" lon="15.131487305478602"><ele>132.0</ele><time>2026-04-06T09:27:06.999Z</time></trkpt><trkpt lat="37.09646316088442" lon="15.131474545465291"><ele>132.0</ele><time>2026-04-06T09:27:07.999Z</time></trkpt><trkpt lat="37.09658045692844" lon="15.131470235419854"><ele>132.0</ele><time>2026-04-06T09:27:08.999Z</time></trkpt><trkpt lat="37.096699135266846" lon="15.131413685156488"><ele>132.0</ele><time>2026-04-06T09:27:09.999Z</time></trkpt><trkpt lat="37.09683132997474" lon="15.131353142595596"><ele>132.5</ele><time>2026-04-06T09:27:10.999Z</time></trkpt><trkpt lat="37.09696432724048" lon="15.131276618830691"><ele>133.0</ele><time>2026-04-06T09:27:11.999Z</time></trkpt><trkpt lat="37.0970829615568" lon="15.131198472070125"><ele>133.5</ele><time>2026-04-06T09:27:12.999Z</time></trkpt><trkpt lat="37.09720808715405" lon="15.131114898651056"><ele>134.0</ele><time>2026-04-06T09:27:13.999Z</time></trkpt><trkpt lat="37.09733989671296" lon="15.131036136374199"><ele>134.75</ele><time>2026-04-06T09:27:14.999Z</time></trkpt><trkpt lat="37.09747279595378" lon="15.130959503145847"><ele>135.5</ele><time>2026-04-06T09:27:15.999Z</time></trkpt><trkpt lat="37.09760293248942" lon="15.130878173954372"><ele>136.25</ele><time>2026-04-06T09:27:16.999Z</time></trkpt><trkpt lat="37.09773179281444" lon="15.13079436116554"><ele>137.0</ele><time>2026-04-06T09:27:17.999Z</time></trkpt><trkpt lat="37.097868326767404" lon="15.130731656344793"><ele>136.75</ele><time>2026-04-06T09:27:18.999Z</time></trkpt><trkpt lat="37.09799880869028" lon="15.130654955399342"><ele>136.5</ele><time>2026-04-06T09:27:19.999Z</time></trkpt><trkpt lat="37.09812181064259" lon="15.130564085439445"><ele>136.25</ele><time>2026-04-06T09:27:20.999Z</time></trkpt><trkpt lat="37.098251413072575" lon="15.130498148852867"><ele>136.0</ele><time>2026-04-06T09:27:21.999Z</time></trkpt><trkpt lat="37.09838332085144" lon="15.13043727046211"><ele>135.5</ele><time>2026-04-06T09:27:22.999Z</time></trkpt><trkpt lat="37.09851745569507" lon="15.130395178394014"><ele>135.0</ele><time>2026-04-06T09:27:23.999Z</time></trkpt><trkpt lat="37.09865851089071" lon="15.130383859757721"><ele>134.5</ele><time>2026-04-06T09:27:24.999Z</time></trkpt><trkpt lat="37.098806874933274" lon="15.130400708188455"><ele>134.0</ele><time>2026-04-06T09:27:25.999Z</time></trkpt><trkpt lat="37.098958252772675" lon="15.130435426732756"><ele>134.33333333333331</ele><time>2026-04-06T09:27:26.999Z</time></trkpt><trkpt lat="37.09910796904626" lon="15.130510105895073"><ele>134.66666666666666</ele><time>2026-04-06T09:27:27.999Z</time></trkpt><trkpt lat="37.099271463665616" lon="15.130557951030967"><ele>135.0</ele><time>2026-04-06T09:27:28.999Z</time></trkpt><trkpt lat="37.09943413547858" lon="15.13063559850024"><ele>135.0</ele><time>2026-04-06T09:27:29.999Z</time></trkpt><trkpt lat="37.0996056346405" lon="15.13070926935722"><ele>135.0</ele><time>2026-04-06T09:27:30.999Z</time></trkpt><trkpt lat="37.099780225693785" lon="15.130783926364293"><ele>135.0</ele><time>2026-04-06T09:27:31.999Z</time></trkpt><trkpt lat="37.0999469071016" lon="15.130853793704732"><ele>135.66666666666666</ele><time>2026-04-06T09:27:32.999Z</time></trkpt><trkpt lat="37.10011796603533" lon="15.130920586271046"><ele>136.33333333333331</ele><time>2026-04-06T09:27:33.999Z</time></trkpt><trkpt lat="37.100295338375275" lon="15.130988728407912"><ele>137.0</ele><time>2026-04-06T09:27:34.999Z</time></trkpt><trkpt lat="37.10047047065559" lon="15.131058944852587"><ele>137.0</ele><time>2026-04-06T09:27:35.999Z</time></trkpt><trkpt lat="37.10063900017663" lon="15.131130214915824"><ele>137.0</ele><time>2026-04-06T09:27:36.999Z</time></trkpt><trkpt lat="37.100798993937914" lon="15.131200524700397"><ele>137.0</ele><time>2026-04-06T09:27:37.999Z</time></trkpt><trkpt lat="37.10095533082465" lon="15.131266784035363"><ele>137.0</ele><time>2026-04-06T09:27:38.999Z</time></trkpt><trkpt lat="37.1011081730464" lon="15.131325859082533"><ele>137.0</ele><time>2026-04-06T09:27:39.999Z</time></trkpt><trkpt lat="37.10125660740174" lon="15.131385697266841"><ele>137.0</ele><time>2026-04-06T09:27:40.999Z</time></trkpt><trkpt lat="37.10140180366172" lon="15.131449319043877"><ele>137.0</ele><time>2026-04-06T09:27:41.999Z</time></trkpt><trkpt lat="37.10154574982938" lon="15.13151275169101"><ele>137.0</ele><time>2026-04-06T09:27:42.999Z</time></trkpt><trkpt lat="37.10169047308498" lon="15.131572054384808"><ele>137.0</ele><time>2026-04-06T09:27:43.999Z</time></trkpt><trkpt lat="37.101836322192185" lon="15.131625698584102"><ele>137.0</ele><time>2026-04-06T09:27:44.999Z</time></trkpt><trkpt lat="37.101979377207016" lon="15.131683176433425"><ele>137.0</ele><time>2026-04-06T09:27:45.999Z</time></trkpt><trkpt lat="37.10212443676613" lon="15.131743821809355"><ele>137.0</ele><time>2026-04-06T09:27:46.999Z</time></trkpt><trkpt lat="37.102268378700515" lon="15.131797068201315"><ele>137.0</ele><time>2026-04-06T09:27:47.999Z</time></trkpt><trkpt lat="37.10241407508109" lon="15.131836223677809"><ele>137.0</ele><time>2026-04-06T09:27:48.999Z</time></trkpt><trkpt lat="37.102564809712874" lon="15.131852501001653"><ele>137.0</ele><time>2026-04-06T09:27:49.999Z</time></trkpt><trkpt lat="37.10271999633464" lon="15.131845172711886"><ele>137.66666666666666</ele><time>2026-04-06T09:27:50.999Z</time></trkpt><trkpt lat="37.10287603026894" lon="15.131823592529486"><ele>138.33333333333334</ele><time>2026-04-06T09:27:51.999Z</time></trkpt><trkpt lat="37.10303394536531" lon="15.13179629652704"><ele>139.0</ele><time>2026-04-06T09:27:52.999Z</time></trkpt><trkpt lat="37.10319129621841" lon="15.131769540865067"><ele>138.66666666666669</ele><time>2026-04-06T09:27:53.999Z</time></trkpt><trkpt lat="37.10335073176076" lon="15.131736066641835"><ele>138.33333333333334</ele><time>2026-04-06T09:27:54.999Z</time></trkpt><trkpt lat="37.10351042263092" lon="15.13170263722621"><ele>138.0</ele><time>2026-04-06T09:27:55.999Z</time></trkpt><trkpt lat="37.10366718558371" lon="15.131668026563734"><ele>138.0</ele><time>2026-04-06T09:27:56.999Z</time></trkpt><trkpt lat="37.10381931847586" lon="15.131631209553259"><ele>138.0</ele><time>2026-04-06T09:27:57.999Z</time></trkpt><trkpt lat="37.103962077340256" lon="15.131581616874637"><ele>138.0</ele><time>2026-04-06T09:27:58.999Z</time></trkpt><trkpt lat="37.1040908795152" lon="15.131516505176892"><ele>138.0</ele><time>2026-04-06T09:27:59.999Z</time></trkpt><trkpt lat="37.10420412196878" lon="15.1314343313126"><ele>139.25</ele><time>2026-04-06T09:28:00.999Z</time></trkpt><trkpt lat="37.10430888590966" lon="15.131345712120373"><ele>140.5</ele><time>2026-04-06T09:28:01.999Z</time></trkpt><trkpt lat="37.104407840917915" lon="15.131253606547762"><ele>141.75</ele><time>2026-04-06T09:28:02.999Z</time></trkpt><trkpt lat="37.104497934569316" lon="15.131152287680536"><ele>143.0</ele><time>2026-04-06T09:28:03.999Z</time></trkpt><trkpt lat="37.104567753291725" lon="15.13103863886414"><ele>143.0</ele><time>2026-04-06T09:28:04.999Z</time></trkpt><trkpt lat="37.10463554268992" lon="15.130921452927796"><ele>143.0</ele><time>2026-04-06T09:28:05.999Z</time></trkpt><trkpt lat="37.1046962479612" lon="15.130786008083565"><ele>143.0</ele><time>2026-04-06T09:28:06.999Z</time></trkpt><trkpt lat="37.10475029314214" lon="15.130633545385082"><ele>143.0</ele><time>2026-04-06T09:28:07.999Z</time></trkpt><trkpt lat="37.10480327594878" lon="15.130466142354877"><ele>143.75</ele><time>2026-04-06T09:28:08.999Z</time></trkpt><trkpt lat="37.10485673008977" lon="15.130289871813194"><ele>144.5</ele><time>2026-04-06T09:28:09.999Z</time></trkpt><trkpt lat="37.10490661252004" lon="15.130114468138865"><ele>145.25</ele><time>2026-04-06T09:28:10.999Z</time></trkpt><trkpt lat="37.104962228020234" lon="15.129941008357791"><ele>146.0</ele><time>2026-04-06T09:28:11.999Z</time></trkpt><trkpt lat="37.10501771093563" lon="15.12976451219883"><ele>146.0</ele><time>2026-04-06T09:28:12.999Z</time></trkpt><trkpt lat="37.10507153702567" lon="15.129589751847444"><ele>146.0</ele><time>2026-04-06T09:28:13.999Z</time></trkpt><trkpt lat="37.10512177680001" lon="15.12941838133216"><ele>146.0</ele><time>2026-04-06T09:28:14.999Z</time></trkpt><trkpt lat="37.1051691310563" lon="15.129247408840595"><ele>146.0</ele><time>2026-04-06T09:28:15.999Z</time></trkpt><trkpt lat="37.10521713088275" lon="15.129080353715267"><ele>146.25</ele><time>2026-04-06T09:28:16.999Z</time></trkpt><trkpt lat="37.105265878693025" lon="15.12891604314692"><ele>146.5</ele><time>2026-04-06T09:28:17.999Z</time></trkpt><trkpt lat="37.105314072757224" lon="15.128752063422542"><ele>146.75</ele><time>2026-04-06T09:28:18.999Z</time></trkpt><trkpt lat="37.10535987769572" lon="15.12859077445248"><ele>147.0</ele><time>2026-04-06T09:28:19.999Z</time></trkpt><trkpt lat="37.105405265314104" lon="15.128431218132963"><ele>147.0</ele><time>2026-04-06T09:28:20.999Z</time></trkpt><trkpt lat="37.10545665814439" lon="15.128268966433636"><ele>147.0</ele><time>2026-04-06T09:28:21.999Z</time></trkpt><trkpt lat="37.10551166050148" lon="15.128103692320261"><ele>147.0</ele><time>2026-04-06T09:28:22.999Z</time></trkpt><trkpt lat="37.10556314295244" lon="15.127942937750454"><ele>147.0</ele><time>2026-04-06T09:28:23.999Z</time></trkpt><trkpt lat="37.105610947801146" lon="15.127788346128845"><ele>147.0</ele><time>2026-04-06T09:28:24.999Z</time></trkpt><trkpt lat="37.10565471470976" lon="15.12764322467359"><ele>147.0</ele><time>2026-04-06T09:28:25.999Z</time></trkpt><trkpt lat="37.10569131794039" lon="15.127508644924353"><ele>147.0</ele><time>2026-04-06T09:28:26.999Z</time></trkpt><trkpt lat="37.105723695282094" lon="15.127389245450749"><ele>147.0</ele><time>2026-04-06T09:28:27.999Z</time></trkpt><trkpt lat="37.105760937958394" lon="15.127282288407224"><ele>147.0</ele><time>2026-04-06T09:28:28.999Z</time></trkpt><trkpt lat="37.105807786529866" lon="15.127190286855594"><ele>147.0</ele><time>2026-04-06T09:28:29.999Z</time></trkpt><trkpt lat="37.105866932916406" lon="15.12711897229361"><ele>147.0</ele><time>2026-04-06T09:28:30.999Z</time></trkpt><trkpt lat="37.10593000966212" lon="15.127083783868867"><ele>147.0</ele><time>2026-04-06T09:28:31.999Z</time></trkpt><trkpt lat="37.10606563513364" lon="15.127084484194805"><ele>147.0</ele><time>2026-04-06T09:28:33.999Z</time></trkpt><trkpt lat="37.10614555771161" lon="15.12712260188855"><ele>147.0</ele><time>2026-04-06T09:28:34.999Z</time></trkpt><trkpt lat="37.106230242045015" lon="15.12717965730482"><ele>147.0</ele><time>2026-04-06T09:28:35.999Z</time></trkpt><trkpt lat="37.10632344504372" lon="15.127244661374117"><ele>147.0</ele><time>2026-04-06T09:28:36.999Z</time></trkpt><trkpt lat="37.10642987162659" lon="15.127308809709508"><ele>147.0</ele><time>2026-04-06T09:28:37.999Z</time></trkpt><trkpt lat="37.10654524057947" lon="15.127372145536155"><ele>147.0</ele><time>2026-04-06T09:28:38.999Z</time></trkpt><trkpt lat="37.10666482046283" lon="15.127436969409063"><ele>146.75</ele><time>2026-04-06T09:28:39.999Z</time></trkpt><trkpt lat="37.10679029190395" lon="15.12750682440182"><ele>146.5</ele><time>2026-04-06T09:28:40.999Z</time></trkpt><trkpt lat="37.10691674594333" lon="15.127577564487462"><ele>146.25</ele><time>2026-04-06T09:28:41.999Z</time></trkpt><trkpt lat="37.107037704741074" lon="15.127648219603145"><ele>146.0</ele><time>2026-04-06T09:28:42.999Z</time></trkpt><trkpt lat="37.107164805423444" lon="15.12772424152898"><ele>146.0</ele><time>2026-04-06T09:28:43.999Z</time></trkpt><trkpt lat="37.10729758885401" lon="15.127799556920671"><ele>146.0</ele><time>2026-04-06T09:28:44.999Z</time></trkpt><trkpt lat="37.10743171579865" lon="15.127871760724984"><ele>146.0</ele><time>2026-04-06T09:28:45.999Z</time></trkpt><trkpt lat="37.10756207061927" lon="15.127945066303337"><ele>146.0</ele><time>2026-04-06T09:28:46.999Z</time></trkpt><trkpt lat="37.10769060084366" lon="15.128022752579035"><ele>145.75</ele><time>2026-04-06T09:28:47.999Z</time></trkpt><trkpt lat="37.10781780336506" lon="15.128096178900954"><ele>145.5</ele><time>2026-04-06T09:28:48.999Z</time></trkpt><trkpt lat="37.1079385504011" lon="15.12816656234994"><ele>145.25</ele><time>2026-04-06T09:28:49.999Z</time></trkpt><trkpt lat="37.108051525067545" lon="15.128236962060306"><ele>145.0</ele><time>2026-04-06T09:28:50.999Z</time></trkpt><trkpt lat="37.108158615683315" lon="15.128304749320371"><ele>145.4</ele><time>2026-04-06T09:28:51.999Z</time></trkpt><trkpt lat="37.10826018759646" lon="15.128367212975142"><ele>145.8</ele><time>2026-04-06T09:28:52.999Z</time></trkpt><trkpt lat="37.108352455313636" lon="15.128424912500362"><ele>146.2</ele><time>2026-04-06T09:28:53.999Z</time></trkpt><trkpt lat="37.108432614843885" lon="15.12847916888824"><ele>146.6</ele><time>2026-04-06T09:28:54.999Z</time></trkpt><trkpt lat="37.10849908245471" lon="15.128535097879519"><ele>147.0</ele><time>2026-04-06T09:28:55.999Z</time></trkpt><trkpt lat="37.10855718055495" lon="15.128586123700531"><ele>147.0</ele><time>2026-04-06T09:28:56.999Z</time></trkpt><trkpt lat="37.108641057563844" lon="15.128674907501152"><ele>147.0</ele><time>2026-04-06T09:28:58.999Z</time></trkpt><trkpt lat="37.10874174894029" lon="15.128579532764043"><ele>147.0</ele><time>2026-04-06T09:28:59.999Z</time></trkpt><trkpt lat="37.1088020698004" lon="15.128515904105093"><ele>147.0</ele><time>2026-04-06T09:29:00.999Z</time></trkpt><trkpt lat="37.108871994333185" lon="15.128441104807044"><ele>147.0</ele><time>2026-04-06T09:29:01.999Z</time></trkpt><trkpt lat="37.10896636992143" lon="15.128369040609806"><ele>147.5</ele><time>2026-04-06T09:29:02.999Z</time></trkpt><trkpt lat="37.10907925547387" lon="15.128296579924355"><ele>148.0</ele><time>2026-04-06T09:29:03.999Z</time></trkpt><trkpt lat="37.10918618679601" lon="15.128229649394413"><ele>148.5</ele><time>2026-04-06T09:29:04.999Z</time></trkpt><trkpt lat="37.10931905774666" lon="15.12816886902971"><ele>149.0</ele><time>2026-04-06T09:29:05.999Z</time></trkpt><trkpt lat="37.109445073924405" lon="15.128067863092046"><ele>149.75</ele><time>2026-04-06T09:29:06.999Z</time></trkpt><trkpt lat="37.10957131622914" lon="15.127991097121775"><ele>150.5</ele><time>2026-04-06T09:29:07.999Z</time></trkpt><trkpt lat="37.10970020744217" lon="15.12790634388759"><ele>151.25</ele><time>2026-04-06T09:29:08.999Z</time></trkpt><trkpt lat="37.10983955140894" lon="15.127835149525609"><ele>152.0</ele><time>2026-04-06T09:29:09.999Z</time></trkpt><trkpt lat="37.109983048815586" lon="15.12774192139693"><ele>152.33333333333331</ele><time>2026-04-06T09:29:10.999Z</time></trkpt><trkpt lat="37.11013154106692" lon="15.127647938301264"><ele>152.66666666666666</ele><time>2026-04-06T09:29:11.999Z</time></trkpt><trkpt lat="37.11027528522442" lon="15.127556960495191"><ele>153.0</ele><time>2026-04-06T09:29:12.999Z</time></trkpt><trkpt lat="37.11042364438848" lon="15.127461064291124"><ele>153.33333333333334</ele><time>2026-04-06T09:29:13.999Z</time></trkpt><trkpt lat="37.11057097248525" lon="15.127365453120863"><ele>153.66666666666669</ele><time>2026-04-06T09:29:14.999Z</time></trkpt><trkpt lat="37.11070006892147" lon="15.127260511517449"><ele>154.0</ele><time>2026-04-06T09:29:15.999Z</time></trkpt><trkpt lat="37.110837379565545" lon="15.1271816700024"><ele>154.5</ele><time>2026-04-06T09:29:16.999Z</time></trkpt><trkpt lat="37.11096230976713" lon="15.127092910351967"><ele>155.0</ele><time>2026-04-06T09:29:17.999Z</time></trkpt><trkpt lat="37.111085914088996" lon="15.127017245431988"><ele>155.5</ele><time>2026-04-06T09:29:18.999Z</time></trkpt><trkpt lat="37.111208830472066" lon="15.126944731102318"><ele>156.0</ele><time>2026-04-06T09:29:19.999Z</time></trkpt><trkpt lat="37.11132920965324" lon="15.126869938279393"><ele>156.0</ele><time>2026-04-06T09:29:20.999Z</time></trkpt><trkpt lat="37.111445491958825" lon="15.126789531329491"><ele>156.0</ele><time>2026-04-06T09:29:21.999Z</time></trkpt><trkpt lat="37.11155798121957" lon="15.126704888567179"><ele>156.0</ele><time>2026-04-06T09:29:22.999Z</time></trkpt><trkpt lat="37.11165612930681" lon="15.126602245354292"><ele>156.0</ele><time>2026-04-06T09:29:23.999Z</time></trkpt><trkpt lat="37.11174963624535" lon="15.126490490190855"><ele>156.5</ele><time>2026-04-06T09:29:24.999Z</time></trkpt><trkpt lat="37.11183260150392" lon="15.126354674169468"><ele>157.0</ele><time>2026-04-06T09:29:25.999Z</time></trkpt><trkpt lat="37.11190778297166" lon="15.126200602852737"><ele>157.5</ele><time>2026-04-06T09:29:26.999Z</time></trkpt><trkpt lat="37.1119816294563" lon="15.126037996424362"><ele>158.0</ele><time>2026-04-06T09:29:27.999Z</time></trkpt><trkpt lat="37.112060221602945" lon="15.125876060532512"><ele>158.66666666666666</ele><time>2026-04-06T09:29:28.999Z</time></trkpt><trkpt lat="37.112142696961115" lon="15.125715579390219"><ele>159.33333333333334</ele><time>2026-04-06T09:29:29.999Z</time></trkpt><trkpt lat="37.11222251119973" lon="15.125554351166166"><ele>160.0</ele><time>2026-04-06T09:29:30.999Z</time></trkpt><trkpt lat="37.11229970273561" lon="15.125391219203921"><ele>160.0</ele><time>2026-04-06T09:29:31.999Z</time></trkpt><trkpt lat="37.1123765420467" lon="15.125229978734541"><ele>160.0</ele><time>2026-04-06T09:29:32.999Z</time></trkpt><trkpt lat="37.11245431986553" lon="15.125069875464074"><ele>160.0</ele><time>2026-04-06T09:29:33.999Z</time></trkpt><trkpt lat="37.112530810116624" lon="15.124911836661253"><ele>160.0</ele><time>2026-04-06T09:29:34.999Z</time></trkpt><trkpt lat="37.112604706565094" lon="15.12475777273692"><ele>159.5</ele><time>2026-04-06T09:29:35.999Z</time></trkpt><trkpt lat="37.11268015102173" lon="15.124607495139843"><ele>159.0</ele><time>2026-04-06T09:29:36.999Z</time></trkpt><trkpt lat="37.1127597864554" lon="15.124464698324106"><ele>158.5</ele><time>2026-04-06T09:29:37.999Z</time></trkpt><trkpt lat="37.112851004896584" lon="15.124330523332699"><ele>158.0</ele><time>2026-04-06T09:29:38.999Z</time></trkpt><trkpt lat="37.11295610904731" lon="15.12420633022963"><ele>158.0</ele><time>2026-04-06T09:29:39.999Z</time></trkpt><trkpt lat="37.11307929918963" lon="15.124101495042677"><ele>158.0</ele><time>2026-04-06T09:29:40.999Z</time></trkpt><trkpt lat="37.113209904090226" lon="15.124020008461596"><ele>158.0</ele><time>2026-04-06T09:29:41.999Z</time></trkpt><trkpt lat="37.1133433642644" lon="15.123959420234229"><ele>158.0</ele><time>2026-04-06T09:29:42.999Z</time></trkpt><trkpt lat="37.11348315623235" lon="15.123922247142245"><ele>158.0</ele><time>2026-04-06T09:29:43.999Z</time></trkpt><trkpt lat="37.113635280204086" lon="15.123896950051787"><ele>158.0</ele><time>2026-04-06T09:29:44.999Z</time></trkpt><trkpt lat="37.11379098567405" lon="15.12387401984554"><ele>158.0</ele><time>2026-04-06T09:29:45.999Z</time></trkpt><trkpt lat="37.11394605872305" lon="15.123851159068648"><ele>158.0</ele><time>2026-04-06T09:29:46.999Z</time></trkpt><trkpt lat="37.11409863853619" lon="15.12382693816614"><ele>158.0</ele><time>2026-04-06T09:29:47.999Z</time></trkpt><trkpt lat="37.1142463883433" lon="15.123803625027021"><ele>158.0</ele><time>2026-04-06T09:29:48.999Z</time></trkpt><trkpt lat="37.1143836264004" lon="15.123783431735875"><ele>158.0</ele><time>2026-04-06T09:29:49.999Z</time></trkpt><trkpt lat="37.11452434985794" lon="15.123781749688568"><ele>158.0</ele><time>2026-04-06T09:29:50.999Z</time></trkpt><trkpt lat="37.114672747395176" lon="15.12376037590698"><ele>158.0</ele><time>2026-04-06T09:29:51.999Z</time></trkpt><trkpt lat="37.1148270630863" lon="15.12373814837595"><ele>158.0</ele><time>2026-04-06T09:29:52.999Z</time></trkpt><trkpt lat="37.11498621215333" lon="15.123714547341006"><ele>158.66666666666666</ele><time>2026-04-06T09:29:53.999Z</time></trkpt><trkpt lat="37.115150171777614" lon="15.123689981271578"><ele>159.33333333333334</ele><time>2026-04-06T09:29:54.999Z</time></trkpt><trkpt lat="37.11530976921277" lon="15.123647403787212"><ele>160.0</ele><time>2026-04-06T09:29:55.999Z</time></trkpt><trkpt lat="37.11546163056475" lon="15.123624140318714"><ele>160.0</ele><time>2026-04-06T09:29:56.999Z</time></trkpt><trkpt lat="37.11560265066511" lon="15.123601249812298"><ele>160.0</ele><time>2026-04-06T09:29:57.999Z</time></trkpt><trkpt lat="37.11573714908772" lon="15.12358318566776"><ele>160.0</ele><time>2026-04-06T09:29:58.999Z</time></trkpt><trkpt lat="37.115867545793485" lon="15.123567711302218"><ele>160.0</ele><time>2026-04-06T09:29:59.999Z</time></trkpt><trkpt lat="37.11599266014761" lon="15.1235496077712"><ele>159.4</ele><time>2026-04-06T09:30:00.999Z</time></trkpt><trkpt lat="37.116110777708805" lon="15.123523496935649"><ele>158.8</ele><time>2026-04-06T09:30:01.999Z</time></trkpt><trkpt lat="37.11622025787146" lon="15.123492950917992"><ele>158.2</ele><time>2026-04-06T09:30:02.999Z</time></trkpt><trkpt lat="37.1162916347993" lon="15.123393198220331"><ele>157.6</ele><time>2026-04-06T09:30:03.999Z</time></trkpt><trkpt lat="37.11632302622658" lon="15.12328682858494"><ele>157.0</ele><time>2026-04-06T09:30:04.999Z</time></trkpt><trkpt lat="37.116327873170896" lon="15.12316691720688"><ele>157.0</ele><time>2026-04-06T09:30:05.999Z</time></trkpt><trkpt lat="37.11630443357462" lon="15.123024411973072"><ele>157.0</ele><time>2026-04-06T09:30:06.999Z</time></trkpt><trkpt lat="37.11626253803486" lon="15.122880062870342"><ele>157.0</ele><time>2026-04-06T09:30:07.999Z</time></trkpt><trkpt lat="37.11625124982388" lon="15.122738036717992"><ele>157.0</ele><time>2026-04-06T09:30:08.999Z</time></trkpt><trkpt lat="37.116224744307914" lon="15.122602618870387"><ele>157.0</ele><time>2026-04-06T09:30:09.999Z</time></trkpt><trkpt lat="37.11623750285271" lon="15.12246672865018"><ele>157.0</ele><time>2026-04-06T09:30:10.999Z</time></trkpt><trkpt lat="37.11627918861282" lon="15.122331608400541"><ele>157.0</ele><time>2026-04-06T09:30:11.999Z</time></trkpt><trkpt lat="37.11634952537133" lon="15.12218844595999"><ele>157.0</ele><time>2026-04-06T09:30:12.999Z</time></trkpt><trkpt lat="37.11642677477153" lon="15.122043986359373"><ele>157.5</ele><time>2026-04-06T09:30:13.999Z</time></trkpt><trkpt lat="37.11651651135801" lon="15.121914769771195"><ele>158.0</ele><time>2026-04-06T09:30:14.999Z</time></trkpt><trkpt lat="37.116594807392225" lon="15.121775624861268"><ele>158.5</ele><time>2026-04-06T09:30:15.999Z</time></trkpt><trkpt lat="37.11667281691163" lon="15.121636344412082"><ele>159.0</ele><time>2026-04-06T09:30:16.999Z</time></trkpt><trkpt lat="37.11674772049741" lon="15.121500821069791"><ele>157.25</ele><time>2026-04-06T09:30:17.999Z</time></trkpt><trkpt lat="37.11682015337552" lon="15.121367629704928"><ele>155.5</ele><time>2026-04-06T09:30:18.999Z</time></trkpt><trkpt lat="37.11689178935107" lon="15.121237833156197"><ele>153.75</ele><time>2026-04-06T09:30:19.999Z</time></trkpt><trkpt lat="37.11696398891509" lon="15.121109878621304"><ele>152.0</ele><time>2026-04-06T09:30:20.999Z</time></trkpt><trkpt lat="37.117036323752714" lon="15.12098522412188"><ele>152.0</ele><time>2026-04-06T09:30:21.999Z</time></trkpt><trkpt lat="37.11710995342387" lon="15.120859801613998"><ele>152.0</ele><time>2026-04-06T09:30:22.999Z</time></trkpt><trkpt lat="37.11716636525211" lon="15.12072099576868"><ele>152.0</ele><time>2026-04-06T09:30:23.999Z</time></trkpt><trkpt lat="37.11725384717161" lon="15.120615935192248"><ele>152.0</ele><time>2026-04-06T09:30:24.999Z</time></trkpt><trkpt lat="37.11735355424331" lon="15.1205252996127"><ele>148.2</ele><time>2026-04-06T09:30:25.999Z</time></trkpt><trkpt lat="37.11744271688805" lon="15.120453138633037"><ele>144.39999999999998</ele><time>2026-04-06T09:30:26.999Z</time></trkpt><trkpt lat="37.11750455287232" lon="15.12035592913685"><ele>140.60000000000002</ele><time>2026-04-06T09:30:27.999Z</time></trkpt><trkpt lat="37.11754318966214" lon="15.120237423906621"><ele>136.8</ele><time>2026-04-06T09:30:28.999Z</time></trkpt><trkpt lat="37.117564220684294" lon="15.120091488980114"><ele>133.0</ele><time>2026-04-06T09:30:29.999Z</time></trkpt><trkpt lat="37.11757298684196" lon="15.11993060690661"><ele>134.75</ele><time>2026-04-06T09:30:30.999Z</time></trkpt><trkpt lat="37.11756861013302" lon="15.119783797612676"><ele>136.5</ele><time>2026-04-06T09:30:31.999Z</time></trkpt><trkpt lat="37.117555883691345" lon="15.119638946936512"><ele>138.25</ele><time>2026-04-06T09:30:32.999Z</time></trkpt><trkpt lat="37.11755505342795" lon="15.119488575891006"><ele>140.0</ele><time>2026-04-06T09:30:33.999Z</time></trkpt><trkpt lat="37.117565242605956" lon="15.119332954788577"><ele>140.0</ele><time>2026-04-06T09:30:34.999Z</time></trkpt><trkpt lat="37.117576417813396" lon="15.119173863809143"><ele>140.0</ele><time>2026-04-06T09:30:35.999Z</time></trkpt><trkpt lat="37.117589730599995" lon="15.119021474970042"><ele>140.0</ele><time>2026-04-06T09:30:36.999Z</time></trkpt><trkpt lat="37.11762064690243" lon="15.118874620436712"><ele>140.0</ele><time>2026-04-06T09:30:37.999Z</time></trkpt><trkpt lat="37.11763228278185" lon="15.118717854787967"><ele>142.0</ele><time>2026-04-06T09:30:38.999Z</time></trkpt><trkpt lat="37.117677748096" lon="15.118570989808813"><ele>144.0</ele><time>2026-04-06T09:30:39.999Z</time></trkpt><trkpt lat="37.11773038467974" lon="15.118416850041873"><ele>146.0</ele><time>2026-04-06T09:30:40.999Z</time></trkpt><trkpt lat="37.11779101121103" lon="15.118254229351148"><ele>148.0</ele><time>2026-04-06T09:30:41.999Z</time></trkpt><trkpt lat="37.117853885454615" lon="15.118088417125517"><ele>149.5</ele><time>2026-04-06T09:30:42.999Z</time></trkpt><trkpt lat="37.11792068165464" lon="15.117921988637557"><ele>151.0</ele><time>2026-04-06T09:30:43.999Z</time></trkpt><trkpt lat="37.118004702777554" lon="15.117766552575887"><ele>152.5</ele><time>2026-04-06T09:30:44.999Z</time></trkpt><trkpt lat="37.118092436107695" lon="15.117612241863018"><ele>154.0</ele><time>2026-04-06T09:30:45.999Z</time></trkpt><trkpt lat="37.11817782973156" lon="15.117456336396234"><ele>145.75</ele><time>2026-04-06T09:30:46.999Z</time></trkpt><trkpt lat="37.118260098919656" lon="15.117298054882902"><ele>137.5</ele><time>2026-04-06T09:30:47.999Z</time></trkpt><trkpt lat="37.11834361272466" lon="15.11714342920391"><ele>129.25</ele><time>2026-04-06T09:30:48.999Z</time></trkpt><trkpt lat="37.11842690711534" lon="15.11699460524722"><ele>121.0</ele><time>2026-04-06T09:30:49.999Z</time></trkpt><trkpt lat="37.118504915583166" lon="15.116849736779086"><ele>121.0</ele><time>2026-04-06T09:30:50.999Z</time></trkpt><trkpt lat="37.118565989117165" lon="15.116706504377712"><ele>121.0</ele><time>2026-04-06T09:30:51.999Z</time></trkpt><trkpt lat="37.11859961938658" lon="15.116552275271998"><ele>121.0</ele><time>2026-04-06T09:30:52.999Z</time></trkpt><trkpt lat="37.118610955653466" lon="15.116393349938624"><ele>121.0</ele><time>2026-04-06T09:30:53.999Z</time></trkpt><trkpt lat="37.118604433046336" lon="15.116243322538045"><ele>121.4</ele><time>2026-04-06T09:30:54.999Z</time></trkpt><trkpt lat="37.11857103381105" lon="15.116099777242352"><ele>121.8</ele><time>2026-04-06T09:30:55.999Z</time></trkpt><trkpt lat="37.11851885728368" lon="15.115964975338075"><ele>122.20000000000002</ele><time>2026-04-06T09:30:56.999Z</time></trkpt><trkpt lat="37.118472854314376" lon="15.115850355059386"><ele>122.60000000000001</ele><time>2026-04-06T09:30:57.999Z</time></trkpt><trkpt lat="37.1184431207435" lon="15.115746831777646"><ele>123.0</ele><time>2026-04-06T09:30:58.999Z</time></trkpt><trkpt lat="37.11843104180043" lon="15.115654020196128"><ele>123.0</ele><time>2026-04-06T09:30:59.999Z</time></trkpt><trkpt lat="37.11844119641785" lon="15.115573661372427"><ele>123.0</ele><time>2026-04-06T09:31:00.999Z</time></trkpt><trkpt lat="37.118508466247974" lon="15.11545151456145"><ele>123.0</ele><time>2026-04-06T09:31:02.999Z</time></trkpt><trkpt lat="37.11857243491224" lon="15.115406166459476"><ele>123.0</ele><time>2026-04-06T09:31:03.999Z</time></trkpt><trkpt lat="37.1186438825546" lon="15.115362416900728"><ele>123.0</ele><time>2026-04-06T09:31:04.999Z</time></trkpt><trkpt lat="37.11872045776141" lon="15.115305010504079"><ele>123.0</ele><time>2026-04-06T09:31:05.999Z</time></trkpt><trkpt lat="37.11879626368264" lon="15.115239583107007"><ele>123.0</ele><time>2026-04-06T09:31:06.999Z</time></trkpt><trkpt lat="37.118879902099565" lon="15.115223192233751"><ele>123.0</ele><time>2026-04-06T09:31:07.999Z</time></trkpt><trkpt lat="37.118960911762464" lon="15.115205850216059"><ele>123.0</ele><time>2026-04-06T09:31:08.999Z</time></trkpt><trkpt lat="37.11904906017957" lon="15.115210394888031"><ele>123.0</ele><time>2026-04-06T09:31:09.999Z</time></trkpt><trkpt lat="37.11914234999904" lon="15.115228423091484"><ele>123.0</ele><time>2026-04-06T09:31:10.999Z</time></trkpt><trkpt lat="37.119225731490246" lon="15.11524924820971"><ele>123.0</ele><time>2026-04-06T09:31:11.999Z</time></trkpt><trkpt lat="37.11929218625707" lon="15.11527794319755"><ele>121.4</ele><time>2026-04-06T09:31:12.999Z</time></trkpt><trkpt lat="37.11937300312721" lon="15.115376835319962"><ele>119.80000000000001</ele><time>2026-04-06T09:31:14.999Z</time></trkpt><trkpt lat="37.11942944722935" lon="15.115496831467068"><ele>118.2</ele><time>2026-04-06T09:31:16.999Z</time></trkpt><trkpt lat="37.11947534939669" lon="15.115591044770575"><ele>116.6</ele><time>2026-04-06T09:31:18.999Z</time></trkpt><trkpt lat="37.1195235155084" lon="15.115676785941968"><ele>115.0</ele><time>2026-04-06T09:31:20.999Z</time></trkpt><trkpt lat="37.11960136807717" lon="15.115668417898052"><ele>115.0</ele><time>2026-04-06T09:31:21.999Z</time></trkpt><trkpt lat="37.11969381859624" lon="15.115667341747969"><ele>115.0</ele><time>2026-04-06T09:31:23.999Z</time></trkpt><trkpt lat="37.11978484316059" lon="15.115631878451557"><ele>115.0</ele><time>2026-04-06T09:31:25.999Z</time></trkpt><trkpt lat="37.11987210961103" lon="15.115596644911346"><ele>115.0</ele><time>2026-04-06T09:31:27.999Z</time></trkpt><trkpt lat="37.11998898941129" lon="15.11551434957478"><ele>115.0</ele><time>2026-04-06T09:31:29.999Z</time></trkpt><trkpt lat="37.120062298814695" lon="15.115462945599296"><ele>116.6</ele><time>2026-04-06T09:31:30.999Z</time></trkpt><trkpt lat="37.12014476418861" lon="15.115405206571467"><ele>118.2</ele><time>2026-04-06T09:31:31.999Z</time></trkpt><trkpt lat="37.12022839382339" lon="15.115346652364286"><ele>119.80000000000001</ele><time>2026-04-06T09:31:32.999Z</time></trkpt><trkpt lat="37.120301754357456" lon="15.115295288182136"><ele>121.4</ele><time>2026-04-06T09:31:33.999Z</time></trkpt><trkpt lat="37.12038393144595" lon="15.115237750985122"><ele>123.0</ele><time>2026-04-06T09:31:34.999Z</time></trkpt><trkpt lat="37.12047031932998" lon="15.115177265554811"><ele>123.0</ele><time>2026-04-06T09:31:36Z</time></trkpt><trkpt lat="37.120554638580465" lon="15.115118228515085"><ele>123.00000000000001</ele><time>2026-04-06T09:31:37Z</time></trkpt><trkpt lat="37.12064549121613" lon="15.115057226247663"><ele>123.00000000000001</ele><time>2026-04-06T09:31:38Z</time></trkpt><trkpt lat="37.12074169875492" lon="15.114993075957035"><ele>123.0</ele><time>2026-04-06T09:31:39Z</time></trkpt><trkpt lat="37.120834771522176" lon="15.114908894992286"><ele>123.0</ele><time>2026-04-06T09:31:40Z</time></trkpt><trkpt lat="37.120939018317024" lon="15.11484495596512"><ele>126.5</ele><time>2026-04-06T09:31:41Z</time></trkpt><trkpt lat="37.121045889453065" lon="15.114781510974987"><ele>130.0</ele><time>2026-04-06T09:31:42Z</time></trkpt><trkpt lat="37.121161349773146" lon="15.114745279160491"><ele>133.5</ele><time>2026-04-06T09:31:43Z</time></trkpt><trkpt lat="37.12127260132942" lon="15.114692266311103"><ele>137.0</ele><time>2026-04-06T09:31:44Z</time></trkpt><trkpt lat="37.12138098985805" lon="15.114618530743153"><ele>137.0</ele><time>2026-04-06T09:31:45Z</time></trkpt><trkpt lat="37.121503200884824" lon="15.114583272815391"><ele>137.0</ele><time>2026-04-06T09:31:46Z</time></trkpt><trkpt lat="37.12162640218228" lon="15.114525497646811"><ele>137.0</ele><time>2026-04-06T09:31:47Z</time></trkpt><trkpt lat="37.12174035583892" lon="15.114472059148994"><ele>137.0</ele><time>2026-04-06T09:31:48Z</time></trkpt><trkpt lat="37.12185820252339" lon="15.11441679501531"><ele>135.5</ele><time>2026-04-06T09:31:49Z</time></trkpt><trkpt lat="37.12197613010236" lon="15.114361631873422"><ele>134.0</ele><time>2026-04-06T09:31:50Z</time></trkpt><trkpt lat="37.12208896155789" lon="15.114309298374303"><ele>132.5</ele><time>2026-04-06T09:31:51Z</time></trkpt><trkpt lat="37.122197760560745" lon="15.114260271437873"><ele>131.0</ele><time>2026-04-06T09:31:52Z</time></trkpt><trkpt lat="37.12229587446835" lon="15.114200902614355"><ele>131.2</ele><time>2026-04-06T09:31:53Z</time></trkpt><trkpt lat="37.12240112689598" lon="15.11417316318111"><ele>131.39999999999998</ele><time>2026-04-06T09:31:54Z</time></trkpt><trkpt lat="37.122512247284455" lon="15.114147835927245"><ele>131.6</ele><time>2026-04-06T09:31:55Z</time></trkpt><trkpt lat="37.12262464306054" lon="15.114135438178913"><ele>131.79999999999998</ele><time>2026-04-06T09:31:56Z</time></trkpt><trkpt lat="37.12273760563819" lon="15.114133082840262"><ele>132.0</ele><time>2026-04-06T09:31:57Z</time></trkpt><trkpt lat="37.12285387411448" lon="15.11413773806366"><ele>132.0</ele><time>2026-04-06T09:31:58Z</time></trkpt><trkpt lat="37.12297496046311" lon="15.114147079328845"><ele>132.0</ele><time>2026-04-06T09:31:59Z</time></trkpt><trkpt lat="37.12309745549632" lon="15.114158796090237"><ele>132.0</ele><time>2026-04-06T09:32:00Z</time></trkpt><trkpt lat="37.1232106004129" lon="15.11416847009089"><ele>132.0</ele><time>2026-04-06T09:32:01Z</time></trkpt><trkpt lat="37.12331162012723" lon="15.114177084428263"><ele>132.66666666666666</ele><time>2026-04-06T09:32:02Z</time></trkpt><trkpt lat="37.12340513897533" lon="15.114188764793468"><ele>133.33333333333334</ele><time>2026-04-06T09:32:03Z</time></trkpt><trkpt lat="37.12349555834858" lon="15.114200157727558"><ele>134.0</ele><time>2026-04-06T09:32:04Z</time></trkpt><trkpt lat="37.123578309675345" lon="15.114205462398209"><ele>134.66666666666669</ele><time>2026-04-06T09:32:05Z</time></trkpt><trkpt lat="37.12365277760159" lon="15.114183908624941"><ele>135.33333333333334</ele><time>2026-04-06T09:32:06Z</time></trkpt><trkpt lat="37.12372681907462" lon="15.11414612089467"><ele>136.0</ele><time>2026-04-06T09:32:07Z</time></trkpt><trkpt lat="37.123806548310384" lon="15.114089944608374"><ele>138.25</ele><time>2026-04-06T09:32:08Z</time></trkpt><trkpt lat="37.123891999709656" lon="15.114015308190062"><ele>140.5</ele><time>2026-04-06T09:32:09Z</time></trkpt><trkpt lat="37.12398351777855" lon="15.113924238197699"><ele>142.75</ele><time>2026-04-06T09:32:10Z</time></trkpt><trkpt lat="37.124075913697716" lon="15.11382568501794"><ele>145.0</ele><time>2026-04-06T09:32:11Z</time></trkpt><trkpt lat="37.12417110941538" lon="15.113725170106981"><ele>145.0</ele><time>2026-04-06T09:32:12Z</time></trkpt><trkpt lat="37.12425875743438" lon="15.113625694114067"><ele>145.0</ele><time>2026-04-06T09:32:13Z</time></trkpt><trkpt lat="37.12433548247017" lon="15.113529378247302"><ele>145.0</ele><time>2026-04-06T09:32:14Z</time></trkpt><trkpt lat="37.12439714484879" lon="15.113418896521194"><ele>145.0</ele><time>2026-04-06T09:32:15Z</time></trkpt><trkpt lat="37.12443553505187" lon="15.11327113368683"><ele>145.75</ele><time>2026-04-06T09:32:16Z</time></trkpt><trkpt lat="37.12446351421434" lon="15.113107826305127"><ele>146.5</ele><time>2026-04-06T09:32:17Z</time></trkpt><trkpt lat="37.12448561706611" lon="15.112933512195612"><ele>147.25</ele><time>2026-04-06T09:32:18Z</time></trkpt><trkpt lat="37.12451154270176" lon="15.112756994350747"><ele>148.0</ele><time>2026-04-06T09:32:19Z</time></trkpt><trkpt lat="37.12453857615586" lon="15.112591857541906"><ele>148.0</ele><time>2026-04-06T09:32:20Z</time></trkpt><trkpt lat="37.12456667284893" lon="15.112411357999026"><ele>148.0</ele><time>2026-04-06T09:32:21Z</time></trkpt><trkpt lat="37.12459754652851" lon="15.112225380113225"><ele>148.0</ele><time>2026-04-06T09:32:22Z</time></trkpt><trkpt lat="37.124627292694285" lon="15.11203315908265"><ele>148.0</ele><time>2026-04-06T09:32:23Z</time></trkpt><trkpt lat="37.12465798065602" lon="15.11184435252007"><ele>148.0</ele><time>2026-04-06T09:32:24Z</time></trkpt><trkpt lat="37.12468783996793" lon="15.111659409078019"><ele>148.0</ele><time>2026-04-06T09:32:25Z</time></trkpt><trkpt lat="37.12471597644981" lon="15.111481424192341"><ele>148.0</ele><time>2026-04-06T09:32:26Z</time></trkpt><trkpt lat="37.124740700178286" lon="15.111323764328056"><ele>148.0</ele><time>2026-04-06T09:32:27Z</time></trkpt><trkpt lat="37.12476168754584" lon="15.111173589725757"><ele>148.0</ele><time>2026-04-06T09:32:28Z</time></trkpt><trkpt lat="37.124761879878434" lon="15.111025214612093"><ele>148.0</ele><time>2026-04-06T09:32:29Z</time></trkpt><trkpt lat="37.12474070619339" lon="15.110859595392373"><ele>148.0</ele><time>2026-04-06T09:32:30Z</time></trkpt><trkpt lat="37.1247180854925" lon="15.110696566705997"><ele>148.25</ele><time>2026-04-06T09:32:31Z</time></trkpt><trkpt lat="37.12469999825534" lon="15.11053991676627"><ele>148.5</ele><time>2026-04-06T09:32:32Z</time></trkpt><trkpt lat="37.12469193310144" lon="15.110392117655358"><ele>148.75</ele><time>2026-04-06T09:32:33Z</time></trkpt><trkpt lat="37.12469354757987" lon="15.110244803610046"><ele>149.0</ele><time>2026-04-06T09:32:34Z</time></trkpt><trkpt lat="37.124703332248075" lon="15.110087472286663"><ele>149.0</ele><time>2026-04-06T09:32:35Z</time></trkpt><trkpt lat="37.12471376946817" lon="15.109924457418598"><ele>149.0</ele><time>2026-04-06T09:32:36Z</time></trkpt><trkpt lat="37.124726976891544" lon="15.109758430223007"><ele>149.0</ele><time>2026-04-06T09:32:37Z</time></trkpt><trkpt lat="37.124742672075236" lon="15.109591251357932"><ele>149.0</ele><time>2026-04-06T09:32:38Z</time></trkpt><trkpt lat="37.12475656579434" lon="15.109419226739826"><ele>149.0</ele><time>2026-04-06T09:32:39Z</time></trkpt><trkpt lat="37.12476963177425" lon="15.109248630487018"><ele>149.0</ele><time>2026-04-06T09:32:40Z</time></trkpt><trkpt lat="37.124783125323" lon="15.109074036847913"><ele>149.0</ele><time>2026-04-06T09:32:41Z</time></trkpt><trkpt lat="37.12480128383351" lon="15.10889943294185"><ele>149.0</ele><time>2026-04-06T09:32:42Z</time></trkpt><trkpt lat="37.124825122040754" lon="15.108724626018105"><ele>150.0</ele><time>2026-04-06T09:32:43Z</time></trkpt><trkpt lat="37.12485026088248" lon="15.108549951562118"><ele>151.0</ele><time>2026-04-06T09:32:44Z</time></trkpt><trkpt lat="37.12487815716301" lon="15.108376559450802"><ele>152.0</ele><time>2026-04-06T09:32:45Z</time></trkpt><trkpt lat="37.12491170535305" lon="15.108205560751509"><ele>153.0</ele><time>2026-04-06T09:32:46Z</time></trkpt><trkpt lat="37.124953990286556" lon="15.10804047991872"><ele>155.5</ele><time>2026-04-06T09:32:47Z</time></trkpt><trkpt lat="37.12500299990883" lon="15.107879373919719"><ele>158.0</ele><time>2026-04-06T09:32:48Z</time></trkpt><trkpt lat="37.12506027074372" lon="15.10770398182335"><ele>160.5</ele><time>2026-04-06T09:32:49Z</time></trkpt><trkpt lat="37.12512210894478" lon="15.107528034163659"><ele>163.0</ele><time>2026-04-06T09:32:50Z</time></trkpt><trkpt lat="37.12520708188838" lon="15.107359125917846"><ele>163.0</ele><time>2026-04-06T09:32:51Z</time></trkpt><trkpt lat="37.1252678470097" lon="15.107167423951086"><ele>163.0</ele><time>2026-04-06T09:32:52Z</time></trkpt><trkpt lat="37.125343833404095" lon="15.106981638879457"><ele>163.0</ele><time>2026-04-06T09:32:53Z</time></trkpt><trkpt lat="37.125438237562626" lon="15.106797119503431"><ele>163.0</ele><time>2026-04-06T09:32:54Z</time></trkpt><trkpt lat="37.12550403523616" lon="15.106591102280289"><ele>163.0</ele><time>2026-04-06T09:32:55Z</time></trkpt><trkpt lat="37.12559086757029" lon="15.106400662854602"><ele>163.0</ele><time>2026-04-06T09:32:56Z</time></trkpt><trkpt lat="37.12566766970601" lon="15.10620791627232"><ele>163.0</ele><time>2026-04-06T09:32:57Z</time></trkpt><trkpt lat="37.12575565704729" lon="15.106019102990691"><ele>163.0</ele><time>2026-04-06T09:32:58Z</time></trkpt><trkpt lat="37.125836555050675" lon="15.10582070452048"><ele>163.0</ele><time>2026-04-06T09:32:59Z</time></trkpt><trkpt lat="37.125903571183734" lon="15.105610527552622"><ele>162.66666666666669</ele><time>2026-04-06T09:33:00Z</time></trkpt><trkpt lat="37.125992911550924" lon="15.105412925706235"><ele>162.33333333333334</ele><time>2026-04-06T09:33:01Z</time></trkpt><trkpt lat="37.12607507082607" lon="15.10520830127364"><ele>162.0</ele><time>2026-04-06T09:33:02Z</time></trkpt><trkpt lat="37.126155212090424" lon="15.105001197600624"><ele>162.0</ele><time>2026-04-06T09:33:03Z</time></trkpt><trkpt lat="37.12625110075728" lon="15.104805940990344"><ele>162.0</ele><time>2026-04-06T09:33:04Z</time></trkpt><trkpt lat="37.126319833300634" lon="15.104596745635272"><ele>162.0</ele><time>2026-04-06T09:33:05Z</time></trkpt><trkpt lat="37.126403559820126" lon="15.104396659516366"><ele>162.0</ele><time>2026-04-06T09:33:06Z</time></trkpt><trkpt lat="37.12648427873271" lon="15.104200155689245"><ele>162.0</ele><time>2026-04-06T09:33:07Z</time></trkpt><trkpt lat="37.12655825706676" lon="15.10399843979463"><ele>162.0</ele><time>2026-04-06T09:33:08Z</time></trkpt><trkpt lat="37.12662814473564" lon="15.103796360275766"><ele>162.66666666666666</ele><time>2026-04-06T09:33:09Z</time></trkpt><trkpt lat="37.126693743242484" lon="15.10359188975661"><ele>163.33333333333331</ele><time>2026-04-06T09:33:10Z</time></trkpt><trkpt lat="37.126749867931466" lon="15.10338174512698"><ele>164.0</ele><time>2026-04-06T09:33:11Z</time></trkpt><trkpt lat="37.1268034223421" lon="15.10317002122399"><ele>164.66666666666666</ele><time>2026-04-06T09:33:12Z</time></trkpt><trkpt lat="37.126852800316925" lon="15.102953677829149"><ele>165.33333333333334</ele><time>2026-04-06T09:33:13Z</time></trkpt><trkpt lat="37.12691959785273" lon="15.102745482317282"><ele>166.0</ele><time>2026-04-06T09:33:14Z</time></trkpt><trkpt lat="37.12695919174258" lon="15.102523844515968"><ele>166.33333333333334</ele><time>2026-04-06T09:33:15Z</time></trkpt><trkpt lat="37.127016581080035" lon="15.10230603688317"><ele>166.66666666666666</ele><time>2026-04-06T09:33:16Z</time></trkpt><trkpt lat="37.12706977186782" lon="15.102089445082711"><ele>167.0</ele><time>2026-04-06T09:33:17Z</time></trkpt><trkpt lat="37.1271162863503" lon="15.101876287602328"><ele>167.0</ele><time>2026-04-06T09:33:18Z</time></trkpt><trkpt lat="37.12716403150814" lon="15.101652864901821"><ele>167.0</ele><time>2026-04-06T09:33:19Z</time></trkpt><trkpt lat="37.127229032657965" lon="15.101433520237405"><ele>167.0</ele><time>2026-04-06T09:33:20Z</time></trkpt><trkpt lat="37.127280996974484" lon="15.101213605044283"><ele>167.0</ele><time>2026-04-06T09:33:21Z</time></trkpt><trkpt lat="37.12731978054295" lon="15.100993204243501"><ele>167.0</ele><time>2026-04-06T09:33:22Z</time></trkpt><trkpt lat="37.12738779689617" lon="15.100784473693952"><ele>167.0</ele><time>2026-04-06T09:33:23Z</time></trkpt><trkpt lat="37.12746474636796" lon="15.100583796896993"><ele>167.66666666666666</ele><time>2026-04-06T09:33:24Z</time></trkpt><trkpt lat="37.127555962014995" lon="15.100386400689713"><ele>168.33333333333334</ele><time>2026-04-06T09:33:25Z</time></trkpt><trkpt lat="37.12765466052303" lon="15.100186981652007"><ele>169.0</ele><time>2026-04-06T09:33:26Z</time></trkpt><trkpt lat="37.1277559049846" lon="15.099988980438043"><ele>169.0</ele><time>2026-04-06T09:33:27Z</time></trkpt><trkpt lat="37.127855312938756" lon="15.099795323801516"><ele>169.0</ele><time>2026-04-06T09:33:28Z</time></trkpt><trkpt lat="37.12795271613925" lon="15.099602694982888"><ele>169.0</ele><time>2026-04-06T09:33:29Z</time></trkpt><trkpt lat="37.128050659783106" lon="15.099417173414922"><ele>169.0</ele><time>2026-04-06T09:33:30Z</time></trkpt><trkpt lat="37.1281454142712" lon="15.099230484393646"><ele>169.0</ele><time>2026-04-06T09:33:31Z</time></trkpt><trkpt lat="37.128240938815466" lon="15.09904915793805"><ele>169.0</ele><time>2026-04-06T09:33:32Z</time></trkpt><trkpt lat="37.1283383014241" lon="15.098869225182902"><ele>169.0</ele><time>2026-04-06T09:33:33Z</time></trkpt><trkpt lat="37.12843963671559" lon="15.098683536801326"><ele>169.0</ele><time>2026-04-06T09:33:34Z</time></trkpt><trkpt lat="37.1285400419476" lon="15.09849039802204"><ele>169.0</ele><time>2026-04-06T09:33:35Z</time></trkpt><trkpt lat="37.12864207032766" lon="15.098293313197907"><ele>169.0</ele><time>2026-04-06T09:33:36Z</time></trkpt><trkpt lat="37.12874204149033" lon="15.09809204126004"><ele>169.0</ele><time>2026-04-06T09:33:37Z</time></trkpt><trkpt lat="37.1288424897219" lon="15.097886746890415"><ele>169.0</ele><time>2026-04-06T09:33:38Z</time></trkpt><trkpt lat="37.12894058143701" lon="15.097676417541367"><ele>169.0</ele><time>2026-04-06T09:33:39Z</time></trkpt><trkpt lat="37.129052710649916" lon="15.097473347275148"><ele>169.0</ele><time>2026-04-06T09:33:40Z</time></trkpt><trkpt lat="37.12915385672033" lon="15.097257391834694"><ele>169.0</ele><time>2026-04-06T09:33:41Z</time></trkpt><trkpt lat="37.12924511284009" lon="15.0970295242259"><ele>169.33333333333334</ele><time>2026-04-06T09:33:42Z</time></trkpt><trkpt lat="37.12935281875836" lon="15.096809618238273"><ele>169.66666666666666</ele><time>2026-04-06T09:33:43Z</time></trkpt><trkpt lat="37.12945880869061" lon="15.096588032546501"><ele>170.0</ele><time>2026-04-06T09:33:44Z</time></trkpt><trkpt lat="37.12956370545788" lon="15.09636101800073"><ele>170.33333333333331</ele><time>2026-04-06T09:33:45Z</time></trkpt><trkpt lat="37.12967008146591" lon="15.096136630380503"><ele>170.66666666666666</ele><time>2026-04-06T09:33:46Z</time></trkpt><trkpt lat="37.12977330865494" lon="15.095914205910017"><ele>171.0</ele><time>2026-04-06T09:33:47Z</time></trkpt><trkpt lat="37.12988096810606" lon="15.09569252088418"><ele>171.66666666666666</ele><time>2026-04-06T09:33:48Z</time></trkpt><trkpt lat="37.12998702292003" lon="15.095468895685388"><ele>172.33333333333331</ele><time>2026-04-06T09:33:49Z</time></trkpt><trkpt lat="37.130091981921694" lon="15.095242475657736"><ele>173.0</ele><time>2026-04-06T09:33:50Z</time></trkpt><trkpt lat="37.13019541068025" lon="15.095015857274541"><ele>173.33333333333331</ele><time>2026-04-06T09:33:51Z</time></trkpt><trkpt lat="37.1303025558425" lon="15.094789829249349"><ele>173.66666666666666</ele><time>2026-04-06T09:33:52Z</time></trkpt><trkpt lat="37.130409244796276" lon="15.09456390658923"><ele>174.0</ele><time>2026-04-06T09:33:53Z</time></trkpt><trkpt lat="37.13051427481434" lon="15.094339448679218"><ele>174.0</ele><time>2026-04-06T09:33:54Z</time></trkpt><trkpt lat="37.130621414278096" lon="15.09411824056273"><ele>174.0</ele><time>2026-04-06T09:33:55Z</time></trkpt><trkpt lat="37.13072575409594" lon="15.093903403759645"><ele>174.0</ele><time>2026-04-06T09:33:56Z</time></trkpt><trkpt lat="37.130829341642404" lon="15.093691144676539"><ele>174.0</ele><time>2026-04-06T09:33:57Z</time></trkpt><trkpt lat="37.13092832225824" lon="15.093481184466754"><ele>174.0</ele><time>2026-04-06T09:33:58Z</time></trkpt><trkpt lat="37.13102320125447" lon="15.093272567263622"><ele>174.0</ele><time>2026-04-06T09:33:59Z</time></trkpt><trkpt lat="37.13111629924334" lon="15.093069341910224"><ele>174.0</ele><time>2026-04-06T09:34:00Z</time></trkpt><trkpt lat="37.13120917937991" lon="15.092868753405233"><ele>174.0</ele><time>2026-04-06T09:34:01Z</time></trkpt><trkpt lat="37.131303095943885" lon="15.092676294310978"><ele>174.0</ele><time>2026-04-06T09:34:02Z</time></trkpt><trkpt lat="37.13139144343965" lon="15.092488385344062"><ele>174.66666666666666</ele><time>2026-04-06T09:34:03Z</time></trkpt><trkpt lat="37.1314773082335" lon="15.092306004950768"><ele>175.33333333333331</ele><time>2026-04-06T09:34:04Z</time></trkpt><trkpt lat="37.131564955312164" lon="15.092123577273004"><ele>176.0</ele><time>2026-04-06T09:34:05Z</time></trkpt><trkpt lat="37.13165234996889" lon="15.091935106697754"><ele>176.33333333333331</ele><time>2026-04-06T09:34:06Z</time></trkpt><trkpt lat="37.131740504928366" lon="15.091746608569027"><ele>176.66666666666666</ele><time>2026-04-06T09:34:07Z</time></trkpt><trkpt lat="37.13182768835859" lon="15.091557683793164"><ele>177.0</ele><time>2026-04-06T09:34:08Z</time></trkpt><trkpt lat="37.131910922037925" lon="15.091371689453021"><ele>177.33333333333334</ele><time>2026-04-06T09:34:09Z</time></trkpt><trkpt lat="37.131991976074175" lon="15.09118944837898"><ele>177.66666666666669</ele><time>2026-04-06T09:34:10Z</time></trkpt><trkpt lat="37.132068531044304" lon="15.091017074252441"><ele>178.0</ele><time>2026-04-06T09:34:11Z</time></trkpt><trkpt lat="37.13214377009433" lon="15.090858079188068"><ele>178.0</ele><time>2026-04-06T09:34:12Z</time></trkpt><trkpt lat="37.132219187611476" lon="15.09070804399772"><ele>178.0</ele><time>2026-04-06T09:34:13Z</time></trkpt><trkpt lat="37.132294793828706" lon="15.090571374312816"><ele>178.0</ele><time>2026-04-06T09:34:14Z</time></trkpt><trkpt lat="37.13237900536253" lon="15.090446188160652"><ele>178.0</ele><time>2026-04-06T09:34:15Z</time></trkpt><trkpt lat="37.132464732599935" lon="15.090333467659796"><ele>178.0</ele><time>2026-04-06T09:34:16Z</time></trkpt><trkpt lat="37.132558919485696" lon="15.090233804208568"><ele>178.0</ele><time>2026-04-06T09:34:17Z</time></trkpt><trkpt lat="37.132669604073016" lon="15.090169982818402"><ele>178.0</ele><time>2026-04-06T09:34:18Z</time></trkpt><trkpt lat="37.13277868176758" lon="15.09010862002812"><ele>178.0</ele><time>2026-04-06T09:34:19Z</time></trkpt><trkpt lat="37.13289357577819" lon="15.090049852397065"><ele>178.0</ele><time>2026-04-06T09:34:20Z</time></trkpt><trkpt lat="37.13300424727196" lon="15.089980123955176"><ele>178.0</ele><time>2026-04-06T09:34:21Z</time></trkpt><trkpt lat="37.13311297392166" lon="15.089922833067195"><ele>178.0</ele><time>2026-04-06T09:34:22Z</time></trkpt><trkpt lat="37.13321369633038" lon="15.089864718923845"><ele>178.0</ele><time>2026-04-06T09:34:23Z</time></trkpt><trkpt lat="37.13329497402799" lon="15.08978444877515"><ele>176.0</ele><time>2026-04-06T09:34:24Z</time></trkpt><trkpt lat="37.13335233041059" lon="15.089682854988201"><ele>174.0</ele><time>2026-04-06T09:34:25Z</time></trkpt><trkpt lat="37.13338659477575" lon="15.089563872912944"><ele>172.0</ele><time>2026-04-06T09:34:26Z</time></trkpt><trkpt lat="37.133401366514406" lon="15.089404883458904"><ele>170.0</ele><time>2026-04-06T09:34:27Z</time></trkpt><trkpt lat="37.13341665829739" lon="15.089231464777658"><ele>170.25</ele><time>2026-04-06T09:34:28Z</time></trkpt><trkpt lat="37.13344949634074" lon="15.089066464957629"><ele>170.5</ele><time>2026-04-06T09:34:29Z</time></trkpt><trkpt lat="37.13347703208702" lon="15.088886281027532"><ele>170.75</ele><time>2026-04-06T09:34:30Z</time></trkpt><trkpt lat="37.13350124033685" lon="15.088696828322393"><ele>171.0</ele><time>2026-04-06T09:34:31Z</time></trkpt><trkpt lat="37.133528080524655" lon="15.088518712077821"><ele>171.0</ele><time>2026-04-06T09:34:32Z</time></trkpt><trkpt lat="37.13355536881067" lon="15.088352339347571"><ele>171.0</ele><time>2026-04-06T09:34:33Z</time></trkpt><trkpt lat="37.13358294096334" lon="15.088191049740214"><ele>171.0</ele><time>2026-04-06T09:34:34Z</time></trkpt><trkpt lat="37.13360782750709" lon="15.088032930897105"><ele>171.0</ele><time>2026-04-06T09:34:35Z</time></trkpt><trkpt lat="37.1336275328877" lon="15.087881114767322"><ele>170.75</ele><time>2026-04-06T09:34:36Z</time></trkpt><trkpt lat="37.133642834579014" lon="15.087729536957779"><ele>170.5</ele><time>2026-04-06T09:34:37Z</time></trkpt><trkpt lat="37.1336476034763" lon="15.087582838856536"><ele>170.25</ele><time>2026-04-06T09:34:38Z</time></trkpt><trkpt lat="37.13363701385633" lon="15.087424586129186"><ele>170.0</ele><time>2026-04-06T09:34:39Z</time></trkpt><trkpt lat="37.133614597046325" lon="15.087262223980096"><ele>168.0</ele><time>2026-04-06T09:34:40Z</time></trkpt><trkpt lat="37.13358650239087" lon="15.087109288977192"><ele>166.0</ele><time>2026-04-06T09:34:41Z</time></trkpt><trkpt lat="37.13354833422613" lon="15.08695561269792"><ele>164.0</ele><time>2026-04-06T09:34:42Z</time></trkpt><trkpt lat="37.13349931900856" lon="15.086803020418062"><ele>162.0</ele><time>2026-04-06T09:34:43Z</time></trkpt><trkpt lat="37.13345194027983" lon="15.08665042951505"><ele>160.6</ele><time>2026-04-06T09:34:44Z</time></trkpt><trkpt lat="37.13340623985232" lon="15.086506762583044"><ele>159.2</ele><time>2026-04-06T09:34:45Z</time></trkpt><trkpt lat="37.13336679948193" lon="15.086364633475338"><ele>157.8</ele><time>2026-04-06T09:34:46Z</time></trkpt><trkpt lat="37.13333499420864" lon="15.086236419130696"><ele>156.4</ele><time>2026-04-06T09:34:47Z</time></trkpt><trkpt lat="37.13330456268911" lon="15.0861205843679"><ele>155.0</ele><time>2026-04-06T09:34:48Z</time></trkpt><trkpt lat="37.13328174268816" lon="15.086014197689439"><ele>155.0</ele><time>2026-04-06T09:34:49Z</time></trkpt><trkpt lat="37.13326500781867" lon="15.08590879722161"><ele>155.0</ele><time>2026-04-06T09:34:50Z</time></trkpt><trkpt lat="37.13326266005278" lon="15.085802801572646"><ele>155.0</ele><time>2026-04-06T09:34:51Z</time></trkpt><trkpt lat="37.13327321698634" lon="15.085698393261973"><ele>155.0</ele><time>2026-04-06T09:34:52Z</time></trkpt><trkpt lat="37.13330059989858" lon="15.085615807103887"><ele>155.0</ele><time>2026-04-06T09:34:53Z</time></trkpt><trkpt lat="37.13337184834421" lon="15.08552956675617"><ele>155.0</ele><time>2026-04-06T09:34:55Z</time></trkpt><trkpt lat="37.133433167013806" lon="15.085504725356367"><ele>155.5</ele><time>2026-04-06T09:34:56Z</time></trkpt><trkpt lat="37.133523300495106" lon="15.085509370737626"><ele>156.0</ele><time>2026-04-06T09:34:57Z</time></trkpt><trkpt lat="37.13361430472553" lon="15.085482917351682"><ele>156.5</ele><time>2026-04-06T09:34:58Z</time></trkpt><trkpt lat="37.13368668498855" lon="15.085434941840386"><ele>157.0</ele><time>2026-04-06T09:34:59Z</time></trkpt><trkpt lat="37.133759760293984" lon="15.085395437721926"><ele>157.5</ele><time>2026-04-06T09:35:00Z</time></trkpt><trkpt lat="37.13382564340606" lon="15.085319996141086"><ele>158.0</ele><time>2026-04-06T09:35:01Z</time></trkpt><trkpt lat="37.1338868968" lon="15.085215176330227"><ele>158.0</ele><time>2026-04-06T09:35:02Z</time></trkpt><trkpt lat="37.13393715536886" lon="15.08508527715563"><ele>158.0</ele><time>2026-04-06T09:35:03Z</time></trkpt><trkpt lat="37.13399476326383" lon="15.084950954242998"><ele>158.0</ele><time>2026-04-06T09:35:04Z</time></trkpt><trkpt lat="37.13403762559664" lon="15.084800168434015"><ele>158.0</ele><time>2026-04-06T09:35:05Z</time></trkpt><trkpt lat="37.134070439024114" lon="15.084645688279549"><ele>155.20000000000002</ele><time>2026-04-06T09:35:06Z</time></trkpt><trkpt lat="37.13409504277158" lon="15.08449241233704"><ele>152.4</ele><time>2026-04-06T09:35:07Z</time></trkpt><trkpt lat="37.13409714250376" lon="15.084351096292291"><ele>149.60000000000002</ele><time>2026-04-06T09:35:08Z</time></trkpt><trkpt lat="37.134113759365675" lon="15.084224596518979"><ele>146.8</ele><time>2026-04-06T09:35:09Z</time></trkpt><trkpt lat="37.13414134010759" lon="15.084115920229436"><ele>144.0</ele><time>2026-04-06T09:35:10Z</time></trkpt><trkpt lat="37.13415266133542" lon="15.084012631351984"><ele>143.42857142857144</ele><time>2026-04-06T09:35:11Z</time></trkpt><trkpt lat="37.13416369703913" lon="15.08392413040809"><ele>142.85714285714286</ele><time>2026-04-06T09:35:12Z</time></trkpt><trkpt lat="37.13421210468015" lon="15.083858000609535"><ele>142.28571428571428</ele><time>2026-04-06T09:35:13Z</time></trkpt><trkpt lat="37.13427171802946" lon="15.083810549837626"><ele>141.71428571428572</ele><time>2026-04-06T09:35:14Z</time></trkpt><trkpt lat="37.13434010319153" lon="15.083819087629033"><ele>141.14285714285714</ele><time>2026-04-06T09:35:15Z</time></trkpt><trkpt lat="37.13441051407167" lon="15.083807898018659"><ele>140.57142857142858</ele><time>2026-04-06T09:35:16Z</time></trkpt><trkpt lat="37.13448143367624" lon="15.083797110996285"><ele>140.0</ele><time>2026-04-06T09:35:17Z</time></trkpt><trkpt lat="37.13455222987612" lon="15.083770214794809"><ele>140.0</ele><time>2026-04-06T09:35:18Z</time></trkpt><trkpt lat="37.13462852467046" lon="15.083774874485124"><ele>140.0</ele><time>2026-04-06T09:35:19Z</time></trkpt><trkpt lat="37.13470764190453" lon="15.08376299938824"><ele>140.0</ele><time>2026-04-06T09:35:20Z</time></trkpt><trkpt lat="37.13478368244307" lon="15.083734565502787"><ele>140.0</ele><time>2026-04-06T09:35:21Z</time></trkpt><trkpt lat="37.134863027305336" lon="15.083726916362885"><ele>140.0</ele><time>2026-04-06T09:35:22Z</time></trkpt><trkpt lat="37.134943513538715" lon="15.083712967412149"><ele>140.0</ele><time>2026-04-06T09:35:23Z</time></trkpt><trkpt lat="37.13502788746994" lon="15.083694529964088"><ele>140.6</ele><time>2026-04-06T09:35:24Z</time></trkpt><trkpt lat="37.13511825925937" lon="15.083700411901358"><ele>141.2</ele><time>2026-04-06T09:35:25Z</time></trkpt><trkpt lat="37.13520754136483" lon="15.083665790169741"><ele>141.8</ele><time>2026-04-06T09:35:26Z</time></trkpt><trkpt lat="37.13530214249037" lon="15.083654593324555"><ele>142.4</ele><time>2026-04-06T09:35:27Z</time></trkpt><trkpt lat="37.13539655043082" lon="15.083636537997823"><ele>143.0</ele><time>2026-04-06T09:35:28Z</time></trkpt><trkpt lat="37.13548885193896" lon="15.083602225878579"><ele>143.0</ele><time>2026-04-06T09:35:29Z</time></trkpt><trkpt lat="37.1355825742844" lon="15.08354515328753"><ele>143.0</ele><time>2026-04-06T09:35:30Z</time></trkpt><trkpt lat="37.13567135209437" lon="15.083467425738608"><ele>143.0</ele><time>2026-04-06T09:35:31Z</time></trkpt><trkpt lat="37.13575493209194" lon="15.083379260938214"><ele>143.0</ele><time>2026-04-06T09:35:32Z</time></trkpt><trkpt lat="37.1358253476377" lon="15.083287364301691"><ele>143.0</ele><time>2026-04-06T09:35:33Z</time></trkpt><trkpt lat="37.13587426272013" lon="15.083184874964186"><ele>145.16666666666666</ele><time>2026-04-06T09:35:34Z</time></trkpt><trkpt lat="37.13590175296587" lon="15.083073481789445"><ele>147.33333333333331</ele><time>2026-04-06T09:35:35Z</time></trkpt><trkpt lat="37.135919948897815" lon="15.082967616097157"><ele>149.5</ele><time>2026-04-06T09:35:36Z</time></trkpt><trkpt lat="37.135947899580266" lon="15.082876711702736"><ele>151.66666666666666</ele><time>2026-04-06T09:35:37Z</time></trkpt><trkpt lat="37.13600072148904" lon="15.082805421140058"><ele>153.83333333333334</ele><time>2026-04-06T09:35:38Z</time></trkpt><trkpt lat="37.13607013453469" lon="15.08273289445464"><ele>156.0</ele><time>2026-04-06T09:35:39Z</time></trkpt><trkpt lat="37.13614721557185" lon="15.082657702402726"><ele>156.0</ele><time>2026-04-06T09:35:40Z</time></trkpt><trkpt lat="37.13622465973929" lon="15.082566513545517"><ele>156.0</ele><time>2026-04-06T09:35:41Z</time></trkpt><trkpt lat="37.13631257378615" lon="15.082474163785976"><ele>156.0</ele><time>2026-04-06T09:35:42Z</time></trkpt><trkpt lat="37.13637748624883" lon="15.082359629560033"><ele>156.0</ele><time>2026-04-06T09:35:43Z</time></trkpt><trkpt lat="37.13645436570087" lon="15.08226291688227"><ele>156.0</ele><time>2026-04-06T09:35:44Z</time></trkpt><trkpt lat="37.13653399069456" lon="15.082158130288066"><ele>157.5</ele><time>2026-04-06T09:35:45Z</time></trkpt><trkpt lat="37.13661474605339" lon="15.082046962840721"><ele>159.0</ele><time>2026-04-06T09:35:46Z</time></trkpt><trkpt lat="37.136698137704435" lon="15.081933233499557"><ele>160.5</ele><time>2026-04-06T09:35:47Z</time></trkpt><trkpt lat="37.13678464512199" lon="15.081819169922534"><ele>162.0</ele><time>2026-04-06T09:35:48Z</time></trkpt><trkpt lat="37.13687372389337" lon="15.081703989046318"><ele>162.5</ele><time>2026-04-06T09:35:49Z</time></trkpt><trkpt lat="37.136961135974026" lon="15.081586815450363"><ele>163.0</ele><time>2026-04-06T09:35:50Z</time></trkpt><trkpt lat="37.13705809460504" lon="15.081486812494832"><ele>163.5</ele><time>2026-04-06T09:35:51Z</time></trkpt><trkpt lat="37.13714463951676" lon="15.081373875025989"><ele>164.0</ele><time>2026-04-06T09:35:52Z</time></trkpt><trkpt lat="37.13723323518324" lon="15.081258459231854"><ele>164.0</ele><time>2026-04-06T09:35:53Z</time></trkpt><trkpt lat="37.13732396764934" lon="15.081140675969884"><ele>164.0</ele><time>2026-04-06T09:35:54Z</time></trkpt><trkpt lat="37.137404838739926" lon="15.081008985279125"><ele>164.0</ele><time>2026-04-06T09:35:55Z</time></trkpt><trkpt lat="37.13750003586845" lon="15.080891508151158"><ele>164.0</ele><time>2026-04-06T09:35:56Z</time></trkpt><trkpt lat="37.13759389394005" lon="15.080766606511494"><ele>166.0</ele><time>2026-04-06T09:35:57Z</time></trkpt><trkpt lat="37.13768707515458" lon="15.08063915395478"><ele>168.0</ele><time>2026-04-06T09:35:58Z</time></trkpt><trkpt lat="37.13779341086497" lon="15.080527168919057"><ele>170.0</ele><time>2026-04-06T09:35:59Z</time></trkpt><trkpt lat="37.13788794915233" lon="15.08040058020922"><ele>172.0</ele><time>2026-04-06T09:36:00Z</time></trkpt><trkpt lat="37.13792622112593" lon="15.080324842484117"><ele>172.0</ele><time>2026-04-06T09:36:01Z</time></trkpt><trkpt lat="37.13801359867394" lon="15.080212098666905"><ele>172.0</ele><time>2026-04-06T09:36:02Z</time></trkpt><trkpt lat="37.13809203734518" lon="15.08011028102065"><ele>172.0</ele><time>2026-04-06T09:36:03Z</time></trkpt><trkpt lat="37.138172223078236" lon="15.08001058236723"><ele>172.0</ele><time>2026-04-06T09:36:04Z</time></trkpt><trkpt lat="37.13824769225238" lon="15.079908343268885"><ele>174.5</ele><time>2026-04-06T09:36:05Z</time></trkpt><trkpt lat="37.13831752128448" lon="15.079803423417204"><ele>177.0</ele><time>2026-04-06T09:36:06Z</time></trkpt><trkpt lat="37.13837158728683" lon="15.079685887926399"><ele>179.5</ele><time>2026-04-06T09:36:07Z</time></trkpt><trkpt lat="37.138399291365616" lon="15.07954367786383"><ele>182.0</ele><time>2026-04-06T09:36:08Z</time></trkpt><trkpt lat="37.13841248317955" lon="15.079389063391888"><ele>182.0</ele><time>2026-04-06T09:36:09Z</time></trkpt><trkpt lat="37.13842118150694" lon="15.079230295537725"><ele>182.0</ele><time>2026-04-06T09:36:10Z</time></trkpt><trkpt lat="37.13843093283649" lon="15.07907035323969"><ele>182.0</ele><time>2026-04-06T09:36:11Z</time></trkpt><trkpt lat="37.13844189741617" lon="15.078910977795587"><ele>182.0</ele><time>2026-04-06T09:36:12Z</time></trkpt><trkpt lat="37.13845099176216" lon="15.078758200752967"><ele>182.5</ele><time>2026-04-06T09:36:13Z</time></trkpt><trkpt lat="37.13845787182515" lon="15.078608759444121"><ele>183.0</ele><time>2026-04-06T09:36:14Z</time></trkpt><trkpt lat="37.13846535327589" lon="15.078458450783335"><ele>183.5</ele><time>2026-04-06T09:36:15Z</time></trkpt><trkpt lat="37.138477309164536" lon="15.078306624499762"><ele>184.0</ele><time>2026-04-06T09:36:16Z</time></trkpt><trkpt lat="37.13848998738311" lon="15.078153798951465"><ele>184.25</ele><time>2026-04-06T09:36:17Z</time></trkpt><trkpt lat="37.13850453700829" lon="15.077999301106491"><ele>184.5</ele><time>2026-04-06T09:36:18Z</time></trkpt><trkpt lat="37.13851873920066" lon="15.077846041835105"><ele>184.75</ele><time>2026-04-06T09:36:19Z</time></trkpt><trkpt lat="37.138529851941755" lon="15.077698632068063"><ele>185.0</ele><time>2026-04-06T09:36:20Z</time></trkpt><trkpt lat="37.1385362773702" lon="15.077558315479502"><ele>183.5</ele><time>2026-04-06T09:36:21Z</time></trkpt><trkpt lat="37.138545441257115" lon="15.077429524651034"><ele>182.0</ele><time>2026-04-06T09:36:22Z</time></trkpt><trkpt lat="37.138556902927306" lon="15.077316048305063"><ele>180.5</ele><time>2026-04-06T09:36:23Z</time></trkpt><trkpt lat="37.13856320971194" lon="15.077216085898046"><ele>179.0</ele><time>2026-04-06T09:36:24Z</time></trkpt><trkpt lat="37.138586836953195" lon="15.07713081510222"><ele>177.5</ele><time>2026-04-06T09:36:25Z</time></trkpt><trkpt lat="37.138626506441824" lon="15.077012859342421"><ele>176.0</ele><time>2026-04-06T09:36:27Z</time></trkpt><trkpt lat="37.13872383955197" lon="15.077018043741342"><ele>176.0</ele><time>2026-04-06T09:36:29Z</time></trkpt><trkpt lat="37.13873331108611" lon="15.07715700118737"><ele>176.0</ele><time>2026-04-06T09:36:31Z</time></trkpt><trkpt lat="37.138738410436076" lon="15.077240182543743"><ele>176.0</ele><time>2026-04-06T09:36:32Z</time></trkpt><trkpt lat="37.13874091875832" lon="15.077336681965054"><ele>176.0</ele><time>2026-04-06T09:36:33Z</time></trkpt><trkpt lat="37.13875766752887" lon="15.077441216984704"><ele>176.0</ele><time>2026-04-06T09:36:34Z</time></trkpt><trkpt lat="37.13875103620032" lon="15.077547591291243"><ele>176.0</ele><time>2026-04-06T09:36:35Z</time></trkpt><trkpt lat="37.13876461602786" lon="15.077644234503156"><ele>177.28571428571428</ele><time>2026-04-06T09:36:36Z</time></trkpt><trkpt lat="37.13878784865892" lon="15.077727203519778"><ele>178.57142857142856</ele><time>2026-04-06T09:36:37Z</time></trkpt><trkpt lat="37.138833422688805" lon="15.077793074136345"><ele>179.85714285714283</ele><time>2026-04-06T09:36:38Z</time></trkpt><trkpt lat="37.138911185378895" lon="15.077808449446993"><ele>181.14285714285714</ele><time>2026-04-06T09:36:39Z</time></trkpt><trkpt lat="37.13897702312514" lon="15.077757867823928"><ele>182.42857142857142</ele><time>2026-04-06T09:36:40Z</time></trkpt><trkpt lat="37.139005023996916" lon="15.077673530999212"><ele>183.7142857142857</ele><time>2026-04-06T09:36:41Z</time></trkpt><trkpt lat="37.139013525075875" lon="15.077586665331971"><ele>185.0</ele><time>2026-04-06T09:36:42Z</time></trkpt><trkpt lat="37.13901252825355" lon="15.077490394889072"><ele>183.7142857142857</ele><time>2026-04-06T09:36:43Z</time></trkpt><trkpt lat="37.139012930820876" lon="15.077395155899387"><ele>182.42857142857142</ele><time>2026-04-06T09:36:44Z</time></trkpt><trkpt lat="37.13901492548726" lon="15.077301524980177"><ele>181.14285714285714</ele><time>2026-04-06T09:36:45Z</time></trkpt><trkpt lat="37.13901631063227" lon="15.07720721202408"><ele>179.85714285714283</ele><time>2026-04-06T09:36:46Z</time></trkpt><trkpt lat="37.139014069810194" lon="15.077113885270387"><ele>178.57142857142856</ele><time>2026-04-06T09:36:47Z</time></trkpt><trkpt lat="37.139013453784344" lon="15.077021907860434"><ele>177.28571428571428</ele><time>2026-04-06T09:36:48Z</time></trkpt><trkpt lat="37.13901757469414" lon="15.076931139217349"><ele>176.0</ele><time>2026-04-06T09:36:49Z</time></trkpt><trkpt lat="37.13902071705033" lon="15.076843508425817"><ele>176.0</ele><time>2026-04-06T09:36:50Z</time></trkpt><trkpt lat="37.139026312055414" lon="15.076755367132378"><ele>176.0</ele><time>2026-04-06T09:36:51Z</time></trkpt><trkpt lat="37.139039174525834" lon="15.076669484188816"><ele>176.0</ele><time>2026-04-06T09:36:52Z</time></trkpt><trkpt lat="37.139056543412565" lon="15.076584095698545"><ele>176.0</ele><time>2026-04-06T09:36:53Z</time></trkpt><trkpt lat="37.13907704553429" lon="15.076498351589349"><ele>176.0</ele><time>2026-04-06T09:36:54Z</time></trkpt><trkpt lat="37.13910354753498" lon="15.076413593303068"><ele>176.0</ele><time>2026-04-06T09:36:55Z</time></trkpt><trkpt lat="37.13913298544924" lon="15.07632921000305"><ele>176.0</ele><time>2026-04-06T09:36:56Z</time></trkpt><trkpt lat="37.13916691204359" lon="15.076242102881311"><ele>178.33333333333331</ele><time>2026-04-06T09:36:57Z</time></trkpt><trkpt lat="37.13920078869531" lon="15.076152090993533"><ele>180.66666666666666</ele><time>2026-04-06T09:36:58Z</time></trkpt><trkpt lat="37.139233081378535" lon="15.076062337901268"><ele>183.0</ele><time>2026-04-06T09:36:59Z</time></trkpt><trkpt lat="37.1392650139932" lon="15.075977560030099"><ele>185.33333333333334</ele><time>2026-04-06T09:37:00Z</time></trkpt><trkpt lat="37.13929936526295" lon="15.075893865427906"><ele>187.66666666666669</ele><time>2026-04-06T09:37:01Z</time></trkpt><trkpt lat="37.13933220998663" lon="15.075810559860463"><ele>190.0</ele><time>2026-04-06T09:37:02Z</time></trkpt><trkpt lat="37.13936235355389" lon="15.075726667785224"><ele>190.0</ele><time>2026-04-06T09:37:03Z</time></trkpt><trkpt lat="37.13939414039624" lon="15.075645706422575"><ele>190.0</ele><time>2026-04-06T09:37:04Z</time></trkpt><trkpt lat="37.139426726399506" lon="15.075564157016858"><ele>190.0</ele><time>2026-04-06T09:37:05Z</time></trkpt><trkpt lat="37.13945972867756" lon="15.075482277675665"><ele>190.0</ele><time>2026-04-06T09:37:06Z</time></trkpt><trkpt lat="37.13949272410445" lon="15.075396805746212"><ele>190.0</ele><time>2026-04-06T09:37:07Z</time></trkpt><trkpt lat="37.13952862246273" lon="15.075296825779095"><ele>190.0</ele><time>2026-04-06T09:37:08Z</time></trkpt><trkpt lat="37.13956832480134" lon="15.075191122903073"><ele>190.0</ele><time>2026-04-06T09:37:09Z</time></trkpt><trkpt lat="37.13961226060321" lon="15.075080483427516"><ele>190.0</ele><time>2026-04-06T09:37:10Z</time></trkpt><trkpt lat="37.1396550773844" lon="15.074972509700936"><ele>190.0</ele><time>2026-04-06T09:37:11Z</time></trkpt><trkpt lat="37.13969804425658" lon="15.07487313318262"><ele>190.0</ele><time>2026-04-06T09:37:12Z</time></trkpt><trkpt lat="37.13974745623903" lon="15.074770601306579"><ele>190.0</ele><time>2026-04-06T09:37:13Z</time></trkpt><trkpt lat="37.13979940415106" lon="15.074662640414251"><ele>189.0</ele><time>2026-04-06T09:37:14Z</time></trkpt><trkpt lat="37.13985167213835" lon="15.074551519817392"><ele>188.0</ele><time>2026-04-06T09:37:15Z</time></trkpt><trkpt lat="37.139907608984004" lon="15.074439302150248"><ele>187.0</ele><time>2026-04-06T09:37:16Z</time></trkpt><trkpt lat="37.13996376824248" lon="15.074323097410518"><ele>186.0</ele><time>2026-04-06T09:37:17Z</time></trkpt><trkpt lat="37.14002014433419" lon="15.074208488140918"><ele>185.0</ele><time>2026-04-06T09:37:18Z</time></trkpt><trkpt lat="37.140077861790424" lon="15.07409404789738"><ele>188.8</ele><time>2026-04-06T09:37:19Z</time></trkpt><trkpt lat="37.14013489040046" lon="15.0739796132877"><ele>192.6</ele><time>2026-04-06T09:37:20Z</time></trkpt><trkpt lat="37.14019045277737" lon="15.073866542442174"><ele>196.39999999999998</ele><time>2026-04-06T09:37:21Z</time></trkpt><trkpt lat="37.14024461252304" lon="15.073754304020124"><ele>200.2</ele><time>2026-04-06T09:37:22Z</time></trkpt><trkpt lat="37.14030047921472" lon="15.073643786205517"><ele>204.0</ele><time>2026-04-06T09:37:23Z</time></trkpt><trkpt lat="37.140357922174985" lon="15.07353431801748"><ele>204.0</ele><time>2026-04-06T09:37:24Z</time></trkpt><trkpt lat="37.140413301063965" lon="15.073426984892192"><ele>204.0</ele><time>2026-04-06T09:37:25Z</time></trkpt><trkpt lat="37.14046726885369" lon="15.073320801378234"><ele>204.0</ele><time>2026-04-06T09:37:26Z</time></trkpt><trkpt lat="37.14051995212288" lon="15.073214386872365"><ele>204.0</ele><time>2026-04-06T09:37:27Z</time></trkpt><trkpt lat="37.1405715839306" lon="15.073108033246024"><ele>204.0</ele><time>2026-04-06T09:37:28Z</time></trkpt><trkpt lat="37.140622894090164" lon="15.07300141281425"><ele>203.39999999999998</ele><time>2026-04-06T09:37:29Z</time></trkpt><trkpt lat="37.140686128818814" lon="15.0729040272563"><ele>202.8</ele><time>2026-04-06T09:37:30Z</time></trkpt><trkpt lat="37.14073968525262" lon="15.072800701316817"><ele>202.2</ele><time>2026-04-06T09:37:31Z</time></trkpt><trkpt lat="37.14079600809272" lon="15.072693615890175"><ele>201.60000000000002</ele><time>2026-04-06T09:37:32Z</time></trkpt><trkpt lat="37.14085413073802" lon="15.072591680737627"><ele>201.0</ele><time>2026-04-06T09:37:33Z</time></trkpt><trkpt lat="37.14091446960379" lon="15.072491297516082"><ele>202.20000000000002</ele><time>2026-04-06T09:37:34Z</time></trkpt><trkpt lat="37.14097653717879" lon="15.072395582618784"><ele>203.4</ele><time>2026-04-06T09:37:35Z</time></trkpt><trkpt lat="37.1410441748087" lon="15.072303730369118"><ele>204.6</ele><time>2026-04-06T09:37:36Z</time></trkpt><trkpt lat="37.14111396570041" lon="15.072216424732023"><ele>205.8</ele><time>2026-04-06T09:37:37Z</time></trkpt><trkpt lat="37.141186767502205" lon="15.072134893063714"><ele>207.0</ele><time>2026-04-06T09:37:38Z</time></trkpt><trkpt lat="37.14126424667706" lon="15.07206002118002"><ele>207.0</ele><time>2026-04-06T09:37:39Z</time></trkpt><trkpt lat="37.14134101287579" lon="15.071985072381883"><ele>207.0</ele><time>2026-04-06T09:37:40Z</time></trkpt><trkpt lat="37.141422821977784" lon="15.071904227074462"><ele>207.0</ele><time>2026-04-06T09:37:41Z</time></trkpt><trkpt lat="37.14150668604952" lon="15.071820482707485"><ele>207.0</ele><time>2026-04-06T09:37:42Z</time></trkpt><trkpt lat="37.14159318269128" lon="15.071738057043325"><ele>207.0</ele><time>2026-04-06T09:37:43Z</time></trkpt><trkpt lat="37.14168357721071" lon="15.07165516188641"><ele>208.25</ele><time>2026-04-06T09:37:44Z</time></trkpt><trkpt lat="37.14177496220049" lon="15.071569596794859"><ele>209.5</ele><time>2026-04-06T09:37:45Z</time></trkpt><trkpt lat="37.14186861168836" lon="15.071483192154464"><ele>210.75</ele><time>2026-04-06T09:37:46Z</time></trkpt><trkpt lat="37.141960131019566" lon="15.071395723777652"><ele>212.0</ele><time>2026-04-06T09:37:47Z</time></trkpt><trkpt lat="37.14205200267864" lon="15.07130642725913"><ele>212.0</ele><time>2026-04-06T09:37:48Z</time></trkpt><trkpt lat="37.142147424101275" lon="15.071210647242259"><ele>212.0</ele><time>2026-04-06T09:37:49Z</time></trkpt><trkpt lat="37.142246631538065" lon="15.0711168231553"><ele>212.0</ele><time>2026-04-06T09:37:50Z</time></trkpt><trkpt lat="37.14234049201443" lon="15.071025017910962"><ele>212.0</ele><time>2026-04-06T09:37:51Z</time></trkpt><trkpt lat="37.14243884321676" lon="15.070931984090919"><ele>213.75</ele><time>2026-04-06T09:37:52Z</time></trkpt><trkpt lat="37.142536458426164" lon="15.070845615710843"><ele>215.5</ele><time>2026-04-06T09:37:53Z</time></trkpt><trkpt lat="37.142633701817424" lon="15.070753196620323"><ele>217.25</ele><time>2026-04-06T09:37:54Z</time></trkpt><trkpt lat="37.142731837541305" lon="15.070658417519018"><ele>219.0</ele><time>2026-04-06T09:37:55Z</time></trkpt><trkpt lat="37.14283017296512" lon="15.070562230285695"><ele>219.0</ele><time>2026-04-06T09:37:56Z</time></trkpt><trkpt lat="37.14293042750829" lon="15.070471002752798"><ele>219.0</ele><time>2026-04-06T09:37:57Z</time></trkpt><trkpt lat="37.14303222714517" lon="15.070374185434478"><ele>219.0</ele><time>2026-04-06T09:37:58Z</time></trkpt><trkpt lat="37.143134679295876" lon="15.070273809671534"><ele>219.0</ele><time>2026-04-06T09:37:59Z</time></trkpt><trkpt lat="37.143235753860765" lon="15.070176885671986"><ele>219.0</ele><time>2026-04-06T09:38:00Z</time></trkpt><trkpt lat="37.14333272474175" lon="15.070084333331968"><ele>219.0</ele><time>2026-04-06T09:38:01Z</time></trkpt><trkpt lat="37.143425085384635" lon="15.069996396411671"><ele>219.0</ele><time>2026-04-06T09:38:02Z</time></trkpt><trkpt lat="37.14351468701154" lon="15.069904511742353"><ele>219.0</ele><time>2026-04-06T09:38:03Z</time></trkpt><trkpt lat="37.143598142200645" lon="15.069806623785194"><ele>219.0</ele><time>2026-04-06T09:38:04Z</time></trkpt><trkpt lat="37.14367343520515" lon="15.069698617279895"><ele>219.0</ele><time>2026-04-06T09:38:05Z</time></trkpt><trkpt lat="37.14373418925364" lon="15.069578843842343"><ele>219.0</ele><time>2026-04-06T09:38:06Z</time></trkpt><trkpt lat="37.143783111805305" lon="15.069452133390485"><ele>219.0</ele><time>2026-04-06T09:38:07Z</time></trkpt><trkpt lat="37.14381664001885" lon="15.069320690639033"><ele>219.0</ele><time>2026-04-06T09:38:08Z</time></trkpt><trkpt lat="37.14385328295567" lon="15.069185073794623"><ele>219.0</ele><time>2026-04-06T09:38:09Z</time></trkpt><trkpt lat="37.143887681773755" lon="15.06903633217046"><ele>219.0</ele><time>2026-04-06T09:38:10Z</time></trkpt><trkpt lat="37.1439211623271" lon="15.068879697250244"><ele>219.0</ele><time>2026-04-06T09:38:11Z</time></trkpt><trkpt lat="37.14395452006594" lon="15.06872718213316"><ele>218.25</ele><time>2026-04-06T09:38:12Z</time></trkpt><trkpt lat="37.143988797379414" lon="15.068579120670043"><ele>217.5</ele><time>2026-04-06T09:38:13Z</time></trkpt><trkpt lat="37.144022181048314" lon="15.068432495429564"><ele>216.75</ele><time>2026-04-06T09:38:14Z</time></trkpt><trkpt lat="37.14405584282053" lon="15.06828419841022"><ele>216.0</ele><time>2026-04-06T09:38:15Z</time></trkpt><trkpt lat="37.144090804875894" lon="15.068133819961357"><ele>213.25</ele><time>2026-04-06T09:38:16Z</time></trkpt><trkpt lat="37.14411701654337" lon="15.067979107217287"><ele>210.5</ele><time>2026-04-06T09:38:17Z</time></trkpt><trkpt lat="37.14413235667475" lon="15.0678172625146"><ele>207.75</ele><time>2026-04-06T09:38:18Z</time></trkpt><trkpt lat="37.144138527413645" lon="15.067650488178744"><ele>205.0</ele><time>2026-04-06T09:38:19Z</time></trkpt><trkpt lat="37.144130212655284" lon="15.067485793703971"><ele>203.75</ele><time>2026-04-06T09:38:20Z</time></trkpt><trkpt lat="37.144112163632855" lon="15.067327927798495"><ele>202.5</ele><time>2026-04-06T09:38:21Z</time></trkpt><trkpt lat="37.14409834940711" lon="15.067174971282544"><ele>201.25</ele><time>2026-04-06T09:38:22Z</time></trkpt><trkpt lat="37.14407234777027" lon="15.067027214823067"><ele>200.0</ele><time>2026-04-06T09:38:23Z</time></trkpt><trkpt lat="37.14406334303704" lon="15.066875657320374"><ele>200.0</ele><time>2026-04-06T09:38:24Z</time></trkpt><trkpt lat="37.144062901775406" lon="15.066725433841281"><ele>200.0</ele><time>2026-04-06T09:38:25Z</time></trkpt><trkpt lat="37.14407556863175" lon="15.06658263804408"><ele>200.0</ele><time>2026-04-06T09:38:26Z</time></trkpt><trkpt lat="37.144098745709506" lon="15.066453805825775"><ele>200.0</ele><time>2026-04-06T09:38:27Z</time></trkpt><trkpt lat="37.14413141174915" lon="15.066345006066877"><ele>200.0</ele><time>2026-04-06T09:38:28Z</time></trkpt><trkpt lat="37.1441773311117" lon="15.06623741216001"><ele>199.6</ele><time>2026-04-06T09:38:29Z</time></trkpt><trkpt lat="37.14423155668961" lon="15.066109223710468"><ele>199.2</ele><time>2026-04-06T09:38:30Z</time></trkpt><trkpt lat="37.14428201512913" lon="15.065985766365667"><ele>198.8</ele><time>2026-04-06T09:38:31Z</time></trkpt><trkpt lat="37.144329003684405" lon="15.065878416689637"><ele>198.4</ele><time>2026-04-06T09:38:32Z</time></trkpt><trkpt lat="37.14435866156032" lon="15.065773810835271"><ele>198.0</ele><time>2026-04-06T09:38:33Z</time></trkpt><trkpt lat="37.14434333733685" lon="15.065662367093505"><ele>198.5</ele><time>2026-04-06T09:38:34Z</time></trkpt><trkpt lat="37.14429820219562" lon="15.06555438957864"><ele>199.0</ele><time>2026-04-06T09:38:35Z</time></trkpt><trkpt lat="37.14421418133306" lon="15.065453990614586"><ele>199.5</ele><time>2026-04-06T09:38:36Z</time></trkpt><trkpt lat="37.14412276246711" lon="15.065353526320877"><ele>200.0</ele><time>2026-04-06T09:38:37Z</time></trkpt><trkpt lat="37.14402344228175" lon="15.065247418160183"><ele>200.0</ele><time>2026-04-06T09:38:38Z</time></trkpt><trkpt lat="37.14393076848946" lon="15.06514216552939"><ele>200.0</ele><time>2026-04-06T09:38:39Z</time></trkpt><trkpt lat="37.14384196526234" lon="15.065046118625865"><ele>200.0</ele><time>2026-04-06T09:38:40Z</time></trkpt><trkpt lat="37.143772395735745" lon="15.064952031732421"><ele>200.0</ele><time>2026-04-06T09:38:41Z</time></trkpt><trkpt lat="37.14371795952655" lon="15.064858794971732"><ele>200.0</ele><time>2026-04-06T09:38:42Z</time></trkpt><trkpt lat="37.14367216321968" lon="15.064765657177526"><ele>200.33333333333334</ele><time>2026-04-06T09:38:43Z</time></trkpt><trkpt lat="37.143643339204" lon="15.064670861752983"><ele>200.66666666666669</ele><time>2026-04-06T09:38:44Z</time></trkpt><trkpt lat="37.143644019323915" lon="15.064574412997427"><ele>201.0</ele><time>2026-04-06T09:38:45Z</time></trkpt><trkpt lat="37.143666624769445" lon="15.064478734500304"><ele>201.33333333333331</ele><time>2026-04-06T09:38:46Z</time></trkpt><trkpt lat="37.14369717568015" lon="15.064384562763973"><ele>201.66666666666666</ele><time>2026-04-06T09:38:47Z</time></trkpt><trkpt lat="37.143762982568035" lon="15.064314394106162"><ele>202.0</ele><time>2026-04-06T09:38:48Z</time></trkpt><trkpt lat="37.14381967717526" lon="15.064218866246144"><ele>202.0</ele><time>2026-04-06T09:38:49Z</time></trkpt><trkpt lat="37.14390440277871" lon="15.064123112638965"><ele>202.0</ele><time>2026-04-06T09:38:50Z</time></trkpt><trkpt lat="37.1439861313614" lon="15.064011355024668"><ele>202.0</ele><time>2026-04-06T09:38:51Z</time></trkpt><trkpt lat="37.144071930858644" lon="15.063899222408986"><ele>202.0</ele><time>2026-04-06T09:38:52Z</time></trkpt><trkpt lat="37.144166326192796" lon="15.063786828970063"><ele>201.75</ele><time>2026-04-06T09:38:53Z</time></trkpt><trkpt lat="37.14425986676485" lon="15.063674858882463"><ele>201.5</ele><time>2026-04-06T09:38:54Z</time></trkpt><trkpt lat="37.14434861991094" lon="15.063564861526736"><ele>201.25</ele><time>2026-04-06T09:38:55Z</time></trkpt><trkpt lat="37.14443260382495" lon="15.063460848776327"><ele>201.0</ele><time>2026-04-06T09:38:56Z</time></trkpt><trkpt lat="37.144513160543966" lon="15.063344772753378"><ele>198.5</ele><time>2026-04-06T09:38:57Z</time></trkpt><trkpt lat="37.14458545997639" lon="15.063211253738137"><ele>196.0</ele><time>2026-04-06T09:38:58Z</time></trkpt><trkpt lat="37.14465084351839" lon="15.063075439325214"><ele>193.5</ele><time>2026-04-06T09:38:59Z</time></trkpt><trkpt lat="37.14471911896229" lon="15.062921287270223"><ele>191.0</ele><time>2026-04-06T09:39:00Z</time></trkpt><trkpt lat="37.14478639576945" lon="15.062763454703981"><ele>191.66666666666666</ele><time>2026-04-06T09:39:01Z</time></trkpt><trkpt lat="37.144905417003606" lon="15.06247375138291"><ele>192.33333333333331</ele><time>2026-04-06T09:39:03Z</time></trkpt><trkpt lat="37.14495798722534" lon="15.062338439873477"><ele>193.0</ele><time>2026-04-06T09:39:04Z</time></trkpt><trkpt lat="37.14500499661143" lon="15.062209256881172"><ele>193.0</ele><time>2026-04-06T09:39:05Z</time></trkpt><trkpt lat="37.14505155933853" lon="15.062088572435542"><ele>193.0</ele><time>2026-04-06T09:39:06Z</time></trkpt><trkpt lat="37.145097378442365" lon="15.061972353344359"><ele>193.0</ele><time>2026-04-06T09:39:07Z</time></trkpt><trkpt lat="37.14514251794091" lon="15.061855676654496"><ele>193.0</ele><time>2026-04-06T09:39:08Z</time></trkpt><trkpt lat="37.14518821933681" lon="15.061738022221713"><ele>193.0</ele><time>2026-04-06T09:39:09Z</time></trkpt><trkpt lat="37.14523721928528" lon="15.061620850874455"><ele>189.0</ele><time>2026-04-06T09:39:10Z</time></trkpt><trkpt lat="37.14529269657857" lon="15.061505875896218"><ele>185.0</ele><time>2026-04-06T09:39:11Z</time></trkpt><trkpt lat="37.14535394681869" lon="15.061394226398198"><ele>181.0</ele><time>2026-04-06T09:39:12Z</time></trkpt><trkpt lat="37.14542217654065" lon="15.061287147032576"><ele>177.0</ele><time>2026-04-06T09:39:13Z</time></trkpt><trkpt lat="37.14549426421055" lon="15.061187875484917"><ele>173.0</ele><time>2026-04-06T09:39:14Z</time></trkpt><trkpt lat="37.14557014429207" lon="15.06110332662992"><ele>173.0</ele><time>2026-04-06T09:39:15Z</time></trkpt><trkpt lat="37.14564885214601" lon="15.06102975362349"><ele>173.0</ele><time>2026-04-06T09:39:16Z</time></trkpt><trkpt lat="37.145734333814765" lon="15.060973383492188"><ele>173.0</ele><time>2026-04-06T09:39:17Z</time></trkpt><trkpt lat="37.14582498439489" lon="15.060923955866286"><ele>173.0</ele><time>2026-04-06T09:39:18Z</time></trkpt><trkpt lat="37.145920268165256" lon="15.06088102767541"><ele>173.0</ele><time>2026-04-06T09:39:19Z</time></trkpt><trkpt lat="37.146012584769196" lon="15.060834380185161"><ele>172.60000000000002</ele><time>2026-04-06T09:39:20Z</time></trkpt><trkpt lat="37.14609760568804" lon="15.060780865589042"><ele>172.20000000000002</ele><time>2026-04-06T09:39:21Z</time></trkpt><trkpt lat="37.14617948378541" lon="15.060715858816152"><ele>171.8</ele><time>2026-04-06T09:39:22Z</time></trkpt><trkpt lat="37.14626853212481" lon="15.060666635331073"><ele>171.4</ele><time>2026-04-06T09:39:23Z</time></trkpt><trkpt lat="37.1463450249154" lon="15.06060756427883"><ele>171.0</ele><time>2026-04-06T09:39:24Z</time></trkpt><trkpt lat="37.1464227949335" lon="15.060552345905771"><ele>171.0</ele><time>2026-04-06T09:39:25Z</time></trkpt><trkpt lat="37.14649987874266" lon="15.060508788011218"><ele>171.0</ele><time>2026-04-06T09:39:26Z</time></trkpt><trkpt lat="37.146581434748335" lon="15.06047264414773"><ele>171.0</ele><time>2026-04-06T09:39:27Z</time></trkpt><trkpt lat="37.146672387839274" lon="15.060447143018854"><ele>171.0</ele><time>2026-04-06T09:39:28Z</time></trkpt><trkpt lat="37.14676843238988" lon="15.06043600458414"><ele>171.0</ele><time>2026-04-06T09:39:29Z</time></trkpt><trkpt lat="37.146868725299704" lon="15.060429943524037"><ele>173.60000000000002</ele><time>2026-04-06T09:39:29.999Z</time></trkpt><trkpt lat="37.146970309351495" lon="15.060440397150819"><ele>176.2</ele><time>2026-04-06T09:39:30.999Z</time></trkpt><trkpt lat="37.147070568712024" lon="15.060460133957427"><ele>178.8</ele><time>2026-04-06T09:39:31.999Z</time></trkpt><trkpt lat="37.147162674149676" lon="15.060488567056408"><ele>181.39999999999998</ele><time>2026-04-06T09:39:32.999Z</time></trkpt><trkpt lat="37.147248007636136" lon="15.06052376934907"><ele>184.0</ele><time>2026-04-06T09:39:33.999Z</time></trkpt><trkpt lat="37.147328488984066" lon="15.060563880864985"><ele>184.2</ele><time>2026-04-06T09:39:34.999Z</time></trkpt><trkpt lat="37.147405305013244" lon="15.060607612865796"><ele>184.39999999999998</ele><time>2026-04-06T09:39:35.999Z</time></trkpt><trkpt lat="37.14748111973427" lon="15.060655740199332"><ele>184.6</ele><time>2026-04-06T09:39:36.999Z</time></trkpt><trkpt lat="37.14756109319143" lon="15.060711492708842"><ele>184.8</ele><time>2026-04-06T09:39:37.999Z</time></trkpt><trkpt lat="37.1476567560154" lon="15.060763449426256"><ele>185.0</ele><time>2026-04-06T09:39:39Z</time></trkpt><trkpt lat="37.14773965158062" lon="15.060855398440184"><ele>187.8</ele><time>2026-04-06T09:39:40Z</time></trkpt><trkpt lat="37.147828553558504" lon="15.060928310858769"><ele>190.6</ele><time>2026-04-06T09:39:41Z</time></trkpt><trkpt lat="37.147912968413905" lon="15.060997543183484"><ele>193.39999999999998</ele><time>2026-04-06T09:39:42Z</time></trkpt><trkpt lat="37.14800265225406" lon="15.061046270126544"><ele>196.2</ele><time>2026-04-06T09:39:43Z</time></trkpt><trkpt lat="37.148069619768954" lon="15.061128621059467"><ele>199.0</ele><time>2026-04-06T09:39:44Z</time></trkpt><trkpt lat="37.14814467481316" lon="15.061190219363764"><ele>197.66666666666666</ele><time>2026-04-06T09:39:45Z</time></trkpt><trkpt lat="37.14822254967093" lon="15.061240964269755"><ele>196.33333333333331</ele><time>2026-04-06T09:39:46Z</time></trkpt><trkpt lat="37.148304974463606" lon="15.061278564913094"><ele>195.0</ele><time>2026-04-06T09:39:47Z</time></trkpt><trkpt lat="37.14838935030093" lon="15.061292770148382"><ele>193.66666666666666</ele><time>2026-04-06T09:39:48Z</time></trkpt><trkpt lat="37.14846350693386" lon="15.061294922554326"><ele>192.33333333333331</ele><time>2026-04-06T09:39:49Z</time></trkpt><trkpt lat="37.14852658892722" lon="15.061285565056451"><ele>191.0</ele><time>2026-04-06T09:39:50Z</time></trkpt><trkpt lat="37.14858175399802" lon="15.061237694419026"><ele>191.0</ele><time>2026-04-06T09:39:51Z</time></trkpt><trkpt lat="37.148649270847336" lon="15.061210130051744"><ele>191.0</ele><time>2026-04-06T09:39:52Z</time></trkpt><trkpt lat="37.14871321255683" lon="15.061146202051514"><ele>191.0</ele><time>2026-04-06T09:39:53Z</time></trkpt><trkpt lat="37.14876523034031" lon="15.061072446492023"><ele>191.0</ele><time>2026-04-06T09:39:54Z</time></trkpt><trkpt lat="37.14878821001973" lon="15.06098628540107"><ele>191.0</ele><time>2026-04-06T09:39:55Z</time></trkpt><trkpt lat="37.14884105309325" lon="15.060869632978577"><ele>191.0</ele><time>2026-04-06T09:39:57Z</time></trkpt><trkpt lat="37.1488728900742" lon="15.060769986506502"><ele>190.16666666666666</ele><time>2026-04-06T09:39:59Z</time></trkpt><trkpt lat="37.14889873336093" lon="15.060679534304395"><ele>189.33333333333331</ele><time>2026-04-06T09:40:01Z</time></trkpt><trkpt lat="37.148922705689806" lon="15.060542474803535"><ele>188.5</ele><time>2026-04-06T09:40:03Z</time></trkpt><trkpt lat="37.14894212196652" lon="15.060450770100733"><ele>187.66666666666666</ele><time>2026-04-06T09:40:04Z</time></trkpt><trkpt lat="37.148963934935736" lon="15.060364219684782"><ele>186.83333333333334</ele><time>2026-04-06T09:40:05Z</time></trkpt><trkpt lat="37.14899011997233" lon="15.06028252329747"><ele>186.0</ele><time>2026-04-06T09:40:06Z</time></trkpt><trkpt lat="37.14901791895631" lon="15.060200299763062"><ele>186.4</ele><time>2026-04-06T09:40:07Z</time></trkpt><trkpt lat="37.149047604714305" lon="15.060093591398635"><ele>186.8</ele><time>2026-04-06T09:40:08Z</time></trkpt><trkpt lat="37.149087630696556" lon="15.059973539653862"><ele>187.20000000000002</ele><time>2026-04-06T09:40:09Z</time></trkpt><trkpt lat="37.149138522828366" lon="15.05986087730847"><ele>187.60000000000002</ele><time>2026-04-06T09:40:10Z</time></trkpt><trkpt lat="37.14922029080522" lon="15.059758253103247"><ele>188.0</ele><time>2026-04-06T09:40:11Z</time></trkpt><trkpt lat="37.14929117207682" lon="15.059622852471142"><ele>188.0</ele><time>2026-04-06T09:40:12Z</time></trkpt><trkpt lat="37.14937716002122" lon="15.059504803411174"><ele>188.0</ele><time>2026-04-06T09:40:13Z</time></trkpt><trkpt lat="37.14946377497245" lon="15.059382955985017"><ele>188.0</ele><time>2026-04-06T09:40:14Z</time></trkpt><trkpt lat="37.14955076875621" lon="15.059264076221886"><ele>188.0</ele><time>2026-04-06T09:40:15Z</time></trkpt><trkpt lat="37.14963607072145" lon="15.059147199967889"><ele>188.5</ele><time>2026-04-06T09:40:16Z</time></trkpt><trkpt lat="37.1497192138639" lon="15.059033134687986"><ele>189.0</ele><time>2026-04-06T09:40:17Z</time></trkpt><trkpt lat="37.149801299414584" lon="15.058921942309192"><ele>189.5</ele><time>2026-04-06T09:40:18Z</time></trkpt><trkpt lat="37.1498862650859" lon="15.058817737863203"><ele>190.0</ele><time>2026-04-06T09:40:19Z</time></trkpt><trkpt lat="37.14996815611251" lon="15.058712299291"><ele>191.4</ele><time>2026-04-06T09:40:20Z</time></trkpt><trkpt lat="37.15004241522001" lon="15.058603730173289"><ele>192.8</ele><time>2026-04-06T09:40:21Z</time></trkpt><trkpt lat="37.150095536624804" lon="15.05848094534511"><ele>194.2</ele><time>2026-04-06T09:40:22Z</time></trkpt><trkpt lat="37.150127813386106" lon="15.058352780638941"><ele>195.6</ele><time>2026-04-06T09:40:23Z</time></trkpt><trkpt lat="37.15013324616889" lon="15.058231913275538"><ele>197.0</ele><time>2026-04-06T09:40:24Z</time></trkpt><trkpt lat="37.150105738025964" lon="15.058117535184184"><ele>197.6</ele><time>2026-04-06T09:40:25Z</time></trkpt><trkpt lat="37.15005561902883" lon="15.057996579560449"><ele>198.2</ele><time>2026-04-06T09:40:26Z</time></trkpt><trkpt lat="37.14998776043606" lon="15.057890903828548"><ele>198.8</ele><time>2026-04-06T09:40:27Z</time></trkpt><trkpt lat="37.149902876348996" lon="15.05781565836621"><ele>199.4</ele><time>2026-04-06T09:40:28Z</time></trkpt><trkpt lat="37.14980938306172" lon="15.057779008982498"><ele>200.0</ele><time>2026-04-06T09:40:29Z</time></trkpt><trkpt lat="37.14969649100298" lon="15.057765751007796"><ele>200.0</ele><time>2026-04-06T09:40:30Z</time></trkpt><trkpt lat="37.149569524792476" lon="15.057766510795137"><ele>200.0</ele><time>2026-04-06T09:40:31Z</time></trkpt><trkpt lat="37.14944693604773" lon="15.057766501439309"><ele>200.0</ele><time>2026-04-06T09:40:32Z</time></trkpt><trkpt lat="37.14932910869434" lon="15.057766794180774"><ele>200.0</ele><time>2026-04-06T09:40:33Z</time></trkpt><trkpt lat="37.149218128385534" lon="15.057758502604177"><ele>200.0</ele><time>2026-04-06T09:40:34Z</time></trkpt><trkpt lat="37.149110466919666" lon="15.05774240339132"><ele>200.0</ele><time>2026-04-06T09:40:35Z</time></trkpt><trkpt lat="37.149004003447935" lon="15.0577133003113"><ele>200.0</ele><time>2026-04-06T09:40:36Z</time></trkpt><trkpt lat="37.148895314681106" lon="15.0576718802821"><ele>200.0</ele><time>2026-04-06T09:40:37Z</time></trkpt><trkpt lat="37.148775743607665" lon="15.05761004120518"><ele>200.75</ele><time>2026-04-06T09:40:38Z</time></trkpt><trkpt lat="37.148654733750085" lon="15.05753950824936"><ele>201.5</ele><time>2026-04-06T09:40:39Z</time></trkpt><trkpt lat="37.14853618502614" lon="15.057468686600798"><ele>202.25</ele><time>2026-04-06T09:40:40Z</time></trkpt><trkpt lat="37.148416293354344" lon="15.057397295041364"><ele>203.0</ele><time>2026-04-06T09:40:41Z</time></trkpt><trkpt lat="37.1483009872935" lon="15.057324816771397"><ele>199.0</ele><time>2026-04-06T09:40:42Z</time></trkpt><trkpt lat="37.14819351963314" lon="15.057247882361597"><ele>195.0</ele><time>2026-04-06T09:40:43Z</time></trkpt><trkpt lat="37.14810038578099" lon="15.057161696622758"><ele>191.0</ele><time>2026-04-06T09:40:44Z</time></trkpt><trkpt lat="37.148027484009546" lon="15.057065712637955"><ele>187.0</ele><time>2026-04-06T09:40:45Z</time></trkpt><trkpt lat="37.14797096859332" lon="15.056964747823766"><ele>183.0</ele><time>2026-04-06T09:40:46Z</time></trkpt><trkpt lat="37.14793097954142" lon="15.056851259152452"><ele>183.0</ele><time>2026-04-06T09:40:47Z</time></trkpt><trkpt lat="37.14791107921714" lon="15.056726760897325"><ele>183.0</ele><time>2026-04-06T09:40:48Z</time></trkpt><trkpt lat="37.147904934066055" lon="15.05658421883094"><ele>183.0</ele><time>2026-04-06T09:40:49Z</time></trkpt><trkpt lat="37.1479036218014" lon="15.056429589714801"><ele>183.0</ele><time>2026-04-06T09:40:50Z</time></trkpt><trkpt lat="37.14791936205929" lon="15.056271054926324"><ele>182.5</ele><time>2026-04-06T09:40:51Z</time></trkpt><trkpt lat="37.147948569504045" lon="15.056116921752604"><ele>182.0</ele><time>2026-04-06T09:40:52Z</time></trkpt><trkpt lat="37.147975495472544" lon="15.055970668904855"><ele>181.5</ele><time>2026-04-06T09:40:53Z</time></trkpt><trkpt lat="37.147998819829674" lon="15.055811016821375"><ele>181.0</ele><time>2026-04-06T09:40:54Z</time></trkpt><trkpt lat="37.148033929202725" lon="15.055651901582477"><ele>180.5</ele><time>2026-04-06T09:40:55Z</time></trkpt><trkpt lat="37.14808296610682" lon="15.05549317697703"><ele>180.0</ele><time>2026-04-06T09:40:56Z</time></trkpt><trkpt lat="37.148128043160945" lon="15.05533223180375"><ele>179.5</ele><time>2026-04-06T09:40:57Z</time></trkpt><trkpt lat="37.14816100167275" lon="15.055177395584563"><ele>179.0</ele><time>2026-04-06T09:40:58Z</time></trkpt><trkpt lat="37.148190489339974" lon="15.055028681954973"><ele>179.2</ele><time>2026-04-06T09:40:59Z</time></trkpt><trkpt lat="37.148199151443364" lon="15.054879447665899"><ele>179.39999999999998</ele><time>2026-04-06T09:41:00Z</time></trkpt><trkpt lat="37.148171391063016" lon="15.054743870223882"><ele>179.6</ele><time>2026-04-06T09:41:01Z</time></trkpt><trkpt lat="37.14814227256348" lon="15.05464225775487"><ele>179.8</ele><time>2026-04-06T09:41:02Z</time></trkpt><trkpt lat="37.14816950268112" lon="15.054518315507298"><ele>180.0</ele><time>2026-04-06T09:41:04Z</time></trkpt><trkpt lat="37.14822825153624" lon="15.054560561580702"><ele>183.33333333333334</ele><time>2026-04-06T09:41:08Z</time></trkpt><trkpt lat="37.148290689761936" lon="15.054697011802434"><ele>186.66666666666669</ele><time>2026-04-06T09:41:14Z</time></trkpt><trkpt lat="37.148312255918846" lon="15.05479591951966"><ele>190.0</ele><time>2026-04-06T09:41:15Z</time></trkpt><trkpt lat="37.1483185565723" lon="15.054890626465639"><ele>193.33333333333334</ele><time>2026-04-06T09:41:16Z</time></trkpt><trkpt lat="37.1483123858212" lon="15.054982749300136"><ele>196.66666666666669</ele><time>2026-04-06T09:41:17Z</time></trkpt><trkpt lat="37.148305321677306" lon="15.055096658764032"><ele>200.0</ele><time>2026-04-06T09:41:18Z</time></trkpt><trkpt lat="37.14829305174571" lon="15.055223505387518"><ele>200.0</ele><time>2026-04-06T09:41:19Z</time></trkpt><trkpt lat="37.148283957405425" lon="15.055341911834072"><ele>200.0</ele><time>2026-04-06T09:41:20Z</time></trkpt><trkpt lat="37.14827074235446" lon="15.05546612152478"><ele>200.0</ele><time>2026-04-06T09:41:21Z</time></trkpt><trkpt lat="37.14825704505221" lon="15.05559375137022"><ele>200.0</ele><time>2026-04-06T09:41:22Z</time></trkpt><trkpt lat="37.14824209108443" lon="15.055713268375502"><ele>200.0</ele><time>2026-04-06T09:41:23Z</time></trkpt><trkpt lat="37.14822389938477" lon="15.055827532451136"><ele>196.83333333333334</ele><time>2026-04-06T09:41:24Z</time></trkpt><trkpt lat="37.148200448561475" lon="15.055937750159723"><ele>193.66666666666669</ele><time>2026-04-06T09:41:25Z</time></trkpt><trkpt lat="37.14817552320715" lon="15.05604283598073"><ele>190.5</ele><time>2026-04-06T09:41:26Z</time></trkpt><trkpt lat="37.148153983850115" lon="15.056142610143178"><ele>187.33333333333334</ele><time>2026-04-06T09:41:27Z</time></trkpt><trkpt lat="37.14813873485484" lon="15.056232107028853"><ele>184.16666666666669</ele><time>2026-04-06T09:41:28Z</time></trkpt><trkpt lat="37.14813639724127" lon="15.056359339936918"><ele>181.0</ele><time>2026-04-06T09:41:30Z</time></trkpt><trkpt lat="37.1481903920786" lon="15.056439990540392"><ele>185.0</ele><time>2026-04-06T09:41:32Z</time></trkpt><trkpt lat="37.148286284632476" lon="15.056379814517902"><ele>189.0</ele><time>2026-04-06T09:41:34Z</time></trkpt><trkpt lat="37.14831158800143" lon="15.056286088995737"><ele>193.0</ele><time>2026-04-06T09:41:36Z</time></trkpt><trkpt lat="37.14830046727686" lon="15.056189272798047"><ele>197.0</ele><time>2026-04-06T09:41:38Z</time></trkpt><trkpt lat="37.148314964745936" lon="15.056091067900892"><ele>200.99999999999997</ele><time>2026-04-06T09:41:40Z</time></trkpt><trkpt lat="37.14833759164131" lon="15.055987847860555"><ele>205.0</ele><time>2026-04-06T09:41:42Z</time></trkpt><trkpt lat="37.148358405124675" lon="15.055870624283672"><ele>204.16666666666666</ele><time>2026-04-06T09:41:44Z</time></trkpt><trkpt lat="37.14839377904496" lon="15.055723562271908"><ele>203.33333333333331</ele><time>2026-04-06T09:41:46Z</time></trkpt><trkpt lat="37.148415173330676" lon="15.05562979677153"><ele>202.5</ele><time>2026-04-06T09:41:47Z</time></trkpt><trkpt lat="37.148438875905285" lon="15.055528759381765"><ele>201.66666666666669</ele><time>2026-04-06T09:41:48Z</time></trkpt><trkpt lat="37.148459600964856" lon="15.055438684357197"><ele>200.83333333333334</ele><time>2026-04-06T09:41:49Z</time></trkpt><trkpt lat="37.14848198397727" lon="15.05535628580249"><ele>200.0</ele><time>2026-04-06T09:41:50Z</time></trkpt><trkpt lat="37.148510553889786" lon="15.0552699982596"><ele>200.00000000000003</ele><time>2026-04-06T09:41:51Z</time></trkpt><trkpt lat="37.1485356587349" lon="15.05518109060798"><ele>200.0</ele><time>2026-04-06T09:41:52Z</time></trkpt><trkpt lat="37.14856116272504" lon="15.055090300001389"><ele>200.0</ele><time>2026-04-06T09:41:53Z</time></trkpt><trkpt lat="37.14858782241274" lon="15.054997003146065"><ele>200.0</ele><time>2026-04-06T09:41:54Z</time></trkpt><trkpt lat="37.14860200076377" lon="15.054902978991807"><ele>200.00000000000003</ele><time>2026-04-06T09:41:55Z</time></trkpt><trkpt lat="37.14860100948225" lon="15.0548097104562"><ele>200.0</ele><time>2026-04-06T09:41:56Z</time></trkpt><trkpt lat="37.148589407837505" lon="15.054720388413054"><ele>200.66666666666669</ele><time>2026-04-06T09:41:57Z</time></trkpt><trkpt lat="37.148580161222874" lon="15.054632857189727"><ele>201.33333333333334</ele><time>2026-04-06T09:41:58Z</time></trkpt><trkpt lat="37.1485695806918" lon="15.054546027080058"><ele>202.0</ele><time>2026-04-06T09:41:59Z</time></trkpt><trkpt lat="37.14855625997979" lon="15.054459815847908"><ele>202.66666666666669</ele><time>2026-04-06T09:42:00Z</time></trkpt><trkpt lat="37.148541712054964" lon="15.054375674762897"><ele>203.33333333333334</ele><time>2026-04-06T09:42:01Z</time></trkpt><trkpt lat="37.14851303461974" lon="15.054234720406807"><ele>204.0</ele><time>2026-04-06T09:42:03Z</time></trkpt><trkpt lat="37.148501471296015" lon="15.05413158302927"><ele>204.0</ele><time>2026-04-06T09:42:05Z</time></trkpt><trkpt lat="37.14850927572653" lon="15.054042602935095"><ele>204.0</ele><time>2026-04-06T09:42:08Z</time></trkpt><trkpt lat="37.148491397030234" lon="15.054184222329312"><ele>204.0</ele><time>2026-04-06T09:42:16Z</time></trkpt><trkpt lat="37.148518238618045" lon="15.054339507851678"><ele>204.0</ele><time>2026-04-06T09:42:18Z</time></trkpt><trkpt lat="37.14854167723677" lon="15.054457837569524"><ele>204.0</ele><time>2026-04-06T09:42:19Z</time></trkpt><trkpt lat="37.14829407698757" lon="15.054756611542835"><ele>204.0</ele><time>2026-04-06T09:42:20Z</time></trkpt><trkpt lat="37.14831196624597" lon="15.0549028394006"><ele>204.0</ele><time>2026-04-06T09:42:22Z</time></trkpt><trkpt lat="37.14830203361116" lon="15.055094487286633"><ele>204.0</ele><time>2026-04-06T09:42:24Z</time></trkpt><trkpt lat="37.14828672130516" lon="15.055235102491402"><ele>204.0</ele><time>2026-04-06T09:42:25Z</time></trkpt><trkpt lat="37.148270341587924" lon="15.055371383602768"><ele>203.2</ele><time>2026-04-06T09:42:26Z</time></trkpt><trkpt lat="37.14825480971628" lon="15.05549943714281"><ele>202.39999999999998</ele><time>2026-04-06T09:42:27Z</time></trkpt><trkpt lat="37.148239696699484" lon="15.055621631405108"><ele>201.6</ele><time>2026-04-06T09:42:28Z</time></trkpt><trkpt lat="37.14822489738067" lon="15.055735420892283"><ele>200.8</ele><time>2026-04-06T09:42:29Z</time></trkpt><trkpt lat="37.14820579055255" lon="15.055848702278544"><ele>200.0</ele><time>2026-04-06T09:42:30Z</time></trkpt><trkpt lat="37.14818777077569" lon="15.055949384505332"><ele>201.0</ele><time>2026-04-06T09:42:31Z</time></trkpt><trkpt lat="37.148168591222316" lon="15.056048647105749"><ele>202.0</ele><time>2026-04-06T09:42:32Z</time></trkpt><trkpt lat="37.14815150707906" lon="15.056133016311946"><ele>203.0</ele><time>2026-04-06T09:42:33Z</time></trkpt><trkpt lat="37.14812473012872" lon="15.056267709039448"><ele>204.0</ele><time>2026-04-06T09:42:35Z</time></trkpt><trkpt lat="37.148248651182705" lon="15.056361495708007"><ele>205.0</ele><time>2026-04-06T09:42:38Z</time></trkpt><trkpt lat="37.14827403337216" lon="15.056282906769646"><ele>204.99999999999997</ele><time>2026-04-06T09:42:39Z</time></trkpt><trkpt lat="37.14830946125393" lon="15.056192054020473"><ele>205.0</ele><time>2026-04-06T09:42:40Z</time></trkpt><trkpt lat="37.14832395435505" lon="15.05609758090334"><ele>205.0</ele><time>2026-04-06T09:42:41Z</time></trkpt><trkpt lat="37.14833964566603" lon="15.055998219564456"><ele>205.0</ele><time>2026-04-06T09:42:42Z</time></trkpt><trkpt lat="37.14835622589772" lon="15.055916504514268"><ele>204.99999999999997</ele><time>2026-04-06T09:42:43Z</time></trkpt><trkpt lat="37.14837631681489" lon="15.055825252819163"><ele>205.0</ele><time>2026-04-06T09:42:44Z</time></trkpt><trkpt lat="37.1483977025297" lon="15.055740961392505"><ele>204.16666666666666</ele><time>2026-04-06T09:42:45Z</time></trkpt><trkpt lat="37.14841996088903" lon="15.055652234130031"><ele>203.33333333333331</ele><time>2026-04-06T09:42:46Z</time></trkpt><trkpt lat="37.14844123398426" lon="15.055567434355158"><ele>202.5</ele><time>2026-04-06T09:42:47Z</time></trkpt><trkpt lat="37.148461538143636" lon="15.055491930474323"><ele>201.66666666666669</ele><time>2026-04-06T09:42:48Z</time></trkpt><trkpt lat="37.1484826327141" lon="15.055415798790804"><ele>200.83333333333334</ele><time>2026-04-06T09:42:49Z</time></trkpt><trkpt lat="37.14850369742033" lon="15.055339774890447"><ele>200.0</ele><time>2026-04-06T09:42:50Z</time></trkpt><trkpt lat="37.14819336372755" lon="15.055141618702466"><ele>200.0</ele><time>2026-04-06T09:42:51Z</time></trkpt><trkpt lat="37.14833430560164" lon="15.055100176637444"><ele>200.0</ele><time>2026-04-06T09:42:52Z</time></trkpt><trkpt lat="37.148351100628545" lon="15.054943833711727"><ele>200.0</ele><time>2026-04-06T09:42:54Z</time></trkpt><trkpt lat="37.14835068728505" lon="15.054864791267683"><ele>200.0</ele><time>2026-04-06T09:42:55Z</time></trkpt><trkpt lat="37.1483301054135" lon="15.054712217962663"><ele>200.8</ele><time>2026-04-06T09:42:57Z</time></trkpt><trkpt lat="37.1482917914744" lon="15.054569416264355"><ele>201.6</ele><time>2026-04-06T09:42:59Z</time></trkpt><trkpt lat="37.14822308587045" lon="15.054468376586163"><ele>202.39999999999998</ele><time>2026-04-06T09:43:01Z</time></trkpt><trkpt lat="37.148121169879346" lon="15.054500194976008"><ele>203.2</ele><time>2026-04-06T09:43:03Z</time></trkpt><trkpt lat="37.148108386357436" lon="15.05464676671302"><ele>204.0</ele><time>2026-04-06T09:43:05Z</time></trkpt><trkpt lat="37.148144387817034" lon="15.054793098213818"><ele>199.2</ele><time>2026-04-06T09:43:07Z</time></trkpt><trkpt lat="37.148170795082315" lon="15.054949017254131"><ele>194.39999999999998</ele><time>2026-04-06T09:43:09Z</time></trkpt><trkpt lat="37.148175948450294" lon="15.055041345021234"><ele>189.6</ele><time>2026-04-06T09:43:10Z</time></trkpt><trkpt lat="37.14815222642466" lon="15.055142536171102"><ele>184.8</ele><time>2026-04-06T09:43:11Z</time></trkpt><trkpt lat="37.14812529302337" lon="15.055248104759547"><ele>180.0</ele><time>2026-04-06T09:43:12Z</time></trkpt><trkpt lat="37.148097806167534" lon="15.055359719890848"><ele>179.83333333333334</ele><time>2026-04-06T09:43:13Z</time></trkpt><trkpt lat="37.14807037828301" lon="15.055469483516795"><ele>179.66666666666666</ele><time>2026-04-06T09:43:14Z</time></trkpt><trkpt lat="37.148050173626714" lon="15.05557847261776"><ele>179.5</ele><time>2026-04-06T09:43:15Z</time></trkpt><trkpt lat="37.14802776690021" lon="15.055681582940107"><ele>179.33333333333331</ele><time>2026-04-06T09:43:16Z</time></trkpt><trkpt lat="37.14800346800436" lon="15.055781327579023"><ele>179.16666666666666</ele><time>2026-04-06T09:43:17Z</time></trkpt><trkpt lat="37.1479808866106" lon="15.055879342424962"><ele>179.0</ele><time>2026-04-06T09:43:18Z</time></trkpt><trkpt lat="37.147961244897616" lon="15.055969675518849"><ele>179.33333333333331</ele><time>2026-04-06T09:43:19Z</time></trkpt><trkpt lat="37.14794312988797" lon="15.056049677428557"><ele>179.66666666666666</ele><time>2026-04-06T09:43:20Z</time></trkpt><trkpt lat="37.14788998395634" lon="15.05616872532912"><ele>180.0</ele><time>2026-04-06T09:43:22Z</time></trkpt><trkpt lat="37.14784196988199" lon="15.056252498526579"><ele>180.33333333333334</ele><time>2026-04-06T09:43:24Z</time></trkpt><trkpt lat="37.14788270976368" lon="15.056342265381698"><ele>180.66666666666669</ele><time>2026-04-06T09:43:25Z</time></trkpt><trkpt lat="37.14788525874282" lon="15.056448138552117"><ele>181.0</ele><time>2026-04-06T09:43:27Z</time></trkpt><trkpt lat="37.14787251837738" lon="15.05656710172906"><ele>181.4</ele><time>2026-04-06T09:43:29Z</time></trkpt><trkpt lat="37.14787863252292" lon="15.05667589921448"><ele>181.8</ele><time>2026-04-06T09:43:31Z</time></trkpt><trkpt lat="37.147885658037026" lon="15.056775378368929"><ele>182.20000000000002</ele><time>2026-04-06T09:43:33Z</time></trkpt><trkpt lat="37.147907163500236" lon="15.056893890440278"><ele>182.60000000000002</ele><time>2026-04-06T09:43:35Z</time></trkpt><trkpt lat="37.14796264535928" lon="15.057033160078852"><ele>183.0</ele><time>2026-04-06T09:43:37Z</time></trkpt><trkpt lat="37.1480106717863" lon="15.057108474756662"><ele>183.0</ele><time>2026-04-06T09:43:38Z</time></trkpt><trkpt lat="37.14807002356042" lon="15.05718651823733"><ele>183.0</ele><time>2026-04-06T09:43:39Z</time></trkpt><trkpt lat="37.14814256176418" lon="15.05725520966725"><ele>183.0</ele><time>2026-04-06T09:43:40Z</time></trkpt><trkpt lat="37.14822131033965" lon="15.057313797456452"><ele>183.0</ele><time>2026-04-06T09:43:41Z</time></trkpt><trkpt lat="37.1483001156725" lon="15.057368834831768"><ele>183.0</ele><time>2026-04-06T09:43:42Z</time></trkpt><trkpt lat="37.14838216236228" lon="15.057418465460215"><ele>184.60000000000002</ele><time>2026-04-06T09:43:43Z</time></trkpt><trkpt lat="37.148469562894356" lon="15.057471090642593"><ele>186.20000000000002</ele><time>2026-04-06T09:43:44Z</time></trkpt><trkpt lat="37.14856261379493" lon="15.057527117994356"><ele>187.8</ele><time>2026-04-06T09:43:45Z</time></trkpt><trkpt lat="37.148658918227255" lon="15.057585104358607"><ele>189.4</ele><time>2026-04-06T09:43:46Z</time></trkpt><trkpt lat="37.14875710813888" lon="15.057643433664914"><ele>191.0</ele><time>2026-04-06T09:43:47Z</time></trkpt><trkpt lat="37.148853019076164" lon="15.057696457363088"><ele>191.0</ele><time>2026-04-06T09:43:48Z</time></trkpt><trkpt lat="37.14895083152885" lon="15.057741211175415"><ele>191.0</ele><time>2026-04-06T09:43:49Z</time></trkpt><trkpt lat="37.1490468212722" lon="15.057774939990997"><ele>191.0</ele><time>2026-04-06T09:43:50Z</time></trkpt><trkpt lat="37.14914951035276" lon="15.057797215497299"><ele>191.0</ele><time>2026-04-06T09:43:51Z</time></trkpt><trkpt lat="37.14925962263737" lon="15.05780772779582"><ele>191.0</ele><time>2026-04-06T09:43:52Z</time></trkpt><trkpt lat="37.14937319350144" lon="15.057810327092819"><ele>192.5</ele><time>2026-04-06T09:43:53Z</time></trkpt><trkpt lat="37.14947207449613" lon="15.057811188035437"><ele>194.0</ele><time>2026-04-06T09:43:54Z</time></trkpt><trkpt lat="37.149559917344476" lon="15.057811952870594"><ele>195.5</ele><time>2026-04-06T09:43:55Z</time></trkpt><trkpt lat="37.149637473609545" lon="15.05781262814215"><ele>197.0</ele><time>2026-04-06T09:43:56Z</time></trkpt><trkpt lat="37.14971142879142" lon="15.057814878613952"><ele>198.50000000000003</ele><time>2026-04-06T09:43:57Z</time></trkpt><trkpt lat="37.14978537272907" lon="15.05782290937769"><ele>200.0</ele><time>2026-04-06T09:43:58Z</time></trkpt><trkpt lat="37.149853170831406" lon="15.0578462799133"><ele>199.57142857142858</ele><time>2026-04-06T09:43:59Z</time></trkpt><trkpt lat="37.14991586781239" lon="15.057882313879327"><ele>199.14285714285714</ele><time>2026-04-06T09:44:00Z</time></trkpt><trkpt lat="37.149970938408075" lon="15.057932378930845"><ele>198.71428571428572</ele><time>2026-04-06T09:44:01Z</time></trkpt><trkpt lat="37.15001408829443" lon="15.0579945132857"><ele>198.28571428571428</ele><time>2026-04-06T09:44:02Z</time></trkpt><trkpt lat="37.15005435577509" lon="15.058070957739911"><ele>197.85714285714286</ele><time>2026-04-06T09:44:03Z</time></trkpt><trkpt lat="37.15010001331513" lon="15.058151532557298"><ele>197.42857142857144</ele><time>2026-04-06T09:44:04Z</time></trkpt><trkpt lat="37.1501077436988" lon="15.058258358371583"><ele>197.0</ele><time>2026-04-06T09:44:05Z</time></trkpt><trkpt lat="37.1501035652289" lon="15.058373479206534"><ele>197.0</ele><time>2026-04-06T09:44:06Z</time></trkpt><trkpt lat="37.150081657748565" lon="15.058489917086096"><ele>197.0</ele><time>2026-04-06T09:44:07Z</time></trkpt><trkpt lat="37.15002876614117" lon="15.058603086180028"><ele>197.0</ele><time>2026-04-06T09:44:08Z</time></trkpt><trkpt lat="37.1499528238336" lon="15.058708246183285"><ele>197.0</ele><time>2026-04-06T09:44:09Z</time></trkpt><trkpt lat="37.14986121667828" lon="15.058820572371445"><ele>197.0</ele><time>2026-04-06T09:44:10Z</time></trkpt><trkpt lat="37.149766631598254" lon="15.058941536849243"><ele>195.25</ele><time>2026-04-06T09:44:11Z</time></trkpt><trkpt lat="37.149682105065594" lon="15.059059693454548"><ele>193.5</ele><time>2026-04-06T09:44:12Z</time></trkpt><trkpt lat="37.14958574866538" lon="15.059192869929111"><ele>191.75</ele><time>2026-04-06T09:44:13Z</time></trkpt><trkpt lat="37.14948394635711" lon="15.059337053038195"><ele>190.0</ele><time>2026-04-06T09:44:14Z</time></trkpt><trkpt lat="37.1493848361052" lon="15.059472211151007"><ele>189.5</ele><time>2026-04-06T09:44:15Z</time></trkpt><trkpt lat="37.14929528276055" lon="15.059595005826585"><ele>189.0</ele><time>2026-04-06T09:44:16Z</time></trkpt><trkpt lat="37.149211944804875" lon="15.059714569009833"><ele>188.5</ele><time>2026-04-06T09:44:17Z</time></trkpt><trkpt lat="37.149136600395245" lon="15.059836565628984"><ele>188.0</ele><time>2026-04-06T09:44:18Z</time></trkpt><trkpt lat="37.14907203307954" lon="15.059967832974468"><ele>187.5</ele><time>2026-04-06T09:44:19Z</time></trkpt><trkpt lat="37.149018540166736" lon="15.06011974861707"><ele>187.0</ele><time>2026-04-06T09:44:20Z</time></trkpt><trkpt lat="37.14897585166812" lon="15.060289170579015"><ele>186.5</ele><time>2026-04-06T09:44:21Z</time></trkpt><trkpt lat="37.14894198750549" lon="15.06044309099306"><ele>186.0</ele><time>2026-04-06T09:44:22Z</time></trkpt><trkpt lat="37.14889188291141" lon="15.060579308065172"><ele>186.0</ele><time>2026-04-06T09:44:23Z</time></trkpt><trkpt lat="37.148856836076575" lon="15.060713385801686"><ele>186.0</ele><time>2026-04-06T09:44:24Z</time></trkpt><trkpt lat="37.148830184070846" lon="15.060852750738594"><ele>186.0</ele><time>2026-04-06T09:44:25Z</time></trkpt><trkpt lat="37.14878036185932" lon="15.060979614728483"><ele>186.0</ele><time>2026-04-06T09:44:26Z</time></trkpt><trkpt lat="37.14871463873718" lon="15.061087678587988"><ele>186.0</ele><time>2026-04-06T09:44:27Z</time></trkpt><trkpt lat="37.14863893034277" lon="15.061178190265778"><ele>187.0</ele><time>2026-04-06T09:44:28Z</time></trkpt><trkpt lat="37.14855555291629" lon="15.061238901298196"><ele>188.0</ele><time>2026-04-06T09:44:29Z</time></trkpt><trkpt lat="37.14847004361127" lon="15.061262358029698"><ele>189.0</ele><time>2026-04-06T09:44:30Z</time></trkpt><trkpt lat="37.148383288693196" lon="15.061256231396207"><ele>190.0</ele><time>2026-04-06T09:44:31Z</time></trkpt><trkpt lat="37.148286445172786" lon="15.06123091785804"><ele>191.0</ele><time>2026-04-06T09:44:32Z</time></trkpt><trkpt lat="37.14818529596841" lon="15.061181917315428"><ele>193.0</ele><time>2026-04-06T09:44:33Z</time></trkpt><trkpt lat="37.14808457359416" lon="15.061110702579544"><ele>195.0</ele><time>2026-04-06T09:44:34Z</time></trkpt><trkpt lat="37.14798351609605" lon="15.06102905204215"><ele>197.0</ele><time>2026-04-06T09:44:35Z</time></trkpt><trkpt lat="37.14788153960192" lon="15.060943415218375"><ele>199.0</ele><time>2026-04-06T09:44:36Z</time></trkpt><trkpt lat="37.147774831841986" lon="15.060853776408301"><ele>196.2</ele><time>2026-04-06T09:44:37Z</time></trkpt><trkpt lat="37.14766821605587" lon="15.06076312908329"><ele>193.39999999999998</ele><time>2026-04-06T09:44:38Z</time></trkpt><trkpt lat="37.147568421843836" lon="15.060680666802144"><ele>190.6</ele><time>2026-04-06T09:44:39Z</time></trkpt><trkpt lat="37.14748275067159" lon="15.060620249541184"><ele>187.8</ele><time>2026-04-06T09:44:40Z</time></trkpt><trkpt lat="37.147421350646816" lon="15.060579554007692"><ele>185.0</ele><time>2026-04-06T09:44:41Z</time></trkpt><trkpt lat="37.14735311528922" lon="15.060533223933833"><ele>184.83333333333331</ele><time>2026-04-06T09:44:43Z</time></trkpt><trkpt lat="37.147297732679434" lon="15.060476518931162"><ele>184.66666666666666</ele><time>2026-04-06T09:44:48Z</time></trkpt><trkpt lat="37.14732966742008" lon="15.060373995825715"><ele>184.5</ele><time>2026-04-06T09:44:49Z</time></trkpt><trkpt lat="37.147308791964335" lon="15.060268275889023"><ele>184.33333333333334</ele><time>2026-04-06T09:44:51Z</time></trkpt><trkpt lat="37.14729180257579" lon="15.060189631442453"><ele>184.16666666666669</ele><time>2026-04-06T09:44:53Z</time></trkpt><trkpt lat="37.14727340400325" lon="15.060096704883598"><ele>184.0</ele><time>2026-04-06T09:44:55Z</time></trkpt><trkpt lat="37.147264469125695" lon="15.059995493039013"><ele>183.0</ele><time>2026-04-06T09:44:57Z</time></trkpt><trkpt lat="37.147271230285476" lon="15.059905089881818"><ele>182.0</ele><time>2026-04-06T09:44:59Z</time></trkpt><trkpt lat="37.14731953168097" lon="15.0598208619591"><ele>181.0</ele><time>2026-04-06T09:45:03Z</time></trkpt><trkpt lat="37.14737759929495" lon="15.059759892457032"><ele>180.0</ele><time>2026-04-06T09:45:05Z</time></trkpt><trkpt lat="37.14744161336874" lon="15.059684676495964"><ele>179.0</ele><time>2026-04-06T09:45:07Z</time></trkpt><trkpt lat="37.14750545538928" lon="15.059631079234826"><ele>178.0</ele><time>2026-04-06T09:45:09Z</time></trkpt><trkpt lat="37.14756584850048" lon="15.05957746456375"><ele>178.0</ele><time>2026-04-06T09:45:11Z</time></trkpt><trkpt lat="37.1475988078234" lon="15.059491293031556"><ele>178.0</ele><time>2026-04-06T09:45:13Z</time></trkpt><trkpt lat="37.147554032787255" lon="15.059399374319765"><ele>178.0</ele><time>2026-04-06T09:45:15Z</time></trkpt><trkpt lat="37.14756244626364" lon="15.059288253051015"><ele>178.0</ele><time>2026-04-06T09:45:18Z</time></trkpt><trkpt lat="37.14761615280406" lon="15.059161533227481"><ele>178.0</ele><time>2026-04-06T09:45:20Z</time></trkpt><trkpt lat="37.14763675359873" lon="15.059080393062677"><ele>178.0</ele><time>2026-04-06T09:45:21Z</time></trkpt><trkpt lat="37.14765745767435" lon="15.058992298106803"><ele>177.5</ele><time>2026-04-06T09:45:22Z</time></trkpt><trkpt lat="37.14767490243689" lon="15.05891150946241"><ele>177.0</ele><time>2026-04-06T09:45:23Z</time></trkpt><trkpt lat="37.14768812090844" lon="15.05883280273438"><ele>176.5</ele><time>2026-04-06T09:45:24Z</time></trkpt><trkpt lat="37.147697743104175" lon="15.058673985351113"><ele>176.0</ele><time>2026-04-06T09:45:26Z</time></trkpt><trkpt lat="37.147694372465764" lon="15.058583775461031"><ele>175.5</ele><time>2026-04-06T09:45:27Z</time></trkpt><trkpt lat="37.14768567116889" lon="15.058477701823989"><ele>175.0</ele><time>2026-04-06T09:45:28Z</time></trkpt><trkpt lat="37.147673713753754" lon="15.05837169339861"><ele>175.5</ele><time>2026-04-06T09:45:29Z</time></trkpt><trkpt lat="37.147659166180375" lon="15.058266879043703"><ele>176.0</ele><time>2026-04-06T09:45:30Z</time></trkpt><trkpt lat="37.147640826746525" lon="15.058163298810571"><ele>176.5</ele><time>2026-04-06T09:45:31Z</time></trkpt><trkpt lat="37.14762206028478" lon="15.05806065419599"><ele>177.0</ele><time>2026-04-06T09:45:32Z</time></trkpt><trkpt lat="37.14758855207941" lon="15.057966540944392"><ele>177.5</ele><time>2026-04-06T09:45:33Z</time></trkpt><trkpt lat="37.147574058961894" lon="15.057870970500373"><ele>178.0</ele><time>2026-04-06T09:45:34Z</time></trkpt><trkpt lat="37.14755543605777" lon="15.05778000484501"><ele>178.0</ele><time>2026-04-06T09:45:35Z</time></trkpt><trkpt lat="37.147542894526424" lon="15.057692388830036"><ele>178.0</ele><time>2026-04-06T09:45:36Z</time></trkpt><trkpt lat="37.147528782784185" lon="15.057606114919977"><ele>178.0</ele><time>2026-04-06T09:45:37Z</time></trkpt><trkpt lat="37.147515438336086" lon="15.057521897259747"><ele>178.0</ele><time>2026-04-06T09:45:38Z</time></trkpt><trkpt lat="37.14749836337716" lon="15.057441300306685"><ele>178.0</ele><time>2026-04-06T09:45:39Z</time></trkpt><trkpt lat="37.14747176447237" lon="15.057300129103561"><ele>178.0</ele><time>2026-04-06T09:45:41Z</time></trkpt><trkpt lat="37.14746893933675" lon="15.0571767473442"><ele>178.5</ele><time>2026-04-06T09:45:43Z</time></trkpt><trkpt lat="37.147456037170585" lon="15.05706005412458"><ele>179.0</ele><time>2026-04-06T09:45:45Z</time></trkpt><trkpt lat="37.1474509070977" lon="15.05693480202402"><ele>179.5</ele><time>2026-04-06T09:45:47Z</time></trkpt><trkpt lat="37.14745282273022" lon="15.056848257142711"><ele>180.0</ele><time>2026-04-06T09:45:48Z</time></trkpt><trkpt lat="37.14744536433131" lon="15.056750871476982"><ele>180.5</ele><time>2026-04-06T09:45:49Z</time></trkpt><trkpt lat="37.14745349344884" lon="15.056643238495166"><ele>181.0</ele><time>2026-04-06T09:45:50Z</time></trkpt><trkpt lat="37.14746485740742" lon="15.056524350506105"><ele>181.0</ele><time>2026-04-06T09:45:51Z</time></trkpt><trkpt lat="37.147475315882126" lon="15.056402438696358"><ele>181.0</ele><time>2026-04-06T09:45:52Z</time></trkpt><trkpt lat="37.14749113074843" lon="15.056280007183439"><ele>181.0</ele><time>2026-04-06T09:45:53Z</time></trkpt><trkpt lat="37.14751168324436" lon="15.056173800799334"><ele>181.0</ele><time>2026-04-06T09:45:54Z</time></trkpt><trkpt lat="37.147505752574084" lon="15.05606861727366"><ele>181.0</ele><time>2026-04-06T09:45:55Z</time></trkpt><trkpt lat="37.14751503205447" lon="15.055965909434207"><ele>181.0</ele><time>2026-04-06T09:45:56Z</time></trkpt><trkpt lat="37.14752534809771" lon="15.055864524979988"><ele>181.0</ele><time>2026-04-06T09:45:57Z</time></trkpt><trkpt lat="37.14753607110474" lon="15.055761999358024"><ele>181.0</ele><time>2026-04-06T09:45:58Z</time></trkpt><trkpt lat="37.14753934461225" lon="15.055656745774264"><ele>181.0</ele><time>2026-04-06T09:45:59Z</time></trkpt><trkpt lat="37.14756218116795" lon="15.055551568588427"><ele>181.0</ele><time>2026-04-06T09:46:00Z</time></trkpt><trkpt lat="37.14756977108471" lon="15.055445822254686"><ele>181.0</ele><time>2026-04-06T09:46:01Z</time></trkpt><trkpt lat="37.14756207638548" lon="15.055332084382187"><ele>180.83333333333334</ele><time>2026-04-06T09:46:02Z</time></trkpt><trkpt lat="37.147574984911266" lon="15.055216613947534"><ele>180.66666666666669</ele><time>2026-04-06T09:46:03Z</time></trkpt><trkpt lat="37.147587592322225" lon="15.05510744838992"><ele>180.5</ele><time>2026-04-06T09:46:04Z</time></trkpt><trkpt lat="37.14757209516195" lon="15.055015633078058"><ele>180.33333333333334</ele><time>2026-04-06T09:46:05Z</time></trkpt><trkpt lat="37.147572613738646" lon="15.054930629886837"><ele>180.16666666666666</ele><time>2026-04-06T09:46:06Z</time></trkpt><trkpt lat="37.1475648673677" lon="15.05478083613048"><ele>180.0</ele><time>2026-04-06T09:46:08Z</time></trkpt><trkpt lat="37.147572445737275" lon="15.054667295316221"><ele>180.0</ele><time>2026-04-06T09:46:10Z</time></trkpt><trkpt lat="37.14754852325941" lon="15.05456057411773"><ele>180.0</ele><time>2026-04-06T09:46:12Z</time></trkpt><trkpt lat="37.1475435579456" lon="15.054449991077261"><ele>180.0</ele><time>2026-04-06T09:46:14Z</time></trkpt><trkpt lat="37.147549284942805" lon="15.054320738178486"><ele>180.0</ele><time>2026-04-06T09:46:16Z</time></trkpt><trkpt lat="37.14754596825677" lon="15.05419325209108"><ele>180.0</ele><time>2026-04-06T09:46:18Z</time></trkpt><trkpt lat="37.14753796630471" lon="15.05406188621677"><ele>179.2</ele><time>2026-04-06T09:46:20Z</time></trkpt><trkpt lat="37.14756096429059" lon="15.053934649385717"><ele>178.4</ele><time>2026-04-06T09:46:22Z</time></trkpt><trkpt lat="37.14758379637102" lon="15.05382156167804"><ele>177.60000000000002</ele><time>2026-04-06T09:46:24Z</time></trkpt><trkpt lat="37.147615345862" lon="15.053718824116405"><ele>176.8</ele><time>2026-04-06T09:46:26Z</time></trkpt><trkpt lat="37.14765021307881" lon="15.053619634680176"><ele>176.0</ele><time>2026-04-06T09:46:28Z</time></trkpt><trkpt lat="37.14770080530665" lon="15.053538675266942"><ele>176.0</ele><time>2026-04-06T09:46:30Z</time></trkpt><trkpt lat="37.14778751670287" lon="15.053535809106256"><ele>176.0</ele><time>2026-04-06T09:46:34Z</time></trkpt><trkpt lat="37.14782710251601" lon="15.05339430499607"><ele>176.0</ele><time>2026-04-06T09:46:36Z</time></trkpt><trkpt lat="37.14784646584504" lon="15.053272121154691"><ele>176.0</ele><time>2026-04-06T09:46:38Z</time></trkpt><trkpt lat="37.147871022503594" lon="15.053128539619994"><ele>176.0</ele><time>2026-04-06T09:46:40Z</time></trkpt><trkpt lat="37.14788204999717" lon="15.053050067270066"><ele>175.60000000000002</ele><time>2026-04-06T09:46:41Z</time></trkpt><trkpt lat="37.14790416361883" lon="15.052905825123089"><ele>175.2</ele><time>2026-04-06T09:46:43Z</time></trkpt><trkpt lat="37.14792095617512" lon="15.052765305053487"><ele>174.8</ele><time>2026-04-06T09:46:45Z</time></trkpt><trkpt lat="37.14793864302176" lon="15.052642460306664"><ele>174.39999999999998</ele><time>2026-04-06T09:46:47Z</time></trkpt><trkpt lat="37.147964030325426" lon="15.052523479563682"><ele>174.0</ele><time>2026-04-06T09:46:49Z</time></trkpt><trkpt lat="37.148008323175866" lon="15.052407416856989"><ele>173.83333333333334</ele><time>2026-04-06T09:46:51Z</time></trkpt><trkpt lat="37.14805607331445" lon="15.052296603708225"><ele>173.66666666666666</ele><time>2026-04-06T09:46:53Z</time></trkpt><trkpt lat="37.14810271113447" lon="15.05220484283987"><ele>173.5</ele><time>2026-04-06T09:46:55Z</time></trkpt><trkpt lat="37.148139471262915" lon="15.052126185984095"><ele>173.33333333333331</ele><time>2026-04-06T09:46:58Z</time></trkpt><trkpt lat="37.148150999510555" lon="15.052047221600565"><ele>173.16666666666666</ele><time>2026-04-06T09:47:02Z</time></trkpt><trkpt lat="37.14820607324911" lon="15.051967241074347"><ele>173.0</ele><time>2026-04-06T09:47:05Z</time></trkpt><trkpt lat="37.148253478823584" lon="15.05189348706196"><ele>174.0</ele><time>2026-04-06T09:47:07Z</time></trkpt><trkpt lat="37.148289624463345" lon="15.05180474501555"><ele>175.0</ele><time>2026-04-06T09:47:09Z</time></trkpt><trkpt lat="37.14830520027553" lon="15.051725906556886"><ele>176.0</ele><time>2026-04-06T09:47:11Z</time></trkpt><trkpt lat="37.14837947347506" lon="15.051647606498923"><ele>177.0</ele><time>2026-04-06T09:47:17Z</time></trkpt><trkpt lat="37.14849580274057" lon="15.051548669652597"><ele>178.0</ele><time>2026-04-06T09:47:19Z</time></trkpt><trkpt lat="37.14854831269984" lon="15.051479366369511"><ele>178.2</ele><time>2026-04-06T09:47:20Z</time></trkpt><trkpt lat="37.14859135617226" lon="15.051420362251102"><ele>178.4</ele><time>2026-04-06T09:47:21Z</time></trkpt><trkpt lat="37.14865720496939" lon="15.051319969811201"><ele>178.6</ele><time>2026-04-06T09:47:23Z</time></trkpt><trkpt lat="37.14870060025066" lon="15.05117183384382"><ele>178.79999999999998</ele><time>2026-04-06T09:47:25Z</time></trkpt><trkpt lat="37.14871132397707" lon="15.051093368427937"><ele>179.0</ele><time>2026-04-06T09:47:26Z</time></trkpt><trkpt lat="37.148719497302004" lon="15.050936683062275"><ele>179.0</ele><time>2026-04-06T09:47:28Z</time></trkpt><trkpt lat="37.14870355515383" lon="15.050795272991683"><ele>179.0</ele><time>2026-04-06T09:47:30Z</time></trkpt><trkpt lat="37.1486943673247" lon="15.050662715264846"><ele>179.0</ele><time>2026-04-06T09:47:32Z</time></trkpt><trkpt lat="37.14866368014017" lon="15.050532429939745"><ele>179.0</ele><time>2026-04-06T09:47:34Z</time></trkpt><trkpt lat="37.14864416613919" lon="15.050411829974225"><ele>179.0</ele><time>2026-04-06T09:47:36Z</time></trkpt><trkpt lat="37.148677202620746" lon="15.050320318133766"><ele>179.79999999999998</ele><time>2026-04-06T09:47:39Z</time></trkpt><trkpt lat="37.148724093500796" lon="15.050400332349952"><ele>180.6</ele><time>2026-04-06T09:47:42Z</time></trkpt><trkpt lat="37.14878078917234" lon="15.050471607806697"><ele>181.4</ele><time>2026-04-06T09:47:45Z</time></trkpt><trkpt lat="37.14884662221811" lon="15.050415034663645"><ele>182.2</ele><time>2026-04-06T09:47:46.999Z</time></trkpt><trkpt lat="37.14883302460261" lon="15.050283350280742"><ele>183.0</ele><time>2026-04-06T09:47:48.999Z</time></trkpt><trkpt lat="37.14882261999282" lon="15.05012970703071"><ele>183.0</ele><time>2026-04-06T09:47:50.999Z</time></trkpt><trkpt lat="37.14882740570372" lon="15.050041022982805"><ele>183.0</ele><time>2026-04-06T09:47:51.999Z</time></trkpt><trkpt lat="37.14884314868282" lon="15.049950816990142"><ele>183.0</ele><time>2026-04-06T09:47:52.999Z</time></trkpt><trkpt lat="37.14887860228491" lon="15.04986866486093"><ele>183.0</ele><time>2026-04-06T09:47:53.999Z</time></trkpt><trkpt lat="37.14890328685291" lon="15.049708822353915"><ele>183.0</ele><time>2026-04-06T09:47:55.999Z</time></trkpt><trkpt lat="37.14893199165047" lon="15.049632897939432"><ele>183.0</ele><time>2026-04-06T09:47:56.999Z</time></trkpt><trkpt lat="37.14894171986722" lon="15.049544609937715"><ele>183.33333333333334</ele><time>2026-04-06T09:47:57.999Z</time></trkpt><trkpt lat="37.14891862239019" lon="15.049455165575301"><ele>183.66666666666666</ele><time>2026-04-06T09:47:58.999Z</time></trkpt><trkpt lat="37.14893446908758" lon="15.049373567704272"><ele>184.0</ele><time>2026-04-06T09:47:59.999Z</time></trkpt><trkpt lat="37.148977833392934" lon="15.049226592775224"><ele>184.33333333333331</ele><time>2026-04-06T09:48:01.999Z</time></trkpt><trkpt lat="37.14901201158893" lon="15.049141421431038"><ele>184.66666666666666</ele><time>2026-04-06T09:48:02.999Z</time></trkpt><trkpt lat="37.14904315170075" lon="15.049058970592307"><ele>185.0</ele><time>2026-04-06T09:48:03.999Z</time></trkpt><trkpt lat="37.14907381004601" lon="15.04896524055549"><ele>187.83333333333331</ele><time>2026-04-06T09:48:04.999Z</time></trkpt><trkpt lat="37.14910033413897" lon="15.04886130160214"><ele>190.66666666666666</ele><time>2026-04-06T09:48:05.999Z</time></trkpt><trkpt lat="37.14912206726271" lon="15.048770385734588"><ele>193.5</ele><time>2026-04-06T09:48:06.999Z</time></trkpt><trkpt lat="37.149144251993725" lon="15.048682485638336"><ele>196.33333333333331</ele><time>2026-04-06T09:48:07.999Z</time></trkpt><trkpt lat="37.14918858741005" lon="15.048550942341363"><ele>199.16666666666666</ele><time>2026-04-06T09:48:09.999Z</time></trkpt><trkpt lat="37.149233810095495" lon="15.04844885322431"><ele>202.0</ele><time>2026-04-06T09:48:11.999Z</time></trkpt><trkpt lat="37.149335698870765" lon="15.048356516480363"><ele>202.0</ele><time>2026-04-06T09:48:13.999Z</time></trkpt><trkpt lat="37.149401754767354" lon="15.04831171593143"><ele>202.0</ele><time>2026-04-06T09:48:14.999Z</time></trkpt><trkpt lat="37.14946493772515" lon="15.048269688932203"><ele>202.0</ele><time>2026-04-06T09:48:15.999Z</time></trkpt><trkpt lat="37.14955718938406" lon="15.04819202139274"><ele>202.0</ele><time>2026-04-06T09:48:17.999Z</time></trkpt><trkpt lat="37.149612109300364" lon="15.048074854823275"><ele>202.0</ele><time>2026-04-06T09:48:19.999Z</time></trkpt><trkpt lat="37.14960137418956" lon="15.04792725500672"><ele>201.99999999999997</ele><time>2026-04-06T09:48:21.999Z</time></trkpt><trkpt lat="37.149580716150254" lon="15.047850780408831"><ele>202.0</ele><time>2026-04-06T09:48:22.999Z</time></trkpt><trkpt lat="37.14955684614049" lon="15.047768499645604"><ele>202.0</ele><time>2026-04-06T09:48:23.999Z</time></trkpt><trkpt lat="37.14952436520671" lon="15.047688312295957"><ele>202.0</ele><time>2026-04-06T09:48:24.999Z</time></trkpt><trkpt lat="37.14948396647344" lon="15.047602851725905"><ele>201.99999999999997</ele><time>2026-04-06T09:48:25.999Z</time></trkpt><trkpt lat="37.14944268668245" lon="15.047516350624438"><ele>202.0</ele><time>2026-04-06T09:48:26.999Z</time></trkpt><trkpt lat="37.14940358578762" lon="15.047421400740054"><ele>205.2</ele><time>2026-04-06T09:48:27.999Z</time></trkpt><trkpt lat="37.149365199443096" lon="15.047323526717017"><ele>208.39999999999998</ele><time>2026-04-06T09:48:28.999Z</time></trkpt><trkpt lat="37.149330154614894" lon="15.047225690185595"><ele>211.60000000000002</ele><time>2026-04-06T09:48:29.999Z</time></trkpt><trkpt lat="37.14929540257696" lon="15.047129510494274"><ele>214.8</ele><time>2026-04-06T09:48:30.999Z</time></trkpt><trkpt lat="37.14925466897396" lon="15.04702035059414"><ele>218.0</ele><time>2026-04-06T09:48:31.999Z</time></trkpt><trkpt lat="37.14920588365184" lon="15.046905438464009"><ele>218.00000000000003</ele><time>2026-04-06T09:48:32.999Z</time></trkpt><trkpt lat="37.1491541823826" lon="15.046800811081592"><ele>218.0</ele><time>2026-04-06T09:48:33.999Z</time></trkpt><trkpt lat="37.14910289169818" lon="15.04671042575658"><ele>218.0</ele><time>2026-04-06T09:48:34.999Z</time></trkpt><trkpt lat="37.14905432697855" lon="15.046625764638966"><ele>218.0</ele><time>2026-04-06T09:48:35.999Z</time></trkpt><trkpt lat="37.14901164177783" lon="15.046550455689273"><ele>218.00000000000003</ele><time>2026-04-06T09:48:36.999Z</time></trkpt><trkpt lat="37.14897421852387" lon="15.046482053578321"><ele>218.0</ele><time>2026-04-06T09:48:37.999Z</time></trkpt><trkpt lat="37.148937490759536" lon="15.04641492269716"><ele>214.0</ele><time>2026-04-06T09:48:38.999Z</time></trkpt><trkpt lat="37.14886626407356" lon="15.046284734749044"><ele>210.0</ele><time>2026-04-06T09:48:40.999Z</time></trkpt><trkpt lat="37.14883142654368" lon="15.04621580913791"><ele>206.0</ele><time>2026-04-06T09:48:41.999Z</time></trkpt><trkpt lat="37.14877617095681" lon="15.04608109583957"><ele>202.0</ele><time>2026-04-06T09:48:43.999Z</time></trkpt><trkpt lat="37.14873746490456" lon="15.045940440250973"><ele>198.0</ele><time>2026-04-06T09:48:45.999Z</time></trkpt><trkpt lat="37.14869851140802" lon="15.045802447080202"><ele>199.16666666666666</ele><time>2026-04-06T09:48:47.999Z</time></trkpt><trkpt lat="37.14868736055781" lon="15.045647036461501"><ele>200.33333333333331</ele><time>2026-04-06T09:48:49.999Z</time></trkpt><trkpt lat="37.14869719263905" lon="15.045561024370473"><ele>201.5</ele><time>2026-04-06T09:48:50.999Z</time></trkpt><trkpt lat="37.148695658461925" lon="15.045470610239999"><ele>202.66666666666666</ele><time>2026-04-06T09:48:51.999Z</time></trkpt><trkpt lat="37.14869508768802" lon="15.045382191968686"><ele>203.83333333333331</ele><time>2026-04-06T09:48:52.999Z</time></trkpt><trkpt lat="37.14869722552276" lon="15.04530146769027"><ele>205.0</ele><time>2026-04-06T09:48:53.999Z</time></trkpt><trkpt lat="37.14870038416867" lon="15.045213420434491"><ele>204.99999999999997</ele><time>2026-04-06T09:48:54.999Z</time></trkpt><trkpt lat="37.148705321255484" lon="15.045113336130816"><ele>205.0</ele><time>2026-04-06T09:48:55.999Z</time></trkpt><trkpt lat="37.14871393868988" lon="15.045018695147386"><ele>205.0</ele><time>2026-04-06T09:48:56.999Z</time></trkpt><trkpt lat="37.1487238528585" lon="15.04492639335839"><ele>205.0</ele><time>2026-04-06T09:48:57.999Z</time></trkpt><trkpt lat="37.14873988741181" lon="15.044833374112162"><ele>204.99999999999997</ele><time>2026-04-06T09:48:58.999Z</time></trkpt><trkpt lat="37.148758652307016" lon="15.044742266538258"><ele>205.0</ele><time>2026-04-06T09:48:59.999Z</time></trkpt><trkpt lat="37.14878122276623" lon="15.044649741355494"><ele>206.0</ele><time>2026-04-06T09:49:00.999Z</time></trkpt><trkpt lat="37.148802812429125" lon="15.04456405528981"><ele>207.0</ele><time>2026-04-06T09:49:01.999Z</time></trkpt><trkpt lat="37.148838151659035" lon="15.04441844504868"><ele>208.0</ele><time>2026-04-06T09:49:03.999Z</time></trkpt><trkpt lat="37.14886605848932" lon="15.044282572841096"><ele>209.0</ele><time>2026-04-06T09:49:05.999Z</time></trkpt><trkpt lat="37.148906531996715" lon="15.044165468240834"><ele>210.0</ele><time>2026-04-06T09:49:07.999Z</time></trkpt><trkpt lat="37.14894839593894" lon="15.044089205954156"><ele>209.0</ele><time>2026-04-06T09:49:08.999Z</time></trkpt><trkpt lat="37.149010464087084" lon="15.044003493474465"><ele>208.0</ele><time>2026-04-06T09:49:09.999Z</time></trkpt><trkpt lat="37.149071393229484" lon="15.043928900759518"><ele>207.0</ele><time>2026-04-06T09:49:10.999Z</time></trkpt><trkpt lat="37.149138831740224" lon="15.043846774592396"><ele>206.0</ele><time>2026-04-06T09:49:11.999Z</time></trkpt><trkpt lat="37.14920127635589" lon="15.043763876706004"><ele>205.0</ele><time>2026-04-06T09:49:12.999Z</time></trkpt><trkpt lat="37.149260071194114" lon="15.043684275624063"><ele>204.0</ele><time>2026-04-06T09:49:13.999Z</time></trkpt><trkpt lat="37.149321677564444" lon="15.043600059623424"><ele>204.0</ele><time>2026-04-06T09:49:14.999Z</time></trkpt><trkpt lat="37.14938460997382" lon="15.043505356571142"><ele>204.0</ele><time>2026-04-06T09:49:15.999Z</time></trkpt><trkpt lat="37.1494365275859" lon="15.043418530784166"><ele>204.0</ele><time>2026-04-06T09:49:16.999Z</time></trkpt><trkpt lat="37.149479932879416" lon="15.0433219209162"><ele>204.0</ele><time>2026-04-06T09:49:17.999Z</time></trkpt><trkpt lat="37.14951569835543" lon="15.043229220723227"><ele>204.0</ele><time>2026-04-06T09:49:18.999Z</time></trkpt><trkpt lat="37.14954337069806" lon="15.043144557962052"><ele>204.0</ele><time>2026-04-06T09:49:19.999Z</time></trkpt><trkpt lat="37.149566380073516" lon="15.043065229558676"><ele>204.39999999999998</ele><time>2026-04-06T09:49:20.999Z</time></trkpt><trkpt lat="37.149592754243685" lon="15.042943689207625"><ele>204.8</ele><time>2026-04-06T09:49:22.999Z</time></trkpt><trkpt lat="37.14956092156896" lon="15.042813893866793"><ele>205.2</ele><time>2026-04-06T09:49:24.999Z</time></trkpt><trkpt lat="37.14948706870307" lon="15.042664153085378"><ele>205.60000000000002</ele><time>2026-04-06T09:49:26.999Z</time></trkpt><trkpt lat="37.149450606047054" lon="15.042587369533436"><ele>206.0</ele><time>2026-04-06T09:49:27.999Z</time></trkpt><trkpt lat="37.14941947708845" lon="15.042502148683413"><ele>208.0</ele><time>2026-04-06T09:49:28.999Z</time></trkpt><trkpt lat="37.14941370348398" lon="15.042415405387313"><ele>210.0</ele><time>2026-04-06T09:49:29.999Z</time></trkpt><trkpt lat="37.14945014553418" lon="15.042282637634052"><ele>212.00000000000003</ele><time>2026-04-06T09:49:31.999Z</time></trkpt><trkpt lat="37.149467104376946" lon="15.042168229502007"><ele>214.0</ele><time>2026-04-06T09:49:33.999Z</time></trkpt><trkpt lat="37.149515160111996" lon="15.042071615993686"><ele>216.0</ele><time>2026-04-06T09:49:35.999Z</time></trkpt><trkpt lat="37.14957334894336" lon="15.041959150486047"><ele>216.0</ele><time>2026-04-06T09:49:37.999Z</time></trkpt><trkpt lat="37.14960668186069" lon="15.041884893985088"><ele>216.0</ele><time>2026-04-06T09:49:38.999Z</time></trkpt><trkpt lat="37.149639617264405" lon="15.0418075755241"><ele>216.0</ele><time>2026-04-06T09:49:39.999Z</time></trkpt><trkpt lat="37.14967021955443" lon="15.041730359988147"><ele>216.0</ele><time>2026-04-06T09:49:40.999Z</time></trkpt><trkpt lat="37.14969468575091" lon="15.041644711359561"><ele>216.0</ele><time>2026-04-06T09:49:41.999Z</time></trkpt><trkpt lat="37.149710455892425" lon="15.041547918227778"><ele>216.0</ele><time>2026-04-06T09:49:42.999Z</time></trkpt><trkpt lat="37.14971838585792" lon="15.041448015052898"><ele>216.0</ele><time>2026-04-06T09:49:43.999Z</time></trkpt><trkpt lat="37.14973082440565" lon="15.041350804265129"><ele>217.0</ele><time>2026-04-06T09:49:44.999Z</time></trkpt><trkpt lat="37.149753983061764" lon="15.041257633430197"><ele>218.0</ele><time>2026-04-06T09:49:45.999Z</time></trkpt><trkpt lat="37.149783129136026" lon="15.041168329035079"><ele>219.0</ele><time>2026-04-06T09:49:46.999Z</time></trkpt><trkpt lat="37.14981374336447" lon="15.041078282151755"><ele>220.0</ele><time>2026-04-06T09:49:47.999Z</time></trkpt><trkpt lat="37.14984217539649" lon="15.040991522570916"><ele>221.0</ele><time>2026-04-06T09:49:48.999Z</time></trkpt><trkpt lat="37.14986728184129" lon="15.040904804842587"><ele>222.0</ele><time>2026-04-06T09:49:49.999Z</time></trkpt><trkpt lat="37.14988693699765" lon="15.040819953059872"><ele>222.28571428571428</ele><time>2026-04-06T09:49:50.999Z</time></trkpt><trkpt lat="37.14990240957158" lon="15.040730492545066"><ele>222.57142857142858</ele><time>2026-04-06T09:49:51.999Z</time></trkpt><trkpt lat="37.14991447974314" lon="15.040643666603382"><ele>222.85714285714286</ele><time>2026-04-06T09:49:52.999Z</time></trkpt><trkpt lat="37.149924863023976" lon="15.040557912150344"><ele>223.14285714285714</ele><time>2026-04-06T09:49:53.999Z</time></trkpt><trkpt lat="37.14993476548313" lon="15.040472090825943"><ele>223.42857142857144</ele><time>2026-04-06T09:49:54.999Z</time></trkpt><trkpt lat="37.149945753531945" lon="15.040386087508223"><ele>223.71428571428572</ele><time>2026-04-06T09:49:55.999Z</time></trkpt><trkpt lat="37.14995733997774" lon="15.040301900244284"><ele>224.0</ele><time>2026-04-06T09:49:56.999Z</time></trkpt><trkpt lat="37.149968877968725" lon="15.04021806476603"><ele>224.0</ele><time>2026-04-06T09:49:57.999Z</time></trkpt><trkpt lat="37.14998031108314" lon="15.040134991228777"><ele>224.0</ele><time>2026-04-06T09:49:58.999Z</time></trkpt><trkpt lat="37.14999168840297" lon="15.04005232309612"><ele>224.0</ele><time>2026-04-06T09:49:59.999Z</time></trkpt><trkpt lat="37.15000246824358" lon="15.039973996270295"><ele>224.0</ele><time>2026-04-06T09:50:00.999Z</time></trkpt><trkpt lat="37.14997525697557" lon="15.039887749425136"><ele>224.0</ele><time>2026-04-06T09:50:01.999Z</time></trkpt><trkpt lat="37.1499705353063" lon="15.03980442441234"><ele>224.0</ele><time>2026-04-06T09:50:02.999Z</time></trkpt><trkpt lat="37.149960947527596" lon="15.039720443173909"><ele>224.0</ele><time>2026-04-06T09:50:03.999Z</time></trkpt><trkpt lat="37.14994658902322" lon="15.03956697153857"><ele>224.16666666666669</ele><time>2026-04-06T09:50:05.999Z</time></trkpt><trkpt lat="37.14994093128639" lon="15.039426467470141"><ele>224.33333333333334</ele><time>2026-04-06T09:50:07.999Z</time></trkpt><trkpt lat="37.14994969345562" lon="15.039269731959884"><ele>224.5</ele><time>2026-04-06T09:50:09.999Z</time></trkpt><trkpt lat="37.14995520137842" lon="15.039184763446126"><ele>224.66666666666669</ele><time>2026-04-06T09:50:10.999Z</time></trkpt><trkpt lat="37.14995410284515" lon="15.039099119773105"><ele>224.83333333333334</ele><time>2026-04-06T09:50:11.999Z</time></trkpt><trkpt lat="37.14994958543827" lon="15.03901535366044"><ele>225.0</ele><time>2026-04-06T09:50:12.999Z</time></trkpt><trkpt lat="37.14993874835106" lon="15.038931500136725"><ele>225.0</ele><time>2026-04-06T09:50:13.999Z</time></trkpt><trkpt lat="37.14992885462742" lon="15.038851524024984"><ele>225.0</ele><time>2026-04-06T09:50:14.999Z</time></trkpt><trkpt lat="37.14992078186905" lon="15.038700143494072"><ele>225.0</ele><time>2026-04-06T09:50:16.999Z</time></trkpt><trkpt lat="37.14993428212628" lon="15.03853774736562"><ele>225.0</ele><time>2026-04-06T09:50:18.999Z</time></trkpt><trkpt lat="37.15000402515812" lon="15.038396004577583"><ele>225.0</ele><time>2026-04-06T09:50:20.999Z</time></trkpt><trkpt lat="37.15005703678803" lon="15.038266680861147"><ele>224.2</ele><time>2026-04-06T09:50:22.999Z</time></trkpt><trkpt lat="37.15009658256726" lon="15.038119337812487"><ele>223.4</ele><time>2026-04-06T09:50:24.999Z</time></trkpt><trkpt lat="37.15011143985608" lon="15.037980795783543"><ele>222.60000000000002</ele><time>2026-04-06T09:50:26.999Z</time></trkpt><trkpt lat="37.15008311976937" lon="15.037839576191109"><ele>221.8</ele><time>2026-04-06T09:50:28.999Z</time></trkpt><trkpt lat="37.15012026582366" lon="15.03773087043228"><ele>221.0</ele><time>2026-04-06T09:50:30.999Z</time></trkpt><trkpt lat="37.15016263753099" lon="15.037672040830996"><ele>221.00000000000003</ele><time>2026-04-06T09:50:31.999Z</time></trkpt><trkpt lat="37.15021777378036" lon="15.037616343236047"><ele>221.0</ele><time>2026-04-06T09:50:32.999Z</time></trkpt><trkpt lat="37.15027976699316" lon="15.037562547557377"><ele>221.0</ele><time>2026-04-06T09:50:33.999Z</time></trkpt><trkpt lat="37.15033620716939" lon="15.037510025357696"><ele>221.0</ele><time>2026-04-06T09:50:34.999Z</time></trkpt><trkpt lat="37.150388308400345" lon="15.037453277256688"><ele>221.0</ele><time>2026-04-06T09:50:35.999Z</time></trkpt><trkpt lat="37.150439262749394" lon="15.037395926309435"><ele>221.00000000000003</ele><time>2026-04-06T09:50:36.999Z</time></trkpt><trkpt lat="37.15049106744254" lon="15.037338845245538"><ele>221.0</ele><time>2026-04-06T09:50:37.999Z</time></trkpt><trkpt lat="37.15054425331137" lon="15.037281929043901"><ele>222.71428571428572</ele><time>2026-04-06T09:50:38.999Z</time></trkpt><trkpt lat="37.150597836326064" lon="15.0372219060219"><ele>224.42857142857144</ele><time>2026-04-06T09:50:39.999Z</time></trkpt><trkpt lat="37.15064993194515" lon="15.037157718343954"><ele>226.14285714285717</ele><time>2026-04-06T09:50:40.999Z</time></trkpt><trkpt lat="37.150701854102444" lon="15.037093470523999"><ele>227.85714285714286</ele><time>2026-04-06T09:50:41.999Z</time></trkpt><trkpt lat="37.15075151809637" lon="15.037030892895647"><ele>229.57142857142856</ele><time>2026-04-06T09:50:42.999Z</time></trkpt><trkpt lat="37.150800177096464" lon="15.036966098728673"><ele>231.2857142857143</ele><time>2026-04-06T09:50:43.999Z</time></trkpt><trkpt lat="37.15084439071626" lon="15.036903224252688"><ele>233.0</ele><time>2026-04-06T09:50:44.999Z</time></trkpt><trkpt lat="37.150885598563136" lon="15.036841807942603"><ele>233.00000000000003</ele><time>2026-04-06T09:50:45.999Z</time></trkpt><trkpt lat="37.15096831783888" lon="15.036722445317729"><ele>233.0</ele><time>2026-04-06T09:50:47.999Z</time></trkpt><trkpt lat="37.15101604740794" lon="15.036666081972509"><ele>233.0</ele><time>2026-04-06T09:50:48.999Z</time></trkpt><trkpt lat="37.15106431320705" lon="15.03660537891438"><ele>233.0</ele><time>2026-04-06T09:50:49.999Z</time></trkpt><trkpt lat="37.15112192266179" lon="15.03650523977544"><ele>233.00000000000003</ele><time>2026-04-06T09:50:51.999Z</time></trkpt><trkpt lat="37.15120292890769" lon="15.03648241132721"><ele>233.0</ele><time>2026-04-06T09:50:54.999Z</time></trkpt><trkpt lat="37.151224356203876" lon="15.036569096441573"><ele>233.0</ele><time>2026-04-06T09:50:56.999Z</time></trkpt><trkpt lat="37.15119600561951" lon="15.036694904228636"><ele>233.0</ele><time>2026-04-06T09:50:58.999Z</time></trkpt><trkpt lat="37.151237075840974" lon="15.036822013129735"><ele>233.0</ele><time>2026-04-06T09:51:00.999Z</time></trkpt><trkpt lat="37.151329976882415" lon="15.036887687968983"><ele>233.0</ele><time>2026-04-06T09:51:02.999Z</time></trkpt><trkpt lat="37.151441867719264" lon="15.036893022773128"><ele>233.0</ele><time>2026-04-06T09:51:04.999Z</time></trkpt><trkpt lat="37.15155005024345" lon="15.036874481954914"><ele>233.00000000000003</ele><time>2026-04-06T09:51:06.999Z</time></trkpt><trkpt lat="37.151610180275576" lon="15.036838803888761"><ele>233.0</ele><time>2026-04-06T09:51:08.999Z</time></trkpt><trkpt lat="37.151607187376094" lon="15.036731789841332"><ele>233.0</ele><time>2026-04-06T09:51:11.999Z</time></trkpt><trkpt lat="37.151526436460195" lon="15.036712287977114"><ele>233.0</ele><time>2026-04-06T09:51:13.999Z</time></trkpt><trkpt lat="37.151457525755625" lon="15.036691131051537"><ele>233.00000000000003</ele><time>2026-04-06T09:51:15.999Z</time></trkpt><trkpt lat="37.15141613400543" lon="15.036599408508543"><ele>233.0</ele><time>2026-04-06T09:51:17.999Z</time></trkpt><trkpt lat="37.1514729232619" lon="15.036516513394002"><ele>235.0</ele><time>2026-04-06T09:51:19.999Z</time></trkpt><trkpt lat="37.1515185937979" lon="15.036423157082014"><ele>237.0</ele><time>2026-04-06T09:51:21.999Z</time></trkpt><trkpt lat="37.15156824914855" lon="15.036327384765794"><ele>239.0</ele><time>2026-04-06T09:51:23.999Z</time></trkpt><trkpt lat="37.151612126523496" lon="15.036206424029597"><ele>241.0</ele><time>2026-04-06T09:51:25.999Z</time></trkpt><trkpt lat="37.151611140921986" lon="15.036061064200041"><ele>243.0</ele><time>2026-04-06T09:51:27.999Z</time></trkpt><trkpt lat="37.151571178787364" lon="15.03592466461332"><ele>245.0</ele><time>2026-04-06T09:51:29.999Z</time></trkpt><trkpt lat="37.15151315732141" lon="15.035795204270865"><ele>247.0</ele><time>2026-04-06T09:51:31.999Z</time></trkpt><trkpt lat="37.151478815016084" lon="15.035653734775565"><ele>249.0</ele><time>2026-04-06T09:51:33.999Z</time></trkpt><trkpt lat="37.15149964299428" lon="15.035573103971103"><ele>251.0</ele><time>2026-04-06T09:51:34.999Z</time></trkpt><trkpt lat="37.15147199828908" lon="15.035431565532203"><ele>253.0</ele><time>2026-04-06T09:51:36.999Z</time></trkpt><trkpt lat="37.151444964643986" lon="15.035289634029324"><ele>253.0</ele><time>2026-04-06T09:51:38.999Z</time></trkpt><trkpt lat="37.151418465895865" lon="15.035144804293855"><ele>253.0</ele><time>2026-04-06T09:51:40.999Z</time></trkpt><trkpt lat="37.15139275387515" lon="15.034995907940637"><ele>253.0</ele><time>2026-04-06T09:51:42.999Z</time></trkpt><trkpt lat="37.15138069549921" lon="15.034915232316893"><ele>253.0</ele><time>2026-04-06T09:51:43.999Z</time></trkpt><trkpt lat="37.151357165250076" lon="15.034757805022885"><ele>253.0</ele><time>2026-04-06T09:51:45.999Z</time></trkpt><trkpt lat="37.15134503120332" lon="15.03467662298012"><ele>253.71428571428575</ele><time>2026-04-06T09:51:46.999Z</time></trkpt><trkpt lat="37.15133517199866" lon="15.034593356787434"><ele>254.42857142857144</ele><time>2026-04-06T09:51:47.999Z</time></trkpt><trkpt lat="37.15132619346165" lon="15.034509900553564"><ele>255.14285714285714</ele><time>2026-04-06T09:51:48.999Z</time></trkpt><trkpt lat="37.15131814421224" lon="15.034424944731793"><ele>255.85714285714286</ele><time>2026-04-06T09:51:49.999Z</time></trkpt><trkpt lat="37.15131164289232" lon="15.034338666824693"><ele>256.57142857142856</ele><time>2026-04-06T09:51:50.999Z</time></trkpt><trkpt lat="37.15130752969782" lon="15.034253674741763"><ele>257.2857142857143</ele><time>2026-04-06T09:51:51.999Z</time></trkpt><trkpt lat="37.15130733216714" lon="15.034167626981494"><ele>258.0</ele><time>2026-04-06T09:51:52.999Z</time></trkpt><trkpt lat="37.151310109652314" lon="15.03407456802753"><ele>258.6666666666667</ele><time>2026-04-06T09:51:53.999Z</time></trkpt><trkpt lat="37.15131932019946" lon="15.033973639289991"><ele>259.3333333333333</ele><time>2026-04-06T09:51:54.999Z</time></trkpt><trkpt lat="37.15133103113317" lon="15.033874202873395"><ele>260.0</ele><time>2026-04-06T09:51:55.999Z</time></trkpt><trkpt lat="37.151345506051335" lon="15.033773529092135"><ele>260.66666666666663</ele><time>2026-04-06T09:51:56.999Z</time></trkpt><trkpt lat="37.15136145183959" lon="15.033669161008289"><ele>261.3333333333333</ele><time>2026-04-06T09:51:57.999Z</time></trkpt><trkpt lat="37.15137495540575" lon="15.033571696772045"><ele>262.0</ele><time>2026-04-06T09:51:58.999Z</time></trkpt><trkpt lat="37.15139122471189" lon="15.03348780832587"><ele>262.0</ele><time>2026-04-06T09:51:59.999Z</time></trkpt><trkpt lat="37.151412833961295" lon="15.033403578732838"><ele>262.0</ele><time>2026-04-06T09:52:00.999Z</time></trkpt><trkpt lat="37.15143413253232" lon="15.033318104674997"><ele>262.0</ele><time>2026-04-06T09:52:01.999Z</time></trkpt><trkpt lat="37.151453466168114" lon="15.033225566126983"><ele>262.0</ele><time>2026-04-06T09:52:02.999Z</time></trkpt><trkpt lat="37.151461577743625" lon="15.03312696368783"><ele>262.0</ele><time>2026-04-06T09:52:03.999Z</time></trkpt><trkpt lat="37.15145422310511" lon="15.033031607080648"><ele>262.0</ele><time>2026-04-06T09:52:04.999Z</time></trkpt><trkpt lat="37.151435628967185" lon="15.032933646530301"><ele>264.16666666666663</ele><time>2026-04-06T09:52:05.999Z</time></trkpt><trkpt lat="37.151415342334666" lon="15.032839843136072"><ele>266.3333333333333</ele><time>2026-04-06T09:52:06.999Z</time></trkpt><trkpt lat="37.15139582535173" lon="15.032743666502613"><ele>268.5</ele><time>2026-04-06T09:52:07.999Z</time></trkpt><trkpt lat="37.15138142543404" lon="15.032649565011022"><ele>270.6666666666667</ele><time>2026-04-06T09:52:08.999Z</time></trkpt><trkpt lat="37.15136721500729" lon="15.032551457093634"><ele>272.83333333333337</ele><time>2026-04-06T09:52:09.999Z</time></trkpt><trkpt lat="37.15135307561832" lon="15.032453839599077"><ele>275.0</ele><time>2026-04-06T09:52:10.999Z</time></trkpt><trkpt lat="37.15134287197218" lon="15.032358354216374"><ele>276.6666666666667</ele><time>2026-04-06T09:52:11.999Z</time></trkpt><trkpt lat="37.151338698335614" lon="15.032260625119449"><ele>278.33333333333337</ele><time>2026-04-06T09:52:12.999Z</time></trkpt><trkpt lat="37.15134115592353" lon="15.0321644797899"><ele>280.0</ele><time>2026-04-06T09:52:13.999Z</time></trkpt><trkpt lat="37.15134878487478" lon="15.032068170361693"><ele>281.6666666666667</ele><time>2026-04-06T09:52:14.999Z</time></trkpt><trkpt lat="37.15135691287056" lon="15.031974108080565"><ele>283.3333333333333</ele><time>2026-04-06T09:52:15.999Z</time></trkpt><trkpt lat="37.15136706100287" lon="15.031882872557878"><ele>285.0</ele><time>2026-04-06T09:52:16.999Z</time></trkpt><trkpt lat="37.151378157000565" lon="15.031797217793116"><ele>285.0</ele><time>2026-04-06T09:52:17.999Z</time></trkpt><trkpt lat="37.1514037655635" lon="15.031665693204666"><ele>285.0</ele><time>2026-04-06T09:52:19.999Z</time></trkpt><trkpt lat="37.15142890519857" lon="15.031584390700361"><ele>285.0</ele><time>2026-04-06T09:52:21.999Z</time></trkpt><trkpt lat="37.15152646896064" lon="15.031526432121009"><ele>285.0</ele><time>2026-04-06T09:52:24.999Z</time></trkpt><trkpt lat="37.151591717545195" lon="15.03153741469977"><ele>285.0</ele><time>2026-04-06T09:52:25.999Z</time></trkpt><trkpt lat="37.15166502419328" lon="15.031543547267807"><ele>285.0</ele><time>2026-04-06T09:52:26.999Z</time></trkpt><trkpt lat="37.15172998594414" lon="15.031545383500342"><ele>284.4</ele><time>2026-04-06T09:52:27.999Z</time></trkpt><trkpt lat="37.15185159796968" lon="15.031541581582946"><ele>283.8</ele><time>2026-04-06T09:52:29.999Z</time></trkpt><trkpt lat="37.1519667329659" lon="15.031534398693312"><ele>283.2</ele><time>2026-04-06T09:52:31.999Z</time></trkpt><trkpt lat="37.15207301090424" lon="15.031509042985492"><ele>282.6</ele><time>2026-04-06T09:52:33.999Z</time></trkpt><trkpt lat="37.15217634566691" lon="15.03149186663118"><ele>282.0</ele><time>2026-04-06T09:52:35.999Z</time></trkpt><trkpt lat="37.15227798109221" lon="15.031457631594062"><ele>285.6</ele><time>2026-04-06T09:52:37.999Z</time></trkpt><trkpt lat="37.15237327601508" lon="15.031418111272728"><ele>289.2</ele><time>2026-04-06T09:52:39.999Z</time></trkpt><trkpt lat="37.152465713888404" lon="15.031374789914535"><ele>292.8</ele><time>2026-04-06T09:52:41.999Z</time></trkpt><trkpt lat="37.1525659975333" lon="15.031320748366225"><ele>296.4</ele><time>2026-04-06T09:52:43.999Z</time></trkpt><trkpt lat="37.152667828813925" lon="15.031259107968623"><ele>300.0</ele><time>2026-04-06T09:52:45.999Z</time></trkpt><trkpt lat="37.152768029571384" lon="15.031180943280146"><ele>300.0</ele><time>2026-04-06T09:52:47.999Z</time></trkpt><trkpt lat="37.15286838600242" lon="15.031085042417867"><ele>300.0</ele><time>2026-04-06T09:52:49.999Z</time></trkpt><trkpt lat="37.15295463091807" lon="15.030970452510566"><ele>300.0</ele><time>2026-04-06T09:52:51.999Z</time></trkpt><trkpt lat="37.15302311090066" lon="15.030830083988812"><ele>300.0</ele><time>2026-04-06T09:52:53.999Z</time></trkpt><trkpt lat="37.15304924323271" lon="15.030750939658722"><ele>297.85714285714283</ele><time>2026-04-06T09:52:54.999Z</time></trkpt><trkpt lat="37.15307100992395" lon="15.030672239702673"><ele>295.7142857142857</ele><time>2026-04-06T09:52:55.999Z</time></trkpt><trkpt lat="37.153091099420124" lon="15.030594568282334"><ele>293.57142857142856</ele><time>2026-04-06T09:52:56.999Z</time></trkpt><trkpt lat="37.15311098054851" lon="15.030517702460045"><ele>291.42857142857144</ele><time>2026-04-06T09:52:57.999Z</time></trkpt><trkpt lat="37.15313129174831" lon="15.030439543357593"><ele>289.2857142857143</ele><time>2026-04-06T09:52:58.999Z</time></trkpt><trkpt lat="37.15315176675341" lon="15.030361654500178"><ele>287.1428571428571</ele><time>2026-04-06T09:52:59.999Z</time></trkpt><trkpt lat="37.153172555327046" lon="15.030280779971832"><ele>285.0</ele><time>2026-04-06T09:53:00.999Z</time></trkpt><trkpt lat="37.15319257137496" lon="15.030201874841826"><ele>291.2857142857143</ele><time>2026-04-06T09:53:01.999Z</time></trkpt><trkpt lat="37.153212969218146" lon="15.030122688738874"><ele>297.57142857142856</ele><time>2026-04-06T09:53:02.999Z</time></trkpt><trkpt lat="37.15323405443559" lon="15.030042602996806"><ele>303.8571428571429</ele><time>2026-04-06T09:53:03.999Z</time></trkpt><trkpt lat="37.1532543489456" lon="15.029967450946932"><ele>310.1428571428571</ele><time>2026-04-06T09:53:04.999Z</time></trkpt><trkpt lat="37.15327497222074" lon="15.02989149814035"><ele>316.42857142857144</ele><time>2026-04-06T09:53:05.999Z</time></trkpt><trkpt lat="37.15329576180307" lon="15.0298149328854"><ele>322.7142857142857</ele><time>2026-04-06T09:53:06.999Z</time></trkpt><trkpt lat="37.1533372607914" lon="15.029672164447513"><ele>329.0</ele><time>2026-04-06T09:53:08.999Z</time></trkpt><trkpt lat="37.15338386035966" lon="15.029553054758459"><ele>329.0</ele><time>2026-04-06T09:53:10.999Z</time></trkpt><trkpt lat="37.153450259723144" lon="15.029554888463917"><ele>329.0</ele><time>2026-04-06T09:53:15.999Z</time></trkpt><trkpt lat="37.15346807495418" lon="15.029630652442439"><ele>329.0</ele><time>2026-04-06T09:53:17.999Z</time></trkpt><trkpt lat="37.15355202604654" lon="15.029638899655408"><ele>329.0</ele><time>2026-04-06T09:53:21.999Z</time></trkpt><trkpt lat="37.15357707279743" lon="15.029533039798379"><ele>329.0</ele><time>2026-04-06T09:53:22.999Z</time></trkpt><trkpt lat="37.15357199626843" lon="15.029407665477832"><ele>329.0</ele><time>2026-04-06T09:53:23.999Z</time></trkpt><trkpt lat="37.15354975538878" lon="15.029284220026057"><ele>329.0</ele><time>2026-04-06T09:53:24.999Z</time></trkpt><trkpt lat="37.15352960928593" lon="15.029182829799867"><ele>329.0</ele><time>2026-04-06T09:53:25.999Z</time></trkpt><trkpt lat="37.153505576836636" lon="15.02903117242933"><ele>329.0</ele><time>2026-04-06T09:53:27.999Z</time></trkpt><trkpt lat="37.15351606773468" lon="15.02892734025641"><ele>329.0</ele><time>2026-04-06T09:53:29.999Z</time></trkpt><trkpt lat="37.15355340583317" lon="15.028996137528312"><ele>329.0</ele><time>2026-04-06T09:53:34.999Z</time></trkpt><trkpt lat="37.15356760947164" lon="15.02911883904373"><ele>329.0</ele><time>2026-04-06T09:53:36.999Z</time></trkpt><trkpt lat="37.15361280973405" lon="15.029193679787795"><ele>329.0</ele><time>2026-04-06T09:53:38.999Z</time></trkpt><trkpt lat="37.153690014217474" lon="15.02919731658409"><ele>329.0</ele><time>2026-04-06T09:53:41.999Z</time></trkpt><trkpt lat="37.153679893207666" lon="15.029010103892197"><ele>329.0</ele><time>2026-04-06T09:53:43.999Z</time></trkpt><trkpt lat="37.153657497593315" lon="15.02892156244765"><ele>329.0</ele><time>2026-04-06T09:53:44.999Z</time></trkpt><trkpt lat="37.15363692211127" lon="15.028836698599594"><ele>329.0</ele><time>2026-04-06T09:53:45.999Z</time></trkpt><trkpt lat="37.15362256045759" lon="15.028752935381956"><ele>329.33333333333337</ele><time>2026-04-06T09:53:46.999Z</time></trkpt><trkpt lat="37.15358334734075" lon="15.02868457356308"><ele>329.6666666666667</ele><time>2026-04-06T09:53:47.999Z</time></trkpt><trkpt lat="37.153581651503956" lon="15.028592513692296"><ele>330.0</ele><time>2026-04-06T09:53:48.999Z</time></trkpt><trkpt lat="37.153589064246844" lon="15.02849396870655"><ele>330.3333333333333</ele><time>2026-04-06T09:53:49.999Z</time></trkpt><trkpt lat="37.15359625417073" lon="15.028394879234776"><ele>330.66666666666663</ele><time>2026-04-06T09:53:50.999Z</time></trkpt><trkpt lat="37.15362731772491" lon="15.028301541468672"><ele>331.0</ele><time>2026-04-06T09:53:51.999Z</time></trkpt><trkpt lat="37.15363326974438" lon="15.028210836021454"><ele>331.0</ele><time>2026-04-06T09:53:52.999Z</time></trkpt><trkpt lat="37.15363847614044" lon="15.02813149329599"><ele>331.0</ele><time>2026-04-06T09:53:53.999Z</time></trkpt><trkpt lat="37.15362773316291" lon="15.028047723018865"><ele>331.0</ele><time>2026-04-06T09:53:54.999Z</time></trkpt><trkpt lat="37.153651298203016" lon="15.027972195267687"><ele>331.0</ele><time>2026-04-06T09:53:55.999Z</time></trkpt><trkpt lat="37.153630795597856" lon="15.027891215687681"><ele>331.0</ele><time>2026-04-06T09:53:56.999Z</time></trkpt><trkpt lat="37.153629905733865" lon="15.027779875577089"><ele>331.0</ele><time>2026-04-06T09:53:58.999Z</time></trkpt><trkpt lat="37.15371733405651" lon="15.027796689639995"><ele>331.0</ele><time>2026-04-06T09:54:00.999Z</time></trkpt><trkpt lat="37.153681877163685" lon="15.027874559683992"><ele>331.0</ele><time>2026-04-06T09:54:18.999Z</time></trkpt><trkpt lat="37.15382482010595" lon="15.02780970807448"><ele>331.0</ele><time>2026-04-06T09:54:23.999Z</time></trkpt><trkpt lat="37.15386173030062" lon="15.027732796040983"><ele>331.0</ele><time>2026-04-06T09:54:24.999Z</time></trkpt><trkpt lat="37.15390696340472" lon="15.027646561176063"><ele>331.0</ele><time>2026-04-06T09:54:25.999Z</time></trkpt><trkpt lat="37.15394701330051" lon="15.027570207860537"><ele>331.0</ele><time>2026-04-06T09:54:26.999Z</time></trkpt><trkpt lat="37.15398552396598" lon="15.027500131430717"><ele>331.0</ele><time>2026-04-06T09:54:27.999Z</time></trkpt><trkpt lat="37.154022705974754" lon="15.02743347094957"><ele>336.66666666666663</ele><time>2026-04-06T09:54:28.999Z</time></trkpt><trkpt lat="37.154084002087956" lon="15.027324836523723"><ele>342.3333333333333</ele><time>2026-04-06T09:54:30.999Z</time></trkpt><trkpt lat="37.1541355466369" lon="15.02724693785931"><ele>348.0</ele><time>2026-04-06T09:54:32.999Z</time></trkpt><trkpt lat="37.15419495842061" lon="15.027203294242005"><ele>353.6666666666667</ele><time>2026-04-06T09:54:35.999Z</time></trkpt><trkpt lat="37.15421007214761" lon="15.027317080764648"><ele>359.33333333333337</ele><time>2026-04-06T09:54:39.999Z</time></trkpt><trkpt lat="37.15420297565649" lon="15.027406647540305"><ele>365.0</ele><time>2026-04-06T09:54:40.999Z</time></trkpt><trkpt lat="37.15419167026954" lon="15.027504453691138"><ele>365.5</ele><time>2026-04-06T09:54:41.999Z</time></trkpt><trkpt lat="37.154186381174505" lon="15.02759515472968"><ele>366.0</ele><time>2026-04-06T09:54:42.999Z</time></trkpt><trkpt lat="37.15417874608103" lon="15.027680635038218"><ele>366.5</ele><time>2026-04-06T09:54:43.999Z</time></trkpt><trkpt lat="37.154171448704744" lon="15.02776073385934"><ele>367.0</ele><time>2026-04-06T09:54:44.999Z</time></trkpt><trkpt lat="37.1541656492107" lon="15.027907604211133"><ele>367.5</ele><time>2026-04-06T09:54:46.999Z</time></trkpt><trkpt lat="37.154154021504915" lon="15.028027875925234"><ele>368.0</ele><time>2026-04-06T09:54:48.999Z</time></trkpt><trkpt lat="37.15415406918893" lon="15.028113089368661"><ele>368.0</ele><time>2026-04-06T09:54:50.999Z</time></trkpt><trkpt lat="37.15419222738301" lon="15.028207631618256"><ele>368.0</ele><time>2026-04-06T09:54:52.999Z</time></trkpt><trkpt lat="37.15425821806767" lon="15.028046967464032"><ele>368.0</ele><time>2026-04-06T09:54:54.999Z</time></trkpt><trkpt lat="37.15428151506759" lon="15.027965415297265"><ele>368.0</ele><time>2026-04-06T09:54:56.999Z</time></trkpt><trkpt lat="37.154286018928545" lon="15.028116422439858"><ele>368.0</ele><time>2026-04-06T09:55:00.999Z</time></trkpt><trkpt lat="37.15428899885015" lon="15.028217192140897"><ele>369.2</ele><time>2026-04-06T09:55:01.999Z</time></trkpt><trkpt lat="37.15428691208571" lon="15.028311997282374"><ele>370.4</ele><time>2026-04-06T09:55:02.999Z</time></trkpt><trkpt lat="37.154283145360125" lon="15.028397371551016"><ele>371.59999999999997</ele><time>2026-04-06T09:55:03.999Z</time></trkpt><trkpt lat="37.154276905070134" lon="15.028594176515961"><ele>372.79999999999995</ele><time>2026-04-06T09:55:05.999Z</time></trkpt><trkpt lat="37.15427483939404" lon="15.028694721856061"><ele>374.0</ele><time>2026-04-06T09:55:06.999Z</time></trkpt><trkpt lat="37.154278856120555" lon="15.028787490177743"><ele>374.0</ele><time>2026-04-06T09:55:07.999Z</time></trkpt><trkpt lat="37.15427635274464" lon="15.028871698399529"><ele>374.0</ele><time>2026-04-06T09:55:08.999Z</time></trkpt><trkpt lat="37.15426599342712" lon="15.028954105096473"><ele>374.0</ele><time>2026-04-06T09:55:09.999Z</time></trkpt><trkpt lat="37.154260250708056" lon="15.029033484866405"><ele>374.0</ele><time>2026-04-06T09:55:10.999Z</time></trkpt><trkpt lat="37.15426377642656" lon="15.029167059999336"><ele>374.0</ele><time>2026-04-06T09:55:12.999Z</time></trkpt><trkpt lat="37.154272170108335" lon="15.029305128564216"><ele>374.0</ele><time>2026-04-06T09:55:14.999Z</time></trkpt><trkpt lat="37.15427634263154" lon="15.029456741902342"><ele>374.33333333333337</ele><time>2026-04-06T09:55:16.999Z</time></trkpt><trkpt lat="37.154279107014105" lon="15.029539997395242"><ele>374.6666666666667</ele><time>2026-04-06T09:55:17.999Z</time></trkpt><trkpt lat="37.15426964449939" lon="15.029682782472104"><ele>375.0</ele><time>2026-04-06T09:55:19.999Z</time></trkpt><trkpt lat="37.15422504796978" lon="15.029830304745724"><ele>375.3333333333333</ele><time>2026-04-06T09:55:21.999Z</time></trkpt><trkpt lat="37.15419150904484" lon="15.02990057656353"><ele>375.66666666666663</ele><time>2026-04-06T09:55:22.999Z</time></trkpt><trkpt lat="37.154161910870435" lon="15.029980321720505"><ele>376.0</ele><time>2026-04-06T09:55:23.999Z</time></trkpt><trkpt lat="37.1541292305033" lon="15.030061986623425"><ele>377.66666666666663</ele><time>2026-04-06T09:55:24.999Z</time></trkpt><trkpt lat="37.154096435351256" lon="15.030146347522901"><ele>379.3333333333333</ele><time>2026-04-06T09:55:25.999Z</time></trkpt><trkpt lat="37.15406676200559" lon="15.030231623464717"><ele>381.0</ele><time>2026-04-06T09:55:26.999Z</time></trkpt><trkpt lat="37.15403893774768" lon="15.03031192068625"><ele>382.66666666666663</ele><time>2026-04-06T09:55:27.999Z</time></trkpt><trkpt lat="37.15399577707241" lon="15.030443609186236"><ele>384.3333333333333</ele><time>2026-04-06T09:55:29.999Z</time></trkpt><trkpt lat="37.15399615294735" lon="15.03055637062294"><ele>386.0</ele><time>2026-04-06T09:55:31.999Z</time></trkpt><trkpt lat="37.15408982380678" lon="15.03064990990838"><ele>385.99999999999994</ele><time>2026-04-06T09:55:33.999Z</time></trkpt><trkpt lat="37.15416311604076" lon="15.030689455910071"><ele>386.0</ele><time>2026-04-06T09:55:35.999Z</time></trkpt><trkpt lat="37.154146506334094" lon="15.030809342280058"><ele>386.0</ele><time>2026-04-06T09:55:37.999Z</time></trkpt><trkpt lat="37.15414459402169" lon="15.030909900802172"><ele>386.0</ele><time>2026-04-06T09:55:39.999Z</time></trkpt><trkpt lat="37.154145665115706" lon="15.03082449983847"><ele>385.99999999999994</ele><time>2026-04-06T09:56:11.999Z</time></trkpt><trkpt lat="37.15415076611075" lon="15.03070344222037"><ele>386.0</ele><time>2026-04-06T09:56:13.999Z</time></trkpt><trkpt lat="37.15416199190775" lon="15.030618299857766"><ele>386.0</ele><time>2026-04-06T09:56:14.999Z</time></trkpt><trkpt lat="37.15417552235464" lon="15.030508779924796"><ele>386.0</ele><time>2026-04-06T09:56:16.999Z</time></trkpt><trkpt lat="37.15418815976798" lon="15.030406488507353"><ele>386.0</ele><time>2026-04-06T09:56:18.999Z</time></trkpt><trkpt lat="37.15420240692814" lon="15.030291167263032"><ele>386.0</ele><time>2026-04-06T09:56:20.999Z</time></trkpt><trkpt lat="37.154719674138896" lon="15.030337806923464"><ele>386.0</ele><time>2026-04-06T09:56:21.999Z</time></trkpt><trkpt lat="37.15474709856519" lon="15.030208922499948"><ele>386.0</ele><time>2026-04-06T09:56:23.999Z</time></trkpt><trkpt lat="37.15477887350947" lon="15.03007690539018"><ele>386.0</ele><time>2026-04-06T09:56:25.999Z</time></trkpt><trkpt lat="37.15481481141677" lon="15.029932334296552"><ele>386.0</ele><time>2026-04-06T09:56:27.999Z</time></trkpt><trkpt lat="37.15483703993873" lon="15.029825923153556"><ele>386.0</ele><time>2026-04-06T09:56:29.999Z</time></trkpt><trkpt lat="37.15484914404128" lon="15.029727653274092"><ele>384.3333333333333</ele><time>2026-04-06T09:57:02.999Z</time></trkpt><trkpt lat="37.154862987150146" lon="15.02963762211933"><ele>382.66666666666663</ele><time>2026-04-06T09:57:04.999Z</time></trkpt><trkpt lat="37.15488130338686" lon="15.029526036264825"><ele>381.0</ele><time>2026-04-06T09:57:06.999Z</time></trkpt><trkpt lat="37.15489784250822" lon="15.029428713793198"><ele>379.3333333333333</ele><time>2026-04-06T09:57:08.999Z</time></trkpt><trkpt lat="37.15492073393584" lon="15.029312742070253"><ele>377.66666666666663</ele><time>2026-04-06T09:57:10.999Z</time></trkpt><trkpt lat="37.15493896589783" lon="15.029197944839309"><ele>376.0</ele><time>2026-04-06T09:57:12.999Z</time></trkpt><trkpt lat="37.15495943146788" lon="15.029079464929387"><ele>383.75</ele><time>2026-04-06T09:57:14.999Z</time></trkpt><trkpt lat="37.15498040326777" lon="15.028955388120963"><ele>391.5</ele><time>2026-04-06T09:57:16.999Z</time></trkpt><trkpt lat="37.155012682129616" lon="15.02881402817311"><ele>399.25</ele><time>2026-04-06T09:57:18.999Z</time></trkpt><trkpt lat="37.15503899088528" lon="15.028670429939053"><ele>407.0</ele><time>2026-04-06T09:57:20.999Z</time></trkpt><trkpt lat="37.155058371842415" lon="15.028527792970053"><ele>407.0</ele><time>2026-04-06T09:57:22.999Z</time></trkpt><trkpt lat="37.1550608941982" lon="15.028388241081924"><ele>407.0</ele><time>2026-04-06T09:57:24.999Z</time></trkpt><trkpt lat="37.15505905272933" lon="15.028252297668873"><ele>407.0</ele><time>2026-04-06T09:57:26.999Z</time></trkpt><trkpt lat="37.155058354126346" lon="15.028126051027373"><ele>407.0</ele><time>2026-04-06T09:57:28.999Z</time></trkpt><trkpt lat="37.15502663859826" lon="15.028048181376306"><ele>407.0</ele><time>2026-04-06T09:57:30.999Z</time></trkpt><trkpt lat="37.15496326385126" lon="15.02801195014454"><ele>406.99999999999994</ele><time>2026-04-06T09:57:32.999Z</time></trkpt><trkpt lat="37.154886159480995" lon="15.027942382609789"><ele>407.0</ele><time>2026-04-06T09:57:35.999Z</time></trkpt><trkpt lat="37.15484095029618" lon="15.027847418596044"><ele>407.0</ele><time>2026-04-06T09:57:38.999Z</time></trkpt><trkpt lat="37.15488777038048" lon="15.027791387843886"><ele>407.0</ele><time>2026-04-06T09:58:19.999Z</time></trkpt><trkpt lat="37.15493895496515" lon="15.027864648510576"><ele>406.99999999999994</ele><time>2026-04-06T09:58:21.999Z</time></trkpt><trkpt lat="37.154870132219756" lon="15.027919459756077"><ele>407.0</ele><time>2026-04-06T09:58:22.999Z</time></trkpt><trkpt lat="37.15488354643065" lon="15.028022781551394"><ele>407.0</ele><time>2026-04-06T09:58:25.999Z</time></trkpt><trkpt lat="37.15505145169576" lon="15.028104008224899"><ele>407.0</ele><time>2026-04-06T09:58:28.999Z</time></trkpt><trkpt lat="37.15510924820779" lon="15.028169935505558"><ele>407.0</ele><time>2026-04-06T09:58:30.999Z</time></trkpt><trkpt lat="37.15517728659064" lon="15.02817226177443"><ele>407.0</ele><time>2026-04-06T09:58:32.999Z</time></trkpt><trkpt lat="37.155249925948965" lon="15.028196443959995"><ele>407.0</ele><time>2026-04-06T09:58:35Z</time></trkpt><trkpt lat="37.155298120645" lon="15.02824742016984"><ele>406.99999999999994</ele><time>2026-04-06T09:58:38Z</time></trkpt><trkpt lat="37.15531321960893" lon="15.028365788227994"><ele>407.0</ele><time>2026-04-06T09:58:40Z</time></trkpt><trkpt lat="37.15536444676455" lon="15.02844560088712"><ele>407.0</ele><time>2026-04-06T09:58:42Z</time></trkpt><trkpt lat="37.15541193761078" lon="15.028498784302352"><ele>407.0</ele><time>2026-04-06T09:58:45Z</time></trkpt><trkpt lat="37.15546897117942" lon="15.028555772531055"><ele>406.99999999999994</ele><time>2026-04-06T09:58:47Z</time></trkpt><trkpt lat="37.15545680894991" lon="15.028688851229628"><ele>407.0</ele><time>2026-04-06T09:58:49Z</time></trkpt><trkpt lat="37.155457750502656" lon="15.028792151655573"><ele>406.99999999999994</ele><time>2026-04-06T09:58:51Z</time></trkpt><trkpt lat="37.155477110430574" lon="15.028879184172526"><ele>407.0</ele><time>2026-04-06T09:58:53Z</time></trkpt><trkpt lat="37.15546318431995" lon="15.028971318037732"><ele>407.0</ele><time>2026-04-06T09:59:11Z</time></trkpt><trkpt lat="37.1554650315033" lon="15.0290821444881"><ele>407.0</ele><time>2026-04-06T09:59:13Z</time></trkpt><trkpt lat="37.15546693284209" lon="15.029232612653786"><ele>406.99999999999994</ele><time>2026-04-06T09:59:15Z</time></trkpt><trkpt lat="37.155463636653664" lon="15.029323690867061"><ele>407.0</ele><time>2026-04-06T09:59:16Z</time></trkpt><trkpt lat="37.15545384122853" lon="15.02940179609551"><ele>406.99999999999994</ele><time>2026-04-06T09:59:17Z</time></trkpt><trkpt lat="37.15544569760255" lon="15.029487420155196"><ele>407.0</ele><time>2026-04-06T09:59:18Z</time></trkpt><trkpt lat="37.15543558960411" lon="15.02957630777083"><ele>407.0</ele><time>2026-04-06T09:59:19Z</time></trkpt><trkpt lat="37.155426020728285" lon="15.029668828857128"><ele>407.0</ele><time>2026-04-06T09:59:20Z</time></trkpt><trkpt lat="37.15540687276097" lon="15.029799927832974"><ele>406.99999999999994</ele><time>2026-04-06T09:59:22Z</time></trkpt><trkpt lat="37.15538206811502" lon="15.029883083529874"><ele>407.0</ele><time>2026-04-06T09:59:25Z</time></trkpt><trkpt lat="37.15556697070986" lon="15.029933249945433"><ele>406.99999999999994</ele><time>2026-04-06T09:59:28Z</time></trkpt><trkpt lat="37.15563245150503" lon="15.029942525229442"><ele>407.0</ele><time>2026-04-06T09:59:29Z</time></trkpt><trkpt lat="37.15569507069562" lon="15.02995139443398"><ele>407.0</ele><time>2026-04-06T09:59:30Z</time></trkpt><trkpt lat="37.15580867319456" lon="15.029967485340622"><ele>407.0</ele><time>2026-04-06T09:59:32Z</time></trkpt><trkpt lat="37.15588504597357" lon="15.029978302951774"><ele>406.99999999999994</ele><time>2026-04-06T09:59:34Z</time></trkpt><trkpt lat="37.1559582824225" lon="15.029988010003454"><ele>407.0</ele><time>2026-04-06T09:59:37Z</time></trkpt><trkpt lat="37.155936985942866" lon="15.03024403019133"><ele>408.99999999999994</ele><time>2026-04-06T09:59:43Z</time></trkpt><trkpt lat="37.1559346489988" lon="15.030347076092502"><ele>411.0</ele><time>2026-04-06T09:59:46Z</time></trkpt><trkpt lat="37.15596415804276" lon="15.030424307855398"><ele>413.0</ele><time>2026-04-06T09:59:50Z</time></trkpt><trkpt lat="37.156071882233086" lon="15.030404640635245"><ele>415.0</ele><time>2026-04-06T09:59:53Z</time></trkpt><trkpt lat="37.1561520358671" lon="15.030390839548584"><ele>416.99999999999994</ele><time>2026-04-06T09:59:55Z</time></trkpt><trkpt lat="37.15622600314106" lon="15.030320055987806"><ele>419.0</ele><time>2026-04-06T09:59:58Z</time></trkpt><trkpt lat="37.156271521005436" lon="15.030170681974383"><ele>418.99999999999994</ele><time>2026-04-06T10:00:00Z</time></trkpt><trkpt lat="37.15628861995787" lon="15.030087362324009"><ele>419.0</ele><time>2026-04-06T10:00:01Z</time></trkpt><trkpt lat="37.15629618071817" lon="15.02998666402946"><ele>419.0</ele><time>2026-04-06T10:00:02Z</time></trkpt><trkpt lat="37.15630765799908" lon="15.029880205477374"><ele>419.0</ele><time>2026-04-06T10:00:03Z</time></trkpt><trkpt lat="37.15632812538144" lon="15.029791326366482"><ele>418.99999999999994</ele><time>2026-04-06T10:00:04Z</time></trkpt><trkpt lat="37.156338835268684" lon="15.029711872979227"><ele>419.0</ele><time>2026-04-06T10:00:05Z</time></trkpt><trkpt lat="37.15636857140552" lon="15.029572100792693"><ele>419.79999999999995</ele><time>2026-04-06T10:00:07Z</time></trkpt><trkpt lat="37.15640448781609" lon="15.029450580524315"><ele>420.59999999999997</ele><time>2026-04-06T10:00:09Z</time></trkpt><trkpt lat="37.15647207422682" lon="15.029372205205824"><ele>421.4</ele><time>2026-04-06T10:00:11Z</time></trkpt><trkpt lat="37.15658257489606" lon="15.029362372543776"><ele>422.2</ele><time>2026-04-06T10:00:13Z</time></trkpt><trkpt lat="37.15665612134616" lon="15.029389456878635"><ele>423.0</ele><time>2026-04-06T10:00:14Z</time></trkpt><trkpt lat="37.156730745858454" lon="15.029427531695893"><ele>423.4285714285714</ele><time>2026-04-06T10:00:15Z</time></trkpt><trkpt lat="37.15679268756951" lon="15.029468973877192"><ele>423.8571428571429</ele><time>2026-04-06T10:00:16Z</time></trkpt><trkpt lat="37.156847538340976" lon="15.02951449957849"><ele>424.2857142857143</ele><time>2026-04-06T10:00:17Z</time></trkpt><trkpt lat="37.15689999114024" lon="15.029571548467583"><ele>424.71428571428567</ele><time>2026-04-06T10:00:18Z</time></trkpt><trkpt lat="37.156953302100824" lon="15.029630494265614"><ele>425.1428571428571</ele><time>2026-04-06T10:00:19Z</time></trkpt><trkpt lat="37.157012756377696" lon="15.029684152930049"><ele>425.57142857142856</ele><time>2026-04-06T10:00:20Z</time></trkpt><trkpt lat="37.15708017846369" lon="15.029732846333733"><ele>426.0</ele><time>2026-04-06T10:00:20.999Z</time></trkpt><trkpt lat="37.15714941949942" lon="15.0297701724411"><ele>426.0</ele><time>2026-04-06T10:00:21.999Z</time></trkpt><trkpt lat="37.15722037345772" lon="15.029796693338461"><ele>426.0</ele><time>2026-04-06T10:00:22.999Z</time></trkpt><trkpt lat="37.15728584026137" lon="15.029816493371136"><ele>426.0</ele><time>2026-04-06T10:00:23.999Z</time></trkpt><trkpt lat="37.15740784912474" lon="15.029848266231681"><ele>426.0</ele><time>2026-04-06T10:00:25.999Z</time></trkpt><trkpt lat="37.1574782576663" lon="15.029863478878676"><ele>426.0</ele><time>2026-04-06T10:00:26.999Z</time></trkpt><trkpt lat="37.157558208864984" lon="15.029869560008112"><ele>426.0</ele><time>2026-04-06T10:00:27.999Z</time></trkpt><trkpt lat="37.15764325329517" lon="15.029876920379225"><ele>427.1666666666667</ele><time>2026-04-06T10:00:28.999Z</time></trkpt><trkpt lat="37.157729055630014" lon="15.029872557116486"><ele>428.33333333333337</ele><time>2026-04-06T10:00:29.999Z</time></trkpt><trkpt lat="37.157817356235" lon="15.029856632394372"><ele>429.5</ele><time>2026-04-06T10:00:30.999Z</time></trkpt><trkpt lat="37.15790626067825" lon="15.029835976815523"><ele>430.6666666666667</ele><time>2026-04-06T10:00:31.999Z</time></trkpt><trkpt lat="37.15799373844489" lon="15.029818224757076"><ele>431.83333333333337</ele><time>2026-04-06T10:00:32.999Z</time></trkpt><trkpt lat="37.15807957620849" lon="15.029806923836988"><ele>433.0</ele><time>2026-04-06T10:00:33.999Z</time></trkpt><trkpt lat="37.15816137082405" lon="15.02979887380623"><ele>434.00000000000006</ele><time>2026-04-06T10:00:34.999Z</time></trkpt><trkpt lat="37.158240168097166" lon="15.029787778388922"><ele>435.0</ele><time>2026-04-06T10:00:35.999Z</time></trkpt><trkpt lat="37.15831652347533" lon="15.029770562745638"><ele>436.0</ele><time>2026-04-06T10:00:36.999Z</time></trkpt><trkpt lat="37.158396695176535" lon="15.029751358384178"><ele>437.0</ele><time>2026-04-06T10:00:37.999Z</time></trkpt><trkpt lat="37.158478071718434" lon="15.029734458272229"><ele>438.00000000000006</ele><time>2026-04-06T10:00:38.999Z</time></trkpt><trkpt lat="37.158559921111795" lon="15.029712978680148"><ele>439.0</ele><time>2026-04-06T10:00:39.999Z</time></trkpt><trkpt lat="37.1586378695175" lon="15.029697078412553"><ele>439.0</ele><time>2026-04-06T10:00:40.999Z</time></trkpt><trkpt lat="37.15870903508751" lon="15.029680478109164"><ele>439.0</ele><time>2026-04-06T10:00:41.999Z</time></trkpt><trkpt lat="37.15878036518752" lon="15.029701955645685"><ele>439.0</ele><time>2026-04-06T10:00:43Z</time></trkpt><trkpt lat="37.15884619740775" lon="15.029703117710024"><ele>439.0</ele><time>2026-04-06T10:00:44Z</time></trkpt><trkpt lat="37.15891478264398" lon="15.029691602090267"><ele>439.0</ele><time>2026-04-06T10:00:45Z</time></trkpt><trkpt lat="37.15897764308573" lon="15.029710017479706"><ele>439.0</ele><time>2026-04-06T10:00:46Z</time></trkpt><trkpt lat="37.15904375554645" lon="15.029746060741292"><ele>439.0</ele><time>2026-04-06T10:00:47Z</time></trkpt><trkpt lat="37.1591082218576" lon="15.029810235391693"><ele>439.1666666666667</ele><time>2026-04-06T10:00:48Z</time></trkpt><trkpt lat="37.15919394902049" lon="15.02985966795464"><ele>439.33333333333337</ele><time>2026-04-06T10:00:49Z</time></trkpt><trkpt lat="37.15926975622605" lon="15.029923126437282"><ele>439.5</ele><time>2026-04-06T10:00:50Z</time></trkpt><trkpt lat="37.15933929020227" lon="15.029984344916125"><ele>439.66666666666663</ele><time>2026-04-06T10:00:51Z</time></trkpt><trkpt lat="37.15940994762696" lon="15.03004446896662"><ele>439.8333333333333</ele><time>2026-04-06T10:00:52Z</time></trkpt><trkpt lat="37.159481817298186" lon="15.030103638715534"><ele>440.0</ele><time>2026-04-06T10:00:53Z</time></trkpt><trkpt lat="37.1595540964632" lon="15.030163587604061"><ele>440.8333333333333</ele><time>2026-04-06T10:00:54Z</time></trkpt><trkpt lat="37.15962968503252" lon="15.030218132431271"><ele>441.66666666666663</ele><time>2026-04-06T10:00:55Z</time></trkpt><trkpt lat="37.15970627483169" lon="15.030273303327775"><ele>442.5</ele><time>2026-04-06T10:00:56Z</time></trkpt><trkpt lat="37.15978166925482" lon="15.030329885699976"><ele>443.33333333333337</ele><time>2026-04-06T10:00:57Z</time></trkpt><trkpt lat="37.15985597683891" lon="15.030388232605839"><ele>444.1666666666667</ele><time>2026-04-06T10:00:58Z</time></trkpt><trkpt lat="37.159927511952745" lon="15.030439069470699"><ele>445.0</ele><time>2026-04-06T10:00:59Z</time></trkpt><trkpt lat="37.159999268020016" lon="15.030471014611928"><ele>445.00000000000006</ele><time>2026-04-06T10:01:00Z</time></trkpt><trkpt lat="37.16007637828282" lon="15.03046487588956"><ele>445.0</ele><time>2026-04-06T10:01:01Z</time></trkpt><trkpt lat="37.16016654167131" lon="15.030436689762467"><ele>445.0</ele><time>2026-04-06T10:01:02Z</time></trkpt><trkpt lat="37.16025511675132" lon="15.030419314234795"><ele>445.0</ele><time>2026-04-06T10:01:03Z</time></trkpt><trkpt lat="37.16034024678719" lon="15.030409745135378"><ele>445.00000000000006</ele><time>2026-04-06T10:01:04Z</time></trkpt><trkpt lat="37.16042402911545" lon="15.0303962804128"><ele>445.0</ele><time>2026-04-06T10:01:05Z</time></trkpt><trkpt lat="37.16051103639454" lon="15.0303635093888"><ele>445.0</ele><time>2026-04-06T10:01:06Z</time></trkpt><trkpt lat="37.16059479272648" lon="15.030313149575127"><ele>445.0</ele><time>2026-04-06T10:01:07Z</time></trkpt><trkpt lat="37.16067386210765" lon="15.030247501096508"><ele>445.0</ele><time>2026-04-06T10:01:08Z</time></trkpt><trkpt lat="37.16075412180369" lon="15.030174517404205"><ele>445.0</ele><time>2026-04-06T10:01:09Z</time></trkpt><trkpt lat="37.16083365212161" lon="15.030108746035216"><ele>445.0</ele><time>2026-04-06T10:01:10Z</time></trkpt><trkpt lat="37.16090579514724" lon="15.030046727094145"><ele>445.83333333333337</ele><time>2026-04-06T10:01:11Z</time></trkpt><trkpt lat="37.16098251639051" lon="15.029987252250342"><ele>446.6666666666667</ele><time>2026-04-06T10:01:12Z</time></trkpt><trkpt lat="37.16105884410198" lon="15.029930749546576"><ele>447.5</ele><time>2026-04-06T10:01:13Z</time></trkpt><trkpt lat="37.161136785239776" lon="15.029894088583744"><ele>448.33333333333337</ele><time>2026-04-06T10:01:14Z</time></trkpt><trkpt lat="37.1612141963987" lon="15.029862448944646"><ele>449.1666666666667</ele><time>2026-04-06T10:01:15Z</time></trkpt><trkpt lat="37.16128407487575" lon="15.02983324553403"><ele>450.0</ele><time>2026-04-06T10:01:16Z</time></trkpt><trkpt lat="37.16134749491493" lon="15.029817159939133"><ele>450.8333333333333</ele><time>2026-04-06T10:01:17Z</time></trkpt><trkpt lat="37.16146872127742" lon="15.029824422317999"><ele>451.66666666666663</ele><time>2026-04-06T10:01:19Z</time></trkpt><trkpt lat="37.16153676363253" lon="15.029840750391253"><ele>452.5</ele><time>2026-04-06T10:01:20Z</time></trkpt><trkpt lat="37.161608731296866" lon="15.029858363980422"><ele>453.3333333333333</ele><time>2026-04-06T10:01:21Z</time></trkpt><trkpt lat="37.16168455646524" lon="15.029867845318055"><ele>454.16666666666663</ele><time>2026-04-06T10:01:22Z</time></trkpt><trkpt lat="37.161758854743326" lon="15.029882528967459"><ele>455.0</ele><time>2026-04-06T10:01:23Z</time></trkpt><trkpt lat="37.16183295103608" lon="15.029898201741439"><ele>455.0</ele><time>2026-04-06T10:01:24Z</time></trkpt><trkpt lat="37.16190500377885" lon="15.02990480642148"><ele>455.0</ele><time>2026-04-06T10:01:25.001Z</time></trkpt><trkpt lat="37.1619745818048" lon="15.029911176962173"><ele>455.0</ele><time>2026-04-06T10:01:26.001Z</time></trkpt><trkpt lat="37.162042664311976" lon="15.029920098026816"><ele>455.0</ele><time>2026-04-06T10:01:27.001Z</time></trkpt><trkpt lat="37.16210947065511" lon="15.029931711995193"><ele>455.0</ele><time>2026-04-06T10:01:28.001Z</time></trkpt><trkpt lat="37.16217539847082" lon="15.029941770661983"><ele>455.0</ele><time>2026-04-06T10:01:29.001Z</time></trkpt><trkpt lat="37.16223942164995" lon="15.029949249139857"><ele>455.0</ele><time>2026-04-06T10:01:30.001Z</time></trkpt><trkpt lat="37.162343628635206" lon="15.029962338361093"><ele>454.6</ele><time>2026-04-06T10:01:32.001Z</time></trkpt><trkpt lat="37.16241054181683" lon="15.029978406991374"><ele>454.2</ele><time>2026-04-06T10:01:34.001Z</time></trkpt><trkpt lat="37.162490566386715" lon="15.03000043159834"><ele>453.79999999999995</ele><time>2026-04-06T10:01:36.001Z</time></trkpt><trkpt lat="37.16259615499934" lon="15.030029522471681"><ele>453.4</ele><time>2026-04-06T10:01:38.001Z</time></trkpt><trkpt lat="37.16271696759684" lon="15.030101431863223"><ele>453.0</ele><time>2026-04-06T10:01:40.001Z</time></trkpt><trkpt lat="37.16277599591505" lon="15.030169225439678"><ele>453.0</ele><time>2026-04-06T10:01:41.001Z</time></trkpt><trkpt lat="37.16283013922065" lon="15.030223820832814"><ele>453.0</ele><time>2026-04-06T10:01:42.001Z</time></trkpt><trkpt lat="37.162893470002516" lon="15.030272528350865"><ele>453.0</ele><time>2026-04-06T10:01:43.001Z</time></trkpt><trkpt lat="37.16295974169244" lon="15.030325298614041"><ele>453.0</ele><time>2026-04-06T10:01:44.001Z</time></trkpt><trkpt lat="37.16301719732127" lon="15.030387778792397"><ele>453.0</ele><time>2026-04-06T10:01:45.001Z</time></trkpt><trkpt lat="37.16306630262137" lon="15.030444511498715"><ele>453.0</ele><time>2026-04-06T10:01:46.001Z</time></trkpt><trkpt lat="37.16315921634627" lon="15.03053411445212"><ele>452.59999999999997</ele><time>2026-04-06T10:01:48.001Z</time></trkpt><trkpt lat="37.163246416325386" lon="15.030627203410427"><ele>452.19999999999993</ele><time>2026-04-06T10:01:50.001Z</time></trkpt><trkpt lat="37.163339112371524" lon="15.030746204843505"><ele>451.8</ele><time>2026-04-06T10:01:52.001Z</time></trkpt><trkpt lat="37.16340460771182" lon="15.03080044069644"><ele>451.4</ele><time>2026-04-06T10:01:53.001Z</time></trkpt><trkpt lat="37.16347447162763" lon="15.030848440746269"><ele>451.0</ele><time>2026-04-06T10:01:54.001Z</time></trkpt><trkpt lat="37.16355285568513" lon="15.030881259272697"><ele>451.50000000000006</ele><time>2026-04-06T10:01:55.001Z</time></trkpt><trkpt lat="37.16362994270631" lon="15.030933070124238"><ele>452.0</ele><time>2026-04-06T10:01:56.001Z</time></trkpt><trkpt lat="37.163713278264055" lon="15.030959890339094"><ele>452.5</ele><time>2026-04-06T10:01:57.001Z</time></trkpt><trkpt lat="37.163805527163646" lon="15.030959657891621"><ele>453.0</ele><time>2026-04-06T10:01:58.001Z</time></trkpt><trkpt lat="37.16389715997285" lon="15.030969971069732"><ele>453.50000000000006</ele><time>2026-04-06T10:01:59.001Z</time></trkpt><trkpt lat="37.16398242805013" lon="15.030978244708727"><ele>454.0</ele><time>2026-04-06T10:02:00.001Z</time></trkpt><trkpt lat="37.16406836248625" lon="15.030986561598029"><ele>454.00000000000006</ele><time>2026-04-06T10:02:01.001Z</time></trkpt><trkpt lat="37.16414740285187" lon="15.030995793196874"><ele>454.0</ele><time>2026-04-06T10:02:02.001Z</time></trkpt><trkpt lat="37.164225579875996" lon="15.031002658029267"><ele>454.0</ele><time>2026-04-06T10:02:03.001Z</time></trkpt><trkpt lat="37.164291265649716" lon="15.03100635953095"><ele>454.0</ele><time>2026-04-06T10:02:04.001Z</time></trkpt><trkpt lat="37.16436111959281" lon="15.031011633195035"><ele>454.00000000000006</ele><time>2026-04-06T10:02:05.001Z</time></trkpt><trkpt lat="37.16443850493412" lon="15.03103699338293"><ele>454.0</ele><time>2026-04-06T10:02:06.001Z</time></trkpt><trkpt lat="37.164517824284104" lon="15.031064526787581"><ele>454.00000000000006</ele><time>2026-04-06T10:02:07.001Z</time></trkpt><trkpt lat="37.16459599991627" lon="15.031100537230113"><ele>454.0</ele><time>2026-04-06T10:02:08.001Z</time></trkpt><trkpt lat="37.16467238477012" lon="15.031144366111954"><ele>454.0</ele><time>2026-04-06T10:02:09.001Z</time></trkpt><trkpt lat="37.16474666508917" lon="15.031194918069584"><ele>454.0</ele><time>2026-04-06T10:02:10.001Z</time></trkpt><trkpt lat="37.16481910170258" lon="15.031246033196515"><ele>454.00000000000006</ele><time>2026-04-06T10:02:11.001Z</time></trkpt><trkpt lat="37.16489244198493" lon="15.031298343231361"><ele>454.0</ele><time>2026-04-06T10:02:12.001Z</time></trkpt><trkpt lat="37.16497221957892" lon="15.031358339092355"><ele>454.4</ele><time>2026-04-06T10:02:13.001Z</time></trkpt><trkpt lat="37.16505494090937" lon="15.031423704467189"><ele>454.79999999999995</ele><time>2026-04-06T10:02:14.001Z</time></trkpt><trkpt lat="37.165138721364464" lon="15.031499451558378"><ele>455.20000000000005</ele><time>2026-04-06T10:02:15.001Z</time></trkpt><trkpt lat="37.16522734925986" lon="15.03157721473005"><ele>455.6</ele><time>2026-04-06T10:02:16.001Z</time></trkpt><trkpt lat="37.1653177184647" lon="15.031651887113071"><ele>456.0</ele><time>2026-04-06T10:02:17.001Z</time></trkpt><trkpt lat="37.165407051045726" lon="15.031728601554752"><ele>456.0</ele><time>2026-04-06T10:02:18.001Z</time></trkpt><trkpt lat="37.165497048241086" lon="15.03180638684657"><ele>456.0</ele><time>2026-04-06T10:02:19.001Z</time></trkpt><trkpt lat="37.16558601964274" lon="15.031882527733115"><ele>456.0</ele><time>2026-04-06T10:02:20.001Z</time></trkpt><trkpt lat="37.1656767363308" lon="15.031951199955346"><ele>456.0</ele><time>2026-04-06T10:02:21.001Z</time></trkpt><trkpt lat="37.16576779938782" lon="15.03201661227772"><ele>456.0</ele><time>2026-04-06T10:02:22.001Z</time></trkpt><trkpt lat="37.165857275912046" lon="15.032084591814577"><ele>453.4</ele><time>2026-04-06T10:02:23.001Z</time></trkpt><trkpt lat="37.16594699489588" lon="15.032146897621498"><ele>450.8</ele><time>2026-04-06T10:02:24.001Z</time></trkpt><trkpt lat="37.166040441684814" lon="15.03219638015281"><ele>448.19999999999993</ele><time>2026-04-06T10:02:25.001Z</time></trkpt><trkpt lat="37.166145278235206" lon="15.032227805886988"><ele>445.59999999999997</ele><time>2026-04-06T10:02:26Z</time></trkpt><trkpt lat="37.16625490694217" lon="15.032259127034383"><ele>443.0</ele><time>2026-04-06T10:02:27Z</time></trkpt><trkpt lat="37.16637066424516" lon="15.032231980248966"><ele>443.0</ele><time>2026-04-06T10:02:28Z</time></trkpt><trkpt lat="37.166471382573434" lon="15.032157071824512"><ele>443.0</ele><time>2026-04-06T10:02:29Z</time></trkpt><trkpt lat="37.166565788659476" lon="15.032076844834092"><ele>443.0</ele><time>2026-04-06T10:02:30Z</time></trkpt><trkpt lat="37.16665781324439" lon="15.031999635024981"><ele>443.0</ele><time>2026-04-06T10:02:31Z</time></trkpt><trkpt lat="37.166757935668016" lon="15.031928332919959"><ele>444.75</ele><time>2026-04-06T10:02:32Z</time></trkpt><trkpt lat="37.16686827094444" lon="15.03186281485926"><ele>446.5</ele><time>2026-04-06T10:02:33Z</time></trkpt><trkpt lat="37.16698419692658" lon="15.031805976851972"><ele>448.25</ele><time>2026-04-06T10:02:34Z</time></trkpt><trkpt lat="37.167104565923104" lon="15.031766934637785"><ele>450.0</ele><time>2026-04-06T10:02:35Z</time></trkpt><trkpt lat="37.16723285642439" lon="15.03173820017189"><ele>453.0</ele><time>2026-04-06T10:02:36Z</time></trkpt><trkpt lat="37.16736541177818" lon="15.031713637667696"><ele>456.0</ele><time>2026-04-06T10:02:37.001Z</time></trkpt><trkpt lat="37.167488688738" lon="15.031685365172757"><ele>459.0</ele><time>2026-04-06T10:02:38.001Z</time></trkpt><trkpt lat="37.167610612830785" lon="15.031656834004991"><ele>462.0</ele><time>2026-04-06T10:02:39.001Z</time></trkpt><trkpt lat="37.16773967854114" lon="15.031631563795127"><ele>462.5</ele><time>2026-04-06T10:02:40.001Z</time></trkpt><trkpt lat="37.16787169921978" lon="15.031605207219188"><ele>463.0</ele><time>2026-04-06T10:02:41.001Z</time></trkpt><trkpt lat="37.16800629064284" lon="15.031583144192284"><ele>463.5</ele><time>2026-04-06T10:02:42.001Z</time></trkpt><trkpt lat="37.16813980641317" lon="15.031552359695679"><ele>464.0</ele><time>2026-04-06T10:02:43.001Z</time></trkpt><trkpt lat="37.168264902726165" lon="15.031516080972466"><ele>465.75</ele><time>2026-04-06T10:02:44.001Z</time></trkpt><trkpt lat="37.16838975821291" lon="15.031465186295184"><ele>467.5</ele><time>2026-04-06T10:02:45.001Z</time></trkpt><trkpt lat="37.16851391075224" lon="15.031387177610236"><ele>469.25</ele><time>2026-04-06T10:02:46.001Z</time></trkpt><trkpt lat="37.16863211666868" lon="15.031285253318753"><ele>471.0</ele><time>2026-04-06T10:02:47.001Z</time></trkpt><trkpt lat="37.16874177150666" lon="15.031160962369453"><ele>471.0</ele><time>2026-04-06T10:02:48.001Z</time></trkpt><trkpt lat="37.168845399063464" lon="15.031023999501468"><ele>471.0</ele><time>2026-04-06T10:02:49.001Z</time></trkpt><trkpt lat="37.168944164088224" lon="15.03088045727028"><ele>471.0</ele><time>2026-04-06T10:02:50.001Z</time></trkpt><trkpt lat="37.16903432063872" lon="15.030739928592544"><ele>471.0</ele><time>2026-04-06T10:02:51.001Z</time></trkpt><trkpt lat="37.1691352530048" lon="15.030626144681198"><ele>472.25</ele><time>2026-04-06T10:02:52.001Z</time></trkpt><trkpt lat="37.16922055373561" lon="15.030501261307483"><ele>473.5</ele><time>2026-04-06T10:02:53.001Z</time></trkpt><trkpt lat="37.169302268681015" lon="15.030374751124068"><ele>474.75</ele><time>2026-04-06T10:02:54.001Z</time></trkpt><trkpt lat="37.16937970979112" lon="15.03024794492756"><ele>476.0</ele><time>2026-04-06T10:02:55.001Z</time></trkpt><trkpt lat="37.169457265500945" lon="15.030125291005957"><ele>476.0</ele><time>2026-04-06T10:02:56.001Z</time></trkpt><trkpt lat="37.16954363330747" lon="15.030012424724143"><ele>476.0</ele><time>2026-04-06T10:02:57.001Z</time></trkpt><trkpt lat="37.169629881883914" lon="15.029901191772677"><ele>476.0</ele><time>2026-04-06T10:02:58.001Z</time></trkpt><trkpt lat="37.16974114003664" lon="15.02982271685055"><ele>476.0</ele><time>2026-04-06T10:02:59.001Z</time></trkpt><trkpt lat="37.16987800848309" lon="15.02977633852474"><ele>474.66666666666663</ele><time>2026-04-06T10:03:00.001Z</time></trkpt><trkpt lat="37.170025458707734" lon="15.029722630018007"><ele>473.33333333333337</ele><time>2026-04-06T10:03:01.001Z</time></trkpt><trkpt lat="37.17018051910773" lon="15.029671146028196"><ele>472.0</ele><time>2026-04-06T10:03:02.001Z</time></trkpt><trkpt lat="37.170340623940355" lon="15.029616984274636"><ele>472.0</ele><time>2026-04-06T10:03:03.001Z</time></trkpt><trkpt lat="37.17050071724129" lon="15.029544273154547"><ele>472.0</ele><time>2026-04-06T10:03:04.001Z</time></trkpt><trkpt lat="37.17066810435705" lon="15.02948870598267"><ele>472.0</ele><time>2026-04-06T10:03:05.001Z</time></trkpt><trkpt lat="37.170835573476886" lon="15.029425957257958"><ele>473.0</ele><time>2026-04-06T10:03:06.001Z</time></trkpt><trkpt lat="37.17100905048571" lon="15.029384183950013"><ele>474.0</ele><time>2026-04-06T10:03:07.001Z</time></trkpt><trkpt lat="37.171181442318776" lon="15.0293256430657"><ele>475.0</ele><time>2026-04-06T10:03:08.001Z</time></trkpt><trkpt lat="37.17135478703661" lon="15.02926500644935"><ele>475.0</ele><time>2026-04-06T10:03:09.001Z</time></trkpt><trkpt lat="37.1715195131307" lon="15.029190310409364"><ele>475.0</ele><time>2026-04-06T10:03:10.001Z</time></trkpt><trkpt lat="37.17168427450006" lon="15.029134517950654"><ele>475.0</ele><time>2026-04-06T10:03:11.001Z</time></trkpt><trkpt lat="37.17184881507003" lon="15.029077649716521"><ele>477.33333333333337</ele><time>2026-04-06T10:03:12.001Z</time></trkpt><trkpt lat="37.17201525196414" lon="15.029018932511446"><ele>479.66666666666663</ele><time>2026-04-06T10:03:13.001Z</time></trkpt><trkpt lat="37.172181256552705" lon="15.028957838417401"><ele>482.0</ele><time>2026-04-06T10:03:14.001Z</time></trkpt><trkpt lat="37.17234439176091" lon="15.028895667416332"><ele>482.66666666666663</ele><time>2026-04-06T10:03:15.001Z</time></trkpt><trkpt lat="37.17250364801532" lon="15.028833654151615"><ele>483.33333333333337</ele><time>2026-04-06T10:03:16.001Z</time></trkpt><trkpt lat="37.172658091095705" lon="15.028774864544216"><ele>484.0</ele><time>2026-04-06T10:03:17.001Z</time></trkpt><trkpt lat="37.17281561267302" lon="15.028719809305864"><ele>484.0</ele><time>2026-04-06T10:03:18.001Z</time></trkpt><trkpt lat="37.172968731419665" lon="15.028668864514005"><ele>484.0</ele><time>2026-04-06T10:03:19.001Z</time></trkpt><trkpt lat="37.17311483960479" lon="15.028617462116106"><ele>484.0</ele><time>2026-04-06T10:03:20.001Z</time></trkpt><trkpt lat="37.17325953789403" lon="15.028563870611556"><ele>483.75</ele><time>2026-04-06T10:03:21.001Z</time></trkpt><trkpt lat="37.173397806562804" lon="15.028502531122655"><ele>483.5</ele><time>2026-04-06T10:03:22.001Z</time></trkpt><trkpt lat="37.1735211702568" lon="15.02842662383662"><ele>483.25</ele><time>2026-04-06T10:03:23.001Z</time></trkpt><trkpt lat="37.17364230804943" lon="15.028360663692215"><ele>483.0</ele><time>2026-04-06T10:03:24.001Z</time></trkpt><trkpt lat="37.173748094610524" lon="15.02827918335435"><ele>482.25</ele><time>2026-04-06T10:03:25.001Z</time></trkpt><trkpt lat="37.17384524350288" lon="15.028197930901651"><ele>481.5</ele><time>2026-04-06T10:03:26.001Z</time></trkpt><trkpt lat="37.17394315685594" lon="15.028107972787245"><ele>480.75</ele><time>2026-04-06T10:03:27.001Z</time></trkpt><trkpt lat="37.17404548144335" lon="15.028014833721933"><ele>480.0</ele><time>2026-04-06T10:03:28.001Z</time></trkpt><trkpt lat="37.17413918377422" lon="15.027921487411625"><ele>480.0</ele><time>2026-04-06T10:03:29.001Z</time></trkpt><trkpt lat="37.174227637939424" lon="15.027826850624777"><ele>480.0</ele><time>2026-04-06T10:03:30.001Z</time></trkpt><trkpt lat="37.174315888285776" lon="15.027723022952848"><ele>480.0</ele><time>2026-04-06T10:03:31.001Z</time></trkpt><trkpt lat="37.1744039670672" lon="15.027615301855286"><ele>480.0</ele><time>2026-04-06T10:03:32.001Z</time></trkpt><trkpt lat="37.17445912358719" lon="15.027455407131145"><ele>479.75</ele><time>2026-04-06T10:03:33.001Z</time></trkpt><trkpt lat="37.17448830598293" lon="15.027301128197873"><ele>479.5</ele><time>2026-04-06T10:03:34.001Z</time></trkpt><trkpt lat="37.1745244929119" lon="15.02715049351642"><ele>479.25</ele><time>2026-04-06T10:03:35.001Z</time></trkpt><trkpt lat="37.17453962890324" lon="15.026988638887692"><ele>479.0</ele><time>2026-04-06T10:03:36.001Z</time></trkpt><trkpt lat="37.17453593166194" lon="15.02681478045643"><ele>477.0</ele><time>2026-04-06T10:03:37.001Z</time></trkpt><trkpt lat="37.17451759765892" lon="15.026637601147637"><ele>475.0</ele><time>2026-04-06T10:03:38.001Z</time></trkpt><trkpt lat="37.1744906970247" lon="15.026456241494945"><ele>473.0</ele><time>2026-04-06T10:03:39.001Z</time></trkpt><trkpt lat="37.174452951983675" lon="15.026274800727442"><ele>471.0</ele><time>2026-04-06T10:03:40.001Z</time></trkpt><trkpt lat="37.174406760340865" lon="15.026093557889586"><ele>471.0</ele><time>2026-04-06T10:03:41.001Z</time></trkpt><trkpt lat="37.174352642727655" lon="15.02591057511723"><ele>471.0</ele><time>2026-04-06T10:03:42.001Z</time></trkpt><trkpt lat="37.174291584430605" lon="15.025734969050996"><ele>471.0</ele><time>2026-04-06T10:03:43.001Z</time></trkpt><trkpt lat="37.17422378970365" lon="15.025565604056032"><ele>468.5</ele><time>2026-04-06T10:03:44.001Z</time></trkpt><trkpt lat="37.17415691866407" lon="15.025404038216891"><ele>466.0</ele><time>2026-04-06T10:03:45.001Z</time></trkpt><trkpt lat="37.1740926415729" lon="15.025248863563789"><ele>463.5</ele><time>2026-04-06T10:03:46.001Z</time></trkpt><trkpt lat="37.17403334519602" lon="15.025101944469414"><ele>461.0</ele><time>2026-04-06T10:03:47.001Z</time></trkpt><trkpt lat="37.17398283176691" lon="15.024968197495559"><ele>465.0</ele><time>2026-04-06T10:03:48.001Z</time></trkpt><trkpt lat="37.173943976122025" lon="15.024846102284888"><ele>469.0</ele><time>2026-04-06T10:03:49.001Z</time></trkpt><trkpt lat="37.17392429517282" lon="15.024725785835813"><ele>473.0</ele><time>2026-04-06T10:03:50.001Z</time></trkpt><trkpt lat="37.173927091568984" lon="15.024609273710794"><ele>477.0</ele><time>2026-04-06T10:03:51.001Z</time></trkpt><trkpt lat="37.17395668915454" lon="15.024503412046053"><ele>481.0</ele><time>2026-04-06T10:03:52.001Z</time></trkpt><trkpt lat="37.174010875135444" lon="15.02442362260193"><ele>476.6</ele><time>2026-04-06T10:03:53.001Z</time></trkpt><trkpt lat="37.174083977708825" lon="15.024370050508976"><ele>472.20000000000005</ele><time>2026-04-06T10:03:54.001Z</time></trkpt><trkpt lat="37.17416683506399" lon="15.024345889838957"><ele>467.79999999999995</ele><time>2026-04-06T10:03:55.001Z</time></trkpt><trkpt lat="37.17426600600705" lon="15.024351575570988"><ele>463.4</ele><time>2026-04-06T10:03:56.001Z</time></trkpt><trkpt lat="37.17436308102413" lon="15.024383799949822"><ele>459.0</ele><time>2026-04-06T10:03:57.001Z</time></trkpt><trkpt lat="37.17444970305852" lon="15.024439914381675"><ele>459.0</ele><time>2026-04-06T10:03:58.001Z</time></trkpt><trkpt lat="37.17452832402409" lon="15.024524970642938"><ele>459.0</ele><time>2026-04-06T10:03:59.001Z</time></trkpt><trkpt lat="37.17459776849009" lon="15.024636577635153"><ele>459.0</ele><time>2026-04-06T10:04:00.001Z</time></trkpt><trkpt lat="37.174655186280766" lon="15.024771083797026"><ele>459.0</ele><time>2026-04-06T10:04:01.001Z</time></trkpt><trkpt lat="37.17469828360498" lon="15.02491467051257"><ele>459.5</ele><time>2026-04-06T10:04:02.001Z</time></trkpt><trkpt lat="37.17474598730288" lon="15.025070604318739"><ele>460.0</ele><time>2026-04-06T10:04:03.001Z</time></trkpt><trkpt lat="37.17479570425793" lon="15.025228365968326"><ele>460.5</ele><time>2026-04-06T10:04:04.001Z</time></trkpt><trkpt lat="37.17484817219919" lon="15.025381021333704"><ele>461.0</ele><time>2026-04-06T10:04:05.001Z</time></trkpt><trkpt lat="37.174899983198834" lon="15.025529260041667"><ele>458.25</ele><time>2026-04-06T10:04:06.001Z</time></trkpt><trkpt lat="37.174953540671005" lon="15.02567501023823"><ele>455.5</ele><time>2026-04-06T10:04:07.001Z</time></trkpt><trkpt lat="37.175006788712466" lon="15.025826918527803"><ele>452.75</ele><time>2026-04-06T10:04:08.001Z</time></trkpt><trkpt lat="37.17506668880828" lon="15.025978309749807"><ele>450.0</ele><time>2026-04-06T10:04:09.001Z</time></trkpt><trkpt lat="37.17513908708454" lon="15.026118649739276"><ele>450.0</ele><time>2026-04-06T10:04:10.001Z</time></trkpt><trkpt lat="37.175222557752015" lon="15.026244002181512"><ele>450.0</ele><time>2026-04-06T10:04:11.001Z</time></trkpt><trkpt lat="37.17531642770725" lon="15.026340677960313"><ele>450.0</ele><time>2026-04-06T10:04:12.001Z</time></trkpt><trkpt lat="37.175420847862156" lon="15.026412243572407"><ele>450.0</ele><time>2026-04-06T10:04:13.001Z</time></trkpt><trkpt lat="37.175535912141726" lon="15.0264436072577"><ele>450.0</ele><time>2026-04-06T10:04:14.001Z</time></trkpt><trkpt lat="37.175661448920366" lon="15.026432017177239"><ele>450.0</ele><time>2026-04-06T10:04:15.001Z</time></trkpt><trkpt lat="37.175800403985846" lon="15.026389758593387"><ele>450.0</ele><time>2026-04-06T10:04:16.001Z</time></trkpt><trkpt lat="37.175946206653975" lon="15.02633137780131"><ele>450.0</ele><time>2026-04-06T10:04:17.001Z</time></trkpt><trkpt lat="37.176099070519705" lon="15.02627471431944"><ele>446.33333333333337</ele><time>2026-04-06T10:04:18.001Z</time></trkpt><trkpt lat="37.17625256093963" lon="15.026222717739456"><ele>442.6666666666667</ele><time>2026-04-06T10:04:19.001Z</time></trkpt><trkpt lat="37.17641305662114" lon="15.026166107352422"><ele>439.0</ele><time>2026-04-06T10:04:20.001Z</time></trkpt><trkpt lat="37.17657519911381" lon="15.026106556387264"><ele>436.6666666666667</ele><time>2026-04-06T10:04:21.001Z</time></trkpt><trkpt lat="37.176735824174465" lon="15.02605019310399"><ele>434.33333333333337</ele><time>2026-04-06T10:04:22.001Z</time></trkpt><trkpt lat="37.176894121770204" lon="15.025995370480459"><ele>432.0</ele><time>2026-04-06T10:04:23.001Z</time></trkpt><trkpt lat="37.17705110315464" lon="15.025939668104144"><ele>432.0</ele><time>2026-04-06T10:04:24.001Z</time></trkpt><trkpt lat="37.17720943203916" lon="15.025882146578224"><ele>432.0</ele><time>2026-04-06T10:04:25.001Z</time></trkpt><trkpt lat="37.177371201352244" lon="15.02582101120439"><ele>432.0</ele><time>2026-04-06T10:04:26.001Z</time></trkpt><trkpt lat="37.177537055618394" lon="15.02575770803906"><ele>428.33333333333337</ele><time>2026-04-06T10:04:27.001Z</time></trkpt><trkpt lat="37.177709981328526" lon="15.025714040568985"><ele>424.6666666666667</ele><time>2026-04-06T10:04:28.001Z</time></trkpt><trkpt lat="37.177880635655164" lon="15.025653432447875"><ele>421.0</ele><time>2026-04-06T10:04:29.001Z</time></trkpt><trkpt lat="37.17804906036895" lon="15.025593691192299"><ele>421.0</ele><time>2026-04-06T10:04:30.001Z</time></trkpt><trkpt lat="37.17821203088758" lon="15.025535884574708"><ele>421.0</ele><time>2026-04-06T10:04:31.001Z</time></trkpt><trkpt lat="37.1783618839945" lon="15.025461202838896"><ele>421.0</ele><time>2026-04-06T10:04:32.001Z</time></trkpt><trkpt lat="37.17850760665813" lon="15.025411853200017"><ele>421.0</ele><time>2026-04-06T10:04:33.001Z</time></trkpt><trkpt lat="37.17864709971155" lon="15.025358678363865"><ele>421.0</ele><time>2026-04-06T10:04:34.001Z</time></trkpt><trkpt lat="37.17877983542507" lon="15.02528483231625"><ele>421.0</ele><time>2026-04-06T10:04:35.001Z</time></trkpt><trkpt lat="37.17890762644463" lon="15.02518334256837"><ele>421.0</ele><time>2026-04-06T10:04:36.001Z</time></trkpt><trkpt lat="37.179013688728475" lon="15.025066764739263"><ele>421.25</ele><time>2026-04-06T10:04:37.001Z</time></trkpt><trkpt lat="37.179105863579416" lon="15.024946704922701"><ele>421.5</ele><time>2026-04-06T10:04:38.001Z</time></trkpt><trkpt lat="37.1791923819186" lon="15.024832123697978"><ele>421.75</ele><time>2026-04-06T10:04:39.001Z</time></trkpt><trkpt lat="37.17928187668462" lon="15.02474086928626"><ele>422.0</ele><time>2026-04-06T10:04:40.001Z</time></trkpt><trkpt lat="37.17938348055647" lon="15.024668460988954"><ele>422.0</ele><time>2026-04-06T10:04:41.001Z</time></trkpt><trkpt lat="37.179502173535816" lon="15.024614825260489"><ele>422.0</ele><time>2026-04-06T10:04:42.001Z</time></trkpt><trkpt lat="37.179646465120655" lon="15.024602552181536"><ele>422.0</ele><time>2026-04-06T10:04:43.001Z</time></trkpt><trkpt lat="37.17978402628834" lon="15.024558748252016"><ele>422.0</ele><time>2026-04-06T10:04:44.001Z</time></trkpt><trkpt lat="37.1799140456104" lon="15.024507236833083"><ele>422.66666666666663</ele><time>2026-04-06T10:04:45.001Z</time></trkpt><trkpt lat="37.18005101130991" lon="15.024451109480987"><ele>423.33333333333337</ele><time>2026-04-06T10:04:46.001Z</time></trkpt><trkpt lat="37.180201700211626" lon="15.024396848333703"><ele>424.0</ele><time>2026-04-06T10:04:47.001Z</time></trkpt><trkpt lat="37.18036519075308" lon="15.024373422034415"><ele>424.0</ele><time>2026-04-06T10:04:48.001Z</time></trkpt><trkpt lat="37.180531113663044" lon="15.024367496288066"><ele>424.0</ele><time>2026-04-06T10:04:49.001Z</time></trkpt><trkpt lat="37.18070003598154" lon="15.024356578495334"><ele>424.0</ele><time>2026-04-06T10:04:50.001Z</time></trkpt><trkpt lat="37.18087974407379" lon="15.024352757884982"><ele>423.33333333333337</ele><time>2026-04-06T10:04:51.001Z</time></trkpt><trkpt lat="37.1810617632777" lon="15.024357455737672"><ele>422.66666666666663</ele><time>2026-04-06T10:04:52.001Z</time></trkpt><trkpt lat="37.181240596007626" lon="15.024363629139811"><ele>422.0</ele><time>2026-04-06T10:04:53.001Z</time></trkpt><trkpt lat="37.181411755086856" lon="15.02435099683975"><ele>420.3333333333333</ele><time>2026-04-06T10:04:54.001Z</time></trkpt><trkpt lat="37.181577403623905" lon="15.02436051614164"><ele>418.66666666666663</ele><time>2026-04-06T10:04:55.001Z</time></trkpt><trkpt lat="37.1817350093873" lon="15.02437098022707"><ele>417.0</ele><time>2026-04-06T10:04:56.001Z</time></trkpt><trkpt lat="37.181886610444" lon="15.024382211022557"><ele>417.0</ele><time>2026-04-06T10:04:57.001Z</time></trkpt><trkpt lat="37.182033522032874" lon="15.024389512802879"><ele>417.0</ele><time>2026-04-06T10:04:58.001Z</time></trkpt><trkpt lat="37.18218189463647" lon="15.024393014512864"><ele>417.0</ele><time>2026-04-06T10:04:59.001Z</time></trkpt><trkpt lat="37.18233035510953" lon="15.024391486393204"><ele>417.0</ele><time>2026-04-06T10:05:00.001Z</time></trkpt><trkpt lat="37.18248398587749" lon="15.024399874134378"><ele>416.0</ele><time>2026-04-06T10:05:01.001Z</time></trkpt><trkpt lat="37.18263422457261" lon="15.02435020104004"><ele>415.0</ele><time>2026-04-06T10:05:02.001Z</time></trkpt><trkpt lat="37.18279652962923" lon="15.024302785961156"><ele>414.0</ele><time>2026-04-06T10:05:03.001Z</time></trkpt><trkpt lat="37.18296655070375" lon="15.024252821223843"><ele>414.0</ele><time>2026-04-06T10:05:04.001Z</time></trkpt><trkpt lat="37.18313787736128" lon="15.024203405108961"><ele>414.0</ele><time>2026-04-06T10:05:05.001Z</time></trkpt><trkpt lat="37.18331329871585" lon="15.02417438809046"><ele>414.0</ele><time>2026-04-06T10:05:06.001Z</time></trkpt><trkpt lat="37.18348183202064" lon="15.024104800282757"><ele>412.66666666666663</ele><time>2026-04-06T10:05:07.001Z</time></trkpt><trkpt lat="37.18365457378008" lon="15.024061136458222"><ele>411.3333333333333</ele><time>2026-04-06T10:05:08.001Z</time></trkpt><trkpt lat="37.183826385200724" lon="15.024013121066558"><ele>410.0</ele><time>2026-04-06T10:05:09.001Z</time></trkpt><trkpt lat="37.18399523094548" lon="15.02396197992486"><ele>409.66666666666663</ele><time>2026-04-06T10:05:10.001Z</time></trkpt><trkpt lat="37.184161879123245" lon="15.023913962075753"><ele>409.33333333333337</ele><time>2026-04-06T10:05:11.001Z</time></trkpt><trkpt lat="37.18432652705258" lon="15.023866391600011"><ele>409.0</ele><time>2026-04-06T10:05:12.001Z</time></trkpt><trkpt lat="37.184488008039665" lon="15.023821648751785"><ele>409.0</ele><time>2026-04-06T10:05:13.001Z</time></trkpt><trkpt lat="37.184648286433266" lon="15.023779824341029"><ele>409.0</ele><time>2026-04-06T10:05:14.001Z</time></trkpt><trkpt lat="37.184810314665505" lon="15.023744382568196"><ele>409.0</ele><time>2026-04-06T10:05:15.001Z</time></trkpt><trkpt lat="37.18497654381866" lon="15.023714554437372"><ele>408.6666666666667</ele><time>2026-04-06T10:05:16.001Z</time></trkpt><trkpt lat="37.18514650669609" lon="15.02369601629983"><ele>408.33333333333337</ele><time>2026-04-06T10:05:17.001Z</time></trkpt><trkpt lat="37.1853153044992" lon="15.023683199389271"><ele>408.0</ele><time>2026-04-06T10:05:18.001Z</time></trkpt><trkpt lat="37.18548067585007" lon="15.023664765401223"><ele>408.0</ele><time>2026-04-06T10:05:19.001Z</time></trkpt><trkpt lat="37.18564009305838" lon="15.02364120551426"><ele>408.0</ele><time>2026-04-06T10:05:20.001Z</time></trkpt><trkpt lat="37.18579562641619" lon="15.023634659202752"><ele>408.0</ele><time>2026-04-06T10:05:21.001Z</time></trkpt><trkpt lat="37.18594817898493" lon="15.023598931029033"><ele>408.0</ele><time>2026-04-06T10:05:22.001Z</time></trkpt><trkpt lat="37.1860931984015" lon="15.023551151282938"><ele>408.0</ele><time>2026-04-06T10:05:23.001Z</time></trkpt><trkpt lat="37.18622904565929" lon="15.023483696647652"><ele>408.0</ele><time>2026-04-06T10:05:24.001Z</time></trkpt><trkpt lat="37.18637442283198" lon="15.023446340912919"><ele>408.0</ele><time>2026-04-06T10:05:25.001Z</time></trkpt><trkpt lat="37.18653453890493" lon="15.023422811737513"><ele>408.66666666666663</ele><time>2026-04-06T10:05:26.001Z</time></trkpt><trkpt lat="37.186703283914404" lon="15.02341819258866"><ele>409.3333333333333</ele><time>2026-04-06T10:05:27.001Z</time></trkpt><trkpt lat="37.18687580728449" lon="15.023415885677226"><ele>410.0</ele><time>2026-04-06T10:05:28.001Z</time></trkpt><trkpt lat="37.187050101407074" lon="15.023415957828462"><ele>410.0</ele><time>2026-04-06T10:05:29.001Z</time></trkpt><trkpt lat="37.18722355730183" lon="15.023412207979609"><ele>410.0</ele><time>2026-04-06T10:05:30.001Z</time></trkpt><trkpt lat="37.18739745107229" lon="15.023409188449934"><ele>410.0</ele><time>2026-04-06T10:05:31.001Z</time></trkpt><trkpt lat="37.1875723304202" lon="15.023407155480164"><ele>410.3333333333333</ele><time>2026-04-06T10:05:32.001Z</time></trkpt><trkpt lat="37.18774710472934" lon="15.023404889746324"><ele>410.66666666666663</ele><time>2026-04-06T10:05:33.001Z</time></trkpt><trkpt lat="37.18792255324799" lon="15.023404409718205"><ele>411.0</ele><time>2026-04-06T10:05:34.001Z</time></trkpt><trkpt lat="37.18809758585518" lon="15.023405516386898"><ele>412.0</ele><time>2026-04-06T10:05:35.001Z</time></trkpt><trkpt lat="37.18827112632112" lon="15.023401457805779"><ele>413.0</ele><time>2026-04-06T10:05:36.001Z</time></trkpt><trkpt lat="37.18844322052042" lon="15.023394287052568"><ele>414.0</ele><time>2026-04-06T10:05:37.001Z</time></trkpt><trkpt lat="37.188611312071174" lon="15.023380047493337"><ele>414.0</ele><time>2026-04-06T10:05:38.001Z</time></trkpt><trkpt lat="37.18877071416674" lon="15.023354330376298"><ele>414.0</ele><time>2026-04-06T10:05:39.001Z</time></trkpt><trkpt lat="37.188922391482045" lon="15.023308406559224"><ele>414.0</ele><time>2026-04-06T10:05:40.001Z</time></trkpt><trkpt lat="37.18907294653169" lon="15.023263494818389"><ele>415.0</ele><time>2026-04-06T10:05:41.001Z</time></trkpt><trkpt lat="37.18920894487359" lon="15.023182957886181"><ele>416.0</ele><time>2026-04-06T10:05:42.001Z</time></trkpt><trkpt lat="37.18933211303932" lon="15.023092744709748"><ele>417.0</ele><time>2026-04-06T10:05:43.001Z</time></trkpt><trkpt lat="37.189448238211725" lon="15.023050376392792"><ele>418.0</ele><time>2026-04-06T10:05:44.001Z</time></trkpt><trkpt lat="37.18956293955219" lon="15.02303037459116"><ele>418.0</ele><time>2026-04-06T10:05:45.001Z</time></trkpt><trkpt lat="37.1896762327359" lon="15.023040252273965"><ele>418.0</ele><time>2026-04-06T10:05:46.001Z</time></trkpt><trkpt lat="37.18977877948373" lon="15.023079013243379"><ele>418.0</ele><time>2026-04-06T10:05:47.001Z</time></trkpt><trkpt lat="37.189881583995096" lon="15.023152798600181"><ele>418.0</ele><time>2026-04-06T10:05:48.001Z</time></trkpt><trkpt lat="37.18999244256351" lon="15.023256321776927"><ele>417.0</ele><time>2026-04-06T10:05:49.001Z</time></trkpt><trkpt lat="37.190110236456526" lon="15.023360521040273"><ele>416.0</ele><time>2026-04-06T10:05:50.001Z</time></trkpt><trkpt lat="37.19023682868506" lon="15.02346988238652"><ele>415.0</ele><time>2026-04-06T10:05:51.001Z</time></trkpt><trkpt lat="37.19036450472359" lon="15.023582558498864"><ele>415.0</ele><time>2026-04-06T10:05:52.001Z</time></trkpt><trkpt lat="37.190487338156984" lon="15.023694091880731"><ele>415.0</ele><time>2026-04-06T10:05:53.001Z</time></trkpt><trkpt lat="37.19060461916377" lon="15.02380354903912"><ele>415.0</ele><time>2026-04-06T10:05:54.001Z</time></trkpt><trkpt lat="37.19072062865925" lon="15.023906248084968"><ele>415.0</ele><time>2026-04-06T10:05:55.001Z</time></trkpt><trkpt lat="37.1908343158515" lon="15.024006316702595"><ele>413.0</ele><time>2026-04-06T10:05:56.001Z</time></trkpt><trkpt lat="37.190947621799985" lon="15.024094291546286"><ele>411.0</ele><time>2026-04-06T10:05:57.001Z</time></trkpt><trkpt lat="37.191062808110345" lon="15.02416873545337"><ele>409.0</ele><time>2026-04-06T10:05:58.001Z</time></trkpt><trkpt lat="37.191181515429605" lon="15.024226605339939"><ele>407.0</ele><time>2026-04-06T10:05:59.001Z</time></trkpt><trkpt lat="37.19130413601647" lon="15.024271222809585"><ele>407.0</ele><time>2026-04-06T10:06:00.001Z</time></trkpt><trkpt lat="37.19143282496043" lon="15.024315421935007"><ele>407.0</ele><time>2026-04-06T10:06:01.001Z</time></trkpt><trkpt lat="37.191554580360865" lon="15.02436050349868"><ele>407.0</ele><time>2026-04-06T10:06:02.001Z</time></trkpt><trkpt lat="37.19167253528768" lon="15.024400289186348"><ele>407.0</ele><time>2026-04-06T10:06:03.001Z</time></trkpt><trkpt lat="37.19178520989761" lon="15.024437692995438"><ele>405.20000000000005</ele><time>2026-04-06T10:06:04.001Z</time></trkpt><trkpt lat="37.19188531166682" lon="15.024484410950725"><ele>403.4</ele><time>2026-04-06T10:06:05.001Z</time></trkpt><trkpt lat="37.1919687717718" lon="15.024546356561935"><ele>401.6</ele><time>2026-04-06T10:06:06.001Z</time></trkpt><trkpt lat="37.19203222410216" lon="15.024626779801412"><ele>399.79999999999995</ele><time>2026-04-06T10:06:07.001Z</time></trkpt><trkpt lat="37.192078560164504" lon="15.024734804878822"><ele>398.0</ele><time>2026-04-06T10:06:08.001Z</time></trkpt><trkpt lat="37.1921107617275" lon="15.024855510701757"><ele>398.0</ele><time>2026-04-06T10:06:09.001Z</time></trkpt><trkpt lat="37.19214353558385" lon="15.024969543300445"><ele>398.0</ele><time>2026-04-06T10:06:10.001Z</time></trkpt><trkpt lat="37.192193815348574" lon="15.025073579426028"><ele>398.0</ele><time>2026-04-06T10:06:11.001Z</time></trkpt><trkpt lat="37.192303544909024" lon="15.025113250121185"><ele>398.0</ele><time>2026-04-06T10:06:12.001Z</time></trkpt><trkpt lat="37.19242108608037" lon="15.025133428503176"><ele>398.0</ele><time>2026-04-06T10:06:13.001Z</time></trkpt><trkpt lat="37.192536596277016" lon="15.025140801409503"><ele>398.0</ele><time>2026-04-06T10:06:14.001Z</time></trkpt><trkpt lat="37.19264054258283" lon="15.025155194247615"><ele>398.0</ele><time>2026-04-06T10:06:15.001Z</time></trkpt><trkpt lat="37.192732101533615" lon="15.025166954403625"><ele>398.0</ele><time>2026-04-06T10:06:16.001Z</time></trkpt><trkpt lat="37.19282009021415" lon="15.025167098414613"><ele>398.0</ele><time>2026-04-06T10:06:17.001Z</time></trkpt><trkpt lat="37.19289719871565" lon="15.025100893728832"><ele>398.0</ele><time>2026-04-06T10:06:18.001Z</time></trkpt><trkpt lat="37.192927822632626" lon="15.024976798208247"><ele>396.59999999999997</ele><time>2026-04-06T10:06:19.001Z</time></trkpt><trkpt lat="37.19294998816967" lon="15.024854278972198"><ele>395.2</ele><time>2026-04-06T10:06:20.001Z</time></trkpt><trkpt lat="37.19295713705927" lon="15.024719976453929"><ele>393.8</ele><time>2026-04-06T10:06:21.001Z</time></trkpt><trkpt lat="37.192987438393246" lon="15.024584421081304"><ele>392.4</ele><time>2026-04-06T10:06:22.001Z</time></trkpt><trkpt lat="37.19300529855201" lon="15.024445038054687"><ele>391.0</ele><time>2026-04-06T10:06:23.001Z</time></trkpt><trkpt lat="37.19302297708788" lon="15.024302561756455"><ele>391.0</ele><time>2026-04-06T10:06:24.001Z</time></trkpt><trkpt lat="37.19307742655692" lon="15.024172918376637"><ele>391.0</ele><time>2026-04-06T10:06:25.001Z</time></trkpt><trkpt lat="37.19315506566816" lon="15.024054038482467"><ele>391.0</ele><time>2026-04-06T10:06:26.001Z</time></trkpt><trkpt lat="37.193254921987865" lon="15.023941652897966"><ele>391.0</ele><time>2026-04-06T10:06:27.001Z</time></trkpt><trkpt lat="37.19335499972309" lon="15.023822807436074"><ele>391.75</ele><time>2026-04-06T10:06:28.001Z</time></trkpt><trkpt lat="37.19345914466151" lon="15.023702046196382"><ele>392.5</ele><time>2026-04-06T10:06:29.001Z</time></trkpt><trkpt lat="37.19355794394117" lon="15.023593547265328"><ele>393.25</ele><time>2026-04-06T10:06:30.001Z</time></trkpt><trkpt lat="37.19365742308249" lon="15.023482576930368"><ele>394.0</ele><time>2026-04-06T10:06:31.001Z</time></trkpt><trkpt lat="37.193762911566346" lon="15.023390392065746"><ele>393.25</ele><time>2026-04-06T10:06:32.001Z</time></trkpt><trkpt lat="37.19384925359085" lon="15.023290029165608"><ele>392.5</ele><time>2026-04-06T10:06:33.001Z</time></trkpt><trkpt lat="37.193915072116624" lon="15.023174631115658"><ele>391.75</ele><time>2026-04-06T10:06:34.001Z</time></trkpt><trkpt lat="37.19396761345146" lon="15.023048799433251"><ele>391.0</ele><time>2026-04-06T10:06:35.001Z</time></trkpt><trkpt lat="37.19398985375528" lon="15.022900646384995"><ele>391.0</ele><time>2026-04-06T10:06:36.001Z</time></trkpt><trkpt lat="37.193980968055406" lon="15.022746128877857"><ele>391.0</ele><time>2026-04-06T10:06:37.001Z</time></trkpt><trkpt lat="37.19398021600348" lon="15.022582883305319"><ele>391.0</ele><time>2026-04-06T10:06:38.001Z</time></trkpt><trkpt lat="37.19395237369716" lon="15.022428837425865"><ele>391.0</ele><time>2026-04-06T10:06:39.001Z</time></trkpt><trkpt lat="37.19394000914976" lon="15.022274923686355"><ele>389.8</ele><time>2026-04-06T10:06:40.001Z</time></trkpt><trkpt lat="37.19392967658284" lon="15.02213020867687"><ele>388.6</ele><time>2026-04-06T10:06:41.001Z</time></trkpt><trkpt lat="37.19392120494854" lon="15.02199408942405"><ele>387.4</ele><time>2026-04-06T10:06:42.001Z</time></trkpt><trkpt lat="37.19392281603406" lon="15.02186343015292"><ele>386.2</ele><time>2026-04-06T10:06:43.001Z</time></trkpt><trkpt lat="37.19394593325121" lon="15.021743974568786"><ele>385.0</ele><time>2026-04-06T10:06:44.001Z</time></trkpt><trkpt lat="37.19398776763005" lon="15.021638008620297"><ele>385.6</ele><time>2026-04-06T10:06:45.001Z</time></trkpt><trkpt lat="37.19405290951106" lon="15.021560684543271"><ele>386.2</ele><time>2026-04-06T10:06:46.001Z</time></trkpt><trkpt lat="37.19413521676027" lon="15.021509463241916"><ele>386.79999999999995</ele><time>2026-04-06T10:06:47.001Z</time></trkpt><trkpt lat="37.19424047482797" lon="15.02147397187611"><ele>387.4</ele><time>2026-04-06T10:06:48.001Z</time></trkpt><trkpt lat="37.19435746106256" lon="15.02143501357914"><ele>388.0</ele><time>2026-04-06T10:06:49.001Z</time></trkpt><trkpt lat="37.19448687738977" lon="15.021409589703364"><ele>388.0</ele><time>2026-04-06T10:06:50.001Z</time></trkpt><trkpt lat="37.19461921463126" lon="15.021360280595012"><ele>388.0</ele><time>2026-04-06T10:06:51.001Z</time></trkpt><trkpt lat="37.19475165456775" lon="15.021310206693778"><ele>388.0</ele><time>2026-04-06T10:06:52.001Z</time></trkpt><trkpt lat="37.19488067136525" lon="15.021261427001953"><ele>388.0</ele><time>2026-04-06T10:06:53.001Z</time></trkpt><trkpt lat="37.195012540073186" lon="15.02121262320275"><ele>388.5</ele><time>2026-04-06T10:06:54.001Z</time></trkpt><trkpt lat="37.19514136587684" lon="15.021165285012083"><ele>389.0</ele><time>2026-04-06T10:06:55.001Z</time></trkpt><trkpt lat="37.19526211223207" lon="15.021116736220648"><ele>389.5</ele><time>2026-04-06T10:06:56.001Z</time></trkpt><trkpt lat="37.195373835319096" lon="15.021063698660178"><ele>390.0</ele><time>2026-04-06T10:06:57.001Z</time></trkpt><trkpt lat="37.19548863428462" lon="15.021007842507764"><ele>390.0</ele><time>2026-04-06T10:06:58.001Z</time></trkpt><trkpt lat="37.19560410826745" lon="15.02093892704087"><ele>390.0</ele><time>2026-04-06T10:06:59.001Z</time></trkpt><trkpt lat="37.195715752493314" lon="15.020859331476345"><ele>390.0</ele><time>2026-04-06T10:07:00.001Z</time></trkpt><trkpt lat="37.195822253516916" lon="15.020764104375033"><ele>390.0</ele><time>2026-04-06T10:07:01.001Z</time></trkpt><trkpt lat="37.195940742366" lon="15.020689302439749"><ele>388.25</ele><time>2026-04-06T10:07:02.001Z</time></trkpt><trkpt lat="37.19605795039801" lon="15.020609622235662"><ele>386.5</ele><time>2026-04-06T10:07:03.001Z</time></trkpt><trkpt lat="37.19618125573552" lon="15.020549547706132"><ele>384.75</ele><time>2026-04-06T10:07:04.001Z</time></trkpt><trkpt lat="37.196294705582474" lon="15.020459012849232"><ele>383.0</ele><time>2026-04-06T10:07:05.001Z</time></trkpt><trkpt lat="37.19639381882538" lon="15.02033272040927"><ele>383.0</ele><time>2026-04-06T10:07:06.001Z</time></trkpt><trkpt lat="37.19650165900449" lon="15.02021942203409"><ele>383.0</ele><time>2026-04-06T10:07:07.001Z</time></trkpt><trkpt lat="37.19660364142235" lon="15.02009893555505"><ele>383.0</ele><time>2026-04-06T10:07:08.001Z</time></trkpt><trkpt lat="37.19670202852362" lon="15.019981276819209"><ele>383.0</ele><time>2026-04-06T10:07:09.001Z</time></trkpt><trkpt lat="37.19679551467702" lon="15.019861072557696"><ele>381.0</ele><time>2026-04-06T10:07:10.001Z</time></trkpt><trkpt lat="37.19687273970515" lon="15.019724347524052"><ele>379.0</ele><time>2026-04-06T10:07:11.001Z</time></trkpt><trkpt lat="37.19693985937972" lon="15.019572950334155"><ele>377.0</ele><time>2026-04-06T10:07:12.001Z</time></trkpt><trkpt lat="37.196993836534745" lon="15.019408837044955"><ele>375.0</ele><time>2026-04-06T10:07:13.001Z</time></trkpt><trkpt lat="37.19705901674135" lon="15.01924942689959"><ele>370.3333333333333</ele><time>2026-04-06T10:07:14.001Z</time></trkpt><trkpt lat="37.19710899006782" lon="15.019069602214975"><ele>365.66666666666663</ele><time>2026-04-06T10:07:15.001Z</time></trkpt><trkpt lat="37.19716158988155" lon="15.018888607064051"><ele>361.0</ele><time>2026-04-06T10:07:16.001Z</time></trkpt><trkpt lat="37.1972179765426" lon="15.01871053607984"><ele>361.0</ele><time>2026-04-06T10:07:17.001Z</time></trkpt><trkpt lat="37.197277810786574" lon="15.018539385882702"><ele>361.0</ele><time>2026-04-06T10:07:18.001Z</time></trkpt><trkpt lat="37.19733871545056" lon="15.01836857782522"><ele>361.0</ele><time>2026-04-06T10:07:19.001Z</time></trkpt><trkpt lat="37.197396672196604" lon="15.018209816901042"><ele>361.0</ele><time>2026-04-06T10:07:20.001Z</time></trkpt><trkpt lat="37.1974504859839" lon="15.018067487448317"><ele>362.0</ele><time>2026-04-06T10:07:21.001Z</time></trkpt><trkpt lat="37.19749882903527" lon="15.017946372962793"><ele>363.0</ele><time>2026-04-06T10:07:22.001Z</time></trkpt><trkpt lat="37.1975438660322" lon="15.017841827494683"><ele>364.0</ele><time>2026-04-06T10:07:23.001Z</time></trkpt><trkpt lat="37.19757682400941" lon="15.017744903675629"><ele>365.0</ele><time>2026-04-06T10:07:24.001Z</time></trkpt><trkpt lat="37.197628800841336" lon="15.017684624280422"><ele>366.0</ele><time>2026-04-06T10:07:25.001Z</time></trkpt><trkpt lat="37.19769337894258" lon="15.017647826070442"><ele>367.0</ele><time>2026-04-06T10:07:26.001Z</time></trkpt><trkpt lat="37.19776715197921" lon="15.017642573091537"><ele>367.0</ele><time>2026-04-06T10:07:27.001Z</time></trkpt><trkpt lat="37.1978408108949" lon="15.017668067011641"><ele>367.0</ele><time>2026-04-06T10:07:28.001Z</time></trkpt><trkpt lat="37.19792126335602" lon="15.017715852309108"><ele>367.0</ele><time>2026-04-06T10:07:29.001Z</time></trkpt><trkpt lat="37.19801034475881" lon="15.017775883282155"><ele>367.0</ele><time>2026-04-06T10:07:30.001Z</time></trkpt><trkpt lat="37.19810676151966" lon="15.017834596081972"><ele>367.0</ele><time>2026-04-06T10:07:31.001Z</time></trkpt><trkpt lat="37.19820733298608" lon="15.017883907145785"><ele>365.75</ele><time>2026-04-06T10:07:32.001Z</time></trkpt><trkpt lat="37.19831518025751" lon="15.01793618194362"><ele>364.5</ele><time>2026-04-06T10:07:33.001Z</time></trkpt><trkpt lat="37.19844079369517" lon="15.017924993670329"><ele>363.25</ele><time>2026-04-06T10:07:34.001Z</time></trkpt><trkpt lat="37.1985708708895" lon="15.017918696708673"><ele>362.0</ele><time>2026-04-06T10:07:35.001Z</time></trkpt><trkpt lat="37.19870623460056" lon="15.017921067206455"><ele>362.0</ele><time>2026-04-06T10:07:36.001Z</time></trkpt><trkpt lat="37.19883983389626" lon="15.017911837298463"><ele>362.0</ele><time>2026-04-06T10:07:37.001Z</time></trkpt><trkpt lat="37.19896243096254" lon="15.017903523524874"><ele>362.0</ele><time>2026-04-06T10:07:38.001Z</time></trkpt><trkpt lat="37.199078000626116" lon="15.017896235617696"><ele>362.0</ele><time>2026-04-06T10:07:39.001Z</time></trkpt><trkpt lat="37.199193297304504" lon="15.017889255227601"><ele>360.6</ele><time>2026-04-06T10:07:40.001Z</time></trkpt><trkpt lat="37.19930598310639" lon="15.01786333013832"><ele>359.20000000000005</ele><time>2026-04-06T10:07:41.001Z</time></trkpt><trkpt lat="37.19941496019389" lon="15.017863704576856"><ele>357.8</ele><time>2026-04-06T10:07:42.001Z</time></trkpt><trkpt lat="37.199518476087256" lon="15.017869116581922"><ele>356.4</ele><time>2026-04-06T10:07:43.001Z</time></trkpt><trkpt lat="37.199619857926514" lon="15.01789161951988"><ele>355.0</ele><time>2026-04-06T10:07:44.001Z</time></trkpt><trkpt lat="37.199724861875666" lon="15.017930792144355"><ele>352.75</ele><time>2026-04-06T10:07:45.001Z</time></trkpt><trkpt lat="37.19983507303691" lon="15.017983823213312"><ele>350.5</ele><time>2026-04-06T10:07:46.001Z</time></trkpt><trkpt lat="37.199946543218374" lon="15.01805290437863"><ele>348.25</ele><time>2026-04-06T10:07:47.001Z</time></trkpt><trkpt lat="37.20005751633294" lon="15.018133975153614"><ele>346.0</ele><time>2026-04-06T10:07:48.001Z</time></trkpt><trkpt lat="37.200168890452936" lon="15.01820867955839"><ele>346.0</ele><time>2026-04-06T10:07:49.001Z</time></trkpt><trkpt lat="37.200279158819754" lon="15.018275956407566"><ele>346.0</ele><time>2026-04-06T10:07:50.001Z</time></trkpt><trkpt lat="37.20038917495195" lon="15.018340558170282"><ele>346.0</ele><time>2026-04-06T10:07:51.001Z</time></trkpt><trkpt lat="37.20049991133811" lon="15.018408612741121"><ele>346.0</ele><time>2026-04-06T10:07:52.001Z</time></trkpt><trkpt lat="37.20061849726156" lon="15.018465979012035"><ele>347.75</ele><time>2026-04-06T10:07:53.001Z</time></trkpt><trkpt lat="37.200744514496385" lon="15.01850580889266"><ele>349.5</ele><time>2026-04-06T10:07:54.001Z</time></trkpt><trkpt lat="37.20086875048267" lon="15.018520279235451"><ele>351.25</ele><time>2026-04-06T10:07:55.001Z</time></trkpt><trkpt lat="37.20099322581282" lon="15.018522465180052"><ele>353.0</ele><time>2026-04-06T10:07:56.001Z</time></trkpt><trkpt lat="37.2011247994801" lon="15.018512227401436"><ele>353.0</ele><time>2026-04-06T10:07:57.001Z</time></trkpt><trkpt lat="37.20125733348386" lon="15.018492458148758"><ele>353.0</ele><time>2026-04-06T10:07:58.001Z</time></trkpt><trkpt lat="37.20138582965107" lon="15.018472648810082"><ele>353.0</ele><time>2026-04-06T10:07:59.001Z</time></trkpt><trkpt lat="37.20151085497683" lon="15.018455717833458"><ele>353.0</ele><time>2026-04-06T10:08:00.001Z</time></trkpt><trkpt lat="37.20163414980579" lon="15.0184435762086"><ele>351.0</ele><time>2026-04-06T10:08:01.001Z</time></trkpt><trkpt lat="37.20175537499459" lon="15.018431059270952"><ele>349.0</ele><time>2026-04-06T10:08:02.001Z</time></trkpt><trkpt lat="37.20187311903393" lon="15.018410539505789"><ele>347.0</ele><time>2026-04-06T10:08:03.001Z</time></trkpt><trkpt lat="37.20199292131339" lon="15.018377378126559"><ele>345.0</ele><time>2026-04-06T10:08:04.001Z</time></trkpt><trkpt lat="37.20211419461228" lon="15.01833443905415"><ele>342.5</ele><time>2026-04-06T10:08:05.001Z</time></trkpt><trkpt lat="37.20223479309345" lon="15.018283991773279"><ele>340.0</ele><time>2026-04-06T10:08:06.001Z</time></trkpt><trkpt lat="37.20235268499148" lon="15.018245066845486"><ele>337.5</ele><time>2026-04-06T10:08:07.001Z</time></trkpt><trkpt lat="37.20246512795256" lon="15.01819283949338"><ele>335.0</ele><time>2026-04-06T10:08:08.001Z</time></trkpt><trkpt lat="37.20257076692072" lon="15.018141076360811"><ele>334.6</ele><time>2026-04-06T10:08:09.001Z</time></trkpt><trkpt lat="37.20266560969825" lon="15.018068490973427"><ele>334.2</ele><time>2026-04-06T10:08:10.001Z</time></trkpt><trkpt lat="37.202766778526936" lon="15.018020173035172"><ele>333.79999999999995</ele><time>2026-04-06T10:08:11.001Z</time></trkpt><trkpt lat="37.20285317659307" lon="15.017939804535528"><ele>333.4</ele><time>2026-04-06T10:08:12.001Z</time></trkpt><trkpt lat="37.20293744458676" lon="15.017855754315201"><ele>333.0</ele><time>2026-04-06T10:08:13.001Z</time></trkpt><trkpt lat="37.20302016800737" lon="15.017765861309382"><ele>333.0</ele><time>2026-04-06T10:08:14.001Z</time></trkpt><trkpt lat="37.203101103330575" lon="15.017677066140687"><ele>333.0</ele><time>2026-04-06T10:08:15.001Z</time></trkpt><trkpt lat="37.20317582530305" lon="15.017595087682176"><ele>333.0</ele><time>2026-04-06T10:08:16.001Z</time></trkpt><trkpt lat="37.20324055541606" lon="15.017524071620075"><ele>333.0</ele><time>2026-04-06T10:08:17.001Z</time></trkpt><trkpt lat="37.20328831592611" lon="15.017447341680986"><ele>333.0</ele><time>2026-04-06T10:08:18.001Z</time></trkpt><trkpt lat="37.20334142099758" lon="15.017399978039023"><ele>333.0</ele><time>2026-04-06T10:08:19.001Z</time></trkpt><trkpt lat="37.203464604386326" lon="15.017358979539539"><ele>332.59999999999997</ele><time>2026-04-06T10:08:21.001Z</time></trkpt><trkpt lat="37.203534777520154" lon="15.017370462488435"><ele>332.2</ele><time>2026-04-06T10:08:22.001Z</time></trkpt><trkpt lat="37.20359795291342" lon="15.017416305113457"><ele>331.8</ele><time>2026-04-06T10:08:23.001Z</time></trkpt><trkpt lat="37.20366064737433" lon="15.017507211420076"><ele>331.4</ele><time>2026-04-06T10:08:24.001Z</time></trkpt><trkpt lat="37.203731220907976" lon="15.01761699466708"><ele>331.0</ele><time>2026-04-06T10:08:25.001Z</time></trkpt><trkpt lat="37.20380669114341" lon="15.017728842867346"><ele>331.0</ele><time>2026-04-06T10:08:26.001Z</time></trkpt><trkpt lat="37.203878181251405" lon="15.01783662702093"><ele>331.0</ele><time>2026-04-06T10:08:27.001Z</time></trkpt><trkpt lat="37.20394152780468" lon="15.017937236965759"><ele>331.0</ele><time>2026-04-06T10:08:28.001Z</time></trkpt><trkpt lat="37.203998833564704" lon="15.018034675496198"><ele>331.0</ele><time>2026-04-06T10:08:29.001Z</time></trkpt><trkpt lat="37.204058214843364" lon="15.018124998091954"><ele>331.0</ele><time>2026-04-06T10:08:30.001Z</time></trkpt><trkpt lat="37.204130294924646" lon="15.018191921165778"><ele>330.20000000000005</ele><time>2026-04-06T10:08:31.001Z</time></trkpt><trkpt lat="37.20422559791842" lon="15.018223209085905"><ele>329.40000000000003</ele><time>2026-04-06T10:08:32.001Z</time></trkpt><trkpt lat="37.204322282679406" lon="15.018210024605757"><ele>328.6</ele><time>2026-04-06T10:08:33.001Z</time></trkpt><trkpt lat="37.204416457280104" lon="15.018173477220461"><ele>327.8</ele><time>2026-04-06T10:08:34.001Z</time></trkpt><trkpt lat="37.204506369901445" lon="15.018127748530269"><ele>327.0</ele><time>2026-04-06T10:08:35.001Z</time></trkpt><trkpt lat="37.204584221240445" lon="15.018088137166679"><ele>327.0</ele><time>2026-04-06T10:08:36.001Z</time></trkpt><trkpt lat="37.20465009475422" lon="15.018046013017683"><ele>327.0</ele><time>2026-04-06T10:08:37.001Z</time></trkpt><trkpt lat="37.2047091474145" lon="15.018005736950398"><ele>327.0</ele><time>2026-04-06T10:08:38.001Z</time></trkpt><trkpt lat="37.204768667032745" lon="15.017974863476855"><ele>327.0</ele><time>2026-04-06T10:08:39.001Z</time></trkpt><trkpt lat="37.20482934656875" lon="15.017948612272184"><ele>327.0</ele><time>2026-04-06T10:08:40.001Z</time></trkpt><trkpt lat="37.2048915602801" lon="15.01793098087416"><ele>327.0</ele><time>2026-04-06T10:08:41.001Z</time></trkpt><trkpt lat="37.20496158808159" lon="15.017921383512864"><ele>327.0</ele><time>2026-04-06T10:08:42.001Z</time></trkpt><trkpt lat="37.205037203258776" lon="15.017912741188407"><ele>328.3333333333333</ele><time>2026-04-06T10:08:43.001Z</time></trkpt><trkpt lat="37.20511869413708" lon="15.017911461795904"><ele>329.6666666666667</ele><time>2026-04-06T10:08:44.001Z</time></trkpt><trkpt lat="37.20520659613071" lon="15.017919630836667"><ele>331.0</ele><time>2026-04-06T10:08:45.001Z</time></trkpt><trkpt lat="37.20529653670024" lon="15.01793807542923"><ele>332.33333333333337</ele><time>2026-04-06T10:08:46.001Z</time></trkpt><trkpt lat="37.205385579350825" lon="15.017972076177507"><ele>333.6666666666667</ele><time>2026-04-06T10:08:47.001Z</time></trkpt><trkpt lat="37.205465471666685" lon="15.018028969862527"><ele>335.0</ele><time>2026-04-06T10:08:48.001Z</time></trkpt><trkpt lat="37.205538880578274" lon="15.018105688322962"><ele>335.0</ele><time>2026-04-06T10:08:49.001Z</time></trkpt><trkpt lat="37.20560595832275" lon="15.018190475516814"><ele>335.0</ele><time>2026-04-06T10:08:50.001Z</time></trkpt><trkpt lat="37.2056723620423" lon="15.018275391530931"><ele>335.0</ele><time>2026-04-06T10:08:51.001Z</time></trkpt><trkpt lat="37.205734570714995" lon="15.018354912337852"><ele>335.0</ele><time>2026-04-06T10:08:52.001Z</time></trkpt><trkpt lat="37.20578679146973" lon="15.018422408241387"><ele>335.0</ele><time>2026-04-06T10:08:53.001Z</time></trkpt><trkpt lat="37.20583888097584" lon="15.018500780169521"><ele>335.0</ele><time>2026-04-06T10:08:54.001Z</time></trkpt><trkpt lat="37.205889148719876" lon="15.018593770135313"><ele>334.2</ele><time>2026-04-06T10:08:55.001Z</time></trkpt><trkpt lat="37.205931798557025" lon="15.018709629783732"><ele>333.4</ele><time>2026-04-06T10:08:56.001Z</time></trkpt><trkpt lat="37.20596198576401" lon="15.018839566197032"><ele>332.6</ele><time>2026-04-06T10:08:57.001Z</time></trkpt><trkpt lat="37.206001588646465" lon="15.018966839352947"><ele>331.8</ele><time>2026-04-06T10:08:58.001Z</time></trkpt><trkpt lat="37.20605489709707" lon="15.01907598838453"><ele>331.0</ele><time>2026-04-06T10:08:59.001Z</time></trkpt><trkpt lat="37.20610839527776" lon="15.019189427335132"><ele>329.8</ele><time>2026-04-06T10:09:00.001Z</time></trkpt><trkpt lat="37.206154179167996" lon="15.019308989677562"><ele>328.6</ele><time>2026-04-06T10:09:01.001Z</time></trkpt><trkpt lat="37.20618619282601" lon="15.019433444754217"><ele>327.4</ele><time>2026-04-06T10:09:02.001Z</time></trkpt><trkpt lat="37.20620586820179" lon="15.019560666622109"><ele>326.2</ele><time>2026-04-06T10:09:03.001Z</time></trkpt><trkpt lat="37.206230610356506" lon="15.019695464382115"><ele>325.0</ele><time>2026-04-06T10:09:04.001Z</time></trkpt><trkpt lat="37.20628569116308" lon="15.019843912788623"><ele>324.25</ele><time>2026-04-06T10:09:05.001Z</time></trkpt><trkpt lat="37.206356933566006" lon="15.019984818010196"><ele>323.5</ele><time>2026-04-06T10:09:06.001Z</time></trkpt><trkpt lat="37.20642574627807" lon="15.02011055087248"><ele>322.75</ele><time>2026-04-06T10:09:07.001Z</time></trkpt><trkpt lat="37.20648868623194" lon="15.020231467054632"><ele>322.0</ele><time>2026-04-06T10:09:08.001Z</time></trkpt><trkpt lat="37.206552570058" lon="15.02034706491882"><ele>328.0</ele><time>2026-04-06T10:09:09.001Z</time></trkpt><trkpt lat="37.206624191899444" lon="15.020452957728095"><ele>334.0</ele><time>2026-04-06T10:09:10.001Z</time></trkpt><trkpt lat="37.20670321857561" lon="15.020551790520493"><ele>340.0</ele><time>2026-04-06T10:09:11.001Z</time></trkpt><trkpt lat="37.20679626019677" lon="15.020648406962689"><ele>346.0</ele><time>2026-04-06T10:09:12.001Z</time></trkpt><trkpt lat="37.20689797772888" lon="15.02074627775437"><ele>341.0</ele><time>2026-04-06T10:09:13.001Z</time></trkpt><trkpt lat="37.20699944045725" lon="15.0208441592062"><ele>336.0</ele><time>2026-04-06T10:09:14.001Z</time></trkpt><trkpt lat="37.20709491639923" lon="15.020936374198607"><ele>331.0</ele><time>2026-04-06T10:09:15.001Z</time></trkpt><trkpt lat="37.20718516238869" lon="15.021023764829593"><ele>326.0</ele><time>2026-04-06T10:09:16.001Z</time></trkpt><trkpt lat="37.207267608686564" lon="15.021104770968178"><ele>332.5</ele><time>2026-04-06T10:09:17.001Z</time></trkpt><trkpt lat="37.20735043742105" lon="15.021185115123561"><ele>339.0</ele><time>2026-04-06T10:09:18.001Z</time></trkpt><trkpt lat="37.20743614232621" lon="15.021296319957543"><ele>345.5</ele><time>2026-04-06T10:09:19.001Z</time></trkpt><trkpt lat="37.20750263169849" lon="15.021431826091138"><ele>352.0</ele><time>2026-04-06T10:09:20.001Z</time></trkpt><trkpt lat="37.20756249580535" lon="15.021571484183228"><ele>347.0</ele><time>2026-04-06T10:09:21.001Z</time></trkpt><trkpt lat="37.2076246202374" lon="15.021713474484748"><ele>342.0</ele><time>2026-04-06T10:09:22.001Z</time></trkpt><trkpt lat="37.20771026477151" lon="15.02186722007075"><ele>337.0</ele><time>2026-04-06T10:09:23.001Z</time></trkpt><trkpt lat="37.207808017030295" lon="15.02201504382706"><ele>332.0</ele><time>2026-04-06T10:09:24.001Z</time></trkpt><trkpt lat="37.20790978948248" lon="15.022147774795949"><ele>332.0</ele><time>2026-04-06T10:09:25.001Z</time></trkpt><trkpt lat="37.20800711181538" lon="15.022272000540408"><ele>332.0</ele><time>2026-04-06T10:09:26.001Z</time></trkpt><trkpt lat="37.2080965887765" lon="15.022394835750777"><ele>332.0</ele><time>2026-04-06T10:09:27.001Z</time></trkpt><trkpt lat="37.20817647832855" lon="15.02251245207618"><ele>332.0</ele><time>2026-04-06T10:09:28.001Z</time></trkpt><trkpt lat="37.208254995600804" lon="15.02262182878756"><ele>334.20000000000005</ele><time>2026-04-06T10:09:29.001Z</time></trkpt><trkpt lat="37.20832977145799" lon="15.022725446026485"><ele>336.4</ele><time>2026-04-06T10:09:30.001Z</time></trkpt><trkpt lat="37.2084024247472" lon="15.02282560486914"><ele>338.6</ele><time>2026-04-06T10:09:31.001Z</time></trkpt><trkpt lat="37.208470186570366" lon="15.022926631345257"><ele>340.79999999999995</ele><time>2026-04-06T10:09:32.001Z</time></trkpt><trkpt lat="37.20853309808686" lon="15.023028828312281"><ele>343.0</ele><time>2026-04-06T10:09:33.001Z</time></trkpt><trkpt lat="37.20859150866977" lon="15.023137702430924"><ele>343.0</ele><time>2026-04-06T10:09:34.001Z</time></trkpt><trkpt lat="37.20864420813557" lon="15.02325146942526"><ele>343.0</ele><time>2026-04-06T10:09:35.001Z</time></trkpt><trkpt lat="37.20869729112861" lon="15.023366177239847"><ele>343.0</ele><time>2026-04-06T10:09:36.001Z</time></trkpt><trkpt lat="37.20874551110769" lon="15.023483090262575"><ele>343.0</ele><time>2026-04-06T10:09:37.001Z</time></trkpt><trkpt lat="37.20879443851804" lon="15.02359993980928"><ele>343.0</ele><time>2026-04-06T10:09:38.001Z</time></trkpt><trkpt lat="37.20884417393811" lon="15.023715714587214"><ele>342.4</ele><time>2026-04-06T10:09:39.001Z</time></trkpt><trkpt lat="37.20889317545209" lon="15.023831394079386"><ele>341.79999999999995</ele><time>2026-04-06T10:09:40.001Z</time></trkpt><trkpt lat="37.20894021896951" lon="15.023949205895143"><ele>341.2</ele><time>2026-04-06T10:09:41.001Z</time></trkpt><trkpt lat="37.208985902287665" lon="15.024062688545516"><ele>340.6</ele><time>2026-04-06T10:09:42.001Z</time></trkpt><trkpt lat="37.20903001392208" lon="15.02417417495223"><ele>340.0</ele><time>2026-04-06T10:09:43.001Z</time></trkpt><trkpt lat="37.20906960369815" lon="15.024285123468657"><ele>340.0</ele><time>2026-04-06T10:09:44.001Z</time></trkpt><trkpt lat="37.20909697390681" lon="15.024398351533957"><ele>340.0</ele><time>2026-04-06T10:09:45.001Z</time></trkpt><trkpt lat="37.20911270374493" lon="15.024509886979558"><ele>340.0</ele><time>2026-04-06T10:09:46.001Z</time></trkpt><trkpt lat="37.20912527980206" lon="15.024619254671169"><ele>340.0</ele><time>2026-04-06T10:09:47.001Z</time></trkpt><trkpt lat="37.209146015141755" lon="15.024727267073494"><ele>340.0</ele><time>2026-04-06T10:09:48.001Z</time></trkpt><trkpt lat="37.20918093644026" lon="15.024824348767188"><ele>340.0</ele><time>2026-04-06T10:09:49.001Z</time></trkpt><trkpt lat="37.20921994600042" lon="15.024914215283427"><ele>338.5</ele><time>2026-04-06T10:09:50.001Z</time></trkpt><trkpt lat="37.20926766265523" lon="15.024994972096065"><ele>337.0</ele><time>2026-04-06T10:09:51.001Z</time></trkpt><trkpt lat="37.20932434637522" lon="15.025071100079595"><ele>335.5</ele><time>2026-04-06T10:09:52.001Z</time></trkpt><trkpt lat="37.20938235691773" lon="15.025141747966304"><ele>334.0</ele><time>2026-04-06T10:09:53.001Z</time></trkpt><trkpt lat="37.20943548245541" lon="15.02520729553749"><ele>332.5</ele><time>2026-04-06T10:09:54.001Z</time></trkpt><trkpt lat="37.20948215605948" lon="15.025265967153569"><ele>331.0</ele><time>2026-04-06T10:09:55.001Z</time></trkpt><trkpt lat="37.20957693951866" lon="15.025320680132797"><ele>331.0</ele><time>2026-04-06T10:09:57.001Z</time></trkpt><trkpt lat="37.20964016026186" lon="15.025233080573697"><ele>331.0</ele><time>2026-04-06T10:09:59.001Z</time></trkpt><trkpt lat="37.209606874846116" lon="15.02509813022555"><ele>331.0</ele><time>2026-04-06T10:10:01.001Z</time></trkpt><trkpt lat="37.20952412667222" lon="15.024989179596123"><ele>331.0</ele><time>2026-04-06T10:10:03.001Z</time></trkpt><trkpt lat="37.2094483423487" lon="15.02488328907556"><ele>331.0</ele><time>2026-04-06T10:10:05.001Z</time></trkpt><trkpt lat="37.20939616185466" lon="15.024749386726363"><ele>332.5</ele><time>2026-04-06T10:10:07.001Z</time></trkpt><trkpt lat="37.209377384281844" lon="15.024663696114972"><ele>334.0</ele><time>2026-04-06T10:10:08.001Z</time></trkpt><trkpt lat="37.20936521728065" lon="15.024581785137025"><ele>335.5</ele><time>2026-04-06T10:10:09.001Z</time></trkpt><trkpt lat="37.20935667354548" lon="15.024501862880197"><ele>337.0</ele><time>2026-04-06T10:10:10.001Z</time></trkpt><trkpt lat="37.20934889298092" lon="15.024422446257361"><ele>338.5</ele><time>2026-04-06T10:10:11.001Z</time></trkpt><trkpt lat="37.20932722523009" lon="15.024271142713491"><ele>340.0</ele><time>2026-04-06T10:10:13.001Z</time></trkpt><trkpt lat="37.20932733584769" lon="15.024141192298881"><ele>340.0</ele><time>2026-04-06T10:10:15.001Z</time></trkpt><trkpt lat="37.209405476910774" lon="15.024096852040707"><ele>340.0</ele><time>2026-04-06T10:10:17.001Z</time></trkpt><trkpt lat="37.20948702336276" lon="15.024211135564194"><ele>340.0</ele><time>2026-04-06T10:10:19.001Z</time></trkpt><trkpt lat="37.2095079185841" lon="15.0243083304599"><ele>340.0</ele><time>2026-04-06T10:10:20.001Z</time></trkpt><trkpt lat="37.20953458018089" lon="15.024404720367691"><ele>340.0</ele><time>2026-04-06T10:10:21.001Z</time></trkpt><trkpt lat="37.20957323001733" lon="15.024477885644194"><ele>340.0</ele><time>2026-04-06T10:10:22.001Z</time></trkpt><trkpt lat="37.20961356783858" lon="15.024553557252297"><ele>340.0</ele><time>2026-04-06T10:10:23.001Z</time></trkpt><trkpt lat="37.209656329767974" lon="15.024644399711555"><ele>340.0</ele><time>2026-04-06T10:10:24.001Z</time></trkpt><trkpt lat="37.20970637034674" lon="15.024737605450044"><ele>340.0</ele><time>2026-04-06T10:10:25.001Z</time></trkpt><trkpt lat="37.20976066910183" lon="15.024828086707325"><ele>340.0</ele><time>2026-04-06T10:10:26.001Z</time></trkpt><trkpt lat="37.20980469400906" lon="15.02491349230964"><ele>340.0</ele><time>2026-04-06T10:10:27.001Z</time></trkpt><trkpt lat="37.209843357499246" lon="15.02499612127504"><ele>340.0</ele><time>2026-04-06T10:10:28.001Z</time></trkpt><trkpt lat="37.20987917164032" lon="15.025078668349249"><ele>342.5</ele><time>2026-04-06T10:10:29.001Z</time></trkpt><trkpt lat="37.209918008738704" lon="15.025154981475396"><ele>345.0</ele><time>2026-04-06T10:10:30.001Z</time></trkpt><trkpt lat="37.209965742987855" lon="15.025231660023286"><ele>347.5</ele><time>2026-04-06T10:10:31.001Z</time></trkpt><trkpt lat="37.21002682132223" lon="15.025296303263994"><ele>350.0</ele><time>2026-04-06T10:10:32.001Z</time></trkpt><trkpt lat="37.21010226504518" lon="15.025334960548799"><ele>352.5</ele><time>2026-04-06T10:10:33.001Z</time></trkpt><trkpt lat="37.210192911737195" lon="15.025347373267664"><ele>355.0</ele><time>2026-04-06T10:10:34.001Z</time></trkpt><trkpt lat="37.210293331221926" lon="15.02535212227269"><ele>355.0</ele><time>2026-04-06T10:10:35.001Z</time></trkpt><trkpt lat="37.21039920965767" lon="15.025354115580859"><ele>355.0</ele><time>2026-04-06T10:10:36.001Z</time></trkpt><trkpt lat="37.210499085946296" lon="15.025353441611202"><ele>355.0</ele><time>2026-04-06T10:10:37.001Z</time></trkpt><trkpt lat="37.210590400476605" lon="15.025350652426178"><ele>355.0</ele><time>2026-04-06T10:10:38.001Z</time></trkpt><trkpt lat="37.21068620431499" lon="15.025341219923623"><ele>355.0</ele><time>2026-04-06T10:10:39.001Z</time></trkpt><trkpt lat="37.210781469296066" lon="15.025333587948264"><ele>356.16666666666663</ele><time>2026-04-06T10:10:40.001Z</time></trkpt><trkpt lat="37.21087421410465" lon="15.025328355615118"><ele>357.3333333333333</ele><time>2026-04-06T10:10:41.001Z</time></trkpt><trkpt lat="37.21096028658976" lon="15.025323473961897"><ele>358.5</ele><time>2026-04-06T10:10:42.001Z</time></trkpt><trkpt lat="37.21103929403097" lon="15.025315637042715"><ele>359.6666666666667</ele><time>2026-04-06T10:10:43.001Z</time></trkpt><trkpt lat="37.211107539489966" lon="15.025291682931286"><ele>360.83333333333337</ele><time>2026-04-06T10:10:44.001Z</time></trkpt><trkpt lat="37.211174590105784" lon="15.025234940818844"><ele>362.0</ele><time>2026-04-06T10:10:45.001Z</time></trkpt><trkpt lat="37.211239967864174" lon="15.025153767217796"><ele>362.0</ele><time>2026-04-06T10:10:46.001Z</time></trkpt><trkpt lat="37.21129160151404" lon="15.025057504650373"><ele>362.0</ele><time>2026-04-06T10:10:47.001Z</time></trkpt><trkpt lat="37.21132942632899" lon="15.02495825545974"><ele>362.0</ele><time>2026-04-06T10:10:48.001Z</time></trkpt><trkpt lat="37.21135837527245" lon="15.02485812780883"><ele>362.0</ele><time>2026-04-06T10:10:49.001Z</time></trkpt><trkpt lat="37.21138519172724" lon="15.024761188102516"><ele>362.0</ele><time>2026-04-06T10:10:50.001Z</time></trkpt><trkpt lat="37.21141792147641" lon="15.024673138562784"><ele>362.0</ele><time>2026-04-06T10:10:51.001Z</time></trkpt><trkpt lat="37.21147066048039" lon="15.024610934532234"><ele>363.85714285714283</ele><time>2026-04-06T10:10:52.001Z</time></trkpt><trkpt lat="37.21153282949162" lon="15.024572636913858"><ele>365.71428571428567</ele><time>2026-04-06T10:10:53.001Z</time></trkpt><trkpt lat="37.21160261741864" lon="15.024561287686968"><ele>367.57142857142856</ele><time>2026-04-06T10:10:54.001Z</time></trkpt><trkpt lat="37.211672575651576" lon="15.024579513066639"><ele>369.42857142857144</ele><time>2026-04-06T10:10:55.001Z</time></trkpt><trkpt lat="37.2117200886536" lon="15.024654466205577"><ele>371.2857142857143</ele><time>2026-04-06T10:10:56.001Z</time></trkpt><trkpt lat="37.211773846841496" lon="15.024718223516551"><ele>373.14285714285717</ele><time>2026-04-06T10:10:57.001Z</time></trkpt><trkpt lat="37.211840912254694" lon="15.024769918144502"><ele>375.0</ele><time>2026-04-06T10:10:58.001Z</time></trkpt><trkpt lat="37.2119025788282" lon="15.024836494203655"><ele>375.0</ele><time>2026-04-06T10:10:59.001Z</time></trkpt><trkpt lat="37.211968653786954" lon="15.024900858949744"><ele>375.0</ele><time>2026-04-06T10:11:00.001Z</time></trkpt><trkpt lat="37.21206173836464" lon="15.024904862575497"><ele>375.0</ele><time>2026-04-06T10:11:01.001Z</time></trkpt><trkpt lat="37.21214981408642" lon="15.024914536858637"><ele>375.0</ele><time>2026-04-06T10:11:02.001Z</time></trkpt><trkpt lat="37.21223490860482" lon="15.024903659969084"><ele>375.0</ele><time>2026-04-06T10:11:03.001Z</time></trkpt><trkpt lat="37.21231293313572" lon="15.024870912966547"><ele>375.0</ele><time>2026-04-06T10:11:04.001Z</time></trkpt><trkpt lat="37.21238588516229" lon="15.02482696987385"><ele>374.42857142857144</ele><time>2026-04-06T10:11:05.001Z</time></trkpt><trkpt lat="37.212462185418" lon="15.024814242480819"><ele>373.85714285714283</ele><time>2026-04-06T10:11:06.001Z</time></trkpt><trkpt lat="37.212523805736296" lon="15.024793744945113"><ele>373.2857142857143</ele><time>2026-04-06T10:11:07.001Z</time></trkpt><trkpt lat="37.21258711212374" lon="15.024808172732259"><ele>372.7142857142857</ele><time>2026-04-06T10:11:08.001Z</time></trkpt><trkpt lat="37.212645789848146" lon="15.024844067289012"><ele>372.1428571428571</ele><time>2026-04-06T10:11:09.001Z</time></trkpt><trkpt lat="37.21269892522941" lon="15.024900855360201"><ele>371.57142857142856</ele><time>2026-04-06T10:11:10.001Z</time></trkpt><trkpt lat="37.21274663145153" lon="15.024974071949451"><ele>371.0</ele><time>2026-04-06T10:11:11.001Z</time></trkpt><trkpt lat="37.21277113940686" lon="15.025073822666263"><ele>371.0</ele><time>2026-04-06T10:11:12.001Z</time></trkpt><trkpt lat="37.21282637159652" lon="15.025165020302449"><ele>371.0</ele><time>2026-04-06T10:11:13.001Z</time></trkpt><trkpt lat="37.21286879327625" lon="15.025277307286665"><ele>371.0</ele><time>2026-04-06T10:11:14.001Z</time></trkpt><trkpt lat="37.21291138070104" lon="15.025390778407365"><ele>371.0</ele><time>2026-04-06T10:11:15.001Z</time></trkpt><trkpt lat="37.212950583456454" lon="15.025493129552965"><ele>371.0</ele><time>2026-04-06T10:11:16.001Z</time></trkpt><trkpt lat="37.212989550263615" lon="15.025581891095786"><ele>371.0</ele><time>2026-04-06T10:11:17.001Z</time></trkpt><trkpt lat="37.21303504597159" lon="15.025659603937562"><ele>371.0</ele><time>2026-04-06T10:11:18.001Z</time></trkpt><trkpt lat="37.21309241255777" lon="15.025728883926847"><ele>371.0</ele><time>2026-04-06T10:11:19.001Z</time></trkpt><trkpt lat="37.213162806903995" lon="15.025790144705535"><ele>371.0</ele><time>2026-04-06T10:11:20.001Z</time></trkpt><trkpt lat="37.21324467953775" lon="15.025823900656029"><ele>371.0</ele><time>2026-04-06T10:11:21.001Z</time></trkpt><trkpt lat="37.21333459665126" lon="15.025825033349365"><ele>371.0</ele><time>2026-04-06T10:11:22.001Z</time></trkpt><trkpt lat="37.213435661049225" lon="15.02579845966019"><ele>373.20000000000005</ele><time>2026-04-06T10:11:23.001Z</time></trkpt><trkpt lat="37.21353940942714" lon="15.025765829051993"><ele>375.40000000000003</ele><time>2026-04-06T10:11:24.001Z</time></trkpt><trkpt lat="37.213633878162625" lon="15.025738929038361"><ele>377.6</ele><time>2026-04-06T10:11:25.001Z</time></trkpt><trkpt lat="37.21372911006515" lon="15.025716752062202"><ele>379.8</ele><time>2026-04-06T10:11:26.001Z</time></trkpt><trkpt lat="37.21382611761925" lon="15.025705255704231"><ele>382.0</ele><time>2026-04-06T10:11:27.001Z</time></trkpt><trkpt lat="37.21392647866922" lon="15.025723489931087"><ele>385.20000000000005</ele><time>2026-04-06T10:11:28.001Z</time></trkpt><trkpt lat="37.214027138212444" lon="15.025736378858326"><ele>388.4</ele><time>2026-04-06T10:11:29.001Z</time></trkpt><trkpt lat="37.2141281142558" lon="15.025754111032011"><ele>391.6</ele><time>2026-04-06T10:11:30.001Z</time></trkpt><trkpt lat="37.2142282126454" lon="15.025774305766248"><ele>394.79999999999995</ele><time>2026-04-06T10:11:31.001Z</time></trkpt><trkpt lat="37.21432859179845" lon="15.025775295054302"><ele>398.0</ele><time>2026-04-06T10:11:32.001Z</time></trkpt><trkpt lat="37.214421429519" lon="15.0257985936234"><ele>394.0</ele><time>2026-04-06T10:11:33.001Z</time></trkpt><trkpt lat="37.21451125241905" lon="15.025823097181213"><ele>390.0</ele><time>2026-04-06T10:11:34.001Z</time></trkpt><trkpt lat="37.214598901966156" lon="15.025864580501626"><ele>386.0</ele><time>2026-04-06T10:11:35.001Z</time></trkpt><trkpt lat="37.21468079456387" lon="15.025935129435346"><ele>382.0</ele><time>2026-04-06T10:11:36.001Z</time></trkpt><trkpt lat="37.21475111387517" lon="15.026031472083224"><ele>378.0</ele><time>2026-04-06T10:11:37.001Z</time></trkpt><trkpt lat="37.21481470880561" lon="15.026133928643482"><ele>378.2</ele><time>2026-04-06T10:11:38.001Z</time></trkpt><trkpt lat="37.21487021813271" lon="15.026241326116482"><ele>378.4</ele><time>2026-04-06T10:11:39.001Z</time></trkpt><trkpt lat="37.21489445220767" lon="15.026363222774322"><ele>378.59999999999997</ele><time>2026-04-06T10:11:40.001Z</time></trkpt><trkpt lat="37.21493276092811" lon="15.02647678075998"><ele>378.79999999999995</ele><time>2026-04-06T10:11:41.001Z</time></trkpt><trkpt lat="37.21498351049571" lon="15.02658145547943"><ele>379.0</ele><time>2026-04-06T10:11:42.001Z</time></trkpt><trkpt lat="37.21501971960549" lon="15.026686101361085"><ele>379.0</ele><time>2026-04-06T10:11:43.001Z</time></trkpt><trkpt lat="37.215058553603086" lon="15.026779460471104"><ele>379.0</ele><time>2026-04-06T10:11:44.001Z</time></trkpt><trkpt lat="37.21510185813998" lon="15.026850202565559"><ele>379.0</ele><time>2026-04-06T10:11:45.001Z</time></trkpt><trkpt lat="37.21515507831402" lon="15.026900179890472"><ele>379.0</ele><time>2026-04-06T10:11:46.001Z</time></trkpt><trkpt lat="37.215276181038014" lon="15.026945195283323"><ele>379.0</ele><time>2026-04-06T10:11:48.001Z</time></trkpt><trkpt lat="37.215344177682816" lon="15.026952361011356"><ele>379.0</ele><time>2026-04-06T10:11:49.001Z</time></trkpt><trkpt lat="37.21542045975932" lon="15.026948960271943"><ele>379.0</ele><time>2026-04-06T10:11:50.001Z</time></trkpt><trkpt lat="37.215502522022014" lon="15.026940979005168"><ele>379.0</ele><time>2026-04-06T10:11:51.001Z</time></trkpt><trkpt lat="37.215588662831436" lon="15.026939240999015"><ele>379.0</ele><time>2026-04-06T10:11:52.001Z</time></trkpt><trkpt lat="37.215682367797385" lon="15.02696470861456"><ele>379.0</ele><time>2026-04-06T10:11:53.001Z</time></trkpt><trkpt lat="37.21577397906139" lon="15.027015150146617"><ele>379.0</ele><time>2026-04-06T10:11:54.001Z</time></trkpt><trkpt lat="37.21584641611213" lon="15.027083291799059"><ele>382.79999999999995</ele><time>2026-04-06T10:11:55.001Z</time></trkpt><trkpt lat="37.21592561355874" lon="15.02715592958171"><ele>386.59999999999997</ele><time>2026-04-06T10:11:56.001Z</time></trkpt><trkpt lat="37.21600714072901" lon="15.027229574931615"><ele>390.4</ele><time>2026-04-06T10:11:57.001Z</time></trkpt><trkpt lat="37.216084409853664" lon="15.027299197420879"><ele>394.2</ele><time>2026-04-06T10:11:58.001Z</time></trkpt><trkpt lat="37.21615483438898" lon="15.027376136307657"><ele>398.0</ele><time>2026-04-06T10:11:59.001Z</time></trkpt><trkpt lat="37.21621922317625" lon="15.027469788917848"><ele>394.4</ele><time>2026-04-06T10:12:00.001Z</time></trkpt><trkpt lat="37.21627418499421" lon="15.027572360325903"><ele>390.79999999999995</ele><time>2026-04-06T10:12:01.001Z</time></trkpt><trkpt lat="37.21631857101037" lon="15.027680734884594"><ele>387.2</ele><time>2026-04-06T10:12:02.001Z</time></trkpt><trkpt lat="37.2163536279608" lon="15.027797565118597"><ele>383.6</ele><time>2026-04-06T10:12:03.001Z</time></trkpt><trkpt lat="37.216378655620076" lon="15.027922756799878"><ele>380.0</ele><time>2026-04-06T10:12:04.001Z</time></trkpt><trkpt lat="37.21640051754764" lon="15.02805567037796"><ele>380.0</ele><time>2026-04-06T10:12:05.001Z</time></trkpt><trkpt lat="37.21642944042206" lon="15.028189092167002"><ele>380.0</ele><time>2026-04-06T10:12:06.001Z</time></trkpt><trkpt lat="37.21645918919678" lon="15.02832337690742"><ele>380.0</ele><time>2026-04-06T10:12:07.001Z</time></trkpt><trkpt lat="37.2164843100047" lon="15.028452370875785"><ele>380.0</ele><time>2026-04-06T10:12:08.001Z</time></trkpt><trkpt lat="37.21650760556235" lon="15.02858195113691"><ele>380.0</ele><time>2026-04-06T10:12:09.001Z</time></trkpt><trkpt lat="37.216533442483374" lon="15.028710177106756"><ele>383.4</ele><time>2026-04-06T10:12:10.001Z</time></trkpt><trkpt lat="37.216556508591836" lon="15.02883196897154"><ele>386.8</ele><time>2026-04-06T10:12:11.001Z</time></trkpt><trkpt lat="37.216577173927305" lon="15.028949463787987"><ele>390.20000000000005</ele><time>2026-04-06T10:12:12.001Z</time></trkpt><trkpt lat="37.21659245496086" lon="15.029063786950644"><ele>393.6</ele><time>2026-04-06T10:12:13.001Z</time></trkpt><trkpt lat="37.21659490343403" lon="15.029175150109145"><ele>397.0</ele><time>2026-04-06T10:12:14.001Z</time></trkpt><trkpt lat="37.216585883586895" lon="15.029289776208957"><ele>397.0</ele><time>2026-04-06T10:12:15.001Z</time></trkpt><trkpt lat="37.21657365597755" lon="15.029406634506914"><ele>397.0</ele><time>2026-04-06T10:12:16.001Z</time></trkpt><trkpt lat="37.21656397636958" lon="15.029524140869242"><ele>397.0</ele><time>2026-04-06T10:12:17.001Z</time></trkpt><trkpt lat="37.21656473626864" lon="15.029640934565837"><ele>397.0</ele><time>2026-04-06T10:12:18.001Z</time></trkpt><trkpt lat="37.21658879169466" lon="15.029752994670739"><ele>397.0</ele><time>2026-04-06T10:12:19.001Z</time></trkpt><trkpt lat="37.2166375179249" lon="15.029853434118301"><ele>397.0</ele><time>2026-04-06T10:12:20.001Z</time></trkpt><trkpt lat="37.21669841910729" lon="15.02994357037121"><ele>397.0</ele><time>2026-04-06T10:12:21.001Z</time></trkpt><trkpt lat="37.21677070925049" lon="15.030016891835812"><ele>397.0</ele><time>2026-04-06T10:12:22.001Z</time></trkpt><trkpt lat="37.216854015691766" lon="15.030070137812704"><ele>397.0</ele><time>2026-04-06T10:12:23.001Z</time></trkpt><trkpt lat="37.21694516285424" lon="15.030108606032934"><ele>397.0</ele><time>2026-04-06T10:12:24.001Z</time></trkpt><trkpt lat="37.217044110247635" lon="15.030141002525246"><ele>396.25</ele><time>2026-04-06T10:12:25.001Z</time></trkpt><trkpt lat="37.21714167724516" lon="15.030202664340605"><ele>395.5</ele><time>2026-04-06T10:12:26.001Z</time></trkpt><trkpt lat="37.21725049487995" lon="15.030248357879204"><ele>394.75</ele><time>2026-04-06T10:12:27.001Z</time></trkpt><trkpt lat="37.21736486947788" lon="15.030294582925842"><ele>394.0</ele><time>2026-04-06T10:12:28.001Z</time></trkpt><trkpt lat="37.21748432574548" lon="15.030323019776176"><ele>396.5</ele><time>2026-04-06T10:12:29.001Z</time></trkpt><trkpt lat="37.21759334014345" lon="15.030369485498097"><ele>399.0</ele><time>2026-04-06T10:12:30.001Z</time></trkpt><trkpt lat="37.217702747267666" lon="15.030417635293905"><ele>401.5</ele><time>2026-04-06T10:12:31.001Z</time></trkpt><trkpt lat="37.21781250468179" lon="15.030476580844915"><ele>404.0</ele><time>2026-04-06T10:12:32.001Z</time></trkpt><trkpt lat="37.21792215421274" lon="15.030552672627557"><ele>404.0</ele><time>2026-04-06T10:12:33.001Z</time></trkpt><trkpt lat="37.21803611039045" lon="15.030643229929478"><ele>404.0</ele><time>2026-04-06T10:12:34.001Z</time></trkpt><trkpt lat="37.21814151921233" lon="15.030733206577775"><ele>404.0</ele><time>2026-04-06T10:12:35.001Z</time></trkpt><trkpt lat="37.21824738525827" lon="15.030831941413345"><ele>404.0</ele><time>2026-04-06T10:12:36.001Z</time></trkpt><trkpt lat="37.218344566779955" lon="15.03094089801976"><ele>403.75</ele><time>2026-04-06T10:12:37.001Z</time></trkpt><trkpt lat="37.218433683022425" lon="15.031052293654586"><ele>403.5</ele><time>2026-04-06T10:12:38.001Z</time></trkpt><trkpt lat="37.218519504699735" lon="15.031155036364229"><ele>403.25</ele><time>2026-04-06T10:12:39.001Z</time></trkpt><trkpt lat="37.218608191642446" lon="15.031245473108545"><ele>403.0</ele><time>2026-04-06T10:12:40.001Z</time></trkpt><trkpt lat="37.218701992078955" lon="15.031333625928461"><ele>403.0</ele><time>2026-04-06T10:12:41.001Z</time></trkpt><trkpt lat="37.21879039170911" lon="15.031438956715144"><ele>403.0</ele><time>2026-04-06T10:12:42.001Z</time></trkpt><trkpt lat="37.21888876183512" lon="15.031520931477656"><ele>403.0</ele><time>2026-04-06T10:12:43.001Z</time></trkpt><trkpt lat="37.21898782874248" lon="15.031598856972552"><ele>403.0</ele><time>2026-04-06T10:12:44.001Z</time></trkpt><trkpt lat="37.21909654833498" lon="15.031661825683408"><ele>402.75</ele><time>2026-04-06T10:12:45.001Z</time></trkpt><trkpt lat="37.21919859845707" lon="15.031738154158043"><ele>402.5</ele><time>2026-04-06T10:12:46.001Z</time></trkpt><trkpt lat="37.219308324538225" lon="15.031799888383585"><ele>402.25</ele><time>2026-04-06T10:12:47.001Z</time></trkpt><trkpt lat="37.21942801556119" lon="15.031842220666018"><ele>402.0</ele><time>2026-04-06T10:12:48.001Z</time></trkpt><trkpt lat="37.219551003018175" lon="15.031887770584204"><ele>402.0</ele><time>2026-04-06T10:12:49.001Z</time></trkpt><trkpt lat="37.21967744492975" lon="15.031902177342717"><ele>402.0</ele><time>2026-04-06T10:12:50.001Z</time></trkpt><trkpt lat="37.2198026568896" lon="15.031862955293926"><ele>402.0</ele><time>2026-04-06T10:12:51.001Z</time></trkpt><trkpt lat="37.219917817596816" lon="15.031819686657746"><ele>402.0</ele><time>2026-04-06T10:12:52.001Z</time></trkpt><trkpt lat="37.22001133825274" lon="15.031737539610415"><ele>403.0</ele><time>2026-04-06T10:12:53.001Z</time></trkpt><trkpt lat="37.220085631028574" lon="15.031641485077246"><ele>404.0</ele><time>2026-04-06T10:12:54.001Z</time></trkpt><trkpt lat="37.22014678616717" lon="15.031524725469936"><ele>405.0</ele><time>2026-04-06T10:12:55.001Z</time></trkpt><trkpt lat="37.2201996802757" lon="15.031390512049855"><ele>406.0</ele><time>2026-04-06T10:12:56.001Z</time></trkpt><trkpt lat="37.220255398111156" lon="15.031254941093332"><ele>407.5</ele><time>2026-04-06T10:12:57.001Z</time></trkpt><trkpt lat="37.22031618372572" lon="15.031122336544394"><ele>409.0</ele><time>2026-04-06T10:12:58.001Z</time></trkpt><trkpt lat="37.22037840369651" lon="15.030989906678771"><ele>410.5</ele><time>2026-04-06T10:12:59.001Z</time></trkpt><trkpt lat="37.22044143831543" lon="15.030856188684677"><ele>412.0</ele><time>2026-04-06T10:13:00.001Z</time></trkpt><trkpt lat="37.22050124545674" lon="15.030718597661737"><ele>413.25</ele><time>2026-04-06T10:13:01.001Z</time></trkpt><trkpt lat="37.22056005670993" lon="15.030587229774932"><ele>414.5</ele><time>2026-04-06T10:13:02.001Z</time></trkpt><trkpt lat="37.22061200871802" lon="15.030451669156012"><ele>415.75</ele><time>2026-04-06T10:13:03.001Z</time></trkpt><trkpt lat="37.22065612275976" lon="15.030300614422533"><ele>417.0</ele><time>2026-04-06T10:13:04.001Z</time></trkpt><trkpt lat="37.220686952014276" lon="15.030136235406081"><ele>414.0</ele><time>2026-04-06T10:13:05.001Z</time></trkpt><trkpt lat="37.220703368405985" lon="15.029961092134466"><ele>411.0</ele><time>2026-04-06T10:13:06.001Z</time></trkpt><trkpt lat="37.220712299106886" lon="15.029777663816231"><ele>408.0</ele><time>2026-04-06T10:13:07.001Z</time></trkpt><trkpt lat="37.22072241219204" lon="15.02959024465007"><ele>405.0</ele><time>2026-04-06T10:13:08.001Z</time></trkpt><trkpt lat="37.22073234388133" lon="15.02940298800663"><ele>405.0</ele><time>2026-04-06T10:13:09.001Z</time></trkpt><trkpt lat="37.22074175482689" lon="15.029215506913548"><ele>405.0</ele><time>2026-04-06T10:13:10.001Z</time></trkpt><trkpt lat="37.22075401897424" lon="15.02902855558214"><ele>405.0</ele><time>2026-04-06T10:13:11.001Z</time></trkpt><trkpt lat="37.22076488655578" lon="15.028846720905422"><ele>405.0</ele><time>2026-04-06T10:13:12.001Z</time></trkpt><trkpt lat="37.220779004813934" lon="15.02866889053183"><ele>404.5</ele><time>2026-04-06T10:13:13.001Z</time></trkpt><trkpt lat="37.220792005363265" lon="15.028493927685917"><ele>404.0</ele><time>2026-04-06T10:13:14.001Z</time></trkpt><trkpt lat="37.2208049227128" lon="15.028319531699472"><ele>403.5</ele><time>2026-04-06T10:13:15.001Z</time></trkpt><trkpt lat="37.220814216020415" lon="15.02814682830803"><ele>403.0</ele><time>2026-04-06T10:13:16.001Z</time></trkpt><trkpt lat="37.22082368836154" lon="15.02797470138241"><ele>402.25</ele><time>2026-04-06T10:13:17.001Z</time></trkpt><trkpt lat="37.220837866688605" lon="15.027801744405751"><ele>401.5</ele><time>2026-04-06T10:13:18.001Z</time></trkpt><trkpt lat="37.220852053771814" lon="15.027628261025782"><ele>400.75</ele><time>2026-04-06T10:13:19.001Z</time></trkpt><trkpt lat="37.22086364686273" lon="15.02745415972738"><ele>400.0</ele><time>2026-04-06T10:13:20.001Z</time></trkpt><trkpt lat="37.22087410206611" lon="15.027281952996056"><ele>400.0</ele><time>2026-04-06T10:13:21.001Z</time></trkpt><trkpt lat="37.22088449779195" lon="15.027116030868557"><ele>400.0</ele><time>2026-04-06T10:13:22.001Z</time></trkpt><trkpt lat="37.22089056344106" lon="15.026956733996638"><ele>400.0</ele><time>2026-04-06T10:13:23.001Z</time></trkpt><trkpt lat="37.2208840236331" lon="15.026803373113356"><ele>400.0</ele><time>2026-04-06T10:13:24.001Z</time></trkpt><trkpt lat="37.22086322411302" lon="15.026659798210112"><ele>398.75</ele><time>2026-04-06T10:13:25.001Z</time></trkpt><trkpt lat="37.22082893078943" lon="15.02652496818412"><ele>397.5</ele><time>2026-04-06T10:13:26.001Z</time></trkpt><trkpt lat="37.22079206587638" lon="15.026381119129676"><ele>396.25</ele><time>2026-04-06T10:13:27.001Z</time></trkpt><trkpt lat="37.220738813584596" lon="15.02623723184143"><ele>395.0</ele><time>2026-04-06T10:13:28.001Z</time></trkpt><trkpt lat="37.220680262252756" lon="15.026096765694334"><ele>397.5</ele><time>2026-04-06T10:13:29.001Z</time></trkpt><trkpt lat="37.22061873308643" lon="15.025961435118115"><ele>400.0</ele><time>2026-04-06T10:13:30.001Z</time></trkpt><trkpt lat="37.22057360988366" lon="15.025795448831692"><ele>402.5</ele><time>2026-04-06T10:13:31.001Z</time></trkpt><trkpt lat="37.2205248663163" lon="15.025629619780934"><ele>405.0</ele><time>2026-04-06T10:13:32.001Z</time></trkpt><trkpt lat="37.220480223860456" lon="15.025453868175592"><ele>405.0</ele><time>2026-04-06T10:13:33.001Z</time></trkpt><trkpt lat="37.22044945169475" lon="15.025284971230615"><ele>405.0</ele><time>2026-04-06T10:13:34.001Z</time></trkpt><trkpt lat="37.22042460491481" lon="15.02512502494543"><ele>405.0</ele><time>2026-04-06T10:13:35.001Z</time></trkpt><trkpt lat="37.22040267703168" lon="15.02496592678497"><ele>405.0</ele><time>2026-04-06T10:13:36.001Z</time></trkpt><trkpt lat="37.22038102240038" lon="15.024808112731073"><ele>404.0</ele><time>2026-04-06T10:13:37.001Z</time></trkpt><trkpt lat="37.22035946041876" lon="15.024645166196853"><ele>403.0</ele><time>2026-04-06T10:13:38.001Z</time></trkpt><trkpt lat="37.22033977452421" lon="15.024479095574954"><ele>402.0</ele><time>2026-04-06T10:13:39.001Z</time></trkpt><trkpt lat="37.220322359278754" lon="15.024311218448434"><ele>401.0</ele><time>2026-04-06T10:13:40.001Z</time></trkpt><trkpt lat="37.220301977261386" lon="15.024141489844908"><ele>400.0</ele><time>2026-04-06T10:13:41.001Z</time></trkpt><trkpt lat="37.220281698792604" lon="15.023971987047576"><ele>399.0</ele><time>2026-04-06T10:13:42.001Z</time></trkpt><trkpt lat="37.22026401495919" lon="15.023795751134966"><ele>398.0</ele><time>2026-04-06T10:13:43.001Z</time></trkpt><trkpt lat="37.22024559736654" lon="15.023615249924028"><ele>397.0</ele><time>2026-04-06T10:13:44.001Z</time></trkpt><trkpt lat="37.22022553750622" lon="15.023431512768259"><ele>396.25</ele><time>2026-04-06T10:13:45.001Z</time></trkpt><trkpt lat="37.220206636573685" lon="15.023248118844803"><ele>395.5</ele><time>2026-04-06T10:13:46.001Z</time></trkpt><trkpt lat="37.2201863280972" lon="15.023064020270875"><ele>394.75</ele><time>2026-04-06T10:13:47.001Z</time></trkpt><trkpt lat="37.220165163853345" lon="15.022876669352632"><ele>394.0</ele><time>2026-04-06T10:13:48.001Z</time></trkpt><trkpt lat="37.22014547845834" lon="15.022686772429099"><ele>394.0</ele><time>2026-04-06T10:13:49.001Z</time></trkpt><trkpt lat="37.22012486089961" lon="15.022495401181667"><ele>394.0</ele><time>2026-04-06T10:13:50.001Z</time></trkpt><trkpt lat="37.22010119200253" lon="15.022303379717398"><ele>394.0</ele><time>2026-04-06T10:13:51.001Z</time></trkpt><trkpt lat="37.22007520368224" lon="15.02210603848916"><ele>392.6666666666667</ele><time>2026-04-06T10:13:52.001Z</time></trkpt><trkpt lat="37.220043364939905" lon="15.021908324784349"><ele>391.33333333333337</ele><time>2026-04-06T10:13:53.001Z</time></trkpt><trkpt lat="37.220013260741794" lon="15.02170813367279"><ele>390.0</ele><time>2026-04-06T10:13:54.001Z</time></trkpt><trkpt lat="37.21999328075637" lon="15.021513473189287"><ele>389.75</ele><time>2026-04-06T10:13:55.001Z</time></trkpt><trkpt lat="37.21997702695269" lon="15.021322798276671"><ele>389.5</ele><time>2026-04-06T10:13:56.001Z</time></trkpt><trkpt lat="37.21996248227995" lon="15.021144656744854"><ele>389.25</ele><time>2026-04-06T10:13:57.001Z</time></trkpt><trkpt lat="37.2199528511035" lon="15.02097824279513"><ele>389.0</ele><time>2026-04-06T10:13:58.001Z</time></trkpt><trkpt lat="37.2199544141024" lon="15.020803824752385"><ele>389.5</ele><time>2026-04-06T10:13:59.001Z</time></trkpt><trkpt lat="37.219970680693194" lon="15.020619500324528"><ele>390.0</ele><time>2026-04-06T10:14:00.001Z</time></trkpt><trkpt lat="37.220001923296174" lon="15.020435474828247"><ele>390.5</ele><time>2026-04-06T10:14:01.001Z</time></trkpt><trkpt lat="37.220041861105884" lon="15.020259731514496"><ele>391.0</ele><time>2026-04-06T10:14:02.001Z</time></trkpt><trkpt lat="37.22009619343198" lon="15.02009766008129"><ele>391.5</ele><time>2026-04-06T10:14:03.001Z</time></trkpt><trkpt lat="37.220162334740266" lon="15.019935849773429"><ele>392.0</ele><time>2026-04-06T10:14:04.001Z</time></trkpt><trkpt lat="37.2202391473963" lon="15.019775260910578"><ele>392.5</ele><time>2026-04-06T10:14:05.001Z</time></trkpt><trkpt lat="37.22032498481073" lon="15.019626838801804"><ele>393.0</ele><time>2026-04-06T10:14:06.001Z</time></trkpt><trkpt lat="37.220419724173034" lon="15.019494269468536"><ele>393.0</ele><time>2026-04-06T10:14:07.001Z</time></trkpt><trkpt lat="37.22051836574002" lon="15.019378790123728"><ele>393.0</ele><time>2026-04-06T10:14:08.001Z</time></trkpt><trkpt lat="37.220616721872965" lon="15.019277913155802"><ele>393.0</ele><time>2026-04-06T10:14:09.001Z</time></trkpt><trkpt lat="37.22071437730733" lon="15.01918897487888"><ele>393.0</ele><time>2026-04-06T10:14:10.001Z</time></trkpt><trkpt lat="37.220807416541334" lon="15.01911098229092"><ele>393.3333333333333</ele><time>2026-04-06T10:14:11.001Z</time></trkpt><trkpt lat="37.220891411952906" lon="15.01904628192085"><ele>393.66666666666663</ele><time>2026-04-06T10:14:12.001Z</time></trkpt><trkpt lat="37.22096819481574" lon="15.018994079928225"><ele>394.0</ele><time>2026-04-06T10:14:13.001Z</time></trkpt><trkpt lat="37.22104490536536" lon="15.018963563492074"><ele>394.3333333333333</ele><time>2026-04-06T10:14:14.001Z</time></trkpt><trkpt lat="37.22112902814638" lon="15.018958769563499"><ele>394.66666666666663</ele><time>2026-04-06T10:14:15.001Z</time></trkpt><trkpt lat="37.22122303271962" lon="15.018972028488283"><ele>395.0</ele><time>2026-04-06T10:14:16.001Z</time></trkpt><trkpt lat="37.221325199412554" lon="15.019003509114901"><ele>395.0</ele><time>2026-04-06T10:14:17.001Z</time></trkpt><trkpt lat="37.22142331446688" lon="15.01905009548229"><ele>395.0</ele><time>2026-04-06T10:14:18.001Z</time></trkpt><trkpt lat="37.22151295979953" lon="15.019116684344683"><ele>395.0</ele><time>2026-04-06T10:14:19.001Z</time></trkpt><trkpt lat="37.22159610635728" lon="15.019201527885397"><ele>395.0</ele><time>2026-04-06T10:14:20.001Z</time></trkpt><trkpt lat="37.22167910131554" lon="15.019308726839181"><ele>395.0</ele><time>2026-04-06T10:14:21.001Z</time></trkpt><trkpt lat="37.22176096288602" lon="15.01943310894543"><ele>393.0</ele><time>2026-04-06T10:14:22.001Z</time></trkpt><trkpt lat="37.22184087211819" lon="15.019571435810754"><ele>391.0</ele><time>2026-04-06T10:14:23.001Z</time></trkpt><trkpt lat="37.22192075114801" lon="15.01972192058553"><ele>389.0</ele><time>2026-04-06T10:14:24.001Z</time></trkpt><trkpt lat="37.22199687579001" lon="15.019867140505331"><ele>387.0</ele><time>2026-04-06T10:14:25.001Z</time></trkpt><trkpt lat="37.22207589510646" lon="15.020012431337651"><ele>386.33333333333337</ele><time>2026-04-06T10:14:26.001Z</time></trkpt><trkpt lat="37.222160174794126" lon="15.020164408259612"><ele>385.6666666666667</ele><time>2026-04-06T10:14:27.001Z</time></trkpt><trkpt lat="37.22224366877424" lon="15.020322620612703"><ele>385.0</ele><time>2026-04-06T10:14:28.001Z</time></trkpt><trkpt lat="37.222326102847205" lon="15.020482768993142"><ele>385.0</ele><time>2026-04-06T10:14:29.001Z</time></trkpt><trkpt lat="37.22241433035269" lon="15.020641229703747"><ele>385.0</ele><time>2026-04-06T10:14:30.001Z</time></trkpt><trkpt lat="37.222500432383" lon="15.020797285739144"><ele>385.0</ele><time>2026-04-06T10:14:31.001Z</time></trkpt><trkpt lat="37.222581463452535" lon="15.020949299094353"><ele>383.0</ele><time>2026-04-06T10:14:32.001Z</time></trkpt><trkpt lat="37.222659131762896" lon="15.02109819103512"><ele>381.0</ele><time>2026-04-06T10:14:33.001Z</time></trkpt><trkpt lat="37.22273427943822" lon="15.021239830710082"><ele>379.0</ele><time>2026-04-06T10:14:34.001Z</time></trkpt><trkpt lat="37.22280787395874" lon="15.021373363631017"><ele>377.0</ele><time>2026-04-06T10:14:35.001Z</time></trkpt><trkpt lat="37.22288386949991" lon="15.021500744110426"><ele>377.0</ele><time>2026-04-06T10:14:36.001Z</time></trkpt><trkpt lat="37.22297028830181" lon="15.021619121827442"><ele>377.0</ele><time>2026-04-06T10:14:37.001Z</time></trkpt><trkpt lat="37.223067164005776" lon="15.021731841607682"><ele>377.0</ele><time>2026-04-06T10:14:38.001Z</time></trkpt><trkpt lat="37.22317654179155" lon="15.02183087787626"><ele>377.0</ele><time>2026-04-06T10:14:39.001Z</time></trkpt><trkpt lat="37.223289413821526" lon="15.021925780052515"><ele>377.25</ele><time>2026-04-06T10:14:40.001Z</time></trkpt><trkpt lat="37.223404597952296" lon="15.022020805348447"><ele>377.5</ele><time>2026-04-06T10:14:41.001Z</time></trkpt><trkpt lat="37.223524303161106" lon="15.022111719379861"><ele>377.75</ele><time>2026-04-06T10:14:42.001Z</time></trkpt><trkpt lat="37.22364482059963" lon="15.022202602107196"><ele>378.0</ele><time>2026-04-06T10:14:43.001Z</time></trkpt><trkpt lat="37.22375649174856" lon="15.022289464762427"><ele>378.0</ele><time>2026-04-06T10:14:44.001Z</time></trkpt><trkpt lat="37.22386107079324" lon="15.022370481686167"><ele>378.0</ele><time>2026-04-06T10:14:45.001Z</time></trkpt><trkpt lat="37.22395016625223" lon="15.02246376047061"><ele>378.0</ele><time>2026-04-06T10:14:46.001Z</time></trkpt><trkpt lat="37.22404995631423" lon="15.022517456984575"><ele>378.0</ele><time>2026-04-06T10:14:47.001Z</time></trkpt><trkpt lat="37.224135035467754" lon="15.022588914382423"><ele>377.59999999999997</ele><time>2026-04-06T10:14:48.001Z</time></trkpt><trkpt lat="37.224219986593965" lon="15.022655571493795"><ele>377.2</ele><time>2026-04-06T10:14:49.001Z</time></trkpt><trkpt lat="37.224311439952665" lon="15.022715875860966"><ele>376.8</ele><time>2026-04-06T10:14:50.001Z</time></trkpt><trkpt lat="37.22440108246291" lon="15.022791684645702"><ele>376.4</ele><time>2026-04-06T10:14:51.001Z</time></trkpt><trkpt lat="37.22450194294019" lon="15.022847534624919"><ele>376.0</ele><time>2026-04-06T10:14:52.001Z</time></trkpt><trkpt lat="37.22460738757247" lon="15.022899540163213"><ele>376.0</ele><time>2026-04-06T10:14:53.001Z</time></trkpt><trkpt lat="37.22471468394658" lon="15.022948522955485"><ele>376.0</ele><time>2026-04-06T10:14:54.001Z</time></trkpt><trkpt lat="37.22482460251306" lon="15.023001098539948"><ele>376.0</ele><time>2026-04-06T10:14:55.001Z</time></trkpt><trkpt lat="37.22493154718951" lon="15.023052240615401"><ele>376.0</ele><time>2026-04-06T10:14:56.001Z</time></trkpt><trkpt lat="37.22503318945559" lon="15.023100711625721"><ele>376.20000000000005</ele><time>2026-04-06T10:14:57.001Z</time></trkpt><trkpt lat="37.225133735725514" lon="15.023128907221995"><ele>376.40000000000003</ele><time>2026-04-06T10:14:58.001Z</time></trkpt><trkpt lat="37.22522405488037" lon="15.023172079111191"><ele>376.6</ele><time>2026-04-06T10:14:59.001Z</time></trkpt><trkpt lat="37.225312664186724" lon="15.023213282147463"><ele>376.8</ele><time>2026-04-06T10:15:00.001Z</time></trkpt><trkpt lat="37.22539961583888" lon="15.023254088388361"><ele>377.0</ele><time>2026-04-06T10:15:01.001Z</time></trkpt><trkpt lat="37.225486041557865" lon="15.02328825540848"><ele>376.33333333333337</ele><time>2026-04-06T10:15:02.001Z</time></trkpt><trkpt lat="37.22557014704426" lon="15.023315515823883"><ele>375.6666666666667</ele><time>2026-04-06T10:15:03.001Z</time></trkpt><trkpt lat="37.225651844672825" lon="15.023339462140195"><ele>375.0</ele><time>2026-04-06T10:15:04.001Z</time></trkpt><trkpt lat="37.22573301168284" lon="15.023359408614228"><ele>374.3333333333333</ele><time>2026-04-06T10:15:05.001Z</time></trkpt><trkpt lat="37.22581387876906" lon="15.023369680812035"><ele>373.66666666666663</ele><time>2026-04-06T10:15:06.001Z</time></trkpt><trkpt lat="37.22589361159118" lon="15.023372449083022"><ele>373.0</ele><time>2026-04-06T10:15:07.001Z</time></trkpt><trkpt lat="37.225979307363744" lon="15.023359872717796"><ele>373.0</ele><time>2026-04-06T10:15:08.001Z</time></trkpt><trkpt lat="37.22606983495174" lon="15.023342404183861"><ele>373.0</ele><time>2026-04-06T10:15:09.001Z</time></trkpt><trkpt lat="37.226160323187244" lon="15.023318999803745"><ele>373.0</ele><time>2026-04-06T10:15:10.001Z</time></trkpt><trkpt lat="37.22624899385103" lon="15.023288365591087"><ele>373.0</ele><time>2026-04-06T10:15:11.001Z</time></trkpt><trkpt lat="37.226336276390235" lon="15.023250980757997"><ele>373.0</ele><time>2026-04-06T10:15:12.001Z</time></trkpt><trkpt lat="37.226424105138506" lon="15.023209643273793"><ele>374.0</ele><time>2026-04-06T10:15:13.001Z</time></trkpt><trkpt lat="37.22651405291424" lon="15.023163735001704"><ele>375.0</ele><time>2026-04-06T10:15:14.001Z</time></trkpt><trkpt lat="37.22660394689378" lon="15.023115436140484"><ele>376.0</ele><time>2026-04-06T10:15:15.001Z</time></trkpt><trkpt lat="37.226693492038024" lon="15.023066526451002"><ele>377.0</ele><time>2026-04-06T10:15:16.001Z</time></trkpt><trkpt lat="37.22677905289977" lon="15.023010066934507"><ele>378.0</ele><time>2026-04-06T10:15:17.001Z</time></trkpt><trkpt lat="37.22686546861685" lon="15.022953690747082"><ele>378.0</ele><time>2026-04-06T10:15:18.001Z</time></trkpt><trkpt lat="37.22695398342795" lon="15.02290832182012"><ele>378.0</ele><time>2026-04-06T10:15:19.001Z</time></trkpt><trkpt lat="37.22704995013513" lon="15.02289717516251"><ele>378.0</ele><time>2026-04-06T10:15:20.001Z</time></trkpt><trkpt lat="37.2271398819995" lon="15.022851449997225"><ele>378.0</ele><time>2026-04-06T10:15:21.001Z</time></trkpt><trkpt lat="37.227228905081155" lon="15.02283501721296"><ele>378.0</ele><time>2026-04-06T10:15:22.001Z</time></trkpt><trkpt lat="37.2273127547049" lon="15.022822387026373"><ele>378.0</ele><time>2026-04-06T10:15:23.001Z</time></trkpt><trkpt lat="37.22739163571814" lon="15.022809803258903"><ele>378.0</ele><time>2026-04-06T10:15:24.001Z</time></trkpt><trkpt lat="37.22746915144797" lon="15.022823253030067"><ele>378.0</ele><time>2026-04-06T10:15:25.001Z</time></trkpt><trkpt lat="37.22754554315321" lon="15.022819979100444"><ele>378.0</ele><time>2026-04-06T10:15:26.001Z</time></trkpt><trkpt lat="37.22761872193253" lon="15.022800107455351"><ele>378.0</ele><time>2026-04-06T10:15:27.001Z</time></trkpt><trkpt lat="37.22769133001948" lon="15.022804710086517"><ele>378.0</ele><time>2026-04-06T10:15:28.001Z</time></trkpt><trkpt lat="37.227762107323926" lon="15.022801330697911"><ele>378.0</ele><time>2026-04-06T10:15:29.001Z</time></trkpt><trkpt lat="37.22783147174992" lon="15.022792691686925"><ele>378.0</ele><time>2026-04-06T10:15:30.001Z</time></trkpt><trkpt lat="37.227903595215516" lon="15.022811281748732"><ele>378.0</ele><time>2026-04-06T10:15:31.001Z</time></trkpt><trkpt lat="37.2279777420357" lon="15.022809324079782"><ele>378.0</ele><time>2026-04-06T10:15:32.001Z</time></trkpt><trkpt lat="37.22805261109666" lon="15.022806198450162"><ele>378.0</ele><time>2026-04-06T10:15:33.001Z</time></trkpt><trkpt lat="37.22812882503471" lon="15.022803016675121"><ele>378.0</ele><time>2026-04-06T10:15:34.001Z</time></trkpt><trkpt lat="37.22820625715304" lon="15.02279978404387"><ele>378.0</ele><time>2026-04-06T10:15:35.001Z</time></trkpt><trkpt lat="37.228284740812924" lon="15.022796063369404"><ele>378.1666666666667</ele><time>2026-04-06T10:15:36.001Z</time></trkpt><trkpt lat="37.228362314314786" lon="15.022773520796493"><ele>378.3333333333333</ele><time>2026-04-06T10:15:37.001Z</time></trkpt><trkpt lat="37.228440396737504" lon="15.02277294677299"><ele>378.5</ele><time>2026-04-06T10:15:38.001Z</time></trkpt><trkpt lat="37.22851947525749" lon="15.022768645751867"><ele>378.66666666666663</ele><time>2026-04-06T10:15:39.001Z</time></trkpt><trkpt lat="37.228599895492486" lon="15.022779752532706"><ele>378.8333333333333</ele><time>2026-04-06T10:15:40.001Z</time></trkpt><trkpt lat="37.22867998067013" lon="15.022775125607104"><ele>379.0</ele><time>2026-04-06T10:15:41.001Z</time></trkpt><trkpt lat="37.22876050662144" lon="15.022770473216106"><ele>379.0</ele><time>2026-04-06T10:15:42.001Z</time></trkpt><trkpt lat="37.22883928330953" lon="15.022765921888677"><ele>379.0</ele><time>2026-04-06T10:15:43.001Z</time></trkpt><trkpt lat="37.228920497891224" lon="15.022761229712081"><ele>379.0</ele><time>2026-04-06T10:15:44.001Z</time></trkpt><trkpt lat="37.22900096589015" lon="15.022757103578307"><ele>379.0</ele><time>2026-04-06T10:15:45.001Z</time></trkpt><trkpt lat="37.229080860897675" lon="15.022755018512676"><ele>379.0</ele><time>2026-04-06T10:15:46.001Z</time></trkpt><trkpt lat="37.229160183165384" lon="15.022752948394345"><ele>379.0</ele><time>2026-04-06T10:15:47.001Z</time></trkpt><trkpt lat="37.229236902404345" lon="15.022750946208882"><ele>379.28571428571433</ele><time>2026-04-06T10:15:48.001Z</time></trkpt><trkpt lat="37.22931237321007" lon="15.02274897660393"><ele>379.57142857142856</ele><time>2026-04-06T10:15:49.001Z</time></trkpt><trkpt lat="37.2293870503291" lon="15.022747027712414"><ele>379.8571428571429</ele><time>2026-04-06T10:15:50.001Z</time></trkpt><trkpt lat="37.229462989756115" lon="15.022743968363791"><ele>380.14285714285717</ele><time>2026-04-06T10:15:51.001Z</time></trkpt><trkpt lat="37.22953689155121" lon="15.022740879549076"><ele>380.42857142857144</ele><time>2026-04-06T10:15:52.001Z</time></trkpt><trkpt lat="37.22960965248514" lon="15.022737838417822"><ele>380.7142857142857</ele><time>2026-04-06T10:15:53.001Z</time></trkpt><trkpt lat="37.2296834751842" lon="15.02273475290885"><ele>381.0</ele><time>2026-04-06T10:15:54.001Z</time></trkpt><trkpt lat="37.22975739639061" lon="15.022731711633941"><ele>381.6666666666667</ele><time>2026-04-06T10:15:55.001Z</time></trkpt><trkpt lat="37.229830980255464" lon="15.02272868455098"><ele>382.33333333333337</ele><time>2026-04-06T10:15:56.001Z</time></trkpt><trkpt lat="37.229904857167035" lon="15.02270933720699"><ele>383.0</ele><time>2026-04-06T10:15:57.001Z</time></trkpt><trkpt lat="37.22998601352101" lon="15.02270970511417"><ele>383.6666666666667</ele><time>2026-04-06T10:15:58.001Z</time></trkpt><trkpt lat="37.23006851906779" lon="15.022699050107711"><ele>384.33333333333337</ele><time>2026-04-06T10:15:59.001Z</time></trkpt><trkpt lat="37.23015056917197" lon="15.022686177457285"><ele>385.0</ele><time>2026-04-06T10:16:00.001Z</time></trkpt><trkpt lat="37.230232835831686" lon="15.022667348234192"><ele>385.0</ele><time>2026-04-06T10:16:01.001Z</time></trkpt><trkpt lat="37.230320791035254" lon="15.022656803776096"><ele>385.0</ele><time>2026-04-06T10:16:02.001Z</time></trkpt><trkpt lat="37.23039584038818" lon="15.02258659741251"><ele>385.0</ele><time>2026-04-06T10:16:03.001Z</time></trkpt><trkpt lat="37.2304398442424" lon="15.022481405001953"><ele>385.0</ele><time>2026-04-06T10:16:04.001Z</time></trkpt><trkpt lat="37.23048073515966" lon="15.022380200163479"><ele>385.0</ele><time>2026-04-06T10:16:05.001Z</time></trkpt><trkpt lat="37.23051447067704" lon="15.02227183624599"><ele>385.2</ele><time>2026-04-06T10:16:06.001Z</time></trkpt><trkpt lat="37.230542771087414" lon="15.02215159514891"><ele>385.4</ele><time>2026-04-06T10:16:07.001Z</time></trkpt><trkpt lat="37.23056990089315" lon="15.022025522047445"><ele>385.6</ele><time>2026-04-06T10:16:08.001Z</time></trkpt><trkpt lat="37.23060275292465" lon="15.021894151177046"><ele>385.8</ele><time>2026-04-06T10:16:09.001Z</time></trkpt><trkpt lat="37.23063372126114" lon="15.021748424351827"><ele>386.0</ele><time>2026-04-06T10:16:10.001Z</time></trkpt><trkpt lat="37.23066427676249" lon="15.021593251570641"><ele>383.75</ele><time>2026-04-06T10:16:11.001Z</time></trkpt><trkpt lat="37.23069920617647" lon="15.021443258284924"><ele>381.5</ele><time>2026-04-06T10:16:12.001Z</time></trkpt><trkpt lat="37.23073091096563" lon="15.021302653358047"><ele>379.25</ele><time>2026-04-06T10:16:13.001Z</time></trkpt><trkpt lat="37.23076192568569" lon="15.02116482667588"><ele>377.0</ele><time>2026-04-06T10:16:14.001Z</time></trkpt><trkpt lat="37.23079647954591" lon="15.021023632942528"><ele>377.0</ele><time>2026-04-06T10:16:15.001Z</time></trkpt><trkpt lat="37.23083302232816" lon="15.020876290503399"><ele>377.0</ele><time>2026-04-06T10:16:16.001Z</time></trkpt><trkpt lat="37.23086694276959" lon="15.020720556844362"><ele>377.0</ele><time>2026-04-06T10:16:17.001Z</time></trkpt><trkpt lat="37.23089991629406" lon="15.02055983358977"><ele>377.0</ele><time>2026-04-06T10:16:18.001Z</time></trkpt><trkpt lat="37.23093611479687" lon="15.020402060995387"><ele>377.5</ele><time>2026-04-06T10:16:19.001Z</time></trkpt><trkpt lat="37.23097504124847" lon="15.020245791067016"><ele>378.0</ele><time>2026-04-06T10:16:20.001Z</time></trkpt><trkpt lat="37.231010833536644" lon="15.020089460496457"><ele>378.5</ele><time>2026-04-06T10:16:21.001Z</time></trkpt><trkpt lat="37.23104499131688" lon="15.019937107096778"><ele>379.0</ele><time>2026-04-06T10:16:22.001Z</time></trkpt><trkpt lat="37.23108063794431" lon="15.019785102268376"><ele>379.75</ele><time>2026-04-06T10:16:23.001Z</time></trkpt><trkpt lat="37.231118353622115" lon="15.01963645280717"><ele>380.5</ele><time>2026-04-06T10:16:24.001Z</time></trkpt><trkpt lat="37.23115882545458" lon="15.019489725500105"><ele>381.25</ele><time>2026-04-06T10:16:25.001Z</time></trkpt><trkpt lat="37.231197391408536" lon="15.019348607553063"><ele>382.0</ele><time>2026-04-06T10:16:26.001Z</time></trkpt><trkpt lat="37.23123513700908" lon="15.019214378154935"><ele>381.0</ele><time>2026-04-06T10:16:27.001Z</time></trkpt><trkpt lat="37.23126567521359" lon="15.019082922732702"><ele>380.0</ele><time>2026-04-06T10:16:28.001Z</time></trkpt><trkpt lat="37.231278135965425" lon="15.018950515259577"><ele>379.0</ele><time>2026-04-06T10:16:29.001Z</time></trkpt><trkpt lat="37.23127391009992" lon="15.018817588883044"><ele>378.0</ele><time>2026-04-06T10:16:30.001Z</time></trkpt><trkpt lat="37.23124321082602" lon="15.01867963644166"><ele>377.0</ele><time>2026-04-06T10:16:31.001Z</time></trkpt><trkpt lat="37.23118695682337" lon="15.018553657170415"><ele>377.0</ele><time>2026-04-06T10:16:32.001Z</time></trkpt><trkpt lat="37.23111949946343" lon="15.018434023944394"><ele>377.0</ele><time>2026-04-06T10:16:33.001Z</time></trkpt><trkpt lat="37.23105357447975" lon="15.018314815190262"><ele>377.0</ele><time>2026-04-06T10:16:34.001Z</time></trkpt><trkpt lat="37.230995183947755" lon="15.018187263528905"><ele>377.0</ele><time>2026-04-06T10:16:35.001Z</time></trkpt><trkpt lat="37.23094476245482" lon="15.018053250494116"><ele>374.25</ele><time>2026-04-06T10:16:36.001Z</time></trkpt><trkpt lat="37.23090864737438" lon="15.017910616422142"><ele>371.5</ele><time>2026-04-06T10:16:37.001Z</time></trkpt><trkpt lat="37.230887201028146" lon="15.01776094731809"><ele>368.75</ele><time>2026-04-06T10:16:38.001Z</time></trkpt><trkpt lat="37.23086465876532" lon="15.01760156274596"><ele>366.0</ele><time>2026-04-06T10:16:39.001Z</time></trkpt><trkpt lat="37.23082037998336" lon="15.017443421110054"><ele>367.75</ele><time>2026-04-06T10:16:40.001Z</time></trkpt><trkpt lat="37.23075703702393" lon="15.017291679711388"><ele>369.5</ele><time>2026-04-06T10:16:41.001Z</time></trkpt><trkpt lat="37.23068500342163" lon="15.017144667722933"><ele>371.25</ele><time>2026-04-06T10:16:42.001Z</time></trkpt><trkpt lat="37.23061401947967" lon="15.017004709919279"><ele>373.0</ele><time>2026-04-06T10:16:43.001Z</time></trkpt><trkpt lat="37.23054397604559" lon="15.01686612029565"><ele>373.0</ele><time>2026-04-06T10:16:44.001Z</time></trkpt><trkpt lat="37.23047399227601" lon="15.016724106437227"><ele>373.0</ele><time>2026-04-06T10:16:45.001Z</time></trkpt><trkpt lat="37.230402884435115" lon="15.01658027430724"><ele>373.0</ele><time>2026-04-06T10:16:46.001Z</time></trkpt><trkpt lat="37.23032805109662" lon="15.0164371336343"><ele>373.0</ele><time>2026-04-06T10:16:47.001Z</time></trkpt><trkpt lat="37.23026111125206" lon="15.016296393328703"><ele>370.25</ele><time>2026-04-06T10:16:48.001Z</time></trkpt><trkpt lat="37.23019535637253" lon="15.016157315584673"><ele>367.5</ele><time>2026-04-06T10:16:49.001Z</time></trkpt><trkpt lat="37.23012962245713" lon="15.016027065352006"><ele>364.75</ele><time>2026-04-06T10:16:50.001Z</time></trkpt><trkpt lat="37.23007346804294" lon="15.015908310653364"><ele>362.0</ele><time>2026-04-06T10:16:51.001Z</time></trkpt><trkpt lat="37.230030220424624" lon="15.015796979078617"><ele>360.6</ele><time>2026-04-06T10:16:52.001Z</time></trkpt><trkpt lat="37.23000267621068" lon="15.015683032978428"><ele>359.20000000000005</ele><time>2026-04-06T10:16:53.001Z</time></trkpt><trkpt lat="37.229993419818186" lon="15.015564689770843"><ele>357.8</ele><time>2026-04-06T10:16:54.001Z</time></trkpt><trkpt lat="37.23000460427081" lon="15.01544436176353"><ele>356.4</ele><time>2026-04-06T10:16:55.001Z</time></trkpt><trkpt lat="37.230025498297266" lon="15.015325034365004"><ele>355.0</ele><time>2026-04-06T10:16:56.001Z</time></trkpt><trkpt lat="37.23005700352711" lon="15.015207046112492"><ele>355.0</ele><time>2026-04-06T10:16:57.001Z</time></trkpt><trkpt lat="37.230105462773246" lon="15.015092539923433"><ele>355.0</ele><time>2026-04-06T10:16:58.001Z</time></trkpt><trkpt lat="37.23017047733929" lon="15.014985133928828"><ele>355.0</ele><time>2026-04-06T10:16:59.001Z</time></trkpt><trkpt lat="37.2302458775251" lon="15.0148861600651"><ele>355.0</ele><time>2026-04-06T10:17:00.001Z</time></trkpt><trkpt lat="37.230334621766566" lon="15.014801591488425"><ele>355.0</ele><time>2026-04-06T10:17:01.001Z</time></trkpt><trkpt lat="37.23043743306705" lon="15.014739882793599"><ele>354.75</ele><time>2026-04-06T10:17:02.001Z</time></trkpt><trkpt lat="37.23054881707223" lon="15.01469036157507"><ele>354.5</ele><time>2026-04-06T10:17:03.001Z</time></trkpt><trkpt lat="37.230669575951474" lon="15.014645328067003"><ele>354.25</ele><time>2026-04-06T10:17:04.001Z</time></trkpt><trkpt lat="37.23079648619379" lon="15.014598205334627"><ele>354.0</ele><time>2026-04-06T10:17:05.001Z</time></trkpt><trkpt lat="37.23093155148294" lon="15.014587087443694"><ele>353.0</ele><time>2026-04-06T10:17:06.001Z</time></trkpt><trkpt lat="37.23106692261269" lon="15.014570468710932"><ele>352.0</ele><time>2026-04-06T10:17:07.001Z</time></trkpt><trkpt lat="37.2312029491851" lon="15.014565773391123"><ele>351.0</ele><time>2026-04-06T10:17:08.001Z</time></trkpt><trkpt lat="37.23134341633763" lon="15.014555296897786"><ele>350.0</ele><time>2026-04-06T10:17:09.001Z</time></trkpt><trkpt lat="37.23148332967994" lon="15.01457528598137"><ele>348.33333333333337</ele><time>2026-04-06T10:17:10.001Z</time></trkpt><trkpt lat="37.231620180424244" lon="15.01463100173447"><ele>346.6666666666667</ele><time>2026-04-06T10:17:11.001Z</time></trkpt><trkpt lat="37.231770916674606" lon="15.014654379309775"><ele>345.0</ele><time>2026-04-06T10:17:12.001Z</time></trkpt><trkpt lat="37.23192615474807" lon="15.014701842540473"><ele>345.0</ele><time>2026-04-06T10:17:13.001Z</time></trkpt><trkpt lat="37.23207581563771" lon="15.014769752718099"><ele>345.0</ele><time>2026-04-06T10:17:14.001Z</time></trkpt><trkpt lat="37.23222439111337" lon="15.014816393178787"><ele>345.0</ele><time>2026-04-06T10:17:15.001Z</time></trkpt><trkpt lat="37.232383026094254" lon="15.014845671760686"><ele>345.0</ele><time>2026-04-06T10:17:16.001Z</time></trkpt><trkpt lat="37.23254165068701" lon="15.01491502330946"><ele>345.0</ele><time>2026-04-06T10:17:17.001Z</time></trkpt><trkpt lat="37.232710612574884" lon="15.014967345456144"><ele>345.0</ele><time>2026-04-06T10:17:18.001Z</time></trkpt><trkpt lat="37.23288028795377" lon="15.014999136905612"><ele>345.0</ele><time>2026-04-06T10:17:19.001Z</time></trkpt><trkpt lat="37.23304155336165" lon="15.015053384663018"><ele>345.0</ele><time>2026-04-06T10:17:20.001Z</time></trkpt><trkpt lat="37.23320078112211" lon="15.015102849905876"><ele>345.0</ele><time>2026-04-06T10:17:21.001Z</time></trkpt><trkpt lat="37.23336091915472" lon="15.015149619575272"><ele>344.3333333333333</ele><time>2026-04-06T10:17:22.001Z</time></trkpt><trkpt lat="37.23351919728561" lon="15.015197659983496"><ele>343.66666666666663</ele><time>2026-04-06T10:17:23.001Z</time></trkpt><trkpt lat="37.23367721941052" lon="15.015245523784017"><ele>343.0</ele><time>2026-04-06T10:17:24.001Z</time></trkpt><trkpt lat="37.233833737510395" lon="15.015292937329596"><ele>341.66666666666663</ele><time>2026-04-06T10:17:25.001Z</time></trkpt><trkpt lat="37.233988289591565" lon="15.015340873911557"><ele>340.3333333333333</ele><time>2026-04-06T10:17:26.001Z</time></trkpt><trkpt lat="37.23414172404295" lon="15.015391564782307"><ele>339.0</ele><time>2026-04-06T10:17:27.001Z</time></trkpt><trkpt lat="37.23429662109544" lon="15.015439544176349"><ele>339.0</ele><time>2026-04-06T10:17:28.001Z</time></trkpt><trkpt lat="37.23445475371276" lon="15.015489679935596"><ele>339.0</ele><time>2026-04-06T10:17:29.001Z</time></trkpt><trkpt lat="37.234617853360945" lon="15.015540022767414"><ele>339.0</ele><time>2026-04-06T10:17:30.001Z</time></trkpt><trkpt lat="37.23478488414132" lon="15.015588580342461"><ele>338.0</ele><time>2026-04-06T10:17:31.001Z</time></trkpt><trkpt lat="37.2349488212233" lon="15.015659013620656"><ele>337.0</ele><time>2026-04-06T10:17:32.001Z</time></trkpt><trkpt lat="37.23511310646763" lon="15.01570946796005"><ele>336.0</ele><time>2026-04-06T10:17:33.001Z</time></trkpt><trkpt lat="37.235273837331576" lon="15.015759603280562"><ele>336.0</ele><time>2026-04-06T10:17:34.001Z</time></trkpt><trkpt lat="37.23543372647744" lon="15.01580947490372"><ele>336.0</ele><time>2026-04-06T10:17:35.001Z</time></trkpt><trkpt lat="37.23559626473482" lon="15.015859132971725"><ele>336.0</ele><time>2026-04-06T10:17:36.001Z</time></trkpt><trkpt lat="37.23576126478875" lon="15.015908501814621"><ele>336.0</ele><time>2026-04-06T10:17:37.001Z</time></trkpt><trkpt lat="37.235928461153804" lon="15.015958527805127"><ele>336.0</ele><time>2026-04-06T10:17:38.001Z</time></trkpt><trkpt lat="37.23610073853142" lon="15.015990689920887"><ele>336.0</ele><time>2026-04-06T10:17:39.001Z</time></trkpt><trkpt lat="37.2362701419575" lon="15.016042330364884"><ele>336.0</ele><time>2026-04-06T10:17:40.001Z</time></trkpt><trkpt lat="37.23644129051137" lon="15.016094381426543"><ele>336.0</ele><time>2026-04-06T10:17:41.001Z</time></trkpt><trkpt lat="37.236611950462795" lon="15.016149302608675"><ele>336.0</ele><time>2026-04-06T10:17:42.001Z</time></trkpt><trkpt lat="37.23678208620564" lon="15.016207830343479"><ele>335.3333333333333</ele><time>2026-04-06T10:17:43.001Z</time></trkpt><trkpt lat="37.23695231734025" lon="15.016267719276975"><ele>334.66666666666663</ele><time>2026-04-06T10:17:44.001Z</time></trkpt><trkpt lat="37.237117321431356" lon="15.016348617439629"><ele>334.0</ele><time>2026-04-06T10:17:45.001Z</time></trkpt><trkpt lat="37.23728865016529" lon="15.016387892521898"><ele>334.0</ele><time>2026-04-06T10:17:46.001Z</time></trkpt><trkpt lat="37.23745513788733" lon="15.016449583898286"><ele>334.0</ele><time>2026-04-06T10:17:47.001Z</time></trkpt><trkpt lat="37.237618599310245" lon="15.016506757398105"><ele>334.0</ele><time>2026-04-06T10:17:48.001Z</time></trkpt><trkpt lat="37.237777761244466" lon="15.016583066192707"><ele>334.0</ele><time>2026-04-06T10:17:49.001Z</time></trkpt><trkpt lat="37.2379380384286" lon="15.016640879642669"><ele>334.0</ele><time>2026-04-06T10:17:50.001Z</time></trkpt><trkpt lat="37.23809966642208" lon="15.016681902963638"><ele>334.0</ele><time>2026-04-06T10:17:51.001Z</time></trkpt><trkpt lat="37.238253926696586" lon="15.016736529822767"><ele>334.66666666666663</ele><time>2026-04-06T10:17:52.001Z</time></trkpt><trkpt lat="37.238407062033765" lon="15.016786193304526"><ele>335.3333333333333</ele><time>2026-04-06T10:17:53.001Z</time></trkpt><trkpt lat="37.23855908044249" lon="15.016839504860178"><ele>336.0</ele><time>2026-04-06T10:17:54.001Z</time></trkpt><trkpt lat="37.23870932879351" lon="15.016895743480578"><ele>336.0</ele><time>2026-04-06T10:17:55.001Z</time></trkpt><trkpt lat="37.23886433660185" lon="15.016948333752987"><ele>336.0</ele><time>2026-04-06T10:17:56.001Z</time></trkpt><trkpt lat="37.23901806690406" lon="15.017001874590447"><ele>336.0</ele><time>2026-04-06T10:17:57.001Z</time></trkpt><trkpt lat="37.23916776396998" lon="15.01707734724635"><ele>336.6666666666667</ele><time>2026-04-06T10:17:58.001Z</time></trkpt><trkpt lat="37.23932332524761" lon="15.017134577162382"><ele>337.33333333333337</ele><time>2026-04-06T10:17:59.001Z</time></trkpt><trkpt lat="37.23948595385597" lon="15.01717260675867"><ele>338.0</ele><time>2026-04-06T10:18:00.001Z</time></trkpt><trkpt lat="37.239648586499335" lon="15.017233173448389"><ele>337.33333333333337</ele><time>2026-04-06T10:18:01.001Z</time></trkpt><trkpt lat="37.2398127050358" lon="15.017291377011526"><ele>336.6666666666667</ele><time>2026-04-06T10:18:02.001Z</time></trkpt><trkpt lat="37.2399760597645" lon="15.017351635321793"><ele>336.0</ele><time>2026-04-06T10:18:03.001Z</time></trkpt><trkpt lat="37.24014210022042" lon="15.017410706530356"><ele>336.0</ele><time>2026-04-06T10:18:04.001Z</time></trkpt><trkpt lat="37.240309390133895" lon="15.017467737911987"><ele>336.0</ele><time>2026-04-06T10:18:05.001Z</time></trkpt><trkpt lat="37.2404765932031" lon="15.017527013872021"><ele>336.0</ele><time>2026-04-06T10:18:06.001Z</time></trkpt><trkpt lat="37.24064432454423" lon="15.017586730462575"><ele>337.6666666666667</ele><time>2026-04-06T10:18:07.001Z</time></trkpt><trkpt lat="37.24081343655382" lon="15.017645890830424"><ele>339.33333333333337</ele><time>2026-04-06T10:18:08.001Z</time></trkpt><trkpt lat="37.24098315171839" lon="15.017706928605136"><ele>341.0</ele><time>2026-04-06T10:18:09.001Z</time></trkpt><trkpt lat="37.24115354489286" lon="15.017770682584855"><ele>341.0</ele><time>2026-04-06T10:18:10.001Z</time></trkpt><trkpt lat="37.24132533045818" lon="15.017834847439065"><ele>341.0</ele><time>2026-04-06T10:18:11.001Z</time></trkpt><trkpt lat="37.24149867770954" lon="15.01789651000623"><ele>341.0</ele><time>2026-04-06T10:18:12.001Z</time></trkpt><trkpt lat="37.24167379039857" lon="15.017954233270597"><ele>340.33333333333337</ele><time>2026-04-06T10:18:13.001Z</time></trkpt><trkpt lat="37.24184939129017" lon="15.018011384892343"><ele>339.6666666666667</ele><time>2026-04-06T10:18:14.001Z</time></trkpt><trkpt lat="37.24201996696944" lon="15.01809098601584"><ele>339.0</ele><time>2026-04-06T10:18:15.001Z</time></trkpt><trkpt lat="37.24220221782175" lon="15.018134571297251"><ele>339.3333333333333</ele><time>2026-04-06T10:18:16.001Z</time></trkpt><trkpt lat="37.242381109781384" lon="15.01820536109895"><ele>339.66666666666663</ele><time>2026-04-06T10:18:17.001Z</time></trkpt><trkpt lat="37.242558507829784" lon="15.01827279968202"><ele>340.0</ele><time>2026-04-06T10:18:18.001Z</time></trkpt><trkpt lat="37.24273848748058" lon="15.018337252454529"><ele>339.66666666666663</ele><time>2026-04-06T10:18:19.001Z</time></trkpt><trkpt lat="37.24291819504301" lon="15.018400639840404"><ele>339.3333333333333</ele><time>2026-04-06T10:18:20.001Z</time></trkpt><trkpt lat="37.24309705455443" lon="15.018463051384849"><ele>339.0</ele><time>2026-04-06T10:18:21.001Z</time></trkpt><trkpt lat="37.243276294437145" lon="15.018529788974538"><ele>339.0</ele><time>2026-04-06T10:18:22.001Z</time></trkpt><trkpt lat="37.243455008883664" lon="15.018597962281863"><ele>339.0</ele><time>2026-04-06T10:18:23.001Z</time></trkpt><trkpt lat="37.24363307173256" lon="15.018669173697953"><ele>339.0</ele><time>2026-04-06T10:18:24.001Z</time></trkpt><trkpt lat="37.243810654622656" lon="15.018744404832672"><ele>339.0</ele><time>2026-04-06T10:18:25.001Z</time></trkpt><trkpt lat="37.243931841842404" lon="15.018746299932875"><ele>339.0</ele><time>2026-04-06T10:18:26Z</time></trkpt><trkpt lat="37.2440857780189" lon="15.018807347441625"><ele>339.0</ele><time>2026-04-06T10:18:27Z</time></trkpt><trkpt lat="37.2442439333454" lon="15.01886204726132"><ele>339.0</ele><time>2026-04-06T10:18:28Z</time></trkpt><trkpt lat="37.24440131910352" lon="15.018915900858108"><ele>339.6666666666667</ele><time>2026-04-06T10:18:29Z</time></trkpt><trkpt lat="37.244557838618576" lon="15.018969947796178"><ele>340.33333333333337</ele><time>2026-04-06T10:18:30Z</time></trkpt><trkpt lat="37.244709344255305" lon="15.019014097149217"><ele>341.0</ele><time>2026-04-06T10:18:31Z</time></trkpt><trkpt lat="37.244860007478" lon="15.019032752249526"><ele>342.33333333333337</ele><time>2026-04-06T10:18:32Z</time></trkpt><trkpt lat="37.24501217138506" lon="15.019037304920502"><ele>343.6666666666667</ele><time>2026-04-06T10:18:33Z</time></trkpt><trkpt lat="37.24516987558108" lon="15.01902527424111"><ele>345.0</ele><time>2026-04-06T10:18:34Z</time></trkpt><trkpt lat="37.245331757586705" lon="15.018995024690012"><ele>345.0</ele><time>2026-04-06T10:18:35Z</time></trkpt><trkpt lat="37.24549239606063" lon="15.01895307851801"><ele>345.0</ele><time>2026-04-06T10:18:36Z</time></trkpt><trkpt lat="37.24565416564683" lon="15.018910987552887"><ele>345.0</ele><time>2026-04-06T10:18:37Z</time></trkpt><trkpt lat="37.24582055130829" lon="15.01887431488028"><ele>344.3333333333333</ele><time>2026-04-06T10:18:38Z</time></trkpt><trkpt lat="37.24597850314445" lon="15.018847170097755"><ele>343.66666666666663</ele><time>2026-04-06T10:18:39Z</time></trkpt><trkpt lat="37.246136415474346" lon="15.018823100220411"><ele>343.0</ele><time>2026-04-06T10:18:40Z</time></trkpt><trkpt lat="37.246287199120054" lon="15.018785826290921"><ele>343.0</ele><time>2026-04-06T10:18:41Z</time></trkpt><trkpt lat="37.24642785965736" lon="15.018721992949294"><ele>343.0</ele><time>2026-04-06T10:18:42Z</time></trkpt><trkpt lat="37.24656752276838" lon="15.018625514056287"><ele>343.0</ele><time>2026-04-06T10:18:43Z</time></trkpt><trkpt lat="37.24670022846161" lon="15.018498821575037"><ele>342.0</ele><time>2026-04-06T10:18:44Z</time></trkpt><trkpt lat="37.24682427333604" lon="15.01835889065984"><ele>341.0</ele><time>2026-04-06T10:18:45Z</time></trkpt><trkpt lat="37.246948217552784" lon="15.018225370865288"><ele>340.0</ele><time>2026-04-06T10:18:46Z</time></trkpt><trkpt lat="37.24706871046044" lon="15.018102914466683"><ele>339.75</ele><time>2026-04-06T10:18:47Z</time></trkpt><trkpt lat="37.247181471762374" lon="15.017984052791919"><ele>339.5</ele><time>2026-04-06T10:18:48Z</time></trkpt><trkpt lat="37.24727585384095" lon="15.017877878987424"><ele>339.25</ele><time>2026-04-06T10:18:49Z</time></trkpt><trkpt lat="37.24734066745909" lon="15.017756183663098"><ele>339.0</ele><time>2026-04-06T10:18:50Z</time></trkpt><trkpt lat="37.247373778993754" lon="15.017611226162078"><ele>338.5</ele><time>2026-04-06T10:18:51Z</time></trkpt><trkpt lat="37.2473686734741" lon="15.017456424589692"><ele>338.0</ele><time>2026-04-06T10:18:52Z</time></trkpt><trkpt lat="37.24732515178022" lon="15.017274567896049"><ele>337.5</ele><time>2026-04-06T10:18:53Z</time></trkpt><trkpt lat="37.247270280828374" lon="15.017078980744571"><ele>337.0</ele><time>2026-04-06T10:18:54Z</time></trkpt><trkpt lat="37.247226864802315" lon="15.01687895950821"><ele>337.0</ele><time>2026-04-06T10:18:55Z</time></trkpt><trkpt lat="37.24719428271193" lon="15.016698043281464"><ele>337.0</ele><time>2026-04-06T10:18:56Z</time></trkpt><trkpt lat="37.24716238708297" lon="15.01652983471215"><ele>337.0</ele><time>2026-04-06T10:18:57Z</time></trkpt><trkpt lat="37.2471297423763" lon="15.0163638938345"><ele>337.0</ele><time>2026-04-06T10:18:58Z</time></trkpt><trkpt lat="37.247105507150955" lon="15.016207109551369"><ele>336.8</ele><time>2026-04-06T10:18:59Z</time></trkpt><trkpt lat="37.24710448736053" lon="15.016065051916389"><ele>336.6</ele><time>2026-04-06T10:19:00Z</time></trkpt><trkpt lat="37.24714841975451" lon="15.015954101043635"><ele>336.40000000000003</ele><time>2026-04-06T10:19:01Z</time></trkpt><trkpt lat="37.24720436494883" lon="15.015857575359068"><ele>336.20000000000005</ele><time>2026-04-06T10:19:02Z</time></trkpt><trkpt lat="37.24728470839996" lon="15.015765304294707"><ele>336.0</ele><time>2026-04-06T10:19:03Z</time></trkpt><trkpt lat="37.24739082228233" lon="15.015646013905034"><ele>334.0</ele><time>2026-04-06T10:19:04Z</time></trkpt><trkpt lat="37.247501290123516" lon="15.015522448405475"><ele>332.0</ele><time>2026-04-06T10:19:05Z</time></trkpt><trkpt lat="37.24759548222621" lon="15.015393194286263"><ele>330.0</ele><time>2026-04-06T10:19:06Z</time></trkpt><trkpt lat="37.247707609240784" lon="15.015269288020379"><ele>328.0</ele><time>2026-04-06T10:19:07Z</time></trkpt><trkpt lat="37.24781618823883" lon="15.015144177056698"><ele>328.0</ele><time>2026-04-06T10:19:08Z</time></trkpt><trkpt lat="37.24793587395628" lon="15.015041770081416"><ele>328.0</ele><time>2026-04-06T10:19:09Z</time></trkpt><trkpt lat="37.2480520595212" lon="15.014938101081656"><ele>328.0</ele><time>2026-04-06T10:19:10Z</time></trkpt><trkpt lat="37.24818115063254" lon="15.014853857312533"><ele>328.0</ele><time>2026-04-06T10:19:11Z</time></trkpt><trkpt lat="37.24832127086348" lon="15.014786962536503"><ele>326.66666666666663</ele><time>2026-04-06T10:19:12Z</time></trkpt><trkpt lat="37.248475997460254" lon="15.014724166772476"><ele>325.3333333333333</ele><time>2026-04-06T10:19:13Z</time></trkpt><trkpt lat="37.24864410672106" lon="15.01465931653787"><ele>324.0</ele><time>2026-04-06T10:19:14.001Z</time></trkpt><trkpt lat="37.248810542715255" lon="15.01459511182916"><ele>324.0</ele><time>2026-04-06T10:19:15.001Z</time></trkpt><trkpt lat="37.24896458698338" lon="15.014514530600644"><ele>324.0</ele><time>2026-04-06T10:19:16.001Z</time></trkpt><trkpt lat="37.2491341414874" lon="15.014466530141673"><ele>324.0</ele><time>2026-04-06T10:19:17.001Z</time></trkpt><trkpt lat="37.24930198087743" lon="15.01439975478147"><ele>324.0</ele><time>2026-04-06T10:19:18.001Z</time></trkpt><trkpt lat="37.24946611755567" lon="15.014336641497227"><ele>324.0</ele><time>2026-04-06T10:19:19.001Z</time></trkpt><trkpt lat="37.249623081023195" lon="15.014276270586057"><ele>324.0</ele><time>2026-04-06T10:19:20.001Z</time></trkpt><trkpt lat="37.24977590893516" lon="15.01421694848195"><ele>324.6666666666667</ele><time>2026-04-06T10:19:21.001Z</time></trkpt><trkpt lat="37.24992675490073" lon="15.014156702562579"><ele>325.33333333333337</ele><time>2026-04-06T10:19:22.001Z</time></trkpt><trkpt lat="37.25007983502893" lon="15.014096713495396"><ele>326.0</ele><time>2026-04-06T10:19:23.001Z</time></trkpt><trkpt lat="37.25022932255798" lon="15.01403589065187"><ele>326.0</ele><time>2026-04-06T10:19:24.001Z</time></trkpt><trkpt lat="37.25036684391975" lon="15.013982413198205"><ele>326.0</ele><time>2026-04-06T10:19:25.001Z</time></trkpt><trkpt lat="37.2504984599418" lon="15.013930552575603"><ele>326.0</ele><time>2026-04-06T10:19:26.001Z</time></trkpt><trkpt lat="37.25062195284768" lon="15.013863998915012"><ele>326.0</ele><time>2026-04-06T10:19:27.001Z</time></trkpt><trkpt lat="37.25074967860312" lon="15.013827371336632"><ele>325.20000000000005</ele><time>2026-04-06T10:19:28.001Z</time></trkpt><trkpt lat="37.25086229053975" lon="15.013829439814083"><ele>324.40000000000003</ele><time>2026-04-06T10:19:29.001Z</time></trkpt><trkpt lat="37.25095591954565" lon="15.013830879689676"><ele>323.6</ele><time>2026-04-06T10:19:30.001Z</time></trkpt><trkpt lat="37.25104525762901" lon="15.013843151242812"><ele>322.8</ele><time>2026-04-06T10:19:31.001Z</time></trkpt><trkpt lat="37.2511389500714" lon="15.01385032831295"><ele>322.0</ele><time>2026-04-06T10:19:32.001Z</time></trkpt><trkpt lat="37.251235002666625" lon="15.013886301671109"><ele>322.0</ele><time>2026-04-06T10:19:33.001Z</time></trkpt><trkpt lat="37.251334503730924" lon="15.013930803167167"><ele>322.0</ele><time>2026-04-06T10:19:34.001Z</time></trkpt><trkpt lat="37.251429569440674" lon="15.013998214422779"><ele>322.0</ele><time>2026-04-06T10:19:35.001Z</time></trkpt><trkpt lat="37.25152198677814" lon="15.014081218189387"><ele>322.0</ele><time>2026-04-06T10:19:36.001Z</time></trkpt><trkpt lat="37.251612772042606" lon="15.014175562819766"><ele>322.0</ele><time>2026-04-06T10:19:37.001Z</time></trkpt><trkpt lat="37.25169837131542" lon="15.014291564244493"><ele>320.0</ele><time>2026-04-06T10:19:38.001Z</time></trkpt><trkpt lat="37.2517773269037" lon="15.014426621129308"><ele>318.0</ele><time>2026-04-06T10:19:39Z</time></trkpt><trkpt lat="37.2518586104203" lon="15.014569996051465"><ele>316.0</ele><time>2026-04-06T10:19:40Z</time></trkpt><trkpt lat="37.25194649960756" lon="15.014721436586425"><ele>314.0</ele><time>2026-04-06T10:19:41Z</time></trkpt><trkpt lat="37.25203885828269" lon="15.014880873537079"><ele>315.33333333333337</ele><time>2026-04-06T10:19:42Z</time></trkpt><trkpt lat="37.25213226975489" lon="15.015035597115777"><ele>316.6666666666667</ele><time>2026-04-06T10:19:43Z</time></trkpt><trkpt lat="37.252222888535435" lon="15.0151929526351"><ele>318.0</ele><time>2026-04-06T10:19:44Z</time></trkpt><trkpt lat="37.25231860660009" lon="15.015340697421388"><ele>315.5</ele><time>2026-04-06T10:19:45Z</time></trkpt><trkpt lat="37.25240582762992" lon="15.01548490589255"><ele>313.0</ele><time>2026-04-06T10:19:46Z</time></trkpt><trkpt lat="37.25248032904052" lon="15.015617748885598"><ele>310.5</ele><time>2026-04-06T10:19:47Z</time></trkpt><trkpt lat="37.25255161277205" lon="15.015736610037937"><ele>308.0</ele><time>2026-04-06T10:19:48Z</time></trkpt><trkpt lat="37.25262895853194" lon="15.015848890465783"><ele>308.0</ele><time>2026-04-06T10:19:49Z</time></trkpt><trkpt lat="37.25271533547598" lon="15.015948794215289"><ele>308.0</ele><time>2026-04-06T10:19:50Z</time></trkpt><trkpt lat="37.25281397894137" lon="15.016030626831254"><ele>308.0</ele><time>2026-04-06T10:19:51Z</time></trkpt><trkpt lat="37.252921048520264" lon="15.016099568330391"><ele>308.0</ele><time>2026-04-06T10:19:52Z</time></trkpt><trkpt lat="37.253032663506005" lon="15.016152519427875"><ele>304.8</ele><time>2026-04-06T10:19:53Z</time></trkpt><trkpt lat="37.2531410796849" lon="15.016196607079467"><ele>301.6</ele><time>2026-04-06T10:19:54Z</time></trkpt><trkpt lat="37.25323169826042" lon="15.016245463814819"><ele>298.4</ele><time>2026-04-06T10:19:55Z</time></trkpt><trkpt lat="37.253296811650685" lon="15.016282261830046"><ele>295.2</ele><time>2026-04-06T10:19:56Z</time></trkpt><trkpt lat="37.25339883673063" lon="15.016222296603951"><ele>292.0</ele><time>2026-04-06T10:19:58Z</time></trkpt><trkpt lat="37.2534297065834" lon="15.016145141589023"><ele>292.0</ele><time>2026-04-06T10:19:59Z</time></trkpt><trkpt lat="37.25339129801191" lon="15.016036716695346"><ele>292.0</ele><time>2026-04-06T10:20:00Z</time></trkpt><trkpt lat="37.253333509708575" lon="15.015955422040252"><ele>292.0</ele><time>2026-04-06T10:20:01Z</time></trkpt><trkpt lat="37.25325385170629" lon="15.015883147196961"><ele>292.0</ele><time>2026-04-06T10:20:02Z</time></trkpt><trkpt lat="37.25317405874141" lon="15.015800547319687"><ele>292.0</ele><time>2026-04-06T10:20:03Z</time></trkpt><trkpt lat="37.2530988933896" lon="15.015696519565882"><ele>293.8</ele><time>2026-04-06T10:20:04Z</time></trkpt><trkpt lat="37.253017606945534" lon="15.015594021704327"><ele>295.6</ele><time>2026-04-06T10:20:05Z</time></trkpt><trkpt lat="37.252941516401776" lon="15.01550150903612"><ele>297.40000000000003</ele><time>2026-04-06T10:20:06Z</time></trkpt><trkpt lat="37.25287697710129" lon="15.01541062443283"><ele>299.2</ele><time>2026-04-06T10:20:07Z</time></trkpt><trkpt lat="37.25283477832446" lon="15.015306397770885"><ele>301.0</ele><time>2026-04-06T10:20:08Z</time></trkpt><trkpt lat="37.2528117207431" lon="15.01519334797233"><ele>301.0</ele><time>2026-04-06T10:20:09Z</time></trkpt><trkpt lat="37.25280475381728" lon="15.015073449679562"><ele>301.0</ele><time>2026-04-06T10:20:10Z</time></trkpt><trkpt lat="37.25281350208224" lon="15.014953416834413"><ele>301.0</ele><time>2026-04-06T10:20:11Z</time></trkpt><trkpt lat="37.25283258787992" lon="15.014834433838699"><ele>301.0</ele><time>2026-04-06T10:20:12Z</time></trkpt><trkpt lat="37.2528663761447" lon="15.014723472886304"><ele>301.0</ele><time>2026-04-06T10:20:13Z</time></trkpt><trkpt lat="37.25291065223102" lon="15.014610982817336"><ele>301.40000000000003</ele><time>2026-04-06T10:20:14Z</time></trkpt><trkpt lat="37.25296346490577" lon="15.0144956782009"><ele>301.8</ele><time>2026-04-06T10:20:15Z</time></trkpt><trkpt lat="37.25302952635616" lon="15.014385731718635"><ele>302.20000000000005</ele><time>2026-04-06T10:20:16Z</time></trkpt><trkpt lat="37.25310711460506" lon="15.01427842599722"><ele>302.6</ele><time>2026-04-06T10:20:17Z</time></trkpt><trkpt lat="37.253206966815405" lon="15.014202679180135"><ele>303.0</ele><time>2026-04-06T10:20:18Z</time></trkpt><trkpt lat="37.253301683154916" lon="15.014116200994236"><ele>301.75</ele><time>2026-04-06T10:20:19Z</time></trkpt><trkpt lat="37.2534122900011" lon="15.01406788088814"><ele>300.5</ele><time>2026-04-06T10:20:20Z</time></trkpt><trkpt lat="37.25353192805728" lon="15.01405468406933"><ele>299.25</ele><time>2026-04-06T10:20:21Z</time></trkpt><trkpt lat="37.25365747523878" lon="15.014044293260772"><ele>298.0</ele><time>2026-04-06T10:20:22Z</time></trkpt><trkpt lat="37.253792505654204" lon="15.014022072479847"><ele>298.0</ele><time>2026-04-06T10:20:23Z</time></trkpt><trkpt lat="37.25392736229585" lon="15.014032306239644"><ele>298.0</ele><time>2026-04-06T10:20:24Z</time></trkpt><trkpt lat="37.254057216371386" lon="15.014032003436595"><ele>298.0</ele><time>2026-04-06T10:20:25Z</time></trkpt><trkpt lat="37.25418526471436" lon="15.014026789263793"><ele>298.0</ele><time>2026-04-06T10:20:26Z</time></trkpt><trkpt lat="37.25431065743816" lon="15.014019503332097"><ele>295.5</ele><time>2026-04-06T10:20:27Z</time></trkpt><trkpt lat="37.25442448105437" lon="15.014012411445014"><ele>293.0</ele><time>2026-04-06T10:20:28Z</time></trkpt><trkpt lat="37.254531205857624" lon="15.013976424479374"><ele>290.5</ele><time>2026-04-06T10:20:29Z</time></trkpt><trkpt lat="37.254627808060164" lon="15.013874930738211"><ele>288.0</ele><time>2026-04-06T10:20:30Z</time></trkpt><trkpt lat="37.254718946375625" lon="15.013737750871625"><ele>284.5</ele><time>2026-04-06T10:20:31Z</time></trkpt><trkpt lat="37.254814958366865" lon="15.013611233626769"><ele>281.0</ele><time>2026-04-06T10:20:32Z</time></trkpt><trkpt lat="37.254939537303954" lon="15.01353948866587"><ele>277.5</ele><time>2026-04-06T10:20:33Z</time></trkpt><trkpt lat="37.255057780491626" lon="15.013457024011796"><ele>274.0</ele><time>2026-04-06T10:20:34Z</time></trkpt><trkpt lat="37.25518805125733" lon="15.013434404845002"><ele>274.0</ele><time>2026-04-06T10:20:35Z</time></trkpt><trkpt lat="37.25531246687616" lon="15.01340590647573"><ele>274.0</ele><time>2026-04-06T10:20:36Z</time></trkpt><trkpt lat="37.255433738798416" lon="15.01338134371982"><ele>274.0</ele><time>2026-04-06T10:20:37Z</time></trkpt><trkpt lat="37.25555099163449" lon="15.013341264946563"><ele>274.0</ele><time>2026-04-06T10:20:38Z</time></trkpt><trkpt lat="37.25566866617683" lon="15.013320362288969"><ele>272.0</ele><time>2026-04-06T10:20:39Z</time></trkpt><trkpt lat="37.2557819687056" lon="15.013299149974175"><ele>270.0</ele><time>2026-04-06T10:20:40Z</time></trkpt><trkpt lat="37.25589383560293" lon="15.013282119220282"><ele>268.0</ele><time>2026-04-06T10:20:41Z</time></trkpt><trkpt lat="37.256001939792405" lon="15.013266338064769"><ele>266.0</ele><time>2026-04-06T10:20:42Z</time></trkpt><trkpt lat="37.25610048918392" lon="15.013234895155566"><ele>264.0</ele><time>2026-04-06T10:20:43Z</time></trkpt><trkpt lat="37.256186551147366" lon="15.0131693704037"><ele>264.0</ele><time>2026-04-06T10:20:44Z</time></trkpt><trkpt lat="37.25626192302289" lon="15.01306335177631"><ele>264.0</ele><time>2026-04-06T10:20:45Z</time></trkpt><trkpt lat="37.25632672614551" lon="15.01290891212045"><ele>264.0</ele><time>2026-04-06T10:20:46Z</time></trkpt><trkpt lat="37.25638577118139" lon="15.012745579875642"><ele>264.0</ele><time>2026-04-06T10:20:47Z</time></trkpt><trkpt lat="37.25645334095411" lon="15.012603533906269"><ele>261.75</ele><time>2026-04-06T10:20:48Z</time></trkpt><trkpt lat="37.25651993597903" lon="15.012464689553191"><ele>259.5</ele><time>2026-04-06T10:20:49Z</time></trkpt><trkpt lat="37.256565801107214" lon="15.012304007659083"><ele>257.25</ele><time>2026-04-06T10:20:50Z</time></trkpt><trkpt lat="37.256599831084024" lon="15.012138688905361"><ele>255.0</ele><time>2026-04-06T10:20:51Z</time></trkpt><trkpt lat="37.25662963104125" lon="15.011988741014505"><ele>255.0</ele><time>2026-04-06T10:20:52Z</time></trkpt><trkpt lat="37.256660899543206" lon="15.01185071727273"><ele>255.0</ele><time>2026-04-06T10:20:53Z</time></trkpt><trkpt lat="37.25669174323877" lon="15.011712676382219"><ele>255.0</ele><time>2026-04-06T10:20:54Z</time></trkpt><trkpt lat="37.25671959300214" lon="15.011575486528768"><ele>255.0</ele><time>2026-04-06T10:20:55Z</time></trkpt><trkpt lat="37.25676856883239" lon="15.011451237664401"><ele>258.0</ele><time>2026-04-06T10:20:56Z</time></trkpt><trkpt lat="37.25686096185229" lon="15.011370034354744"><ele>261.0</ele><time>2026-04-06T10:20:57Z</time></trkpt><trkpt lat="37.25696792651002" lon="15.011288110361676"><ele>264.0</ele><time>2026-04-06T10:20:58Z</time></trkpt><trkpt lat="37.2570851898906" lon="15.011171776176697"><ele>267.0</ele><time>2026-04-06T10:20:59Z</time></trkpt><trkpt lat="37.25720597390703" lon="15.011081534135455"><ele>261.75</ele><time>2026-04-06T10:21:00Z</time></trkpt><trkpt lat="37.25731670446778" lon="15.01099175662301"><ele>256.5</ele><time>2026-04-06T10:21:01Z</time></trkpt><trkpt lat="37.25741712111307" lon="15.010873913049885"><ele>251.25</ele><time>2026-04-06T10:21:02Z</time></trkpt><trkpt lat="37.25750752394723" lon="15.010716715643863"><ele>246.0</ele><time>2026-04-06T10:21:03Z</time></trkpt><trkpt lat="37.25758899261405" lon="15.01054647402875"><ele>246.0</ele><time>2026-04-06T10:21:04Z</time></trkpt><trkpt lat="37.257668076423855" lon="15.010382399586549"><ele>246.0</ele><time>2026-04-06T10:21:05Z</time></trkpt><trkpt lat="37.25774762824548" lon="15.010231541488997"><ele>246.0</ele><time>2026-04-06T10:21:06Z</time></trkpt><trkpt lat="37.25781420127086" lon="15.010094074205357"><ele>246.0</ele><time>2026-04-06T10:21:07Z</time></trkpt><trkpt lat="37.257856672818015" lon="15.009946407213162"><ele>246.0</ele><time>2026-04-06T10:21:08Z</time></trkpt><trkpt lat="37.25786273478601" lon="15.009764563076212"><ele>246.0</ele><time>2026-04-06T10:21:09Z</time></trkpt><trkpt lat="37.25785042064276" lon="15.009585370284475"><ele>246.0</ele><time>2026-04-06T10:21:10Z</time></trkpt><trkpt lat="37.25785526869615" lon="15.00942077688862"><ele>246.0</ele><time>2026-04-06T10:21:11Z</time></trkpt><trkpt lat="37.25786826671399" lon="15.009280184529873"><ele>244.75</ele><time>2026-04-06T10:21:12Z</time></trkpt><trkpt lat="37.257891482241405" lon="15.009142343620034"><ele>243.5</ele><time>2026-04-06T10:21:13Z</time></trkpt><trkpt lat="37.25796285020305" lon="15.009027501988204"><ele>242.25</ele><time>2026-04-06T10:21:14Z</time></trkpt><trkpt lat="37.25805383924303" lon="15.008940790924475"><ele>241.0</ele><time>2026-04-06T10:21:15Z</time></trkpt><trkpt lat="37.25817529700131" lon="15.008901935799095"><ele>241.0</ele><time>2026-04-06T10:21:16Z</time></trkpt><trkpt lat="37.25831212419088" lon="15.008860935465146"><ele>241.0</ele><time>2026-04-06T10:21:17Z</time></trkpt><trkpt lat="37.2584618784664" lon="15.008790729087313"><ele>241.0</ele><time>2026-04-06T10:21:18Z</time></trkpt><trkpt lat="37.25862599562534" lon="15.008740376070802"><ele>241.0</ele><time>2026-04-06T10:21:19Z</time></trkpt><trkpt lat="37.25879565716594" lon="15.008689473217864"><ele>241.0</ele><time>2026-04-06T10:21:20Z</time></trkpt><trkpt lat="37.258962840451595" lon="15.008637082206123"><ele>241.0</ele><time>2026-04-06T10:21:21Z</time></trkpt><trkpt lat="37.259126696457926" lon="15.008583973779658"><ele>237.0</ele><time>2026-04-06T10:21:22Z</time></trkpt><trkpt lat="37.259287186553365" lon="15.00852811631514"><ele>233.0</ele><time>2026-04-06T10:21:23Z</time></trkpt><trkpt lat="37.259444221617954" lon="15.008497161584993"><ele>229.0</ele><time>2026-04-06T10:21:24Z</time></trkpt><trkpt lat="37.25957975339353" lon="15.008455410070876"><ele>229.0</ele><time>2026-04-06T10:21:25Z</time></trkpt><trkpt lat="37.25969712726081" lon="15.00839637315266"><ele>229.0</ele><time>2026-04-06T10:21:26Z</time></trkpt><trkpt lat="37.25981481479924" lon="15.008362966156357"><ele>229.0</ele><time>2026-04-06T10:21:27Z</time></trkpt><trkpt lat="37.25992220035845" lon="15.00823144858457"><ele>229.0</ele><time>2026-04-06T10:21:28Z</time></trkpt><trkpt lat="37.26003297388322" lon="15.008077944423121"><ele>226.75</ele><time>2026-04-06T10:21:29Z</time></trkpt><trkpt lat="37.2601404639587" lon="15.007951007371535"><ele>224.5</ele><time>2026-04-06T10:21:30Z</time></trkpt><trkpt lat="37.26025612940326" lon="15.007843319676933"><ele>222.25</ele><time>2026-04-06T10:21:31Z</time></trkpt><trkpt lat="37.2603851608464" lon="15.007754349703871"><ele>220.0</ele><time>2026-04-06T10:21:32Z</time></trkpt><trkpt lat="37.26052778683693" lon="15.007673138168201"><ele>220.0</ele><time>2026-04-06T10:21:33Z</time></trkpt><trkpt lat="37.26067625472605" lon="15.007621288695926"><ele>220.0</ele><time>2026-04-06T10:21:34Z</time></trkpt><trkpt lat="37.260817940710275" lon="15.007556009649075"><ele>220.0</ele><time>2026-04-06T10:21:35Z</time></trkpt><trkpt lat="37.260949066580366" lon="15.007495588425392"><ele>220.0</ele><time>2026-04-06T10:21:36Z</time></trkpt><trkpt lat="37.26106433277639" lon="15.007437317620546"><ele>220.0</ele><time>2026-04-06T10:21:37Z</time></trkpt><trkpt lat="37.261189564685495" lon="15.007430115377126"><ele>220.0</ele><time>2026-04-06T10:21:38Z</time></trkpt><trkpt lat="37.261316488394336" lon="15.007443786603718"><ele>220.0</ele><time>2026-04-06T10:21:39Z</time></trkpt><trkpt lat="37.26144606977715" lon="15.007504246664064"><ele>220.0</ele><time>2026-04-06T10:21:40Z</time></trkpt><trkpt lat="37.261585616073816" lon="15.007575743500079"><ele>217.0</ele><time>2026-04-06T10:21:41Z</time></trkpt><trkpt lat="37.2617305106668" lon="15.007655826610995"><ele>214.0</ele><time>2026-04-06T10:21:42Z</time></trkpt><trkpt lat="37.26187178822635" lon="15.007740102419179"><ele>211.0</ele><time>2026-04-06T10:21:43Z</time></trkpt><trkpt lat="37.26201182283268" lon="15.007818667732598"><ele>211.0</ele><time>2026-04-06T10:21:44Z</time></trkpt><trkpt lat="37.262151605044245" lon="15.007912769644202"><ele>211.0</ele><time>2026-04-06T10:21:45Z</time></trkpt><trkpt lat="37.26228305120627" lon="15.00802432111979"><ele>211.0</ele><time>2026-04-06T10:21:46Z</time></trkpt><trkpt lat="37.26240755042848" lon="15.008119229728893"><ele>209.75</ele><time>2026-04-06T10:21:47Z</time></trkpt><trkpt lat="37.26252729679102" lon="15.008194271594046"><ele>208.5</ele><time>2026-04-06T10:21:48Z</time></trkpt><trkpt lat="37.262628337315334" lon="15.008287658802768"><ele>207.25</ele><time>2026-04-06T10:21:49Z</time></trkpt><trkpt lat="37.262724063784866" lon="15.008382371757172"><ele>206.0</ele><time>2026-04-06T10:21:50Z</time></trkpt><trkpt lat="37.262810832681964" lon="15.008485005260052"><ele>206.0</ele><time>2026-04-06T10:21:51Z</time></trkpt><trkpt lat="37.26289681027607" lon="15.008608450049174"><ele>206.0</ele><time>2026-04-06T10:21:52Z</time></trkpt><trkpt lat="37.262983399549746" lon="15.008750508693362"><ele>206.0</ele><time>2026-04-06T10:21:53Z</time></trkpt><trkpt lat="37.263066254820004" lon="15.008905847013057"><ele>206.0</ele><time>2026-04-06T10:21:54Z</time></trkpt><trkpt lat="37.26313724800039" lon="15.009070467033922"><ele>203.0</ele><time>2026-04-06T10:21:55Z</time></trkpt><trkpt lat="37.26320881427905" lon="15.009230899375435"><ele>200.0</ele><time>2026-04-06T10:21:56Z</time></trkpt><trkpt lat="37.26326033006697" lon="15.00940089832522"><ele>197.0</ele><time>2026-04-06T10:21:57Z</time></trkpt><trkpt lat="37.26328725133651" lon="15.00957014021371"><ele>194.0</ele><time>2026-04-06T10:21:58Z</time></trkpt><trkpt lat="37.26331772420624" lon="15.00971379341019"><ele>194.0</ele><time>2026-04-06T10:21:59Z</time></trkpt><trkpt lat="37.263366002551614" lon="15.009847900429445"><ele>194.0</ele><time>2026-04-06T10:22:00Z</time></trkpt><trkpt lat="37.263464838658905" lon="15.009927407413606"><ele>194.0</ele><time>2026-04-06T10:22:01Z</time></trkpt><trkpt lat="37.263577772514545" lon="15.00998507527203"><ele>194.0</ele><time>2026-04-06T10:22:02Z</time></trkpt><trkpt lat="37.263709607289364" lon="15.01002016979253"><ele>194.25</ele><time>2026-04-06T10:22:03Z</time></trkpt><trkpt lat="37.26383672037311" lon="15.01009294816517"><ele>194.5</ele><time>2026-04-06T10:22:04Z</time></trkpt><trkpt lat="37.26395688806389" lon="15.010146896038288"><ele>194.75</ele><time>2026-04-06T10:22:05Z</time></trkpt><trkpt lat="37.26406972937345" lon="15.010195100562571"><ele>195.0</ele><time>2026-04-06T10:22:06Z</time></trkpt><trkpt lat="37.26417703005603" lon="15.010247785705104"><ele>193.4</ele><time>2026-04-06T10:22:07Z</time></trkpt><trkpt lat="37.26427879680054" lon="15.010305399802405"><ele>191.8</ele><time>2026-04-06T10:22:08Z</time></trkpt><trkpt lat="37.26435637966788" lon="15.01040346281328"><ele>190.2</ele><time>2026-04-06T10:22:09Z</time></trkpt><trkpt lat="37.26441922635824" lon="15.010518470974585"><ele>188.6</ele><time>2026-04-06T10:22:10Z</time></trkpt><trkpt lat="37.264473839043504" lon="15.010644677437426"><ele>187.0</ele><time>2026-04-06T10:22:11Z</time></trkpt><trkpt lat="37.26452550286927" lon="15.010776853874589"><ele>187.25</ele><time>2026-04-06T10:22:12Z</time></trkpt><trkpt lat="37.264569632360555" lon="15.010910195644241"><ele>187.5</ele><time>2026-04-06T10:22:13Z</time></trkpt><trkpt lat="37.26461550741515" lon="15.011046447317023"><ele>187.75</ele><time>2026-04-06T10:22:14Z</time></trkpt><trkpt lat="37.264664486406446" lon="15.011187525616387"><ele>188.0</ele><time>2026-04-06T10:22:15Z</time></trkpt><trkpt lat="37.2647204312255" lon="15.01132114397627"><ele>188.0</ele><time>2026-04-06T10:22:16Z</time></trkpt><trkpt lat="37.26477740763984" lon="15.011440522706188"><ele>188.0</ele><time>2026-04-06T10:22:17Z</time></trkpt><trkpt lat="37.264829626685945" lon="15.011550599111027"><ele>188.0</ele><time>2026-04-06T10:22:18Z</time></trkpt><trkpt lat="37.264877131740654" lon="15.01162973027494"><ele>188.0</ele><time>2026-04-06T10:22:19Z</time></trkpt><trkpt lat="37.264924975257024" lon="15.011687296045698"><ele>188.0</ele><time>2026-04-06T10:22:20Z</time></trkpt><trkpt lat="37.265013098784614" lon="15.011763776164242"><ele>187.0</ele><time>2026-04-06T10:22:22Z</time></trkpt><trkpt lat="37.2651015370216" lon="15.011718960585792"><ele>186.0</ele><time>2026-04-06T10:22:24Z</time></trkpt><trkpt lat="37.26513952578495" lon="15.011650289398325"><ele>185.0</ele><time>2026-04-06T10:22:25Z</time></trkpt><trkpt lat="37.265177074076384" lon="15.011570730108723"><ele>184.0</ele><time>2026-04-06T10:22:26Z</time></trkpt><trkpt lat="37.26524112716802" lon="15.01150032379555"><ele>183.0</ele><time>2026-04-06T10:22:27Z</time></trkpt><trkpt lat="37.265325629090555" lon="15.011436648237538"><ele>182.0</ele><time>2026-04-06T10:22:28Z</time></trkpt><trkpt lat="37.26541422181973" lon="15.011372805692865"><ele>182.0</ele><time>2026-04-06T10:22:29Z</time></trkpt><trkpt lat="37.26549853321064" lon="15.011309540315494"><ele>182.0</ele><time>2026-04-06T10:22:30Z</time></trkpt><trkpt lat="37.26557567867883" lon="15.011253973251597"><ele>182.0</ele><time>2026-04-06T10:22:31Z</time></trkpt><trkpt lat="37.26564828825609" lon="15.011199049396941"><ele>182.0</ele><time>2026-04-06T10:22:32Z</time></trkpt><trkpt lat="37.2657174928244" lon="15.01115270984852"><ele>182.0</ele><time>2026-04-06T10:22:33Z</time></trkpt><trkpt lat="37.26578133850471" lon="15.0111071495642"><ele>182.0</ele><time>2026-04-06T10:22:34Z</time></trkpt><trkpt lat="37.26583640466692" lon="15.011056683257934"><ele>183.39999999999998</ele><time>2026-04-06T10:22:35Z</time></trkpt><trkpt lat="37.265935241935736" lon="15.010978532067695"><ele>184.79999999999998</ele><time>2026-04-06T10:22:37Z</time></trkpt><trkpt lat="37.26604019899529" lon="15.011029800599713"><ele>186.2</ele><time>2026-04-06T10:22:39Z</time></trkpt><trkpt lat="37.26607718643246" lon="15.011097254354057"><ele>187.6</ele><time>2026-04-06T10:22:40Z</time></trkpt><trkpt lat="37.266113543138246" lon="15.011177052021141"><ele>189.0</ele><time>2026-04-06T10:22:41Z</time></trkpt><trkpt lat="37.26615614724001" lon="15.011282757973929"><ele>189.0</ele><time>2026-04-06T10:22:42Z</time></trkpt><trkpt lat="37.26619751751703" lon="15.011405456025297"><ele>189.0</ele><time>2026-04-06T10:22:43Z</time></trkpt><trkpt lat="37.26624041999361" lon="15.011536330281356"><ele>189.0</ele><time>2026-04-06T10:22:44Z</time></trkpt><trkpt lat="37.266283823232534" lon="15.011658331268826"><ele>189.0</ele><time>2026-04-06T10:22:45Z</time></trkpt><trkpt lat="37.266320082004825" lon="15.011768867547568"><ele>189.0</ele><time>2026-04-06T10:22:46Z</time></trkpt><trkpt lat="37.26635752302389" lon="15.011876290272472"><ele>188.2</ele><time>2026-04-06T10:22:47Z</time></trkpt><trkpt lat="37.26639355891836" lon="15.011984760524236"><ele>187.39999999999998</ele><time>2026-04-06T10:22:48Z</time></trkpt><trkpt lat="37.26642411353618" lon="15.012094899820545"><ele>186.6</ele><time>2026-04-06T10:22:49Z</time></trkpt><trkpt lat="37.26646958280369" lon="15.01219991360083"><ele>185.8</ele><time>2026-04-06T10:22:50Z</time></trkpt><trkpt lat="37.26651964159846" lon="15.012313488892099"><ele>185.0</ele><time>2026-04-06T10:22:51Z</time></trkpt><trkpt lat="37.26661817198475" lon="15.012407141283642"><ele>187.5</ele><time>2026-04-06T10:22:52Z</time></trkpt><trkpt lat="37.26671052453292" lon="15.012513627614904"><ele>190.0</ele><time>2026-04-06T10:22:53Z</time></trkpt><trkpt lat="37.26680988429538" lon="15.012617265158253"><ele>192.5</ele><time>2026-04-06T10:22:54Z</time></trkpt><trkpt lat="37.26691331653844" lon="15.012720593739873"><ele>195.0</ele><time>2026-04-06T10:22:55Z</time></trkpt><trkpt lat="37.26700866529165" lon="15.012824095464108"><ele>195.0</ele><time>2026-04-06T10:22:56Z</time></trkpt><trkpt lat="37.267088832570025" lon="15.01291123171338"><ele>195.0</ele><time>2026-04-06T10:22:57Z</time></trkpt><trkpt lat="37.2671665963106" lon="15.012988365988825"><ele>195.0</ele><time>2026-04-06T10:22:58Z</time></trkpt><trkpt lat="37.267244529890014" lon="15.013067256768753"><ele>195.0</ele><time>2026-04-06T10:22:59Z</time></trkpt><trkpt lat="37.267327678726375" lon="15.013140702540698"><ele>195.0</ele><time>2026-04-06T10:23:00Z</time></trkpt><trkpt lat="37.26742097850745" lon="15.013218728555527"><ele>195.75</ele><time>2026-04-06T10:23:01Z</time></trkpt><trkpt lat="37.267527614020814" lon="15.013291534596345"><ele>196.5</ele><time>2026-04-06T10:23:02Z</time></trkpt><trkpt lat="37.26763819720437" lon="15.013346176891766"><ele>197.25</ele><time>2026-04-06T10:23:03Z</time></trkpt><trkpt lat="37.26775099235602" lon="15.013393073955626"><ele>198.0</ele><time>2026-04-06T10:23:04Z</time></trkpt><trkpt lat="37.267865032354734" lon="15.013438043867227"><ele>198.0</ele><time>2026-04-06T10:23:05Z</time></trkpt><trkpt lat="37.2679790632279" lon="15.013483907749407"><ele>198.0</ele><time>2026-04-06T10:23:06Z</time></trkpt><trkpt lat="37.26810162360284" lon="15.013534114235604"><ele>198.0</ele><time>2026-04-06T10:23:07Z</time></trkpt><trkpt lat="37.26823324660556" lon="15.013591553678815"><ele>198.0</ele><time>2026-04-06T10:23:08Z</time></trkpt><trkpt lat="37.268361770509074" lon="15.013648887869163"><ele>199.5</ele><time>2026-04-06T10:23:09Z</time></trkpt><trkpt lat="37.26849016195589" lon="15.013712503990968"><ele>201.0</ele><time>2026-04-06T10:23:10Z</time></trkpt><trkpt lat="37.26861314025236" lon="15.013791723170105"><ele>202.5</ele><time>2026-04-06T10:23:11Z</time></trkpt><trkpt lat="37.2687251908993" lon="15.013880297509386"><ele>204.0</ele><time>2026-04-06T10:23:12Z</time></trkpt><trkpt lat="37.268824507866775" lon="15.01397518232499"><ele>204.0</ele><time>2026-04-06T10:23:13Z</time></trkpt><trkpt lat="37.26891944009121" lon="15.014065788879122"><ele>204.0</ele><time>2026-04-06T10:23:14Z</time></trkpt><trkpt lat="37.269013869929594" lon="15.014134352553407"><ele>204.0</ele><time>2026-04-06T10:23:15Z</time></trkpt><trkpt lat="37.26909121123872" lon="15.014218823898723"><ele>204.0</ele><time>2026-04-06T10:23:16Z</time></trkpt><trkpt lat="37.26918119809339" lon="15.014288497746177"><ele>204.0</ele><time>2026-04-06T10:23:17Z</time></trkpt><trkpt lat="37.26927104562464" lon="15.01435750405838"><ele>204.66666666666666</ele><time>2026-04-06T10:23:18Z</time></trkpt><trkpt lat="37.26934795551929" lon="15.014416573785066"><ele>205.33333333333331</ele><time>2026-04-06T10:23:19Z</time></trkpt><trkpt lat="37.26941480801232" lon="15.014467920181863"><ele>206.0</ele><time>2026-04-06T10:23:20Z</time></trkpt><trkpt lat="37.269478172378705" lon="15.014508311482212"><ele>206.66666666666666</ele><time>2026-04-06T10:23:21Z</time></trkpt><trkpt lat="37.26954659791025" lon="15.014569955195121"><ele>207.33333333333331</ele><time>2026-04-06T10:23:23Z</time></trkpt><trkpt lat="37.26963531415814" lon="15.01464746010704"><ele>208.0</ele><time>2026-04-06T10:23:25Z</time></trkpt><trkpt lat="37.269697916934824" lon="15.01470345925184"><ele>208.0</ele><time>2026-04-06T10:23:26Z</time></trkpt><trkpt lat="37.269755869720555" lon="15.014750292747154"><ele>208.0</ele><time>2026-04-06T10:23:27Z</time></trkpt><trkpt lat="37.26988350256131" lon="15.014802847700803"><ele>208.0</ele><time>2026-04-06T10:23:29Z</time></trkpt><trkpt lat="37.26996378584234" lon="15.014783136759617"><ele>208.0</ele><time>2026-04-06T10:23:30Z</time></trkpt><trkpt lat="37.27006652755455" lon="15.014764884329063"><ele>208.0</ele><time>2026-04-06T10:23:31Z</time></trkpt><trkpt lat="37.27017007211813" lon="15.014731658153151"><ele>207.99999999999997</ele><time>2026-04-06T10:23:32Z</time></trkpt><trkpt lat="37.270255557161285" lon="15.014701732539246"><ele>208.0</ele><time>2026-04-06T10:23:33Z</time></trkpt><trkpt lat="37.2703469813393" lon="15.0146809762273"><ele>208.0</ele><time>2026-04-06T10:23:34Z</time></trkpt><trkpt lat="37.27043790618483" lon="15.014649429748381"><ele>208.0</ele><time>2026-04-06T10:23:35Z</time></trkpt><trkpt lat="37.270520260414756" lon="15.014610907949798"><ele>207.99999999999997</ele><time>2026-04-06T10:23:36Z</time></trkpt><trkpt lat="37.2705918687187" lon="15.014598873933592"><ele>208.0</ele><time>2026-04-06T10:23:37Z</time></trkpt><trkpt lat="37.27067899096868" lon="15.014613370606126"><ele>207.60000000000002</ele><time>2026-04-06T10:23:39Z</time></trkpt><trkpt lat="37.270712989167066" lon="15.01473160927383"><ele>207.20000000000002</ele><time>2026-04-06T10:23:40Z</time></trkpt><trkpt lat="37.270773224950865" lon="15.014816898800959"><ele>206.8</ele><time>2026-04-06T10:23:41Z</time></trkpt><trkpt lat="37.2708172165966" lon="15.014920386570585"><ele>206.4</ele><time>2026-04-06T10:23:42Z</time></trkpt><trkpt lat="37.27087369665304" lon="15.01504400599051"><ele>206.0</ele><time>2026-04-06T10:23:43Z</time></trkpt><trkpt lat="37.27093773362083" lon="15.015164343112053"><ele>208.0</ele><time>2026-04-06T10:23:44Z</time></trkpt><trkpt lat="37.270990163541875" lon="15.015267476957774"><ele>210.0</ele><time>2026-04-06T10:23:45Z</time></trkpt><trkpt lat="37.271035961424566" lon="15.015363847855957"><ele>212.00000000000003</ele><time>2026-04-06T10:23:46Z</time></trkpt><trkpt lat="37.27109158643857" lon="15.015472016849609"><ele>214.0</ele><time>2026-04-06T10:23:47Z</time></trkpt><trkpt lat="37.27115203538516" lon="15.015589224680676"><ele>216.0</ele><time>2026-04-06T10:23:48Z</time></trkpt><trkpt lat="37.27121791456476" lon="15.015722521718436"><ele>216.4</ele><time>2026-04-06T10:23:49Z</time></trkpt><trkpt lat="37.271281681686034" lon="15.015848650002905"><ele>216.8</ele><time>2026-04-06T10:23:50Z</time></trkpt><trkpt lat="37.27134189059344" lon="15.015964385460428"><ele>217.20000000000002</ele><time>2026-04-06T10:23:51Z</time></trkpt><trkpt lat="37.271396412206634" lon="15.016067210893656"><ele>217.60000000000002</ele><time>2026-04-06T10:23:52Z</time></trkpt><trkpt lat="37.271438549554404" lon="15.0161535545145"><ele>218.0</ele><time>2026-04-06T10:23:53Z</time></trkpt><trkpt lat="37.271479632844866" lon="15.016232332890953"><ele>218.00000000000003</ele><time>2026-04-06T10:23:54Z</time></trkpt><trkpt lat="37.27151741127399" lon="15.016302931163056"><ele>218.0</ele><time>2026-04-06T10:23:55Z</time></trkpt><trkpt lat="37.27156283457867" lon="15.016394495684086"><ele>218.0</ele><time>2026-04-06T10:23:57Z</time></trkpt><trkpt lat="37.27160878930504" lon="15.01648641841648"><ele>218.0</ele><time>2026-04-06T10:24:02Z</time></trkpt><trkpt lat="37.27166107825923" lon="15.01658803334568"><ele>218.00000000000003</ele><time>2026-04-06T10:24:04Z</time></trkpt><trkpt lat="37.27169608410107" lon="15.016669138208625"><ele>218.0</ele><time>2026-04-06T10:24:06Z</time></trkpt><trkpt lat="37.271774226870484" lon="15.016811158304643"><ele>218.00000000000003</ele><time>2026-04-06T10:24:08Z</time></trkpt><trkpt lat="37.27181436879542" lon="15.016885249122161"><ele>218.0</ele><time>2026-04-06T10:24:09Z</time></trkpt><trkpt lat="37.27185333902219" lon="15.016961886120162"><ele>218.0</ele><time>2026-04-06T10:24:10Z</time></trkpt><trkpt lat="37.271896935528694" lon="15.017059746749839"><ele>218.0</ele><time>2026-04-06T10:24:11Z</time></trkpt><trkpt lat="37.27194626780408" lon="15.01716814673227"><ele>218.00000000000003</ele><time>2026-04-06T10:24:12Z</time></trkpt><trkpt lat="37.27200076589978" lon="15.017270385879488"><ele>218.0</ele><time>2026-04-06T10:24:13Z</time></trkpt><trkpt lat="37.27205256617452" lon="15.017361617954435"><ele>218.0</ele><time>2026-04-06T10:24:14Z</time></trkpt><trkpt lat="37.27209293039744" lon="15.017435165413202"><ele>218.0</ele><time>2026-04-06T10:24:15Z</time></trkpt><trkpt lat="37.27213999603636" lon="15.017510578936658"><ele>218.0</ele><time>2026-04-06T10:24:17Z</time></trkpt><trkpt lat="37.27219331252363" lon="15.017572153053427"><ele>218.0</ele><time>2026-04-06T10:24:21Z</time></trkpt><trkpt lat="37.27230816039576" lon="15.017450686452333"><ele>218.0</ele><time>2026-04-06T10:24:22Z</time></trkpt><trkpt lat="37.272372843689276" lon="15.017391437853874"><ele>218.28571428571428</ele><time>2026-04-06T10:24:23Z</time></trkpt><trkpt lat="37.27243520073885" lon="15.01734197595684"><ele>218.57142857142858</ele><time>2026-04-06T10:24:24Z</time></trkpt><trkpt lat="37.27249408148633" lon="15.017299164141702"><ele>218.85714285714283</ele><time>2026-04-06T10:24:25Z</time></trkpt><trkpt lat="37.27255172102596" lon="15.017252235088861"><ele>219.14285714285714</ele><time>2026-04-06T10:24:26Z</time></trkpt><trkpt lat="37.27260724385066" lon="15.017199197732724"><ele>219.42857142857142</ele><time>2026-04-06T10:24:27Z</time></trkpt><trkpt lat="37.27266514507504" lon="15.017144667272703"><ele>219.7142857142857</ele><time>2026-04-06T10:24:28Z</time></trkpt><trkpt lat="37.272732139262445" lon="15.017092261516956"><ele>220.0</ele><time>2026-04-06T10:24:29Z</time></trkpt><trkpt lat="37.27280897693674" lon="15.017032181882572"><ele>219.99999999999997</ele><time>2026-04-06T10:24:30Z</time></trkpt><trkpt lat="37.27288787081981" lon="15.016967698736599"><ele>220.0</ele><time>2026-04-06T10:24:31Z</time></trkpt><trkpt lat="37.27296358337162" lon="15.016909457251955"><ele>220.0</ele><time>2026-04-06T10:24:32Z</time></trkpt><trkpt lat="37.27304010147703" lon="15.016854936350367"><ele>220.0</ele><time>2026-04-06T10:24:33Z</time></trkpt><trkpt lat="37.273111705975275" lon="15.01680352921552"><ele>219.99999999999997</ele><time>2026-04-06T10:24:34Z</time></trkpt><trkpt lat="37.27316920506926" lon="15.016756755279333"><ele>220.0</ele><time>2026-04-06T10:24:35Z</time></trkpt><trkpt lat="37.27326961730096" lon="15.016676473570989"><ele>220.2</ele><time>2026-04-06T10:24:37Z</time></trkpt><trkpt lat="37.273340253133604" lon="15.016623838645055"><ele>220.4</ele><time>2026-04-06T10:24:38Z</time></trkpt><trkpt lat="37.2734225048051" lon="15.016568153967858"><ele>220.60000000000002</ele><time>2026-04-06T10:24:39Z</time></trkpt><trkpt lat="37.27350985984822" lon="15.01650215728235"><ele>220.8</ele><time>2026-04-06T10:24:40Z</time></trkpt><trkpt lat="37.27360581847846" lon="15.016431167602514"><ele>221.0</ele><time>2026-04-06T10:24:41Z</time></trkpt><trkpt lat="37.273703361905326" lon="15.016360420018081"><ele>221.00000000000003</ele><time>2026-04-06T10:24:42Z</time></trkpt><trkpt lat="37.27379232524037" lon="15.016294457139884"><ele>221.0</ele><time>2026-04-06T10:24:43Z</time></trkpt><trkpt lat="37.27387523500858" lon="15.016237425435671"><ele>221.0</ele><time>2026-04-06T10:24:44Z</time></trkpt><trkpt lat="37.273946116719486" lon="15.016182734629107"><ele>221.0</ele><time>2026-04-06T10:24:45Z</time></trkpt><trkpt lat="37.27401099644949" lon="15.016134104083003"><ele>221.00000000000003</ele><time>2026-04-06T10:24:46Z</time></trkpt><trkpt lat="37.27407010017706" lon="15.016092583492123"><ele>221.0</ele><time>2026-04-06T10:24:47Z</time></trkpt><trkpt lat="37.27415993943953" lon="15.016025239665357"><ele>221.00000000000003</ele><time>2026-04-06T10:24:49Z</time></trkpt><trkpt lat="37.27421550684974" lon="15.015977503357771"><ele>221.0</ele><time>2026-04-06T10:24:51Z</time></trkpt><trkpt lat="37.274177749318355" lon="15.015843068029286"><ele>221.0</ele><time>2026-04-06T10:24:54Z</time></trkpt><trkpt lat="37.27414138236628" lon="15.015777424315864"><ele>221.0</ele><time>2026-04-06T10:24:55Z</time></trkpt><trkpt lat="37.27410303686103" lon="15.015698258640372"><ele>221.00000000000003</ele><time>2026-04-06T10:24:56Z</time></trkpt><trkpt lat="37.27406116270656" lon="15.015618452971466"><ele>221.0</ele><time>2026-04-06T10:24:57Z</time></trkpt><trkpt lat="37.274024087494816" lon="15.015550836341065"><ele>221.16666666666669</ele><time>2026-04-06T10:24:58Z</time></trkpt><trkpt lat="37.27398691594746" lon="15.015463350219568"><ele>221.33333333333334</ele><time>2026-04-06T10:25:00Z</time></trkpt><trkpt lat="37.27393350989785" lon="15.015391502691678"><ele>221.5</ele><time>2026-04-06T10:25:03Z</time></trkpt><trkpt lat="37.27389878949315" lon="15.015320401445733"><ele>221.66666666666669</ele><time>2026-04-06T10:25:04Z</time></trkpt><trkpt lat="37.27388610506534" lon="15.01523178927947"><ele>221.83333333333334</ele><time>2026-04-06T10:25:05Z</time></trkpt><trkpt lat="37.27384255249999" lon="15.015141631969833"><ele>222.0</ele><time>2026-04-06T10:25:07Z</time></trkpt><trkpt lat="37.273887983054614" lon="15.015052409836855"><ele>222.0</ele><time>2026-04-06T10:25:11Z</time></trkpt><trkpt lat="37.27396853028688" lon="15.015002148112506"><ele>222.0</ele><time>2026-04-06T10:25:13Z</time></trkpt><trkpt lat="37.27404251442463" lon="15.014966781714888"><ele>222.0</ele><time>2026-04-06T10:25:18Z</time></trkpt><trkpt lat="37.27412595244719" lon="15.014912476955375"><ele>222.0</ele><time>2026-04-06T10:25:21Z</time></trkpt><trkpt lat="37.27420298019456" lon="15.01483808951107"><ele>222.0</ele><time>2026-04-06T10:25:23Z</time></trkpt><trkpt lat="37.27429954816621" lon="15.014773221606855"><ele>220.2</ele><time>2026-04-06T10:25:25Z</time></trkpt><trkpt lat="37.274371576906226" lon="15.014712025710505"><ele>218.39999999999998</ele><time>2026-04-06T10:25:27Z</time></trkpt><trkpt lat="37.27443945746655" lon="15.014652047194739"><ele>216.60000000000002</ele><time>2026-04-06T10:25:29Z</time></trkpt><trkpt lat="37.27453069671254" lon="15.014587059680313"><ele>214.8</ele><time>2026-04-06T10:25:31Z</time></trkpt><trkpt lat="37.27462896108171" lon="15.014512884712417"><ele>213.0</ele><time>2026-04-06T10:25:33Z</time></trkpt><trkpt lat="37.27471866533819" lon="15.014450704083739"><ele>214.8</ele><time>2026-04-06T10:25:35Z</time></trkpt><trkpt lat="37.274791944684885" lon="15.01439909898885"><ele>216.60000000000002</ele><time>2026-04-06T10:25:37Z</time></trkpt><trkpt lat="37.27491166292223" lon="15.01453283339036"><ele>218.39999999999998</ele><time>2026-04-06T10:25:44Z</time></trkpt><trkpt lat="37.27494110357039" lon="15.014606186478446"><ele>220.2</ele><time>2026-04-06T10:25:46Z</time></trkpt><trkpt lat="37.27496354377536" lon="15.014690712779702"><ele>222.0</ele><time>2026-04-06T10:25:51Z</time></trkpt><trkpt lat="37.27486625454636" lon="15.01476000093088"><ele>222.0</ele><time>2026-04-06T10:25:54Z</time></trkpt><trkpt lat="37.274788597145886" lon="15.014835074721427"><ele>222.0</ele><time>2026-04-06T10:25:56Z</time></trkpt><trkpt lat="37.27472641789843" lon="15.014883929145734"><ele>222.0</ele><time>2026-04-06T10:25:58Z</time></trkpt><trkpt lat="37.274669031795916" lon="15.01492971782569"><ele>222.0</ele><time>2026-04-06T10:26:00Z</time></trkpt><trkpt lat="37.2745992013285" lon="15.01498011421647"><ele>222.0</ele><time>2026-04-06T10:26:02Z</time></trkpt><trkpt lat="37.274527547082265" lon="15.015004116368196"><ele>222.0</ele><time>2026-04-06T10:26:06Z</time></trkpt><trkpt lat="37.274472898778704" lon="15.014919480138538"><ele>220.2</ele><time>2026-04-06T10:26:09Z</time></trkpt><trkpt lat="37.27445158585672" lon="15.014840237391981"><ele>218.39999999999998</ele><time>2026-04-06T10:26:10Z</time></trkpt><trkpt lat="37.27440622385557" lon="15.01474528924093"><ele>216.60000000000002</ele><time>2026-04-06T10:26:12Z</time></trkpt><trkpt lat="37.27448855200517" lon="15.014614574913201"><ele>214.8</ele><time>2026-04-06T10:26:17Z</time></trkpt><trkpt lat="37.27456129419306" lon="15.0145604680279"><ele>213.0</ele><time>2026-04-06T10:26:20Z</time></trkpt><trkpt lat="37.27463040024924" lon="15.014509802577733"><ele>212.99999999999997</ele><time>2026-04-06T10:26:23Z</time></trkpt><trkpt lat="37.27469489059649" lon="15.014468676349196"><ele>213.0</ele><time>2026-04-06T10:26:26Z</time></trkpt><trkpt lat="37.274754849961894" lon="15.014412067887825"><ele>213.0</ele><time>2026-04-06T10:26:29Z</time></trkpt><trkpt lat="37.274824724055165" lon="15.014366538497796"><ele>213.0</ele><time>2026-04-06T10:26:32Z</time></trkpt><trkpt lat="37.274879777578455" lon="15.014324975399454"><ele>213.0</ele><time>2026-04-06T10:26:34Z</time></trkpt><trkpt lat="37.274940435669784" lon="15.014272424864672"><ele>212.99999999999997</ele><time>2026-04-06T10:26:37Z</time></trkpt><trkpt lat="37.27500126326542" lon="15.014225790844835"><ele>213.0</ele><time>2026-04-06T10:26:41Z</time></trkpt><trkpt lat="37.27506327648673" lon="15.014197453601914"><ele>213.28571428571428</ele><time>2026-04-06T10:26:47Z</time></trkpt><trkpt lat="37.275129359512825" lon="15.0141474155223"><ele>213.57142857142856</ele><time>2026-04-06T10:26:52Z</time></trkpt><trkpt lat="37.275189740750676" lon="15.014099972004209"><ele>213.85714285714283</ele><time>2026-04-06T10:26:56Z</time></trkpt><trkpt lat="37.27524415014831" lon="15.014059522483466"><ele>214.14285714285714</ele><time>2026-04-06T10:26:59Z</time></trkpt><trkpt lat="37.2752996169018" lon="15.014006305505589"><ele>214.42857142857144</ele><time>2026-04-06T10:27:02Z</time></trkpt><trkpt lat="37.275369858012965" lon="15.013956073824298"><ele>214.7142857142857</ele><time>2026-04-06T10:27:06Z</time></trkpt><trkpt lat="37.27544078550285" lon="15.013900854085659"><ele>215.0</ele><time>2026-04-06T10:27:09Z</time></trkpt><trkpt lat="37.275501959440014" lon="15.013845789572965"><ele>215.00000000000003</ele><time>2026-04-06T10:27:12Z</time></trkpt><trkpt lat="37.27556990075599" lon="15.01378751648844"><ele>215.0</ele><time>2026-04-06T10:27:15Z</time></trkpt><trkpt lat="37.275637196863364" lon="15.01373069043682"><ele>215.0</ele><time>2026-04-06T10:27:18Z</time></trkpt><trkpt lat="37.27571182797345" lon="15.01369265103083"><ele>215.0</ele><time>2026-04-06T10:27:22Z</time></trkpt><trkpt lat="37.27576997037724" lon="15.013659409419502"><ele>215.00000000000003</ele><time>2026-04-06T10:27:25Z</time></trkpt><trkpt lat="37.27584021359345" lon="15.013597299178599"><ele>215.0</ele><time>2026-04-06T10:27:28Z</time></trkpt><trkpt lat="37.27589791563319" lon="15.013559147775412"><ele>214.50000000000003</ele><time>2026-04-06T10:27:30Z</time></trkpt><trkpt lat="37.27597916115408" lon="15.013502567611948"><ele>214.0</ele><time>2026-04-06T10:27:32Z</time></trkpt><trkpt lat="37.276049291810175" lon="15.01345341146092"><ele>213.5</ele><time>2026-04-06T10:27:34Z</time></trkpt><trkpt lat="37.27611709204369" lon="15.013406096877551"><ele>213.0</ele><time>2026-04-06T10:27:37Z</time></trkpt><trkpt lat="37.27618883814686" lon="15.013373241837826"><ele>212.50000000000003</ele><time>2026-04-06T10:27:42Z</time></trkpt><trkpt lat="37.2762373302314" lon="15.01331063415016"><ele>212.0</ele><time>2026-04-06T10:27:44Z</time></trkpt><trkpt lat="37.27631444718041" lon="15.013249249829519"><ele>212.00000000000003</ele><time>2026-04-06T10:27:46Z</time></trkpt><trkpt lat="37.27639489982363" lon="15.013189216305678"><ele>212.0</ele><time>2026-04-06T10:27:48Z</time></trkpt><trkpt lat="37.276469742053294" lon="15.013137524994065"><ele>212.0</ele><time>2026-04-06T10:27:51Z</time></trkpt><trkpt lat="37.276537735517" lon="15.013081879107602"><ele>212.0</ele><time>2026-04-06T10:27:54Z</time></trkpt><trkpt lat="37.276612242296004" lon="15.013062809338876"><ele>212.00000000000003</ele><time>2026-04-06T10:27:57Z</time></trkpt><trkpt lat="37.27665075029154" lon="15.013167580623088"><ele>212.0</ele><time>2026-04-06T10:28:00Z</time></trkpt><trkpt lat="37.27669776685783" lon="15.013229736072114"><ele>212.50000000000003</ele><time>2026-04-06T10:28:03Z</time></trkpt><trkpt lat="37.276726655763106" lon="15.013324980501569"><ele>213.0</ele><time>2026-04-06T10:28:08Z</time></trkpt><trkpt lat="37.27676260811584" lon="15.013399531044184"><ele>213.5</ele><time>2026-04-06T10:28:11Z</time></trkpt><trkpt lat="37.276803433148395" lon="15.01348418462943"><ele>214.0</ele><time>2026-04-06T10:28:13Z</time></trkpt><trkpt lat="37.27685112511622" lon="15.013581715554245"><ele>214.50000000000003</ele><time>2026-04-06T10:28:16Z</time></trkpt><trkpt lat="37.27689686127815" lon="15.013675987481065"><ele>215.0</ele><time>2026-04-06T10:28:19Z</time></trkpt><trkpt lat="37.27694168357048" lon="15.013768764240897"><ele>215.00000000000003</ele><time>2026-04-06T10:28:22Z</time></trkpt><trkpt lat="37.27697890635931" lon="15.013845844161702"><ele>215.0</ele><time>2026-04-06T10:28:26Z</time></trkpt><trkpt lat="37.27702355624875" lon="15.013938303087379"><ele>215.0</ele><time>2026-04-06T10:28:30Z</time></trkpt><trkpt lat="37.27706076233189" lon="15.014015346265245"><ele>215.0</ele><time>2026-04-06T10:28:32Z</time></trkpt><trkpt lat="37.27710342119278" lon="15.014102272416242"><ele>215.00000000000003</ele><time>2026-04-06T10:28:35Z</time></trkpt><trkpt lat="37.27714730457809" lon="15.014168666601572"><ele>215.0</ele><time>2026-04-06T10:28:39Z</time></trkpt><trkpt lat="37.27717766862357" lon="15.01425489916414"><ele>214.00000000000003</ele><time>2026-04-06T10:28:43Z</time></trkpt><trkpt lat="37.27730830675636" lon="15.014129767812666"><ele>213.0</ele><time>2026-04-06T10:28:44Z</time></trkpt><trkpt lat="37.277362107290415" lon="15.01407626328512"><ele>212.0</ele><time>2026-04-06T10:28:45Z</time></trkpt><trkpt lat="37.27742842577428" lon="15.014035832639196"><ele>211.0</ele><time>2026-04-06T10:28:46Z</time></trkpt><trkpt lat="37.27749125881491" lon="15.01399333136181"><ele>210.00000000000003</ele><time>2026-04-06T10:28:47Z</time></trkpt><trkpt lat="37.277553073466194" lon="15.01395114468254"><ele>209.0</ele><time>2026-04-06T10:28:48Z</time></trkpt><trkpt lat="37.27761200199699" lon="15.0139046355698"><ele>209.00000000000003</ele><time>2026-04-06T10:28:49Z</time></trkpt><trkpt lat="37.277671092005804" lon="15.013855456293904"><ele>209.0</ele><time>2026-04-06T10:28:50Z</time></trkpt><trkpt lat="37.27773097655683" lon="15.013809789189034"><ele>209.0</ele><time>2026-04-06T10:28:51Z</time></trkpt><trkpt lat="37.27782878026292" lon="15.013731247117823"><ele>209.0</ele><time>2026-04-06T10:28:53Z</time></trkpt><trkpt lat="37.27792361494606" lon="15.013681200553764"><ele>209.00000000000003</ele><time>2026-04-06T10:28:55Z</time></trkpt><trkpt lat="37.27800009699754" lon="15.013641169114802"><ele>209.0</ele><time>2026-04-06T10:29:00Z</time></trkpt><trkpt lat="37.278104114449405" lon="15.013769586753146"><ele>207.00000000000003</ele><time>2026-04-06T10:29:02Z</time></trkpt><trkpt lat="37.27814809563926" lon="15.013829189820788"><ele>205.0</ele><time>2026-04-06T10:29:03Z</time></trkpt><trkpt lat="37.27819687868081" lon="15.013892834567596"><ele>203.0</ele><time>2026-04-06T10:29:04Z</time></trkpt><trkpt lat="37.27824248354901" lon="15.013964840933477"><ele>201.0</ele><time>2026-04-06T10:29:05Z</time></trkpt><trkpt lat="37.278290869793764" lon="15.014033682524367"><ele>199.00000000000003</ele><time>2026-04-06T10:29:06Z</time></trkpt><trkpt lat="37.27834226266279" lon="15.014079774544918"><ele>197.0</ele><time>2026-04-06T10:29:07Z</time></trkpt><trkpt lat="37.2784685026688" lon="15.014136431420088"><ele>197.0</ele><time>2026-04-06T10:29:09Z</time></trkpt><trkpt lat="37.27846677393941" lon="15.01392285901358"><ele>197.0</ele><time>2026-04-06T10:29:11Z</time></trkpt><trkpt lat="37.278454723155455" lon="15.013810281615497"><ele>197.0</ele><time>2026-04-06T10:29:12Z</time></trkpt><trkpt lat="37.27844740530992" lon="15.01369346999641"><ele>197.0</ele><time>2026-04-06T10:29:13Z</time></trkpt><trkpt lat="37.278443885689235" lon="15.013583940089752"><ele>197.0</ele><time>2026-04-06T10:29:14Z</time></trkpt><trkpt lat="37.278441395147254" lon="15.013467283790565"><ele>197.0</ele><time>2026-04-06T10:29:15Z</time></trkpt><trkpt lat="37.27843537791105" lon="15.01334084157186"><ele>197.0</ele><time>2026-04-06T10:29:16Z</time></trkpt><trkpt lat="37.27842969135773" lon="15.013203059163818"><ele>197.0</ele><time>2026-04-06T10:29:17Z</time></trkpt><trkpt lat="37.27842340642118" lon="15.013066249566872"><ele>197.0</ele><time>2026-04-06T10:29:18Z</time></trkpt><trkpt lat="37.27841582921365" lon="15.012936055790309"><ele>197.0</ele><time>2026-04-06T10:29:19Z</time></trkpt><trkpt lat="37.27840781486899" lon="15.012815617910473"><ele>196.66666666666669</ele><time>2026-04-06T10:29:20Z</time></trkpt><trkpt lat="37.27840427204615" lon="15.012701187191762"><ele>196.33333333333334</ele><time>2026-04-06T10:29:21Z</time></trkpt><trkpt lat="37.27840220253517" lon="15.012593289065835"><ele>196.0</ele><time>2026-04-06T10:29:22Z</time></trkpt><trkpt lat="37.278396625936004" lon="15.012495581916388"><ele>195.66666666666669</ele><time>2026-04-06T10:29:23Z</time></trkpt><trkpt lat="37.2783859493406" lon="15.01239649901084"><ele>195.33333333333334</ele><time>2026-04-06T10:29:24Z</time></trkpt><trkpt lat="37.27836485272957" lon="15.012287302662918"><ele>195.0</ele><time>2026-04-06T10:29:25Z</time></trkpt><trkpt lat="37.27832662605411" lon="15.012162432420665"><ele>193.0</ele><time>2026-04-06T10:29:26Z</time></trkpt><trkpt lat="37.27828367180853" lon="15.012020145894551"><ele>191.0</ele><time>2026-04-06T10:29:27Z</time></trkpt><trkpt lat="37.27823636356377" lon="15.011872159418163"><ele>189.0</ele><time>2026-04-06T10:29:28Z</time></trkpt><trkpt lat="37.278189129629354" lon="15.011719991805974"><ele>187.0</ele><time>2026-04-06T10:29:29Z</time></trkpt><trkpt lat="37.27814497290464" lon="15.011566997423987"><ele>186.75</ele><time>2026-04-06T10:29:30Z</time></trkpt><trkpt lat="37.2781029237322" lon="15.011419255400384"><ele>186.5</ele><time>2026-04-06T10:29:31Z</time></trkpt><trkpt lat="37.27806083079379" lon="15.01127780003217"><ele>186.25</ele><time>2026-04-06T10:29:32Z</time></trkpt><trkpt lat="37.278017439784264" lon="15.011145316692017"><ele>186.0</ele><time>2026-04-06T10:29:33Z</time></trkpt><trkpt lat="37.27797235990276" lon="15.01101670137826"><ele>186.0</ele><time>2026-04-06T10:29:34Z</time></trkpt><trkpt lat="37.27793145786502" lon="15.010905196179776"><ele>186.0</ele><time>2026-04-06T10:29:35Z</time></trkpt><trkpt lat="37.27791532823969" lon="15.010803279753246"><ele>186.0</ele><time>2026-04-06T10:29:36Z</time></trkpt><trkpt lat="37.27789573328696" lon="15.010694745034039"><ele>186.0</ele><time>2026-04-06T10:29:38Z</time></trkpt><trkpt lat="37.27806042922647" lon="15.010700349069822"><ele>186.0</ele><time>2026-04-06T10:29:41Z</time></trkpt><trkpt lat="37.278111197823876" lon="15.010790285181988"><ele>184.60000000000002</ele><time>2026-04-06T10:29:42Z</time></trkpt><trkpt lat="37.27818488823638" lon="15.010879431022849"><ele>183.2</ele><time>2026-04-06T10:29:43Z</time></trkpt><trkpt lat="37.27827798022374" lon="15.010961748020076"><ele>181.8</ele><time>2026-04-06T10:29:44Z</time></trkpt><trkpt lat="37.27835718629132" lon="15.011073496694738"><ele>180.39999999999998</ele><time>2026-04-06T10:29:45Z</time></trkpt><trkpt lat="37.27844205535749" lon="15.011167352069169"><ele>179.0</ele><time>2026-04-06T10:29:46Z</time></trkpt><trkpt lat="37.27852901390945" lon="15.011263940377885"><ele>179.0</ele><time>2026-04-06T10:29:47Z</time></trkpt><trkpt lat="37.27861921998836" lon="15.011365374553936"><ele>179.0</ele><time>2026-04-06T10:29:48Z</time></trkpt><trkpt lat="37.2787190216277" lon="15.011463380896299"><ele>179.0</ele><time>2026-04-06T10:29:49Z</time></trkpt><trkpt lat="37.27881025543021" lon="15.011563880423742"><ele>179.0</ele><time>2026-04-06T10:29:50Z</time></trkpt><trkpt lat="37.278883380536534" lon="15.011676597692711"><ele>177.6</ele><time>2026-04-06T10:29:51Z</time></trkpt><trkpt lat="37.27896517603626" lon="15.01176794721611"><ele>176.2</ele><time>2026-04-06T10:29:52Z</time></trkpt><trkpt lat="37.279043341910715" lon="15.0118510570762"><ele>174.79999999999998</ele><time>2026-04-06T10:29:53Z</time></trkpt><trkpt lat="37.27910437922387" lon="15.011932405935328"><ele>173.39999999999998</ele><time>2026-04-06T10:29:54Z</time></trkpt><trkpt lat="37.279152207264346" lon="15.01201675091924"><ele>172.0</ele><time>2026-04-06T10:29:55Z</time></trkpt><trkpt lat="37.27919500247477" lon="15.012118813505962"><ele>172.0</ele><time>2026-04-06T10:29:56Z</time></trkpt><trkpt lat="37.27917169022963" lon="15.012232233197906"><ele>172.0</ele><time>2026-04-06T10:29:57Z</time></trkpt><trkpt lat="37.279134677314566" lon="15.012326639104776"><ele>172.0</ele><time>2026-04-06T10:29:58Z</time></trkpt><trkpt lat="37.27912903923117" lon="15.012411501767382"><ele>172.0</ele><time>2026-04-06T10:29:59Z</time></trkpt><trkpt lat="37.27917795612829" lon="15.012532513376799"><ele>172.0</ele><time>2026-04-06T10:30:01Z</time></trkpt><trkpt lat="37.27925283527944" lon="15.012496706628145"><ele>172.0</ele><time>2026-04-06T10:30:02Z</time></trkpt><trkpt lat="37.27928737547298" lon="15.012429180299533"><ele>172.0</ele><time>2026-04-06T10:30:03Z</time></trkpt><trkpt lat="37.27930277565172" lon="15.012333803535082"><ele>172.0</ele><time>2026-04-06T10:30:04Z</time></trkpt><trkpt lat="37.27932036768244" lon="15.012213440537053"><ele>172.0</ele><time>2026-04-06T10:30:05Z</time></trkpt><trkpt lat="37.27935190896341" lon="15.012087794798926"><ele>172.0</ele><time>2026-04-06T10:30:06Z</time></trkpt><trkpt lat="37.27938880906502" lon="15.011944813485412"><ele>172.0</ele><time>2026-04-06T10:30:07Z</time></trkpt><trkpt lat="37.27939969142093" lon="15.011798392298722"><ele>170.25</ele><time>2026-04-06T10:30:08Z</time></trkpt><trkpt lat="37.27938099128635" lon="15.011622164673536"><ele>168.5</ele><time>2026-04-06T10:30:09Z</time></trkpt><trkpt lat="37.279351439950105" lon="15.011451052527876"><ele>166.75</ele><time>2026-04-06T10:30:10Z</time></trkpt><trkpt lat="37.27931837421019" lon="15.011289980880234"><ele>165.0</ele><time>2026-04-06T10:30:11Z</time></trkpt><trkpt lat="37.27929150977676" lon="15.011137918347469"><ele>165.0</ele><time>2026-04-06T10:30:12Z</time></trkpt><trkpt lat="37.27926267617131" lon="15.010991562417864"><ele>165.0</ele><time>2026-04-06T10:30:13Z</time></trkpt><trkpt lat="37.2792112217795" lon="15.010855431256013"><ele>165.0</ele><time>2026-04-06T10:30:14Z</time></trkpt><trkpt lat="37.27914459930293" lon="15.010734318711336"><ele>165.0</ele><time>2026-04-06T10:30:15Z</time></trkpt><trkpt lat="37.27908408341204" lon="15.010614259080661"><ele>163.8</ele><time>2026-04-06T10:30:16Z</time></trkpt><trkpt lat="37.27901210083702" lon="15.010502992209844"><ele>162.6</ele><time>2026-04-06T10:30:17Z</time></trkpt><trkpt lat="37.27892271845793" lon="15.010419721090251"><ele>161.4</ele><time>2026-04-06T10:30:18Z</time></trkpt><trkpt lat="37.27883160230177" lon="15.010338557157413"><ele>160.2</ele><time>2026-04-06T10:30:19Z</time></trkpt><trkpt lat="37.2787581951481" lon="15.010237778438217"><ele>159.0</ele><time>2026-04-06T10:30:20Z</time></trkpt><trkpt lat="37.27870972759066" lon="15.010120608636223"><ele>159.0</ele><time>2026-04-06T10:30:21Z</time></trkpt><trkpt lat="37.27865647495149" lon="15.010019637303365"><ele>159.0</ele><time>2026-04-06T10:30:22Z</time></trkpt><trkpt lat="37.27861419937929" lon="15.009936706038918"><ele>159.0</ele><time>2026-04-06T10:30:23Z</time></trkpt><trkpt lat="37.27856443272566" lon="15.009834088034424"><ele>159.0</ele><time>2026-04-06T10:30:25Z</time></trkpt><trkpt lat="37.278625044588836" lon="15.00978079483587"><ele>159.0</ele><time>2026-04-06T10:30:27Z</time></trkpt><trkpt lat="37.27868212355837" lon="15.009877516627933"><ele>159.0</ele><time>2026-04-06T10:30:29Z</time></trkpt><trkpt lat="37.27873150313933" lon="15.009958020507396"><ele>159.0</ele><time>2026-04-06T10:30:30Z</time></trkpt><trkpt lat="37.27877085811221" lon="15.010052650389454"><ele>159.0</ele><time>2026-04-06T10:30:31Z</time></trkpt><trkpt lat="37.27883639988048" lon="15.010132033350306"><ele>159.0</ele><time>2026-04-06T10:30:32Z</time></trkpt><trkpt lat="37.278918965205044" lon="15.010188262624355"><ele>159.0</ele><time>2026-04-06T10:30:33Z</time></trkpt><trkpt lat="37.27902663955115" lon="15.010197696098997"><ele>159.0</ele><time>2026-04-06T10:30:34Z</time></trkpt><trkpt lat="37.27914446094779" lon="15.010176299067554"><ele>156.5</ele><time>2026-04-06T10:30:35Z</time></trkpt><trkpt lat="37.27926219181999" lon="15.010151466042862"><ele>154.0</ele><time>2026-04-06T10:30:36Z</time></trkpt><trkpt lat="37.27937543764305" lon="15.010150160148621"><ele>151.5</ele><time>2026-04-06T10:30:37Z</time></trkpt><trkpt lat="37.27948192505455" lon="15.010180287554176"><ele>149.0</ele><time>2026-04-06T10:30:38Z</time></trkpt><trkpt lat="37.279581206322895" lon="15.010240687895719"><ele>149.0</ele><time>2026-04-06T10:30:39Z</time></trkpt><trkpt lat="37.279681986025984" lon="15.010341629685657"><ele>149.0</ele><time>2026-04-06T10:30:40Z</time></trkpt><trkpt lat="37.27978248885597" lon="15.010465770367231"><ele>149.0</ele><time>2026-04-06T10:30:41Z</time></trkpt><trkpt lat="37.27986713028776" lon="15.010589542946613"><ele>149.0</ele><time>2026-04-06T10:30:42Z</time></trkpt><trkpt lat="37.27993307184585" lon="15.010704846445202"><ele>148.83333333333331</ele><time>2026-04-06T10:30:43Z</time></trkpt><trkpt lat="37.27998788127719" lon="15.010808905157619"><ele>148.66666666666666</ele><time>2026-04-06T10:30:44Z</time></trkpt><trkpt lat="37.280037615792516" lon="15.010875410838164"><ele>148.5</ele><time>2026-04-06T10:30:45Z</time></trkpt><trkpt lat="37.28010015771146" lon="15.010896438371695"><ele>148.33333333333334</ele><time>2026-04-06T10:30:46Z</time></trkpt><trkpt lat="37.28015828385286" lon="15.010859588986799"><ele>148.16666666666669</ele><time>2026-04-06T10:30:47Z</time></trkpt><trkpt lat="37.280191388787735" lon="15.010773692065818"><ele>148.0</ele><time>2026-04-06T10:30:48Z</time></trkpt><trkpt lat="37.280209956560626" lon="15.010649845880108"><ele>146.25</ele><time>2026-04-06T10:30:49Z</time></trkpt><trkpt lat="37.28024291519791" lon="15.010514233482507"><ele>144.5</ele><time>2026-04-06T10:30:50Z</time></trkpt><trkpt lat="37.28029411206446" lon="15.0103595503237"><ele>142.75</ele><time>2026-04-06T10:30:51Z</time></trkpt><trkpt lat="37.280348793063865" lon="15.010200443733837"><ele>141.0</ele><time>2026-04-06T10:30:52Z</time></trkpt><trkpt lat="37.280396435668194" lon="15.010042149252769"><ele>139.75</ele><time>2026-04-06T10:30:53Z</time></trkpt><trkpt lat="37.28044464214496" lon="15.009883654974953"><ele>138.5</ele><time>2026-04-06T10:30:54Z</time></trkpt><trkpt lat="37.28049898001906" lon="15.009731629666607"><ele>137.25</ele><time>2026-04-06T10:30:55Z</time></trkpt><trkpt lat="37.280575617897846" lon="15.009579881101011"><ele>136.0</ele><time>2026-04-06T10:30:56Z</time></trkpt><trkpt lat="37.28067617047161" lon="15.009418485109881"><ele>136.0</ele><time>2026-04-06T10:30:57Z</time></trkpt><trkpt lat="37.28078004390705" lon="15.009252763212785"><ele>136.0</ele><time>2026-04-06T10:30:58Z</time></trkpt><trkpt lat="37.28088366245281" lon="15.00909236119214"><ele>136.0</ele><time>2026-04-06T10:30:59Z</time></trkpt><trkpt lat="37.28100880985695" lon="15.008919486802267"><ele>132.66666666666669</ele><time>2026-04-06T10:31:00Z</time></trkpt><trkpt lat="37.281150809716436" lon="15.008728120895585"><ele>129.33333333333334</ele><time>2026-04-06T10:31:01Z</time></trkpt><trkpt lat="37.281259196624475" lon="15.008563436980358"><ele>126.0</ele><time>2026-04-06T10:31:02Z</time></trkpt><trkpt lat="37.28139129536989" lon="15.008366944172762"><ele>125.66666666666666</ele><time>2026-04-06T10:31:03Z</time></trkpt><trkpt lat="37.28153561890115" lon="15.008196422591261"><ele>125.33333333333333</ele><time>2026-04-06T10:31:04Z</time></trkpt><trkpt lat="37.281671203715355" lon="15.00802808223608"><ele>125.0</ele><time>2026-04-06T10:31:05Z</time></trkpt><trkpt lat="37.28179676826641" lon="15.007869344001897"><ele>125.0</ele><time>2026-04-06T10:31:06Z</time></trkpt><trkpt lat="37.28191733511189" lon="15.007718319121263"><ele>125.0</ele><time>2026-04-06T10:31:07Z</time></trkpt><trkpt lat="37.28203481661225" lon="15.00757251586438"><ele>125.0</ele><time>2026-04-06T10:31:08Z</time></trkpt><trkpt lat="37.282148087191175" lon="15.007430990377305"><ele>123.25</ele><time>2026-04-06T10:31:09Z</time></trkpt><trkpt lat="37.282258196461775" lon="15.007292406752677"><ele>121.5</ele><time>2026-04-06T10:31:10Z</time></trkpt><trkpt lat="37.28236033474387" lon="15.007157861881891"><ele>119.75</ele><time>2026-04-06T10:31:11Z</time></trkpt><trkpt lat="37.28245634102563" lon="15.007027439893115"><ele>118.0</ele><time>2026-04-06T10:31:12Z</time></trkpt><trkpt lat="37.28255024790595" lon="15.006903627673381"><ele>118.0</ele><time>2026-04-06T10:31:13Z</time></trkpt><trkpt lat="37.28264168635936" lon="15.006783759073693"><ele>118.0</ele><time>2026-04-06T10:31:14Z</time></trkpt><trkpt lat="37.282735291047096" lon="15.006682091089479"><ele>118.0</ele><time>2026-04-06T10:31:15Z</time></trkpt><trkpt lat="37.28281993925881" lon="15.006577452821444"><ele>118.0</ele><time>2026-04-06T10:31:16Z</time></trkpt><trkpt lat="37.28288991296232" lon="15.006461465710336"><ele>119.0</ele><time>2026-04-06T10:31:17Z</time></trkpt><trkpt lat="37.28297121474797" lon="15.006354212796051"><ele>120.0</ele><time>2026-04-06T10:31:18Z</time></trkpt><trkpt lat="37.28305738797912" lon="15.006242588605454"><ele>121.0</ele><time>2026-04-06T10:31:19Z</time></trkpt><trkpt lat="37.28315164329091" lon="15.006143218847491"><ele>122.0</ele><time>2026-04-06T10:31:20Z</time></trkpt><trkpt lat="37.28322823322982" lon="15.006033718309576"><ele>122.0</ele><time>2026-04-06T10:31:21Z</time></trkpt><trkpt lat="37.283304674147445" lon="15.005942251556"><ele>121.99999999999999</ele><time>2026-04-06T10:31:22Z</time></trkpt><trkpt lat="37.28337468186785" lon="15.00585437257453"><ele>121.99999999999999</ele><time>2026-04-06T10:31:23Z</time></trkpt><trkpt lat="37.283448103848464" lon="15.005766397633675"><ele>122.0</ele><time>2026-04-06T10:31:24Z</time></trkpt><trkpt lat="37.28352704969907" lon="15.00569347530704"><ele>122.0</ele><time>2026-04-06T10:31:25Z</time></trkpt><trkpt lat="37.28360069604533" lon="15.0056198095497"><ele>120.19999999999999</ele><time>2026-04-06T10:31:26Z</time></trkpt><trkpt lat="37.283691591746155" lon="15.005562347075887"><ele>118.39999999999999</ele><time>2026-04-06T10:31:27Z</time></trkpt><trkpt lat="37.283781131581236" lon="15.00551575827127"><ele>116.60000000000001</ele><time>2026-04-06T10:31:28Z</time></trkpt><trkpt lat="37.283884695734685" lon="15.005464234829892"><ele>114.80000000000001</ele><time>2026-04-06T10:31:29Z</time></trkpt><trkpt lat="37.283993688267955" lon="15.005415933792456"><ele>113.0</ele><time>2026-04-06T10:31:30Z</time></trkpt><trkpt lat="37.28409738590594" lon="15.00536958867054"><ele>113.0</ele><time>2026-04-06T10:31:31Z</time></trkpt><trkpt lat="37.28420025127395" lon="15.005321907352583"><ele>113.00000000000001</ele><time>2026-04-06T10:31:32Z</time></trkpt><trkpt lat="37.28430553882829" lon="15.005274589028689"><ele>113.00000000000001</ele><time>2026-04-06T10:31:33Z</time></trkpt><trkpt lat="37.284402590175816" lon="15.005228382813426"><ele>113.0</ele><time>2026-04-06T10:31:34Z</time></trkpt><trkpt lat="37.284476523602656" lon="15.005193789568045"><ele>113.0</ele><time>2026-04-06T10:31:35Z</time></trkpt><trkpt lat="37.28456837501259" lon="15.005130915213417"><ele>113.0</ele><time>2026-04-06T10:31:37Z</time></trkpt><trkpt lat="37.28464906666482" lon="15.005111271757508"><ele>113.00000000000001</ele><time>2026-04-06T10:31:39Z</time></trkpt><trkpt lat="37.284729741871175" lon="15.005071165128124"><ele>113.00000000000001</ele><time>2026-04-06T10:31:40Z</time></trkpt><trkpt lat="37.284824792735414" lon="15.005024094704885"><ele>113.0</ele><time>2026-04-06T10:31:41Z</time></trkpt><trkpt lat="37.28491958653741" lon="15.004948212702246"><ele>113.0</ele><time>2026-04-06T10:31:42Z</time></trkpt><trkpt lat="37.285021450552144" lon="15.004914964596216"><ele>111.0</ele><time>2026-04-06T10:31:43Z</time></trkpt><trkpt lat="37.28511557349747" lon="15.00486587057857"><ele>109.0</ele><time>2026-04-06T10:31:44Z</time></trkpt><trkpt lat="37.285257492879026" lon="15.004790486867662"><ele>107.0</ele><time>2026-04-06T10:31:45Z</time></trkpt><trkpt lat="37.285359386173106" lon="15.00472380924902"><ele>105.0</ele><time>2026-04-06T10:31:46Z</time></trkpt><trkpt lat="37.28545918968559" lon="15.004676401077575"><ele>105.0</ele><time>2026-04-06T10:31:47Z</time></trkpt><trkpt lat="37.28555631024247" lon="15.004646471381006"><ele>105.0</ele><time>2026-04-06T10:31:48Z</time></trkpt><trkpt lat="37.28564276001953" lon="15.004600975882427"><ele>105.0</ele><time>2026-04-06T10:31:49Z</time></trkpt><trkpt lat="37.28572918085449" lon="15.004555494935984"><ele>105.0</ele><time>2026-04-06T10:31:50Z</time></trkpt><trkpt lat="37.28581192181823" lon="15.004491122841307"><ele>105.0</ele><time>2026-04-06T10:31:51Z</time></trkpt><trkpt lat="37.28590354516585" lon="15.004454470834386"><ele>104.6</ele><time>2026-04-06T10:31:52Z</time></trkpt><trkpt lat="37.285994357117936" lon="15.00444165432993"><ele>104.2</ele><time>2026-04-06T10:31:53Z</time></trkpt><trkpt lat="37.28608282348775" lon="15.004432026140249"><ele>103.80000000000001</ele><time>2026-04-06T10:31:54Z</time></trkpt><trkpt lat="37.28617923428654" lon="15.004429161383921"><ele>103.4</ele><time>2026-04-06T10:31:55Z</time></trkpt><trkpt lat="37.28627141125322" lon="15.004431002636306"><ele>103.0</ele><time>2026-04-06T10:31:56Z</time></trkpt><trkpt lat="37.286358790231986" lon="15.004420743075832"><ele>103.16666666666667</ele><time>2026-04-06T10:31:57Z</time></trkpt><trkpt lat="37.28644454700826" lon="15.004428123863077"><ele>103.33333333333334</ele><time>2026-04-06T10:31:58Z</time></trkpt><trkpt lat="37.286530499693676" lon="15.004429731814058"><ele>103.5</ele><time>2026-04-06T10:31:59Z</time></trkpt><trkpt lat="37.28661261610537" lon="15.0044299339137"><ele>103.66666666666666</ele><time>2026-04-06T10:32:00Z</time></trkpt><trkpt lat="37.28668496289253" lon="15.004431593526407"><ele>103.83333333333333</ele><time>2026-04-06T10:32:01Z</time></trkpt><trkpt lat="37.286748261343476" lon="15.004432324791525"><ele>104.0</ele><time>2026-04-06T10:32:02Z</time></trkpt><trkpt lat="37.286856945070866" lon="15.004454796040303"><ele>104.0</ele><time>2026-04-06T10:32:04Z</time></trkpt><trkpt lat="37.286976231758196" lon="15.00445898044278"><ele>104.0</ele><time>2026-04-06T10:32:06Z</time></trkpt><trkpt lat="37.28708227239515" lon="15.004452581821376"><ele>104.0</ele><time>2026-04-06T10:32:08Z</time></trkpt><trkpt lat="37.28716304367665" lon="15.004464961697114"><ele>104.0</ele><time>2026-04-06T10:32:10Z</time></trkpt><trkpt lat="37.28724065065385" lon="15.004467143253764"><ele>104.0</ele><time>2026-04-06T10:32:13Z</time></trkpt><trkpt lat="37.287323645698464" lon="15.0044480402197"><ele>102.66666666666666</ele><time>2026-04-06T10:32:16Z</time></trkpt><trkpt lat="37.2874143952518" lon="15.004421034144679"><ele>101.33333333333333</ele><time>2026-04-06T10:32:19Z</time></trkpt><trkpt lat="37.287425129095084" lon="15.004316514308965"><ele>100.0</ele><time>2026-04-06T10:32:21Z</time></trkpt><trkpt lat="37.28739714482605" lon="15.004212999592218"><ele>98.66666666666666</ele><time>2026-04-06T10:32:23Z</time></trkpt><trkpt lat="37.2873486845252" lon="15.00411366791469"><ele>97.33333333333333</ele><time>2026-04-06T10:32:25Z</time></trkpt><trkpt lat="37.287311819007584" lon="15.004023519707653"><ele>96.0</ele><time>2026-04-06T10:32:27Z</time></trkpt><trkpt lat="37.28728712200775" lon="15.003942621913014"><ele>95.0</ele><time>2026-04-06T10:32:29Z</time></trkpt><trkpt lat="37.28727642155651" lon="15.003859129312833"><ele>94.0</ele><time>2026-04-06T10:32:32Z</time></trkpt><trkpt lat="37.287356699017145" lon="15.003754284152814"><ele>93.0</ele><time>2026-04-06T10:32:33Z</time></trkpt><trkpt lat="37.287423544024925" lon="15.003649533543818"><ele>92.0</ele><time>2026-04-06T10:32:34Z</time></trkpt><trkpt lat="37.2874787938527" lon="15.00354285851322"><ele>91.0</ele><time>2026-04-06T10:32:35Z</time></trkpt><trkpt lat="37.28752234757366" lon="15.003447682329993"><ele>91.0</ele><time>2026-04-06T10:32:36Z</time></trkpt><trkpt lat="37.2875668082709" lon="15.003343335406948"><ele>91.0</ele><time>2026-04-06T10:32:37Z</time></trkpt><trkpt lat="37.287618507722996" lon="15.003233057841923"><ele>91.0</ele><time>2026-04-06T10:32:38Z</time></trkpt><trkpt lat="37.287672927606316" lon="15.003117398086848"><ele>91.0</ele><time>2026-04-06T10:32:39Z</time></trkpt><trkpt lat="37.28772369050296" lon="15.002994889770964"><ele>91.0</ele><time>2026-04-06T10:32:40Z</time></trkpt><trkpt lat="37.28776667659087" lon="15.002872562030413"><ele>89.19999999999999</ele><time>2026-04-06T10:32:41Z</time></trkpt><trkpt lat="37.28780944527146" lon="15.002752761989857"><ele>87.39999999999999</ele><time>2026-04-06T10:32:42Z</time></trkpt><trkpt lat="37.28785127057337" lon="15.002644809450205"><ele>85.6</ele><time>2026-04-06T10:32:43Z</time></trkpt><trkpt lat="37.28788572187498" lon="15.002554177373685"><ele>83.8</ele><time>2026-04-06T10:32:44Z</time></trkpt><trkpt lat="37.28792555594091" lon="15.002407175373078"><ele>82.0</ele><time>2026-04-06T10:32:46Z</time></trkpt><trkpt lat="37.28794656098594" lon="15.002267881651965"><ele>81.0</ele><time>2026-04-06T10:32:48Z</time></trkpt><trkpt lat="37.28791570274199" lon="15.002156260114216"><ele>80.0</ele><time>2026-04-06T10:32:50Z</time></trkpt><trkpt lat="37.287900057540114" lon="15.002032634544923"><ele>79.0</ele><time>2026-04-06T10:32:52Z</time></trkpt><trkpt lat="37.28793123113918" lon="15.001954355253082"><ele>78.0</ele><time>2026-04-06T10:32:53Z</time></trkpt><trkpt lat="37.28798536073077" lon="15.001892898416395"><ele>77.0</ele><time>2026-04-06T10:32:54Z</time></trkpt><trkpt lat="37.288042987160225" lon="15.00179217170848"><ele>76.0</ele><time>2026-04-06T10:32:55Z</time></trkpt><trkpt lat="37.288113234605646" lon="15.001705924282426"><ele>75.0</ele><time>2026-04-06T10:32:56Z</time></trkpt><trkpt lat="37.28817463369459" lon="15.001622990118138"><ele>74.0</ele><time>2026-04-06T10:32:57Z</time></trkpt><trkpt lat="37.28823621620931" lon="15.001541399778537"><ele>73.0</ele><time>2026-04-06T10:32:58Z</time></trkpt><trkpt lat="37.28830042404384" lon="15.00146107459016"><ele>72.0</ele><time>2026-04-06T10:32:59Z</time></trkpt><trkpt lat="37.28836037878678" lon="15.001378467112957"><ele>71.0</ele><time>2026-04-06T10:33:00Z</time></trkpt><trkpt lat="37.288421701167444" lon="15.001296521824399"><ele>70.0</ele><time>2026-04-06T10:33:01Z</time></trkpt><trkpt lat="37.28848395272901" lon="15.001216229035439"><ele>70.0</ele><time>2026-04-06T10:33:02Z</time></trkpt><trkpt lat="37.288546573728574" lon="15.001131920175034"><ele>70.0</ele><time>2026-04-06T10:33:03Z</time></trkpt><trkpt lat="37.28860245060368" lon="15.001047759126637"><ele>70.0</ele><time>2026-04-06T10:33:04Z</time></trkpt><trkpt lat="37.28866628322886" lon="15.000985029079194"><ele>70.0</ele><time>2026-04-06T10:33:05Z</time></trkpt><trkpt lat="37.288707432509995" lon="15.000920820236521"><ele>70.0</ele><time>2026-04-06T10:33:06Z</time></trkpt><trkpt lat="37.288770264031314" lon="15.000882402788989"><ele>70.0</ele><time>2026-04-06T10:33:07Z</time></trkpt><trkpt lat="37.288851774992494" lon="15.000868894186768"><ele>69.4</ele><time>2026-04-06T10:33:08Z</time></trkpt><trkpt lat="37.28893691284367" lon="15.000885840550836"><ele>68.8</ele><time>2026-04-06T10:33:09Z</time></trkpt><trkpt lat="37.28904758029513" lon="15.000868598070957"><ele>68.2</ele><time>2026-04-06T10:33:10Z</time></trkpt><trkpt lat="37.28915301099284" lon="15.000849871494747"><ele>67.6</ele><time>2026-04-06T10:33:11Z</time></trkpt><trkpt lat="37.28925873899253" lon="15.000864795488095"><ele>67.0</ele><time>2026-04-06T10:33:12Z</time></trkpt><trkpt lat="37.28935950604515" lon="15.00084035236492"><ele>66.33333333333333</ele><time>2026-04-06T10:33:13Z</time></trkpt><trkpt lat="37.28945176339109" lon="15.000823832734467"><ele>65.66666666666666</ele><time>2026-04-06T10:33:14Z</time></trkpt><trkpt lat="37.28953630847288" lon="15.00078337235808"><ele>65.0</ele><time>2026-04-06T10:33:15Z</time></trkpt><trkpt lat="37.289628055252685" lon="15.000756832792913"><ele>64.33333333333333</ele><time>2026-04-06T10:33:16Z</time></trkpt><trkpt lat="37.289706001550265" lon="15.00069861268628"><ele>63.666666666666664</ele><time>2026-04-06T10:33:17Z</time></trkpt><trkpt lat="37.28977933897475" lon="15.000669515453597"><ele>63.0</ele><time>2026-04-06T10:33:18Z</time></trkpt><trkpt lat="37.289848275238946" lon="15.00063911412375"><ele>62.333333333333336</ele><time>2026-04-06T10:33:19Z</time></trkpt><trkpt lat="37.2899131202263" lon="15.00060630834283"><ele>61.66666666666667</ele><time>2026-04-06T10:33:20Z</time></trkpt><trkpt lat="37.28998494220377" lon="15.000593995615251"><ele>61.0</ele><time>2026-04-06T10:33:21Z</time></trkpt><trkpt lat="37.29004679570103" lon="15.000519177710391"><ele>60.333333333333336</ele><time>2026-04-06T10:33:22Z</time></trkpt><trkpt lat="37.29011903710408" lon="15.000445114215195"><ele>59.66666666666667</ele><time>2026-04-06T10:33:23Z</time></trkpt><trkpt lat="37.290192718248775" lon="15.000354573025275"><ele>59.0</ele><time>2026-04-06T10:33:24Z</time></trkpt><trkpt lat="37.29026473884678" lon="15.000268091516764"><ele>59.00000000000001</ele><time>2026-04-06T10:33:25Z</time></trkpt><trkpt lat="37.29033484478773" lon="15.000185346592097"><ele>59.0</ele><time>2026-04-06T10:33:26Z</time></trkpt><trkpt lat="37.29040043545057" lon="15.000108213276699"><ele>59.0</ele><time>2026-04-06T10:33:27Z</time></trkpt><trkpt lat="37.29046407016126" lon="15.000032825427384"><ele>59.0</ele><time>2026-04-06T10:33:28Z</time></trkpt><trkpt lat="37.290528510232875" lon="14.999963600156374"><ele>59.00000000000001</ele><time>2026-04-06T10:33:29Z</time></trkpt><trkpt lat="37.29058930498428" lon="14.99989668563947"><ele>59.0</ele><time>2026-04-06T10:33:30Z</time></trkpt><trkpt lat="37.290648702037736" lon="14.999826208513241"><ele>58.2</ele><time>2026-04-06T10:33:31Z</time></trkpt><trkpt lat="37.29070592627359" lon="14.999754461271628"><ele>57.400000000000006</ele><time>2026-04-06T10:33:32Z</time></trkpt><trkpt lat="37.290765185585556" lon="14.99969453448637"><ele>56.6</ele><time>2026-04-06T10:33:33Z</time></trkpt><trkpt lat="37.29081546687483" lon="14.99964493895461"><ele>55.8</ele><time>2026-04-06T10:33:34Z</time></trkpt><trkpt lat="37.29083903025753" lon="14.999569669776724"><ele>55.0</ele><time>2026-04-06T10:33:36Z</time></trkpt><trkpt lat="37.29098261425544" lon="14.99967579053237"><ele>54.99999999999999</ele><time>2026-04-06T10:33:38Z</time></trkpt><trkpt lat="37.291070532332654" lon="14.999716886549388"><ele>55.0</ele><time>2026-04-06T10:33:39Z</time></trkpt><trkpt lat="37.29115286068236" lon="14.999756643231734"><ele>55.0</ele><time>2026-04-06T10:33:40Z</time></trkpt><trkpt lat="37.29122429197185" lon="14.999812494542406"><ele>55.0</ele><time>2026-04-06T10:33:41Z</time></trkpt><trkpt lat="37.29129218202781" lon="14.99985307094375"><ele>54.99999999999999</ele><time>2026-04-06T10:33:42Z</time></trkpt><trkpt lat="37.29135790241443" lon="14.999895734735176"><ele>55.0</ele><time>2026-04-06T10:33:43Z</time></trkpt><trkpt lat="37.291424796475646" lon="14.99993465981069"><ele>53.75</ele><time>2026-04-06T10:33:44Z</time></trkpt><trkpt lat="37.29158592912652" lon="15.000018152795574"><ele>52.5</ele><time>2026-04-06T10:33:46Z</time></trkpt><trkpt lat="37.29167510047903" lon="15.000065578163309"><ele>51.25</ele><time>2026-04-06T10:33:47Z</time></trkpt><trkpt lat="37.29176764926639" lon="15.000115576616341"><ele>50.0</ele><time>2026-04-06T10:33:48Z</time></trkpt><trkpt lat="37.29186097150039" lon="15.000169452972365"><ele>50.0</ele><time>2026-04-06T10:33:49Z</time></trkpt><trkpt lat="37.29194677572028" lon="15.000221359020399"><ele>50.0</ele><time>2026-04-06T10:33:50Z</time></trkpt><trkpt lat="37.29202482851562" lon="15.000286268159531"><ele>50.0</ele><time>2026-04-06T10:33:51Z</time></trkpt><trkpt lat="37.29210548617414" lon="15.000332200565083"><ele>50.0</ele><time>2026-04-06T10:33:52Z</time></trkpt><trkpt lat="37.292186103799345" lon="15.000378110136273"><ele>50.0</ele><time>2026-04-06T10:33:53Z</time></trkpt><trkpt lat="37.29226749300689" lon="15.000424459121287"><ele>49.833333333333336</ele><time>2026-04-06T10:33:54Z</time></trkpt><trkpt lat="37.29234831067091" lon="15.000470482637994"><ele>49.66666666666667</ele><time>2026-04-06T10:33:55Z</time></trkpt><trkpt lat="37.292433621392135" lon="15.000497719422967"><ele>49.5</ele><time>2026-04-06T10:33:56Z</time></trkpt><trkpt lat="37.29250292941524" lon="15.000546790383918"><ele>49.33333333333333</ele><time>2026-04-06T10:33:57Z</time></trkpt><trkpt lat="37.292570684672995" lon="15.000592446332815"><ele>49.166666666666664</ele><time>2026-04-06T10:33:58Z</time></trkpt><trkpt lat="37.29264431366539" lon="15.00062569090086"><ele>49.0</ele><time>2026-04-06T10:33:59Z</time></trkpt><trkpt lat="37.29271740136332" lon="15.00066226448085"><ele>49.0</ele><time>2026-04-06T10:34:00Z</time></trkpt><trkpt lat="37.29278663105476" lon="15.000701648719714"><ele>49.0</ele><time>2026-04-06T10:34:01Z</time></trkpt><trkpt lat="37.29284788200496" lon="15.000745300111742"><ele>49.0</ele><time>2026-04-06T10:34:02Z</time></trkpt><trkpt lat="37.2928971993204" lon="15.000813709524415"><ele>49.0</ele><time>2026-04-06T10:34:03Z</time></trkpt><trkpt lat="37.292953453149295" lon="15.000874203260917"><ele>49.0</ele><time>2026-04-06T10:34:04Z</time></trkpt><trkpt lat="37.29301568212013" lon="15.00091036363926"><ele>49.0</ele><time>2026-04-06T10:34:05Z</time></trkpt><trkpt lat="37.29305572923141" lon="15.000997706556307"><ele>49.0</ele><time>2026-04-06T10:34:06Z</time></trkpt><trkpt lat="37.29315343490107" lon="15.00105897936718"><ele>49.0</ele><time>2026-04-06T10:34:08Z</time></trkpt><trkpt lat="37.29321509700065" lon="15.001092951893419"><ele>49.0</ele><time>2026-04-06T10:34:10Z</time></trkpt><trkpt lat="37.293241619812676" lon="15.001014202011747"><ele>49.0</ele><time>2026-04-06T10:34:13Z</time></trkpt><trkpt lat="37.29327815730491" lon="15.000932236437503"><ele>49.0</ele><time>2026-04-06T10:34:16Z</time></trkpt><trkpt lat="37.29310512800085" lon="15.000822433519607"><ele>49.0</ele><time>2026-04-06T10:34:17Z</time></trkpt><trkpt lat="37.29301085541589" lon="15.00076635113557"><ele>49.0</ele><time>2026-04-06T10:34:18Z</time></trkpt><trkpt lat="37.292922321686525" lon="15.000726247837454"><ele>49.0</ele><time>2026-04-06T10:34:19Z</time></trkpt><trkpt lat="37.29283927007071" lon="15.00068473787916"><ele>49.0</ele><time>2026-04-06T10:34:20Z</time></trkpt><trkpt lat="37.29275083761368" lon="15.000631913357243"><ele>49.0</ele><time>2026-04-06T10:34:21Z</time></trkpt><trkpt lat="37.29265600186611" lon="15.00058267453936"><ele>49.0</ele><time>2026-04-06T10:34:22Z</time></trkpt><trkpt lat="37.29255927951705" lon="15.000527483376464"><ele>49.0</ele><time>2026-04-06T10:34:23Z</time></trkpt><trkpt lat="37.292465086318096" lon="15.000473954084816"><ele>49.0</ele><time>2026-04-06T10:34:24Z</time></trkpt><trkpt lat="37.292371179627104" lon="15.0004189473371"><ele>49.0</ele><time>2026-04-06T10:34:25Z</time></trkpt><trkpt lat="37.292276312662864" lon="15.000365541739503"><ele>49.0</ele><time>2026-04-06T10:34:26Z</time></trkpt><trkpt lat="37.29218063453687" lon="15.000311226871267"><ele>49.0</ele><time>2026-04-06T10:34:27Z</time></trkpt><trkpt lat="37.2920872429665" lon="15.000257668779536"><ele>49.2</ele><time>2026-04-06T10:34:28Z</time></trkpt><trkpt lat="37.29199554463953" lon="15.000203316292401"><ele>49.400000000000006</ele><time>2026-04-06T10:34:29Z</time></trkpt><trkpt lat="37.29190324374782" lon="15.000147854027515"><ele>49.6</ele><time>2026-04-06T10:34:30Z</time></trkpt><trkpt lat="37.291811585169675" lon="15.000090158319642"><ele>49.8</ele><time>2026-04-06T10:34:31Z</time></trkpt><trkpt lat="37.29172135965624" lon="15.000041011642686"><ele>50.0</ele><time>2026-04-06T10:34:32Z</time></trkpt><trkpt lat="37.29163470416611" lon="14.999993715670895"><ele>50.00000000000001</ele><time>2026-04-06T10:34:33Z</time></trkpt><trkpt lat="37.29155186841945" lon="14.999947513591932"><ele>50.0</ele><time>2026-04-06T10:34:34Z</time></trkpt><trkpt lat="37.29148341497695" lon="14.999907293591878"><ele>50.0</ele><time>2026-04-06T10:34:35Z</time></trkpt><trkpt lat="37.29142499044791" lon="14.99987494580952"><ele>50.0</ele><time>2026-04-06T10:34:36Z</time></trkpt><trkpt lat="37.29131220437646" lon="14.99980678481903"><ele>50.00000000000001</ele><time>2026-04-06T10:34:38Z</time></trkpt><trkpt lat="37.291248535776965" lon="14.999766856544202"><ele>50.0</ele><time>2026-04-06T10:34:39Z</time></trkpt><trkpt lat="37.29117996353401" lon="14.999726091618736"><ele>51.0</ele><time>2026-04-06T10:34:40Z</time></trkpt><trkpt lat="37.29110621697676" lon="14.999687551449217"><ele>52.0</ele><time>2026-04-06T10:34:41Z</time></trkpt><trkpt lat="37.29103398132817" lon="14.999647009395975"><ele>53.0</ele><time>2026-04-06T10:34:42Z</time></trkpt><trkpt lat="37.290970368632124" lon="14.999603373768457"><ele>54.0</ele><time>2026-04-06T10:34:43Z</time></trkpt><trkpt lat="37.290887169885266" lon="14.999498590747594"><ele>55.0</ele><time>2026-04-06T10:34:45Z</time></trkpt><trkpt lat="37.29082406187848" lon="14.999392445726727"><ele>54.99999999999999</ele><time>2026-04-06T10:34:47Z</time></trkpt><trkpt lat="37.29082986708678" lon="14.999263524717598"><ele>55.0</ele><time>2026-04-06T10:34:49Z</time></trkpt><trkpt lat="37.290794154992625" lon="14.99914515782279"><ele>55.0</ele><time>2026-04-06T10:34:51Z</time></trkpt><trkpt lat="37.29074353874412" lon="14.999081930240129"><ele>55.0</ele><time>2026-04-06T10:34:54Z</time></trkpt><trkpt lat="37.290731243310574" lon="14.999182805242603"><ele>54.99999999999999</ele><time>2026-04-06T10:34:56Z</time></trkpt><trkpt lat="37.29070413470221" lon="14.9992577174232"><ele>55.0</ele><time>2026-04-06T10:34:57Z</time></trkpt><trkpt lat="37.29066707924252" lon="14.999356224400659"><ele>55.0</ele><time>2026-04-06T10:34:59Z</time></trkpt><trkpt lat="37.29066581702818" lon="14.999492952138795"><ele>55.0</ele><time>2026-04-06T10:35:04Z</time></trkpt><trkpt lat="37.290844897385135" lon="14.999578945687965"><ele>55.0</ele><time>2026-04-06T10:35:05Z</time></trkpt><trkpt lat="37.290921378285475" lon="14.999615898835891"><ele>55.0</ele><time>2026-04-06T10:35:06Z</time></trkpt><trkpt lat="37.29100491580441" lon="14.99966355897322"><ele>55.0</ele><time>2026-04-06T10:35:07Z</time></trkpt><trkpt lat="37.29107796026186" lon="14.999708657837157"><ele>55.0</ele><time>2026-04-06T10:35:08Z</time></trkpt><trkpt lat="37.29114150884922" lon="14.999747708100175"><ele>55.0</ele><time>2026-04-06T10:35:09Z</time></trkpt><trkpt lat="37.291243001437984" lon="14.999823042448767"><ele>55.0</ele><time>2026-04-06T10:35:11Z</time></trkpt><trkpt lat="37.291357129527135" lon="14.999891855579497"><ele>55.0</ele><time>2026-04-06T10:35:13Z</time></trkpt><trkpt lat="37.291489413432295" lon="14.99975444019988"><ele>53.75</ele><time>2026-04-06T10:35:14Z</time></trkpt><trkpt lat="37.29158390955087" lon="14.999707878281269"><ele>52.5</ele><time>2026-04-06T10:35:15Z</time></trkpt><trkpt lat="37.291684929254" lon="14.999677036740218"><ele>51.25</ele><time>2026-04-06T10:35:16Z</time></trkpt><trkpt lat="37.29180280560356" lon="14.9996143163117"><ele>50.0</ele><time>2026-04-06T10:35:17Z</time></trkpt><trkpt lat="37.29191985787983" lon="14.999576931773435"><ele>50.0</ele><time>2026-04-06T10:35:18Z</time></trkpt><trkpt lat="37.29203603965363" lon="14.999531610963928"><ele>50.0</ele><time>2026-04-06T10:35:19Z</time></trkpt><trkpt lat="37.29214670824619" lon="14.99948172779977"><ele>50.0</ele><time>2026-04-06T10:35:20Z</time></trkpt><trkpt lat="37.29225076088495" lon="14.999441280576063"><ele>50.0</ele><time>2026-04-06T10:35:21Z</time></trkpt><trkpt lat="37.29235608481466" lon="14.999404163937065"><ele>49.8</ele><time>2026-04-06T10:35:22Z</time></trkpt><trkpt lat="37.292461691820144" lon="14.999371601436808"><ele>49.6</ele><time>2026-04-06T10:35:23Z</time></trkpt><trkpt lat="37.2925668287215" lon="14.999332114829242"><ele>49.400000000000006</ele><time>2026-04-06T10:35:24Z</time></trkpt><trkpt lat="37.29267118341165" lon="14.999290105325645"><ele>49.2</ele><time>2026-04-06T10:35:25Z</time></trkpt><trkpt lat="37.29276931359241" lon="14.999254079434262"><ele>49.0</ele><time>2026-04-06T10:35:26Z</time></trkpt><trkpt lat="37.29286146982141" lon="14.99922360198442"><ele>49.0</ele><time>2026-04-06T10:35:27Z</time></trkpt><trkpt lat="37.292947776473156" lon="14.999212593185293"><ele>49.0</ele><time>2026-04-06T10:35:28Z</time></trkpt><trkpt lat="37.29302617265716" lon="14.99920517896834"><ele>49.0</ele><time>2026-04-06T10:35:29Z</time></trkpt><trkpt lat="37.29310225951302" lon="14.999209242353162"><ele>49.0</ele><time>2026-04-06T10:35:30Z</time></trkpt><trkpt lat="37.29324018067463" lon="14.999219763444248"><ele>49.0</ele><time>2026-04-06T10:35:32Z</time></trkpt><trkpt lat="37.293315884602364" lon="14.999209380673339"><ele>49.0</ele><time>2026-04-06T10:35:33Z</time></trkpt><trkpt lat="37.29339772493375" lon="14.999205475662873"><ele>49.0</ele><time>2026-04-06T10:35:34Z</time></trkpt><trkpt lat="37.29347313136622" lon="14.9992122451599"><ele>49.0</ele><time>2026-04-06T10:35:35Z</time></trkpt><trkpt lat="37.293585314054994" lon="14.999199925690526"><ele>49.0</ele><time>2026-04-06T10:35:37Z</time></trkpt><trkpt lat="37.29364621731289" lon="14.999084321381208"><ele>49.0</ele><time>2026-04-06T10:35:39Z</time></trkpt><trkpt lat="37.29369275181431" lon="14.99893259145185"><ele>48.400000000000006</ele><time>2026-04-06T10:35:41Z</time></trkpt><trkpt lat="37.293705475891194" lon="14.998849881786978"><ele>47.8</ele><time>2026-04-06T10:35:42Z</time></trkpt><trkpt lat="37.2937918724895" lon="14.998805591408457"><ele>47.2</ele><time>2026-04-06T10:35:43Z</time></trkpt><trkpt lat="37.29388603956042" lon="14.998798721176748"><ele>46.599999999999994</ele><time>2026-04-06T10:35:44Z</time></trkpt><trkpt lat="37.293989740633265" lon="14.998751114501234"><ele>46.0</ele><time>2026-04-06T10:35:45Z</time></trkpt><trkpt lat="37.294102286024135" lon="14.99872334111632"><ele>46.0</ele><time>2026-04-06T10:35:46Z</time></trkpt><trkpt lat="37.294204181870484" lon="14.998678774929187"><ele>46.0</ele><time>2026-04-06T10:35:47Z</time></trkpt><trkpt lat="37.29431002487257" lon="14.9986250433977"><ele>46.0</ele><time>2026-04-06T10:35:48Z</time></trkpt><trkpt lat="37.294430411650694" lon="14.998577485583942"><ele>46.0</ele><time>2026-04-06T10:35:49Z</time></trkpt><trkpt lat="37.29457478488407" lon="14.998539767687173"><ele>46.0</ele><time>2026-04-06T10:35:50Z</time></trkpt><trkpt lat="37.294703297417136" lon="14.998500439882381"><ele>46.0</ele><time>2026-04-06T10:35:51Z</time></trkpt><trkpt lat="37.29482142161752" lon="14.998455715994497"><ele>46.0</ele><time>2026-04-06T10:35:52Z</time></trkpt><trkpt lat="37.29493470467404" lon="14.998407798545383"><ele>46.0</ele><time>2026-04-06T10:35:53Z</time></trkpt><trkpt lat="37.295044908560975" lon="14.998359529192598"><ele>45.199999999999996</ele><time>2026-04-06T10:35:54Z</time></trkpt><trkpt lat="37.29515673481607" lon="14.998312633313553"><ele>44.4</ele><time>2026-04-06T10:35:55Z</time></trkpt><trkpt lat="37.29526255772063" lon="14.998269107250838"><ele>43.6</ele><time>2026-04-06T10:35:56Z</time></trkpt><trkpt lat="37.2953642629701" lon="14.998217337284574"><ele>42.8</ele><time>2026-04-06T10:35:57Z</time></trkpt><trkpt lat="37.29547094746919" lon="14.998190251139953"><ele>42.0</ele><time>2026-04-06T10:35:58Z</time></trkpt><trkpt lat="37.29558076797296" lon="14.998147129788741"><ele>41.5</ele><time>2026-04-06T10:35:59Z</time></trkpt><trkpt lat="37.29569800036415" lon="14.99808773540013"><ele>41.0</ele><time>2026-04-06T10:36:00Z</time></trkpt><trkpt lat="37.29582411356178" lon="14.998046305949897"><ele>40.5</ele><time>2026-04-06T10:36:01Z</time></trkpt><trkpt lat="37.29595235101805" lon="14.997999808205197"><ele>40.0</ele><time>2026-04-06T10:36:02Z</time></trkpt><trkpt lat="37.29608119417732" lon="14.997942922799103"><ele>40.0</ele><time>2026-04-06T10:36:03Z</time></trkpt><trkpt lat="37.29620929944713" lon="14.997890919572088"><ele>40.0</ele><time>2026-04-06T10:36:04Z</time></trkpt><trkpt lat="37.29633606725653" lon="14.997843414013799"><ele>40.0</ele><time>2026-04-06T10:36:05Z</time></trkpt><trkpt lat="37.296461486737115" lon="14.997793100299864"><ele>40.0</ele><time>2026-04-06T10:36:06Z</time></trkpt><trkpt lat="37.29658563965627" lon="14.997738773876854"><ele>38.75</ele><time>2026-04-06T10:36:07Z</time></trkpt><trkpt lat="37.296712821406636" lon="14.997687064320205"><ele>37.5</ele><time>2026-04-06T10:36:08Z</time></trkpt><trkpt lat="37.29684246336975" lon="14.997639986102953"><ele>36.25</ele><time>2026-04-06T10:36:09Z</time></trkpt><trkpt lat="37.29698390375516" lon="14.997590793285944"><ele>35.0</ele><time>2026-04-06T10:36:10Z</time></trkpt><trkpt lat="37.29714222484715" lon="14.997538327643651"><ele>33.666666666666664</ele><time>2026-04-06T10:36:11Z</time></trkpt><trkpt lat="37.297293839002556" lon="14.997476457203327"><ele>32.333333333333336</ele><time>2026-04-06T10:36:12Z</time></trkpt><trkpt lat="37.29744208667973" lon="14.997417323136368"><ele>31.0</ele><time>2026-04-06T10:36:13Z</time></trkpt><trkpt lat="37.29758741181626" lon="14.997360174519821"><ele>31.0</ele><time>2026-04-06T10:36:14Z</time></trkpt><trkpt lat="37.297721111203245" lon="14.997304277724686"><ele>31.0</ele><time>2026-04-06T10:36:15Z</time></trkpt><trkpt lat="37.29784894264956" lon="14.997251080673866"><ele>31.0</ele><time>2026-04-06T10:36:16Z</time></trkpt><trkpt lat="37.29796144492245" lon="14.997208472109005"><ele>31.0</ele><time>2026-04-06T10:36:17Z</time></trkpt><trkpt lat="37.29805589274645" lon="14.99717252448781"><ele>30.833333333333336</ele><time>2026-04-06T10:36:18Z</time></trkpt><trkpt lat="37.29813656873907" lon="14.997136140069616"><ele>30.666666666666668</ele><time>2026-04-06T10:36:19Z</time></trkpt><trkpt lat="37.298215004331595" lon="14.997106057580915"><ele>30.5</ele><time>2026-04-06T10:36:20Z</time></trkpt><trkpt lat="37.29829607317308" lon="14.997073710214709"><ele>30.333333333333336</ele><time>2026-04-06T10:36:21Z</time></trkpt><trkpt lat="37.29838250386971" lon="14.997041421317574"><ele>30.166666666666668</ele><time>2026-04-06T10:36:22Z</time></trkpt><trkpt lat="37.29847949761426" lon="14.99700842059865"><ele>30.0</ele><time>2026-04-06T10:36:23Z</time></trkpt><trkpt lat="37.29859183351052" lon="14.996967795742702"><ele>30.0</ele><time>2026-04-06T10:36:24Z</time></trkpt><trkpt lat="37.298712561835515" lon="14.996915222210815"><ele>30.0</ele><time>2026-04-06T10:36:25Z</time></trkpt><trkpt lat="37.298843581376204" lon="14.996861451525703"><ele>30.0</ele><time>2026-04-06T10:36:26Z</time></trkpt><trkpt lat="37.298967048246794" lon="14.99681094550076"><ele>30.0</ele><time>2026-04-06T10:36:27Z</time></trkpt><trkpt lat="37.29909018151941" lon="14.996757882552691"><ele>29.75</ele><time>2026-04-06T10:36:28Z</time></trkpt><trkpt lat="37.29921675212022" lon="14.996700403989651"><ele>29.5</ele><time>2026-04-06T10:36:29Z</time></trkpt><trkpt lat="37.29934594096589" lon="14.99664551898356"><ele>29.25</ele><time>2026-04-06T10:36:30Z</time></trkpt><trkpt lat="37.29949196026012" lon="14.996596666920947"><ele>29.0</ele><time>2026-04-06T10:36:31Z</time></trkpt><trkpt lat="37.29964058592325" lon="14.99654415770574"><ele>28.0</ele><time>2026-04-06T10:36:32Z</time></trkpt><trkpt lat="37.299780042097915" lon="14.996474873821958"><ele>27.0</ele><time>2026-04-06T10:36:33Z</time></trkpt><trkpt lat="37.29991469260242" lon="14.996396335532497"><ele>26.0</ele><time>2026-04-06T10:36:34Z</time></trkpt><trkpt lat="37.30005083858252" lon="14.996313331344615"><ele>26.0</ele><time>2026-04-06T10:36:35Z</time></trkpt><trkpt lat="37.300177528243495" lon="14.996236017257951"><ele>26.0</ele><time>2026-04-06T10:36:36Z</time></trkpt><trkpt lat="37.30029161512421" lon="14.996162481942635"><ele>26.0</ele><time>2026-04-06T10:36:37Z</time></trkpt><trkpt lat="37.30040183290845" lon="14.996093138474953"><ele>26.0</ele><time>2026-04-06T10:36:38Z</time></trkpt><trkpt lat="37.300512345907855" lon="14.996030262593846"><ele>26.0</ele><time>2026-04-06T10:36:39Z</time></trkpt><trkpt lat="37.300622643945765" lon="14.99596883876457"><ele>26.0</ele><time>2026-04-06T10:36:40Z</time></trkpt><trkpt lat="37.30073239409392" lon="14.995906303436673"><ele>26.0</ele><time>2026-04-06T10:36:41Z</time></trkpt><trkpt lat="37.30083711184525" lon="14.995845874650929"><ele>26.0</ele><time>2026-04-06T10:36:42Z</time></trkpt><trkpt lat="37.30093223625555" lon="14.995772169577487"><ele>26.0</ele><time>2026-04-06T10:36:43Z</time></trkpt><trkpt lat="37.301002471048086" lon="14.995668282947062"><ele>26.0</ele><time>2026-04-06T10:36:44Z</time></trkpt><trkpt lat="37.301063629476126" lon="14.995535901333074"><ele>26.0</ele><time>2026-04-06T10:36:45Z</time></trkpt><trkpt lat="37.30113568643555" lon="14.995406643098715"><ele>26.0</ele><time>2026-04-06T10:36:46Z</time></trkpt><trkpt lat="37.30121455755401" lon="14.995277751027933"><ele>26.0</ele><time>2026-04-06T10:36:47Z</time></trkpt><trkpt lat="37.30128970443286" lon="14.995151379254615"><ele>26.0</ele><time>2026-04-06T10:36:48Z</time></trkpt><trkpt lat="37.301363364561325" lon="14.995027302610215"><ele>26.0</ele><time>2026-04-06T10:36:49Z</time></trkpt><trkpt lat="37.30143305423568" lon="14.994910327905856"><ele>26.0</ele><time>2026-04-06T10:36:50Z</time></trkpt><trkpt lat="37.30150367875857" lon="14.994807228639344"><ele>26.25</ele><time>2026-04-06T10:36:51Z</time></trkpt><trkpt lat="37.30158809324603" lon="14.994710607651285"><ele>26.5</ele><time>2026-04-06T10:36:52Z</time></trkpt><trkpt lat="37.30168126252831" lon="14.994610901196506"><ele>26.75</ele><time>2026-04-06T10:36:53Z</time></trkpt><trkpt lat="37.301783399280744" lon="14.994513099863362"><ele>27.0</ele><time>2026-04-06T10:36:54Z</time></trkpt><trkpt lat="37.30189953157365" lon="14.99443774163607"><ele>27.0</ele><time>2026-04-06T10:36:55Z</time></trkpt><trkpt lat="37.30200143402517" lon="14.994341952638292"><ele>27.0</ele><time>2026-04-06T10:36:56Z</time></trkpt><trkpt lat="37.30211134253072" lon="14.99427380478462"><ele>27.0</ele><time>2026-04-06T10:36:57Z</time></trkpt><trkpt lat="37.3022277340975" lon="14.99420739375432"><ele>27.0</ele><time>2026-04-06T10:36:58Z</time></trkpt><trkpt lat="37.302336269489814" lon="14.994142600195023"><ele>27.0</ele><time>2026-04-06T10:36:59Z</time></trkpt><trkpt lat="37.302432016197066" lon="14.99407779952006"><ele>27.000000000000004</ele><time>2026-04-06T10:37:00Z</time></trkpt><trkpt lat="37.30251823199044" lon="14.994013267095294"><ele>27.000000000000004</ele><time>2026-04-06T10:37:01Z</time></trkpt><trkpt lat="37.30259979533399" lon="14.99394356238611"><ele>27.0</ele><time>2026-04-06T10:37:02Z</time></trkpt><trkpt lat="37.30266538738537" lon="14.993862491794829"><ele>27.0</ele><time>2026-04-06T10:37:03Z</time></trkpt><trkpt lat="37.302713542950805" lon="14.993765769572537"><ele>27.0</ele><time>2026-04-06T10:37:04Z</time></trkpt><trkpt lat="37.30273497204657" lon="14.993648374810249"><ele>27.0</ele><time>2026-04-06T10:37:05Z</time></trkpt><trkpt lat="37.30273611535498" lon="14.993511552542493"><ele>27.0</ele><time>2026-04-06T10:37:06Z</time></trkpt><trkpt lat="37.302720644476835" lon="14.993359719128378"><ele>27.0</ele><time>2026-04-06T10:37:07Z</time></trkpt><trkpt lat="37.302690786219365" lon="14.993206746249069"><ele>26.0</ele><time>2026-04-06T10:37:08Z</time></trkpt><trkpt lat="37.30265675613717" lon="14.993064652595235"><ele>25.000000000000004</ele><time>2026-04-06T10:37:09Z</time></trkpt><trkpt lat="37.30262258956458" lon="14.992926853962338"><ele>24.0</ele><time>2026-04-06T10:37:10Z</time></trkpt><trkpt lat="37.30259249943472" lon="14.992803661628592"><ele>23.0</ele><time>2026-04-06T10:37:11Z</time></trkpt><trkpt lat="37.30256976032355" lon="14.992695915580777"><ele>22.0</ele><time>2026-04-06T10:37:12Z</time></trkpt><trkpt lat="37.30254748911378" lon="14.992598861400618"><ele>22.0</ele><time>2026-04-06T10:37:13Z</time></trkpt><trkpt lat="37.3025267782894" lon="14.992508199756848"><ele>22.0</ele><time>2026-04-06T10:37:14Z</time></trkpt><trkpt lat="37.30250789319462" lon="14.992421008820527"><ele>22.0</ele><time>2026-04-06T10:37:15Z</time></trkpt><trkpt lat="37.3024819405023" lon="14.992283077194294"><ele>22.0</ele><time>2026-04-06T10:37:17Z</time></trkpt><trkpt lat="37.302454668660744" lon="14.992172464230066"><ele>22.0</ele><time>2026-04-06T10:37:20Z</time></trkpt><trkpt lat="37.30243875339104" lon="14.992094174718304"><ele>22.0</ele><time>2026-04-06T10:37:21Z</time></trkpt><trkpt lat="37.30241253734948" lon="14.99201281727681"><ele>21.571428571428573</ele><time>2026-04-06T10:37:22Z</time></trkpt><trkpt lat="37.30238284054174" lon="14.9919378943241"><ele>21.142857142857142</ele><time>2026-04-06T10:37:23Z</time></trkpt><trkpt lat="37.3023525014486" lon="14.991866510438953"><ele>20.714285714285715</ele><time>2026-04-06T10:37:24Z</time></trkpt><trkpt lat="37.302324667994746" lon="14.991785520907925"><ele>20.285714285714285</ele><time>2026-04-06T10:37:25Z</time></trkpt><trkpt lat="37.302303117783374" lon="14.991706632232656"><ele>19.857142857142858</ele><time>2026-04-06T10:37:26Z</time></trkpt><trkpt lat="37.302285037515404" lon="14.991627169754182"><ele>19.428571428571427</ele><time>2026-04-06T10:37:27Z</time></trkpt><trkpt lat="37.30226836737034" lon="14.991546678152073"><ele>19.0</ele><time>2026-04-06T10:37:28Z</time></trkpt><trkpt lat="37.30225027520641" lon="14.991466559476274"><ele>19.0</ele><time>2026-04-06T10:37:29Z</time></trkpt><trkpt lat="37.30222853804651" lon="14.99138386067991"><ele>19.0</ele><time>2026-04-06T10:37:30Z</time></trkpt><trkpt lat="37.3022094024729" lon="14.99129601917537"><ele>19.0</ele><time>2026-04-06T10:37:31Z</time></trkpt><trkpt lat="37.302195628751136" lon="14.991202859794889"><ele>19.0</ele><time>2026-04-06T10:37:32Z</time></trkpt><trkpt lat="37.30219232603981" lon="14.991105009963407"><ele>19.0</ele><time>2026-04-06T10:37:33Z</time></trkpt><trkpt lat="37.30220699921724" lon="14.99101092957915"><ele>19.0</ele><time>2026-04-06T10:37:34Z</time></trkpt><trkpt lat="37.30223324183338" lon="14.990920098874204"><ele>19.0</ele><time>2026-04-06T10:37:35Z</time></trkpt><trkpt lat="37.302267846152574" lon="14.990835581045337"><ele>18.8</ele><time>2026-04-06T10:37:36Z</time></trkpt><trkpt lat="37.30231864339676" lon="14.990761992325035"><ele>18.599999999999998</ele><time>2026-04-06T10:37:37Z</time></trkpt><trkpt lat="37.30239624323393" lon="14.990699832773391"><ele>18.4</ele><time>2026-04-06T10:37:38Z</time></trkpt><trkpt lat="37.30248524443377" lon="14.990643577696645"><ele>18.2</ele><time>2026-04-06T10:37:39Z</time></trkpt><trkpt lat="37.30257470066473" lon="14.99059385698333"><ele>18.0</ele><time>2026-04-06T10:37:40Z</time></trkpt><trkpt lat="37.302662535349675" lon="14.990545988668408"><ele>18.0</ele><time>2026-04-06T10:37:41Z</time></trkpt><trkpt lat="37.30276211926471" lon="14.990491889581495"><ele>18.0</ele><time>2026-04-06T10:37:42Z</time></trkpt><trkpt lat="37.30286579733482" lon="14.990430339008793"><ele>18.0</ele><time>2026-04-06T10:37:43Z</time></trkpt><trkpt lat="37.30297468241168" lon="14.990364683128746"><ele>18.0</ele><time>2026-04-06T10:37:44Z</time></trkpt><trkpt lat="37.30308690208836" lon="14.990288355654398"><ele>17.5</ele><time>2026-04-06T10:37:45Z</time></trkpt><trkpt lat="37.30319887543566" lon="14.990201671000971"><ele>17.0</ele><time>2026-04-06T10:37:46Z</time></trkpt><trkpt lat="37.30330839779108" lon="14.990111435148883"><ele>16.5</ele><time>2026-04-06T10:37:47Z</time></trkpt><trkpt lat="37.30340954392877" lon="14.99002184125219"><ele>16.0</ele><time>2026-04-06T10:37:48Z</time></trkpt><trkpt lat="37.30350744046936" lon="14.989929271518678"><ele>16.0</ele><time>2026-04-06T10:37:49Z</time></trkpt><trkpt lat="37.30360179635015" lon="14.989831857795664"><ele>16.0</ele><time>2026-04-06T10:37:50Z</time></trkpt><trkpt lat="37.30369508352853" lon="14.989732117851037"><ele>16.0</ele><time>2026-04-06T10:37:51Z</time></trkpt><trkpt lat="37.30378526875108" lon="14.989631550588747"><ele>16.0</ele><time>2026-04-06T10:37:52Z</time></trkpt><trkpt lat="37.30387019556442" lon="14.989524354375979"><ele>16.0</ele><time>2026-04-06T10:37:53Z</time></trkpt><trkpt lat="37.30394671577244" lon="14.989407045616366"><ele>16.0</ele><time>2026-04-06T10:37:54Z</time></trkpt><trkpt lat="37.30401057869907" lon="14.989277120676517"><ele>16.0</ele><time>2026-04-06T10:37:55Z</time></trkpt><trkpt lat="37.304069147144155" lon="14.989145813291454"><ele>16.0</ele><time>2026-04-06T10:37:56Z</time></trkpt><trkpt lat="37.30412048621783" lon="14.989010962017387"><ele>16.5</ele><time>2026-04-06T10:37:57Z</time></trkpt><trkpt lat="37.30416891442838" lon="14.98887609327232"><ele>17.0</ele><time>2026-04-06T10:37:58Z</time></trkpt><trkpt lat="37.30421761346103" lon="14.98873930602233"><ele>17.5</ele><time>2026-04-06T10:37:59Z</time></trkpt><trkpt lat="37.30426611546256" lon="14.988597702921151"><ele>18.0</ele><time>2026-04-06T10:38:00Z</time></trkpt><trkpt lat="37.30431384714378" lon="14.988453680557043"><ele>17.5</ele><time>2026-04-06T10:38:01Z</time></trkpt><trkpt lat="37.30435965209799" lon="14.988311230810321"><ele>17.0</ele><time>2026-04-06T10:38:02Z</time></trkpt><trkpt lat="37.30440251550422" lon="14.988174388906554"><ele>16.5</ele><time>2026-04-06T10:38:03Z</time></trkpt><trkpt lat="37.30444141248359" lon="14.988044684715632"><ele>16.0</ele><time>2026-04-06T10:38:04Z</time></trkpt><trkpt lat="37.30447866482566" lon="14.987925358760268"><ele>15.999999999999998</ele><time>2026-04-06T10:38:05Z</time></trkpt><trkpt lat="37.30451246896534" lon="14.987820945183003"><ele>16.0</ele><time>2026-04-06T10:38:06Z</time></trkpt><trkpt lat="37.30453699140621" lon="14.987733574219309"><ele>16.0</ele><time>2026-04-06T10:38:07Z</time></trkpt><trkpt lat="37.30456408254583" lon="14.987616417454676"><ele>16.0</ele><time>2026-04-06T10:38:09Z</time></trkpt><trkpt lat="37.30458421272256" lon="14.98752398775812"><ele>15.999999999999998</ele><time>2026-04-06T10:38:12Z</time></trkpt><trkpt lat="37.30460480504007" lon="14.987431533788508"><ele>16.0</ele><time>2026-04-06T10:38:16Z</time></trkpt><trkpt lat="37.30461739182706" lon="14.987302094400482"><ele>15.999999999999998</ele><time>2026-04-06T10:38:19Z</time></trkpt><trkpt lat="37.30462046285962" lon="14.987203169971748"><ele>16.0</ele><time>2026-04-06T10:38:21Z</time></trkpt><trkpt lat="37.304617115678425" lon="14.987104496070282"><ele>16.0</ele><time>2026-04-06T10:38:23Z</time></trkpt><trkpt lat="37.30462777464569" lon="14.987009555215545"><ele>16.0</ele><time>2026-04-06T10:38:25Z</time></trkpt><trkpt lat="37.30462857538338" lon="14.986924539263208"><ele>15.999999999999998</ele><time>2026-04-06T10:38:27Z</time></trkpt><trkpt lat="37.30462822003042" lon="14.986827377603651"><ele>16.0</ele><time>2026-04-06T10:38:29Z</time></trkpt><trkpt lat="37.304633690777294" lon="14.986722047830659"><ele>15.8</ele><time>2026-04-06T10:38:31Z</time></trkpt><trkpt lat="37.30463231646317" lon="14.986625011906582"><ele>15.600000000000001</ele><time>2026-04-06T10:38:33Z</time></trkpt><trkpt lat="37.304627871115585" lon="14.986504698899775"><ele>15.4</ele><time>2026-04-06T10:38:35Z</time></trkpt><trkpt lat="37.304634878987926" lon="14.986354205416793"><ele>15.2</ele><time>2026-04-06T10:38:37Z</time></trkpt><trkpt lat="37.30463492048829" lon="14.986203378374633"><ele>15.0</ele><time>2026-04-06T10:38:39Z</time></trkpt><trkpt lat="37.30463932485313" lon="14.986069466224826"><ele>15.0</ele><time>2026-04-06T10:38:41Z</time></trkpt><trkpt lat="37.30467458971014" lon="14.985944974380724"><ele>15.0</ele><time>2026-04-06T10:38:43Z</time></trkpt><trkpt lat="37.30475098055936" lon="14.985824776363021"><ele>15.0</ele><time>2026-04-06T10:38:45Z</time></trkpt><trkpt lat="37.30480519941998" lon="14.985776628888022"><ele>15.0</ele><time>2026-04-06T10:38:46Z</time></trkpt><trkpt lat="37.304866380371315" lon="14.985730666587449"><ele>15.0</ele><time>2026-04-06T10:38:47Z</time></trkpt><trkpt lat="37.304928176479564" lon="14.985677364462413"><ele>15.0</ele><time>2026-04-06T10:38:48Z</time></trkpt><trkpt lat="37.30499515461141" lon="14.985618654320026"><ele>15.4</ele><time>2026-04-06T10:38:49Z</time></trkpt><trkpt lat="37.305068805105925" lon="14.985554142041446"><ele>15.8</ele><time>2026-04-06T10:38:50Z</time></trkpt><trkpt lat="37.30514492094209" lon="14.985495799799866"><ele>16.2</ele><time>2026-04-06T10:38:51Z</time></trkpt><trkpt lat="37.30521988674323" lon="14.985433288104236"><ele>16.6</ele><time>2026-04-06T10:38:52Z</time></trkpt><trkpt lat="37.30529558043334" lon="14.985367601884196"><ele>17.0</ele><time>2026-04-06T10:38:53Z</time></trkpt><trkpt lat="37.305371496283975" lon="14.98529926692165"><ele>17.0</ele><time>2026-04-06T10:38:54Z</time></trkpt><trkpt lat="37.30544628841487" lon="14.985222507684412"><ele>17.0</ele><time>2026-04-06T10:38:55Z</time></trkpt><trkpt lat="37.30551385445926" lon="14.985131713572878"><ele>17.0</ele><time>2026-04-06T10:38:56Z</time></trkpt><trkpt lat="37.30557158531467" lon="14.98502552990412"><ele>17.0</ele><time>2026-04-06T10:38:57Z</time></trkpt><trkpt lat="37.3056162496181" lon="14.98490813476595"><ele>17.0</ele><time>2026-04-06T10:38:58Z</time></trkpt><trkpt lat="37.305651905004524" lon="14.984775774704117"><ele>17.0</ele><time>2026-04-06T10:38:59Z</time></trkpt><trkpt lat="37.305679642005444" lon="14.984631134097393"><ele>17.0</ele><time>2026-04-06T10:39:00Z</time></trkpt><trkpt lat="37.30570382013807" lon="14.984481105425607"><ele>17.0</ele><time>2026-04-06T10:39:01Z</time></trkpt><trkpt lat="37.305736079380345" lon="14.984327369358283"><ele>17.0</ele><time>2026-04-06T10:39:02Z</time></trkpt><trkpt lat="37.305773039049946" lon="14.984172521738449"><ele>17.5</ele><time>2026-04-06T10:39:03Z</time></trkpt><trkpt lat="37.30580669427379" lon="14.984024139052524"><ele>18.0</ele><time>2026-04-06T10:39:04Z</time></trkpt><trkpt lat="37.30584704954727" lon="14.983883850372553"><ele>18.5</ele><time>2026-04-06T10:39:05Z</time></trkpt><trkpt lat="37.305899427466116" lon="14.983741755793373"><ele>19.0</ele><time>2026-04-06T10:39:06Z</time></trkpt><trkpt lat="37.30595652641957" lon="14.983595456548425"><ele>19.0</ele><time>2026-04-06T10:39:07Z</time></trkpt><trkpt lat="37.306017699501005" lon="14.983446383713249"><ele>19.0</ele><time>2026-04-06T10:39:08Z</time></trkpt><trkpt lat="37.30609147642173" lon="14.983301639159501"><ele>19.0</ele><time>2026-04-06T10:39:09Z</time></trkpt><trkpt lat="37.30616992836066" lon="14.983155607876997"><ele>19.0</ele><time>2026-04-06T10:39:10Z</time></trkpt><trkpt lat="37.30624723212483" lon="14.983004536510164"><ele>19.0</ele><time>2026-04-06T10:39:11Z</time></trkpt><trkpt lat="37.30632449241517" lon="14.982852447781868"><ele>19.0</ele><time>2026-04-06T10:39:12Z</time></trkpt><trkpt lat="37.30640331383184" lon="14.982701517964172"><ele>19.0</ele><time>2026-04-06T10:39:13Z</time></trkpt><trkpt lat="37.3064812953116" lon="14.982547085677217"><ele>19.0</ele><time>2026-04-06T10:39:14Z</time></trkpt><trkpt lat="37.30655582284323" lon="14.982392388563138"><ele>19.0</ele><time>2026-04-06T10:39:15Z</time></trkpt><trkpt lat="37.306627294886674" lon="14.982241932041683"><ele>19.0</ele><time>2026-04-06T10:39:16Z</time></trkpt><trkpt lat="37.30669581285142" lon="14.9820977442649"><ele>19.0</ele><time>2026-04-06T10:39:17Z</time></trkpt><trkpt lat="37.30676217407598" lon="14.981959200064756"><ele>19.0</ele><time>2026-04-06T10:39:18Z</time></trkpt><trkpt lat="37.30682475525513" lon="14.981824256348537"><ele>19.0</ele><time>2026-04-06T10:39:19Z</time></trkpt><trkpt lat="37.30688487783442" lon="14.981695571533976"><ele>19.0</ele><time>2026-04-06T10:39:20Z</time></trkpt><trkpt lat="37.306944958892615" lon="14.9815719372476"><ele>19.0</ele><time>2026-04-06T10:39:21Z</time></trkpt><trkpt lat="37.30700014856907" lon="14.981450657651484"><ele>19.0</ele><time>2026-04-06T10:39:22Z</time></trkpt><trkpt lat="37.30705038688942" lon="14.981328806868571"><ele>19.4</ele><time>2026-04-06T10:39:23Z</time></trkpt><trkpt lat="37.30709823218414" lon="14.981210105243722"><ele>19.799999999999997</ele><time>2026-04-06T10:39:24Z</time></trkpt><trkpt lat="37.30715182872911" lon="14.98110091252981"><ele>20.200000000000003</ele><time>2026-04-06T10:39:25Z</time></trkpt><trkpt lat="37.307202162743366" lon="14.98099670207083"><ele>20.6</ele><time>2026-04-06T10:39:26Z</time></trkpt><trkpt lat="37.30724440860656" lon="14.980885558859262"><ele>21.0</ele><time>2026-04-06T10:39:27.001Z</time></trkpt><trkpt lat="37.30727864992546" lon="14.98076984637615"><ele>20.2</ele><time>2026-04-06T10:39:28.001Z</time></trkpt><trkpt lat="37.307295596806235" lon="14.980647917395205"><ele>19.400000000000002</ele><time>2026-04-06T10:39:29.001Z</time></trkpt><trkpt lat="37.30729932798849" lon="14.980522660702928"><ele>18.6</ele><time>2026-04-06T10:39:30.001Z</time></trkpt><trkpt lat="37.30729086287828" lon="14.980396852829324"><ele>17.8</ele><time>2026-04-06T10:39:31.001Z</time></trkpt><trkpt lat="37.3072795248599" lon="14.980269820219073"><ele>17.0</ele><time>2026-04-06T10:39:32.001Z</time></trkpt><trkpt lat="37.30726850275387" lon="14.980137307383103"><ele>17.4</ele><time>2026-04-06T10:39:33.001Z</time></trkpt><trkpt lat="37.30725127526847" lon="14.980005131515307"><ele>17.799999999999997</ele><time>2026-04-06T10:39:34.001Z</time></trkpt><trkpt lat="37.30722883238644" lon="14.97988152350052"><ele>18.2</ele><time>2026-04-06T10:39:35.001Z</time></trkpt><trkpt lat="37.30720615386307" lon="14.97976364907828"><ele>18.599999999999998</ele><time>2026-04-06T10:39:36.001Z</time></trkpt><trkpt lat="37.307184233972144" lon="14.979656709428314"><ele>19.0</ele><time>2026-04-06T10:39:37.001Z</time></trkpt><trkpt lat="37.307161326888654" lon="14.979561788437405"><ele>19.333333333333332</ele><time>2026-04-06T10:39:38.001Z</time></trkpt><trkpt lat="37.307137699351586" lon="14.979469877969459"><ele>19.666666666666664</ele><time>2026-04-06T10:39:39.001Z</time></trkpt><trkpt lat="37.30711414414272" lon="14.979386271713578"><ele>20.0</ele><time>2026-04-06T10:39:40.001Z</time></trkpt><trkpt lat="37.30708893761634" lon="14.979310102161339"><ele>20.333333333333332</ele><time>2026-04-06T10:39:41.001Z</time></trkpt><trkpt lat="37.30706519308344" lon="14.979235526980078"><ele>20.666666666666668</ele><time>2026-04-06T10:39:42.001Z</time></trkpt><trkpt lat="37.30702508534432" lon="14.97909456757265"><ele>21.0</ele><time>2026-04-06T10:39:44.001Z</time></trkpt><trkpt lat="37.307020167285295" lon="14.978983424673551"><ele>21.0</ele><time>2026-04-06T10:39:46.001Z</time></trkpt><trkpt lat="37.30713048427082" lon="14.978872092517726"><ele>21.0</ele><time>2026-04-06T10:39:49.001Z</time></trkpt><trkpt lat="37.307197370084" lon="14.978866615430954"><ele>21.0</ele><time>2026-04-06T10:39:50.001Z</time></trkpt><trkpt lat="37.30728001742647" lon="14.978834666267295"><ele>21.0</ele><time>2026-04-06T10:39:51.001Z</time></trkpt><trkpt lat="37.307377147218546" lon="14.978781208965497"><ele>21.0</ele><time>2026-04-06T10:39:52.001Z</time></trkpt><trkpt lat="37.307480493183405" lon="14.978749941258918"><ele>20.8</ele><time>2026-04-06T10:39:53.001Z</time></trkpt><trkpt lat="37.30757845557081" lon="14.978717132236357"><ele>20.6</ele><time>2026-04-06T10:39:54.001Z</time></trkpt><trkpt lat="37.30767968583602" lon="14.978686392365736"><ele>20.4</ele><time>2026-04-06T10:39:55.001Z</time></trkpt><trkpt lat="37.30778312383112" lon="14.978658687304847"><ele>20.2</ele><time>2026-04-06T10:39:56.001Z</time></trkpt><trkpt lat="37.30788763510497" lon="14.9786238781302"><ele>20.0</ele><time>2026-04-06T10:39:57.001Z</time></trkpt><trkpt lat="37.307989094990845" lon="14.978583245959188"><ele>19.5</ele><time>2026-04-06T10:39:58.001Z</time></trkpt><trkpt lat="37.30808569599453" lon="14.97854778669813"><ele>19.0</ele><time>2026-04-06T10:39:59.001Z</time></trkpt><trkpt lat="37.30817660391761" lon="14.978520515805721"><ele>18.5</ele><time>2026-04-06T10:40:00.001Z</time></trkpt><trkpt lat="37.30826089266702" lon="14.978493273827848"><ele>18.0</ele><time>2026-04-06T10:40:01.001Z</time></trkpt><trkpt lat="37.30834274947031" lon="14.978470396029724"><ele>17.5</ele><time>2026-04-06T10:40:02.001Z</time></trkpt><trkpt lat="37.30842200611683" lon="14.978473263213735"><ele>17.0</ele><time>2026-04-06T10:40:03.001Z</time></trkpt><trkpt lat="37.308498502268435" lon="14.978448428917066"><ele>17.0</ele><time>2026-04-06T10:40:04.001Z</time></trkpt><trkpt lat="37.30857992377543" lon="14.978454514296935"><ele>17.0</ele><time>2026-04-06T10:40:05.001Z</time></trkpt><trkpt lat="37.30866279084442" lon="14.978464496367158"><ele>17.0</ele><time>2026-04-06T10:40:06.001Z</time></trkpt><trkpt lat="37.30874788189857" lon="14.978472296211919"><ele>17.0</ele><time>2026-04-06T10:40:07.001Z</time></trkpt><trkpt lat="37.30883479869773" lon="14.978482443770648"><ele>17.0</ele><time>2026-04-06T10:40:08.001Z</time></trkpt><trkpt lat="37.30891809673465" lon="14.978522527618791"><ele>17.0</ele><time>2026-04-06T10:40:09.001Z</time></trkpt><trkpt lat="37.309008506142725" lon="14.978547035091452"><ele>17.0</ele><time>2026-04-06T10:40:10.001Z</time></trkpt><trkpt lat="37.3091069904104" lon="14.978569353817422"><ele>17.0</ele><time>2026-04-06T10:40:11.001Z</time></trkpt><trkpt lat="37.309210064188065" lon="14.978563941091242"><ele>17.0</ele><time>2026-04-06T10:40:12.001Z</time></trkpt><trkpt lat="37.30931259688318" lon="14.978571760518227"><ele>17.0</ele><time>2026-04-06T10:40:13Z</time></trkpt><trkpt lat="37.30941788592878" lon="14.97857527670399"><ele>17.0</ele><time>2026-04-06T10:40:14Z</time></trkpt><trkpt lat="37.309526080591745" lon="14.978573558101052"><ele>17.0</ele><time>2026-04-06T10:40:15Z</time></trkpt><trkpt lat="37.30963414475508" lon="14.978553332715746"><ele>17.0</ele><time>2026-04-06T10:40:16Z</time></trkpt><trkpt lat="37.309741738430894" lon="14.978523519895665"><ele>17.0</ele><time>2026-04-06T10:40:17Z</time></trkpt><trkpt lat="37.30983893761785" lon="14.978478446428147"><ele>17.0</ele><time>2026-04-06T10:40:18Z</time></trkpt><trkpt lat="37.30992439925245" lon="14.978412552775792"><ele>17.0</ele><time>2026-04-06T10:40:19Z</time></trkpt><trkpt lat="37.30999600793912" lon="14.978325039785904"><ele>18.6</ele><time>2026-04-06T10:40:20Z</time></trkpt><trkpt lat="37.3100652660883" lon="14.9782271563471"><ele>20.2</ele><time>2026-04-06T10:40:21Z</time></trkpt><trkpt lat="37.31013323542939" lon="14.978124387990487"><ele>21.8</ele><time>2026-04-06T10:40:22Z</time></trkpt><trkpt lat="37.31020178879757" lon="14.978014456664592"><ele>23.4</ele><time>2026-04-06T10:40:23Z</time></trkpt><trkpt lat="37.31027167935271" lon="14.9779019985715"><ele>25.0</ele><time>2026-04-06T10:40:24Z</time></trkpt><trkpt lat="37.31034694536373" lon="14.977790642247786"><ele>25.0</ele><time>2026-04-06T10:40:25Z</time></trkpt><trkpt lat="37.31042162784902" lon="14.977676523341138"><ele>25.0</ele><time>2026-04-06T10:40:26Z</time></trkpt><trkpt lat="37.3104923443349" lon="14.97756465951936"><ele>25.0</ele><time>2026-04-06T10:40:27Z</time></trkpt><trkpt lat="37.31056322640002" lon="14.977455146776562"><ele>25.0</ele><time>2026-04-06T10:40:28Z</time></trkpt><trkpt lat="37.310640961923205" lon="14.977352573302781"><ele>25.5</ele><time>2026-04-06T10:40:29Z</time></trkpt><trkpt lat="37.310723085873235" lon="14.977248980249191"><ele>26.0</ele><time>2026-04-06T10:40:30Z</time></trkpt><trkpt lat="37.310812974734226" lon="14.977150718061743"><ele>26.5</ele><time>2026-04-06T10:40:31Z</time></trkpt><trkpt lat="37.310910806353995" lon="14.977058310508685"><ele>27.0</ele><time>2026-04-06T10:40:32Z</time></trkpt><trkpt lat="37.311015218013395" lon="14.97697445631732"><ele>27.0</ele><time>2026-04-06T10:40:33Z</time></trkpt><trkpt lat="37.31112423056459" lon="14.976895290946125"><ele>27.0</ele><time>2026-04-06T10:40:34Z</time></trkpt><trkpt lat="37.311230966079336" lon="14.97681779317255"><ele>27.0</ele><time>2026-04-06T10:40:35Z</time></trkpt><trkpt lat="37.311336086703676" lon="14.976741372570718"><ele>27.0</ele><time>2026-04-06T10:40:36Z</time></trkpt><trkpt lat="37.31143915757973" lon="14.976668570687485"><ele>25.75</ele><time>2026-04-06T10:40:37Z</time></trkpt><trkpt lat="37.31154021339737" lon="14.97659775706422"><ele>24.5</ele><time>2026-04-06T10:40:38Z</time></trkpt><trkpt lat="37.31164015969857" lon="14.976528174859574"><ele>23.25</ele><time>2026-04-06T10:40:39Z</time></trkpt><trkpt lat="37.31174463020252" lon="14.976452934145248"><ele>22.0</ele><time>2026-04-06T10:40:40Z</time></trkpt><trkpt lat="37.3118534810512" lon="14.976378381313031"><ele>22.0</ele><time>2026-04-06T10:40:41Z</time></trkpt><trkpt lat="37.31196433683924" lon="14.976303651680537"><ele>22.0</ele><time>2026-04-06T10:40:42Z</time></trkpt><trkpt lat="37.31207256681566" lon="14.976223979769667"><ele>22.0</ele><time>2026-04-06T10:40:43Z</time></trkpt><trkpt lat="37.312177393253144" lon="14.976146185193448"><ele>22.0</ele><time>2026-04-06T10:40:44Z</time></trkpt><trkpt lat="37.31228540534794" lon="14.97608256501791"><ele>22.400000000000002</ele><time>2026-04-06T10:40:45Z</time></trkpt><trkpt lat="37.31239278551831" lon="14.976044685188997"><ele>22.8</ele><time>2026-04-06T10:40:46Z</time></trkpt><trkpt lat="37.31249219610397" lon="14.976026100294602"><ele>23.2</ele><time>2026-04-06T10:40:47Z</time></trkpt><trkpt lat="37.31259155703061" lon="14.976030399768606"><ele>23.6</ele><time>2026-04-06T10:40:48Z</time></trkpt><trkpt lat="37.31269228020173" lon="14.9760816376256"><ele>24.0</ele><time>2026-04-06T10:40:49Z</time></trkpt><trkpt lat="37.31280374782533" lon="14.976130073061322"><ele>24.0</ele><time>2026-04-06T10:40:50Z</time></trkpt><trkpt lat="37.31292350480296" lon="14.976186534450743"><ele>24.0</ele><time>2026-04-06T10:40:51Z</time></trkpt><trkpt lat="37.31305725455811" lon="14.976227497767324"><ele>24.0</ele><time>2026-04-06T10:40:52Z</time></trkpt><trkpt lat="37.31318085432484" lon="14.976307866086314"><ele>24.0</ele><time>2026-04-06T10:40:53Z</time></trkpt><trkpt lat="37.31330373917785" lon="14.97636580216616"><ele>24.25</ele><time>2026-04-06T10:40:54Z</time></trkpt><trkpt lat="37.31341648871106" lon="14.976422203505482"><ele>24.5</ele><time>2026-04-06T10:40:55Z</time></trkpt><trkpt lat="37.31352500382687" lon="14.976476099514619"><ele>24.75</ele><time>2026-04-06T10:40:56Z</time></trkpt><trkpt lat="37.31363328298217" lon="14.976524297492102"><ele>25.0</ele><time>2026-04-06T10:40:57Z</time></trkpt><trkpt lat="37.31375797213646" lon="14.976568627199091"><ele>25.0</ele><time>2026-04-06T10:40:58Z</time></trkpt><trkpt lat="37.31389298432406" lon="14.976583152684949"><ele>25.0</ele><time>2026-04-06T10:40:59Z</time></trkpt><trkpt lat="37.31403058172937" lon="14.976602001387064"><ele>25.0</ele><time>2026-04-06T10:41:00Z</time></trkpt><trkpt lat="37.314173292902126" lon="14.976613728992453"><ele>25.0</ele><time>2026-04-06T10:41:01Z</time></trkpt><trkpt lat="37.31431824276678" lon="14.976642882870271"><ele>24.5</ele><time>2026-04-06T10:41:02Z</time></trkpt><trkpt lat="37.31446632135911" lon="14.976631986518255"><ele>24.0</ele><time>2026-04-06T10:41:03.001Z</time></trkpt><trkpt lat="37.31460538310265" lon="14.976640544075234"><ele>23.5</ele><time>2026-04-06T10:41:04.001Z</time></trkpt><trkpt lat="37.31474355276104" lon="14.97664733585471"><ele>23.0</ele><time>2026-04-06T10:41:05.001Z</time></trkpt><trkpt lat="37.314878482719834" lon="14.976652404844444"><ele>22.5</ele><time>2026-04-06T10:41:06.001Z</time></trkpt><trkpt lat="37.315012247625376" lon="14.976657255916699"><ele>22.0</ele><time>2026-04-06T10:41:07.001Z</time></trkpt><trkpt lat="37.315147457536135" lon="14.97666490739301"><ele>21.5</ele><time>2026-04-06T10:41:08.001Z</time></trkpt><trkpt lat="37.31528622368662" lon="14.976659343294768"><ele>21.0</ele><time>2026-04-06T10:41:09.001Z</time></trkpt><trkpt lat="37.31542565053014" lon="14.976629924702113"><ele>21.0</ele><time>2026-04-06T10:41:10.001Z</time></trkpt><trkpt lat="37.315563576251506" lon="14.976579192178281"><ele>21.0</ele><time>2026-04-06T10:41:11.001Z</time></trkpt><trkpt lat="37.31569874101534" lon="14.976514294731432"><ele>21.0</ele><time>2026-04-06T10:41:12.001Z</time></trkpt><trkpt lat="37.315833103540164" lon="14.976447679170985"><ele>21.0</ele><time>2026-04-06T10:41:13.001Z</time></trkpt><trkpt lat="37.315960623081914" lon="14.976386084784593"><ele>21.5</ele><time>2026-04-06T10:41:14.001Z</time></trkpt><trkpt lat="37.31608127267536" lon="14.97632882369828"><ele>22.0</ele><time>2026-04-06T10:41:15.001Z</time></trkpt><trkpt lat="37.316197985857784" lon="14.976270752281291"><ele>22.5</ele><time>2026-04-06T10:41:16.001Z</time></trkpt><trkpt lat="37.316310503397524" lon="14.976211254389604"><ele>23.0</ele><time>2026-04-06T10:41:17.001Z</time></trkpt><trkpt lat="37.31642236560982" lon="14.976152592810745"><ele>24.0</ele><time>2026-04-06T10:41:18.001Z</time></trkpt><trkpt lat="37.31653428618053" lon="14.976094356219559"><ele>25.0</ele><time>2026-04-06T10:41:19.001Z</time></trkpt><trkpt lat="37.31664809622043" lon="14.976035524313746"><ele>26.0</ele><time>2026-04-06T10:41:20.001Z</time></trkpt><trkpt lat="37.316764218632315" lon="14.975980139720633"><ele>27.0</ele><time>2026-04-06T10:41:21.001Z</time></trkpt><trkpt lat="37.31688066100192" lon="14.975919945809817"><ele>27.0</ele><time>2026-04-06T10:41:22.001Z</time></trkpt><trkpt lat="37.316999875103164" lon="14.975859267449993"><ele>27.0</ele><time>2026-04-06T10:41:23.001Z</time></trkpt><trkpt lat="37.31712120981291" lon="14.975808450321336"><ele>27.0</ele><time>2026-04-06T10:41:24.001Z</time></trkpt><trkpt lat="37.317240397315075" lon="14.975777595490733"><ele>27.0</ele><time>2026-04-06T10:41:25.001Z</time></trkpt><trkpt lat="37.31737490366221" lon="14.975765982123939"><ele>27.5</ele><time>2026-04-06T10:41:26.001Z</time></trkpt><trkpt lat="37.31750388269481" lon="14.975779144482882"><ele>28.0</ele><time>2026-04-06T10:41:27.001Z</time></trkpt><trkpt lat="37.31763690812187" lon="14.975838851582118"><ele>28.5</ele><time>2026-04-06T10:41:28.001Z</time></trkpt><trkpt lat="37.31779238691757" lon="14.975897586162004"><ele>29.0</ele><time>2026-04-06T10:41:29.001Z</time></trkpt><trkpt lat="37.31794495427093" lon="14.975934488485615"><ele>28.0</ele><time>2026-04-06T10:41:30.001Z</time></trkpt><trkpt lat="37.318086145592645" lon="14.975988767896181"><ele>27.0</ele><time>2026-04-06T10:41:31.001Z</time></trkpt><trkpt lat="37.31821886259312" lon="14.976039290935956"><ele>26.0</ele><time>2026-04-06T10:41:32.001Z</time></trkpt><trkpt lat="37.318346243428756" lon="14.976087695917776"><ele>25.0</ele><time>2026-04-06T10:41:33.001Z</time></trkpt><trkpt lat="37.31846826789849" lon="14.976134915300516"><ele>25.0</ele><time>2026-04-06T10:41:34.001Z</time></trkpt><trkpt lat="37.31859050148302" lon="14.976179848884764"><ele>25.0</ele><time>2026-04-06T10:41:35.001Z</time></trkpt><trkpt lat="37.31871410547706" lon="14.976222728013802"><ele>25.0</ele><time>2026-04-06T10:41:36.001Z</time></trkpt><trkpt lat="37.318830376546" lon="14.976282556617262"><ele>25.0</ele><time>2026-04-06T10:41:37.001Z</time></trkpt><trkpt lat="37.318931446234934" lon="14.976377543828812"><ele>24.5</ele><time>2026-04-06T10:41:38.001Z</time></trkpt><trkpt lat="37.31904158342346" lon="14.976469409877344"><ele>24.0</ele><time>2026-04-06T10:41:39.001Z</time></trkpt><trkpt lat="37.319153237483576" lon="14.976566436378928"><ele>23.5</ele><time>2026-04-06T10:41:40.001Z</time></trkpt><trkpt lat="37.319259791879404" lon="14.97666122858884"><ele>23.0</ele><time>2026-04-06T10:41:41.001Z</time></trkpt><trkpt lat="37.31936575406878" lon="14.976755493962745"><ele>23.0</ele><time>2026-04-06T10:41:42.001Z</time></trkpt><trkpt lat="37.319470684361356" lon="14.976848841348035"><ele>23.0</ele><time>2026-04-06T10:41:43.001Z</time></trkpt><trkpt lat="37.31957342065215" lon="14.97694083683896"><ele>23.0</ele><time>2026-04-06T10:41:44.001Z</time></trkpt><trkpt lat="37.319672483603284" lon="14.977032480744018"><ele>23.0</ele><time>2026-04-06T10:41:45.001Z</time></trkpt><trkpt lat="37.31976995055543" lon="14.97712331221852"><ele>23.2</ele><time>2026-04-06T10:41:46.001Z</time></trkpt><trkpt lat="37.31986321328187" lon="14.977211799121104"><ele>23.4</ele><time>2026-04-06T10:41:47.001Z</time></trkpt><trkpt lat="37.31995264692683" lon="14.977298348288533"><ele>23.599999999999998</ele><time>2026-04-06T10:41:48.001Z</time></trkpt><trkpt lat="37.32003503790407" lon="14.977388707536557"><ele>23.799999999999997</ele><time>2026-04-06T10:41:49.001Z</time></trkpt><trkpt lat="37.320108804653614" lon="14.977491610394598"><ele>24.0</ele><time>2026-04-06T10:41:50.001Z</time></trkpt><trkpt lat="37.32016839930649" lon="14.977596424691999"><ele>24.0</ele><time>2026-04-06T10:41:51.001Z</time></trkpt><trkpt lat="37.32021458286581" lon="14.977681341717338"><ele>24.0</ele><time>2026-04-06T10:41:52.001Z</time></trkpt><trkpt lat="37.320251400867285" lon="14.977754210677146"><ele>24.0</ele><time>2026-04-06T10:41:53.001Z</time></trkpt><trkpt lat="37.32030086512242" lon="14.977852108683832"><ele>24.0</ele><time>2026-04-06T10:41:55.001Z</time></trkpt><trkpt lat="37.320439304533764" lon="14.977744291024852"><ele>24.0</ele><time>2026-04-06T10:41:58.001Z</time></trkpt><trkpt lat="37.32047688560558" lon="14.977603860798327"><ele>23.4</ele><time>2026-04-06T10:42:00.001Z</time></trkpt><trkpt lat="37.32049195498306" lon="14.977503210730713"><ele>22.799999999999997</ele><time>2026-04-06T10:42:01.001Z</time></trkpt><trkpt lat="37.32052201534088" lon="14.977379191555949"><ele>22.200000000000003</ele><time>2026-04-06T10:42:02.001Z</time></trkpt><trkpt lat="37.32055533599731" lon="14.977265817589487"><ele>21.6</ele><time>2026-04-06T10:42:03.001Z</time></trkpt><trkpt lat="37.3205687229954" lon="14.97715293022886"><ele>21.0</ele><time>2026-04-06T10:42:04.001Z</time></trkpt><trkpt lat="37.320604651977376" lon="14.97705467223257"><ele>20.6</ele><time>2026-04-06T10:42:05.001Z</time></trkpt><trkpt lat="37.32062056565219" lon="14.976951534972512"><ele>20.200000000000003</ele><time>2026-04-06T10:42:06.001Z</time></trkpt><trkpt lat="37.320638683471365" lon="14.976840389179237"><ele>19.799999999999997</ele><time>2026-04-06T10:42:07.001Z</time></trkpt><trkpt lat="37.32065611459569" lon="14.976727959664553"><ele>19.4</ele><time>2026-04-06T10:42:08.001Z</time></trkpt><trkpt lat="37.32067547307828" lon="14.976614037067828"><ele>19.0</ele><time>2026-04-06T10:42:09.001Z</time></trkpt><trkpt lat="37.3207009274761" lon="14.976493094776348"><ele>19.0</ele><time>2026-04-06T10:42:10.001Z</time></trkpt><trkpt lat="37.32073124527342" lon="14.97636780311786"><ele>19.0</ele><time>2026-04-06T10:42:11.001Z</time></trkpt><trkpt lat="37.32075705351576" lon="14.976230653502302"><ele>19.0</ele><time>2026-04-06T10:42:12.001Z</time></trkpt><trkpt lat="37.32078815763417" lon="14.976085922457356"><ele>19.0</ele><time>2026-04-06T10:42:13.001Z</time></trkpt><trkpt lat="37.32083259131894" lon="14.975940947242893"><ele>19.0</ele><time>2026-04-06T10:42:14.001Z</time></trkpt><trkpt lat="37.32085981620846" lon="14.975801251885157"><ele>19.0</ele><time>2026-04-06T10:42:15.001Z</time></trkpt><trkpt lat="37.3208819195327" lon="14.975659968775492"><ele>19.0</ele><time>2026-04-06T10:42:16.001Z</time></trkpt><trkpt lat="37.320920172340585" lon="14.975520748242092"><ele>19.0</ele><time>2026-04-06T10:42:17.001Z</time></trkpt><trkpt lat="37.32095185713226" lon="14.975373816417383"><ele>19.0</ele><time>2026-04-06T10:42:18.001Z</time></trkpt><trkpt lat="37.320970775604756" lon="14.975218280368"><ele>19.0</ele><time>2026-04-06T10:42:19Z</time></trkpt><trkpt lat="37.32100655572896" lon="14.975064772615902"><ele>19.0</ele><time>2026-04-06T10:42:20Z</time></trkpt><trkpt lat="37.32104180404729" lon="14.974907601666803"><ele>19.0</ele><time>2026-04-06T10:42:21Z</time></trkpt><trkpt lat="37.321074872658166" lon="14.974751211448917"><ele>18.75</ele><time>2026-04-06T10:42:22Z</time></trkpt><trkpt lat="37.32111069175339" lon="14.974597531542614"><ele>18.5</ele><time>2026-04-06T10:42:23Z</time></trkpt><trkpt lat="37.32114367433375" lon="14.974443218456107"><ele>18.25</ele><time>2026-04-06T10:42:24Z</time></trkpt><trkpt lat="37.321177177486895" lon="14.97428966446392"><ele>18.0</ele><time>2026-04-06T10:42:25Z</time></trkpt><trkpt lat="37.32120963006277" lon="14.974139594939675"><ele>17.75</ele><time>2026-04-06T10:42:26Z</time></trkpt><trkpt lat="37.32123979305165" lon="14.973988190922098"><ele>17.5</ele><time>2026-04-06T10:42:27Z</time></trkpt><trkpt lat="37.321276487057254" lon="14.973838560465046"><ele>17.25</ele><time>2026-04-06T10:42:28Z</time></trkpt><trkpt lat="37.32130903899211" lon="14.973686853196375"><ele>17.0</ele><time>2026-04-06T10:42:29Z</time></trkpt><trkpt lat="37.321342332126235" lon="14.973536486126578"><ele>17.0</ele><time>2026-04-06T10:42:30Z</time></trkpt><trkpt lat="37.32137505292853" lon="14.97338571837614"><ele>17.0</ele><time>2026-04-06T10:42:31Z</time></trkpt><trkpt lat="37.32140961159472" lon="14.973235688253045"><ele>17.0</ele><time>2026-04-06T10:42:32Z</time></trkpt><trkpt lat="37.32144218774613" lon="14.973084282264473"><ele>17.0</ele><time>2026-04-06T10:42:33Z</time></trkpt><trkpt lat="37.32147363730044" lon="14.972934808062051"><ele>17.0</ele><time>2026-04-06T10:42:34Z</time></trkpt><trkpt lat="37.32150674994366" lon="14.97278563633059"><ele>17.0</ele><time>2026-04-06T10:42:35Z</time></trkpt><trkpt lat="37.321536623668614" lon="14.972642012254852"><ele>17.0</ele><time>2026-04-06T10:42:36Z</time></trkpt><trkpt lat="37.32156765504975" lon="14.97250275925868"><ele>17.0</ele><time>2026-04-06T10:42:37Z</time></trkpt><trkpt lat="37.321597169702784" lon="14.972366479970823"><ele>17.0</ele><time>2026-04-06T10:42:38Z</time></trkpt><trkpt lat="37.32162708992548" lon="14.97223811204151"><ele>17.0</ele><time>2026-04-06T10:42:39Z</time></trkpt><trkpt lat="37.32165348255904" lon="14.972117572804304"><ele>17.0</ele><time>2026-04-06T10:42:40Z</time></trkpt><trkpt lat="37.32167705750468" lon="14.972002059850269"><ele>17.0</ele><time>2026-04-06T10:42:41Z</time></trkpt><trkpt lat="37.32170095650961" lon="14.971894691760287"><ele>17.0</ele><time>2026-04-06T10:42:42Z</time></trkpt><trkpt lat="37.3217225083374" lon="14.97179253923288"><ele>17.0</ele><time>2026-04-06T10:42:43Z</time></trkpt><trkpt lat="37.32174669548563" lon="14.971692161796998"><ele>17.0</ele><time>2026-04-06T10:42:44Z</time></trkpt><trkpt lat="37.32176788083573" lon="14.971598381938012"><ele>17.0</ele><time>2026-04-06T10:42:45Z</time></trkpt><trkpt lat="37.32178390019225" lon="14.971511916507609"><ele>17.0</ele><time>2026-04-06T10:42:46Z</time></trkpt><trkpt lat="37.32179925785093" lon="14.971433990912328"><ele>17.0</ele><time>2026-04-06T10:42:47Z</time></trkpt><trkpt lat="37.32183189254772" lon="14.971299303594826"><ele>17.0</ele><time>2026-04-06T10:42:49Z</time></trkpt><trkpt lat="37.32185583075937" lon="14.971191211478716"><ele>16.8</ele><time>2026-04-06T10:42:51Z</time></trkpt><trkpt lat="37.32187977868121" lon="14.971112612784868"><ele>16.6</ele><time>2026-04-06T10:42:53Z</time></trkpt><trkpt lat="37.321901300835904" lon="14.971023962721192"><ele>16.400000000000002</ele><time>2026-04-06T10:42:57Z</time></trkpt><trkpt lat="37.32181489155409" lon="14.970978251387194"><ele>16.2</ele><time>2026-04-06T10:42:58Z</time></trkpt><trkpt lat="37.32172003084864" lon="14.970926928008016"><ele>16.0</ele><time>2026-04-06T10:43:00Z</time></trkpt><trkpt lat="37.32161067011864" lon="14.97088835671499"><ele>16.0</ele><time>2026-04-06T10:43:02Z</time></trkpt><trkpt lat="37.32150048203086" lon="14.970874457231133"><ele>16.0</ele><time>2026-04-06T10:43:04Z</time></trkpt><trkpt lat="37.32138200201816" lon="14.970831085592401"><ele>16.0</ele><time>2026-04-06T10:43:06Z</time></trkpt><trkpt lat="37.32127162251445" lon="14.970797200259106"><ele>16.0</ele><time>2026-04-06T10:43:08.001Z</time></trkpt><trkpt lat="37.321183447638404" lon="14.97076689080186"><ele>16.0</ele><time>2026-04-06T10:43:10.001Z</time></trkpt><trkpt lat="37.32107622537744" lon="14.970729150684932"><ele>15.666666666666666</ele><time>2026-04-06T10:43:12.001Z</time></trkpt><trkpt lat="37.321012492470835" lon="14.970707867724022"><ele>15.333333333333332</ele><time>2026-04-06T10:43:13.001Z</time></trkpt><trkpt lat="37.32094853499941" lon="14.970670720930023"><ele>15.0</ele><time>2026-04-06T10:43:14.001Z</time></trkpt><trkpt lat="37.32087530410257" lon="14.970662097117764"><ele>14.666666666666668</ele><time>2026-04-06T10:43:15.001Z</time></trkpt><trkpt lat="37.3208061861377" lon="14.970633885963059"><ele>14.333333333333334</ele><time>2026-04-06T10:43:16.001Z</time></trkpt><trkpt lat="37.320745551229116" lon="14.970610400798115"><ele>14.0</ele><time>2026-04-06T10:43:17.001Z</time></trkpt><trkpt lat="37.32063919447809" lon="14.970577497598367"><ele>14.0</ele><time>2026-04-06T10:43:19.001Z</time></trkpt><trkpt lat="37.32054856039706" lon="14.97051604328961"><ele>13.999999999999998</ele><time>2026-04-06T10:43:21.001Z</time></trkpt><trkpt lat="37.3204496817469" lon="14.970526131888347"><ele>13.999999999999998</ele><time>2026-04-06T10:43:23.001Z</time></trkpt><trkpt lat="37.32035550828052" lon="14.970502629060894"><ele>14.0</ele><time>2026-04-06T10:43:25.001Z</time></trkpt><trkpt lat="37.320243673939395" lon="14.970480548882742"><ele>14.0</ele><time>2026-04-06T10:43:27.001Z</time></trkpt><trkpt lat="37.32015179050674" lon="14.970476470399644"><ele>14.000000000000002</ele><time>2026-04-06T10:43:29.001Z</time></trkpt><trkpt lat="37.32007167814622" lon="14.970469232977063"><ele>14.0</ele><time>2026-04-06T10:43:32.001Z</time></trkpt><trkpt lat="37.31998166306977" lon="14.9704682244487"><ele>14.0</ele><time>2026-04-06T10:43:48.001Z</time></trkpt><trkpt lat="37.31987906989433" lon="14.97045155463554"><ele>14.0</ele><time>2026-04-06T10:43:50.001Z</time></trkpt><trkpt lat="37.319814368288434" lon="14.970455014363672"><ele>14.000000000000002</ele><time>2026-04-06T10:43:51.001Z</time></trkpt><trkpt lat="37.31975042950069" lon="14.970461483148256"><ele>14.0</ele><time>2026-04-06T10:43:52.001Z</time></trkpt><trkpt lat="37.31968214006679" lon="14.970470968941605"><ele>14.333333333333334</ele><time>2026-04-06T10:43:53.001Z</time></trkpt><trkpt lat="37.31958442906283" lon="14.970510550567836"><ele>14.666666666666668</ele><time>2026-04-06T10:43:55.001Z</time></trkpt><trkpt lat="37.319515222511164" lon="14.970537470164112"><ele>15.0</ele><time>2026-04-06T10:43:56.001Z</time></trkpt><trkpt lat="37.319427983826344" lon="14.970553673666021"><ele>15.333333333333332</ele><time>2026-04-06T10:43:57.001Z</time></trkpt><trkpt lat="37.31935077967517" lon="14.97058867074305"><ele>15.666666666666666</ele><time>2026-04-06T10:43:58.001Z</time></trkpt><trkpt lat="37.31928883471013" lon="14.970618955896937"><ele>16.0</ele><time>2026-04-06T10:43:59.001Z</time></trkpt><trkpt lat="37.31920138423081" lon="14.970662883380612"><ele>15.999999999999998</ele><time>2026-04-06T10:44:01.001Z</time></trkpt><trkpt lat="37.31913833344745" lon="14.970713879821087"><ele>16.0</ele><time>2026-04-06T10:44:04.001Z</time></trkpt><trkpt lat="37.319021036504154" lon="14.970756434025587"><ele>16.0</ele><time>2026-04-06T10:45:31.001Z</time></trkpt><trkpt lat="37.318959143342276" lon="14.970790064271473"><ele>16.0</ele><time>2026-04-06T10:45:32.001Z</time></trkpt><trkpt lat="37.31889212749758" lon="14.970826477974281"><ele>15.999999999999998</ele><time>2026-04-06T10:45:33.001Z</time></trkpt><trkpt lat="37.31882241426402" lon="14.970864357338671"><ele>16.0</ele><time>2026-04-06T10:45:34.001Z</time></trkpt><trkpt lat="37.31875703934386" lon="14.970899879432947"><ele>15.857142857142856</ele><time>2026-04-06T10:45:35.001Z</time></trkpt><trkpt lat="37.3186990577335" lon="14.970931384290742"><ele>15.714285714285712</ele><time>2026-04-06T10:45:36.001Z</time></trkpt><trkpt lat="37.31863421339268" lon="14.970966618085942"><ele>15.571428571428571</ele><time>2026-04-06T10:45:37.001Z</time></trkpt><trkpt lat="37.31857037589195" lon="14.971001304806753"><ele>15.428571428571427</ele><time>2026-04-06T10:45:38.001Z</time></trkpt><trkpt lat="37.3185123675806" lon="14.971032824178007"><ele>15.285714285714285</ele><time>2026-04-06T10:45:39.001Z</time></trkpt><trkpt lat="37.31846201834834" lon="14.971082689473597"><ele>15.142857142857142</ele><time>2026-04-06T10:45:40.001Z</time></trkpt><trkpt lat="37.31839805515358" lon="14.971111336913557"><ele>15.0</ele><time>2026-04-06T10:45:41.001Z</time></trkpt><trkpt lat="37.318338253475595" lon="14.971147188081046"><ele>15.0</ele><time>2026-04-06T10:45:42.001Z</time></trkpt><trkpt lat="37.31824031454752" lon="14.971195325012129"><ele>15.0</ele><time>2026-04-06T10:45:44.001Z</time></trkpt><trkpt lat="37.318153448210985" lon="14.971229740461425"><ele>15.0</ele><time>2026-04-06T10:45:46.001Z</time></trkpt><trkpt lat="37.31805140430699" lon="14.971289954748922"><ele>15.0</ele><time>2026-04-06T10:45:48.001Z</time></trkpt><trkpt lat="37.317934750623074" lon="14.971355418444148"><ele>15.0</ele><time>2026-04-06T10:45:50.001Z</time></trkpt><trkpt lat="37.317874258854694" lon="14.97138201116371"><ele>15.142857142857142</ele><time>2026-04-06T10:45:51.001Z</time></trkpt><trkpt lat="37.31781504906807" lon="14.971429339285542"><ele>15.285714285714285</ele><time>2026-04-06T10:45:52.001Z</time></trkpt><trkpt lat="37.31774815808448" lon="14.971467228264911"><ele>15.428571428571427</ele><time>2026-04-06T10:45:53.001Z</time></trkpt><trkpt lat="37.31768219326933" lon="14.971504290248124"><ele>15.571428571428571</ele><time>2026-04-06T10:45:54.001Z</time></trkpt><trkpt lat="37.317615789648464" lon="14.971544173383384"><ele>15.714285714285712</ele><time>2026-04-06T10:45:55.001Z</time></trkpt><trkpt lat="37.317547387646876" lon="14.971582415250799"><ele>15.857142857142856</ele><time>2026-04-06T10:45:56.001Z</time></trkpt><trkpt lat="37.31747583547352" lon="14.97162139035018"><ele>16.0</ele><time>2026-04-06T10:45:57.001Z</time></trkpt><trkpt lat="37.31740714625081" lon="14.971663028438648"><ele>15.75</ele><time>2026-04-06T10:45:58.001Z</time></trkpt><trkpt lat="37.317305484475966" lon="14.971722898589334"><ele>15.5</ele><time>2026-04-06T10:46:00.001Z</time></trkpt><trkpt lat="37.31719911202201" lon="14.971779451359865"><ele>15.25</ele><time>2026-04-06T10:46:02.001Z</time></trkpt><trkpt lat="37.3170876013403" lon="14.971833618310294"><ele>15.0</ele><time>2026-04-06T10:46:04.001Z</time></trkpt><trkpt lat="37.31696929172287" lon="14.971889725650085"><ele>15.0</ele><time>2026-04-06T10:46:06.001Z</time></trkpt><trkpt lat="37.31691004034323" lon="14.971919189015233"><ele>15.0</ele><time>2026-04-06T10:46:07.001Z</time></trkpt><trkpt lat="37.31679079830481" lon="14.97198029881044"><ele>15.0</ele><time>2026-04-06T10:46:09.001Z</time></trkpt><trkpt lat="37.31672998613754" lon="14.97201539733875"><ele>15.0</ele><time>2026-04-06T10:46:10.001Z</time></trkpt><trkpt lat="37.316665468610786" lon="14.972050009693751"><ele>15.0</ele><time>2026-04-06T10:46:11.001Z</time></trkpt><trkpt lat="37.31660151115926" lon="14.97208222067369"><ele>15.0</ele><time>2026-04-06T10:46:12.001Z</time></trkpt><trkpt lat="37.31653601136497" lon="14.972121583575415"><ele>15.0</ele><time>2026-04-06T10:46:13.001Z</time></trkpt><trkpt lat="37.31647476751673" lon="14.9721567206366"><ele>15.0</ele><time>2026-04-06T10:46:14.001Z</time></trkpt><trkpt lat="37.31640935899837" lon="14.972191401338566"><ele>15.0</ele><time>2026-04-06T10:46:15.001Z</time></trkpt><trkpt lat="37.31634479911476" lon="14.972227243959946"><ele>15.0</ele><time>2026-04-06T10:46:16.001Z</time></trkpt><trkpt lat="37.31627364150237" lon="14.972244332772137"><ele>15.0</ele><time>2026-04-06T10:46:17.001Z</time></trkpt><trkpt lat="37.31621232980548" lon="14.972299092466187"><ele>15.0</ele><time>2026-04-06T10:46:18.001Z</time></trkpt><trkpt lat="37.316145967183715" lon="14.972338485857989"><ele>15.0</ele><time>2026-04-06T10:46:19.001Z</time></trkpt><trkpt lat="37.316074182140525" lon="14.972379211574081"><ele>15.0</ele><time>2026-04-06T10:46:20.001Z</time></trkpt><trkpt lat="37.316006553808954" lon="14.97241887215469"><ele>15.0</ele><time>2026-04-06T10:46:21.001Z</time></trkpt><trkpt lat="37.31593547623463" lon="14.97246117714306"><ele>15.0</ele><time>2026-04-06T10:46:22.001Z</time></trkpt><trkpt lat="37.315864004424604" lon="14.972479415668776"><ele>15.0</ele><time>2026-04-06T10:46:23.001Z</time></trkpt><trkpt lat="37.31580269770985" lon="14.972511397068342"><ele>15.0</ele><time>2026-04-06T10:46:24.001Z</time></trkpt><trkpt lat="37.31569368140954" lon="14.972568266757241"><ele>15.0</ele><time>2026-04-06T10:46:26.001Z</time></trkpt><trkpt lat="37.315580202172825" lon="14.972630370976006"><ele>15.0</ele><time>2026-04-06T10:46:28.001Z</time></trkpt><trkpt lat="37.315522373642885" lon="14.972662421774576"><ele>15.0</ele><time>2026-04-06T10:46:29.001Z</time></trkpt><trkpt lat="37.31542126277891" lon="14.97273479185711"><ele>15.0</ele><time>2026-04-06T10:46:31.001Z</time></trkpt><trkpt lat="37.315326646936185" lon="14.97278724220109"><ele>15.0</ele><time>2026-04-06T10:46:33.001Z</time></trkpt><trkpt lat="37.31523552540316" lon="14.972835288462068"><ele>15.0</ele><time>2026-04-06T10:46:35.001Z</time></trkpt><trkpt lat="37.315150159226974" lon="14.972886699477836"><ele>15.0</ele><time>2026-04-06T10:46:37.001Z</time></trkpt><trkpt lat="37.31507921799662" lon="14.97297535102164"><ele>15.0</ele><time>2026-04-06T10:46:39.001Z</time></trkpt><trkpt lat="37.31502692619648" lon="14.973064019865355"><ele>15.0</ele><time>2026-04-06T10:46:41.001Z</time></trkpt><trkpt lat="37.314957561608715" lon="14.973148157186857"><ele>15.0</ele><time>2026-04-06T10:46:43.001Z</time></trkpt><trkpt lat="37.314975195961104" lon="14.973282196654491"><ele>15.0</ele><time>2026-04-06T10:46:45.001Z</time></trkpt><trkpt lat="37.31500003365452" lon="14.973421444907846"><ele>15.2</ele><time>2026-04-06T10:46:47.001Z</time></trkpt><trkpt lat="37.315041150811375" lon="14.973563261944038"><ele>15.4</ele><time>2026-04-06T10:46:49.001Z</time></trkpt><trkpt lat="37.31506584984009" lon="14.973720150429278"><ele>15.600000000000001</ele><time>2026-04-06T10:46:51.001Z</time></trkpt><trkpt lat="37.31508394467416" lon="14.973801294593038"><ele>15.8</ele><time>2026-04-06T10:46:52.001Z</time></trkpt><trkpt lat="37.315102519027725" lon="14.973884589108698"><ele>16.0</ele><time>2026-04-06T10:46:53.001Z</time></trkpt><trkpt lat="37.315121693125306" lon="14.973970573104557"><ele>15.999999999999998</ele><time>2026-04-06T10:46:54.001Z</time></trkpt><trkpt lat="37.31514098678148" lon="14.974057093248204"><ele>16.0</ele><time>2026-04-06T10:46:55.001Z</time></trkpt><trkpt lat="37.31516158536938" lon="14.974149465205544"><ele>16.0</ele><time>2026-04-06T10:46:56.001Z</time></trkpt><trkpt lat="37.315181585303854" lon="14.974239152570393"><ele>16.0</ele><time>2026-04-06T10:46:57.001Z</time></trkpt><trkpt lat="37.31520320953244" lon="14.974336123894092"><ele>15.999999999999998</ele><time>2026-04-06T10:46:58.001Z</time></trkpt><trkpt lat="37.31524091438727" lon="14.974426911192113"><ele>16.0</ele><time>2026-04-06T10:46:59.001Z</time></trkpt><trkpt lat="37.315247946121616" lon="14.974531853201286"><ele>16.0</ele><time>2026-04-06T10:47:00.001Z</time></trkpt><trkpt lat="37.31526960944157" lon="14.97462613742163"><ele>15.999999999999998</ele><time>2026-04-06T10:47:01.001Z</time></trkpt><trkpt lat="37.31529051689168" lon="14.974717131905914"><ele>16.0</ele><time>2026-04-06T10:47:02.001Z</time></trkpt><trkpt lat="37.315324912284716" lon="14.974792225379236"><ele>16.0</ele><time>2026-04-06T10:47:03.001Z</time></trkpt><trkpt lat="37.3153405552384" lon="14.974875616189824"><ele>15.999999999999998</ele><time>2026-04-06T10:47:04.001Z</time></trkpt><trkpt lat="37.31536241109999" lon="14.974961605558043"><ele>16.0</ele><time>2026-04-06T10:47:05.001Z</time></trkpt><trkpt lat="37.31536844344056" lon="14.975056287856603"><ele>16.0</ele><time>2026-04-06T10:47:06.001Z</time></trkpt><trkpt lat="37.31540516048632" lon="14.975139381921592"><ele>16.0</ele><time>2026-04-06T10:47:07.001Z</time></trkpt><trkpt lat="37.315423522012914" lon="14.975229024068017"><ele>16.0</ele><time>2026-04-06T10:47:08.001Z</time></trkpt><trkpt lat="37.315447290083256" lon="14.97531439261296"><ele>16.0</ele><time>2026-04-06T10:47:09.001Z</time></trkpt><trkpt lat="37.31545223014113" lon="14.975407102855174"><ele>16.0</ele><time>2026-04-06T10:47:10.001Z</time></trkpt><trkpt lat="37.31549931914572" lon="14.975541757636496"><ele>16.0</ele><time>2026-04-06T10:47:12.001Z</time></trkpt><trkpt lat="37.315530649331556" lon="14.975684549215938"><ele>16.0</ele><time>2026-04-06T10:47:14.001Z</time></trkpt><trkpt lat="37.31555117268818" lon="14.97576826833432"><ele>15.999999999999998</ele><time>2026-04-06T10:47:15.001Z</time></trkpt><trkpt lat="37.31555930660012" lon="14.975854389369797"><ele>16.0</ele><time>2026-04-06T10:47:16.001Z</time></trkpt><trkpt lat="37.31557786735301" lon="14.975934903628438"><ele>16.0</ele><time>2026-04-06T10:47:17.001Z</time></trkpt><trkpt lat="37.315596772164334" lon="14.976016815660723"><ele>15.999999999999998</ele><time>2026-04-06T10:47:18.001Z</time></trkpt><trkpt lat="37.31561487465337" lon="14.976095251338364"><ele>16.0</ele><time>2026-04-06T10:47:19.001Z</time></trkpt><trkpt lat="37.3156539058611" lon="14.976186830829011"><ele>16.0</ele><time>2026-04-06T10:47:21.001Z</time></trkpt><trkpt lat="37.3156581872729" lon="14.976273942698656"><ele>17.166666666666664</ele><time>2026-04-06T10:47:23.001Z</time></trkpt><trkpt lat="37.315718628710734" lon="14.976369268712205"><ele>18.333333333333332</ele><time>2026-04-06T10:47:26.001Z</time></trkpt><trkpt lat="37.31581129752035" lon="14.976379199876678"><ele>19.5</ele><time>2026-04-06T10:47:28.001Z</time></trkpt><trkpt lat="37.31588645928261" lon="14.976387079668982"><ele>20.666666666666668</ele><time>2026-04-06T10:47:30.001Z</time></trkpt><trkpt lat="37.315971430461424" lon="14.976392345117768"><ele>21.833333333333336</ele><time>2026-04-06T10:47:33.001Z</time></trkpt><trkpt lat="37.316043691718576" lon="14.976348283084588"><ele>23.0</ele><time>2026-04-06T10:47:34.001Z</time></trkpt><trkpt lat="37.31612923423964" lon="14.976294444204335"><ele>23.0</ele><time>2026-04-06T10:47:35.001Z</time></trkpt><trkpt lat="37.31622060494455" lon="14.976254830162837"><ele>23.0</ele><time>2026-04-06T10:47:36.001Z</time></trkpt><trkpt lat="37.316315075100945" lon="14.976204027297825"><ele>23.0</ele><time>2026-04-06T10:47:37.001Z</time></trkpt><trkpt lat="37.31642102628337" lon="14.976147452491226"><ele>23.0</ele><time>2026-04-06T10:47:38.001Z</time></trkpt><trkpt lat="37.31652470616596" lon="14.976096021823137"><ele>23.0</ele><time>2026-04-06T10:47:39.001Z</time></trkpt><trkpt lat="37.31663747839305" lon="14.976039879042329"><ele>22.75</ele><time>2026-04-06T10:47:40.001Z</time></trkpt><trkpt lat="37.31674216715781" lon="14.975987260608143"><ele>22.5</ele><time>2026-04-06T10:47:41.001Z</time></trkpt><trkpt lat="37.31685250842452" lon="14.975938310639132"><ele>22.25</ele><time>2026-04-06T10:47:42.001Z</time></trkpt><trkpt lat="37.31696247073699" lon="14.975888355263393"><ele>22.0</ele><time>2026-04-06T10:47:43.001Z</time></trkpt><trkpt lat="37.31707081460213" lon="14.97583937641518"><ele>22.0</ele><time>2026-04-06T10:47:44.001Z</time></trkpt><trkpt lat="37.317182641959846" lon="14.975804410689282"><ele>22.0</ele><time>2026-04-06T10:47:45.001Z</time></trkpt><trkpt lat="37.31730477556201" lon="14.975785708688987"><ele>22.0</ele><time>2026-04-06T10:47:46.001Z</time></trkpt><trkpt lat="37.31743069521717" lon="14.975787059323373"><ele>22.0</ele><time>2026-04-06T10:47:47.001Z</time></trkpt><trkpt lat="37.31755982375375" lon="14.97581145963697"><ele>22.5</ele><time>2026-04-06T10:47:48.001Z</time></trkpt><trkpt lat="37.317692509076196" lon="14.975850998960738"><ele>23.0</ele><time>2026-04-06T10:47:49.001Z</time></trkpt><trkpt lat="37.31783179420988" lon="14.975898805922705"><ele>23.5</ele><time>2026-04-06T10:47:50.001Z</time></trkpt><trkpt lat="37.31796642322025" lon="14.975949432065894"><ele>24.0</ele><time>2026-04-06T10:47:51.001Z</time></trkpt><trkpt lat="37.318100737135964" lon="14.976003768300815"><ele>24.25</ele><time>2026-04-06T10:47:52.001Z</time></trkpt><trkpt lat="37.318230907519045" lon="14.976058916013661"><ele>24.5</ele><time>2026-04-06T10:47:53.001Z</time></trkpt><trkpt lat="37.318355676099046" lon="14.976108081241597"><ele>24.75</ele><time>2026-04-06T10:47:54.001Z</time></trkpt><trkpt lat="37.31847475506385" lon="14.976150504955601"><ele>25.0</ele><time>2026-04-06T10:47:55.001Z</time></trkpt><trkpt lat="37.31858704174548" lon="14.976194625246297"><ele>25.0</ele><time>2026-04-06T10:47:56.001Z</time></trkpt><trkpt lat="37.31869437766654" lon="14.976238855011223"><ele>25.0</ele><time>2026-04-06T10:47:57.001Z</time></trkpt><trkpt lat="37.318800559835985" lon="14.976290590319087"><ele>25.0</ele><time>2026-04-06T10:47:58.001Z</time></trkpt><trkpt lat="37.31891124721866" lon="14.976357953731165"><ele>25.0</ele><time>2026-04-06T10:47:59.001Z</time></trkpt><trkpt lat="37.319020397086845" lon="14.976445456638265"><ele>24.5</ele><time>2026-04-06T10:48:00.001Z</time></trkpt><trkpt lat="37.31913223196809" lon="14.976540461731815"><ele>24.0</ele><time>2026-04-06T10:48:01.001Z</time></trkpt><trkpt lat="37.31924361731112" lon="14.976638757870633"><ele>23.5</ele><time>2026-04-06T10:48:02.001Z</time></trkpt><trkpt lat="37.319350532573395" lon="14.976741611988071"><ele>23.0</ele><time>2026-04-06T10:48:03.001Z</time></trkpt><trkpt lat="37.31946046660357" lon="14.976839489064567"><ele>23.0</ele><time>2026-04-06T10:48:04.001Z</time></trkpt><trkpt lat="37.319571422148016" lon="14.976936525226195"><ele>23.0</ele><time>2026-04-06T10:48:05.001Z</time></trkpt><trkpt lat="37.31968028059603" lon="14.977033635600243"><ele>23.0</ele><time>2026-04-06T10:48:06.001Z</time></trkpt><trkpt lat="37.319787140632286" lon="14.977131065887157"><ele>23.0</ele><time>2026-04-06T10:48:07.001Z</time></trkpt><trkpt lat="37.319889181649884" lon="14.97722687706184"><ele>23.25</ele><time>2026-04-06T10:48:08.001Z</time></trkpt><trkpt lat="37.31998452718507" lon="14.97732067742584"><ele>23.5</ele><time>2026-04-06T10:48:09.001Z</time></trkpt><trkpt lat="37.320068069583904" lon="14.977423130448441"><ele>23.75</ele><time>2026-04-06T10:48:10.001Z</time></trkpt><trkpt lat="37.32014386115161" lon="14.977537647599059"><ele>24.0</ele><time>2026-04-06T10:48:11.001Z</time></trkpt><trkpt lat="37.32021354228994" lon="14.977669975059449"><ele>24.0</ele><time>2026-04-06T10:48:12.001Z</time></trkpt><trkpt lat="37.32028387314573" lon="14.977816456104492"><ele>24.0</ele><time>2026-04-06T10:48:13.001Z</time></trkpt><trkpt lat="37.32036005659989" lon="14.977967835450343"><ele>24.0</ele><time>2026-04-06T10:48:14.001Z</time></trkpt><trkpt lat="37.32043345926322" lon="14.97811103185851"><ele>24.0</ele><time>2026-04-06T10:48:15.001Z</time></trkpt><trkpt lat="37.320500145684406" lon="14.9782474521108"><ele>24.5</ele><time>2026-04-06T10:48:16.001Z</time></trkpt><trkpt lat="37.32056394776276" lon="14.978379508427231"><ele>25.0</ele><time>2026-04-06T10:48:17.001Z</time></trkpt><trkpt lat="37.32062422852483" lon="14.978507753098658"><ele>25.5</ele><time>2026-04-06T10:48:18.001Z</time></trkpt><trkpt lat="37.32068998130664" lon="14.97863517511075"><ele>26.0</ele><time>2026-04-06T10:48:19.001Z</time></trkpt><trkpt lat="37.32076170473553" lon="14.978782999734431"><ele>26.0</ele><time>2026-04-06T10:48:20.001Z</time></trkpt><trkpt lat="37.32083345487364" lon="14.978921581562403"><ele>26.0</ele><time>2026-04-06T10:48:21.001Z</time></trkpt><trkpt lat="37.32091003532283" lon="14.979046753177911"><ele>26.0</ele><time>2026-04-06T10:48:22.001Z</time></trkpt><trkpt lat="37.32099745333134" lon="14.979161286171534"><ele>26.0</ele><time>2026-04-06T10:48:23.001Z</time></trkpt><trkpt lat="37.321213303211096" lon="14.979358194959662"><ele>26.0</ele><time>2026-04-06T10:48:25.001Z</time></trkpt><trkpt lat="37.321340922090094" lon="14.979427575857512"><ele>26.0</ele><time>2026-04-06T10:48:26.001Z</time></trkpt><trkpt lat="37.32146690442701" lon="14.979492469616314"><ele>26.0</ele><time>2026-04-06T10:48:27.001Z</time></trkpt><trkpt lat="37.32159517451825" lon="14.979552226626607"><ele>26.0</ele><time>2026-04-06T10:48:28.001Z</time></trkpt><trkpt lat="37.321721075373496" lon="14.979614594699619"><ele>26.0</ele><time>2026-04-06T10:48:29.001Z</time></trkpt><trkpt lat="37.32184613237163" lon="14.979679386541207"><ele>26.0</ele><time>2026-04-06T10:48:30.001Z</time></trkpt><trkpt lat="37.32197108467428" lon="14.979741268738096"><ele>26.0</ele><time>2026-04-06T10:48:31.001Z</time></trkpt><trkpt lat="37.32209645137757" lon="14.97980218401792"><ele>26.0</ele><time>2026-04-06T10:48:32.001Z</time></trkpt><trkpt lat="37.32222492440446" lon="14.97986584478775"><ele>26.0</ele><time>2026-04-06T10:48:33.001Z</time></trkpt><trkpt lat="37.32235546625842" lon="14.979933860733107"><ele>26.0</ele><time>2026-04-06T10:48:34.001Z</time></trkpt><trkpt lat="37.32248873922113" lon="14.9800001890086"><ele>26.0</ele><time>2026-04-06T10:48:35.001Z</time></trkpt><trkpt lat="37.32262437149729" lon="14.980064417362515"><ele>26.0</ele><time>2026-04-06T10:48:36.001Z</time></trkpt><trkpt lat="37.32276352967612" lon="14.980129579206224"><ele>26.25</ele><time>2026-04-06T10:48:37.001Z</time></trkpt><trkpt lat="37.3229020899267" lon="14.980197560222669"><ele>26.5</ele><time>2026-04-06T10:48:38.001Z</time></trkpt><trkpt lat="37.323039092940874" lon="14.980266023181285"><ele>26.75</ele><time>2026-04-06T10:48:39.001Z</time></trkpt><trkpt lat="37.32317563223896" lon="14.980331915327769"><ele>27.0</ele><time>2026-04-06T10:48:40.001Z</time></trkpt><trkpt lat="37.32344564435217" lon="14.98046473240583"><ele>27.0</ele><time>2026-04-06T10:48:42.001Z</time></trkpt><trkpt lat="37.32357772913545" lon="14.980523292946831"><ele>27.0</ele><time>2026-04-06T10:48:43.001Z</time></trkpt><trkpt lat="37.32371133178209" lon="14.980571660886417"><ele>27.0</ele><time>2026-04-06T10:48:44.001Z</time></trkpt><trkpt lat="37.32384816787549" lon="14.98059400433253"><ele>27.0</ele><time>2026-04-06T10:48:45.001Z</time></trkpt><trkpt lat="37.323991158298554" lon="14.980606187935667"><ele>26.666666666666664</ele><time>2026-04-06T10:48:46.001Z</time></trkpt><trkpt lat="37.32413903228632" lon="14.980623075765164"><ele>26.333333333333332</ele><time>2026-04-06T10:48:47.001Z</time></trkpt><trkpt lat="37.324290183403726" lon="14.980643232791518"><ele>26.0</ele><time>2026-04-06T10:48:48.001Z</time></trkpt><trkpt lat="37.32444065465737" lon="14.980661911032787"><ele>26.0</ele><time>2026-04-06T10:48:49.001Z</time></trkpt><trkpt lat="37.32459128441774" lon="14.980678739044102"><ele>26.0</ele><time>2026-04-06T10:48:50.001Z</time></trkpt><trkpt lat="37.3247430956812" lon="14.980694099192528"><ele>26.0</ele><time>2026-04-06T10:48:51.001Z</time></trkpt><trkpt lat="37.324895985575104" lon="14.980710341904862"><ele>25.333333333333332</ele><time>2026-04-06T10:48:52.001Z</time></trkpt><trkpt lat="37.32504951678306" lon="14.980728769626026"><ele>24.666666666666664</ele><time>2026-04-06T10:48:53.001Z</time></trkpt><trkpt lat="37.325203553992296" lon="14.98074654497951"><ele>24.0</ele><time>2026-04-06T10:48:54.001Z</time></trkpt><trkpt lat="37.32535834978346" lon="14.98076749302493"><ele>24.0</ele><time>2026-04-06T10:48:55.001Z</time></trkpt><trkpt lat="37.32551209965788" lon="14.980784920790251"><ele>24.0</ele><time>2026-04-06T10:48:56.001Z</time></trkpt><trkpt lat="37.3256646939231" lon="14.980800444906153"><ele>24.0</ele><time>2026-04-06T10:48:57.001Z</time></trkpt><trkpt lat="37.32582498139015" lon="14.9808146760451"><ele>24.333333333333336</ele><time>2026-04-06T10:48:58.001Z</time></trkpt><trkpt lat="37.32598781403453" lon="14.980830932801906"><ele>24.666666666666668</ele><time>2026-04-06T10:48:59.001Z</time></trkpt><trkpt lat="37.326151840248144" lon="14.98084999614982"><ele>25.0</ele><time>2026-04-06T10:49:00.001Z</time></trkpt><trkpt lat="37.32631596213833" lon="14.980869603035257"><ele>25.666666666666668</ele><time>2026-04-06T10:49:01.001Z</time></trkpt><trkpt lat="37.326479640940484" lon="14.980891233730834"><ele>26.333333333333336</ele><time>2026-04-06T10:49:02.001Z</time></trkpt><trkpt lat="37.326644898545666" lon="14.980912429859133"><ele>27.0</ele><time>2026-04-06T10:49:03.001Z</time></trkpt><trkpt lat="37.3268103720013" lon="14.980930870333745"><ele>27.0</ele><time>2026-04-06T10:49:04.001Z</time></trkpt><trkpt lat="37.32697520576741" lon="14.980950265585768"><ele>27.0</ele><time>2026-04-06T10:49:05.001Z</time></trkpt><trkpt lat="37.32714178450408" lon="14.980970532308445"><ele>27.0</ele><time>2026-04-06T10:49:06.001Z</time></trkpt><trkpt lat="37.32730872663477" lon="14.980989588214173"><ele>28.0</ele><time>2026-04-06T10:49:07.001Z</time></trkpt><trkpt lat="37.32747737100425" lon="14.98100992366176"><ele>29.0</ele><time>2026-04-06T10:49:08.001Z</time></trkpt><trkpt lat="37.327644094547324" lon="14.981028060514586"><ele>30.0</ele><time>2026-04-06T10:49:09.001Z</time></trkpt><trkpt lat="37.3278061089655" lon="14.981044204523831"><ele>30.0</ele><time>2026-04-06T10:49:10.001Z</time></trkpt><trkpt lat="37.327961448901725" lon="14.981060647798822"><ele>30.0</ele><time>2026-04-06T10:49:11.001Z</time></trkpt><trkpt lat="37.328113237456236" lon="14.981078239354392"><ele>30.0</ele><time>2026-04-06T10:49:12.001Z</time></trkpt><trkpt lat="37.32825707350786" lon="14.981096010601442"><ele>29.75</ele><time>2026-04-06T10:49:13.001Z</time></trkpt><trkpt lat="37.32838429455363" lon="14.981123921558325"><ele>29.5</ele><time>2026-04-06T10:49:14.001Z</time></trkpt><trkpt lat="37.32849852834543" lon="14.981170812316801"><ele>29.25</ele><time>2026-04-06T10:49:15.001Z</time></trkpt><trkpt lat="37.32860747126836" lon="14.981247169845705"><ele>29.0</ele><time>2026-04-06T10:49:16.001Z</time></trkpt><trkpt lat="37.32872260095172" lon="14.981337154522883"><ele>29.0</ele><time>2026-04-06T10:49:17.001Z</time></trkpt><trkpt lat="37.3288412758876" lon="14.981433560428414"><ele>29.0</ele><time>2026-04-06T10:49:18.001Z</time></trkpt><trkpt lat="37.32896262996788" lon="14.981529410187173"><ele>29.0</ele><time>2026-04-06T10:49:19.001Z</time></trkpt><trkpt lat="37.329082688261124" lon="14.981624154023716"><ele>29.0</ele><time>2026-04-06T10:49:20.001Z</time></trkpt><trkpt lat="37.32920122175535" lon="14.9817220869197"><ele>29.5</ele><time>2026-04-06T10:49:21.001Z</time></trkpt><trkpt lat="37.32931436019996" lon="14.981815116689509"><ele>30.0</ele><time>2026-04-06T10:49:22.001Z</time></trkpt><trkpt lat="37.32942282715634" lon="14.981895863059533"><ele>30.5</ele><time>2026-04-06T10:49:23.001Z</time></trkpt><trkpt lat="37.3295301457581" lon="14.981961014262529"><ele>31.0</ele><time>2026-04-06T10:49:24.001Z</time></trkpt><trkpt lat="37.3296369955345" lon="14.982026606656168"><ele>30.25</ele><time>2026-04-06T10:49:25.001Z</time></trkpt><trkpt lat="37.32975972503022" lon="14.982024166448461"><ele>29.5</ele><time>2026-04-06T10:49:26.001Z</time></trkpt><trkpt lat="37.329881691753336" lon="14.98200676511736"><ele>28.75</ele><time>2026-04-06T10:49:27.001Z</time></trkpt><trkpt lat="37.330006877786" lon="14.981966738451774"><ele>28.0</ele><time>2026-04-06T10:49:28.001Z</time></trkpt><trkpt lat="37.33013467305451" lon="14.981918297836197"><ele>28.0</ele><time>2026-04-06T10:49:29.001Z</time></trkpt><trkpt lat="37.33025812965194" lon="14.981870925969629"><ele>28.0</ele><time>2026-04-06T10:49:30.001Z</time></trkpt><trkpt lat="37.330375942927425" lon="14.981829938516224"><ele>28.0</ele><time>2026-04-06T10:49:31.001Z</time></trkpt><trkpt lat="37.33048649883581" lon="14.981788606100881"><ele>28.0</ele><time>2026-04-06T10:49:32.001Z</time></trkpt><trkpt lat="37.3305914371215" lon="14.981743548605719"><ele>28.000000000000004</ele><time>2026-04-06T10:49:33.001Z</time></trkpt><trkpt lat="37.330693714691805" lon="14.981701310634579"><ele>28.0</ele><time>2026-04-06T10:49:34.001Z</time></trkpt><trkpt lat="37.33078584615236" lon="14.981669148920064"><ele>28.0</ele><time>2026-04-06T10:49:35.001Z</time></trkpt><trkpt lat="37.33086774480314" lon="14.98164050866402"><ele>28.0</ele><time>2026-04-06T10:49:36.001Z</time></trkpt><trkpt lat="37.33093898577657" lon="14.981617216168875"><ele>28.000000000000004</ele><time>2026-04-06T10:49:37.001Z</time></trkpt><trkpt lat="37.33100194382984" lon="14.981596422914059"><ele>28.0</ele><time>2026-04-06T10:49:38.001Z</time></trkpt><trkpt lat="37.33106682413342" lon="14.981600453967442"><ele>27.599999999999998</ele><time>2026-04-06T10:49:39.001Z</time></trkpt><trkpt lat="37.33118884464018" lon="14.981568208463012"><ele>27.199999999999996</ele><time>2026-04-06T10:49:41.001Z</time></trkpt><trkpt lat="37.33123578672881" lon="14.981444781471517"><ele>26.8</ele><time>2026-04-06T10:49:42.001Z</time></trkpt><trkpt lat="37.331287453399135" lon="14.981376292902906"><ele>26.4</ele><time>2026-04-06T10:49:43.001Z</time></trkpt><trkpt lat="37.33133571630804" lon="14.981311444040253"><ele>26.0</ele><time>2026-04-06T10:49:44.001Z</time></trkpt><trkpt lat="37.331386447614676" lon="14.981246557649268"><ele>26.4</ele><time>2026-04-06T10:49:45.001Z</time></trkpt><trkpt lat="37.331445601515206" lon="14.981172073113866"><ele>26.8</ele><time>2026-04-06T10:49:46.001Z</time></trkpt><trkpt lat="37.33151157077524" lon="14.981087817789444"><ele>27.199999999999996</ele><time>2026-04-06T10:49:47.001Z</time></trkpt><trkpt lat="37.33158245616132" lon="14.980996006444304"><ele>27.599999999999998</ele><time>2026-04-06T10:49:48.001Z</time></trkpt><trkpt lat="37.33164693440221" lon="14.980910901382053"><ele>28.0</ele><time>2026-04-06T10:49:49.001Z</time></trkpt><trkpt lat="37.33171183012934" lon="14.980822395862303"><ele>28.0</ele><time>2026-04-06T10:49:50.001Z</time></trkpt><trkpt lat="37.33178324783195" lon="14.98072350245288"><ele>28.0</ele><time>2026-04-06T10:49:51.001Z</time></trkpt><trkpt lat="37.331857230698674" lon="14.980616998725921"><ele>28.0</ele><time>2026-04-06T10:49:52.001Z</time></trkpt><trkpt lat="37.331937408684915" lon="14.980507960336515"><ele>28.0</ele><time>2026-04-06T10:49:53.001Z</time></trkpt><trkpt lat="37.33202520002993" lon="14.980400209049648"><ele>28.0</ele><time>2026-04-06T10:49:54.001Z</time></trkpt><trkpt lat="37.332112268581405" lon="14.980286303010397"><ele>28.0</ele><time>2026-04-06T10:49:55.001Z</time></trkpt><trkpt lat="37.33219292499938" lon="14.980175939214066"><ele>28.0</ele><time>2026-04-06T10:49:56.001Z</time></trkpt><trkpt lat="37.33227922581987" lon="14.98006311069961"><ele>28.0</ele><time>2026-04-06T10:49:57.001Z</time></trkpt><trkpt lat="37.332366396242335" lon="14.979947721108159"><ele>27.75</ele><time>2026-04-06T10:49:58.001Z</time></trkpt><trkpt lat="37.33245233530029" lon="14.979826428580862"><ele>27.5</ele><time>2026-04-06T10:49:59.001Z</time></trkpt><trkpt lat="37.33253573206789" lon="14.979703286033446"><ele>27.25</ele><time>2026-04-06T10:50:00.001Z</time></trkpt><trkpt lat="37.33262376190866" lon="14.979580428460324"><ele>27.0</ele><time>2026-04-06T10:50:01.001Z</time></trkpt><trkpt lat="37.33271274730257" lon="14.97945658329128"><ele>27.0</ele><time>2026-04-06T10:50:02.001Z</time></trkpt><trkpt lat="37.33280160972303" lon="14.979330517697333"><ele>27.0</ele><time>2026-04-06T10:50:03.001Z</time></trkpt><trkpt lat="37.3328920978444" lon="14.9792044699606"><ele>27.0</ele><time>2026-04-06T10:50:04.001Z</time></trkpt><trkpt lat="37.33298458536687" lon="14.979082769865654"><ele>27.0</ele><time>2026-04-06T10:50:05.001Z</time></trkpt><trkpt lat="37.333080073495836" lon="14.97896142927051"><ele>27.0</ele><time>2026-04-06T10:50:06.001Z</time></trkpt><trkpt lat="37.333173811227155" lon="14.978836372316279"><ele>27.0</ele><time>2026-04-06T10:50:07.001Z</time></trkpt><trkpt lat="37.33326731637145" lon="14.978710385976946"><ele>27.0</ele><time>2026-04-06T10:50:08.001Z</time></trkpt><trkpt lat="37.33336176325943" lon="14.978582391689098"><ele>27.0</ele><time>2026-04-06T10:50:09.001Z</time></trkpt><trkpt lat="37.33345579185612" lon="14.978454422097817"><ele>27.0</ele><time>2026-04-06T10:50:10.001Z</time></trkpt><trkpt lat="37.33354940887937" lon="14.978326063906135"><ele>27.0</ele><time>2026-04-06T10:50:11.001Z</time></trkpt><trkpt lat="37.33364267301117" lon="14.97819840139742"><ele>27.0</ele><time>2026-04-06T10:50:12.001Z</time></trkpt><trkpt lat="37.3337339447073" lon="14.97807376576513"><ele>27.0</ele><time>2026-04-06T10:50:13.001Z</time></trkpt><trkpt lat="37.33382156397465" lon="14.977951397697362"><ele>27.0</ele><time>2026-04-06T10:50:14.001Z</time></trkpt><trkpt lat="37.33391996695237" lon="14.977849477904401"><ele>27.0</ele><time>2026-04-06T10:50:15.001Z</time></trkpt><trkpt lat="37.33400364514501" lon="14.977738804726428"><ele>27.0</ele><time>2026-04-06T10:50:16.001Z</time></trkpt><trkpt lat="37.33408358171394" lon="14.977633080256954"><ele>27.0</ele><time>2026-04-06T10:50:17.001Z</time></trkpt><trkpt lat="37.33416388068293" lon="14.977526876619137"><ele>26.75</ele><time>2026-04-06T10:50:18.001Z</time></trkpt><trkpt lat="37.33424321936574" lon="14.977398106630798"><ele>26.5</ele><time>2026-04-06T10:50:19.001Z</time></trkpt><trkpt lat="37.334341075428654" lon="14.977277346409858"><ele>26.25</ele><time>2026-04-06T10:50:20.001Z</time></trkpt><trkpt lat="37.33443531885115" lon="14.977149310974722"><ele>26.0</ele><time>2026-04-06T10:50:21.001Z</time></trkpt><trkpt lat="37.33452618089519" lon="14.977018441148134"><ele>26.0</ele><time>2026-04-06T10:50:22.001Z</time></trkpt><trkpt lat="37.3346172376784" lon="14.976894414147994"><ele>26.0</ele><time>2026-04-06T10:50:23.001Z</time></trkpt><trkpt lat="37.33470704597666" lon="14.97677024770854"><ele>26.0</ele><time>2026-04-06T10:50:24.001Z</time></trkpt><trkpt lat="37.33479578679763" lon="14.976646135744062"><ele>26.0</ele><time>2026-04-06T10:50:25.001Z</time></trkpt><trkpt lat="37.33488709641589" lon="14.976522439966908"><ele>26.75</ele><time>2026-04-06T10:50:26.001Z</time></trkpt><trkpt lat="37.33497810114137" lon="14.976400262066802"><ele>27.5</ele><time>2026-04-06T10:50:27.001Z</time></trkpt><trkpt lat="37.33506813160912" lon="14.976276540474911"><ele>28.25</ele><time>2026-04-06T10:50:28.001Z</time></trkpt><trkpt lat="37.33515869700093" lon="14.976151614672933"><ele>29.0</ele><time>2026-04-06T10:50:29.001Z</time></trkpt><trkpt lat="37.335248014168535" lon="14.97602661251973"><ele>29.0</ele><time>2026-04-06T10:50:30.001Z</time></trkpt><trkpt lat="37.33534766119403" lon="14.975924247817884"><ele>29.0</ele><time>2026-04-06T10:50:31.001Z</time></trkpt><trkpt lat="37.3354143978796" lon="14.97580776113226"><ele>29.0</ele><time>2026-04-06T10:50:32.001Z</time></trkpt><trkpt lat="37.335486802582345" lon="14.975726654837128"><ele>29.0</ele><time>2026-04-06T10:50:33.001Z</time></trkpt><trkpt lat="37.335552678553306" lon="14.975658380354812"><ele>29.0</ele><time>2026-04-06T10:50:34.001Z</time></trkpt><trkpt lat="37.335608926827256" lon="14.975586841298114"><ele>29.166666666666664</ele><time>2026-04-06T10:50:35.001Z</time></trkpt><trkpt lat="37.3356542002468" lon="14.975523480841176"><ele>29.333333333333332</ele><time>2026-04-06T10:50:36.001Z</time></trkpt><trkpt lat="37.3357329134745" lon="14.975407454072558"><ele>29.5</ele><time>2026-04-06T10:50:38.001Z</time></trkpt><trkpt lat="37.3358054394355" lon="14.97528993368017"><ele>29.666666666666664</ele><time>2026-04-06T10:50:40.001Z</time></trkpt><trkpt lat="37.33584847533819" lon="14.975228144074345"><ele>29.833333333333332</ele><time>2026-04-06T10:50:41.001Z</time></trkpt><trkpt lat="37.335906379481735" lon="14.975179012182164"><ele>30.0</ele><time>2026-04-06T10:50:42.001Z</time></trkpt><trkpt lat="37.33595350566252" lon="14.975114570642654"><ele>30.0</ele><time>2026-04-06T10:50:43.001Z</time></trkpt><trkpt lat="37.33600830669399" lon="14.975040171543776"><ele>30.0</ele><time>2026-04-06T10:50:44.001Z</time></trkpt><trkpt lat="37.33608116614009" lon="14.974936874970398"><ele>30.0</ele><time>2026-04-06T10:50:45.001Z</time></trkpt><trkpt lat="37.33615708928386" lon="14.974846756906672"><ele>30.0</ele><time>2026-04-06T10:50:46.001Z</time></trkpt><trkpt lat="37.33621614101373" lon="14.974767350988847"><ele>30.0</ele><time>2026-04-06T10:50:47.001Z</time></trkpt><trkpt lat="37.33626793836881" lon="14.974691845160743"><ele>29.8</ele><time>2026-04-06T10:50:48.001Z</time></trkpt><trkpt lat="37.33630864165446" lon="14.974613787454155"><ele>29.6</ele><time>2026-04-06T10:50:49.001Z</time></trkpt><trkpt lat="37.33639149392051" lon="14.974519947595223"><ele>29.4</ele><time>2026-04-06T10:50:51.001Z</time></trkpt><trkpt lat="37.33645748660087" lon="14.974422373733605"><ele>29.2</ele><time>2026-04-06T10:50:53.001Z</time></trkpt><trkpt lat="37.336559328049994" lon="14.974301553820274"><ele>29.0</ele><time>2026-04-06T10:50:55.001Z</time></trkpt><trkpt lat="37.3366240236445" lon="14.97421186955466"><ele>29.0</ele><time>2026-04-06T10:50:56.001Z</time></trkpt><trkpt lat="37.33668980221506" lon="14.974134007742153"><ele>29.0</ele><time>2026-04-06T10:50:57.001Z</time></trkpt><trkpt lat="37.33675816844547" lon="14.974045781944033"><ele>29.0</ele><time>2026-04-06T10:50:58.001Z</time></trkpt><trkpt lat="37.33683743748144" lon="14.973923636243118"><ele>29.0</ele><time>2026-04-06T10:50:59.001Z</time></trkpt><trkpt lat="37.336929735877014" lon="14.97378220562456"><ele>29.0</ele><time>2026-04-06T10:51:00.001Z</time></trkpt><trkpt lat="37.33702247291308" lon="14.973659810672793"><ele>29.0</ele><time>2026-04-06T10:51:01.001Z</time></trkpt><trkpt lat="37.33710875418709" lon="14.973558599565894"><ele>29.0</ele><time>2026-04-06T10:51:02.001Z</time></trkpt><trkpt lat="37.337185513973104" lon="14.973464274498514"><ele>29.0</ele><time>2026-04-06T10:51:03.001Z</time></trkpt><trkpt lat="37.33725682777841" lon="14.973371353794754"><ele>29.166666666666664</ele><time>2026-04-06T10:51:04.001Z</time></trkpt><trkpt lat="37.33732041754486" lon="14.973284326380567"><ele>29.333333333333332</ele><time>2026-04-06T10:51:05.001Z</time></trkpt><trkpt lat="37.33738181526627" lon="14.973196534506108"><ele>29.5</ele><time>2026-04-06T10:51:06.001Z</time></trkpt><trkpt lat="37.337439632654956" lon="14.9731093973037"><ele>29.666666666666664</ele><time>2026-04-06T10:51:07.001Z</time></trkpt><trkpt lat="37.33748886815333" lon="14.973038750531934"><ele>29.833333333333332</ele><time>2026-04-06T10:51:08.001Z</time></trkpt><trkpt lat="37.33754151133285" lon="14.972974194611995"><ele>30.0</ele><time>2026-04-06T10:51:09.001Z</time></trkpt><trkpt lat="37.337598808572096" lon="14.972899157703724"><ele>30.0</ele><time>2026-04-06T10:51:10.001Z</time></trkpt><trkpt lat="37.33766330218797" lon="14.972808334976264"><ele>30.0</ele><time>2026-04-06T10:51:11.001Z</time></trkpt><trkpt lat="37.337731214637415" lon="14.972717396270012"><ele>30.0</ele><time>2026-04-06T10:51:12.001Z</time></trkpt><trkpt lat="37.337800060541355" lon="14.972630731805252"><ele>30.0</ele><time>2026-04-06T10:51:13.001Z</time></trkpt><trkpt lat="37.337862922310606" lon="14.972546088709905"><ele>30.0</ele><time>2026-04-06T10:51:14.001Z</time></trkpt><trkpt lat="37.33792209558198" lon="14.972465834309478"><ele>30.0</ele><time>2026-04-06T10:51:15.001Z</time></trkpt><trkpt lat="37.337978082595654" lon="14.97239374718575"><ele>30.0</ele><time>2026-04-06T10:51:16.001Z</time></trkpt><trkpt lat="37.338027129336076" lon="14.972328619055748"><ele>30.0</ele><time>2026-04-06T10:51:17.001Z</time></trkpt><trkpt lat="37.338099978189746" lon="14.972225169424618"><ele>30.0</ele><time>2026-04-06T10:51:19.001Z</time></trkpt><trkpt lat="37.3381685500367" lon="14.972104204888218"><ele>30.0</ele><time>2026-04-06T10:51:21.001Z</time></trkpt><trkpt lat="37.33822626290423" lon="14.972051297756625"><ele>30.0</ele><time>2026-04-06T10:51:22.001Z</time></trkpt><trkpt lat="37.338283706169705" lon="14.971976080766671"><ele>30.0</ele><time>2026-04-06T10:51:23.001Z</time></trkpt><trkpt lat="37.33833731993234" lon="14.971880037171102"><ele>30.0</ele><time>2026-04-06T10:51:24.001Z</time></trkpt><trkpt lat="37.33840805325963" lon="14.971796466388524"><ele>30.0</ele><time>2026-04-06T10:51:25.001Z</time></trkpt><trkpt lat="37.33847383959292" lon="14.971713693619643"><ele>30.0</ele><time>2026-04-06T10:51:26.001Z</time></trkpt><trkpt lat="37.338529542039566" lon="14.971646448874855"><ele>30.0</ele><time>2026-04-06T10:51:27.001Z</time></trkpt><trkpt lat="37.33857666025841" lon="14.971589717117764"><ele>30.0</ele><time>2026-04-06T10:51:28.001Z</time></trkpt><trkpt lat="37.33864769937152" lon="14.97149315625527"><ele>30.0</ele><time>2026-04-06T10:51:30.001Z</time></trkpt><trkpt lat="37.33869901633473" lon="14.971415895898023"><ele>30.0</ele><time>2026-04-06T10:51:32.001Z</time></trkpt><trkpt lat="37.338750530999384" lon="14.97133762723295"><ele>30.0</ele><time>2026-04-06T10:51:35.001Z</time></trkpt><trkpt lat="37.338799681652425" lon="14.971285272780396"><ele>30.0</ele><time>2026-04-06T10:51:37.001Z</time></trkpt><trkpt lat="37.33885846137542" lon="14.97121058742784"><ele>30.0</ele><time>2026-04-06T10:51:39.001Z</time></trkpt><trkpt lat="37.33890899922436" lon="14.971118944529623"><ele>30.2</ele><time>2026-04-06T10:51:41.001Z</time></trkpt><trkpt lat="37.338967873379026" lon="14.971031603334852"><ele>30.4</ele><time>2026-04-06T10:51:43.001Z</time></trkpt><trkpt lat="37.33906085887307" lon="14.97091977531343"><ele>30.6</ele><time>2026-04-06T10:51:45.001Z</time></trkpt><trkpt lat="37.339116238602124" lon="14.970857237310877"><ele>30.8</ele><time>2026-04-06T10:51:46.001Z</time></trkpt><trkpt lat="37.339172076687625" lon="14.970787131486365"><ele>31.0</ele><time>2026-04-06T10:51:47.001Z</time></trkpt><trkpt lat="37.33922713426667" lon="14.970706915431144"><ele>31.000000000000004</ele><time>2026-04-06T10:51:48.001Z</time></trkpt><trkpt lat="37.3392827446086" lon="14.970624352107059"><ele>31.0</ele><time>2026-04-06T10:51:49.001Z</time></trkpt><trkpt lat="37.339325798189876" lon="14.970558723348857"><ele>31.0</ele><time>2026-04-06T10:51:50.001Z</time></trkpt><trkpt lat="37.33938008695677" lon="14.970467149444513"><ele>31.0</ele><time>2026-04-06T10:51:52.001Z</time></trkpt><trkpt lat="37.33946008778868" lon="14.970376833537987"><ele>31.000000000000004</ele><time>2026-04-06T10:51:54.001Z</time></trkpt><trkpt lat="37.3395126624496" lon="14.970323747793397"><ele>31.0</ele><time>2026-04-06T10:51:55.001Z</time></trkpt><trkpt lat="37.33956571935387" lon="14.970268564395543"><ele>31.000000000000004</ele><time>2026-04-06T10:51:56.001Z</time></trkpt><trkpt lat="37.33961668687734" lon="14.970204309981236"><ele>31.0</ele><time>2026-04-06T10:51:57.001Z</time></trkpt><trkpt lat="37.33967274844551" lon="14.97012368170291"><ele>31.0</ele><time>2026-04-06T10:51:58.001Z</time></trkpt><trkpt lat="37.33972780980786" lon="14.970037991173061"><ele>31.0</ele><time>2026-04-06T10:51:59.001Z</time></trkpt><trkpt lat="37.339784718346195" lon="14.969950199993683"><ele>31.000000000000004</ele><time>2026-04-06T10:52:00.001Z</time></trkpt><trkpt lat="37.33984487948481" lon="14.969861095988136"><ele>31.0</ele><time>2026-04-06T10:52:01.001Z</time></trkpt><trkpt lat="37.339906334510346" lon="14.969778934056565"><ele>30.833333333333336</ele><time>2026-04-06T10:52:02.001Z</time></trkpt><trkpt lat="37.33997249079554" lon="14.969697820563539"><ele>30.666666666666668</ele><time>2026-04-06T10:52:03.001Z</time></trkpt><trkpt lat="37.34003689551363" lon="14.96961871088261"><ele>30.5</ele><time>2026-04-06T10:52:04.001Z</time></trkpt><trkpt lat="37.340098999571666" lon="14.969541752494072"><ele>30.333333333333336</ele><time>2026-04-06T10:52:05.001Z</time></trkpt><trkpt lat="37.340154268858" lon="14.969466007988613"><ele>30.166666666666668</ele><time>2026-04-06T10:52:06.001Z</time></trkpt><trkpt lat="37.34020594378024" lon="14.9693900001546"><ele>30.0</ele><time>2026-04-06T10:52:07.001Z</time></trkpt><trkpt lat="37.34025856191871" lon="14.9693175033496"><ele>30.0</ele><time>2026-04-06T10:52:08.001Z</time></trkpt><trkpt lat="37.34031059878302" lon="14.969248784554873"><ele>30.0</ele><time>2026-04-06T10:52:09.001Z</time></trkpt><trkpt lat="37.3403570657446" lon="14.969192346404022"><ele>30.0</ele><time>2026-04-06T10:52:10.001Z</time></trkpt><trkpt lat="37.340398706427074" lon="14.969131511536574"><ele>30.0</ele><time>2026-04-06T10:52:11.001Z</time></trkpt><trkpt lat="37.340445832044345" lon="14.969071368380867"><ele>30.0</ele><time>2026-04-06T10:52:12.001Z</time></trkpt><trkpt lat="37.34049465426187" lon="14.9690119090593"><ele>30.0</ele><time>2026-04-06T10:52:13.001Z</time></trkpt><trkpt lat="37.34054010028669" lon="14.968946938769562"><ele>30.0</ele><time>2026-04-06T10:52:14.001Z</time></trkpt><trkpt lat="37.34058564608838" lon="14.96888662116647"><ele>29.833333333333332</ele><time>2026-04-06T10:52:15.001Z</time></trkpt><trkpt lat="37.340638131388275" lon="14.96882594267293"><ele>29.666666666666664</ele><time>2026-04-06T10:52:16.001Z</time></trkpt><trkpt lat="37.3406836171859" lon="14.968756840267305"><ele>29.5</ele><time>2026-04-06T10:52:17.001Z</time></trkpt><trkpt lat="37.340753020439344" lon="14.96864501086758"><ele>29.333333333333332</ele><time>2026-04-06T10:52:19.001Z</time></trkpt><trkpt lat="37.34083032500117" lon="14.968542804715781"><ele>29.166666666666664</ele><time>2026-04-06T10:52:21.001Z</time></trkpt><trkpt lat="37.340876916532416" lon="14.968485813772507"><ele>29.0</ele><time>2026-04-06T10:52:22.001Z</time></trkpt><trkpt lat="37.340925528840565" lon="14.9684213987309"><ele>28.999999999999996</ele><time>2026-04-06T10:52:23.001Z</time></trkpt><trkpt lat="37.340988952820915" lon="14.96837878645476"><ele>29.0</ele><time>2026-04-06T10:52:24.001Z</time></trkpt><trkpt lat="37.34103269673064" lon="14.96831849248263"><ele>29.0</ele><time>2026-04-06T10:52:25.001Z</time></trkpt><trkpt lat="37.341136373886464" lon="14.968280119915184"><ele>29.0</ele><time>2026-04-06T10:52:27.001Z</time></trkpt><trkpt lat="37.34122017261309" lon="14.968276219538474"><ele>28.999999999999996</ele><time>2026-04-06T10:52:29.001Z</time></trkpt><trkpt lat="37.341297945215985" lon="14.968272049514564"><ele>29.0</ele><time>2026-04-06T10:52:32.001Z</time></trkpt><trkpt lat="37.341305927053426" lon="14.968087267571246"><ele>28.999999999999996</ele><time>2026-04-06T10:52:35.001Z</time></trkpt><trkpt lat="37.34125460392624" lon="14.967994218022833"><ele>29.0</ele><time>2026-04-06T10:52:37.001Z</time></trkpt><trkpt lat="37.34119935062156" lon="14.967849495109194"><ele>29.0</ele><time>2026-04-06T10:52:39.001Z</time></trkpt><trkpt lat="37.341165644234565" lon="14.967764956957772"><ele>29.0</ele><time>2026-04-06T10:52:40.001Z</time></trkpt><trkpt lat="37.341129558561555" lon="14.967685245039522"><ele>28.999999999999996</ele><time>2026-04-06T10:52:41.001Z</time></trkpt><trkpt lat="37.341091386356105" lon="14.967612817021172"><ele>29.0</ele><time>2026-04-06T10:52:42.001Z</time></trkpt><trkpt lat="37.34105620331635" lon="14.967533937939416"><ele>28.999999999999996</ele><time>2026-04-06T10:52:43.001Z</time></trkpt><trkpt lat="37.341019235883955" lon="14.967459043260764"><ele>29.0</ele><time>2026-04-06T10:52:44.001Z</time></trkpt><trkpt lat="37.3409895888858" lon="14.967383341054854"><ele>29.0</ele><time>2026-04-06T10:52:45.001Z</time></trkpt><trkpt lat="37.34095681484391" lon="14.967311328420424"><ele>29.0</ele><time>2026-04-06T10:52:46.001Z</time></trkpt><trkpt lat="37.340926199518854" lon="14.967241645078596"><ele>28.999999999999996</ele><time>2026-04-06T10:52:47.001Z</time></trkpt><trkpt lat="37.34087758634498" lon="14.967103898245087"><ele>29.0</ele><time>2026-04-06T10:52:49Z</time></trkpt><trkpt lat="37.3408069526966" lon="14.96699126368501"><ele>29.0</ele><time>2026-04-06T10:52:51Z</time></trkpt><trkpt lat="37.3407505662685" lon="14.966865075055454"><ele>29.0</ele><time>2026-04-06T10:52:53Z</time></trkpt><trkpt lat="37.34069617879574" lon="14.966734860259443"><ele>29.0</ele><time>2026-04-06T10:52:55Z</time></trkpt><trkpt lat="37.34066100630741" lon="14.966623951479242"><ele>29.0</ele><time>2026-04-06T10:52:57Z</time></trkpt><trkpt lat="37.340607996735685" lon="14.966517669474975"><ele>29.0</ele><time>2026-04-06T10:52:59Z</time></trkpt><trkpt lat="37.3405475202356" lon="14.9664054536113"><ele>28.85714285714286</ele><time>2026-04-06T10:53:01Z</time></trkpt><trkpt lat="37.340497737323204" lon="14.966270859007945"><ele>28.714285714285715</ele><time>2026-04-06T10:53:03Z</time></trkpt><trkpt lat="37.340466069099335" lon="14.966201796282865"><ele>28.571428571428573</ele><time>2026-04-06T10:53:04Z</time></trkpt><trkpt lat="37.340433484951724" lon="14.9661307359428"><ele>28.42857142857143</ele><time>2026-04-06T10:53:05Z</time></trkpt><trkpt lat="37.340400634648944" lon="14.966058091797926"><ele>28.285714285714285</ele><time>2026-04-06T10:53:06Z</time></trkpt><trkpt lat="37.340357089370386" lon="14.965992704563424"><ele>28.142857142857142</ele><time>2026-04-06T10:53:07Z</time></trkpt><trkpt lat="37.34032746101713" lon="14.965917252191185"><ele>28.0</ele><time>2026-04-06T10:53:08Z</time></trkpt><trkpt lat="37.340292908068115" lon="14.965843342410382"><ele>27.714285714285715</ele><time>2026-04-06T10:53:09Z</time></trkpt><trkpt lat="37.34025758381032" lon="14.965773433799711"><ele>27.42857142857143</ele><time>2026-04-06T10:53:10Z</time></trkpt><trkpt lat="37.34022517092989" lon="14.965698143233997"><ele>27.142857142857142</ele><time>2026-04-06T10:53:11Z</time></trkpt><trkpt lat="37.34019462893014" lon="14.96561992934567"><ele>26.857142857142858</ele><time>2026-04-06T10:53:12Z</time></trkpt><trkpt lat="37.34016123474543" lon="14.965542214354485"><ele>26.571428571428573</ele><time>2026-04-06T10:53:13Z</time></trkpt><trkpt lat="37.3401249042919" lon="14.965465219392946"><ele>26.285714285714285</ele><time>2026-04-06T10:53:14Z</time></trkpt><trkpt lat="37.340089880070714" lon="14.965389891965467"><ele>26.0</ele><time>2026-04-06T10:53:15Z</time></trkpt><trkpt lat="37.34007071823275" lon="14.965308180516633"><ele>26.0</ele><time>2026-04-06T10:53:16Z</time></trkpt><trkpt lat="37.34001005596422" lon="14.965173424292932"><ele>26.0</ele><time>2026-04-06T10:53:18Z</time></trkpt><trkpt lat="37.33995044828986" lon="14.96503728194671"><ele>26.0</ele><time>2026-04-06T10:53:20Z</time></trkpt><trkpt lat="37.339874377253004" lon="14.964914393190552"><ele>26.0</ele><time>2026-04-06T10:53:22Z</time></trkpt><trkpt lat="37.339804132094656" lon="14.964803572532364"><ele>25.4</ele><time>2026-04-06T10:53:24Z</time></trkpt><trkpt lat="37.33976144391805" lon="14.964731472653446"><ele>24.8</ele><time>2026-04-06T10:53:26Z</time></trkpt><trkpt lat="37.33971537817841" lon="14.964651360951823"><ele>24.2</ele><time>2026-04-06T10:53:30Z</time></trkpt><trkpt lat="37.33966018488505" lon="14.9645856972931"><ele>23.599999999999998</ele><time>2026-04-06T10:53:34Z</time></trkpt><trkpt lat="37.33972489382018" lon="14.964719478291235"><ele>23.0</ele><time>2026-04-06T10:53:46Z</time></trkpt><trkpt lat="37.339867727948054" lon="14.964914132765237"><ele>23.0</ele><time>2026-04-06T10:53:49Z</time></trkpt><trkpt lat="37.33991172285603" lon="14.965002837508766"><ele>23.0</ele><time>2026-04-06T10:53:50Z</time></trkpt><trkpt lat="37.33995775241952" lon="14.965097876370896"><ele>23.0</ele><time>2026-04-06T10:53:51Z</time></trkpt><trkpt lat="37.34000046897314" lon="14.965187862685735"><ele>23.0</ele><time>2026-04-06T10:53:52Z</time></trkpt><trkpt lat="37.34003619048988" lon="14.965276442363935"><ele>23.0</ele><time>2026-04-06T10:53:53Z</time></trkpt><trkpt lat="37.340071953688195" lon="14.965368268498816"><ele>23.0</ele><time>2026-04-06T10:53:54Z</time></trkpt><trkpt lat="37.34011004472482" lon="14.965464208562247"><ele>23.599999999999998</ele><time>2026-04-06T10:53:55Z</time></trkpt><trkpt lat="37.340156847404664" lon="14.965560408823551"><ele>24.2</ele><time>2026-04-06T10:53:56Z</time></trkpt><trkpt lat="37.34020863832623" lon="14.965656107855274"><ele>24.8</ele><time>2026-04-06T10:53:57Z</time></trkpt><trkpt lat="37.340255441934666" lon="14.965755247236604"><ele>25.4</ele><time>2026-04-06T10:53:58.001Z</time></trkpt><trkpt lat="37.34029792800491" lon="14.965855092083467"><ele>26.0</ele><time>2026-04-06T10:53:59.001Z</time></trkpt><trkpt lat="37.34033969322412" lon="14.96595263838491"><ele>26.285714285714285</ele><time>2026-04-06T10:54:00.001Z</time></trkpt><trkpt lat="37.340380360942234" lon="14.966045114582592"><ele>26.571428571428573</ele><time>2026-04-06T10:54:01.001Z</time></trkpt><trkpt lat="37.34041728279494" lon="14.966130176834534"><ele>26.857142857142858</ele><time>2026-04-06T10:54:02.001Z</time></trkpt><trkpt lat="37.34045327901261" lon="14.966211157733827"><ele>27.142857142857142</ele><time>2026-04-06T10:54:03.001Z</time></trkpt><trkpt lat="37.34049094660753" lon="14.966287225327756"><ele>27.42857142857143</ele><time>2026-04-06T10:54:04.001Z</time></trkpt><trkpt lat="37.34052767167703" lon="14.966361538544945"><ele>27.714285714285715</ele><time>2026-04-06T10:54:05.001Z</time></trkpt><trkpt lat="37.340565075491455" lon="14.966433621044928"><ele>28.0</ele><time>2026-04-06T10:54:06.001Z</time></trkpt><trkpt lat="37.34060301111208" lon="14.966503345984892"><ele>28.0</ele><time>2026-04-06T10:54:07.001Z</time></trkpt><trkpt lat="37.340608376713384" lon="14.966596611682252"><ele>28.0</ele><time>2026-04-06T10:54:08.001Z</time></trkpt><trkpt lat="37.340641734687594" lon="14.96666994745247"><ele>28.0</ele><time>2026-04-06T10:54:09.001Z</time></trkpt><trkpt lat="37.34067527860095" lon="14.966743692176077"><ele>28.0</ele><time>2026-04-06T10:54:10.001Z</time></trkpt><trkpt lat="37.34070902997559" lon="14.96681789228825"><ele>28.0</ele><time>2026-04-06T10:54:11.001Z</time></trkpt><trkpt lat="37.34075268096511" lon="14.966886868537"><ele>28.0</ele><time>2026-04-06T10:54:12.001Z</time></trkpt><trkpt lat="37.340791366923725" lon="14.966966521665709"><ele>28.0</ele><time>2026-04-06T10:54:13.001Z</time></trkpt><trkpt lat="37.34083158782766" lon="14.967051623931695"><ele>28.166666666666668</ele><time>2026-04-06T10:54:14.001Z</time></trkpt><trkpt lat="37.3408608494452" lon="14.967151660587733"><ele>28.333333333333336</ele><time>2026-04-06T10:54:15.001Z</time></trkpt><trkpt lat="37.34090318033951" lon="14.967245931010684"><ele>28.5</ele><time>2026-04-06T10:54:16.001Z</time></trkpt><trkpt lat="37.3409453147808" lon="14.967339652109695"><ele>28.666666666666664</ele><time>2026-04-06T10:54:17.001Z</time></trkpt><trkpt lat="37.341000529920805" lon="14.967422725888841"><ele>28.833333333333332</ele><time>2026-04-06T10:54:18.001Z</time></trkpt><trkpt lat="37.34104046798369" lon="14.967515242843412"><ele>29.0</ele><time>2026-04-06T10:54:19.001Z</time></trkpt><trkpt lat="37.341081293215204" lon="14.96760630818656"><ele>28.999999999999996</ele><time>2026-04-06T10:54:20.001Z</time></trkpt><trkpt lat="37.34110770559419" lon="14.967704969376392"><ele>29.0</ele><time>2026-04-06T10:54:21.001Z</time></trkpt><trkpt lat="37.34114564465615" lon="14.96779085392538"><ele>29.0</ele><time>2026-04-06T10:54:22.001Z</time></trkpt><trkpt lat="37.34118036918569" lon="14.967872299197513"><ele>29.0</ele><time>2026-04-06T10:54:23.001Z</time></trkpt><trkpt lat="37.34121113137825" lon="14.967947079756176"><ele>28.999999999999996</ele><time>2026-04-06T10:54:24.001Z</time></trkpt><trkpt lat="37.34125377266492" lon="14.968006932831537"><ele>29.0</ele><time>2026-04-06T10:54:25.001Z</time></trkpt><trkpt lat="37.3413023907293" lon="14.968136992715912"><ele>29.0</ele><time>2026-04-06T10:54:27.001Z</time></trkpt><trkpt lat="37.34133740267191" lon="14.968270204181104"><ele>29.0</ele><time>2026-04-06T10:54:29.001Z</time></trkpt><trkpt lat="37.3414313758615" lon="14.968352992145803"><ele>29.0</ele><time>2026-04-06T10:54:31.001Z</time></trkpt><trkpt lat="37.341497387053245" lon="14.968419776146767"><ele>29.0</ele><time>2026-04-06T10:54:33.001Z</time></trkpt><trkpt lat="37.341568215723896" lon="14.968462581267831"><ele>29.0</ele><time>2026-04-06T10:54:36.001Z</time></trkpt><trkpt lat="37.34164516009141" lon="14.96851657946521"><ele>29.4</ele><time>2026-04-06T10:54:39.001Z</time></trkpt><trkpt lat="37.34175034203632" lon="14.968543447042315"><ele>29.799999999999997</ele><time>2026-04-06T10:54:41.001Z</time></trkpt><trkpt lat="37.34181571471778" lon="14.968540280725264"><ele>30.200000000000003</ele><time>2026-04-06T10:54:42.001Z</time></trkpt><trkpt lat="37.34194516055351" lon="14.968519399832271"><ele>30.6</ele><time>2026-04-06T10:54:44.001Z</time></trkpt><trkpt lat="37.34202335236419" lon="14.9684838424719"><ele>31.0</ele><time>2026-04-06T10:54:45.001Z</time></trkpt><trkpt lat="37.34210977696953" lon="14.968467061535575"><ele>31.000000000000004</ele><time>2026-04-06T10:54:46.001Z</time></trkpt><trkpt lat="37.342186069500194" lon="14.968408212545347"><ele>31.0</ele><time>2026-04-06T10:54:47.001Z</time></trkpt><trkpt lat="37.342265874931385" lon="14.968368235629741"><ele>31.0</ele><time>2026-04-06T10:54:48.001Z</time></trkpt><trkpt lat="37.342342280893455" lon="14.968328668205302"><ele>31.0</ele><time>2026-04-06T10:54:49.001Z</time></trkpt><trkpt lat="37.34242084500493" lon="14.968288100173268"><ele>31.000000000000004</ele><time>2026-04-06T10:54:50.001Z</time></trkpt><trkpt lat="37.342501333938735" lon="14.968243053106628"><ele>31.0</ele><time>2026-04-06T10:54:51.001Z</time></trkpt><trkpt lat="37.3425832734153" lon="14.968194253173635"><ele>31.0</ele><time>2026-04-06T10:54:52.001Z</time></trkpt><trkpt lat="37.342669285463046" lon="14.96814608615742"><ele>31.0</ele><time>2026-04-06T10:54:53.001Z</time></trkpt><trkpt lat="37.34275608576527" lon="14.96810060887829"><ele>31.0</ele><time>2026-04-06T10:54:54Z</time></trkpt><trkpt lat="37.34284512165966" lon="14.96805340173721"><ele>31.0</ele><time>2026-04-06T10:54:55Z</time></trkpt><trkpt lat="37.34293610830248" lon="14.96800117870243"><ele>31.0</ele><time>2026-04-06T10:54:56Z</time></trkpt><trkpt lat="37.34303017590007" lon="14.967950994917057"><ele>31.6</ele><time>2026-04-06T10:54:57Z</time></trkpt><trkpt lat="37.34312675143234" lon="14.967905359298385"><ele>32.2</ele><time>2026-04-06T10:54:58Z</time></trkpt><trkpt lat="37.34322211020351" lon="14.967851962914407"><ele>32.8</ele><time>2026-04-06T10:54:59Z</time></trkpt><trkpt lat="37.34331451533129" lon="14.96779602863072"><ele>33.4</ele><time>2026-04-06T10:55:00Z</time></trkpt><trkpt lat="37.34340910675434" lon="14.967738228964869"><ele>34.0</ele><time>2026-04-06T10:55:01Z</time></trkpt><trkpt lat="37.343504146116565" lon="14.967675807007355"><ele>34.0</ele><time>2026-04-06T10:55:02Z</time></trkpt><trkpt lat="37.34360002626088" lon="14.96761154944103"><ele>34.0</ele><time>2026-04-06T10:55:03Z</time></trkpt><trkpt lat="37.34369792328401" lon="14.967553052684282"><ele>34.0</ele><time>2026-04-06T10:55:04Z</time></trkpt><trkpt lat="37.3437969422694" lon="14.96749422200967"><ele>34.0</ele><time>2026-04-06T10:55:05Z</time></trkpt><trkpt lat="37.34390246623482" lon="14.967435001061547"><ele>34.0</ele><time>2026-04-06T10:55:06Z</time></trkpt><trkpt lat="37.344012258290014" lon="14.967371275984958"><ele>34.75</ele><time>2026-04-06T10:55:07Z</time></trkpt><trkpt lat="37.34412335011364" lon="14.967307891540123"><ele>35.5</ele><time>2026-04-06T10:55:08Z</time></trkpt><trkpt lat="37.34423041597112" lon="14.967245072745657"><ele>36.25</ele><time>2026-04-06T10:55:09Z</time></trkpt><trkpt lat="37.344339652106996" lon="14.967190721789796"><ele>37.0</ele><time>2026-04-06T10:55:10Z</time></trkpt><trkpt lat="37.34445225559525" lon="14.96712884290162"><ele>37.0</ele><time>2026-04-06T10:55:11Z</time></trkpt><trkpt lat="37.344564604425784" lon="14.967057931851139"><ele>37.0</ele><time>2026-04-06T10:55:12Z</time></trkpt><trkpt lat="37.34468044115919" lon="14.966988160186798"><ele>37.0</ele><time>2026-04-06T10:55:13Z</time></trkpt><trkpt lat="37.34479926347484" lon="14.966919327099268"><ele>37.0</ele><time>2026-04-06T10:55:14Z</time></trkpt><trkpt lat="37.344918697697224" lon="14.966846769613008"><ele>37.5</ele><time>2026-04-06T10:55:15Z</time></trkpt><trkpt lat="37.34503771319675" lon="14.966775954646941"><ele>38.0</ele><time>2026-04-06T10:55:16Z</time></trkpt><trkpt lat="37.34515368881661" lon="14.96670775393736"><ele>38.5</ele><time>2026-04-06T10:55:17Z</time></trkpt><trkpt lat="37.34526572772082" lon="14.966637369197487"><ele>39.0</ele><time>2026-04-06T10:55:18Z</time></trkpt><trkpt lat="37.34538236220174" lon="14.966581401426597"><ele>39.0</ele><time>2026-04-06T10:55:19Z</time></trkpt><trkpt lat="37.3454824677035" lon="14.966482948767798"><ele>39.0</ele><time>2026-04-06T10:55:20Z</time></trkpt><trkpt lat="37.34558798893656" lon="14.966398907682052"><ele>39.0</ele><time>2026-04-06T10:55:21Z</time></trkpt><trkpt lat="37.34568731609583" lon="14.966314593430424"><ele>39.0</ele><time>2026-04-06T10:55:22Z</time></trkpt><trkpt lat="37.34578286202565" lon="14.96623692381518"><ele>39.166666666666664</ele><time>2026-04-06T10:55:23Z</time></trkpt><trkpt lat="37.34587358911372" lon="14.966167143249553"><ele>39.333333333333336</ele><time>2026-04-06T10:55:24Z</time></trkpt><trkpt lat="37.34595991946867" lon="14.966104293461393"><ele>39.5</ele><time>2026-04-06T10:55:25Z</time></trkpt><trkpt lat="37.3460372299273" lon="14.966045410616573"><ele>39.66666666666667</ele><time>2026-04-06T10:55:26Z</time></trkpt><trkpt lat="37.34610497027091" lon="14.965987326117046"><ele>39.833333333333336</ele><time>2026-04-06T10:55:27Z</time></trkpt><trkpt lat="37.346164722368755" lon="14.965942463999522"><ele>40.0</ele><time>2026-04-06T10:55:28Z</time></trkpt><trkpt lat="37.346261821830694" lon="14.965876659758015"><ele>40.6</ele><time>2026-04-06T10:55:30Z</time></trkpt><trkpt lat="37.34632425826931" lon="14.965833638680337"><ele>41.2</ele><time>2026-04-06T10:55:32Z</time></trkpt><trkpt lat="37.34637746306459" lon="14.965782761302545"><ele>41.8</ele><time>2026-04-06T10:55:35Z</time></trkpt><trkpt lat="37.34643827727865" lon="14.965735148188976"><ele>42.4</ele><time>2026-04-06T10:55:43Z</time></trkpt><trkpt lat="37.34640440846913" lon="14.965576515275574"><ele>43.0</ele><time>2026-04-06T10:55:47Z</time></trkpt><trkpt lat="37.346340435777044" lon="14.965422797430275"><ele>43.0</ele><time>2026-04-06T10:55:49Z</time></trkpt><trkpt lat="37.34630627259152" lon="14.965332066514597"><ele>43.0</ele><time>2026-04-06T10:55:50Z</time></trkpt><trkpt lat="37.34626617128491" lon="14.965236832714572"><ele>43.0</ele><time>2026-04-06T10:55:51Z</time></trkpt><trkpt lat="37.346213984540285" lon="14.965132428098388"><ele>43.0</ele><time>2026-04-06T10:55:52Z</time></trkpt><trkpt lat="37.3461612496033" lon="14.965031772109752"><ele>43.0</ele><time>2026-04-06T10:55:53Z</time></trkpt><trkpt lat="37.346093994939615" lon="14.964902415731954"><ele>43.75</ele><time>2026-04-06T10:55:54Z</time></trkpt><trkpt lat="37.346031956568595" lon="14.964783666724646"><ele>44.5</ele><time>2026-04-06T10:55:55Z</time></trkpt><trkpt lat="37.34596474780571" lon="14.964677147277772"><ele>45.25</ele><time>2026-04-06T10:55:56Z</time></trkpt><trkpt lat="37.34588553025836" lon="14.964577662902709"><ele>46.0</ele><time>2026-04-06T10:55:57Z</time></trkpt><trkpt lat="37.345798995067256" lon="14.96447570544941"><ele>46.0</ele><time>2026-04-06T10:55:58Z</time></trkpt><trkpt lat="37.34570353150218" lon="14.964374719080803"><ele>46.0</ele><time>2026-04-06T10:55:59Z</time></trkpt><trkpt lat="37.34560146527758" lon="14.964273379593271"><ele>46.0</ele><time>2026-04-06T10:56:00Z</time></trkpt><trkpt lat="37.34549900550372" lon="14.964164095923401"><ele>46.0</ele><time>2026-04-06T10:56:01Z</time></trkpt><trkpt lat="37.345394206622416" lon="14.964055027219407"><ele>45.75</ele><time>2026-04-06T10:56:02Z</time></trkpt><trkpt lat="37.3452905075596" lon="14.963945240224914"><ele>45.5</ele><time>2026-04-06T10:56:03Z</time></trkpt><trkpt lat="37.345189681608005" lon="14.96383374894294"><ele>45.25</ele><time>2026-04-06T10:56:04Z</time></trkpt><trkpt lat="37.345087403608375" lon="14.963724302665874"><ele>45.0</ele><time>2026-04-06T10:56:05Z</time></trkpt><trkpt lat="37.34498155546174" lon="14.963620896020645"><ele>45.0</ele><time>2026-04-06T10:56:06Z</time></trkpt><trkpt lat="37.344881629521055" lon="14.963518998814976"><ele>45.0</ele><time>2026-04-06T10:56:07Z</time></trkpt><trkpt lat="37.344791015468" lon="14.96341451865946"><ele>45.0</ele><time>2026-04-06T10:56:08Z</time></trkpt><trkpt lat="37.344703780889766" lon="14.963301801777586"><ele>45.0</ele><time>2026-04-06T10:56:09Z</time></trkpt><trkpt lat="37.344617583646276" lon="14.963184541646372"><ele>44.0</ele><time>2026-04-06T10:56:10Z</time></trkpt><trkpt lat="37.344537785705725" lon="14.963058263486822"><ele>43.0</ele><time>2026-04-06T10:56:11Z</time></trkpt><trkpt lat="37.3444625781887" lon="14.962926678901203"><ele>42.0</ele><time>2026-04-06T10:56:12Z</time></trkpt><trkpt lat="37.344392996660645" lon="14.96279328397041"><ele>41.0</ele><time>2026-04-06T10:56:13Z</time></trkpt><trkpt lat="37.34432257221415" lon="14.962659569091214"><ele>42.25</ele><time>2026-04-06T10:56:14Z</time></trkpt><trkpt lat="37.34425143644277" lon="14.962526170661958"><ele>43.5</ele><time>2026-04-06T10:56:15Z</time></trkpt><trkpt lat="37.34418047643849" lon="14.962391189245283"><ele>44.75</ele><time>2026-04-06T10:56:16Z</time></trkpt><trkpt lat="37.34410741378707" lon="14.962256176867585"><ele>46.0</ele><time>2026-04-06T10:56:17Z</time></trkpt><trkpt lat="37.34403391838411" lon="14.96212038877736"><ele>46.0</ele><time>2026-04-06T10:56:18Z</time></trkpt><trkpt lat="37.343960131082795" lon="14.961984705414627"><ele>46.0</ele><time>2026-04-06T10:56:19Z</time></trkpt><trkpt lat="37.343888478655295" lon="14.961848457993272"><ele>46.0</ele><time>2026-04-06T10:56:20Z</time></trkpt><trkpt lat="37.34381300180456" lon="14.96171251767589"><ele>46.0</ele><time>2026-04-06T10:56:21Z</time></trkpt><trkpt lat="37.34373805444714" lon="14.961577045674122"><ele>44.75</ele><time>2026-04-06T10:56:22Z</time></trkpt><trkpt lat="37.343664327420385" lon="14.961436940362844"><ele>43.5</ele><time>2026-04-06T10:56:23Z</time></trkpt><trkpt lat="37.34358838707321" lon="14.961292631192347"><ele>42.25</ele><time>2026-04-06T10:56:24Z</time></trkpt><trkpt lat="37.343509149941134" lon="14.961142361485214"><ele>41.0</ele><time>2026-04-06T10:56:25Z</time></trkpt><trkpt lat="37.34342644634068" lon="14.960986640236737"><ele>42.0</ele><time>2026-04-06T10:56:26Z</time></trkpt><trkpt lat="37.34334159002675" lon="14.960827740543854"><ele>43.0</ele><time>2026-04-06T10:56:27Z</time></trkpt><trkpt lat="37.34325971009438" lon="14.960676342478779"><ele>44.0</ele><time>2026-04-06T10:56:28Z</time></trkpt><trkpt lat="37.34317259274573" lon="14.960523064702025"><ele>45.0</ele><time>2026-04-06T10:56:29Z</time></trkpt><trkpt lat="37.34308687943842" lon="14.96036868707998"><ele>44.0</ele><time>2026-04-06T10:56:30Z</time></trkpt><trkpt lat="37.343001398303784" lon="14.960214508765686"><ele>43.0</ele><time>2026-04-06T10:56:31Z</time></trkpt><trkpt lat="37.342918780463975" lon="14.960059048927118"><ele>42.0</ele><time>2026-04-06T10:56:32Z</time></trkpt><trkpt lat="37.34283579280449" lon="14.95990350641372"><ele>41.0</ele><time>2026-04-06T10:56:33Z</time></trkpt><trkpt lat="37.34275158187642" lon="14.959747073207012"><ele>41.0</ele><time>2026-04-06T10:56:34Z</time></trkpt><trkpt lat="37.342666517491196" lon="14.959587845275127"><ele>41.0</ele><time>2026-04-06T10:56:35Z</time></trkpt><trkpt lat="37.342581600199246" lon="14.959426117884975"><ele>41.0</ele><time>2026-04-06T10:56:36Z</time></trkpt><trkpt lat="37.34249275564039" lon="14.9592656069271"><ele>42.0</ele><time>2026-04-06T10:56:37Z</time></trkpt><trkpt lat="37.342402957478065" lon="14.959105241858861"><ele>43.0</ele><time>2026-04-06T10:56:38Z</time></trkpt><trkpt lat="37.3423158707645" lon="14.958937812491744"><ele>44.0</ele><time>2026-04-06T10:56:39Z</time></trkpt><trkpt lat="37.34222514877438" lon="14.958771791767504"><ele>43.33333333333333</ele><time>2026-04-06T10:56:40Z</time></trkpt><trkpt lat="37.34213693392373" lon="14.958602674758799"><ele>42.666666666666664</ele><time>2026-04-06T10:56:41Z</time></trkpt><trkpt lat="37.342044801337806" lon="14.958436645796127"><ele>42.0</ele><time>2026-04-06T10:56:42Z</time></trkpt><trkpt lat="37.34195137720392" lon="14.958273511764427"><ele>42.0</ele><time>2026-04-06T10:56:43Z</time></trkpt><trkpt lat="37.34185936421464" lon="14.95810784745455"><ele>42.0</ele><time>2026-04-06T10:56:44Z</time></trkpt><trkpt lat="37.34176990956564" lon="14.957939992609697"><ele>42.0</ele><time>2026-04-06T10:56:45Z</time></trkpt><trkpt lat="37.34167836074011" lon="14.9577732441626"><ele>42.0</ele><time>2026-04-06T10:56:46Z</time></trkpt><trkpt lat="37.34158820638904" lon="14.95760412731772"><ele>42.0</ele><time>2026-04-06T10:56:47Z</time></trkpt><trkpt lat="37.341498479963995" lon="14.95742660902902"><ele>42.0</ele><time>2026-04-06T10:56:48Z</time></trkpt><trkpt lat="37.341405050877796" lon="14.957250700666618"><ele>42.0</ele><time>2026-04-06T10:56:49Z</time></trkpt><trkpt lat="37.34130812854121" lon="14.957079234324736"><ele>42.0</ele><time>2026-04-06T10:56:50Z</time></trkpt><trkpt lat="37.341213875523586" lon="14.956900329170013"><ele>42.0</ele><time>2026-04-06T10:56:51Z</time></trkpt><trkpt lat="37.34111727542953" lon="14.956721274040996"><ele>43.0</ele><time>2026-04-06T10:56:52Z</time></trkpt><trkpt lat="37.3410178415797" lon="14.95654467813385"><ele>44.0</ele><time>2026-04-06T10:56:53Z</time></trkpt><trkpt lat="37.340921027737686" lon="14.956367818271683"><ele>45.0</ele><time>2026-04-06T10:56:54Z</time></trkpt><trkpt lat="37.3408320484697" lon="14.956188982828623"><ele>45.0</ele><time>2026-04-06T10:56:55Z</time></trkpt><trkpt lat="37.34074865401418" lon="14.956011586308978"><ele>45.0</ele><time>2026-04-06T10:56:56Z</time></trkpt><trkpt lat="37.3406821975378" lon="14.955834296847705"><ele>45.0</ele><time>2026-04-06T10:56:57Z</time></trkpt><trkpt lat="37.34063436436975" lon="14.955640685461066"><ele>45.666666666666664</ele><time>2026-04-06T10:56:58Z</time></trkpt><trkpt lat="37.34060458227528" lon="14.955441084032449"><ele>46.33333333333333</ele><time>2026-04-06T10:56:59Z</time></trkpt><trkpt lat="37.340595953359156" lon="14.955234949278568"><ele>47.0</ele><time>2026-04-06T10:57:00Z</time></trkpt><trkpt lat="37.34059543760299" lon="14.955026705712152"><ele>48.0</ele><time>2026-04-06T10:57:01Z</time></trkpt><trkpt lat="37.34059168187345" lon="14.954817169001988"><ele>49.0</ele><time>2026-04-06T10:57:02Z</time></trkpt><trkpt lat="37.34058796503131" lon="14.95461144789171"><ele>50.0</ele><time>2026-04-06T10:57:03Z</time></trkpt><trkpt lat="37.340585956113806" lon="14.954408398855675"><ele>50.0</ele><time>2026-04-06T10:57:04Z</time></trkpt><trkpt lat="37.34058525352131" lon="14.954210004095929"><ele>50.0</ele><time>2026-04-06T10:57:05Z</time></trkpt><trkpt lat="37.34057946350844" lon="14.954014950152821"><ele>50.0</ele><time>2026-04-06T10:57:06Z</time></trkpt><trkpt lat="37.34056273495564" lon="14.953820743381108"><ele>47.0</ele><time>2026-04-06T10:57:07Z</time></trkpt><trkpt lat="37.340533825785755" lon="14.953630567008572"><ele>44.0</ele><time>2026-04-06T10:57:08Z</time></trkpt><trkpt lat="37.340489203863044" lon="14.953443428378216"><ele>41.0</ele><time>2026-04-06T10:57:09Z</time></trkpt><trkpt lat="37.340426977372424" lon="14.953260150221935"><ele>41.0</ele><time>2026-04-06T10:57:10Z</time></trkpt><trkpt lat="37.34034815715309" lon="14.953084404011506"><ele>41.0</ele><time>2026-04-06T10:57:11Z</time></trkpt><trkpt lat="37.340255833588635" lon="14.95291464477621"><ele>41.0</ele><time>2026-04-06T10:57:12Z</time></trkpt><trkpt lat="37.340147521970465" lon="14.952758632395502"><ele>41.0</ele><time>2026-04-06T10:57:13Z</time></trkpt><trkpt lat="37.34003477366131" lon="14.95260305217516"><ele>41.0</ele><time>2026-04-06T10:57:14Z</time></trkpt><trkpt lat="37.33992510358173" lon="14.95245058335403"><ele>41.0</ele><time>2026-04-06T10:57:15Z</time></trkpt><trkpt lat="37.33981986256307" lon="14.95230066716662"><ele>42.33333333333333</ele><time>2026-04-06T10:57:16Z</time></trkpt><trkpt lat="37.33972279130098" lon="14.95214990448219"><ele>43.666666666666664</ele><time>2026-04-06T10:57:17Z</time></trkpt><trkpt lat="37.33963132649993" lon="14.951995698169105"><ele>45.0</ele><time>2026-04-06T10:57:18Z</time></trkpt><trkpt lat="37.33954523949296" lon="14.951831329329307"><ele>43.333333333333336</ele><time>2026-04-06T10:57:19Z</time></trkpt><trkpt lat="37.33946610592897" lon="14.951656079815384"><ele>41.66666666666667</ele><time>2026-04-06T10:57:20Z</time></trkpt><trkpt lat="37.33939103114675" lon="14.951476480590971"><ele>40.0</ele><time>2026-04-06T10:57:21Z</time></trkpt><trkpt lat="37.33931457127731" lon="14.951294382070662"><ele>40.0</ele><time>2026-04-06T10:57:22Z</time></trkpt><trkpt lat="37.339236605652516" lon="14.95110761433973"><ele>40.0</ele><time>2026-04-06T10:57:23Z</time></trkpt><trkpt lat="37.339155172408006" lon="14.95092215751267"><ele>40.0</ele><time>2026-04-06T10:57:24Z</time></trkpt><trkpt lat="37.33907370760619" lon="14.95073611711926"><ele>41.333333333333336</ele><time>2026-04-06T10:57:25Z</time></trkpt><trkpt lat="37.338993051444234" lon="14.950546551818427"><ele>42.666666666666664</ele><time>2026-04-06T10:57:26Z</time></trkpt><trkpt lat="37.33891560275428" lon="14.95036018438353"><ele>44.0</ele><time>2026-04-06T10:57:27Z</time></trkpt><trkpt lat="37.33883378987986" lon="14.950163610080782"><ele>42.0</ele><time>2026-04-06T10:57:28Z</time></trkpt><trkpt lat="37.338750236790965" lon="14.949962887500144"><ele>40.0</ele><time>2026-04-06T10:57:29Z</time></trkpt><trkpt lat="37.338663306854436" lon="14.949764914050085"><ele>38.0</ele><time>2026-04-06T10:57:30Z</time></trkpt><trkpt lat="37.33857839749298" lon="14.949568226562814"><ele>38.0</ele><time>2026-04-06T10:57:31Z</time></trkpt><trkpt lat="37.33849721813148" lon="14.949377334076413"><ele>38.0</ele><time>2026-04-06T10:57:32Z</time></trkpt><trkpt lat="37.338421046775196" lon="14.949190627669688"><ele>38.0</ele><time>2026-04-06T10:57:33Z</time></trkpt><trkpt lat="37.338352908027716" lon="14.94900523346766"><ele>39.33333333333333</ele><time>2026-04-06T10:57:34Z</time></trkpt><trkpt lat="37.33829736560332" lon="14.948823141269557"><ele>40.666666666666664</ele><time>2026-04-06T10:57:35Z</time></trkpt><trkpt lat="37.338256867175964" lon="14.948638022949542"><ele>42.0</ele><time>2026-04-06T10:57:36Z</time></trkpt><trkpt lat="37.33822438189879" lon="14.948445832066781"><ele>42.666666666666664</ele><time>2026-04-06T10:57:37Z</time></trkpt><trkpt lat="37.33820025453699" lon="14.948246962893462"><ele>43.33333333333333</ele><time>2026-04-06T10:57:38Z</time></trkpt><trkpt lat="37.33818167293832" lon="14.94804777839745"><ele>44.0</ele><time>2026-04-06T10:57:39Z</time></trkpt><trkpt lat="37.33816443645118" lon="14.947851328549168"><ele>44.0</ele><time>2026-04-06T10:57:40Z</time></trkpt><trkpt lat="37.33815161192203" lon="14.947656799534919"><ele>44.0</ele><time>2026-04-06T10:57:41Z</time></trkpt><trkpt lat="37.33814027397698" lon="14.947463221941996"><ele>44.0</ele><time>2026-04-06T10:57:42Z</time></trkpt><trkpt lat="37.33812174978789" lon="14.947270187125383"><ele>44.0</ele><time>2026-04-06T10:57:43Z</time></trkpt><trkpt lat="37.33808463128835" lon="14.947075225790098"><ele>44.0</ele><time>2026-04-06T10:57:44Z</time></trkpt><trkpt lat="37.33803493516695" lon="14.946875095696926"><ele>44.0</ele><time>2026-04-06T10:57:45Z</time></trkpt><trkpt lat="37.337977424884365" lon="14.946676946986262"><ele>40.666666666666664</ele><time>2026-04-06T10:57:46Z</time></trkpt><trkpt lat="37.3379144929254" lon="14.946477588926847"><ele>37.333333333333336</ele><time>2026-04-06T10:57:47Z</time></trkpt><trkpt lat="37.33785238357985" lon="14.946275120236505"><ele>34.0</ele><time>2026-04-06T10:57:48Z</time></trkpt><trkpt lat="37.33779077618278" lon="14.946069829507113"><ele>34.66666666666667</ele><time>2026-04-06T10:57:49Z</time></trkpt><trkpt lat="37.337727636357954" lon="14.945863340662573"><ele>35.333333333333336</ele><time>2026-04-06T10:57:50Z</time></trkpt><trkpt lat="37.33766457794835" lon="14.945652734003188"><ele>36.0</ele><time>2026-04-06T10:57:51Z</time></trkpt><trkpt lat="37.33760233949017" lon="14.945442467414912"><ele>36.0</ele><time>2026-04-06T10:57:52Z</time></trkpt><trkpt lat="37.33754085855069" lon="14.945234099816417"><ele>36.0</ele><time>2026-04-06T10:57:53Z</time></trkpt><trkpt lat="37.33747824247927" lon="14.945029144960642"><ele>36.0</ele><time>2026-04-06T10:57:54Z</time></trkpt><trkpt lat="37.33741693437471" lon="14.944827694145845"><ele>37.0</ele><time>2026-04-06T10:57:55Z</time></trkpt><trkpt lat="37.33735855427287" lon="14.944630029600987"><ele>38.0</ele><time>2026-04-06T10:57:56Z</time></trkpt><trkpt lat="37.33730081701681" lon="14.944431419430275"><ele>39.0</ele><time>2026-04-06T10:57:57Z</time></trkpt><trkpt lat="37.337245207397196" lon="14.944239622314573"><ele>38.0</ele><time>2026-04-06T10:57:58Z</time></trkpt><trkpt lat="37.337188716639936" lon="14.944055581781562"><ele>37.0</ele><time>2026-04-06T10:57:59Z</time></trkpt><trkpt lat="37.33713242667607" lon="14.943878396127424"><ele>36.0</ele><time>2026-04-06T10:58:00Z</time></trkpt><trkpt lat="37.3370835438202" lon="14.943702739007774"><ele>36.0</ele><time>2026-04-06T10:58:01Z</time></trkpt><trkpt lat="37.337045675911796" lon="14.943527605871054"><ele>36.0</ele><time>2026-04-06T10:58:02Z</time></trkpt><trkpt lat="37.33703085328004" lon="14.943346747665045"><ele>36.0</ele><time>2026-04-06T10:58:03Z</time></trkpt><trkpt lat="37.33704591648113" lon="14.943152878709151"><ele>36.0</ele><time>2026-04-06T10:58:04Z</time></trkpt><trkpt lat="37.33709043515391" lon="14.942945907139126"><ele>36.333333333333336</ele><time>2026-04-06T10:58:05Z</time></trkpt><trkpt lat="37.337155673033735" lon="14.942742477101426"><ele>36.66666666666667</ele><time>2026-04-06T10:58:06Z</time></trkpt><trkpt lat="37.33723362226055" lon="14.942540477448725"><ele>37.0</ele><time>2026-04-06T10:58:07Z</time></trkpt><trkpt lat="37.33730858169691" lon="14.942346329201449"><ele>37.66666666666667</ele><time>2026-04-06T10:58:08Z</time></trkpt><trkpt lat="37.33737588760181" lon="14.942156483188258"><ele>38.333333333333336</ele><time>2026-04-06T10:58:09Z</time></trkpt><trkpt lat="37.33743005157469" lon="14.941967244261038"><ele>39.0</ele><time>2026-04-06T10:58:10Z</time></trkpt><trkpt lat="37.3374659547125" lon="14.94177058600404"><ele>38.666666666666664</ele><time>2026-04-06T10:58:11Z</time></trkpt><trkpt lat="37.337463933768404" lon="14.941568698081461"><ele>38.33333333333333</ele><time>2026-04-06T10:58:12Z</time></trkpt><trkpt lat="37.33742805333429" lon="14.941365917732176"><ele>38.0</ele><time>2026-04-06T10:58:13Z</time></trkpt><trkpt lat="37.337358145757456" lon="14.941164264422696"><ele>38.0</ele><time>2026-04-06T10:58:14Z</time></trkpt><trkpt lat="37.337273013310664" lon="14.940968218944757"><ele>38.0</ele><time>2026-04-06T10:58:15Z</time></trkpt><trkpt lat="37.33717957731846" lon="14.940778498224375"><ele>38.0</ele><time>2026-04-06T10:58:16Z</time></trkpt><trkpt lat="37.33708722590559" lon="14.940585053544089"><ele>37.666666666666664</ele><time>2026-04-06T10:58:17Z</time></trkpt><trkpt lat="37.33700232197453" lon="14.940390617245592"><ele>37.333333333333336</ele><time>2026-04-06T10:58:18Z</time></trkpt><trkpt lat="37.336920069436616" lon="14.940211151928253"><ele>37.0</ele><time>2026-04-06T10:58:19Z</time></trkpt><trkpt lat="37.33683631641857" lon="14.940043452961962"><ele>37.0</ele><time>2026-04-06T10:58:20Z</time></trkpt><trkpt lat="37.33676830706975" lon="14.93988070143226"><ele>37.0</ele><time>2026-04-06T10:58:21Z</time></trkpt><trkpt lat="37.336722377596814" lon="14.939711083032408"><ele>37.0</ele><time>2026-04-06T10:58:22Z</time></trkpt><trkpt lat="37.33669055512578" lon="14.939519997337818"><ele>37.0</ele><time>2026-04-06T10:58:23Z</time></trkpt><trkpt lat="37.33667213569117" lon="14.939313847318042"><ele>36.66666666666667</ele><time>2026-04-06T10:58:24Z</time></trkpt><trkpt lat="37.33666542899964" lon="14.939100389601847"><ele>36.333333333333336</ele><time>2026-04-06T10:58:25Z</time></trkpt><trkpt lat="37.33665838160071" lon="14.93887915112733"><ele>36.0</ele><time>2026-04-06T10:58:26Z</time></trkpt><trkpt lat="37.33665080399597" lon="14.938650219924556"><ele>36.0</ele><time>2026-04-06T10:58:27Z</time></trkpt><trkpt lat="37.33664187278188" lon="14.938418191257405"><ele>36.0</ele><time>2026-04-06T10:58:28Z</time></trkpt><trkpt lat="37.336632073662486" lon="14.9381868395922"><ele>36.0</ele><time>2026-04-06T10:58:29Z</time></trkpt><trkpt lat="37.33662565260281" lon="14.937955554041022"><ele>36.0</ele><time>2026-04-06T10:58:30Z</time></trkpt><trkpt lat="37.336628390833056" lon="14.93773156669366"><ele>36.0</ele><time>2026-04-06T10:58:31Z</time></trkpt><trkpt lat="37.33663412057906" lon="14.93751437633054"><ele>36.0</ele><time>2026-04-06T10:58:32Z</time></trkpt><trkpt lat="37.33659659076127" lon="14.937247719857226"><ele>35.666666666666664</ele><time>2026-04-06T10:58:33Z</time></trkpt><trkpt lat="37.33658570913427" lon="14.937016182987422"><ele>35.33333333333333</ele><time>2026-04-06T10:58:34Z</time></trkpt><trkpt lat="37.336570569799306" lon="14.936782228032298"><ele>35.0</ele><time>2026-04-06T10:58:35Z</time></trkpt><trkpt lat="37.3365463457652" lon="14.936543735395743"><ele>35.666666666666664</ele><time>2026-04-06T10:58:36Z</time></trkpt><trkpt lat="37.33651247917795" lon="14.936305348502785"><ele>36.333333333333336</ele><time>2026-04-06T10:58:37Z</time></trkpt><trkpt lat="37.33646206164054" lon="14.936069589829874"><ele>37.0</ele><time>2026-04-06T10:58:38Z</time></trkpt><trkpt lat="37.33641438793757" lon="14.935827191603735"><ele>34.333333333333336</ele><time>2026-04-06T10:58:39Z</time></trkpt><trkpt lat="37.3363700398564" lon="14.93560352974344"><ele>31.666666666666664</ele><time>2026-04-06T10:58:40Z</time></trkpt><trkpt lat="37.336317363849936" lon="14.935367003585437"><ele>29.0</ele><time>2026-04-06T10:58:41Z</time></trkpt><trkpt lat="37.33626138364915" lon="14.935117367184771"><ele>28.666666666666664</ele><time>2026-04-06T10:58:42Z</time></trkpt><trkpt lat="37.33621216210117" lon="14.9348618485492"><ele>28.333333333333336</ele><time>2026-04-06T10:58:43Z</time></trkpt><trkpt lat="37.33616548647959" lon="14.934607290164944"><ele>28.0</ele><time>2026-04-06T10:58:44Z</time></trkpt><trkpt lat="37.33611580817105" lon="14.93435152229184"><ele>28.0</ele><time>2026-04-06T10:58:45Z</time></trkpt><trkpt lat="37.336065413838355" lon="14.934096332372086"><ele>28.0</ele><time>2026-04-06T10:58:46Z</time></trkpt><trkpt lat="37.336015300745004" lon="14.933842995365499"><ele>28.0</ele><time>2026-04-06T10:58:47Z</time></trkpt><trkpt lat="37.33596855304235" lon="14.933586053038105"><ele>28.666666666666668</ele><time>2026-04-06T10:58:48Z</time></trkpt><trkpt lat="37.33591693760163" lon="14.933326200609804"><ele>29.333333333333336</ele><time>2026-04-06T10:58:49Z</time></trkpt><trkpt lat="37.3358613683904" lon="14.93307050957055"><ele>30.0</ele><time>2026-04-06T10:58:50Z</time></trkpt><trkpt lat="37.33579090662909" lon="14.932823629015756"><ele>30.0</ele><time>2026-04-06T10:58:51Z</time></trkpt><trkpt lat="37.33570835972502" lon="14.932583180300592"><ele>30.0</ele><time>2026-04-06T10:58:52Z</time></trkpt><trkpt lat="37.33560210410531" lon="14.932349568857218"><ele>30.0</ele><time>2026-04-06T10:58:53Z</time></trkpt><trkpt lat="37.335482778158394" lon="14.932122697745477"><ele>30.333333333333336</ele><time>2026-04-06T10:58:54Z</time></trkpt><trkpt lat="37.335364329569266" lon="14.93188973533188"><ele>30.666666666666668</ele><time>2026-04-06T10:58:55Z</time></trkpt><trkpt lat="37.33525146068916" lon="14.931654568807232"><ele>31.0</ele><time>2026-04-06T10:58:56Z</time></trkpt><trkpt lat="37.3351474029929" lon="14.93141598052551"><ele>31.0</ele><time>2026-04-06T10:58:57Z</time></trkpt><trkpt lat="37.33504304823679" lon="14.931177113051554"><ele>31.0</ele><time>2026-04-06T10:58:58Z</time></trkpt><trkpt lat="37.33493544847961" lon="14.930938148701042"><ele>31.0</ele><time>2026-04-06T10:58:59Z</time></trkpt><trkpt lat="37.334825078906846" lon="14.93070104936193"><ele>32.0</ele><time>2026-04-06T10:59:00Z</time></trkpt><trkpt lat="37.334714473851925" lon="14.930464119037138"><ele>33.0</ele><time>2026-04-06T10:59:01Z</time></trkpt><trkpt lat="37.334602535534536" lon="14.93022660238004"><ele>34.0</ele><time>2026-04-06T10:59:02Z</time></trkpt><trkpt lat="37.33449355109538" lon="14.929988273291336"><ele>34.0</ele><time>2026-04-06T10:59:03Z</time></trkpt><trkpt lat="37.334385164728396" lon="14.92975023697405"><ele>34.0</ele><time>2026-04-06T10:59:04Z</time></trkpt><trkpt lat="37.334276278567415" lon="14.929514652665796"><ele>34.0</ele><time>2026-04-06T10:59:05Z</time></trkpt><trkpt lat="37.334168734877636" lon="14.929281117950913"><ele>34.66666666666667</ele><time>2026-04-06T10:59:06Z</time></trkpt><trkpt lat="37.33406019504135" lon="14.92905003001715"><ele>35.333333333333336</ele><time>2026-04-06T10:59:07Z</time></trkpt><trkpt lat="37.33395375946288" lon="14.928819326404868"><ele>36.0</ele><time>2026-04-06T10:59:08Z</time></trkpt><trkpt lat="37.33385012559015" lon="14.928587463702108"><ele>37.333333333333336</ele><time>2026-04-06T10:59:09Z</time></trkpt><trkpt lat="37.33374727258557" lon="14.928354791779485"><ele>38.66666666666667</ele><time>2026-04-06T10:59:10Z</time></trkpt><trkpt lat="37.3336457431198" lon="14.928120355240608"><ele>40.0</ele><time>2026-04-06T10:59:11Z</time></trkpt><trkpt lat="37.33354414723125" lon="14.927886575169415"><ele>40.0</ele><time>2026-04-06T10:59:12Z</time></trkpt><trkpt lat="37.33344321828695" lon="14.927649896587402"><ele>40.0</ele><time>2026-04-06T10:59:13Z</time></trkpt><trkpt lat="37.33334344223379" lon="14.927410939071107"><ele>40.0</ele><time>2026-04-06T10:59:14Z</time></trkpt><trkpt lat="37.33324562246853" lon="14.92716820935538"><ele>40.0</ele><time>2026-04-06T10:59:15Z</time></trkpt><trkpt lat="37.33314833874571" lon="14.926922504194078"><ele>40.0</ele><time>2026-04-06T10:59:16Z</time></trkpt><trkpt lat="37.33304967192049" lon="14.92667598834026"><ele>40.0</ele><time>2026-04-06T10:59:17Z</time></trkpt><trkpt lat="37.33295317566653" lon="14.926427031664964"><ele>40.0</ele><time>2026-04-06T10:59:18Z</time></trkpt><trkpt lat="37.33285707161525" lon="14.926176585163622"><ele>40.0</ele><time>2026-04-06T10:59:19Z</time></trkpt><trkpt lat="37.332759419732426" lon="14.925926866471483"><ele>40.0</ele><time>2026-04-06T10:59:20Z</time></trkpt><trkpt lat="37.33266090865582" lon="14.925676755149748"><ele>40.333333333333336</ele><time>2026-04-06T10:59:21Z</time></trkpt><trkpt lat="37.33255965052132" lon="14.925426899737323"><ele>40.666666666666664</ele><time>2026-04-06T10:59:22Z</time></trkpt><trkpt lat="37.3324571411049" lon="14.925177399731187"><ele>41.0</ele><time>2026-04-06T10:59:23Z</time></trkpt><trkpt lat="37.33235514142861" lon="14.924925582753477"><ele>41.33333333333333</ele><time>2026-04-06T10:59:24Z</time></trkpt><trkpt lat="37.332254294978426" lon="14.924673612038847"><ele>41.666666666666664</ele><time>2026-04-06T10:59:25Z</time></trkpt><trkpt lat="37.33215596155013" lon="14.9244251318067"><ele>42.0</ele><time>2026-04-06T10:59:26Z</time></trkpt><trkpt lat="37.33205870788585" lon="14.924173245434664"><ele>42.0</ele><time>2026-04-06T10:59:27Z</time></trkpt><trkpt lat="37.33196243784081" lon="14.923926747484394"><ele>42.0</ele><time>2026-04-06T10:59:28Z</time></trkpt><trkpt lat="37.331864715360815" lon="14.92368013818348"><ele>42.0</ele><time>2026-04-06T10:59:29Z</time></trkpt><trkpt lat="37.33176704743285" lon="14.923435213617536"><ele>43.0</ele><time>2026-04-06T10:59:30Z</time></trkpt><trkpt lat="37.33166847549998" lon="14.923187443801297"><ele>44.0</ele><time>2026-04-06T10:59:31Z</time></trkpt><trkpt lat="37.331572521052905" lon="14.922938932302278"><ele>45.0</ele><time>2026-04-06T10:59:32Z</time></trkpt><trkpt lat="37.33147488275721" lon="14.922685711259499"><ele>44.666666666666664</ele><time>2026-04-06T10:59:33Z</time></trkpt><trkpt lat="37.33137590351185" lon="14.922434986541443"><ele>44.33333333333333</ele><time>2026-04-06T10:59:34Z</time></trkpt><trkpt lat="37.331277566446126" lon="14.92218210973119"><ele>44.0</ele><time>2026-04-06T10:59:35Z</time></trkpt><trkpt lat="37.331178504614634" lon="14.921929764939692"><ele>44.666666666666664</ele><time>2026-04-06T10:59:36Z</time></trkpt><trkpt lat="37.33107880926257" lon="14.921674923055429"><ele>45.333333333333336</ele><time>2026-04-06T10:59:37Z</time></trkpt><trkpt lat="37.33097925282639" lon="14.921423254750355"><ele>46.0</ele><time>2026-04-06T10:59:38Z</time></trkpt><trkpt lat="37.330879242559924" lon="14.92117240242154"><ele>46.0</ele><time>2026-04-06T10:59:39Z</time></trkpt><trkpt lat="37.33077785906928" lon="14.920923063178337"><ele>46.0</ele><time>2026-04-06T10:59:40Z</time></trkpt><trkpt lat="37.33068129499645" lon="14.920678919963168"><ele>46.0</ele><time>2026-04-06T10:59:41Z</time></trkpt><trkpt lat="37.330588617400906" lon="14.92043625992005"><ele>46.333333333333336</ele><time>2026-04-06T10:59:42Z</time></trkpt><trkpt lat="37.330498550920495" lon="14.920201216309966"><ele>46.666666666666664</ele><time>2026-04-06T10:59:43Z</time></trkpt><trkpt lat="37.33041436273048" lon="14.919979896266458"><ele>47.0</ele><time>2026-04-06T10:59:44Z</time></trkpt><trkpt lat="37.33033316905277" lon="14.919771778093532"><ele>47.666666666666664</ele><time>2026-04-06T10:59:45Z</time></trkpt><trkpt lat="37.33025400380943" lon="14.919574242362117"><ele>48.33333333333333</ele><time>2026-04-06T10:59:46Z</time></trkpt><trkpt lat="37.33017741794311" lon="14.919384838661871"><ele>49.0</ele><time>2026-04-06T10:59:47Z</time></trkpt><trkpt lat="37.33010573514548" lon="14.919205587322292"><ele>49.25</ele><time>2026-04-06T10:59:48Z</time></trkpt><trkpt lat="37.33003903125824" lon="14.919037612736226"><ele>49.5</ele><time>2026-04-06T10:59:49Z</time></trkpt><trkpt lat="37.32998297096862" lon="14.918894134366846"><ele>49.75</ele><time>2026-04-06T10:59:50Z</time></trkpt><trkpt lat="37.32994160860819" lon="14.918776916546939"><ele>50.0</ele><time>2026-04-06T10:59:51Z</time></trkpt><trkpt lat="37.32991529392539" lon="14.91868365190432"><ele>50.0</ele><time>2026-04-06T10:59:52Z</time></trkpt><trkpt lat="37.329901890317906" lon="14.918591460623226"><ele>50.0</ele><time>2026-04-06T10:59:53Z</time></trkpt><trkpt lat="37.32997007785949" lon="14.918482536243825"><ele>50.0</ele><time>2026-04-06T10:59:55Z</time></trkpt><trkpt lat="37.33003417020059" lon="14.918440598295769"><ele>50.0</ele><time>2026-04-06T10:59:56Z</time></trkpt><trkpt lat="37.33011895348932" lon="14.91841583865275"><ele>50.0</ele><time>2026-04-06T10:59:57Z</time></trkpt><trkpt lat="37.33022457786811" lon="14.918398160585324"><ele>49.75</ele><time>2026-04-06T10:59:58Z</time></trkpt><trkpt lat="37.330340492610325" lon="14.918380871638275"><ele>49.5</ele><time>2026-04-06T10:59:59Z</time></trkpt><trkpt lat="37.33046851443247" lon="14.918352371742005"><ele>49.25</ele><time>2026-04-06T11:00:00Z</time></trkpt><trkpt lat="37.330604619194055" lon="14.918319093025158"><ele>49.0</ele><time>2026-04-06T11:00:01Z</time></trkpt><trkpt lat="37.33074475356172" lon="14.918291374728629"><ele>49.0</ele><time>2026-04-06T11:00:02Z</time></trkpt><trkpt lat="37.33088690010139" lon="14.918270487889215"><ele>49.0</ele><time>2026-04-06T11:00:03Z</time></trkpt><trkpt lat="37.33103189557701" lon="14.918251659366003"><ele>49.0</ele><time>2026-04-06T11:00:04Z</time></trkpt><trkpt lat="37.331183129052754" lon="14.918232764322251"><ele>49.0</ele><time>2026-04-06T11:00:05Z</time></trkpt><trkpt lat="37.33133156607132" lon="14.918212026162887"><ele>48.5</ele><time>2026-04-06T11:00:06Z</time></trkpt><trkpt lat="37.331479091602" lon="14.918189858946121"><ele>48.0</ele><time>2026-04-06T11:00:07Z</time></trkpt><trkpt lat="37.33162303824692" lon="14.918169095291711"><ele>47.5</ele><time>2026-04-06T11:00:08Z</time></trkpt><trkpt lat="37.33176554486937" lon="14.918147982867207"><ele>47.0</ele><time>2026-04-06T11:00:09Z</time></trkpt><trkpt lat="37.33190178826479" lon="14.918128992199264"><ele>47.0</ele><time>2026-04-06T11:00:10Z</time></trkpt><trkpt lat="37.33201254814866" lon="14.918114189392702"><ele>47.0</ele><time>2026-04-06T11:00:11Z</time></trkpt><trkpt lat="37.3320954096808" lon="14.918102654228345"><ele>47.0</ele><time>2026-04-06T11:00:12Z</time></trkpt><trkpt lat="37.33218712374403" lon="14.918052263289896"><ele>47.0</ele><time>2026-04-06T11:00:14Z</time></trkpt><trkpt lat="37.3322441357529" lon="14.917959328473044"><ele>47.0</ele><time>2026-04-06T11:00:16Z</time></trkpt><trkpt lat="37.33231852577702" lon="14.917922635363404"><ele>46.83333333333333</ele><time>2026-04-06T11:00:18Z</time></trkpt><trkpt lat="37.3323832115783" lon="14.917921227893851"><ele>46.666666666666664</ele><time>2026-04-06T11:00:20Z</time></trkpt><trkpt lat="37.332457264033465" lon="14.917905434069574"><ele>46.5</ele><time>2026-04-06T11:00:22Z</time></trkpt><trkpt lat="37.33256325600394" lon="14.917885851215496"><ele>46.333333333333336</ele><time>2026-04-06T11:00:24Z</time></trkpt><trkpt lat="37.332668972548454" lon="14.917867780198621"><ele>46.16666666666667</ele><time>2026-04-06T11:00:26Z</time></trkpt><trkpt lat="37.33275713956216" lon="14.917850462382827"><ele>46.0</ele><time>2026-04-06T11:00:28Z</time></trkpt><trkpt lat="37.33283148948635" lon="14.917836013291973"><ele>46.0</ele><time>2026-04-06T11:00:31Z</time></trkpt><trkpt lat="37.332903939356456" lon="14.917817109169132"><ele>46.0</ele><time>2026-04-06T11:02:11Z</time></trkpt><trkpt lat="37.3329683653778" lon="14.917797294397229"><ele>46.0</ele><time>2026-04-06T11:03:00Z</time></trkpt><trkpt lat="37.33307060520413" lon="14.917763872214715"><ele>46.0</ele><time>2026-04-06T11:03:02Z</time></trkpt><trkpt lat="37.33316976187648" lon="14.91772675927193"><ele>46.0</ele><time>2026-04-06T11:03:04Z</time></trkpt><trkpt lat="37.33324221245484" lon="14.917666290553447"><ele>46.0</ele><time>2026-04-06T11:03:06Z</time></trkpt><trkpt lat="37.33328963332483" lon="14.917592404540589"><ele>47.199999999999996</ele><time>2026-04-06T11:03:08Z</time></trkpt><trkpt lat="37.33324610672518" lon="14.917493517597046"><ele>48.4</ele><time>2026-04-06T11:03:10Z</time></trkpt><trkpt lat="37.33319182410349" lon="14.91736884285158"><ele>49.6</ele><time>2026-04-06T11:03:12Z</time></trkpt><trkpt lat="37.33317187679067" lon="14.917291894369349"><ele>50.8</ele><time>2026-04-06T11:03:13Z</time></trkpt><trkpt lat="37.33308966801001" lon="14.917204518818323"><ele>52.0</ele><time>2026-04-06T11:03:15Z</time></trkpt><trkpt lat="37.3330340774463" lon="14.91707232937659"><ele>52.166666666666664</ele><time>2026-04-06T11:03:17.001Z</time></trkpt><trkpt lat="37.333002585522294" lon="14.916984644956901"><ele>52.33333333333333</ele><time>2026-04-06T11:03:18.001Z</time></trkpt><trkpt lat="37.33296616960257" lon="14.916901801396827"><ele>52.5</ele><time>2026-04-06T11:03:19.001Z</time></trkpt><trkpt lat="37.332913421205156" lon="14.916808419946582"><ele>52.66666666666667</ele><time>2026-04-06T11:03:21.001Z</time></trkpt><trkpt lat="37.33285343066733" lon="14.916696192215793"><ele>52.833333333333336</ele><time>2026-04-06T11:03:23.001Z</time></trkpt><trkpt lat="37.33281289176218" lon="14.91662888186913"><ele>53.0</ele><time>2026-04-06T11:03:24.001Z</time></trkpt><trkpt lat="37.332770417831945" lon="14.916548566495852"><ele>54.16666666666667</ele><time>2026-04-06T11:03:25.001Z</time></trkpt><trkpt lat="37.33274103587242" lon="14.916460008508274"><ele>55.333333333333336</ele><time>2026-04-06T11:03:26.001Z</time></trkpt><trkpt lat="37.33269389923574" lon="14.916398828978506"><ele>56.5</ele><time>2026-04-06T11:03:27.001Z</time></trkpt><trkpt lat="37.33262880214905" lon="14.91626721055297"><ele>57.66666666666667</ele><time>2026-04-06T11:03:29.001Z</time></trkpt><trkpt lat="37.332591131981154" lon="14.916191593531165"><ele>58.833333333333336</ele><time>2026-04-06T11:03:30.001Z</time></trkpt><trkpt lat="37.332554315033406" lon="14.916117899458122"><ele>60.0</ele><time>2026-04-06T11:03:31.001Z</time></trkpt><trkpt lat="37.33250875053286" lon="14.91600876494573"><ele>60.5</ele><time>2026-04-06T11:03:33Z</time></trkpt><trkpt lat="37.33244419889969" lon="14.915898562098452"><ele>61.0</ele><time>2026-04-06T11:03:35Z</time></trkpt><trkpt lat="37.33240471429025" lon="14.915834522966717"><ele>61.5</ele><time>2026-04-06T11:03:36Z</time></trkpt><trkpt lat="37.33236475574811" lon="14.91577297698977"><ele>62.0</ele><time>2026-04-06T11:03:37Z</time></trkpt><trkpt lat="37.332326677707364" lon="14.915706027645982"><ele>62.5</ele><time>2026-04-06T11:03:38Z</time></trkpt><trkpt lat="37.33225482131795" lon="14.91557845327376"><ele>63.0</ele><time>2026-04-06T11:03:40Z</time></trkpt><trkpt lat="37.33218614884782" lon="14.915459385277359"><ele>63.0</ele><time>2026-04-06T11:03:42Z</time></trkpt><trkpt lat="37.3321244673122" lon="14.915354791494806"><ele>63.0</ele><time>2026-04-06T11:03:44Z</time></trkpt><trkpt lat="37.332074164088986" lon="14.915247912096627"><ele>63.0</ele><time>2026-04-06T11:03:46Z</time></trkpt><trkpt lat="37.33201274627994" lon="14.915140051703668"><ele>63.0</ele><time>2026-04-06T11:03:48Z</time></trkpt><trkpt lat="37.33194395060207" lon="14.91503185673026"><ele>63.0</ele><time>2026-04-06T11:03:50Z</time></trkpt><trkpt lat="37.33192175185721" lon="14.91493044138593"><ele>64.0</ele><time>2026-04-06T11:03:52Z</time></trkpt><trkpt lat="37.331901265154" lon="14.91484810968971"><ele>65.0</ele><time>2026-04-06T11:03:55Z</time></trkpt><trkpt lat="37.33186116181347" lon="14.914771251439252"><ele>66.0</ele><time>2026-04-06T11:03:59Z</time></trkpt><trkpt lat="37.33184297229647" lon="14.91467421040122"><ele>67.0</ele><time>2026-04-06T11:04:14Z</time></trkpt><trkpt lat="37.33182428742618" lon="14.914584431875358"><ele>68.0</ele><time>2026-04-06T11:04:24Z</time></trkpt><trkpt lat="37.33181181621934" lon="14.914499178221314"><ele>69.0</ele><time>2026-04-06T11:04:30Z</time></trkpt><trkpt lat="37.331784909548624" lon="14.914420191691061"><ele>70.0</ele><time>2026-04-06T11:04:32Z</time></trkpt><trkpt lat="37.33176628603956" lon="14.914336596204116"><ele>70.5</ele><time>2026-04-06T11:04:34Z</time></trkpt><trkpt lat="37.33174660024215" lon="14.914228432076673"><ele>71.0</ele><time>2026-04-06T11:04:37Z</time></trkpt><trkpt lat="37.33173971456711" lon="14.914138084934242"><ele>71.5</ele><time>2026-04-06T11:04:40Z</time></trkpt><trkpt lat="37.33170862635849" lon="14.91404883487614"><ele>72.0</ele><time>2026-04-06T11:04:44Z</time></trkpt><trkpt lat="37.33168748584461" lon="14.913971520356256"><ele>72.5</ele><time>2026-04-06T11:04:47Z</time></trkpt><trkpt lat="37.33171376879644" lon="14.914059391808992"><ele>73.0</ele><time>2026-04-06T11:05:34Z</time></trkpt><trkpt lat="37.331731604386746" lon="14.91417321543788"><ele>72.5</ele><time>2026-04-06T11:05:36Z</time></trkpt><trkpt lat="37.331762529530096" lon="14.91426072508595"><ele>72.0</ele><time>2026-04-06T11:05:37Z</time></trkpt><trkpt lat="37.331782751404816" lon="14.91433871072254"><ele>71.5</ele><time>2026-04-06T11:05:38Z</time></trkpt><trkpt lat="37.33181720375104" lon="14.914484020999746"><ele>71.0</ele><time>2026-04-06T11:05:40Z</time></trkpt><trkpt lat="37.331833136687855" lon="14.914568438627628"><ele>70.5</ele><time>2026-04-06T11:05:41Z</time></trkpt><trkpt lat="37.331849849319575" lon="14.914652186853472"><ele>70.0</ele><time>2026-04-06T11:05:42Z</time></trkpt><trkpt lat="37.33187743658822" lon="14.91477682873456"><ele>70.0</ele><time>2026-04-06T11:05:44Z</time></trkpt><trkpt lat="37.33190968411155" lon="14.914904036402826"><ele>70.0</ele><time>2026-04-06T11:05:46Z</time></trkpt><trkpt lat="37.33195231031654" lon="14.915031207108159"><ele>70.0</ele><time>2026-04-06T11:05:48Z</time></trkpt><trkpt lat="37.33201464591252" lon="14.915148221317754"><ele>70.0</ele><time>2026-04-06T11:05:50Z</time></trkpt><trkpt lat="37.332078965106234" lon="14.915273321932252"><ele>70.0</ele><time>2026-04-06T11:05:52Z</time></trkpt><trkpt lat="37.33215212022806" lon="14.915398142542042"><ele>69.0</ele><time>2026-04-06T11:05:54Z</time></trkpt><trkpt lat="37.3322233633705" lon="14.915523970000509"><ele>68.0</ele><time>2026-04-06T11:05:56Z</time></trkpt><trkpt lat="37.33226021200553" lon="14.915589928285685"><ele>67.0</ele><time>2026-04-06T11:05:57Z</time></trkpt><trkpt lat="37.33233405462098" lon="14.915710322340553"><ele>66.0</ele><time>2026-04-06T11:05:59Z</time></trkpt><trkpt lat="37.332398427148675" lon="14.915824173856"><ele>65.0</ele><time>2026-04-06T11:06:01Z</time></trkpt><trkpt lat="37.33246439188333" lon="14.915921290964478"><ele>64.0</ele><time>2026-04-06T11:06:03Z</time></trkpt><trkpt lat="37.33251454705636" lon="14.916016174965376"><ele>63.0</ele><time>2026-04-06T11:06:05Z</time></trkpt><trkpt lat="37.33258164483527" lon="14.916138475986546"><ele>62.0</ele><time>2026-04-06T11:06:07Z</time></trkpt><trkpt lat="37.33263617980693" lon="14.916268796679985"><ele>61.0</ele><time>2026-04-06T11:06:09Z</time></trkpt><trkpt lat="37.3326724279242" lon="14.916349535145095"><ele>60.0</ele><time>2026-04-06T11:06:10Z</time></trkpt><trkpt lat="37.33269693467443" lon="14.916449936919594"><ele>60.0</ele><time>2026-04-06T11:06:11Z</time></trkpt><trkpt lat="37.33273687151961" lon="14.916531169604069"><ele>60.0</ele><time>2026-04-06T11:06:12Z</time></trkpt><trkpt lat="37.33278617122457" lon="14.91659820761367"><ele>60.0</ele><time>2026-04-06T11:06:13Z</time></trkpt><trkpt lat="37.33283438486511" lon="14.916713170399909"><ele>60.0</ele><time>2026-04-06T11:06:15Z</time></trkpt><trkpt lat="37.33288722338686" lon="14.91680872296486"><ele>60.0</ele><time>2026-04-06T11:06:17Z</time></trkpt><trkpt lat="37.33294777450096" lon="14.916892102313179"><ele>60.0</ele><time>2026-04-06T11:06:19Z</time></trkpt><trkpt lat="37.3329920984002" lon="14.916991903613239"><ele>58.833333333333336</ele><time>2026-04-06T11:06:21Z</time></trkpt><trkpt lat="37.33301539703092" lon="14.91710117187092"><ele>57.66666666666667</ele><time>2026-04-06T11:06:23Z</time></trkpt><trkpt lat="37.33305966935456" lon="14.917179158972463"><ele>56.5</ele><time>2026-04-06T11:06:25Z</time></trkpt><trkpt lat="37.33309672730726" lon="14.917253470154687"><ele>55.333333333333336</ele><time>2026-04-06T11:06:27Z</time></trkpt><trkpt lat="37.33316187068717" lon="14.91732431492796"><ele>54.16666666666667</ele><time>2026-04-06T11:06:30Z</time></trkpt><trkpt lat="37.33319775638739" lon="14.917428002118772"><ele>53.0</ele><time>2026-04-06T11:06:33Z</time></trkpt><trkpt lat="37.333225659675406" lon="14.917507987307317"><ele>51.833333333333336</ele><time>2026-04-06T11:06:35Z</time></trkpt><trkpt lat="37.33324361267145" lon="14.91760971317512"><ele>50.66666666666667</ele><time>2026-04-06T11:06:38Z</time></trkpt><trkpt lat="37.33319365349519" lon="14.91770006853059"><ele>49.5</ele><time>2026-04-06T11:06:42Z</time></trkpt><trkpt lat="37.33312986296749" lon="14.91775041377512"><ele>48.333333333333336</ele><time>2026-04-06T11:06:44Z</time></trkpt><trkpt lat="37.333040662022434" lon="14.917783516390982"><ele>47.16666666666667</ele><time>2026-04-06T11:06:46Z</time></trkpt><trkpt lat="37.33296542497288" lon="14.917806503188205"><ele>46.0</ele><time>2026-04-06T11:06:48Z</time></trkpt><trkpt lat="37.332893344434034" lon="14.917823314221316"><ele>46.0</ele><time>2026-04-06T11:06:51Z</time></trkpt><trkpt lat="37.33281433696013" lon="14.917841438313008"><ele>46.0</ele><time>2026-04-06T11:08:05Z</time></trkpt><trkpt lat="37.33273435300257" lon="14.917857931883963"><ele>46.0</ele><time>2026-04-06T11:08:28Z</time></trkpt><trkpt lat="37.33263195023645" lon="14.917873996964168"><ele>46.0</ele><time>2026-04-06T11:08:30Z</time></trkpt><trkpt lat="37.33256091756358" lon="14.91788562008596"><ele>46.0</ele><time>2026-04-06T11:08:31Z</time></trkpt><trkpt lat="37.33248674230148" lon="14.917899240550568"><ele>46.0</ele><time>2026-04-06T11:08:32Z</time></trkpt><trkpt lat="37.332421655755056" lon="14.917911731870905"><ele>46.0</ele><time>2026-04-06T11:08:33Z</time></trkpt><trkpt lat="37.33232074563387" lon="14.91790869249991"><ele>46.0</ele><time>2026-04-06T11:08:35Z</time></trkpt><trkpt lat="37.33224655256526" lon="14.917927213048298"><ele>46.0</ele><time>2026-04-06T11:08:37Z</time></trkpt><trkpt lat="37.33219246205232" lon="14.917982271386245"><ele>46.0</ele><time>2026-04-06T11:08:39Z</time></trkpt><trkpt lat="37.33215958496366" lon="14.918067496043497"><ele>46.0</ele><time>2026-04-06T11:08:48Z</time></trkpt><trkpt lat="37.33208102586509" lon="14.91807757202007"><ele>46.0</ele><time>2026-04-06T11:08:49Z</time></trkpt><trkpt lat="37.331990420802626" lon="14.918086039420608"><ele>46.199999999999996</ele><time>2026-04-06T11:08:50Z</time></trkpt><trkpt lat="37.33190499598263" lon="14.918094930172458"><ele>46.4</ele><time>2026-04-06T11:08:51Z</time></trkpt><trkpt lat="37.331820872630594" lon="14.918111379497066"><ele>46.6</ele><time>2026-04-06T11:08:52Z</time></trkpt><trkpt lat="37.331722498072054" lon="14.918125658724394"><ele>46.8</ele><time>2026-04-06T11:08:53Z</time></trkpt><trkpt lat="37.33162552386715" lon="14.918140559255074"><ele>47.0</ele><time>2026-04-06T11:08:54Z</time></trkpt><trkpt lat="37.33153011768376" lon="14.918152506987035"><ele>47.0</ele><time>2026-04-06T11:08:55Z</time></trkpt><trkpt lat="37.331425935994645" lon="14.918167706338597"><ele>47.0</ele><time>2026-04-06T11:08:56Z</time></trkpt><trkpt lat="37.33132636486939" lon="14.918183898748167"><ele>47.0</ele><time>2026-04-06T11:08:57Z</time></trkpt><trkpt lat="37.3312303240271" lon="14.918199411372962"><ele>47.0</ele><time>2026-04-06T11:08:58Z</time></trkpt><trkpt lat="37.33113446063474" lon="14.918212361211427"><ele>47.0</ele><time>2026-04-06T11:08:59Z</time></trkpt><trkpt lat="37.33104341919113" lon="14.918228453883023"><ele>47.33333333333333</ele><time>2026-04-06T11:09:00Z</time></trkpt><trkpt lat="37.33095372291067" lon="14.918244712014966"><ele>47.666666666666664</ele><time>2026-04-06T11:09:01Z</time></trkpt><trkpt lat="37.33086464801505" lon="14.918259353089544"><ele>48.0</ele><time>2026-04-06T11:09:02Z</time></trkpt><trkpt lat="37.33077599745398" lon="14.918269856806074"><ele>48.33333333333333</ele><time>2026-04-06T11:09:03Z</time></trkpt><trkpt lat="37.33068803376304" lon="14.918281604291256"><ele>48.666666666666664</ele><time>2026-04-06T11:09:04Z</time></trkpt><trkpt lat="37.33059929616375" lon="14.918294316413903"><ele>49.0</ele><time>2026-04-06T11:09:05Z</time></trkpt><trkpt lat="37.330512148339345" lon="14.918311353770584"><ele>49.166666666666664</ele><time>2026-04-06T11:09:06Z</time></trkpt><trkpt lat="37.33042273885088" lon="14.918331418962609"><ele>49.33333333333333</ele><time>2026-04-06T11:09:07Z</time></trkpt><trkpt lat="37.330335184437445" lon="14.918350286972915"><ele>49.5</ele><time>2026-04-06T11:09:08Z</time></trkpt><trkpt lat="37.33024610752161" lon="14.918371137859584"><ele>49.66666666666667</ele><time>2026-04-06T11:09:09Z</time></trkpt><trkpt lat="37.330163384740715" lon="14.918390347496656"><ele>49.833333333333336</ele><time>2026-04-06T11:09:10Z</time></trkpt><trkpt lat="37.33008797536728" lon="14.918407187256845"><ele>50.0</ele><time>2026-04-06T11:09:11Z</time></trkpt><trkpt lat="37.32997821658523" lon="14.918433452816496"><ele>50.0</ele><time>2026-04-06T11:09:13Z</time></trkpt><trkpt lat="37.32989960580261" lon="14.9184586017593"><ele>50.0</ele><time>2026-04-06T11:09:16Z</time></trkpt><trkpt lat="37.32978470864328" lon="14.918339261034765"><ele>50.0</ele><time>2026-04-06T11:09:19Z</time></trkpt><trkpt lat="37.32974633096587" lon="14.918244994687404"><ele>50.0</ele><time>2026-04-06T11:09:20Z</time></trkpt><trkpt lat="37.32970861462943" lon="14.918146969759727"><ele>50.0</ele><time>2026-04-06T11:09:21Z</time></trkpt><trkpt lat="37.32966483191345" lon="14.918027870736122"><ele>50.25</ele><time>2026-04-06T11:09:22Z</time></trkpt><trkpt lat="37.3296081583387" lon="14.917891969256086"><ele>50.5</ele><time>2026-04-06T11:09:23Z</time></trkpt><trkpt lat="37.329548683965456" lon="14.917754989943857"><ele>50.75</ele><time>2026-04-06T11:09:24Z</time></trkpt><trkpt lat="37.329479900816146" lon="14.917597501196033"><ele>51.0</ele><time>2026-04-06T11:09:25Z</time></trkpt><trkpt lat="37.32941719026215" lon="14.917435877511231"><ele>51.66666666666667</ele><time>2026-04-06T11:09:26Z</time></trkpt><trkpt lat="37.32935151851857" lon="14.91726191096273"><ele>52.333333333333336</ele><time>2026-04-06T11:09:27Z</time></trkpt><trkpt lat="37.32928244869574" lon="14.917082619809733"><ele>53.0</ele><time>2026-04-06T11:09:28Z</time></trkpt><trkpt lat="37.3292145538352" lon="14.916903143133815"><ele>53.333333333333336</ele><time>2026-04-06T11:09:29Z</time></trkpt><trkpt lat="37.32914420977215" lon="14.916720150406016"><ele>53.66666666666667</ele><time>2026-04-06T11:09:30Z</time></trkpt><trkpt lat="37.329071040890575" lon="14.916528250867904"><ele>54.0</ele><time>2026-04-06T11:09:31Z</time></trkpt><trkpt lat="37.32899469476556" lon="14.916332427982022"><ele>54.0</ele><time>2026-04-06T11:09:32Z</time></trkpt><trkpt lat="37.32891749140546" lon="14.916134580693038"><ele>54.0</ele><time>2026-04-06T11:09:33Z</time></trkpt><trkpt lat="37.32884075318021" lon="14.915934302358881"><ele>54.0</ele><time>2026-04-06T11:09:34Z</time></trkpt><trkpt lat="37.32876276493162" lon="14.915733291082633"><ele>55.0</ele><time>2026-04-06T11:09:35Z</time></trkpt><trkpt lat="37.32868712943256" lon="14.915531811255974"><ele>56.0</ele><time>2026-04-06T11:09:36Z</time></trkpt><trkpt lat="37.32860924553364" lon="14.915329331905731"><ele>57.0</ele><time>2026-04-06T11:09:37Z</time></trkpt><trkpt lat="37.328529182516185" lon="14.91512730110547"><ele>57.33333333333333</ele><time>2026-04-06T11:09:38Z</time></trkpt><trkpt lat="37.32844757095638" lon="14.914924155250768"><ele>57.666666666666664</ele><time>2026-04-06T11:09:39Z</time></trkpt><trkpt lat="37.32836664415502" lon="14.914718366378022"><ele>58.0</ele><time>2026-04-06T11:09:40Z</time></trkpt><trkpt lat="37.328285632299185" lon="14.914510748316472"><ele>58.0</ele><time>2026-04-06T11:09:41Z</time></trkpt><trkpt lat="37.32819741713504" lon="14.914306337940307"><ele>58.0</ele><time>2026-04-06T11:09:42Z</time></trkpt><trkpt lat="37.32811719986166" lon="14.914097372103317"><ele>58.0</ele><time>2026-04-06T11:09:43Z</time></trkpt><trkpt lat="37.328035016741595" lon="14.913888112348927"><ele>57.666666666666664</ele><time>2026-04-06T11:09:44Z</time></trkpt><trkpt lat="37.327955382253556" lon="14.913673845751319"><ele>57.33333333333333</ele><time>2026-04-06T11:09:45Z</time></trkpt><trkpt lat="37.327872597990094" lon="14.913458917611123"><ele>57.0</ele><time>2026-04-06T11:09:46Z</time></trkpt><trkpt lat="37.32778788354319" lon="14.91323879884637"><ele>57.0</ele><time>2026-04-06T11:09:47Z</time></trkpt><trkpt lat="37.32770185698353" lon="14.913014341165452"><ele>57.0</ele><time>2026-04-06T11:09:48Z</time></trkpt><trkpt lat="37.32761631112949" lon="14.912787259730028"><ele>57.0</ele><time>2026-04-06T11:09:49Z</time></trkpt><trkpt lat="37.32752769197686" lon="14.912559801686614"><ele>58.0</ele><time>2026-04-06T11:09:50Z</time></trkpt><trkpt lat="37.32743905027059" lon="14.912330277785053"><ele>59.0</ele><time>2026-04-06T11:09:51Z</time></trkpt><trkpt lat="37.327348583306" lon="14.91209893011517"><ele>60.0</ele><time>2026-04-06T11:09:52Z</time></trkpt><trkpt lat="37.32725978530183" lon="14.911864470411492"><ele>59.33333333333333</ele><time>2026-04-06T11:09:53Z</time></trkpt><trkpt lat="37.327170508804585" lon="14.911629847913588"><ele>58.666666666666664</ele><time>2026-04-06T11:09:54Z</time></trkpt><trkpt lat="37.32707603619815" lon="14.911395353325398"><ele>58.0</ele><time>2026-04-06T11:09:55Z</time></trkpt><trkpt lat="37.32698704085746" lon="14.911157672435673"><ele>58.0</ele><time>2026-04-06T11:09:56Z</time></trkpt><trkpt lat="37.32689569341236" lon="14.910921459464632"><ele>58.0</ele><time>2026-04-06T11:09:57Z</time></trkpt><trkpt lat="37.32680420025956" lon="14.91068461225747"><ele>58.0</ele><time>2026-04-06T11:09:58Z</time></trkpt><trkpt lat="37.32671517586899" lon="14.910452649912376"><ele>59.33333333333333</ele><time>2026-04-06T11:09:59Z</time></trkpt><trkpt lat="37.32662218087404" lon="14.910213680040863"><ele>60.66666666666667</ele><time>2026-04-06T11:10:00Z</time></trkpt><trkpt lat="37.326530381476886" lon="14.909975382348144"><ele>62.0</ele><time>2026-04-06T11:10:01Z</time></trkpt><trkpt lat="37.32643910089166" lon="14.909736111524996"><ele>62.333333333333336</ele><time>2026-04-06T11:10:02Z</time></trkpt><trkpt lat="37.3263504687543" lon="14.909498108078456"><ele>62.66666666666667</ele><time>2026-04-06T11:10:03Z</time></trkpt><trkpt lat="37.32626366715716" lon="14.909261841644181"><ele>63.0</ele><time>2026-04-06T11:10:04Z</time></trkpt><trkpt lat="37.32617699831615" lon="14.909028520775061"><ele>63.0</ele><time>2026-04-06T11:10:05Z</time></trkpt><trkpt lat="37.326087483840496" lon="14.908799929872778"><ele>63.0</ele><time>2026-04-06T11:10:06Z</time></trkpt><trkpt lat="37.32599919930658" lon="14.908570971039202"><ele>63.0</ele><time>2026-04-06T11:10:07Z</time></trkpt><trkpt lat="37.325908117805426" lon="14.908342216677193"><ele>63.0</ele><time>2026-04-06T11:10:08Z</time></trkpt><trkpt lat="37.32581733153615" lon="14.908109666874026"><ele>63.0</ele><time>2026-04-06T11:10:09Z</time></trkpt><trkpt lat="37.32572786775536" lon="14.907874736172307"><ele>63.0</ele><time>2026-04-06T11:10:10Z</time></trkpt><trkpt lat="37.325639149959564" lon="14.907639598828151"><ele>63.0</ele><time>2026-04-06T11:10:11Z</time></trkpt><trkpt lat="37.32555142232147" lon="14.907404472854063"><ele>63.0</ele><time>2026-04-06T11:10:12Z</time></trkpt><trkpt lat="37.32546174981839" lon="14.907167509494176"><ele>63.0</ele><time>2026-04-06T11:10:13Z</time></trkpt><trkpt lat="37.32537090732278" lon="14.906930255705756"><ele>62.66666666666667</ele><time>2026-04-06T11:10:14Z</time></trkpt><trkpt lat="37.325281801512475" lon="14.906689521603539"><ele>62.333333333333336</ele><time>2026-04-06T11:10:15Z</time></trkpt><trkpt lat="37.32519308028043" lon="14.906445592580942"><ele>62.0</ele><time>2026-04-06T11:10:16Z</time></trkpt><trkpt lat="37.32511369641937" lon="14.90619655739343"><ele>62.0</ele><time>2026-04-06T11:10:17Z</time></trkpt><trkpt lat="37.32503542736222" lon="14.905945097162991"><ele>62.0</ele><time>2026-04-06T11:10:18Z</time></trkpt><trkpt lat="37.324968845850535" lon="14.905689064939708"><ele>62.0</ele><time>2026-04-06T11:10:19Z</time></trkpt><trkpt lat="37.32490140417323" lon="14.905430136031853"><ele>62.66666666666667</ele><time>2026-04-06T11:10:20Z</time></trkpt><trkpt lat="37.32483793290406" lon="14.905167330798085"><ele>63.33333333333333</ele><time>2026-04-06T11:10:21Z</time></trkpt><trkpt lat="37.324773977258054" lon="14.904906013989544"><ele>64.0</ele><time>2026-04-06T11:10:22Z</time></trkpt><trkpt lat="37.32470728468445" lon="14.904645104074499"><ele>65.0</ele><time>2026-04-06T11:10:23Z</time></trkpt><trkpt lat="37.324639248962676" lon="14.90438696047135"><ele>66.0</ele><time>2026-04-06T11:10:24Z</time></trkpt><trkpt lat="37.32457436556731" lon="14.904128254908311"><ele>67.0</ele><time>2026-04-06T11:10:25Z</time></trkpt><trkpt lat="37.32450889533786" lon="14.903871045693656"><ele>67.33333333333333</ele><time>2026-04-06T11:10:26Z</time></trkpt><trkpt lat="37.324443639794566" lon="14.903613924307695"><ele>67.66666666666667</ele><time>2026-04-06T11:10:27Z</time></trkpt><trkpt lat="37.32438063609095" lon="14.903359910334892"><ele>68.0</ele><time>2026-04-06T11:10:28Z</time></trkpt><trkpt lat="37.32431911131714" lon="14.903108660701934"><ele>68.66666666666667</ele><time>2026-04-06T11:10:29Z</time></trkpt><trkpt lat="37.32425829742688" lon="14.902865373265895"><ele>69.33333333333333</ele><time>2026-04-06T11:10:30Z</time></trkpt><trkpt lat="37.324198995508894" lon="14.902629615620976"><ele>70.0</ele><time>2026-04-06T11:10:31Z</time></trkpt><trkpt lat="37.324141102887054" lon="14.902401984419006"><ele>70.0</ele><time>2026-04-06T11:10:32Z</time></trkpt><trkpt lat="37.32408274062581" lon="14.902180761354744"><ele>70.0</ele><time>2026-04-06T11:10:33Z</time></trkpt><trkpt lat="37.32402544439736" lon="14.901967812735966"><ele>70.0</ele><time>2026-04-06T11:10:34Z</time></trkpt><trkpt lat="37.32396505812222" lon="14.901757017447645"><ele>71.0</ele><time>2026-04-06T11:10:35Z</time></trkpt><trkpt lat="37.323892080039364" lon="14.901561076518686"><ele>72.0</ele><time>2026-04-06T11:10:36Z</time></trkpt><trkpt lat="37.32380132944728" lon="14.90137197874138"><ele>73.0</ele><time>2026-04-06T11:10:37Z</time></trkpt><trkpt lat="37.323705293612804" lon="14.901184833235362"><ele>73.0</ele><time>2026-04-06T11:10:38Z</time></trkpt><trkpt lat="37.323605859753414" lon="14.900996502595687"><ele>73.0</ele><time>2026-04-06T11:10:39Z</time></trkpt><trkpt lat="37.323503986708104" lon="14.900805158194173"><ele>73.0</ele><time>2026-04-06T11:10:40Z</time></trkpt><trkpt lat="37.32340097760926" lon="14.900611865459336"><ele>72.0</ele><time>2026-04-06T11:10:41Z</time></trkpt><trkpt lat="37.323301492502054" lon="14.900422643545811"><ele>71.0</ele><time>2026-04-06T11:10:42Z</time></trkpt><trkpt lat="37.32319692226904" lon="14.900225816626325"><ele>70.0</ele><time>2026-04-06T11:10:43Z</time></trkpt><trkpt lat="37.323092082145315" lon="14.90002359698116"><ele>70.66666666666666</ele><time>2026-04-06T11:10:44Z</time></trkpt><trkpt lat="37.32298323716848" lon="14.899817823529393"><ele>71.33333333333333</ele><time>2026-04-06T11:10:45Z</time></trkpt><trkpt lat="37.32287093683667" lon="14.899610109650045"><ele>72.0</ele><time>2026-04-06T11:10:46Z</time></trkpt><trkpt lat="37.32275702893196" lon="14.899399686649389"><ele>71.66666666666667</ele><time>2026-04-06T11:10:47Z</time></trkpt><trkpt lat="37.322642995415364" lon="14.899188587841971"><ele>71.33333333333334</ele><time>2026-04-06T11:10:48Z</time></trkpt><trkpt lat="37.32253033835723" lon="14.898976280668638"><ele>71.0</ele><time>2026-04-06T11:10:49Z</time></trkpt><trkpt lat="37.32242108613734" lon="14.89875757504391"><ele>71.0</ele><time>2026-04-06T11:10:50Z</time></trkpt><trkpt lat="37.322307959887944" lon="14.898539464898159"><ele>71.0</ele><time>2026-04-06T11:10:51Z</time></trkpt><trkpt lat="37.32219216311221" lon="14.898323293944898"><ele>71.0</ele><time>2026-04-06T11:10:52Z</time></trkpt><trkpt lat="37.322077456654256" lon="14.898104913679102"><ele>71.0</ele><time>2026-04-06T11:10:53Z</time></trkpt><trkpt lat="37.32196348856946" lon="14.897886345533824"><ele>71.0</ele><time>2026-04-06T11:10:54Z</time></trkpt><trkpt lat="37.32184960941255" lon="14.897666871656941"><ele>71.0</ele><time>2026-04-06T11:10:55Z</time></trkpt><trkpt lat="37.32173637117815" lon="14.897449434344846"><ele>70.66666666666667</ele><time>2026-04-06T11:10:56Z</time></trkpt><trkpt lat="37.321625364939045" lon="14.89723321143351"><ele>70.33333333333333</ele><time>2026-04-06T11:10:57Z</time></trkpt><trkpt lat="37.321516497830764" lon="14.897019163019355"><ele>70.0</ele><time>2026-04-06T11:10:58Z</time></trkpt><trkpt lat="37.32140596191805" lon="14.89680925414802"><ele>70.33333333333333</ele><time>2026-04-06T11:10:59Z</time></trkpt><trkpt lat="37.321293858352604" lon="14.896601192102542"><ele>70.66666666666667</ele><time>2026-04-06T11:11:00Z</time></trkpt><trkpt lat="37.32118199714729" lon="14.896397027348103"><ele>71.0</ele><time>2026-04-06T11:11:01Z</time></trkpt><trkpt lat="37.3210722781529" lon="14.896193117276677"><ele>71.0</ele><time>2026-04-06T11:11:02Z</time></trkpt><trkpt lat="37.32096596458981" lon="14.895986534830923"><ele>71.0</ele><time>2026-04-06T11:11:03Z</time></trkpt><trkpt lat="37.320859098921524" lon="14.895780594790153"><ele>71.0</ele><time>2026-04-06T11:11:04Z</time></trkpt><trkpt lat="37.32075085702314" lon="14.895574421854038"><ele>71.0</ele><time>2026-04-06T11:11:05Z</time></trkpt><trkpt lat="37.32064359879728" lon="14.895363935631398"><ele>71.0</ele><time>2026-04-06T11:11:06Z</time></trkpt><trkpt lat="37.32053466874199" lon="14.895151243572919"><ele>71.0</ele><time>2026-04-06T11:11:07Z</time></trkpt><trkpt lat="37.320419107216445" lon="14.89494238186722"><ele>70.33333333333334</ele><time>2026-04-06T11:11:08Z</time></trkpt><trkpt lat="37.32029885552033" lon="14.894736349956748"><ele>69.66666666666667</ele><time>2026-04-06T11:11:09Z</time></trkpt><trkpt lat="37.320174319248686" lon="14.89453239796473"><ele>69.0</ele><time>2026-04-06T11:11:10Z</time></trkpt><trkpt lat="37.3199118883359" lon="14.894148126156109"><ele>69.0</ele><time>2026-04-06T11:11:12Z</time></trkpt><trkpt lat="37.319780779329875" lon="14.893970594291163"><ele>69.0</ele><time>2026-04-06T11:11:13Z</time></trkpt><trkpt lat="37.319641454543124" lon="14.893790106946378"><ele>69.0</ele><time>2026-04-06T11:11:14Z</time></trkpt><trkpt lat="37.319505313641" lon="14.893610200430336"><ele>68.66666666666667</ele><time>2026-04-06T11:11:15Z</time></trkpt><trkpt lat="37.319369227624236" lon="14.89343357691585"><ele>68.33333333333334</ele><time>2026-04-06T11:11:16Z</time></trkpt><trkpt lat="37.31923149042743" lon="14.89325457133223"><ele>68.0</ele><time>2026-04-06T11:11:17Z</time></trkpt><trkpt lat="37.319096205582554" lon="14.89307646169174"><ele>68.0</ele><time>2026-04-06T11:11:18Z</time></trkpt><trkpt lat="37.31896416201705" lon="14.892899307047132"><ele>68.0</ele><time>2026-04-06T11:11:19Z</time></trkpt><trkpt lat="37.31883246490262" lon="14.892721194367136"><ele>68.0</ele><time>2026-04-06T11:11:20Z</time></trkpt><trkpt lat="37.318701497087055" lon="14.892545041881352"><ele>68.33333333333334</ele><time>2026-04-06T11:11:21Z</time></trkpt><trkpt lat="37.31857104814853" lon="14.89237095865362"><ele>68.66666666666667</ele><time>2026-04-06T11:11:22Z</time></trkpt><trkpt lat="37.31844190247738" lon="14.892197159099446"><ele>69.0</ele><time>2026-04-06T11:11:23Z</time></trkpt><trkpt lat="37.31831302983086" lon="14.89202579534797"><ele>69.0</ele><time>2026-04-06T11:11:24Z</time></trkpt><trkpt lat="37.31818822036236" lon="14.891854464038554"><ele>69.0</ele><time>2026-04-06T11:11:25Z</time></trkpt><trkpt lat="37.31806839974929" lon="14.891694101773012"><ele>69.0</ele><time>2026-04-06T11:11:26Z</time></trkpt><trkpt lat="37.317957644044945" lon="14.891549266416954"><ele>68.5</ele><time>2026-04-06T11:11:27Z</time></trkpt><trkpt lat="37.317864991961386" lon="14.891415396721081"><ele>68.0</ele><time>2026-04-06T11:11:28Z</time></trkpt><trkpt lat="37.31777818065059" lon="14.891280038191319"><ele>67.5</ele><time>2026-04-06T11:11:29Z</time></trkpt><trkpt lat="37.317693231494815" lon="14.891130673913214"><ele>67.0</ele><time>2026-04-06T11:11:30Z</time></trkpt><trkpt lat="37.317612245594674" lon="14.890961081219753"><ele>69.0</ele><time>2026-04-06T11:11:31Z</time></trkpt><trkpt lat="37.317541945911955" lon="14.890773136724402"><ele>71.0</ele><time>2026-04-06T11:11:32Z</time></trkpt><trkpt lat="37.3174801144285" lon="14.890577624164127"><ele>73.0</ele><time>2026-04-06T11:11:33Z</time></trkpt><trkpt lat="37.31742399888279" lon="14.890379087299992"><ele>73.0</ele><time>2026-04-06T11:11:34Z</time></trkpt><trkpt lat="37.31736772666281" lon="14.890175545959472"><ele>73.0</ele><time>2026-04-06T11:11:35Z</time></trkpt><trkpt lat="37.317311922185475" lon="14.889970361537218"><ele>73.0</ele><time>2026-04-06T11:11:36Z</time></trkpt><trkpt lat="37.317260827982096" lon="14.88976732016773"><ele>72.33333333333333</ele><time>2026-04-06T11:11:37Z</time></trkpt><trkpt lat="37.317209575523655" lon="14.889560879249304"><ele>71.66666666666667</ele><time>2026-04-06T11:11:38Z</time></trkpt><trkpt lat="37.31716365860737" lon="14.889352819249797"><ele>71.0</ele><time>2026-04-06T11:11:39Z</time></trkpt><trkpt lat="37.31712440895364" lon="14.889141584513338"><ele>71.0</ele><time>2026-04-06T11:11:40Z</time></trkpt><trkpt lat="37.31709064475877" lon="14.888922548973673"><ele>71.0</ele><time>2026-04-06T11:11:41Z</time></trkpt><trkpt lat="37.31705811953381" lon="14.888703362351615"><ele>71.0</ele><time>2026-04-06T11:11:42Z</time></trkpt><trkpt lat="37.317024463604405" lon="14.888493440747965"><ele>72.0</ele><time>2026-04-06T11:11:43Z</time></trkpt><trkpt lat="37.31699670453044" lon="14.888283070938488"><ele>73.0</ele><time>2026-04-06T11:11:44Z</time></trkpt><trkpt lat="37.31696674819826" lon="14.888080468907532"><ele>74.0</ele><time>2026-04-06T11:11:45Z</time></trkpt><trkpt lat="37.316942955257005" lon="14.887879381200353"><ele>74.0</ele><time>2026-04-06T11:11:46Z</time></trkpt><trkpt lat="37.316928349029986" lon="14.887678856052549"><ele>74.0</ele><time>2026-04-06T11:11:47Z</time></trkpt><trkpt lat="37.31692223717087" lon="14.88728046979963"><ele>75.0</ele><time>2026-04-06T11:11:49Z</time></trkpt><trkpt lat="37.31692758594621" lon="14.887095769414508"><ele>76.0</ele><time>2026-04-06T11:11:50Z</time></trkpt><trkpt lat="37.31693847018433" lon="14.886916977730822"><ele>77.0</ele><time>2026-04-06T11:11:51Z</time></trkpt><trkpt lat="37.31694738467687" lon="14.886741185830711"><ele>78.0</ele><time>2026-04-06T11:11:52Z</time></trkpt><trkpt lat="37.316953936684705" lon="14.886567514422465"><ele>78.0</ele><time>2026-04-06T11:11:53Z</time></trkpt><trkpt lat="37.316972818521606" lon="14.886215954966985"><ele>78.0</ele><time>2026-04-06T11:11:55Z</time></trkpt><trkpt lat="37.31698162881249" lon="14.886039279070905"><ele>78.0</ele><time>2026-04-06T11:11:56Z</time></trkpt><trkpt lat="37.316991697029835" lon="14.885862246328303"><ele>77.75</ele><time>2026-04-06T11:11:57Z</time></trkpt><trkpt lat="37.31700465387268" lon="14.885690460721056"><ele>77.5</ele><time>2026-04-06T11:11:58Z</time></trkpt><trkpt lat="37.317015479757885" lon="14.885525873185626"><ele>77.25</ele><time>2026-04-06T11:11:59Z</time></trkpt><trkpt lat="37.31702060761758" lon="14.885361328327695"><ele>77.0</ele><time>2026-04-06T11:12:00Z</time></trkpt><trkpt lat="37.31702701269" lon="14.885193332718174"><ele>77.5</ele><time>2026-04-06T11:12:01Z</time></trkpt><trkpt lat="37.31703422373164" lon="14.885026667465656"><ele>78.0</ele><time>2026-04-06T11:12:02Z</time></trkpt><trkpt lat="37.31703976068276" lon="14.884860279934895"><ele>78.5</ele><time>2026-04-06T11:12:03Z</time></trkpt><trkpt lat="37.317043728236314" lon="14.884694556499955"><ele>79.0</ele><time>2026-04-06T11:12:04Z</time></trkpt><trkpt lat="37.31704952622659" lon="14.884529788792443"><ele>79.0</ele><time>2026-04-06T11:12:05Z</time></trkpt><trkpt lat="37.317058814052736" lon="14.88436601890132"><ele>79.0</ele><time>2026-04-06T11:12:06Z</time></trkpt><trkpt lat="37.31706983354587" lon="14.884204750030436"><ele>79.0</ele><time>2026-04-06T11:12:07Z</time></trkpt><trkpt lat="37.31707950541858" lon="14.88405316393139"><ele>79.0</ele><time>2026-04-06T11:12:08Z</time></trkpt><trkpt lat="37.31708661067382" lon="14.883914763162041"><ele>79.0</ele><time>2026-04-06T11:12:09Z</time></trkpt><trkpt lat="37.31709364071134" lon="14.883796763495129"><ele>79.0</ele><time>2026-04-06T11:12:10Z</time></trkpt><trkpt lat="37.31710156337564" lon="14.883680723685528"><ele>79.0</ele><time>2026-04-06T11:12:11Z</time></trkpt><trkpt lat="37.31710604262912" lon="14.883553526626038"><ele>79.0</ele><time>2026-04-06T11:12:12Z</time></trkpt><trkpt lat="37.31711000455692" lon="14.88341959244397"><ele>79.0</ele><time>2026-04-06T11:12:13Z</time></trkpt><trkpt lat="37.31711449604818" lon="14.883278493986692"><ele>79.80000000000001</ele><time>2026-04-06T11:12:14Z</time></trkpt><trkpt lat="37.31711937568758" lon="14.883131795622383"><ele>80.60000000000001</ele><time>2026-04-06T11:12:15Z</time></trkpt><trkpt lat="37.317123910014075" lon="14.882996489563213"><ele>81.4</ele><time>2026-04-06T11:12:16Z</time></trkpt><trkpt lat="37.31713010345342" lon="14.8828679762287"><ele>82.2</ele><time>2026-04-06T11:12:17Z</time></trkpt><trkpt lat="37.31713814546828" lon="14.88275171310568"><ele>83.0</ele><time>2026-04-06T11:12:18Z</time></trkpt><trkpt lat="37.31714432509747" lon="14.882660048153289"><ele>83.0</ele><time>2026-04-06T11:12:19Z</time></trkpt><trkpt lat="37.31715460766414" lon="14.88252781252435"><ele>83.0</ele><time>2026-04-06T11:12:21Z</time></trkpt><trkpt lat="37.31717804695075" lon="14.882433910068995"><ele>83.0</ele><time>2026-04-06T11:12:24Z</time></trkpt><trkpt lat="37.317166846102516" lon="14.88235007947358"><ele>83.0</ele><time>2026-04-06T11:12:35Z</time></trkpt><trkpt lat="37.317114127796906" lon="14.882434036536269"><ele>83.0</ele><time>2026-04-06T11:12:39Z</time></trkpt><trkpt lat="37.31707894555545" lon="14.883434160847399"><ele>82.0</ele><time>2026-04-06T11:12:47Z</time></trkpt><trkpt lat="37.317075126124415" lon="14.883581536954345"><ele>81.0</ele><time>2026-04-06T11:12:48Z</time></trkpt><trkpt lat="37.31706729063774" lon="14.883725270652532"><ele>80.0</ele><time>2026-04-06T11:12:49Z</time></trkpt><trkpt lat="37.31705486565119" lon="14.883886249397031"><ele>79.0</ele><time>2026-04-06T11:12:50Z</time></trkpt><trkpt lat="37.317044466730536" lon="14.884062705184693"><ele>79.0</ele><time>2026-04-06T11:12:51Z</time></trkpt><trkpt lat="37.317035128654744" lon="14.884251086703237"><ele>79.0</ele><time>2026-04-06T11:12:52Z</time></trkpt><trkpt lat="37.31702696001661" lon="14.884447437450719"><ele>79.0</ele><time>2026-04-06T11:12:53Z</time></trkpt><trkpt lat="37.31701723406229" lon="14.884651524797054"><ele>79.0</ele><time>2026-04-06T11:12:54Z</time></trkpt><trkpt lat="37.31700678488894" lon="14.884860731063956"><ele>79.0</ele><time>2026-04-06T11:12:55Z</time></trkpt><trkpt lat="37.31699801099114" lon="14.885068989466504"><ele>79.0</ele><time>2026-04-06T11:12:56Z</time></trkpt><trkpt lat="37.316964248111994" lon="14.885266066315271"><ele>78.33333333333333</ele><time>2026-04-06T11:12:57Z</time></trkpt><trkpt lat="37.3169662342396" lon="14.885453836782997"><ele>77.66666666666667</ele><time>2026-04-06T11:12:58Z</time></trkpt><trkpt lat="37.31693999810498" lon="14.885634927350827"><ele>77.0</ele><time>2026-04-06T11:12:59Z</time></trkpt><trkpt lat="37.31693551368915" lon="14.88586203054486"><ele>77.25</ele><time>2026-04-06T11:13:00Z</time></trkpt><trkpt lat="37.31692688462939" lon="14.88605007318314"><ele>77.5</ele><time>2026-04-06T11:13:01Z</time></trkpt><trkpt lat="37.31691845939303" lon="14.886233674138492"><ele>77.75</ele><time>2026-04-06T11:13:02Z</time></trkpt><trkpt lat="37.31691012651161" lon="14.886415262510361"><ele>78.0</ele><time>2026-04-06T11:13:03Z</time></trkpt><trkpt lat="37.316901254286776" lon="14.886597628836022"><ele>78.0</ele><time>2026-04-06T11:13:04Z</time></trkpt><trkpt lat="37.31689234817019" lon="14.886775960234164"><ele>78.0</ele><time>2026-04-06T11:13:05Z</time></trkpt><trkpt lat="37.31688364152677" lon="14.886951651276323"><ele>78.0</ele><time>2026-04-06T11:13:06Z</time></trkpt><trkpt lat="37.31687501036422" lon="14.887129111749632"><ele>78.0</ele><time>2026-04-06T11:13:07Z</time></trkpt><trkpt lat="37.316867330221925" lon="14.887300905054074"><ele>78.0</ele><time>2026-04-06T11:13:08Z</time></trkpt><trkpt lat="37.31686373106969" lon="14.887481122011419"><ele>78.0</ele><time>2026-04-06T11:13:09Z</time></trkpt><trkpt lat="37.31686644401092" lon="14.887672101308876"><ele>78.0</ele><time>2026-04-06T11:13:10Z</time></trkpt><trkpt lat="37.316881816170486" lon="14.887879690793634"><ele>76.66666666666667</ele><time>2026-04-06T11:13:11Z</time></trkpt><trkpt lat="37.31692290583477" lon="14.888080466017353"><ele>75.33333333333334</ele><time>2026-04-06T11:13:12Z</time></trkpt><trkpt lat="37.31694115381281" lon="14.88828692777562"><ele>74.0</ele><time>2026-04-06T11:13:13Z</time></trkpt><trkpt lat="37.31698600182589" lon="14.88848554954755"><ele>73.0</ele><time>2026-04-06T11:13:14Z</time></trkpt><trkpt lat="37.317018510470355" lon="14.888678885947089"><ele>72.0</ele><time>2026-04-06T11:13:15Z</time></trkpt><trkpt lat="37.317034405660095" lon="14.888877549776394"><ele>71.0</ele><time>2026-04-06T11:13:16Z</time></trkpt><trkpt lat="37.31706551862856" lon="14.889072056385988"><ele>70.33333333333334</ele><time>2026-04-06T11:13:17Z</time></trkpt><trkpt lat="37.31709972256063" lon="14.889285886517538"><ele>69.66666666666667</ele><time>2026-04-06T11:13:18Z</time></trkpt><trkpt lat="37.31714034228845" lon="14.889501387354347"><ele>69.0</ele><time>2026-04-06T11:13:19Z</time></trkpt><trkpt lat="37.31720106747132" lon="14.889700331333497"><ele>70.33333333333333</ele><time>2026-04-06T11:13:20Z</time></trkpt><trkpt lat="37.3172454618365" lon="14.889904259471793"><ele>71.66666666666666</ele><time>2026-04-06T11:13:21Z</time></trkpt><trkpt lat="37.31729726859462" lon="14.890120250209135"><ele>73.0</ele><time>2026-04-06T11:13:22Z</time></trkpt><trkpt lat="37.31735720641882" lon="14.890333212060895"><ele>73.0</ele><time>2026-04-06T11:13:23Z</time></trkpt><trkpt lat="37.317413352281214" lon="14.890532700891029"><ele>73.0</ele><time>2026-04-06T11:13:24Z</time></trkpt><trkpt lat="37.317469212063266" lon="14.890721822435363"><ele>73.0</ele><time>2026-04-06T11:13:25Z</time></trkpt><trkpt lat="37.31752671248272" lon="14.890899606779351"><ele>71.5</ele><time>2026-04-06T11:13:26Z</time></trkpt><trkpt lat="37.31761015431733" lon="14.891056953995957"><ele>70.0</ele><time>2026-04-06T11:13:27Z</time></trkpt><trkpt lat="37.31768394367331" lon="14.891198136987855"><ele>68.5</ele><time>2026-04-06T11:13:28Z</time></trkpt><trkpt lat="37.3177654067003" lon="14.891321155665334"><ele>67.0</ele><time>2026-04-06T11:13:29Z</time></trkpt><trkpt lat="37.31782292888054" lon="14.891444334389528"><ele>67.0</ele><time>2026-04-06T11:13:30Z</time></trkpt><trkpt lat="37.317879966738886" lon="14.891525913055592"><ele>67.0</ele><time>2026-04-06T11:13:31Z</time></trkpt><trkpt lat="37.31793128990041" lon="14.891594143773222"><ele>67.0</ele><time>2026-04-06T11:13:32Z</time></trkpt><trkpt lat="37.317975932041875" lon="14.891668315159357"><ele>67.0</ele><time>2026-04-06T11:13:34Z</time></trkpt><trkpt lat="37.31790139103087" lon="14.89167486602928"><ele>67.0</ele><time>2026-04-06T11:13:37Z</time></trkpt><trkpt lat="37.3178665826831" lon="14.891605916803982"><ele>67.0</ele><time>2026-04-06T11:13:38Z</time></trkpt><trkpt lat="37.31779989356519" lon="14.891524146774286"><ele>67.0</ele><time>2026-04-06T11:13:39Z</time></trkpt><trkpt lat="37.31774611150891" lon="14.891403725184992"><ele>67.0</ele><time>2026-04-06T11:13:40Z</time></trkpt><trkpt lat="37.317681271512406" lon="14.891297351180635"><ele>67.0</ele><time>2026-04-06T11:13:41Z</time></trkpt><trkpt lat="37.317610320011006" lon="14.891193939189362"><ele>67.0</ele><time>2026-04-06T11:13:42Z</time></trkpt><trkpt lat="37.317536972461305" lon="14.89107528863999"><ele>67.0</ele><time>2026-04-06T11:13:43Z</time></trkpt><trkpt lat="37.31746444593406" lon="14.8909404056392"><ele>67.0</ele><time>2026-04-06T11:13:44Z</time></trkpt><trkpt lat="37.31738721622324" lon="14.89079692446207"><ele>67.0</ele><time>2026-04-06T11:13:45Z</time></trkpt><trkpt lat="37.3173061086284" lon="14.890655543039987"><ele>67.0</ele><time>2026-04-06T11:13:46Z</time></trkpt><trkpt lat="37.31721913733716" lon="14.890505261274859"><ele>67.0</ele><time>2026-04-06T11:13:47Z</time></trkpt><trkpt lat="37.31712414196688" lon="14.890345053235341"><ele>67.0</ele><time>2026-04-06T11:13:48Z</time></trkpt><trkpt lat="37.31702470888336" lon="14.890173674476383"><ele>67.0</ele><time>2026-04-06T11:13:49Z</time></trkpt><trkpt lat="37.31692427473076" lon="14.889997777493567"><ele>67.0</ele><time>2026-04-06T11:13:50Z</time></trkpt><trkpt lat="37.31682451806089" lon="14.889827713916011"><ele>67.66666666666666</ele><time>2026-04-06T11:13:51Z</time></trkpt><trkpt lat="37.31671948156059" lon="14.889651171436817"><ele>68.33333333333333</ele><time>2026-04-06T11:13:52Z</time></trkpt><trkpt lat="37.316609763336274" lon="14.88946406814706"><ele>69.0</ele><time>2026-04-06T11:13:53Z</time></trkpt><trkpt lat="37.31649387122665" lon="14.889272135133911"><ele>67.0</ele><time>2026-04-06T11:13:54Z</time></trkpt><trkpt lat="37.31637705975714" lon="14.88907428844841"><ele>65.0</ele><time>2026-04-06T11:13:55Z</time></trkpt><trkpt lat="37.316261133869915" lon="14.888870897063969"><ele>63.0</ele><time>2026-04-06T11:13:56Z</time></trkpt><trkpt lat="37.31614197651887" lon="14.888663577132005"><ele>63.0</ele><time>2026-04-06T11:13:57Z</time></trkpt><trkpt lat="37.31601969794347" lon="14.888452867881487"><ele>63.0</ele><time>2026-04-06T11:13:58Z</time></trkpt><trkpt lat="37.315896396514084" lon="14.888240521555835"><ele>63.0</ele><time>2026-04-06T11:13:59Z</time></trkpt><trkpt lat="37.31577078940575" lon="14.888025975615918"><ele>63.33333333333333</ele><time>2026-04-06T11:14:00Z</time></trkpt><trkpt lat="37.315648248080755" lon="14.887817300048182"><ele>63.666666666666664</ele><time>2026-04-06T11:14:01Z</time></trkpt><trkpt lat="37.3155214238753" lon="14.887603504984897"><ele>64.0</ele><time>2026-04-06T11:14:02Z</time></trkpt><trkpt lat="37.31538891226304" lon="14.887384436885013"><ele>64.5</ele><time>2026-04-06T11:14:03Z</time></trkpt><trkpt lat="37.31525315106063" lon="14.887160787108657"><ele>65.0</ele><time>2026-04-06T11:14:04Z</time></trkpt><trkpt lat="37.315118539687234" lon="14.886932044628363"><ele>65.5</ele><time>2026-04-06T11:14:05Z</time></trkpt><trkpt lat="37.31498512521684" lon="14.88670454461641"><ele>66.0</ele><time>2026-04-06T11:14:06Z</time></trkpt><trkpt lat="37.3148502304995" lon="14.886477118796014"><ele>65.0</ele><time>2026-04-06T11:14:07Z</time></trkpt><trkpt lat="37.314716055227045" lon="14.886248233468383"><ele>64.0</ele><time>2026-04-06T11:14:08Z</time></trkpt><trkpt lat="37.31458303084909" lon="14.886016428892601"><ele>65.0</ele><time>2026-04-06T11:14:09Z</time></trkpt><trkpt lat="37.3144492050372" lon="14.88578442781598"><ele>66.0</ele><time>2026-04-06T11:14:10Z</time></trkpt><trkpt lat="37.314312596028884" lon="14.885555096992556"><ele>66.0</ele><time>2026-04-06T11:14:11Z</time></trkpt><trkpt lat="37.31417483976561" lon="14.885326206879082"><ele>66.0</ele><time>2026-04-06T11:14:12Z</time></trkpt><trkpt lat="37.31403916843061" lon="14.885095706832221"><ele>65.0</ele><time>2026-04-06T11:14:13Z</time></trkpt><trkpt lat="37.31390163375643" lon="14.884865701864308"><ele>64.0</ele><time>2026-04-06T11:14:14Z</time></trkpt><trkpt lat="37.31376446628491" lon="14.884632599189917"><ele>64.0</ele><time>2026-04-06T11:14:15Z</time></trkpt><trkpt lat="37.31362889298555" lon="14.8844048135789"><ele>64.0</ele><time>2026-04-06T11:14:16Z</time></trkpt><trkpt lat="37.31349099498936" lon="14.884174797996875"><ele>65.0</ele><time>2026-04-06T11:14:17Z</time></trkpt><trkpt lat="37.31335399951228" lon="14.883944851843657"><ele>66.0</ele><time>2026-04-06T11:14:18Z</time></trkpt><trkpt lat="37.313217830469576" lon="14.883715691021493"><ele>66.0</ele><time>2026-04-06T11:14:19Z</time></trkpt><trkpt lat="37.313084142859054" lon="14.883486513244657"><ele>66.0</ele><time>2026-04-06T11:14:20Z</time></trkpt><trkpt lat="37.31294929092688" lon="14.883258839275538"><ele>66.66666666666667</ele><time>2026-04-06T11:14:21Z</time></trkpt><trkpt lat="37.31281702525747" lon="14.88302800916607"><ele>67.33333333333334</ele><time>2026-04-06T11:14:22Z</time></trkpt><trkpt lat="37.31268529310154" lon="14.882806016180687"><ele>68.0</ele><time>2026-04-06T11:14:23Z</time></trkpt><trkpt lat="37.31255357297508" lon="14.882583386242171"><ele>68.33333333333334</ele><time>2026-04-06T11:14:24Z</time></trkpt><trkpt lat="37.31242814365235" lon="14.882369978083693"><ele>68.66666666666667</ele><time>2026-04-06T11:14:25Z</time></trkpt><trkpt lat="37.31230459910463" lon="14.882160067950592"><ele>69.0</ele><time>2026-04-06T11:14:26Z</time></trkpt><trkpt lat="37.312180403412384" lon="14.881954600007427"><ele>69.33333333333333</ele><time>2026-04-06T11:14:27Z</time></trkpt><trkpt lat="37.31205800995043" lon="14.88174821136095"><ele>69.66666666666666</ele><time>2026-04-06T11:14:28Z</time></trkpt><trkpt lat="37.31194613482336" lon="14.881548651688913"><ele>70.0</ele><time>2026-04-06T11:14:29Z</time></trkpt><trkpt lat="37.31182923294587" lon="14.88134598055014"><ele>70.0</ele><time>2026-04-06T11:14:30Z</time></trkpt><trkpt lat="37.31171129881188" lon="14.881142900245244"><ele>70.0</ele><time>2026-04-06T11:14:31Z</time></trkpt><trkpt lat="37.31159150340988" lon="14.88093989324178"><ele>70.0</ele><time>2026-04-06T11:14:32Z</time></trkpt><trkpt lat="37.31146964820291" lon="14.880736491275893"><ele>69.33333333333333</ele><time>2026-04-06T11:14:33Z</time></trkpt><trkpt lat="37.31135086581962" lon="14.880536094911731"><ele>68.66666666666667</ele><time>2026-04-06T11:14:34Z</time></trkpt><trkpt lat="37.31123497312778" lon="14.880328026227877"><ele>68.0</ele><time>2026-04-06T11:14:35Z</time></trkpt><trkpt lat="37.31098734804077" lon="14.88022880069219"><ele>68.66666666666667</ele><time>2026-04-06T11:14:36Z</time></trkpt><trkpt lat="37.31088879769364" lon="14.880023661467323"><ele>69.33333333333333</ele><time>2026-04-06T11:14:37Z</time></trkpt><trkpt lat="37.310789173311186" lon="14.879807303589946"><ele>70.0</ele><time>2026-04-06T11:14:38Z</time></trkpt><trkpt lat="37.31069185784744" lon="14.87959046457331"><ele>70.0</ele><time>2026-04-06T11:14:39Z</time></trkpt><trkpt lat="37.31059395957318" lon="14.87937232693198"><ele>70.0</ele><time>2026-04-06T11:14:40Z</time></trkpt><trkpt lat="37.310493228921466" lon="14.879142445544481"><ele>70.0</ele><time>2026-04-06T11:14:41Z</time></trkpt><trkpt lat="37.31040108424016" lon="14.878912415273293"><ele>70.0</ele><time>2026-04-06T11:14:42Z</time></trkpt><trkpt lat="37.31030629015336" lon="14.878668627608379"><ele>70.0</ele><time>2026-04-06T11:14:43Z</time></trkpt><trkpt lat="37.310219635758536" lon="14.878421901047199"><ele>70.0</ele><time>2026-04-06T11:14:44Z</time></trkpt><trkpt lat="37.3101353085237" lon="14.878203288972456"><ele>70.0</ele><time>2026-04-06T11:14:45Z</time></trkpt><trkpt lat="37.31004031507297" lon="14.877955417357494"><ele>70.0</ele><time>2026-04-06T11:14:46Z</time></trkpt><trkpt lat="37.309954169495384" lon="14.877720961242973"><ele>70.0</ele><time>2026-04-06T11:14:47Z</time></trkpt><trkpt lat="37.3098638663528" lon="14.877450279948683"><ele>70.33333333333333</ele><time>2026-04-06T11:14:48Z</time></trkpt><trkpt lat="37.30979256989568" lon="14.877228408724358"><ele>70.66666666666667</ele><time>2026-04-06T11:14:49Z</time></trkpt><trkpt lat="37.30970670055164" lon="14.877003250507542"><ele>71.0</ele><time>2026-04-06T11:14:50Z</time></trkpt><trkpt lat="37.30960371412825" lon="14.876780370245779"><ele>71.0</ele><time>2026-04-06T11:14:51Z</time></trkpt><trkpt lat="37.30950157723751" lon="14.876546719302457"><ele>71.0</ele><time>2026-04-06T11:14:52Z</time></trkpt><trkpt lat="37.309399682425926" lon="14.87631362214597"><ele>71.0</ele><time>2026-04-06T11:14:53Z</time></trkpt><trkpt lat="37.30931060454994" lon="14.876072229994"><ele>72.0</ele><time>2026-04-06T11:14:54Z</time></trkpt><trkpt lat="37.30946157055288" lon="14.875670284088473"><ele>73.0</ele><time>2026-04-06T11:14:55Z</time></trkpt><trkpt lat="37.30937208169174" lon="14.875433540056278"><ele>73.0</ele><time>2026-04-06T11:14:56Z</time></trkpt><trkpt lat="37.30928698033406" lon="14.875195191182495"><ele>73.0</ele><time>2026-04-06T11:14:57Z</time></trkpt><trkpt lat="37.30920553130272" lon="14.874952395247124"><ele>73.0</ele><time>2026-04-06T11:14:58Z</time></trkpt><trkpt lat="37.3091191967473" lon="14.874713850488853"><ele>73.33333333333333</ele><time>2026-04-06T11:14:59Z</time></trkpt><trkpt lat="37.309028026409095" lon="14.874477662183438"><ele>73.66666666666667</ele><time>2026-04-06T11:15:00Z</time></trkpt><trkpt lat="37.308929932872175" lon="14.874241224407745"><ele>74.0</ele><time>2026-04-06T11:15:01Z</time></trkpt><trkpt lat="37.30882475834849" lon="14.874010745923083"><ele>74.0</ele><time>2026-04-06T11:15:02Z</time></trkpt><trkpt lat="37.30871434478165" lon="14.873785146284598"><ele>74.0</ele><time>2026-04-06T11:15:03Z</time></trkpt><trkpt lat="37.308594080264044" lon="14.873566457738711"><ele>74.0</ele><time>2026-04-06T11:15:04Z</time></trkpt><trkpt lat="37.30846698426573" lon="14.873352795527827"><ele>74.66666666666667</ele><time>2026-04-06T11:15:05Z</time></trkpt><trkpt lat="37.30833905253205" lon="14.873142320842904"><ele>75.33333333333333</ele><time>2026-04-06T11:15:06Z</time></trkpt><trkpt lat="37.30820606691748" lon="14.872930521218807"><ele>76.0</ele><time>2026-04-06T11:15:07Z</time></trkpt><trkpt lat="37.30807288066717" lon="14.872717264651179"><ele>77.0</ele><time>2026-04-06T11:15:08Z</time></trkpt><trkpt lat="37.30794243489189" lon="14.8725035478457"><ele>78.0</ele><time>2026-04-06T11:15:09Z</time></trkpt><trkpt lat="37.30780943221469" lon="14.872287361084602"><ele>79.0</ele><time>2026-04-06T11:15:10Z</time></trkpt><trkpt lat="37.30767744715573" lon="14.872073965706154"><ele>79.0</ele><time>2026-04-06T11:15:11Z</time></trkpt><trkpt lat="37.30754466212503" lon="14.871859288196893"><ele>79.0</ele><time>2026-04-06T11:15:12Z</time></trkpt><trkpt lat="37.30741151131394" lon="14.871648516830358"><ele>79.0</ele><time>2026-04-06T11:15:13Z</time></trkpt><trkpt lat="37.307277595623916" lon="14.871438415702883"><ele>79.33333333333333</ele><time>2026-04-06T11:15:14Z</time></trkpt><trkpt lat="37.30714509693468" lon="14.871229406394793"><ele>79.66666666666667</ele><time>2026-04-06T11:15:15Z</time></trkpt><trkpt lat="37.30701679046329" lon="14.871026035654424"><ele>80.0</ele><time>2026-04-06T11:15:16Z</time></trkpt><trkpt lat="37.30689818318638" lon="14.870832154854117"><ele>80.0</ele><time>2026-04-06T11:15:17Z</time></trkpt><trkpt lat="37.30678875969889" lon="14.870636304305771"><ele>80.0</ele><time>2026-04-06T11:15:18Z</time></trkpt><trkpt lat="37.306684337539934" lon="14.87042638153886"><ele>80.0</ele><time>2026-04-06T11:15:19Z</time></trkpt><trkpt lat="37.30658340555166" lon="14.8702243423537"><ele>80.66666666666667</ele><time>2026-04-06T11:15:20Z</time></trkpt><trkpt lat="37.3064924093377" lon="14.870027694215468"><ele>81.33333333333333</ele><time>2026-04-06T11:15:21Z</time></trkpt><trkpt lat="37.30640831830015" lon="14.86984526363089"><ele>82.0</ele><time>2026-04-06T11:15:22Z</time></trkpt><trkpt lat="37.306328507911715" lon="14.8696735199564"><ele>81.33333333333333</ele><time>2026-04-06T11:15:23Z</time></trkpt><trkpt lat="37.306248624700515" lon="14.869504220270706"><ele>80.66666666666667</ele><time>2026-04-06T11:15:24Z</time></trkpt><trkpt lat="37.30616750598516" lon="14.869341602952598"><ele>80.0</ele><time>2026-04-06T11:15:25Z</time></trkpt><trkpt lat="37.30608384326669" lon="14.869170415828723"><ele>80.0</ele><time>2026-04-06T11:15:26Z</time></trkpt><trkpt lat="37.30599660772039" lon="14.868995815689859"><ele>80.0</ele><time>2026-04-06T11:15:27Z</time></trkpt><trkpt lat="37.30590510335621" lon="14.868815854610517"><ele>80.0</ele><time>2026-04-06T11:15:28Z</time></trkpt><trkpt lat="37.30580933280892" lon="14.868629111179917"><ele>80.33333333333334</ele><time>2026-04-06T11:15:29Z</time></trkpt><trkpt lat="37.30571343478368" lon="14.86843169141498"><ele>80.66666666666667</ele><time>2026-04-06T11:15:30Z</time></trkpt><trkpt lat="37.305618607063934" lon="14.868234340949886"><ele>81.0</ele><time>2026-04-06T11:15:31Z</time></trkpt><trkpt lat="37.305532826607525" lon="14.868046235598477"><ele>81.0</ele><time>2026-04-06T11:15:32Z</time></trkpt><trkpt lat="37.30544260162223" lon="14.867857276482107"><ele>81.0</ele><time>2026-04-06T11:15:33Z</time></trkpt><trkpt lat="37.30534959556757" lon="14.86766619511465"><ele>81.0</ele><time>2026-04-06T11:15:34Z</time></trkpt><trkpt lat="37.30525601623252" lon="14.867472087110201"><ele>81.33333333333333</ele><time>2026-04-06T11:15:35Z</time></trkpt><trkpt lat="37.30516330376638" lon="14.867280490365156"><ele>81.66666666666666</ele><time>2026-04-06T11:15:36Z</time></trkpt><trkpt lat="37.3050692990025" lon="14.867085519423055"><ele>82.0</ele><time>2026-04-06T11:15:37Z</time></trkpt><trkpt lat="37.304976886435135" lon="14.866884975219964"><ele>82.33333333333333</ele><time>2026-04-06T11:15:38Z</time></trkpt><trkpt lat="37.30488684508913" lon="14.866678886371963"><ele>82.66666666666667</ele><time>2026-04-06T11:15:39Z</time></trkpt><trkpt lat="37.30479995793565" lon="14.866468624945705"><ele>83.0</ele><time>2026-04-06T11:15:40Z</time></trkpt><trkpt lat="37.30471646426838" lon="14.866253312716239"><ele>83.66666666666667</ele><time>2026-04-06T11:15:41Z</time></trkpt><trkpt lat="37.304631841269476" lon="14.866036955098371"><ele>84.33333333333333</ele><time>2026-04-06T11:15:42Z</time></trkpt><trkpt lat="37.304546746815795" lon="14.865816513717743"><ele>85.0</ele><time>2026-04-06T11:15:43Z</time></trkpt><trkpt lat="37.30446260621796" lon="14.865591154066097"><ele>85.0</ele><time>2026-04-06T11:15:44Z</time></trkpt><trkpt lat="37.304377524717765" lon="14.86536303371463"><ele>85.0</ele><time>2026-04-06T11:15:45Z</time></trkpt><trkpt lat="37.3042888862615" lon="14.865134349797868"><ele>85.0</ele><time>2026-04-06T11:15:46Z</time></trkpt><trkpt lat="37.304199512652076" lon="14.864902894083992"><ele>85.0</ele><time>2026-04-06T11:15:47Z</time></trkpt><trkpt lat="37.30411089030531" lon="14.86467250698928"><ele>85.0</ele><time>2026-04-06T11:15:48Z</time></trkpt><trkpt lat="37.304020805919826" lon="14.864440047799482"><ele>85.0</ele><time>2026-04-06T11:15:49Z</time></trkpt><trkpt lat="37.30393052073828" lon="14.864208590517112"><ele>85.66666666666666</ele><time>2026-04-06T11:15:50Z</time></trkpt><trkpt lat="37.3038396833292" lon="14.863977526685392"><ele>86.33333333333333</ele><time>2026-04-06T11:15:51Z</time></trkpt><trkpt lat="37.30375124748381" lon="14.863743812603362"><ele>87.0</ele><time>2026-04-06T11:15:52.001Z</time></trkpt><trkpt lat="37.30366091405221" lon="14.863506824467608"><ele>86.66666666666667</ele><time>2026-04-06T11:15:53.001Z</time></trkpt><trkpt lat="37.30356779859342" lon="14.863268256055338"><ele>86.33333333333334</ele><time>2026-04-06T11:15:54.001Z</time></trkpt><trkpt lat="37.303468839013995" lon="14.863030284296633"><ele>86.0</ele><time>2026-04-06T11:15:55.001Z</time></trkpt><trkpt lat="37.303366409340356" lon="14.862792026925934"><ele>86.66666666666667</ele><time>2026-04-06T11:15:56.001Z</time></trkpt><trkpt lat="37.303260105700815" lon="14.862558347265521"><ele>87.33333333333333</ele><time>2026-04-06T11:15:57.001Z</time></trkpt><trkpt lat="37.303145601329895" lon="14.862323987681501"><ele>88.0</ele><time>2026-04-06T11:15:58.001Z</time></trkpt><trkpt lat="37.303016882317245" lon="14.86209998393869"><ele>88.33333333333333</ele><time>2026-04-06T11:15:59.001Z</time></trkpt><trkpt lat="37.30287697346711" lon="14.861884522716906"><ele>88.66666666666667</ele><time>2026-04-06T11:16:00.001Z</time></trkpt><trkpt lat="37.30272828666829" lon="14.861676893843743"><ele>89.0</ele><time>2026-04-06T11:16:01.001Z</time></trkpt><trkpt lat="37.30257219625709" lon="14.86147745669701"><ele>89.33333333333334</ele><time>2026-04-06T11:16:02.001Z</time></trkpt><trkpt lat="37.30241307263438" lon="14.861281759428913"><ele>89.66666666666667</ele><time>2026-04-06T11:16:03.001Z</time></trkpt><trkpt lat="37.30225105256798" lon="14.861089731410406"><ele>90.0</ele><time>2026-04-06T11:16:04.001Z</time></trkpt><trkpt lat="37.30208581280145" lon="14.860898777795379"><ele>91.0</ele><time>2026-04-06T11:16:05.001Z</time></trkpt><trkpt lat="37.30192441490386" lon="14.860706459776605"><ele>92.0</ele><time>2026-04-06T11:16:06.001Z</time></trkpt><trkpt lat="37.301762083407304" lon="14.8605137453362"><ele>93.0</ele><time>2026-04-06T11:16:07.001Z</time></trkpt><trkpt lat="37.30159950046686" lon="14.860320160852424"><ele>93.0</ele><time>2026-04-06T11:16:08.001Z</time></trkpt><trkpt lat="37.301436279773924" lon="14.860126861080529"><ele>93.0</ele><time>2026-04-06T11:16:09.001Z</time></trkpt><trkpt lat="37.30127401821971" lon="14.85993148968482"><ele>93.0</ele><time>2026-04-06T11:16:10.001Z</time></trkpt><trkpt lat="37.30111086254948" lon="14.859735642597439"><ele>94.0</ele><time>2026-04-06T11:16:11.001Z</time></trkpt><trkpt lat="37.30094715719404" lon="14.859540534115807"><ele>95.0</ele><time>2026-04-06T11:16:12.001Z</time></trkpt><trkpt lat="37.30078290563354" lon="14.859346485983785"><ele>95.5</ele><time>2026-04-06T11:16:13.001Z</time></trkpt><trkpt lat="37.30062020204902" lon="14.859152809939605"><ele>96.0</ele><time>2026-04-06T11:16:14.001Z</time></trkpt><trkpt lat="37.30045713846053" lon="14.85895594755088"><ele>96.5</ele><time>2026-04-06T11:16:15.001Z</time></trkpt><trkpt lat="37.30029117260174" lon="14.858762442556536"><ele>97.0</ele><time>2026-04-06T11:16:16.001Z</time></trkpt><trkpt lat="37.300126785261625" lon="14.858572241962278"><ele>98.0</ele><time>2026-04-06T11:16:17.001Z</time></trkpt><trkpt lat="37.29996346034229" lon="14.858379170609757"><ele>99.0</ele><time>2026-04-06T11:16:18.001Z</time></trkpt><trkpt lat="37.29980018513003" lon="14.858183452886244"><ele>99.0</ele><time>2026-04-06T11:16:19.001Z</time></trkpt><trkpt lat="37.29963816127108" lon="14.857986066955398"><ele>99.0</ele><time>2026-04-06T11:16:20.001Z</time></trkpt><trkpt lat="37.29947649833564" lon="14.857788821622744"><ele>99.66666666666666</ele><time>2026-04-06T11:16:21.001Z</time></trkpt><trkpt lat="37.29931467493691" lon="14.857596345957496"><ele>100.33333333333333</ele><time>2026-04-06T11:16:22Z</time></trkpt><trkpt lat="37.299153713634624" lon="14.857407966919938"><ele>101.0</ele><time>2026-04-06T11:16:23Z</time></trkpt><trkpt lat="37.298993520246164" lon="14.857222370794483"><ele>101.33333333333333</ele><time>2026-04-06T11:16:24Z</time></trkpt><trkpt lat="37.29883548619335" lon="14.857036188083095"><ele>101.66666666666666</ele><time>2026-04-06T11:16:25Z</time></trkpt><trkpt lat="37.298677925371706" lon="14.856846738411459"><ele>102.0</ele><time>2026-04-06T11:16:26Z</time></trkpt><trkpt lat="37.29852090445526" lon="14.856656106573684"><ele>102.0</ele><time>2026-04-06T11:16:27Z</time></trkpt><trkpt lat="37.29837091849533" lon="14.856480799546764"><ele>102.0</ele><time>2026-04-06T11:16:28Z</time></trkpt><trkpt lat="37.298232898015684" lon="14.85631731397812"><ele>102.0</ele><time>2026-04-06T11:16:29Z</time></trkpt><trkpt lat="37.29810604219224" lon="14.856166799333533"><ele>102.0</ele><time>2026-04-06T11:16:30Z</time></trkpt><trkpt lat="37.297993339123025" lon="14.85603155324564"><ele>102.0</ele><time>2026-04-06T11:16:31Z</time></trkpt><trkpt lat="37.297901785250886" lon="14.855910796031988"><ele>102.0</ele><time>2026-04-06T11:16:32Z</time></trkpt><trkpt lat="37.29783251195966" lon="14.855800566274127"><ele>102.0</ele><time>2026-04-06T11:16:33Z</time></trkpt><trkpt lat="37.297792186015606" lon="14.85570576838419"><ele>102.8</ele><time>2026-04-06T11:16:34Z</time></trkpt><trkpt lat="37.29777556677829" lon="14.855576460261464"><ele>103.6</ele><time>2026-04-06T11:16:36Z</time></trkpt><trkpt lat="37.297766604587274" lon="14.855471419522834"><ele>104.39999999999999</ele><time>2026-04-06T11:16:38Z</time></trkpt><trkpt lat="37.297709093966354" lon="14.855381265017858"><ele>105.19999999999999</ele><time>2026-04-06T11:16:40Z</time></trkpt><trkpt lat="37.29758081926681" lon="14.855289056953657"><ele>106.0</ele><time>2026-04-06T11:16:42Z</time></trkpt><trkpt lat="37.297530702376115" lon="14.85519414321572"><ele>106.6</ele><time>2026-04-06T11:16:43Z</time></trkpt><trkpt lat="37.29748462166502" lon="14.855080673649004"><ele>107.19999999999999</ele><time>2026-04-06T11:16:44Z</time></trkpt><trkpt lat="37.29744594908535" lon="14.85497563314062"><ele>107.80000000000001</ele><time>2026-04-06T11:16:45Z</time></trkpt><trkpt lat="37.29740208574386" lon="14.854857276799068"><ele>108.4</ele><time>2026-04-06T11:16:46Z</time></trkpt><trkpt lat="37.297358837505215" lon="14.854728772633331"><ele>109.0</ele><time>2026-04-06T11:16:47Z</time></trkpt><trkpt lat="37.29731212629924" lon="14.854591409714734"><ele>109.0</ele><time>2026-04-06T11:16:48Z</time></trkpt><trkpt lat="37.297258100408406" lon="14.854443142328238"><ele>109.0</ele><time>2026-04-06T11:16:49Z</time></trkpt><trkpt lat="37.297202047406216" lon="14.854282575905033"><ele>109.0</ele><time>2026-04-06T11:16:50Z</time></trkpt><trkpt lat="37.29714891939027" lon="14.8541287534636"><ele>109.0</ele><time>2026-04-06T11:16:51Z</time></trkpt><trkpt lat="37.297093751759746" lon="14.853979038024582"><ele>109.0</ele><time>2026-04-06T11:16:52Z</time></trkpt><trkpt lat="37.29703287886039" lon="14.853819444556757"><ele>109.0</ele><time>2026-04-06T11:16:53Z</time></trkpt><trkpt lat="37.29696536165122" lon="14.853658972475843"><ele>109.0</ele><time>2026-04-06T11:16:54Z</time></trkpt><trkpt lat="37.29689351867586" lon="14.853495291222437"><ele>109.0</ele><time>2026-04-06T11:16:55Z</time></trkpt><trkpt lat="37.29681461430721" lon="14.853330523924457"><ele>109.0</ele><time>2026-04-06T11:16:56Z</time></trkpt><trkpt lat="37.29673742530775" lon="14.853160678264667"><ele>109.0</ele><time>2026-04-06T11:16:57Z</time></trkpt><trkpt lat="37.296661463325854" lon="14.852991160415659"><ele>109.0</ele><time>2026-04-06T11:16:58Z</time></trkpt><trkpt lat="37.29658672340534" lon="14.85282198722192"><ele>109.0</ele><time>2026-04-06T11:16:59Z</time></trkpt><trkpt lat="37.29651496166139" lon="14.852658823269204"><ele>109.0</ele><time>2026-04-06T11:17:00Z</time></trkpt><trkpt lat="37.29644650816496" lon="14.852504740026456"><ele>109.0</ele><time>2026-04-06T11:17:01Z</time></trkpt><trkpt lat="37.29638166077447" lon="14.852360546976211"><ele>109.0</ele><time>2026-04-06T11:17:02Z</time></trkpt><trkpt lat="37.296318954174104" lon="14.852223445928303"><ele>109.25</ele><time>2026-04-06T11:17:03Z</time></trkpt><trkpt lat="37.29625494069547" lon="14.852088850766345"><ele>109.5</ele><time>2026-04-06T11:17:04Z</time></trkpt><trkpt lat="37.29618701474424" lon="14.851951654327456"><ele>109.75</ele><time>2026-04-06T11:17:05Z</time></trkpt><trkpt lat="37.2961194474522" lon="14.851810219939217"><ele>110.0</ele><time>2026-04-06T11:17:06Z</time></trkpt><trkpt lat="37.29605236339015" lon="14.851660035860764"><ele>110.5</ele><time>2026-04-06T11:17:07Z</time></trkpt><trkpt lat="37.29598614819968" lon="14.851513007160554"><ele>111.0</ele><time>2026-04-06T11:17:08Z</time></trkpt><trkpt lat="37.2959253281725" lon="14.85138063786854"><ele>111.5</ele><time>2026-04-06T11:17:09Z</time></trkpt><trkpt lat="37.29586596406215" lon="14.851260771298358"><ele>112.0</ele><time>2026-04-06T11:17:10Z</time></trkpt><trkpt lat="37.29581398420026" lon="14.851153375999496"><ele>112.0</ele><time>2026-04-06T11:17:11Z</time></trkpt><trkpt lat="37.29576032911268" lon="14.851034945451783"><ele>112.0</ele><time>2026-04-06T11:17:12Z</time></trkpt><trkpt lat="37.29569888163637" lon="14.850906218072913"><ele>112.0</ele><time>2026-04-06T11:17:13Z</time></trkpt><trkpt lat="37.295633453777896" lon="14.85076916851342"><ele>112.0</ele><time>2026-04-06T11:17:14Z</time></trkpt><trkpt lat="37.295562540067635" lon="14.85062522650147"><ele>112.75</ele><time>2026-04-06T11:17:15Z</time></trkpt><trkpt lat="37.29549139256192" lon="14.85047606562713"><ele>113.5</ele><time>2026-04-06T11:17:16Z</time></trkpt><trkpt lat="37.29542188861767" lon="14.850322088327763"><ele>114.25</ele><time>2026-04-06T11:17:17Z</time></trkpt><trkpt lat="37.29535309134644" lon="14.850171351841821"><ele>115.0</ele><time>2026-04-06T11:17:18Z</time></trkpt><trkpt lat="37.295284116822636" lon="14.850024085978278"><ele>116.5</ele><time>2026-04-06T11:17:19Z</time></trkpt><trkpt lat="37.29521734320124" lon="14.849873857922217"><ele>118.0</ele><time>2026-04-06T11:17:20Z</time></trkpt><trkpt lat="37.2951531781079" lon="14.849724695499816"><ele>119.5</ele><time>2026-04-06T11:17:21Z</time></trkpt><trkpt lat="37.29509770383396" lon="14.849582858706823"><ele>121.0</ele><time>2026-04-06T11:17:22Z</time></trkpt><trkpt lat="37.29505108109382" lon="14.849454735480757"><ele>121.00000000000001</ele><time>2026-04-06T11:17:23Z</time></trkpt><trkpt lat="37.29501273991463" lon="14.849342362111715"><ele>121.0</ele><time>2026-04-06T11:17:24Z</time></trkpt><trkpt lat="37.29497827508231" lon="14.849239630698579"><ele>121.0</ele><time>2026-04-06T11:17:25Z</time></trkpt><trkpt lat="37.29494639666504" lon="14.849148037597892"><ele>121.0</ele><time>2026-04-06T11:17:26Z</time></trkpt><trkpt lat="37.29491272824551" lon="14.84906049346138"><ele>121.00000000000001</ele><time>2026-04-06T11:17:27Z</time></trkpt><trkpt lat="37.29488332414438" lon="14.848979899059062"><ele>121.0</ele><time>2026-04-06T11:17:28Z</time></trkpt><trkpt lat="37.294861223836584" lon="14.848902080109605"><ele>120.83333333333334</ele><time>2026-04-06T11:17:29Z</time></trkpt><trkpt lat="37.29484245462017" lon="14.848820463180648"><ele>120.66666666666667</ele><time>2026-04-06T11:17:30Z</time></trkpt><trkpt lat="37.29482508815346" lon="14.848739296650805"><ele>120.5</ele><time>2026-04-06T11:17:31Z</time></trkpt><trkpt lat="37.29478317859672" lon="14.848600603918364"><ele>120.33333333333334</ele><time>2026-04-06T11:17:33Z</time></trkpt><trkpt lat="37.294689677190036" lon="14.848575273702599"><ele>120.16666666666667</ele><time>2026-04-06T11:17:35Z</time></trkpt><trkpt lat="37.294618132555996" lon="14.848642406688075"><ele>120.0</ele><time>2026-04-06T11:17:37Z</time></trkpt><trkpt lat="37.29459126806286" lon="14.848788657191232"><ele>120.0</ele><time>2026-04-06T11:17:39Z</time></trkpt><trkpt lat="37.29453520337987" lon="14.84892273609722"><ele>120.0</ele><time>2026-04-06T11:17:41Z</time></trkpt><trkpt lat="37.29448101459735" lon="14.848963254922992"><ele>120.0</ele><time>2026-04-06T11:17:42Z</time></trkpt><trkpt lat="37.29442208643423" lon="14.84900199725027"><ele>120.0</ele><time>2026-04-06T11:17:43Z</time></trkpt><trkpt lat="37.29433589163026" lon="14.849029808090126"><ele>120.0</ele><time>2026-04-06T11:17:44Z</time></trkpt><trkpt lat="37.29423604990342" lon="14.849050802462504"><ele>120.0</ele><time>2026-04-06T11:17:45Z</time></trkpt><trkpt lat="37.29414461671925" lon="14.849074885023317"><ele>120.0</ele><time>2026-04-06T11:17:46Z</time></trkpt><trkpt lat="37.294064670051654" lon="14.849102839029447"><ele>120.0</ele><time>2026-04-06T11:17:47Z</time></trkpt><trkpt lat="37.293989799561935" lon="14.849119640993175"><ele>120.0</ele><time>2026-04-06T11:17:48Z</time></trkpt><trkpt lat="37.293918416840306" lon="14.849130122753149"><ele>120.0</ele><time>2026-04-06T11:17:49Z</time></trkpt><trkpt lat="37.29384844901052" lon="14.849144199323286"><ele>120.0</ele><time>2026-04-06T11:17:50Z</time></trkpt><trkpt lat="37.29378503157804" lon="14.849167670121046"><ele>120.0</ele><time>2026-04-06T11:17:51Z</time></trkpt><trkpt lat="37.29366309762464" lon="14.849187314807752"><ele>119.66666666666667</ele><time>2026-04-06T11:17:53Z</time></trkpt><trkpt lat="37.29355355725695" lon="14.849204081616767"><ele>119.33333333333334</ele><time>2026-04-06T11:17:55Z</time></trkpt><trkpt lat="37.29346214180868" lon="14.849229907535054"><ele>119.0</ele><time>2026-04-06T11:17:57Z</time></trkpt><trkpt lat="37.29338904815874" lon="14.849247699435027"><ele>118.66666666666667</ele><time>2026-04-06T11:17:59.001Z</time></trkpt><trkpt lat="37.293319566811" lon="14.849265204975357"><ele>118.33333333333334</ele><time>2026-04-06T11:18:01.001Z</time></trkpt><trkpt lat="37.293247691295306" lon="14.849268684592454"><ele>118.0</ele><time>2026-04-06T11:18:03.001Z</time></trkpt><trkpt lat="37.293180226411735" lon="14.849264354896388"><ele>118.00000000000001</ele><time>2026-04-06T11:18:05.001Z</time></trkpt><trkpt lat="37.293100870593875" lon="14.84926809429376"><ele>118.0</ele><time>2026-04-06T11:18:08.001Z</time></trkpt><trkpt lat="37.29303627769752" lon="14.849283901759502"><ele>118.0</ele><time>2026-04-06T11:18:11.001Z</time></trkpt><trkpt lat="37.292971265310804" lon="14.849304365739052"><ele>118.0</ele><time>2026-04-06T11:18:14.001Z</time></trkpt><trkpt lat="37.292888216750164" lon="14.849317807880013"><ele>118.00000000000001</ele><time>2026-04-06T11:18:17.001Z</time></trkpt><trkpt lat="37.292801478885" lon="14.849319645330127"><ele>118.0</ele><time>2026-04-06T11:20:43Z</time></trkpt><trkpt lat="37.29272972445248" lon="14.849311703053852"><ele>117.66666666666667</ele><time>2026-04-06T11:20:46Z</time></trkpt><trkpt lat="37.29266410344526" lon="14.849321142168753"><ele>117.33333333333334</ele><time>2026-04-06T11:20:50Z</time></trkpt><trkpt lat="37.29272259561724" lon="14.849145502405797"><ele>117.0</ele><time>2026-04-06T11:20:51Z</time></trkpt><trkpt lat="37.29277059876352" lon="14.849236918828103"><ele>116.66666666666666</ele><time>2026-04-06T11:20:59Z</time></trkpt><trkpt lat="37.29279966541808" lon="14.849313019612834"><ele>116.33333333333333</ele><time>2026-04-06T11:21:02Z</time></trkpt><trkpt lat="37.292769413983585" lon="14.849391731213304"><ele>116.0</ele><time>2026-04-06T11:22:12.001Z</time></trkpt><trkpt lat="37.29267755940439" lon="14.849427347942108"><ele>116.0</ele><time>2026-04-06T11:22:15.001Z</time></trkpt><trkpt lat="37.29256406589204" lon="14.849455509760444"><ele>116.0</ele><time>2026-04-06T11:22:17.001Z</time></trkpt><trkpt lat="37.29248380078688" lon="14.849471790640221"><ele>116.0</ele><time>2026-04-06T11:22:18.001Z</time></trkpt><trkpt lat="37.29240012878584" lon="14.849488517136752"><ele>116.0</ele><time>2026-04-06T11:22:19.001Z</time></trkpt><trkpt lat="37.29230021469885" lon="14.849508949971055"><ele>116.0</ele><time>2026-04-06T11:22:20.001Z</time></trkpt><trkpt lat="37.29219062204966" lon="14.849534010358354"><ele>116.5</ele><time>2026-04-06T11:22:21.001Z</time></trkpt><trkpt lat="37.292066127276776" lon="14.84956875814473"><ele>117.0</ele><time>2026-04-06T11:22:22.001Z</time></trkpt><trkpt lat="37.291930526405594" lon="14.849608130508203"><ele>117.5</ele><time>2026-04-06T11:22:23.001Z</time></trkpt><trkpt lat="37.29178382277671" lon="14.849620968373381"><ele>118.0</ele><time>2026-04-06T11:22:24.001Z</time></trkpt><trkpt lat="37.29163686182464" lon="14.849653174286315"><ele>118.0</ele><time>2026-04-06T11:22:25.001Z</time></trkpt><trkpt lat="37.29148026046885" lon="14.849705471897682"><ele>118.0</ele><time>2026-04-06T11:22:26.001Z</time></trkpt><trkpt lat="37.29132376178856" lon="14.849736116681973"><ele>118.0</ele><time>2026-04-06T11:22:27.001Z</time></trkpt><trkpt lat="37.29116181704467" lon="14.849771700238765"><ele>118.0</ele><time>2026-04-06T11:22:28.001Z</time></trkpt><trkpt lat="37.2909954657598" lon="14.849811573329756"><ele>118.0</ele><time>2026-04-06T11:22:29.001Z</time></trkpt><trkpt lat="37.29082553098026" lon="14.84985288932127"><ele>118.0</ele><time>2026-04-06T11:22:30.001Z</time></trkpt><trkpt lat="37.29065524714268" lon="14.849889922640081"><ele>117.33333333333334</ele><time>2026-04-06T11:22:31.001Z</time></trkpt><trkpt lat="37.29048337990206" lon="14.8499221052558"><ele>116.66666666666666</ele><time>2026-04-06T11:22:32Z</time></trkpt><trkpt lat="37.29031242193528" lon="14.849955534919438"><ele>116.0</ele><time>2026-04-06T11:22:33Z</time></trkpt><trkpt lat="37.290142425685566" lon="14.849993141743171"><ele>116.0</ele><time>2026-04-06T11:22:34Z</time></trkpt><trkpt lat="37.28997270636123" lon="14.850031853477022"><ele>116.0</ele><time>2026-04-06T11:22:35Z</time></trkpt><trkpt lat="37.28980626625182" lon="14.850068607844934"><ele>116.0</ele><time>2026-04-06T11:22:36Z</time></trkpt><trkpt lat="37.289643770727885" lon="14.850102632223132"><ele>115.33333333333333</ele><time>2026-04-06T11:22:37Z</time></trkpt><trkpt lat="37.2894844499692" lon="14.85013812014561"><ele>114.66666666666666</ele><time>2026-04-06T11:22:38Z</time></trkpt><trkpt lat="37.28932651339119" lon="14.850168564991067"><ele>114.0</ele><time>2026-04-06T11:22:39Z</time></trkpt><trkpt lat="37.28916704150066" lon="14.850198905575727"><ele>114.0</ele><time>2026-04-06T11:22:40Z</time></trkpt><trkpt lat="37.28900405281176" lon="14.850232240824797"><ele>114.0</ele><time>2026-04-06T11:22:41Z</time></trkpt><trkpt lat="37.28883715267055" lon="14.850261966632033"><ele>114.0</ele><time>2026-04-06T11:22:42Z</time></trkpt><trkpt lat="37.2886668092808" lon="14.850295338011666"><ele>114.66666666666666</ele><time>2026-04-06T11:22:43Z</time></trkpt><trkpt lat="37.28849625737671" lon="14.850332892362026"><ele>115.33333333333333</ele><time>2026-04-06T11:22:44Z</time></trkpt><trkpt lat="37.28832161261342" lon="14.850370001908137"><ele>116.0</ele><time>2026-04-06T11:22:45Z</time></trkpt><trkpt lat="37.28814695418278" lon="14.850406698281535"><ele>116.0</ele><time>2026-04-06T11:22:46Z</time></trkpt><trkpt lat="37.28796900625144" lon="14.85044523969447"><ele>116.0</ele><time>2026-04-06T11:22:47Z</time></trkpt><trkpt lat="37.28778583729" lon="14.850481365538839"><ele>116.0</ele><time>2026-04-06T11:22:48Z</time></trkpt><trkpt lat="37.28760316620635" lon="14.850520467442104"><ele>116.0</ele><time>2026-04-06T11:22:49Z</time></trkpt><trkpt lat="37.28741845857536" lon="14.850549397361139"><ele>116.0</ele><time>2026-04-06T11:22:50Z</time></trkpt><trkpt lat="37.28723722523091" lon="14.850588375698345"><ele>116.0</ele><time>2026-04-06T11:22:51Z</time></trkpt><trkpt lat="37.287057230010745" lon="14.850621819693172"><ele>117.66666666666666</ele><time>2026-04-06T11:22:52Z</time></trkpt><trkpt lat="37.28688256728957" lon="14.85064449955172"><ele>119.33333333333334</ele><time>2026-04-06T11:22:53Z</time></trkpt><trkpt lat="37.286715247982514" lon="14.850661554030058"><ele>121.0</ele><time>2026-04-06T11:22:54Z</time></trkpt><trkpt lat="37.28655506851877" lon="14.85070031910321"><ele>122.66666666666667</ele><time>2026-04-06T11:22:55Z</time></trkpt><trkpt lat="37.28633511956888" lon="14.85074851731171"><ele>124.33333333333334</ele><time>2026-04-06T11:22:56Z</time></trkpt><trkpt lat="37.28617228167705" lon="14.850780862770367"><ele>126.0</ele><time>2026-04-06T11:22:57Z</time></trkpt><trkpt lat="37.28601767030461" lon="14.850809575325362"><ele>126.0</ele><time>2026-04-06T11:22:58Z</time></trkpt><trkpt lat="37.28586817139604" lon="14.850816982128814"><ele>126.0</ele><time>2026-04-06T11:22:59Z</time></trkpt><trkpt lat="37.285722941040746" lon="14.850802572657393"><ele>126.0</ele><time>2026-04-06T11:23:00Z</time></trkpt><trkpt lat="37.28558256196984" lon="14.85078244964185"><ele>126.0</ele><time>2026-04-06T11:23:01Z</time></trkpt><trkpt lat="37.28543753008113" lon="14.850764157113964"><ele>124.75</ele><time>2026-04-06T11:23:02Z</time></trkpt><trkpt lat="37.285294619371804" lon="14.850764947375668"><ele>123.5</ele><time>2026-04-06T11:23:03Z</time></trkpt><trkpt lat="37.28515172440798" lon="14.850769114431356"><ele>122.25</ele><time>2026-04-06T11:23:04Z</time></trkpt><trkpt lat="37.28501511270752" lon="14.850795094382807"><ele>121.0</ele><time>2026-04-06T11:23:05Z</time></trkpt><trkpt lat="37.28485534568552" lon="14.850845570459015"><ele>119.33333333333334</ele><time>2026-04-06T11:23:06Z</time></trkpt><trkpt lat="37.28469057591024" lon="14.850908002817135"><ele>117.66666666666666</ele><time>2026-04-06T11:23:07Z</time></trkpt><trkpt lat="37.28453034747025" lon="14.85096141827157"><ele>116.0</ele><time>2026-04-06T11:23:08Z</time></trkpt><trkpt lat="37.28436765975287" lon="14.851016116615888"><ele>115.66666666666666</ele><time>2026-04-06T11:23:09Z</time></trkpt><trkpt lat="37.28420733033911" lon="14.851062977509033"><ele>115.33333333333334</ele><time>2026-04-06T11:23:10Z</time></trkpt><trkpt lat="37.28404709034404" lon="14.851109281368394"><ele>115.0</ele><time>2026-04-06T11:23:11Z</time></trkpt><trkpt lat="37.28388976651933" lon="14.851162022386662"><ele>113.66666666666667</ele><time>2026-04-06T11:23:12Z</time></trkpt><trkpt lat="37.28373510452936" lon="14.851223460376616"><ele>112.33333333333334</ele><time>2026-04-06T11:23:13Z</time></trkpt><trkpt lat="37.283585054752905" lon="14.851307049605188"><ele>111.0</ele><time>2026-04-06T11:23:14Z</time></trkpt><trkpt lat="37.28343480505633" lon="14.85140642502364"><ele>111.0</ele><time>2026-04-06T11:23:15Z</time></trkpt><trkpt lat="37.28330305855122" lon="14.851553491070716"><ele>111.0</ele><time>2026-04-06T11:23:16Z</time></trkpt><trkpt lat="37.28316923641199" lon="14.85170225060688"><ele>111.0</ele><time>2026-04-06T11:23:17Z</time></trkpt><trkpt lat="37.28303912074393" lon="14.851842012691407"><ele>110.0</ele><time>2026-04-06T11:23:18Z</time></trkpt><trkpt lat="37.28291463980045" lon="14.851975872817643"><ele>109.0</ele><time>2026-04-06T11:23:19Z</time></trkpt><trkpt lat="37.28279389812133" lon="14.852103142940425"><ele>108.0</ele><time>2026-04-06T11:23:20Z</time></trkpt><trkpt lat="37.28267406967186" lon="14.85218163494078"><ele>108.0</ele><time>2026-04-06T11:23:21Z</time></trkpt><trkpt lat="37.28256948858086" lon="14.852264013092576"><ele>108.0</ele><time>2026-04-06T11:23:22Z</time></trkpt><trkpt lat="37.28244294068255" lon="14.852310750632986"><ele>108.0</ele><time>2026-04-06T11:23:23Z</time></trkpt><trkpt lat="37.28230308805957" lon="14.852346301050833"><ele>108.0</ele><time>2026-04-06T11:23:24Z</time></trkpt><trkpt lat="37.28215678119621" lon="14.85237473438152"><ele>107.75</ele><time>2026-04-06T11:23:25Z</time></trkpt><trkpt lat="37.28201469120633" lon="14.852405063054778"><ele>107.5</ele><time>2026-04-06T11:23:26Z</time></trkpt><trkpt lat="37.28187781046511" lon="14.85243441608498"><ele>107.25</ele><time>2026-04-06T11:23:27Z</time></trkpt><trkpt lat="37.28174487149206" lon="14.85246195279675"><ele>107.0</ele><time>2026-04-06T11:23:28Z</time></trkpt><trkpt lat="37.281614188661365" lon="14.852489421367508"><ele>107.0</ele><time>2026-04-06T11:23:29Z</time></trkpt><trkpt lat="37.28148665486816" lon="14.85251546422951"><ele>107.0</ele><time>2026-04-06T11:23:30Z</time></trkpt><trkpt lat="37.28136238645488" lon="14.852550371150365"><ele>107.0</ele><time>2026-04-06T11:23:31Z</time></trkpt><trkpt lat="37.281245349325545" lon="14.852604303321764"><ele>107.0</ele><time>2026-04-06T11:23:32Z</time></trkpt><trkpt lat="37.28113498528346" lon="14.852675069687871"><ele>107.5</ele><time>2026-04-06T11:23:33Z</time></trkpt><trkpt lat="37.281026257190504" lon="14.85275443291895"><ele>108.0</ele><time>2026-04-06T11:23:34Z</time></trkpt><trkpt lat="37.280920968450644" lon="14.852839431004936"><ele>108.5</ele><time>2026-04-06T11:23:35Z</time></trkpt><trkpt lat="37.28082067592133" lon="14.852917760627795"><ele>109.0</ele><time>2026-04-06T11:23:36Z</time></trkpt><trkpt lat="37.280721021712985" lon="14.853001240362836"><ele>109.0</ele><time>2026-04-06T11:23:37Z</time></trkpt><trkpt lat="37.28061610114084" lon="14.853075919444443"><ele>109.0</ele><time>2026-04-06T11:23:38Z</time></trkpt><trkpt lat="37.28050665490116" lon="14.853130936955239"><ele>109.0</ele><time>2026-04-06T11:23:39Z</time></trkpt><trkpt lat="37.28039154305304" lon="14.853172161747745"><ele>109.0</ele><time>2026-04-06T11:23:40Z</time></trkpt><trkpt lat="37.2802801239464" lon="14.853182174059851"><ele>108.66666666666667</ele><time>2026-04-06T11:23:41Z</time></trkpt><trkpt lat="37.28018555116392" lon="14.853223987349027"><ele>108.33333333333334</ele><time>2026-04-06T11:23:42Z</time></trkpt><trkpt lat="37.28010395786683" lon="14.853237533942362"><ele>108.0</ele><time>2026-04-06T11:23:43Z</time></trkpt><trkpt lat="37.28004102545917" lon="14.853253013920094"><ele>107.66666666666666</ele><time>2026-04-06T11:23:44Z</time></trkpt><trkpt lat="37.279949510164556" lon="14.853282827752322"><ele>107.33333333333333</ele><time>2026-04-06T11:23:46Z</time></trkpt><trkpt lat="37.27987203014643" lon="14.853305500361031"><ele>107.0</ele><time>2026-04-06T11:23:49Z</time></trkpt><trkpt lat="37.27979948680375" lon="14.853292265055478"><ele>108.39999999999999</ele><time>2026-04-06T11:23:53Z</time></trkpt><trkpt lat="37.279698382237356" lon="14.85331348263862"><ele>109.79999999999998</ele><time>2026-04-06T11:24:39Z</time></trkpt><trkpt lat="37.27956481573895" lon="14.85334995324127"><ele>111.2</ele><time>2026-04-06T11:24:41Z</time></trkpt><trkpt lat="37.27948841354177" lon="14.853371387591864"><ele>112.6</ele><time>2026-04-06T11:24:42Z</time></trkpt><trkpt lat="37.27941274002083" lon="14.853393932940193"><ele>114.0</ele><time>2026-04-06T11:24:43Z</time></trkpt><trkpt lat="37.2793409721158" lon="14.853414828515904"><ele>114.0</ele><time>2026-04-06T11:24:44Z</time></trkpt><trkpt lat="37.279270169936694" lon="14.853429434025356"><ele>114.0</ele><time>2026-04-06T11:24:45Z</time></trkpt><trkpt lat="37.279200353408626" lon="14.853442269871106"><ele>114.0</ele><time>2026-04-06T11:24:46Z</time></trkpt><trkpt lat="37.27913415414924" lon="14.853462310375718"><ele>114.0</ele><time>2026-04-06T11:24:47Z</time></trkpt><trkpt lat="37.27906686331108" lon="14.853485288439419"><ele>114.0</ele><time>2026-04-06T11:24:48Z</time></trkpt><trkpt lat="37.278940636122336" lon="14.853522779679315"><ele>114.0</ele><time>2026-04-06T11:24:50Z</time></trkpt><trkpt lat="37.278829262217094" lon="14.853551054760173"><ele>114.0</ele><time>2026-04-06T11:24:52Z</time></trkpt><trkpt lat="37.27871572528429" lon="14.85357675746731"><ele>114.0</ele><time>2026-04-06T11:24:54Z</time></trkpt><trkpt lat="37.27860783502508" lon="14.853588748284864"><ele>114.0</ele><time>2026-04-06T11:24:56Z</time></trkpt><trkpt lat="37.27853110133883" lon="14.853607915405162"><ele>114.0</ele><time>2026-04-06T11:24:58Z</time></trkpt><trkpt lat="37.27846794045465" lon="14.853628873648171"><ele>114.0</ele><time>2026-04-06T11:25:00Z</time></trkpt><trkpt lat="37.27838993078543" lon="14.85365323016596"><ele>114.0</ele><time>2026-04-06T11:25:03Z</time></trkpt><trkpt lat="37.278314302176355" lon="14.85368013723871"><ele>114.0</ele><time>2026-04-06T11:25:06Z</time></trkpt><trkpt lat="37.278230534944285" lon="14.853691036985799"><ele>114.0</ele><time>2026-04-06T11:25:08Z</time></trkpt><trkpt lat="37.27812648964413" lon="14.853704053583137"><ele>114.0</ele><time>2026-04-06T11:25:10Z</time></trkpt><trkpt lat="37.278005210775966" lon="14.853731343824672"><ele>114.0</ele><time>2026-04-06T11:25:12Z</time></trkpt><trkpt lat="37.27793485971592" lon="14.853747510560426"><ele>114.0</ele><time>2026-04-06T11:25:13Z</time></trkpt><trkpt lat="37.27786770362212" lon="14.853766259563281"><ele>114.0</ele><time>2026-04-06T11:25:14Z</time></trkpt><trkpt lat="37.277804555514265" lon="14.853785604351994"><ele>114.0</ele><time>2026-04-06T11:25:15Z</time></trkpt><trkpt lat="37.27768437496348" lon="14.853825223838717"><ele>114.0</ele><time>2026-04-06T11:25:17Z</time></trkpt><trkpt lat="37.27756070632034" lon="14.8538583255684"><ele>114.0</ele><time>2026-04-06T11:25:19Z</time></trkpt><trkpt lat="37.27743933204651" lon="14.85389056082227"><ele>114.0</ele><time>2026-04-06T11:25:21Z</time></trkpt><trkpt lat="37.277314753407275" lon="14.85391753250237"><ele>114.14285714285714</ele><time>2026-04-06T11:25:23Z</time></trkpt><trkpt lat="37.27725129822213" lon="14.853933923546286"><ele>114.28571428571428</ele><time>2026-04-06T11:25:24Z</time></trkpt><trkpt lat="37.27718610633817" lon="14.853951074048657"><ele>114.42857142857142</ele><time>2026-04-06T11:25:25Z</time></trkpt><trkpt lat="37.27711914404249" lon="14.853971850818022"><ele>114.57142857142856</ele><time>2026-04-06T11:25:26Z</time></trkpt><trkpt lat="37.27704981052144" lon="14.853993417587922"><ele>114.71428571428571</ele><time>2026-04-06T11:25:27Z</time></trkpt><trkpt lat="37.276978639681616" lon="14.854013797512536"><ele>114.85714285714283</ele><time>2026-04-06T11:25:28Z</time></trkpt><trkpt lat="37.2768966251128" lon="14.854034399114"><ele>114.99999999999999</ele><time>2026-04-06T11:25:29Z</time></trkpt><trkpt lat="37.27680437934328" lon="14.854057868810973"><ele>115.00000000000001</ele><time>2026-04-06T11:25:30Z</time></trkpt><trkpt lat="37.27672103299111" lon="14.854085445173364"><ele>115.0</ele><time>2026-04-06T11:25:31Z</time></trkpt><trkpt lat="37.27664327202093" lon="14.854112273806324"><ele>115.0</ele><time>2026-04-06T11:25:32Z</time></trkpt><trkpt lat="37.27656353845445" lon="14.854133910372887"><ele>115.0</ele><time>2026-04-06T11:25:33Z</time></trkpt><trkpt lat="37.2764834554512" lon="14.854157116698172"><ele>115.00000000000001</ele><time>2026-04-06T11:25:34Z</time></trkpt><trkpt lat="37.27640627265132" lon="14.854179174222319"><ele>115.0</ele><time>2026-04-06T11:25:35Z</time></trkpt><trkpt lat="37.27633969577125" lon="14.854195593719476"><ele>115.33333333333334</ele><time>2026-04-06T11:25:36Z</time></trkpt><trkpt lat="37.276230466060504" lon="14.854218969273639"><ele>115.66666666666667</ele><time>2026-04-06T11:25:38Z</time></trkpt><trkpt lat="37.276141315684995" lon="14.854235951078982"><ele>116.0</ele><time>2026-04-06T11:25:40Z</time></trkpt><trkpt lat="37.276036707076294" lon="14.854217103375003"><ele>116.33333333333334</ele><time>2026-04-06T11:25:42Z</time></trkpt><trkpt lat="37.2759745048447" lon="14.854203568571704"><ele>116.66666666666667</ele><time>2026-04-06T11:25:43Z</time></trkpt><trkpt lat="37.27591197476965" lon="14.854191240411168"><ele>117.0</ele><time>2026-04-06T11:25:44Z</time></trkpt><trkpt lat="37.27579349768268" lon="14.85415560989712"><ele>117.0</ele><time>2026-04-06T11:25:46Z</time></trkpt><trkpt lat="37.27568760996019" lon="14.854124604803552"><ele>116.99999999999999</ele><time>2026-04-06T11:25:48Z</time></trkpt><trkpt lat="37.275586758264275" lon="14.85408023048668"><ele>116.99999999999999</ele><time>2026-04-06T11:25:50Z</time></trkpt><trkpt lat="37.275472663370145" lon="14.85401877025255"><ele>117.0</ele><time>2026-04-06T11:25:52Z</time></trkpt><trkpt lat="37.275413020513355" lon="14.85397654262594"><ele>117.0</ele><time>2026-04-06T11:25:53Z</time></trkpt><trkpt lat="37.27532126543455" lon="14.853895955901276"><ele>116.66666666666667</ele><time>2026-04-06T11:25:55Z</time></trkpt><trkpt lat="37.27524497967856" lon="14.85379208780853"><ele>116.33333333333334</ele><time>2026-04-06T11:25:57Z</time></trkpt><trkpt lat="37.27520236747605" lon="14.853730649804398"><ele>116.0</ele><time>2026-04-06T11:25:58Z</time></trkpt><trkpt lat="37.27515769246273" lon="14.853662507527497"><ele>115.66666666666667</ele><time>2026-04-06T11:25:59Z</time></trkpt><trkpt lat="37.275117522695325" lon="14.853594077667111"><ele>115.33333333333334</ele><time>2026-04-06T11:26:00Z</time></trkpt><trkpt lat="37.275058819852674" lon="14.853480369651498"><ele>115.0</ele><time>2026-04-06T11:26:02Z</time></trkpt><trkpt lat="37.274996557067944" lon="14.853391687377828"><ele>115.00000000000001</ele><time>2026-04-06T11:26:04Z</time></trkpt><trkpt lat="37.27492785556423" lon="14.853335112840153"><ele>115.0</ele><time>2026-04-06T11:26:06Z</time></trkpt><trkpt lat="37.274868145702854" lon="14.853279780437695"><ele>115.0</ele><time>2026-04-06T11:26:08Z</time></trkpt><trkpt lat="37.274793049043915" lon="14.853252101550066"><ele>115.0</ele><time>2026-04-06T11:26:10Z</time></trkpt><trkpt lat="37.2747088478158" lon="14.853243847719616"><ele>115.00000000000001</ele><time>2026-04-06T11:26:12Z</time></trkpt><trkpt lat="37.27459963099313" lon="14.853240726106218"><ele>115.0</ele><time>2026-04-06T11:26:14Z</time></trkpt><trkpt lat="37.27453283608312" lon="14.853235349234312"><ele>114.0</ele><time>2026-04-06T11:26:15Z</time></trkpt><trkpt lat="37.27446919135795" lon="14.85322215607215"><ele>113.0</ele><time>2026-04-06T11:26:16Z</time></trkpt><trkpt lat="37.274402638842616" lon="14.853211541258865"><ele>112.0</ele><time>2026-04-06T11:26:17Z</time></trkpt><trkpt lat="37.27428751026515" lon="14.853195854766225"><ele>111.0</ele><time>2026-04-06T11:26:19Z</time></trkpt><trkpt lat="37.27417339155594" lon="14.853165017365985"><ele>110.0</ele><time>2026-04-06T11:26:21Z</time></trkpt><trkpt lat="37.27405500944997" lon="14.853138527969554"><ele>110.0</ele><time>2026-04-06T11:26:23Z</time></trkpt><trkpt lat="37.27395474621595" lon="14.853124363539113"><ele>110.0</ele><time>2026-04-06T11:26:25Z</time></trkpt><trkpt lat="37.27387145728096" lon="14.853118356651095"><ele>110.0</ele><time>2026-04-06T11:26:28Z</time></trkpt><trkpt lat="37.27377163612864" lon="14.853095041063224"><ele>110.0</ele><time>2026-04-06T11:26:31Z</time></trkpt><trkpt lat="37.27366122421801" lon="14.85310065049627"><ele>110.0</ele><time>2026-04-06T11:26:33Z</time></trkpt><trkpt lat="37.273539156102295" lon="14.853153117991429"><ele>111.16666666666666</ele><time>2026-04-06T11:26:35Z</time></trkpt><trkpt lat="37.273486846731586" lon="14.853198977521147"><ele>112.33333333333333</ele><time>2026-04-06T11:26:36Z</time></trkpt><trkpt lat="37.273373244229504" lon="14.853269130570375"><ele>113.5</ele><time>2026-04-06T11:26:38Z</time></trkpt><trkpt lat="37.27331263322591" lon="14.853303495626125"><ele>114.66666666666666</ele><time>2026-04-06T11:26:39Z</time></trkpt><trkpt lat="37.27324772301151" lon="14.853315970338189"><ele>115.83333333333333</ele><time>2026-04-06T11:26:40Z</time></trkpt><trkpt lat="37.2731380644221" lon="14.85337401928154"><ele>117.0</ele><time>2026-04-06T11:26:42Z</time></trkpt><trkpt lat="37.27303637706606" lon="14.853425817514983"><ele>117.0</ele><time>2026-04-06T11:26:44Z</time></trkpt><trkpt lat="37.272941357413764" lon="14.853468328372324"><ele>117.0</ele><time>2026-04-06T11:26:46Z</time></trkpt><trkpt lat="37.27287770420538" lon="14.853493427273525"><ele>117.0</ele><time>2026-04-06T11:26:48Z</time></trkpt><trkpt lat="37.27279680846269" lon="14.853494042854015"><ele>117.0</ele><time>2026-04-06T11:26:51Z</time></trkpt><trkpt lat="37.2727656372646" lon="14.853408498618748"><ele>117.0</ele><time>2026-04-06T11:26:53Z</time></trkpt><trkpt lat="37.272751803104036" lon="14.853295911312644"><ele>117.0</ele><time>2026-04-06T11:26:55Z</time></trkpt><trkpt lat="37.27272187808072" lon="14.85316830624069"><ele>117.83333333333333</ele><time>2026-04-06T11:26:57Z</time></trkpt><trkpt lat="37.2726802782824" lon="14.853034592283734"><ele>118.66666666666666</ele><time>2026-04-06T11:26:59Z</time></trkpt><trkpt lat="37.272661082083225" lon="14.852894752411888"><ele>119.5</ele><time>2026-04-06T11:27:01Z</time></trkpt><trkpt lat="37.272650236149765" lon="14.85280439874859"><ele>120.33333333333333</ele><time>2026-04-06T11:27:03Z</time></trkpt><trkpt lat="37.27266912439887" lon="14.852883075885439"><ele>121.16666666666666</ele><time>2026-04-06T11:27:36Z</time></trkpt><trkpt lat="37.27268004305638" lon="14.852965309316975"><ele>122.0</ele><time>2026-04-06T11:27:56Z</time></trkpt><trkpt lat="37.27268452547006" lon="14.853048034048419"><ele>122.0</ele><time>2026-04-06T11:28:08Z</time></trkpt><trkpt lat="37.272669611274125" lon="14.852940895210773"><ele>121.99999999999999</ele><time>2026-04-06T11:29:38Z</time></trkpt><trkpt lat="37.272644042557374" lon="14.852817061512832"><ele>121.99999999999999</ele><time>2026-04-06T11:29:40Z</time></trkpt><trkpt lat="37.2726053396234" lon="14.852701409314925"><ele>122.0</ele><time>2026-04-06T11:29:42Z</time></trkpt><trkpt lat="37.27256192848113" lon="14.852592399403946"><ele>122.0</ele><time>2026-04-06T11:29:44Z</time></trkpt><trkpt lat="37.27253585853529" lon="14.852494178633698"><ele>122.8</ele><time>2026-04-06T11:29:46Z</time></trkpt><trkpt lat="37.27249042633194" lon="14.85239434708944"><ele>123.6</ele><time>2026-04-06T11:29:48Z</time></trkpt><trkpt lat="37.27243453657528" lon="14.852275072108705"><ele>124.39999999999999</ele><time>2026-04-06T11:29:50Z</time></trkpt><trkpt lat="37.272369809067925" lon="14.852144292611065"><ele>125.19999999999999</ele><time>2026-04-06T11:29:52Z</time></trkpt><trkpt lat="37.27231338452512" lon="14.852028673741305"><ele>126.0</ele><time>2026-04-06T11:29:54Z</time></trkpt><trkpt lat="37.272279599080015" lon="14.851949235139069"><ele>125.8</ele><time>2026-04-06T11:29:56Z</time></trkpt><trkpt lat="37.27224229427223" lon="14.85187415805023"><ele>125.6</ele><time>2026-04-06T11:29:58Z</time></trkpt><trkpt lat="37.27218904929283" lon="14.851784367226342"><ele>125.4</ele><time>2026-04-06T11:30:00Z</time></trkpt><trkpt lat="37.27212198248841" lon="14.85167249807393"><ele>125.2</ele><time>2026-04-06T11:30:02Z</time></trkpt><trkpt lat="37.27205965242076" lon="14.85155954146874"><ele>125.0</ele><time>2026-04-06T11:30:04Z</time></trkpt><trkpt lat="37.271998822223196" lon="14.851446321496228"><ele>124.99999999999999</ele><time>2026-04-06T11:30:06Z</time></trkpt><trkpt lat="37.2719346624803" lon="14.851341671637693"><ele>125.0</ele><time>2026-04-06T11:30:08Z</time></trkpt><trkpt lat="37.27189020488742" lon="14.851266001058185"><ele>125.0</ele><time>2026-04-06T11:30:10Z</time></trkpt><trkpt lat="37.27185328960766" lon="14.85120145067356"><ele>125.0</ele><time>2026-04-06T11:30:13Z</time></trkpt><trkpt lat="37.27181122858065" lon="14.851113857697968"><ele>124.99999999999999</ele><time>2026-04-06T11:30:30Z</time></trkpt><trkpt lat="37.27176262044597" lon="14.851035806126152"><ele>125.0</ele><time>2026-04-06T11:30:32Z</time></trkpt><trkpt lat="37.271877682586606" lon="14.85085798232619"><ele>125.99999999999999</ele><time>2026-04-06T11:30:32.999Z</time></trkpt><trkpt lat="37.271829549195125" lon="14.850760060246682"><ele>127.0</ele><time>2026-04-06T11:30:34.999Z</time></trkpt><trkpt lat="37.27178969155909" lon="14.850670254402841"><ele>128.0</ele><time>2026-04-06T11:30:36.999Z</time></trkpt><trkpt lat="37.27175611129391" lon="14.850579718922603"><ele>129.0</ele><time>2026-04-06T11:30:38.999Z</time></trkpt><trkpt lat="37.271726089416575" lon="14.850472004399096"><ele>130.0</ele><time>2026-04-06T11:30:40.999Z</time></trkpt><trkpt lat="37.27170826528685" lon="14.850342044206084"><ele>131.0</ele><time>2026-04-06T11:30:42.999Z</time></trkpt><trkpt lat="37.27169366674738" lon="14.850183589297654"><ele>132.33333333333331</ele><time>2026-04-06T11:30:44.999Z</time></trkpt><trkpt lat="37.271683518563584" lon="14.850049370253307"><ele>133.66666666666666</ele><time>2026-04-06T11:30:46.999Z</time></trkpt><trkpt lat="37.27167700354053" lon="14.849959976046243"><ele>135.0</ele><time>2026-04-06T11:30:48.999Z</time></trkpt><trkpt lat="37.27115621866874" lon="14.849460595685569"><ele>135.0</ele><time>2026-04-06T11:31:09Z</time></trkpt><trkpt lat="37.27108622528446" lon="14.849342458508412"><ele>135.0</ele><time>2026-04-06T11:31:11Z</time></trkpt><trkpt lat="37.27102525885923" lon="14.84925233465016"><ele>135.0</ele><time>2026-04-06T11:31:13Z</time></trkpt><trkpt lat="37.270969468640395" lon="14.849168324870186"><ele>135.0</ele><time>2026-04-06T11:31:15Z</time></trkpt><trkpt lat="37.27090916761203" lon="14.849079633050822"><ele>135.0</ele><time>2026-04-06T11:31:17Z</time></trkpt><trkpt lat="37.270854568880786" lon="14.84898244600697"><ele>136.0</ele><time>2026-04-06T11:31:19Z</time></trkpt><trkpt lat="37.270806341712905" lon="14.848882142088634"><ele>137.0</ele><time>2026-04-06T11:31:21Z</time></trkpt><trkpt lat="37.27075584403469" lon="14.848778863568754"><ele>138.0</ele><time>2026-04-06T11:31:23Z</time></trkpt><trkpt lat="37.27071380643565" lon="14.848674133190164"><ele>139.0</ele><time>2026-04-06T11:31:25Z</time></trkpt><trkpt lat="37.27067445905724" lon="14.848569890489603"><ele>140.0</ele><time>2026-04-06T11:31:27Z</time></trkpt><trkpt lat="37.27063190622168" lon="14.848445858853012"><ele>141.2</ele><time>2026-04-06T11:31:29Z</time></trkpt><trkpt lat="37.27058989728522" lon="14.84831538539315"><ele>142.4</ele><time>2026-04-06T11:31:31Z</time></trkpt><trkpt lat="37.270566982821684" lon="14.848189456448353"><ele>143.6</ele><time>2026-04-06T11:31:33Z</time></trkpt><trkpt lat="37.27054622813224" lon="14.848064460292013"><ele>144.8</ele><time>2026-04-06T11:31:35Z</time></trkpt><trkpt lat="37.270543377774096" lon="14.84796406311747"><ele>146.0</ele><time>2026-04-06T11:31:37Z</time></trkpt><trkpt lat="37.27052861408232" lon="14.847853284879434"><ele>146.0</ele><time>2026-04-06T11:31:40Z</time></trkpt><trkpt lat="37.27052147360465" lon="14.847754463306002"><ele>146.0</ele><time>2026-04-06T11:31:42Z</time></trkpt><trkpt lat="37.27051484718695" lon="14.847631101666636"><ele>146.0</ele><time>2026-04-06T11:31:44Z</time></trkpt><trkpt lat="37.270503385362254" lon="14.847509572929942"><ele>146.0</ele><time>2026-04-06T11:31:46Z</time></trkpt><trkpt lat="37.27049532594454" lon="14.847380137526871"><ele>146.0</ele><time>2026-04-06T11:31:48Z</time></trkpt><trkpt lat="37.270476372490386" lon="14.847249248883386"><ele>146.8</ele><time>2026-04-06T11:31:50Z</time></trkpt><trkpt lat="37.27044096052261" lon="14.84713392658982"><ele>147.6</ele><time>2026-04-06T11:31:52Z</time></trkpt><trkpt lat="37.27038327172734" lon="14.847007121780706"><ele>148.4</ele><time>2026-04-06T11:31:54Z</time></trkpt><trkpt lat="37.27032496848806" lon="14.846895343034776"><ele>149.2</ele><time>2026-04-06T11:31:56Z</time></trkpt><trkpt lat="37.270259765738096" lon="14.846776274537145"><ele>150.0</ele><time>2026-04-06T11:31:58Z</time></trkpt><trkpt lat="37.27021961723207" lon="14.84671342296513"><ele>151.0</ele><time>2026-04-06T11:31:59Z</time></trkpt><trkpt lat="37.27017586055047" lon="14.846647043078557"><ele>152.0</ele><time>2026-04-06T11:32:00Z</time></trkpt><trkpt lat="37.270137991884084" lon="14.846580465549646"><ele>153.0</ele><time>2026-04-06T11:32:01Z</time></trkpt><trkpt lat="37.27006747787364" lon="14.84646206365097"><ele>154.0</ele><time>2026-04-06T11:32:03Z</time></trkpt><trkpt lat="37.269991180692486" lon="14.846361033623655"><ele>155.0</ele><time>2026-04-06T11:32:05Z</time></trkpt><trkpt lat="37.26994094041837" lon="14.84630823788897"><ele>156.0</ele><time>2026-04-06T11:32:08Z</time></trkpt><trkpt lat="37.26987632735122" lon="14.846246871571966"><ele>156.0</ele><time>2026-04-06T11:32:22Z</time></trkpt><trkpt lat="37.26980606465697" lon="14.846184632182899"><ele>156.0</ele><time>2026-04-06T11:32:24Z</time></trkpt><trkpt lat="37.26973501350361" lon="14.846172681437091"><ele>156.0</ele><time>2026-04-06T11:32:27Z</time></trkpt><trkpt lat="37.26966416661727" lon="14.846209940488965"><ele>156.0</ele><time>2026-04-06T11:32:29Z</time></trkpt><trkpt lat="37.26958625683964" lon="14.846294913583005"><ele>156.0</ele><time>2026-04-06T11:32:31Z</time></trkpt><trkpt lat="37.269515480243456" lon="14.846396483352722"><ele>156.0</ele><time>2026-04-06T11:32:33Z</time></trkpt><trkpt lat="37.26947842850962" lon="14.846505952252683"><ele>156.5</ele><time>2026-04-06T11:32:35Z</time></trkpt><trkpt lat="37.269483620161736" lon="14.84660484331648"><ele>157.0</ele><time>2026-04-06T11:32:37Z</time></trkpt><trkpt lat="37.269504819521075" lon="14.84671997561337"><ele>157.5</ele><time>2026-04-06T11:32:39Z</time></trkpt><trkpt lat="37.26951294826198" lon="14.846807448534356"><ele>158.0</ele><time>2026-04-06T11:32:41Z</time></trkpt><trkpt lat="37.26951571438056" lon="14.846923784289217"><ele>158.5</ele><time>2026-04-06T11:32:43Z</time></trkpt><trkpt lat="37.26952360345747" lon="14.847020749201915"><ele>159.0</ele><time>2026-04-06T11:32:45Z</time></trkpt><trkpt lat="37.26953799326123" lon="14.847134995313523"><ele>157.8</ele><time>2026-04-06T11:33:16Z</time></trkpt><trkpt lat="37.2695498681013" lon="14.84727310816717"><ele>156.60000000000002</ele><time>2026-04-06T11:33:18Z</time></trkpt><trkpt lat="37.26955857426521" lon="14.847354409700875"><ele>155.4</ele><time>2026-04-06T11:33:19Z</time></trkpt><trkpt lat="37.2695713489242" lon="14.847499472923632"><ele>154.20000000000002</ele><time>2026-04-06T11:33:21Z</time></trkpt><trkpt lat="37.2695845285766" lon="14.84765463658606"><ele>153.0</ele><time>2026-04-06T11:33:23Z</time></trkpt><trkpt lat="37.2695948942799" lon="14.847737112210826"><ele>152.14285714285714</ele><time>2026-04-06T11:33:24Z</time></trkpt><trkpt lat="37.26960254822176" lon="14.847819361047128"><ele>151.28571428571428</ele><time>2026-04-06T11:33:25Z</time></trkpt><trkpt lat="37.26961247147132" lon="14.847901451761045"><ele>150.42857142857144</ele><time>2026-04-06T11:33:26Z</time></trkpt><trkpt lat="37.26961974663878" lon="14.847987402783854"><ele>149.57142857142856</ele><time>2026-04-06T11:33:27Z</time></trkpt><trkpt lat="37.26962603121146" lon="14.848066363279534"><ele>148.71428571428572</ele><time>2026-04-06T11:33:28Z</time></trkpt><trkpt lat="37.26963305530651" lon="14.848147403020008"><ele>147.85714285714286</ele><time>2026-04-06T11:33:29Z</time></trkpt><trkpt lat="37.26964025160544" lon="14.848230406175905"><ele>147.0</ele><time>2026-04-06T11:33:30Z</time></trkpt><trkpt lat="37.2696495397521" lon="14.848312229954674"><ele>147.0</ele><time>2026-04-06T11:33:31Z</time></trkpt><trkpt lat="37.26966172996698" lon="14.848443551540512"><ele>147.0</ele><time>2026-04-06T11:33:33Z</time></trkpt><trkpt lat="37.269672045563055" lon="14.848534081786925"><ele>147.0</ele><time>2026-04-06T11:33:35Z</time></trkpt><trkpt lat="37.26968096805282" lon="14.848629457304472"><ele>147.0</ele><time>2026-04-06T11:33:37Z</time></trkpt><trkpt lat="37.2696968803252" lon="14.848727192952794"><ele>147.0</ele><time>2026-04-06T11:33:39Z</time></trkpt><trkpt lat="37.26970358913331" lon="14.848847568146999"><ele>147.0</ele><time>2026-04-06T11:33:41Z</time></trkpt><trkpt lat="37.26971458788821" lon="14.848985218990425"><ele>146.33333333333334</ele><time>2026-04-06T11:33:43Z</time></trkpt><trkpt lat="37.269721394997866" lon="14.849120969023732"><ele>145.66666666666666</ele><time>2026-04-06T11:33:45Z</time></trkpt><trkpt lat="37.26972037908837" lon="14.84920357381293"><ele>145.0</ele><time>2026-04-06T11:33:47Z</time></trkpt><trkpt lat="37.26971364837479" lon="14.849294793962793"><ele>144.33333333333331</ele><time>2026-04-06T11:33:50Z</time></trkpt><trkpt lat="37.26972560482741" lon="14.849378288032048"><ele>143.66666666666666</ele><time>2026-04-06T11:33:55Z</time></trkpt><trkpt lat="37.26973355946537" lon="14.849482822648117"><ele>143.0</ele><time>2026-04-06T11:33:59Z</time></trkpt><trkpt lat="37.26973284221314" lon="14.849581412530428"><ele>142.5</ele><time>2026-04-06T11:34:02Z</time></trkpt><trkpt lat="37.2697351728523" lon="14.849665122614834"><ele>142.0</ele><time>2026-04-06T11:34:04Z</time></trkpt><trkpt lat="37.26974637955385" lon="14.849767605539089"><ele>141.5</ele><time>2026-04-06T11:34:07Z</time></trkpt><trkpt lat="37.26976545714456" lon="14.849854386816727"><ele>141.0</ele><time>2026-04-06T11:34:14Z</time></trkpt><trkpt lat="37.269770400475196" lon="14.849963199333974"><ele>140.5</ele><time>2026-04-06T11:34:17Z</time></trkpt><trkpt lat="37.269801220751646" lon="14.850047792872768"><ele>140.0</ele><time>2026-04-06T11:34:19Z</time></trkpt><trkpt lat="37.269755913252716" lon="14.850119060515588"><ele>138.75</ele><time>2026-04-06T11:34:24Z</time></trkpt><trkpt lat="37.26974649199724" lon="14.850209215227588"><ele>137.5</ele><time>2026-04-06T11:35:51Z</time></trkpt><trkpt lat="37.26971904174557" lon="14.85029232233626"><ele>136.25</ele><time>2026-04-06T11:35:57Z</time></trkpt><trkpt lat="37.269694936880754" lon="14.850370490474006"><ele>135.0</ele><time>2026-04-06T11:36:23Z</time></trkpt><trkpt lat="37.26944862825017" lon="14.850669375392323"><ele>135.0</ele><time>2026-04-06T11:36:26Z</time></trkpt><trkpt lat="37.26940206199045" lon="14.850581012687377"><ele>135.0</ele><time>2026-04-06T11:36:30Z</time></trkpt><trkpt lat="37.26935296915568" lon="14.850653802030305"><ele>135.0</ele><time>2026-04-06T11:36:33Z</time></trkpt><trkpt lat="37.2693380609021" lon="14.850735095157464"><ele>135.0</ele><time>2026-04-06T11:36:36Z</time></trkpt><trkpt lat="37.26931596257645" lon="14.850855596191826"><ele>135.0</ele><time>2026-04-06T11:36:39Z</time></trkpt><trkpt lat="37.26931118644647" lon="14.850976798393752"><ele>135.0</ele><time>2026-04-06T11:36:41Z</time></trkpt><trkpt lat="37.26930489704071" lon="14.851109464678627"><ele>134.66666666666666</ele><time>2026-04-06T11:36:43Z</time></trkpt><trkpt lat="37.26933862376482" lon="14.851180556131602"><ele>134.33333333333334</ele><time>2026-04-06T11:36:44Z</time></trkpt><trkpt lat="37.26933829640679" lon="14.851264830814605"><ele>134.0</ele><time>2026-04-06T11:36:46Z</time></trkpt><trkpt lat="37.26934543638974" lon="14.851366317765383"><ele>133.66666666666669</ele><time>2026-04-06T11:36:48Z</time></trkpt><trkpt lat="37.269338514166336" lon="14.851502773227462"><ele>133.33333333333334</ele><time>2026-04-06T11:36:50Z</time></trkpt><trkpt lat="37.26933155332942" lon="14.851625826014935"><ele>133.0</ele><time>2026-04-06T11:36:52Z</time></trkpt><trkpt lat="37.26931541908421" lon="14.851737399797157"><ele>132.5</ele><time>2026-04-06T11:36:55Z</time></trkpt><trkpt lat="37.26933222009713" lon="14.851822676484282"><ele>132.0</ele><time>2026-04-06T11:36:57Z</time></trkpt><trkpt lat="37.2694136141126" lon="14.851870216630923"><ele>131.5</ele><time>2026-04-06T11:37:00Z</time></trkpt><trkpt lat="37.269484990557366" lon="14.85182742826053"><ele>131.0</ele><time>2026-04-06T11:37:03Z</time></trkpt><trkpt lat="37.26941687164254" lon="14.851822763652176"><ele>130.5</ele><time>2026-04-06T11:37:56Z</time></trkpt><trkpt lat="37.269456605635135" lon="14.851909936341285"><ele>130.0</ele><time>2026-04-06T11:38:30Z</time></trkpt><trkpt lat="37.26946334777604" lon="14.852005205276177"><ele>130.0</ele><time>2026-04-06T11:38:33Z</time></trkpt><trkpt lat="37.269458267784835" lon="14.852150896680783"><ele>130.0</ele><time>2026-04-06T11:38:36Z</time></trkpt><trkpt lat="37.26944975646142" lon="14.852257079215317"><ele>130.0</ele><time>2026-04-06T11:38:38Z</time></trkpt><trkpt lat="37.26944787209265" lon="14.852358259737132"><ele>130.0</ele><time>2026-04-06T11:38:41Z</time></trkpt><trkpt lat="37.269444761946644" lon="14.85246838908564"><ele>130.0</ele><time>2026-04-06T11:38:44Z</time></trkpt><trkpt lat="37.26944305521277" lon="14.852548602854414"><ele>130.0</ele><time>2026-04-06T11:38:46Z</time></trkpt><trkpt lat="37.26942741698789" lon="14.852635320147689"><ele>129.83333333333334</ele><time>2026-04-06T11:38:49Z</time></trkpt><trkpt lat="37.269366764969995" lon="14.852662831394468"><ele>129.66666666666669</ele><time>2026-04-06T11:38:53Z</time></trkpt><trkpt lat="37.26926684749437" lon="14.852639574327636"><ele>129.5</ele><time>2026-04-06T11:38:55Z</time></trkpt><trkpt lat="37.269142609752436" lon="14.852631713121427"><ele>129.33333333333334</ele><time>2026-04-06T11:38:57Z</time></trkpt><trkpt lat="37.26907534696324" lon="14.85262786428963"><ele>129.16666666666666</ele><time>2026-04-06T11:38:58Z</time></trkpt><trkpt lat="37.26900604637092" lon="14.852625048643976"><ele>129.0</ele><time>2026-04-06T11:38:59Z</time></trkpt><trkpt lat="37.26893699526762" lon="14.852623826291461"><ele>129.0</ele><time>2026-04-06T11:39:00Z</time></trkpt><trkpt lat="37.26887356043649" lon="14.85262197099094"><ele>129.0</ele><time>2026-04-06T11:39:01Z</time></trkpt><trkpt lat="37.26878838009095" lon="14.852617078951033"><ele>129.0</ele><time>2026-04-06T11:39:03Z</time></trkpt><trkpt lat="37.26871260349224" lon="14.852614852095115"><ele>129.0</ele><time>2026-04-06T11:39:05Z</time></trkpt><trkpt lat="37.26864869300498" lon="14.852667798629259"><ele>129.0</ele><time>2026-04-06T11:39:09Z</time></trkpt><trkpt lat="37.26870577070133" lon="14.852626919980834"><ele>129.0</ele><time>2026-04-06T11:39:56Z</time></trkpt><trkpt lat="37.26882459281822" lon="14.852633314177316"><ele>129.0</ele><time>2026-04-06T11:40:39Z</time></trkpt><trkpt lat="37.26889397764735" lon="14.852634265115178"><ele>129.0</ele><time>2026-04-06T11:40:40Z</time></trkpt><trkpt lat="37.268962555886205" lon="14.852634495614282"><ele>129.0</ele><time>2026-04-06T11:40:41Z</time></trkpt><trkpt lat="37.26903358675902" lon="14.852636610922046"><ele>129.0</ele><time>2026-04-06T11:40:42Z</time></trkpt><trkpt lat="37.26914931599772" lon="14.85264891584793"><ele>129.0</ele><time>2026-04-06T11:40:44Z</time></trkpt><trkpt lat="37.26925873120474" lon="14.85265350638541"><ele>129.0</ele><time>2026-04-06T11:40:46Z</time></trkpt><trkpt lat="37.26934079924026" lon="14.852660828532043"><ele>129.2</ele><time>2026-04-06T11:40:48Z</time></trkpt><trkpt lat="37.269418929288655" lon="14.85264215379749"><ele>129.4</ele><time>2026-04-06T11:40:51Z</time></trkpt><trkpt lat="37.269434171983235" lon="14.85252372957454"><ele>129.6</ele><time>2026-04-06T11:40:54Z</time></trkpt><trkpt lat="37.26943428087684" lon="14.852392727066125"><ele>129.8</ele><time>2026-04-06T11:40:56Z</time></trkpt><trkpt lat="37.269448601999784" lon="14.852260893988568"><ele>130.0</ele><time>2026-04-06T11:40:58Z</time></trkpt><trkpt lat="37.26945258416074" lon="14.852130654490377"><ele>130.0</ele><time>2026-04-06T11:41:00Z</time></trkpt><trkpt lat="37.26945711972254" lon="14.852001894659589"><ele>130.0</ele><time>2026-04-06T11:41:02Z</time></trkpt><trkpt lat="37.26945112934115" lon="14.851893924332966"><ele>130.0</ele><time>2026-04-06T11:41:04Z</time></trkpt><trkpt lat="37.269394267136136" lon="14.851830834469459"><ele>130.0</ele><time>2026-04-06T11:41:07Z</time></trkpt><trkpt lat="37.26932473747348" lon="14.851786007736433"><ele>130.0</ele><time>2026-04-06T11:41:10Z</time></trkpt><trkpt lat="37.26932199812269" lon="14.851664730127863"><ele>130.0</ele><time>2026-04-06T11:41:13Z</time></trkpt><trkpt lat="37.269333412373804" lon="14.85155168007731"><ele>130.6</ele><time>2026-04-06T11:41:15Z</time></trkpt><trkpt lat="37.269342975646744" lon="14.851410464950968"><ele>131.2</ele><time>2026-04-06T11:41:17Z</time></trkpt><trkpt lat="37.26934804361809" lon="14.851295280010158"><ele>131.8</ele><time>2026-04-06T11:41:19Z</time></trkpt><trkpt lat="37.269347408933264" lon="14.851191412570701"><ele>132.4</ele><time>2026-04-06T11:41:21Z</time></trkpt><trkpt lat="37.2693440319571" lon="14.851087091608507"><ele>133.0</ele><time>2026-04-06T11:41:23Z</time></trkpt><trkpt lat="37.26935347481265" lon="14.850983245058076"><ele>133.4</ele><time>2026-04-06T11:41:25Z</time></trkpt><trkpt lat="37.269362602182156" lon="14.85084302600597"><ele>133.8</ele><time>2026-04-06T11:41:27Z</time></trkpt><trkpt lat="37.269371413164144" lon="14.850716087749076"><ele>134.2</ele><time>2026-04-06T11:41:29Z</time></trkpt><trkpt lat="37.26938804192183" lon="14.850609264332316"><ele>134.6</ele><time>2026-04-06T11:41:31Z</time></trkpt><trkpt lat="37.26938777850237" lon="14.85050174569799"><ele>135.0</ele><time>2026-04-06T11:41:33Z</time></trkpt><trkpt lat="37.269396938606526" lon="14.850378334123585"><ele>135.0</ele><time>2026-04-06T11:41:35Z</time></trkpt><trkpt lat="37.269394316510876" lon="14.85025180091324"><ele>135.0</ele><time>2026-04-06T11:41:37Z</time></trkpt><trkpt lat="37.26937825381834" lon="14.850150811821504"><ele>135.0</ele><time>2026-04-06T11:41:39Z</time></trkpt><trkpt lat="37.26941242669978" lon="14.85006502158505"><ele>135.0</ele><time>2026-04-06T11:41:42Z</time></trkpt><trkpt lat="37.26947912757419" lon="14.850029243316175"><ele>135.0</ele><time>2026-04-06T11:41:44Z</time></trkpt><trkpt lat="37.269582146357955" lon="14.85004291685595"><ele>135.0</ele><time>2026-04-06T11:41:46Z</time></trkpt><trkpt lat="37.26964575616848" lon="14.850049218217642"><ele>135.6</ele><time>2026-04-06T11:41:47Z</time></trkpt><trkpt lat="37.269750996466286" lon="14.850018889899244"><ele>136.2</ele><time>2026-04-06T11:41:49Z</time></trkpt><trkpt lat="37.26977721766038" lon="14.849921049633135"><ele>136.8</ele><time>2026-04-06T11:41:51Z</time></trkpt><trkpt lat="37.26976716100695" lon="14.849805559111477"><ele>137.4</ele><time>2026-04-06T11:41:53Z</time></trkpt><trkpt lat="37.26974050402592" lon="14.849684796662862"><ele>138.0</ele><time>2026-04-06T11:41:55Z</time></trkpt><trkpt lat="37.2697314253898" lon="14.849538337309117"><ele>138.0</ele><time>2026-04-06T11:41:57Z</time></trkpt><trkpt lat="37.26972272147202" lon="14.84939004576366"><ele>138.0</ele><time>2026-04-06T11:41:59Z</time></trkpt><trkpt lat="37.26971536877838" lon="14.849258406636869"><ele>138.0</ele><time>2026-04-06T11:42:01Z</time></trkpt><trkpt lat="37.26972814193117" lon="14.84914648992264"><ele>138.0</ele><time>2026-04-06T11:42:03Z</time></trkpt><trkpt lat="37.269723892749575" lon="14.848977055418153"><ele>138.0</ele><time>2026-04-06T11:42:05Z</time></trkpt><trkpt lat="37.269715924740545" lon="14.848884760682548"><ele>138.83333333333334</ele><time>2026-04-06T11:42:06Z</time></trkpt><trkpt lat="37.26970816062493" lon="14.848802456988981"><ele>139.66666666666666</ele><time>2026-04-06T11:42:07Z</time></trkpt><trkpt lat="37.26970495584087" lon="14.848718253067382"><ele>140.5</ele><time>2026-04-06T11:42:08Z</time></trkpt><trkpt lat="37.26969799045056" lon="14.84863466260297"><ele>141.33333333333331</ele><time>2026-04-06T11:42:09Z</time></trkpt><trkpt lat="37.26968436346623" lon="14.848479395758545"><ele>142.16666666666666</ele><time>2026-04-06T11:42:11Z</time></trkpt><trkpt lat="37.26967597085148" lon="14.848400402456834"><ele>143.0</ele><time>2026-04-06T11:42:12Z</time></trkpt><trkpt lat="37.269662894589416" lon="14.84826265873389"><ele>143.66666666666666</ele><time>2026-04-06T11:42:14Z</time></trkpt><trkpt lat="37.26964986630388" lon="14.848108125167435"><ele>144.33333333333331</ele><time>2026-04-06T11:42:16Z</time></trkpt><trkpt lat="37.269642334296485" lon="14.848019946228929"><ele>145.0</ele><time>2026-04-06T11:42:17Z</time></trkpt><trkpt lat="37.26963467125563" lon="14.847932348421221"><ele>145.66666666666666</ele><time>2026-04-06T11:42:18Z</time></trkpt><trkpt lat="37.269627055599045" lon="14.847842610330908"><ele>146.33333333333334</ele><time>2026-04-06T11:42:19Z</time></trkpt><trkpt lat="37.26961930972425" lon="14.847756109651206"><ele>147.0</ele><time>2026-04-06T11:42:20Z</time></trkpt><trkpt lat="37.2696102165586" lon="14.847659418414064"><ele>147.85714285714286</ele><time>2026-04-06T11:42:21Z</time></trkpt><trkpt lat="37.269601406385554" lon="14.847563620882472"><ele>148.71428571428572</ele><time>2026-04-06T11:42:22Z</time></trkpt><trkpt lat="37.26959143561193" lon="14.847469843287755"><ele>149.57142857142856</ele><time>2026-04-06T11:42:23Z</time></trkpt><trkpt lat="37.26958326519069" lon="14.847377866360986"><ele>150.42857142857144</ele><time>2026-04-06T11:42:24Z</time></trkpt><trkpt lat="37.26957491344134" lon="14.847287376040402"><ele>151.28571428571428</ele><time>2026-04-06T11:42:25Z</time></trkpt><trkpt lat="37.26956619528922" lon="14.847205501027906"><ele>152.14285714285714</ele><time>2026-04-06T11:42:26Z</time></trkpt><trkpt lat="37.269557599348005" lon="14.847122725051038"><ele>153.0</ele><time>2026-04-06T11:42:27Z</time></trkpt><trkpt lat="37.26954963553604" lon="14.847038045286897"><ele>153.0</ele><time>2026-04-06T11:42:28Z</time></trkpt><trkpt lat="37.26954235406845" lon="14.846954342610472"><ele>153.0</ele><time>2026-04-06T11:42:29Z</time></trkpt><trkpt lat="37.269539237321645" lon="14.846869428424526"><ele>153.0</ele><time>2026-04-06T11:42:30Z</time></trkpt><trkpt lat="37.26953186910784" lon="14.846786348936421"><ele>153.0</ele><time>2026-04-06T11:42:31Z</time></trkpt><trkpt lat="37.269504776198346" lon="14.846643168322894"><ele>153.0</ele><time>2026-04-06T11:42:33Z</time></trkpt><trkpt lat="37.269490751929496" lon="14.846537046969946"><ele>153.0</ele><time>2026-04-06T11:42:35Z</time></trkpt><trkpt lat="37.26952228993776" lon="14.846423422510297"><ele>153.5</ele><time>2026-04-06T11:42:37Z</time></trkpt><trkpt lat="37.26959529466819" lon="14.846319642869375"><ele>154.0</ele><time>2026-04-06T11:42:39Z</time></trkpt><trkpt lat="37.26967168447489" lon="14.846232832378416"><ele>154.5</ele><time>2026-04-06T11:42:41Z</time></trkpt><trkpt lat="37.26972715890393" lon="14.846188629228358"><ele>155.0</ele><time>2026-04-06T11:42:43Z</time></trkpt><trkpt lat="37.26979279456948" lon="14.846180924124017"><ele>155.5</ele><time>2026-04-06T11:42:46Z</time></trkpt><trkpt lat="37.2698520773014" lon="14.846218446911449"><ele>156.0</ele><time>2026-04-06T11:42:49Z</time></trkpt><trkpt lat="37.26990938282092" lon="14.846272611940552"><ele>156.0</ele><time>2026-04-06T11:42:51Z</time></trkpt><trkpt lat="37.26998241877268" lon="14.846356100869862"><ele>156.0</ele><time>2026-04-06T11:42:53Z</time></trkpt><trkpt lat="37.27005881026172" lon="14.846447910653962"><ele>156.0</ele><time>2026-04-06T11:42:55Z</time></trkpt><trkpt lat="37.27013136128001" lon="14.846558401730634"><ele>156.0</ele><time>2026-04-06T11:42:57Z</time></trkpt><trkpt lat="37.27016908550207" lon="14.846624480825941"><ele>156.0</ele><time>2026-04-06T11:42:58Z</time></trkpt><trkpt lat="37.27020940038201" lon="14.846693148368335"><ele>156.0</ele><time>2026-04-06T11:42:59Z</time></trkpt><trkpt lat="37.27024972407459" lon="14.846760692447369"><ele>156.0</ele><time>2026-04-06T11:43:00Z</time></trkpt><trkpt lat="37.27032312976241" lon="14.84687867007604"><ele>156.0</ele><time>2026-04-06T11:43:02Z</time></trkpt><trkpt lat="37.270379255776724" lon="14.846992951941662"><ele>156.0</ele><time>2026-04-06T11:43:04Z</time></trkpt><trkpt lat="37.27043134674473" lon="14.847107106184463"><ele>156.0</ele><time>2026-04-06T11:43:06Z</time></trkpt><trkpt lat="37.27047325376489" lon="14.847225977901541"><ele>154.5</ele><time>2026-04-06T11:43:08Z</time></trkpt><trkpt lat="37.27049634271013" lon="14.847355022293018"><ele>153.0</ele><time>2026-04-06T11:43:09.999Z</time></trkpt><trkpt lat="37.27050937031655" lon="14.847498470444771"><ele>151.5</ele><time>2026-04-06T11:43:11.999Z</time></trkpt><trkpt lat="37.270518792610766" lon="14.847642594195584"><ele>150.0</ele><time>2026-04-06T11:43:13.999Z</time></trkpt><trkpt lat="37.27052801949471" lon="14.84779060173778"><ele>149.2</ele><time>2026-04-06T11:43:15.999Z</time></trkpt><trkpt lat="37.270533219297945" lon="14.847873498829085"><ele>148.4</ele><time>2026-04-06T11:43:16.999Z</time></trkpt><trkpt lat="37.27053841178346" lon="14.847952385955105"><ele>147.6</ele><time>2026-04-06T11:43:17.999Z</time></trkpt><trkpt lat="37.27055162592569" lon="14.848095924156597"><ele>146.8</ele><time>2026-04-06T11:43:19.999Z</time></trkpt><trkpt lat="37.27057008960927" lon="14.848235229299082"><ele>146.0</ele><time>2026-04-06T11:43:21.999Z</time></trkpt><trkpt lat="37.27060273401831" lon="14.848370169714014"><ele>144.5</ele><time>2026-04-06T11:43:23.999Z</time></trkpt><trkpt lat="37.270641904756836" lon="14.848498227506308"><ele>143.0</ele><time>2026-04-06T11:43:26Z</time></trkpt><trkpt lat="37.27069365875532" lon="14.848631419175964"><ele>141.5</ele><time>2026-04-06T11:43:28Z</time></trkpt><trkpt lat="37.27074546510862" lon="14.848766329390614"><ele>140.0</ele><time>2026-04-06T11:43:30Z</time></trkpt><trkpt lat="37.27080497451505" lon="14.84889818939764"><ele>140.0</ele><time>2026-04-06T11:43:32Z</time></trkpt><trkpt lat="37.27087493374301" lon="14.849030602360429"><ele>140.0</ele><time>2026-04-06T11:43:34Z</time></trkpt><trkpt lat="37.27092043903131" lon="14.849105209086003"><ele>140.0</ele><time>2026-04-06T11:43:35Z</time></trkpt><trkpt lat="37.270975426692466" lon="14.84918559404139"><ele>140.0</ele><time>2026-04-06T11:43:36Z</time></trkpt><trkpt lat="37.271032925467004" lon="14.849270224364082"><ele>140.0</ele><time>2026-04-06T11:43:37Z</time></trkpt><trkpt lat="37.271086925986104" lon="14.849351946541068"><ele>139.28571428571428</ele><time>2026-04-06T11:43:38Z</time></trkpt><trkpt lat="37.27113344728732" lon="14.849430425466323"><ele>138.57142857142856</ele><time>2026-04-06T11:43:39Z</time></trkpt><trkpt lat="37.27117381694024" lon="14.849503657915749"><ele>137.85714285714286</ele><time>2026-04-06T11:43:40Z</time></trkpt><trkpt lat="37.27121156476086" lon="14.849570615692205"><ele>137.14285714285714</ele><time>2026-04-06T11:43:41Z</time></trkpt><trkpt lat="37.27125123131446" lon="14.849637240759664"><ele>136.42857142857142</ele><time>2026-04-06T11:43:42Z</time></trkpt><trkpt lat="37.271293722406355" lon="14.84970465944225"><ele>135.71428571428572</ele><time>2026-04-06T11:43:43Z</time></trkpt><trkpt lat="37.27133512386312" lon="14.849773228588734"><ele>135.0</ele><time>2026-04-06T11:43:44Z</time></trkpt><trkpt lat="37.2713748934231" lon="14.849843506639523"><ele>135.0</ele><time>2026-04-06T11:43:45Z</time></trkpt><trkpt lat="37.27143887759333" lon="14.849954901763462"><ele>135.0</ele><time>2026-04-06T11:43:47Z</time></trkpt><trkpt lat="37.271487759125165" lon="14.850093867582604"><ele>135.0</ele><time>2026-04-06T11:43:49Z</time></trkpt><trkpt lat="37.27151863144394" lon="14.850255862460545"><ele>135.0</ele><time>2026-04-06T11:43:51Z</time></trkpt><trkpt lat="37.271673734270045" lon="14.850313968553916"><ele>134.2</ele><time>2026-04-06T11:43:52Z</time></trkpt><trkpt lat="37.27169381104398" lon="14.85046931457486"><ele>133.4</ele><time>2026-04-06T11:43:54Z</time></trkpt><trkpt lat="37.27172628403776" lon="14.850600886849188"><ele>132.6</ele><time>2026-04-06T11:43:56Z</time></trkpt><trkpt lat="37.27176902636421" lon="14.850711101626535"><ele>131.8</ele><time>2026-04-06T11:43:58Z</time></trkpt><trkpt lat="37.27182522348043" lon="14.850833081157077"><ele>131.0</ele><time>2026-04-06T11:44:00Z</time></trkpt><trkpt lat="37.27188829221346" lon="14.850950837601154"><ele>129.8</ele><time>2026-04-06T11:44:02Z</time></trkpt><trkpt lat="37.271949309494765" lon="14.851034104861055"><ele>128.6</ele><time>2026-04-06T11:44:04Z</time></trkpt><trkpt lat="37.2720106057866" lon="14.85115084864668"><ele>127.4</ele><time>2026-04-06T11:44:07Z</time></trkpt><trkpt lat="37.27206552604639" lon="14.851272444361399"><ele>126.2</ele><time>2026-04-06T11:44:09Z</time></trkpt><trkpt lat="37.27213427495187" lon="14.851417145089538"><ele>125.0</ele><time>2026-04-06T11:44:11Z</time></trkpt><trkpt lat="37.272175125026244" lon="14.8514969925126"><ele>125.0</ele><time>2026-04-06T11:44:12Z</time></trkpt><trkpt lat="37.27221577510579" lon="14.851576449194265"><ele>125.0</ele><time>2026-04-06T11:44:13Z</time></trkpt><trkpt lat="37.27225178790739" lon="14.851646841368758"><ele>125.0</ele><time>2026-04-06T11:44:14Z</time></trkpt><trkpt lat="37.272321376228476" lon="14.851775159498871"><ele>125.0</ele><time>2026-04-06T11:44:16Z</time></trkpt><trkpt lat="37.27238483498196" lon="14.851890354075866"><ele>125.0</ele><time>2026-04-06T11:44:18Z</time></trkpt><trkpt lat="37.27241968374247" lon="14.851970607991657"><ele>125.2</ele><time>2026-04-06T11:44:19Z</time></trkpt><trkpt lat="37.27246909617681" lon="14.852114644379906"><ele>125.4</ele><time>2026-04-06T11:44:21Z</time></trkpt><trkpt lat="37.27250918073464" lon="14.852264995625633"><ele>125.6</ele><time>2026-04-06T11:44:23Z</time></trkpt><trkpt lat="37.27252884005236" lon="14.852348208970943"><ele>125.8</ele><time>2026-04-06T11:44:24Z</time></trkpt><trkpt lat="37.27254619772801" lon="14.852433887801878"><ele>126.0</ele><time>2026-04-06T11:44:25Z</time></trkpt><trkpt lat="37.272561946107594" lon="14.852513809659166"><ele>126.0</ele><time>2026-04-06T11:44:26Z</time></trkpt><trkpt lat="37.27256600782877" lon="14.852595739456202"><ele>126.0</ele><time>2026-04-06T11:44:27Z</time></trkpt><trkpt lat="37.272596003650776" lon="14.852703335347416"><ele>126.0</ele><time>2026-04-06T11:44:29Z</time></trkpt><trkpt lat="37.27261077707697" lon="14.852814827858811"><ele>126.0</ele><time>2026-04-06T11:44:42Z</time></trkpt><trkpt lat="37.27262321963032" lon="14.852899955499968"><ele>126.0</ele><time>2026-04-06T11:44:44Z</time></trkpt><trkpt lat="37.27263893832609" lon="14.852989430820577"><ele>126.0</ele><time>2026-04-06T11:44:46Z</time></trkpt><trkpt lat="37.27265865362344" lon="14.853084129458528"><ele>125.42857142857143</ele><time>2026-04-06T11:44:48Z</time></trkpt><trkpt lat="37.272679569692734" lon="14.853177048283365"><ele>124.85714285714286</ele><time>2026-04-06T11:44:51Z</time></trkpt><trkpt lat="37.2727007039265" lon="14.85326432764188"><ele>124.28571428571428</ele><time>2026-04-06T11:44:53Z</time></trkpt><trkpt lat="37.272727206662914" lon="14.853356888397204"><ele>123.71428571428571</ele><time>2026-04-06T11:44:56Z</time></trkpt><trkpt lat="37.27274849078371" lon="14.853435438773728"><ele>123.14285714285714</ele><time>2026-04-06T11:45:00Z</time></trkpt><trkpt lat="37.27277207247878" lon="14.853516549073792"><ele>122.57142857142856</ele><time>2026-04-06T11:45:03Z</time></trkpt><trkpt lat="37.27284705632369" lon="14.853562323762873"><ele>121.99999999999999</ele><time>2026-04-06T11:45:05Z</time></trkpt><trkpt lat="37.27294141051381" lon="14.85351229622541"><ele>120.75</ele><time>2026-04-06T11:45:07Z</time></trkpt><trkpt lat="37.273042834012806" lon="14.8534673678002"><ele>119.5</ele><time>2026-04-06T11:45:09Z</time></trkpt><trkpt lat="37.273154351462026" lon="14.853410641504983"><ele>118.25</ele><time>2026-04-06T11:45:11Z</time></trkpt><trkpt lat="37.27326639327456" lon="14.853351385581165"><ele>117.0</ele><time>2026-04-06T11:45:13Z</time></trkpt><trkpt lat="37.27337310732931" lon="14.853292792922854"><ele>117.0</ele><time>2026-04-06T11:45:14.999Z</time></trkpt><trkpt lat="37.27347565309768" lon="14.85323590327578"><ele>116.99999999999999</ele><time>2026-04-06T11:45:16.999Z</time></trkpt><trkpt lat="37.273573371012716" lon="14.853178679420266"><ele>116.99999999999999</ele><time>2026-04-06T11:45:18.999Z</time></trkpt><trkpt lat="37.273666523379426" lon="14.853139639000691"><ele>117.0</ele><time>2026-04-06T11:45:20.999Z</time></trkpt><trkpt lat="37.2737538328223" lon="14.853136757554223"><ele>117.0</ele><time>2026-04-06T11:45:23Z</time></trkpt><trkpt lat="37.27384754928848" lon="14.853121556588528"><ele>115.83333333333333</ele><time>2026-04-06T11:45:25Z</time></trkpt><trkpt lat="37.27396182237762" lon="14.85313406858729"><ele>114.66666666666666</ele><time>2026-04-06T11:45:27Z</time></trkpt><trkpt lat="37.27402102090034" lon="14.853165103629294"><ele>113.5</ele><time>2026-04-06T11:45:28Z</time></trkpt><trkpt lat="37.2740872120865" lon="14.853178236662735"><ele>112.33333333333333</ele><time>2026-04-06T11:45:29Z</time></trkpt><trkpt lat="37.27415316535149" lon="14.853192726143769"><ele>111.16666666666666</ele><time>2026-04-06T11:45:30Z</time></trkpt><trkpt lat="37.274227852061664" lon="14.853209134261672"><ele>110.0</ele><time>2026-04-06T11:45:31Z</time></trkpt><trkpt lat="37.27430894460548" lon="14.853224787099027"><ele>109.99999999999999</ele><time>2026-04-06T11:45:32Z</time></trkpt><trkpt lat="37.27439533269154" lon="14.853238850084796"><ele>110.0</ele><time>2026-04-06T11:45:33Z</time></trkpt><trkpt lat="37.27447482239489" lon="14.853251913066412"><ele>110.0</ele><time>2026-04-06T11:45:34Z</time></trkpt><trkpt lat="37.27455463888703" lon="14.853265029770478"><ele>110.0</ele><time>2026-04-06T11:45:35Z</time></trkpt><trkpt lat="37.274631546965985" lon="14.853276058278373"><ele>109.99999999999999</ele><time>2026-04-06T11:45:36Z</time></trkpt><trkpt lat="37.27469837208565" lon="14.853265360356437"><ele>110.0</ele><time>2026-04-06T11:45:37Z</time></trkpt><trkpt lat="37.274763717371" lon="14.853278611433062"><ele>110.4</ele><time>2026-04-06T11:45:38Z</time></trkpt><trkpt lat="37.27487196608452" lon="14.853318275910347"><ele>110.8</ele><time>2026-04-06T11:45:40Z</time></trkpt><trkpt lat="37.27496240482805" lon="14.853385886300888"><ele>111.19999999999999</ele><time>2026-04-06T11:45:42Z</time></trkpt><trkpt lat="37.27502661741251" lon="14.853512712331309"><ele>111.6</ele><time>2026-04-06T11:45:44Z</time></trkpt><trkpt lat="37.275066254648884" lon="14.853586070991138"><ele>112.0</ele><time>2026-04-06T11:45:45Z</time></trkpt><trkpt lat="37.27510915308482" lon="14.85366911723416"><ele>112.00000000000001</ele><time>2026-04-06T11:45:46Z</time></trkpt><trkpt lat="37.27516047466764" lon="14.85375565030343"><ele>112.0</ele><time>2026-04-06T11:45:47Z</time></trkpt><trkpt lat="37.27521142259986" lon="14.85383596372171"><ele>112.0</ele><time>2026-04-06T11:45:48Z</time></trkpt><trkpt lat="37.275263814431376" lon="14.853908243173217"><ele>112.0</ele><time>2026-04-06T11:45:49Z</time></trkpt><trkpt lat="37.275323304700805" lon="14.853969695842748"><ele>112.00000000000001</ele><time>2026-04-06T11:45:50Z</time></trkpt><trkpt lat="37.27538326058923" lon="14.85401906886854"><ele>112.0</ele><time>2026-04-06T11:45:51Z</time></trkpt><trkpt lat="37.27544727515934" lon="14.854061698823822"><ele>112.00000000000001</ele><time>2026-04-06T11:45:52Z</time></trkpt><trkpt lat="37.27550391605628" lon="14.854096402220444"><ele>112.0</ele><time>2026-04-06T11:45:53Z</time></trkpt><trkpt lat="37.27556658216012" lon="14.85412601831323"><ele>112.0</ele><time>2026-04-06T11:45:54Z</time></trkpt><trkpt lat="37.27562680881722" lon="14.854152327136338"><ele>112.0</ele><time>2026-04-06T11:45:55Z</time></trkpt><trkpt lat="37.27574205405837" lon="14.854198751576664"><ele>112.00000000000001</ele><time>2026-04-06T11:45:57Z</time></trkpt><trkpt lat="37.27585907430353" lon="14.854229129294987"><ele>112.0</ele><time>2026-04-06T11:45:59Z</time></trkpt><trkpt lat="37.27596644997374" lon="14.854253209848475"><ele>112.50000000000001</ele><time>2026-04-06T11:46:01Z</time></trkpt><trkpt lat="37.27608892858112" lon="14.854269393479102"><ele>113.0</ele><time>2026-04-06T11:46:03Z</time></trkpt><trkpt lat="37.27615557219148" lon="14.854269557776112"><ele>113.5</ele><time>2026-04-06T11:46:04Z</time></trkpt><trkpt lat="37.27622316201193" lon="14.85426054255518"><ele>114.0</ele><time>2026-04-06T11:46:05Z</time></trkpt><trkpt lat="37.27629571298013" lon="14.854246015780262"><ele>114.50000000000001</ele><time>2026-04-06T11:46:06Z</time></trkpt><trkpt lat="37.27637114093336" lon="14.854228067061769"><ele>115.0</ele><time>2026-04-06T11:46:07Z</time></trkpt><trkpt lat="37.276450090571146" lon="14.854204701523638"><ele>115.00000000000001</ele><time>2026-04-06T11:46:08Z</time></trkpt><trkpt lat="37.27652808654661" lon="14.85417967772574"><ele>115.0</ele><time>2026-04-06T11:46:09Z</time></trkpt><trkpt lat="37.27660514339081" lon="14.854154700455005"><ele>115.0</ele><time>2026-04-06T11:46:10Z</time></trkpt><trkpt lat="37.2766805835031" lon="14.85413024729595"><ele>115.0</ele><time>2026-04-06T11:46:11Z</time></trkpt><trkpt lat="37.27675489488432" lon="14.854106396554224"><ele>115.00000000000001</ele><time>2026-04-06T11:46:12Z</time></trkpt><trkpt lat="37.276832828093994" lon="14.85408271963539"><ele>115.0</ele><time>2026-04-06T11:46:13Z</time></trkpt><trkpt lat="37.27690628273173" lon="14.854061903457072"><ele>114.99999999999999</ele><time>2026-04-06T11:46:14Z</time></trkpt><trkpt lat="37.27698086253897" lon="14.854040935584036"><ele>115.0</ele><time>2026-04-06T11:46:15Z</time></trkpt><trkpt lat="37.27705464870529" lon="14.854020796736918"><ele>114.99999999999999</ele><time>2026-04-06T11:46:16Z</time></trkpt><trkpt lat="37.27712863123332" lon="14.85400133855565"><ele>114.99999999999999</ele><time>2026-04-06T11:46:17Z</time></trkpt><trkpt lat="37.27719941805958" lon="14.853982720867542"><ele>115.0</ele><time>2026-04-06T11:46:18Z</time></trkpt><trkpt lat="37.27726962300164" lon="14.85396425624376"><ele>114.99999999999999</ele><time>2026-04-06T11:46:19Z</time></trkpt><trkpt lat="37.27733729429947" lon="14.85394707685427"><ele>114.99999999999999</ele><time>2026-04-06T11:46:20Z</time></trkpt><trkpt lat="37.277408564999035" lon="14.853928995919615"><ele>114.83333333333334</ele><time>2026-04-06T11:46:21Z</time></trkpt><trkpt lat="37.27748906559256" lon="14.853908573435636"><ele>114.66666666666667</ele><time>2026-04-06T11:46:22Z</time></trkpt><trkpt lat="37.27757347677596" lon="14.853887158852354"><ele>114.5</ele><time>2026-04-06T11:46:23Z</time></trkpt><trkpt lat="37.27765673575053" lon="14.853866036572269"><ele>114.33333333333334</ele><time>2026-04-06T11:46:24Z</time></trkpt><trkpt lat="37.277739617255264" lon="14.853845010051524"><ele>114.16666666666667</ele><time>2026-04-06T11:46:25Z</time></trkpt><trkpt lat="37.27781683037256" lon="14.853825421573044"><ele>114.0</ele><time>2026-04-06T11:46:26Z</time></trkpt><trkpt lat="37.277896070580425" lon="14.853806668569213"><ele>114.0</ele><time>2026-04-06T11:46:27Z</time></trkpt><trkpt lat="37.277972476508715" lon="14.853788750187082"><ele>114.0</ele><time>2026-04-06T11:46:28Z</time></trkpt><trkpt lat="37.27804705560793" lon="14.853771260228328"><ele>114.0</ele><time>2026-04-06T11:46:29Z</time></trkpt><trkpt lat="37.27812171213562" lon="14.853753752090693"><ele>114.0</ele><time>2026-04-06T11:46:30Z</time></trkpt><trkpt lat="37.27819130787899" lon="14.853737430807033"><ele>114.0</ele><time>2026-04-06T11:46:31Z</time></trkpt><trkpt lat="37.2782660796903" lon="14.853720353832315"><ele>114.0</ele><time>2026-04-06T11:46:32Z</time></trkpt><trkpt lat="37.278338915462335" lon="14.853703804499194"><ele>114.0</ele><time>2026-04-06T11:46:33Z</time></trkpt><trkpt lat="37.278412191806254" lon="14.853687155073153"><ele>114.0</ele><time>2026-04-06T11:46:34Z</time></trkpt><trkpt lat="37.27848468156549" lon="14.85367068434613"><ele>114.0</ele><time>2026-04-06T11:46:35Z</time></trkpt><trkpt lat="37.27854759509294" lon="14.853656389488677"><ele>114.0</ele><time>2026-04-06T11:46:36Z</time></trkpt><trkpt lat="37.27864558821777" lon="14.853633915981305"><ele>114.0</ele><time>2026-04-06T11:46:38Z</time></trkpt><trkpt lat="37.278737916989996" lon="14.853612573677706"><ele>114.0</ele><time>2026-04-06T11:46:40Z</time></trkpt><trkpt lat="37.27882580751666" lon="14.853592257300509"><ele>114.0</ele><time>2026-04-06T11:46:42Z</time></trkpt><trkpt lat="37.27889730084677" lon="14.853575095013976"><ele>114.0</ele><time>2026-04-06T11:46:44Z</time></trkpt><trkpt lat="37.278972193330716" lon="14.85355593067369"><ele>114.0</ele><time>2026-04-06T11:46:46Z</time></trkpt><trkpt lat="37.279053225732596" lon="14.853535128368637"><ele>114.0</ele><time>2026-04-06T11:46:48Z</time></trkpt><trkpt lat="37.27913768509153" lon="14.853511729380465"><ele>114.0</ele><time>2026-04-06T11:46:50Z</time></trkpt><trkpt lat="37.2792419656357" lon="14.853482838978568"><ele>114.0</ele><time>2026-04-06T11:46:52Z</time></trkpt><trkpt lat="37.27935575462562" lon="14.853451314470004"><ele>114.0</ele><time>2026-04-06T11:46:54Z</time></trkpt><trkpt lat="37.279466018242594" lon="14.85342076659229"><ele>114.0</ele><time>2026-04-06T11:46:56Z</time></trkpt><trkpt lat="37.27955653793689" lon="14.853396631803854"><ele>114.0</ele><time>2026-04-06T11:46:58Z</time></trkpt><trkpt lat="37.27964518201236" lon="14.85337108763551"><ele>114.0</ele><time>2026-04-06T11:47:00Z</time></trkpt><trkpt lat="37.2797146279703" lon="14.853345485988315"><ele>114.0</ele><time>2026-04-06T11:47:02Z</time></trkpt><trkpt lat="37.279780791316725" lon="14.853343743048965"><ele>114.0</ele><time>2026-04-06T11:47:07Z</time></trkpt><trkpt lat="37.279702726798256" lon="14.85344325943356"><ele>113.0</ele><time>2026-04-06T11:47:10Z</time></trkpt><trkpt lat="37.27966247350855" lon="14.85353919135706"><ele>112.0</ele><time>2026-04-06T11:47:11Z</time></trkpt><trkpt lat="37.27963503969183" lon="14.853619658988547"><ele>111.0</ele><time>2026-04-06T11:47:12Z</time></trkpt><trkpt lat="37.279639054326395" lon="14.853729356775812"><ele>110.0</ele><time>2026-04-06T11:47:13Z</time></trkpt><trkpt lat="37.27962569144594" lon="14.853849115025977"><ele>109.0</ele><time>2026-04-06T11:47:14Z</time></trkpt><trkpt lat="37.279619156776825" lon="14.85396450701243"><ele>108.0</ele><time>2026-04-06T11:47:15Z</time></trkpt><trkpt lat="37.27959408159562" lon="14.85409107094828"><ele>108.0</ele><time>2026-04-06T11:47:16Z</time></trkpt><trkpt lat="37.279585261914804" lon="14.854228600606312"><ele>108.00000000000001</ele><time>2026-04-06T11:47:17Z</time></trkpt><trkpt lat="37.27959125796076" lon="14.854361332569605"><ele>108.00000000000001</ele><time>2026-04-06T11:47:18Z</time></trkpt><trkpt lat="37.279577077423916" lon="14.854488376918365"><ele>108.0</ele><time>2026-04-06T11:47:19Z</time></trkpt><trkpt lat="37.27956411839142" lon="14.854613725146535"><ele>108.0</ele><time>2026-04-06T11:47:20Z</time></trkpt><trkpt lat="37.279546828276985" lon="14.854739055089704"><ele>107.60000000000001</ele><time>2026-04-06T11:47:21Z</time></trkpt><trkpt lat="37.27952114854928" lon="14.854862417118815"><ele>107.20000000000002</ele><time>2026-04-06T11:47:22Z</time></trkpt><trkpt lat="37.27948674375786" lon="14.85498080407013"><ele>106.8</ele><time>2026-04-06T11:47:23Z</time></trkpt><trkpt lat="37.27944141865842" lon="14.855101339343369"><ele>106.4</ele><time>2026-04-06T11:47:24Z</time></trkpt><trkpt lat="37.27938278056756" lon="14.855232141422992"><ele>106.0</ele><time>2026-04-06T11:47:25Z</time></trkpt><trkpt lat="37.27931561120801" lon="14.855368744184673"><ele>105.0</ele><time>2026-04-06T11:47:26Z</time></trkpt><trkpt lat="37.279252353620905" lon="14.85549885576644"><ele>104.0</ele><time>2026-04-06T11:47:27Z</time></trkpt><trkpt lat="37.27918614913231" lon="14.855626471708586"><ele>103.0</ele><time>2026-04-06T11:47:28Z</time></trkpt><trkpt lat="37.279120782337465" lon="14.855756409166277"><ele>102.0</ele><time>2026-04-06T11:47:29Z</time></trkpt><trkpt lat="37.279057014917015" lon="14.855888697597853"><ele>101.5</ele><time>2026-04-06T11:47:30Z</time></trkpt><trkpt lat="37.27899245262965" lon="14.856020667300342"><ele>101.0</ele><time>2026-04-06T11:47:31Z</time></trkpt><trkpt lat="37.27891248563383" lon="14.856141484495023"><ele>100.5</ele><time>2026-04-06T11:47:32Z</time></trkpt><trkpt lat="37.278855139781314" lon="14.856282393416283"><ele>100.0</ele><time>2026-04-06T11:47:33Z</time></trkpt><trkpt lat="37.278787822955856" lon="14.856415590174569"><ele>99.75</ele><time>2026-04-06T11:47:34Z</time></trkpt><trkpt lat="37.27872120054601" lon="14.856548538300085"><ele>99.5</ele><time>2026-04-06T11:47:35Z</time></trkpt><trkpt lat="37.27864902433541" lon="14.856678334031256"><ele>99.25</ele><time>2026-04-06T11:47:36Z</time></trkpt><trkpt lat="37.278571381631835" lon="14.856807309740601"><ele>99.0</ele><time>2026-04-06T11:47:37Z</time></trkpt><trkpt lat="37.27848865706385" lon="14.856931955428863"><ele>98.25</ele><time>2026-04-06T11:47:38Z</time></trkpt><trkpt lat="37.2784042016691" lon="14.857054131796446"><ele>97.5</ele><time>2026-04-06T11:47:39Z</time></trkpt><trkpt lat="37.27831772450109" lon="14.857174805817074"><ele>96.75</ele><time>2026-04-06T11:47:40Z</time></trkpt><trkpt lat="37.278224410573586" lon="14.85728827407146"><ele>96.0</ele><time>2026-04-06T11:47:41Z</time></trkpt><trkpt lat="37.27812929707357" lon="14.857399920888254"><ele>96.0</ele><time>2026-04-06T11:47:42Z</time></trkpt><trkpt lat="37.27802690704883" lon="14.857517877065241"><ele>96.0</ele><time>2026-04-06T11:47:43Z</time></trkpt><trkpt lat="37.27791875758031" lon="14.857643860765572"><ele>96.0</ele><time>2026-04-06T11:47:44Z</time></trkpt><trkpt lat="37.27780618391693" lon="14.857771497917197"><ele>96.0</ele><time>2026-04-06T11:47:45Z</time></trkpt><trkpt lat="37.27769138631954" lon="14.857897854417091"><ele>96.33333333333334</ele><time>2026-04-06T11:47:46Z</time></trkpt><trkpt lat="37.27757742037642" lon="14.858026843232205"><ele>96.66666666666667</ele><time>2026-04-06T11:47:47Z</time></trkpt><trkpt lat="37.27745329614676" lon="14.858162435816002"><ele>97.0</ele><time>2026-04-06T11:47:48Z</time></trkpt><trkpt lat="37.277325513846144" lon="14.858298351560284"><ele>97.33333333333334</ele><time>2026-04-06T11:47:49Z</time></trkpt><trkpt lat="37.277201131931484" lon="14.858434963254933"><ele>97.66666666666666</ele><time>2026-04-06T11:47:50Z</time></trkpt><trkpt lat="37.27708502308086" lon="14.858567758036813"><ele>98.0</ele><time>2026-04-06T11:47:51Z</time></trkpt><trkpt lat="37.27696656391829" lon="14.858701871183623"><ele>98.33333333333333</ele><time>2026-04-06T11:47:52Z</time></trkpt><trkpt lat="37.27684407439603" lon="14.858839373157148"><ele>98.66666666666666</ele><time>2026-04-06T11:47:53Z</time></trkpt><trkpt lat="37.27672227893571" lon="14.858976732027564"><ele>99.0</ele><time>2026-04-06T11:47:54Z</time></trkpt><trkpt lat="37.27660163936499" lon="14.859113045515292"><ele>99.0</ele><time>2026-04-06T11:47:55Z</time></trkpt><trkpt lat="37.27648273442899" lon="14.859243686251736"><ele>99.0</ele><time>2026-04-06T11:47:56Z</time></trkpt><trkpt lat="37.27636567304774" lon="14.859369665229494"><ele>99.0</ele><time>2026-04-06T11:47:57Z</time></trkpt><trkpt lat="37.276252520063146" lon="14.859492424985014"><ele>98.0</ele><time>2026-04-06T11:47:58Z</time></trkpt><trkpt lat="37.27614381214944" lon="14.859614182484393"><ele>97.0</ele><time>2026-04-06T11:47:59Z</time></trkpt><trkpt lat="37.27603674764106" lon="14.859736298520225"><ele>96.0</ele><time>2026-04-06T11:48:00Z</time></trkpt><trkpt lat="37.275928336139586" lon="14.85985460077707"><ele>95.0</ele><time>2026-04-06T11:48:01Z</time></trkpt><trkpt lat="37.275813804250085" lon="14.859967220465858"><ele>95.0</ele><time>2026-04-06T11:48:02Z</time></trkpt><trkpt lat="37.27569020239827" lon="14.86007668703521"><ele>95.0</ele><time>2026-04-06T11:48:03Z</time></trkpt><trkpt lat="37.27555805162421" lon="14.860185333241406"><ele>95.0</ele><time>2026-04-06T11:48:04Z</time></trkpt><trkpt lat="37.275421548437784" lon="14.860289575165785"><ele>94.66666666666667</ele><time>2026-04-06T11:48:05Z</time></trkpt><trkpt lat="37.27528004858854" lon="14.860389907758137"><ele>94.33333333333333</ele><time>2026-04-06T11:48:06Z</time></trkpt><trkpt lat="37.27513714859692" lon="14.860478076766643"><ele>94.0</ele><time>2026-04-06T11:48:07Z</time></trkpt><trkpt lat="37.27499108226504" lon="14.860556534852824"><ele>94.0</ele><time>2026-04-06T11:48:08Z</time></trkpt><trkpt lat="37.27484057872447" lon="14.860626863917942"><ele>94.0</ele><time>2026-04-06T11:48:09Z</time></trkpt><trkpt lat="37.2746847880984" lon="14.86068747890833"><ele>94.0</ele><time>2026-04-06T11:48:10Z</time></trkpt><trkpt lat="37.27452621580193" lon="14.860739880461074"><ele>94.0</ele><time>2026-04-06T11:48:11Z</time></trkpt><trkpt lat="37.27436452074468" lon="14.860786983115993"><ele>94.0</ele><time>2026-04-06T11:48:12Z</time></trkpt><trkpt lat="37.27419923999222" lon="14.860825555787665"><ele>94.0</ele><time>2026-04-06T11:48:13Z</time></trkpt><trkpt lat="37.27403249374582" lon="14.860855559969291"><ele>94.66666666666666</ele><time>2026-04-06T11:48:14Z</time></trkpt><trkpt lat="37.27386390915269" lon="14.86088262026825"><ele>95.33333333333333</ele><time>2026-04-06T11:48:15Z</time></trkpt><trkpt lat="37.27369517293738" lon="14.860913392919773"><ele>96.0</ele><time>2026-04-06T11:48:16Z</time></trkpt><trkpt lat="37.27353085727635" lon="14.860948653012757"><ele>95.33333333333333</ele><time>2026-04-06T11:48:17Z</time></trkpt><trkpt lat="37.27336686930185" lon="14.860994287186896"><ele>94.66666666666666</ele><time>2026-04-06T11:48:18Z</time></trkpt><trkpt lat="37.273204330812725" lon="14.861052506032879"><ele>94.0</ele><time>2026-04-06T11:48:19Z</time></trkpt><trkpt lat="37.273040645458124" lon="14.861121622399928"><ele>94.0</ele><time>2026-04-06T11:48:20Z</time></trkpt><trkpt lat="37.27288119175592" lon="14.86119522563735"><ele>94.0</ele><time>2026-04-06T11:48:21Z</time></trkpt><trkpt lat="37.27272401260969" lon="14.8612696219469"><ele>94.0</ele><time>2026-04-06T11:48:22Z</time></trkpt><trkpt lat="37.27256804651971" lon="14.861351432939772"><ele>94.0</ele><time>2026-04-06T11:48:23Z</time></trkpt><trkpt lat="37.27241720565445" lon="14.861467416461382"><ele>94.0</ele><time>2026-04-06T11:48:24Z</time></trkpt><trkpt lat="37.27226712462866" lon="14.861607526958073"><ele>94.0</ele><time>2026-04-06T11:48:25Z</time></trkpt><trkpt lat="37.27212315111177" lon="14.861749137163697"><ele>95.66666666666666</ele><time>2026-04-06T11:48:26Z</time></trkpt><trkpt lat="37.27198442501371" lon="14.861889747463762"><ele>97.33333333333333</ele><time>2026-04-06T11:48:27Z</time></trkpt><trkpt lat="37.27184808144573" lon="14.862022507360184"><ele>99.0</ele><time>2026-04-06T11:48:28Z</time></trkpt><trkpt lat="37.27171704534566" lon="14.862150311589506"><ele>99.0</ele><time>2026-04-06T11:48:29Z</time></trkpt><trkpt lat="37.27159017937713" lon="14.862272734622803"><ele>99.0</ele><time>2026-04-06T11:48:30Z</time></trkpt><trkpt lat="37.27146566639643" lon="14.86238774690692"><ele>99.0</ele><time>2026-04-06T11:48:31Z</time></trkpt><trkpt lat="37.27134436904094" lon="14.862500824438861"><ele>98.75</ele><time>2026-04-06T11:48:32Z</time></trkpt><trkpt lat="37.27122091576875" lon="14.862606302328166"><ele>98.5</ele><time>2026-04-06T11:48:33Z</time></trkpt><trkpt lat="37.271095674370144" lon="14.862706242346249"><ele>98.25</ele><time>2026-04-06T11:48:34Z</time></trkpt><trkpt lat="37.27097047539142" lon="14.86279298284159"><ele>98.0</ele><time>2026-04-06T11:48:35Z</time></trkpt><trkpt lat="37.2708414824766" lon="14.862858438664546"><ele>98.0</ele><time>2026-04-06T11:48:36Z</time></trkpt><trkpt lat="37.27071481004665" lon="14.862894709896523"><ele>98.0</ele><time>2026-04-06T11:48:37Z</time></trkpt><trkpt lat="37.27059275108499" lon="14.862900638307508"><ele>98.0</ele><time>2026-04-06T11:48:38Z</time></trkpt><trkpt lat="37.27047747549614" lon="14.862875068417972"><ele>98.0</ele><time>2026-04-06T11:48:39Z</time></trkpt><trkpt lat="37.27036891341118" lon="14.862809652318402"><ele>98.25</ele><time>2026-04-06T11:48:40Z</time></trkpt><trkpt lat="37.27025602655966" lon="14.862722258026063"><ele>98.5</ele><time>2026-04-06T11:48:41Z</time></trkpt><trkpt lat="37.27013639257144" lon="14.862632836729567"><ele>98.75</ele><time>2026-04-06T11:48:42Z</time></trkpt><trkpt lat="37.270010517488984" lon="14.862546135431957"><ele>99.0</ele><time>2026-04-06T11:48:43Z</time></trkpt><trkpt lat="37.269884980792604" lon="14.862448110938221"><ele>99.75</ele><time>2026-04-06T11:48:44Z</time></trkpt><trkpt lat="37.269765011786774" lon="14.862343633520299"><ele>100.5</ele><time>2026-04-06T11:48:45Z</time></trkpt><trkpt lat="37.269650340826026" lon="14.862245944432754"><ele>101.25</ele><time>2026-04-06T11:48:46Z</time></trkpt><trkpt lat="37.26953659769914" lon="14.862149957032527"><ele>102.0</ele><time>2026-04-06T11:48:47Z</time></trkpt><trkpt lat="37.269418915309615" lon="14.862064640592008"><ele>102.0</ele><time>2026-04-06T11:48:48Z</time></trkpt><trkpt lat="37.269301170523335" lon="14.862006950118774"><ele>102.0</ele><time>2026-04-06T11:48:49Z</time></trkpt><trkpt lat="37.26917524133108" lon="14.861997742392157"><ele>102.0</ele><time>2026-04-06T11:48:50Z</time></trkpt><trkpt lat="37.26904057971571" lon="14.862031358219287"><ele>102.0</ele><time>2026-04-06T11:48:51Z</time></trkpt><trkpt lat="37.26890772850232" lon="14.862095772380016"><ele>103.25</ele><time>2026-04-06T11:48:52Z</time></trkpt><trkpt lat="37.26877576356918" lon="14.862174247309094"><ele>104.5</ele><time>2026-04-06T11:48:53Z</time></trkpt><trkpt lat="37.26863953938044" lon="14.862250020399392"><ele>105.75</ele><time>2026-04-06T11:48:54Z</time></trkpt><trkpt lat="37.26849831590097" lon="14.862320672097486"><ele>107.0</ele><time>2026-04-06T11:48:55Z</time></trkpt><trkpt lat="37.26835430608488" lon="14.862391475699402"><ele>107.0</ele><time>2026-04-06T11:48:56Z</time></trkpt><trkpt lat="37.268210753851925" lon="14.862463650419976"><ele>107.0</ele><time>2026-04-06T11:48:57Z</time></trkpt><trkpt lat="37.26807539683346" lon="14.86253162937761"><ele>107.0</ele><time>2026-04-06T11:48:58Z</time></trkpt><trkpt lat="37.2679445142707" lon="14.862592340432403"><ele>107.0</ele><time>2026-04-06T11:48:59Z</time></trkpt><trkpt lat="37.267816762756354" lon="14.862649248545862"><ele>106.5</ele><time>2026-04-06T11:49:00Z</time></trkpt><trkpt lat="37.26769356780807" lon="14.862710244731382"><ele>106.0</ele><time>2026-04-06T11:49:01Z</time></trkpt><trkpt lat="37.26757159100071" lon="14.862771814486663"><ele>105.5</ele><time>2026-04-06T11:49:02Z</time></trkpt><trkpt lat="37.2674542531484" lon="14.862833716610544"><ele>105.0</ele><time>2026-04-06T11:49:03Z</time></trkpt><trkpt lat="37.26734410387155" lon="14.862911163967352"><ele>106.0</ele><time>2026-04-06T11:49:04Z</time></trkpt><trkpt lat="37.26724892720493" lon="14.863018183378959"><ele>107.0</ele><time>2026-04-06T11:49:05Z</time></trkpt><trkpt lat="37.26717362283877" lon="14.86315490633044"><ele>108.0</ele><time>2026-04-06T11:49:06Z</time></trkpt><trkpt lat="37.26711767740564" lon="14.863316949118628"><ele>109.0</ele><time>2026-04-06T11:49:07Z</time></trkpt><trkpt lat="37.26707010622954" lon="14.86349042417605"><ele>109.0</ele><time>2026-04-06T11:49:08Z</time></trkpt><trkpt lat="37.267022845791146" lon="14.863668380424548"><ele>109.0</ele><time>2026-04-06T11:49:09Z</time></trkpt><trkpt lat="37.26697724463708" lon="14.863848442838375"><ele>109.0</ele><time>2026-04-06T11:49:10Z</time></trkpt><trkpt lat="37.26692873517186" lon="14.864028169936804"><ele>109.0</ele><time>2026-04-06T11:49:11Z</time></trkpt><trkpt lat="37.2668612326566" lon="14.864202044645067"><ele>109.0</ele><time>2026-04-06T11:49:12Z</time></trkpt><trkpt lat="37.26680882154004" lon="14.864381608433096"><ele>109.0</ele><time>2026-04-06T11:49:13Z</time></trkpt><trkpt lat="37.266758669834424" lon="14.864560860229073"><ele>108.5</ele><time>2026-04-06T11:49:14Z</time></trkpt><trkpt lat="37.26671084091336" lon="14.864738076819128"><ele>108.0</ele><time>2026-04-06T11:49:15Z</time></trkpt><trkpt lat="37.26666343711939" lon="14.864914521881374"><ele>107.5</ele><time>2026-04-06T11:49:16Z</time></trkpt><trkpt lat="37.266614867973914" lon="14.86509530443408"><ele>107.0</ele><time>2026-04-06T11:49:17Z</time></trkpt><trkpt lat="37.26656633820349" lon="14.865275940244244"><ele>107.0</ele><time>2026-04-06T11:49:18Z</time></trkpt><trkpt lat="37.26653325448431" lon="14.865460245508368"><ele>107.0</ele><time>2026-04-06T11:49:19Z</time></trkpt><trkpt lat="37.26648370056909" lon="14.865636868630885"><ele>107.0</ele><time>2026-04-06T11:49:20Z</time></trkpt><trkpt lat="37.26643338151644" lon="14.865814811819437"><ele>111.0</ele><time>2026-04-06T11:49:21Z</time></trkpt><trkpt lat="37.266379154812434" lon="14.86599747266607"><ele>115.0</ele><time>2026-04-06T11:49:22Z</time></trkpt><trkpt lat="37.2663196102198" lon="14.866184265481499"><ele>119.0</ele><time>2026-04-06T11:49:23Z</time></trkpt><trkpt lat="37.266252448644494" lon="14.866372656792347"><ele>119.0</ele><time>2026-04-06T11:49:24Z</time></trkpt><trkpt lat="37.26618314677386" lon="14.866562899050617"><ele>119.0</ele><time>2026-04-06T11:49:25Z</time></trkpt><trkpt lat="37.26611201013555" lon="14.866744569758502"><ele>119.0</ele><time>2026-04-06T11:49:26Z</time></trkpt><trkpt lat="37.266037928876614" lon="14.866918802437505"><ele>118.0</ele><time>2026-04-06T11:49:27Z</time></trkpt><trkpt lat="37.265968539258154" lon="14.867089485811125"><ele>117.0</ele><time>2026-04-06T11:49:28Z</time></trkpt><trkpt lat="37.26590409431548" lon="14.867245922267236"><ele>116.0</ele><time>2026-04-06T11:49:29Z</time></trkpt><trkpt lat="37.26584085207125" lon="14.867387704792641"><ele>115.0</ele><time>2026-04-06T11:49:30Z</time></trkpt><trkpt lat="37.26576655593487" lon="14.86752344197296"><ele>114.25</ele><time>2026-04-06T11:49:31Z</time></trkpt><trkpt lat="37.26567243385877" lon="14.86765632275019"><ele>113.5</ele><time>2026-04-06T11:49:32Z</time></trkpt><trkpt lat="37.26556230822395" lon="14.867778955035513"><ele>112.75</ele><time>2026-04-06T11:49:33Z</time></trkpt><trkpt lat="37.26544321306095" lon="14.867895850645192"><ele>112.0</ele><time>2026-04-06T11:49:34Z</time></trkpt><trkpt lat="37.26531619981346" lon="14.868009635964777"><ele>115.33333333333334</ele><time>2026-04-06T11:49:35Z</time></trkpt><trkpt lat="37.26518676700652" lon="14.868125078049893"><ele>118.66666666666666</ele><time>2026-04-06T11:49:36Z</time></trkpt><trkpt lat="37.265059311992914" lon="14.8682446849121"><ele>122.0</ele><time>2026-04-06T11:49:37Z</time></trkpt><trkpt lat="37.26493519547654" lon="14.868371234736488"><ele>122.5</ele><time>2026-04-06T11:49:38Z</time></trkpt><trkpt lat="37.26482164049844" lon="14.868492632915267"><ele>123.0</ele><time>2026-04-06T11:49:39Z</time></trkpt><trkpt lat="37.26472182520345" lon="14.868608051610703"><ele>123.5</ele><time>2026-04-06T11:49:40Z</time></trkpt><trkpt lat="37.264633037811834" lon="14.868714203988123"><ele>124.0</ele><time>2026-04-06T11:49:41Z</time></trkpt><trkpt lat="37.264553595843424" lon="14.8688090445083"><ele>124.0</ele><time>2026-04-06T11:49:42Z</time></trkpt><trkpt lat="37.26447823205389" lon="14.868889372456607"><ele>124.0</ele><time>2026-04-06T11:49:43Z</time></trkpt><trkpt lat="37.26440363966127" lon="14.86896416068361"><ele>124.0</ele><time>2026-04-06T11:49:44Z</time></trkpt><trkpt lat="37.26432677849639" lon="14.869032042607442"><ele>124.0</ele><time>2026-04-06T11:49:45Z</time></trkpt><trkpt lat="37.26423824904376" lon="14.869098294112787"><ele>124.0</ele><time>2026-04-06T11:49:46Z</time></trkpt><trkpt lat="37.26413987791834" lon="14.869153059065194"><ele>124.0</ele><time>2026-04-06T11:49:47Z</time></trkpt><trkpt lat="37.26402822360965" lon="14.869189818757203"><ele>124.0</ele><time>2026-04-06T11:49:48Z</time></trkpt><trkpt lat="37.26390424602279" lon="14.869209020363424"><ele>124.0</ele><time>2026-04-06T11:49:49Z</time></trkpt><trkpt lat="37.26377488553407" lon="14.869226573106808"><ele>124.0</ele><time>2026-04-06T11:49:50Z</time></trkpt><trkpt lat="37.263646009780864" lon="14.869242873935319"><ele>124.25</ele><time>2026-04-06T11:49:51Z</time></trkpt><trkpt lat="37.26351586472883" lon="14.869244198596743"><ele>124.5</ele><time>2026-04-06T11:49:52Z</time></trkpt><trkpt lat="37.263391519589" lon="14.869233228652448"><ele>124.75</ele><time>2026-04-06T11:49:53Z</time></trkpt><trkpt lat="37.26327345464122" lon="14.869203763072749"><ele>125.0</ele><time>2026-04-06T11:49:54Z</time></trkpt><trkpt lat="37.26316029979051" lon="14.86915023096396"><ele>123.75</ele><time>2026-04-06T11:49:55Z</time></trkpt><trkpt lat="37.263047723402835" lon="14.869069905297385"><ele>122.5</ele><time>2026-04-06T11:49:56Z</time></trkpt><trkpt lat="37.26292235585018" lon="14.868975253802644"><ele>121.25</ele><time>2026-04-06T11:49:57Z</time></trkpt><trkpt lat="37.26279633029663" lon="14.86887754556008"><ele>120.0</ele><time>2026-04-06T11:49:58Z</time></trkpt><trkpt lat="37.2626712087274" lon="14.868778541081538"><ele>120.0</ele><time>2026-04-06T11:49:59Z</time></trkpt><trkpt lat="37.26254950752944" lon="14.868690489449579"><ele>120.0</ele><time>2026-04-06T11:50:00Z</time></trkpt><trkpt lat="37.26243620007346" lon="14.86860530781094"><ele>120.0</ele><time>2026-04-06T11:50:01Z</time></trkpt><trkpt lat="37.26232787380882" lon="14.868526310973712"><ele>120.0</ele><time>2026-04-06T11:50:02Z</time></trkpt><trkpt lat="37.26221784528691" lon="14.868458811756593"><ele>119.75</ele><time>2026-04-06T11:50:03Z</time></trkpt><trkpt lat="37.26209347967053" lon="14.868424446758594"><ele>119.5</ele><time>2026-04-06T11:50:04Z</time></trkpt><trkpt lat="37.26195506561504" lon="14.868437091240395"><ele>119.25</ele><time>2026-04-06T11:50:05Z</time></trkpt><trkpt lat="37.26181211679827" lon="14.868481379720047"><ele>119.0</ele><time>2026-04-06T11:50:06Z</time></trkpt><trkpt lat="37.26166723038424" lon="14.868536525953724"><ele>119.0</ele><time>2026-04-06T11:50:07Z</time></trkpt><trkpt lat="37.261518969374734" lon="14.86859561325855"><ele>119.0</ele><time>2026-04-06T11:50:08Z</time></trkpt><trkpt lat="37.26137282210901" lon="14.868653955408126"><ele>119.0</ele><time>2026-04-06T11:50:09Z</time></trkpt><trkpt lat="37.26122896143115" lon="14.868709687379363"><ele>119.0</ele><time>2026-04-06T11:50:10Z</time></trkpt><trkpt lat="37.26109290690728" lon="14.868761106317521"><ele>119.0</ele><time>2026-04-06T11:50:11Z</time></trkpt><trkpt lat="37.26096639824537" lon="14.868816169482269"><ele>119.0</ele><time>2026-04-06T11:50:12Z</time></trkpt><trkpt lat="37.26084273475028" lon="14.868863054867235"><ele>119.0</ele><time>2026-04-06T11:50:13Z</time></trkpt><trkpt lat="37.26072373678521" lon="14.868890953676136"><ele>119.25</ele><time>2026-04-06T11:50:14Z</time></trkpt><trkpt lat="37.2606025771158" lon="14.86890107492203"><ele>119.5</ele><time>2026-04-06T11:50:15Z</time></trkpt><trkpt lat="37.26046833261585" lon="14.868894417987782"><ele>119.75</ele><time>2026-04-06T11:50:16Z</time></trkpt><trkpt lat="37.26033328938861" lon="14.86887083927403"><ele>120.0</ele><time>2026-04-06T11:50:17Z</time></trkpt><trkpt lat="37.26021047340719" lon="14.868844055489827"><ele>120.0</ele><time>2026-04-06T11:50:18Z</time></trkpt><trkpt lat="37.26009904863217" lon="14.86882542583665"><ele>120.0</ele><time>2026-04-06T11:50:19Z</time></trkpt><trkpt lat="37.26000332620548" lon="14.868827549685625"><ele>120.0</ele><time>2026-04-06T11:50:20Z</time></trkpt><trkpt lat="37.259915699124846" lon="14.868849868771502"><ele>120.0</ele><time>2026-04-06T11:50:21Z</time></trkpt><trkpt lat="37.259834290575824" lon="14.868881063981894"><ele>120.0</ele><time>2026-04-06T11:50:22Z</time></trkpt><trkpt lat="37.25977597015864" lon="14.86897086519692"><ele>121.2</ele><time>2026-04-06T11:50:23Z</time></trkpt><trkpt lat="37.259728794699136" lon="14.869062155221963"><ele>122.4</ele><time>2026-04-06T11:50:24Z</time></trkpt><trkpt lat="37.25967879677969" lon="14.869164501097378"><ele>123.6</ele><time>2026-04-06T11:50:25Z</time></trkpt><trkpt lat="37.2596473367683" lon="14.869288934382718"><ele>124.8</ele><time>2026-04-06T11:50:26Z</time></trkpt><trkpt lat="37.25968857722213" lon="14.869444866159242"><ele>126.0</ele><time>2026-04-06T11:50:27Z</time></trkpt><trkpt lat="37.259706671877225" lon="14.869572366037215"><ele>126.0</ele><time>2026-04-06T11:50:28Z</time></trkpt><trkpt lat="37.25971043862749" lon="14.869690923967918"><ele>126.0</ele><time>2026-04-06T11:50:29Z</time></trkpt><trkpt lat="37.25972767113426" lon="14.869803308630624"><ele>126.0</ele><time>2026-04-06T11:50:30Z</time></trkpt><trkpt lat="37.259708843533964" lon="14.869917771476626"><ele>126.0</ele><time>2026-04-06T11:50:31Z</time></trkpt><trkpt lat="37.259665879382574" lon="14.870023878854699"><ele>126.0</ele><time>2026-04-06T11:50:32Z</time></trkpt><trkpt lat="37.25957833801152" lon="14.87010052395107"><ele>125.0</ele><time>2026-04-06T11:50:33Z</time></trkpt><trkpt lat="37.25948235925152" lon="14.87019228813852"><ele>124.0</ele><time>2026-04-06T11:50:34Z</time></trkpt><trkpt lat="37.25939313012963" lon="14.870304044103165"><ele>123.0</ele><time>2026-04-06T11:50:35Z</time></trkpt><trkpt lat="37.25929045012066" lon="14.870394870521544"><ele>122.0</ele><time>2026-04-06T11:50:36Z</time></trkpt><trkpt lat="37.25918757356891" lon="14.870478921308163"><ele>122.0</ele><time>2026-04-06T11:50:37Z</time></trkpt><trkpt lat="37.25909771334359" lon="14.87056973636819"><ele>121.99999999999999</ele><time>2026-04-06T11:50:38Z</time></trkpt><trkpt lat="37.25901516589816" lon="14.87066514006744"><ele>121.99999999999999</ele><time>2026-04-06T11:50:39Z</time></trkpt><trkpt lat="37.25892440696896" lon="14.870744615149322"><ele>122.0</ele><time>2026-04-06T11:50:40Z</time></trkpt><trkpt lat="37.25885191851827" lon="14.870845621551677"><ele>122.0</ele><time>2026-04-06T11:50:41Z</time></trkpt><trkpt lat="37.258810308470814" lon="14.87096945962945"><ele>117.25</ele><time>2026-04-06T11:50:42Z</time></trkpt><trkpt lat="37.258758448710395" lon="14.871082606836877"><ele>112.5</ele><time>2026-04-06T11:50:43Z</time></trkpt><trkpt lat="37.258752125049746" lon="14.871221989661587"><ele>107.75</ele><time>2026-04-06T11:50:44Z</time></trkpt><trkpt lat="37.258761258277815" lon="14.87137197829343"><ele>103.0</ele><time>2026-04-06T11:50:45Z</time></trkpt><trkpt lat="37.25876244023802" lon="14.871523385688368"><ele>103.0</ele><time>2026-04-06T11:50:46Z</time></trkpt><trkpt lat="37.25878726481302" lon="14.871674697125307"><ele>103.0</ele><time>2026-04-06T11:50:47Z</time></trkpt><trkpt lat="37.25881707176492" lon="14.87182616973456"><ele>103.0</ele><time>2026-04-06T11:50:48Z</time></trkpt><trkpt lat="37.258849335438214" lon="14.871967476391431"><ele>103.0</ele><time>2026-04-06T11:50:49Z</time></trkpt><trkpt lat="37.25888406705488" lon="14.87210318077645"><ele>102.5</ele><time>2026-04-06T11:50:50Z</time></trkpt><trkpt lat="37.2589189633929" lon="14.872237423140476"><ele>102.0</ele><time>2026-04-06T11:50:51Z</time></trkpt><trkpt lat="37.25895784233634" lon="14.872384063810609"><ele>101.5</ele><time>2026-04-06T11:50:52Z</time></trkpt><trkpt lat="37.25900076586759" lon="14.872540062315844"><ele>101.0</ele><time>2026-04-06T11:50:53Z</time></trkpt><trkpt lat="37.259042983070024" lon="14.872690182044959"><ele>102.5</ele><time>2026-04-06T11:50:54Z</time></trkpt><trkpt lat="37.25908451751716" lon="14.872837874020526"><ele>104.0</ele><time>2026-04-06T11:50:55Z</time></trkpt><trkpt lat="37.259127050755005" lon="14.872986262444707"><ele>105.5</ele><time>2026-04-06T11:50:56Z</time></trkpt><trkpt lat="37.259172540207985" lon="14.87314212590503"><ele>107.0</ele><time>2026-04-06T11:50:57Z</time></trkpt><trkpt lat="37.2592183536269" lon="14.873299291067125"><ele>105.5</ele><time>2026-04-06T11:50:58Z</time></trkpt><trkpt lat="37.259262638169375" lon="14.873453577677674"><ele>104.0</ele><time>2026-04-06T11:50:59Z</time></trkpt><trkpt lat="37.25930489688123" lon="14.873601504154015"><ele>102.5</ele><time>2026-04-06T11:51:00Z</time></trkpt><trkpt lat="37.25933763456336" lon="14.873739126548092"><ele>101.0</ele><time>2026-04-06T11:51:01Z</time></trkpt><trkpt lat="37.25937217965253" lon="14.873869906016894"><ele>101.0</ele><time>2026-04-06T11:51:02Z</time></trkpt><trkpt lat="37.25937154917169" lon="14.874000127947678"><ele>101.0</ele><time>2026-04-06T11:51:03Z</time></trkpt><trkpt lat="37.25935637493025" lon="14.874126507347718"><ele>101.0</ele><time>2026-04-06T11:51:04Z</time></trkpt><trkpt lat="37.25932062246585" lon="14.874244595593911"><ele>101.0</ele><time>2026-04-06T11:51:05Z</time></trkpt><trkpt lat="37.25924621975139" lon="14.874325963940025"><ele>101.0</ele><time>2026-04-06T11:51:06Z</time></trkpt><trkpt lat="37.25916896287689" lon="14.874394418100477"><ele>99.8</ele><time>2026-04-06T11:51:07Z</time></trkpt><trkpt lat="37.259093903168726" lon="14.874479247491642"><ele>98.6</ele><time>2026-04-06T11:51:08Z</time></trkpt><trkpt lat="37.25901029655964" lon="14.874554141416638"><ele>97.4</ele><time>2026-04-06T11:51:09Z</time></trkpt><trkpt lat="37.25892576145735" lon="14.874632769697033"><ele>96.2</ele><time>2026-04-06T11:51:10Z</time></trkpt><trkpt lat="37.25883870678934" lon="14.87470669832622"><ele>95.0</ele><time>2026-04-06T11:51:11Z</time></trkpt><trkpt lat="37.25876173270076" lon="14.87477525169569"><ele>97.6</ele><time>2026-04-06T11:51:12Z</time></trkpt><trkpt lat="37.25869559661633" lon="14.874833978264983"><ele>100.2</ele><time>2026-04-06T11:51:13Z</time></trkpt><trkpt lat="37.25863295281732" lon="14.874883089048783"><ele>102.80000000000001</ele><time>2026-04-06T11:51:14Z</time></trkpt><trkpt lat="37.258579030964846" lon="14.874934660534569"><ele>105.4</ele><time>2026-04-06T11:51:15Z</time></trkpt><trkpt lat="37.25853065598444" lon="14.875090988455888"><ele>108.0</ele><time>2026-04-06T11:51:17Z</time></trkpt><trkpt lat="37.25855325218464" lon="14.875208844179737"><ele>108.2</ele><time>2026-04-06T11:51:18Z</time></trkpt><trkpt lat="37.2585878545296" lon="14.875336939028626"><ele>108.4</ele><time>2026-04-06T11:51:19Z</time></trkpt><trkpt lat="37.25861873661929" lon="14.87545527117433"><ele>108.60000000000001</ele><time>2026-04-06T11:51:20Z</time></trkpt><trkpt lat="37.258630146177126" lon="14.87558727151452"><ele>108.80000000000001</ele><time>2026-04-06T11:51:21Z</time></trkpt><trkpt lat="37.25865067674883" lon="14.875725020255624"><ele>109.0</ele><time>2026-04-06T11:51:22Z</time></trkpt><trkpt lat="37.25866663659274" lon="14.875871840473346"><ele>109.75</ele><time>2026-04-06T11:51:23Z</time></trkpt><trkpt lat="37.25869636516304" lon="14.87602595767291"><ele>110.5</ele><time>2026-04-06T11:51:24Z</time></trkpt><trkpt lat="37.258707745880756" lon="14.876179623425243"><ele>111.25</ele><time>2026-04-06T11:51:25Z</time></trkpt><trkpt lat="37.258702193213985" lon="14.876321452443749"><ele>112.0</ele><time>2026-04-06T11:51:26Z</time></trkpt><trkpt lat="37.258711821248895" lon="14.87645464021939"><ele>112.0</ele><time>2026-04-06T11:51:27Z</time></trkpt><trkpt lat="37.25873343251994" lon="14.876579751385187"><ele>111.99999999999999</ele><time>2026-04-06T11:51:28Z</time></trkpt><trkpt lat="37.25874301212932" lon="14.876707174995392"><ele>111.99999999999999</ele><time>2026-04-06T11:51:29Z</time></trkpt><trkpt lat="37.25875194279314" lon="14.876839765899762"><ele>112.0</ele><time>2026-04-06T11:51:30Z</time></trkpt><trkpt lat="37.25875642460094" lon="14.876980205446243"><ele>112.0</ele><time>2026-04-06T11:51:31Z</time></trkpt><trkpt lat="37.25875988614392" lon="14.877126163563132"><ele>111.5</ele><time>2026-04-06T11:51:32Z</time></trkpt><trkpt lat="37.25875945112538" lon="14.877277558523222"><ele>111.0</ele><time>2026-04-06T11:51:33Z</time></trkpt><trkpt lat="37.2587429679906" lon="14.877431402054732"><ele>110.5</ele><time>2026-04-06T11:51:34Z</time></trkpt><trkpt lat="37.25873894545271" lon="14.877588309537947"><ele>110.0</ele><time>2026-04-06T11:51:35Z</time></trkpt><trkpt lat="37.25873353948311" lon="14.87774773500902"><ele>109.0</ele><time>2026-04-06T11:51:36Z</time></trkpt><trkpt lat="37.258728054929335" lon="14.877909477907677"><ele>108.0</ele><time>2026-04-06T11:51:37Z</time></trkpt><trkpt lat="37.25873847038569" lon="14.87806967389587"><ele>107.0</ele><time>2026-04-06T11:51:38Z</time></trkpt><trkpt lat="37.25873169187786" lon="14.878224075942738"><ele>106.0</ele><time>2026-04-06T11:51:39Z</time></trkpt><trkpt lat="37.25872568976916" lon="14.878376799040572"><ele>104.8</ele><time>2026-04-06T11:51:40Z</time></trkpt><trkpt lat="37.25872125033661" lon="14.878525202212813"><ele>103.6</ele><time>2026-04-06T11:51:41Z</time></trkpt><trkpt lat="37.25871581521239" lon="14.878663342768887"><ele>102.4</ele><time>2026-04-06T11:51:42Z</time></trkpt><trkpt lat="37.25870742286717" lon="14.878789817513283"><ele>101.2</ele><time>2026-04-06T11:51:43Z</time></trkpt><trkpt lat="37.258684401823366" lon="14.878908405734899"><ele>100.0</ele><time>2026-04-06T11:51:44Z</time></trkpt><trkpt lat="37.25865235616977" lon="14.879028131687335"><ele>100.0</ele><time>2026-04-06T11:51:45Z</time></trkpt><trkpt lat="37.258611662765" lon="14.87914555597513"><ele>100.0</ele><time>2026-04-06T11:51:46Z</time></trkpt><trkpt lat="37.258557879916815" lon="14.879267905433773"><ele>100.0</ele><time>2026-04-06T11:51:47Z</time></trkpt><trkpt lat="37.2584975195539" lon="14.879402437965101"><ele>100.0</ele><time>2026-04-06T11:51:48Z</time></trkpt><trkpt lat="37.25843520918909" lon="14.879541262560085"><ele>98.25</ele><time>2026-04-06T11:51:49Z</time></trkpt><trkpt lat="37.258375266821815" lon="14.879675188132062"><ele>96.5</ele><time>2026-04-06T11:51:50Z</time></trkpt><trkpt lat="37.25831903553421" lon="14.879807087851535"><ele>94.75</ele><time>2026-04-06T11:51:51Z</time></trkpt><trkpt lat="37.25826362051407" lon="14.879945602224332"><ele>93.0</ele><time>2026-04-06T11:51:52Z</time></trkpt><trkpt lat="37.25821794382865" lon="14.880091269357083"><ele>93.2</ele><time>2026-04-06T11:51:53Z</time></trkpt><trkpt lat="37.2581894529496" lon="14.880237412641433"><ele>93.4</ele><time>2026-04-06T11:51:54Z</time></trkpt><trkpt lat="37.25816393004404" lon="14.880383766601932"><ele>93.60000000000001</ele><time>2026-04-06T11:51:55Z</time></trkpt><trkpt lat="37.258142209850824" lon="14.880515721767686"><ele>93.80000000000001</ele><time>2026-04-06T11:51:56Z</time></trkpt><trkpt lat="37.25811901333581" lon="14.880630779002365"><ele>94.0</ele><time>2026-04-06T11:51:57Z</time></trkpt><trkpt lat="37.25808697843494" lon="14.880733263824194"><ele>94.0</ele><time>2026-04-06T11:51:58Z</time></trkpt><trkpt lat="37.25804110412918" lon="14.880831783034258"><ele>94.0</ele><time>2026-04-06T11:51:59Z</time></trkpt><trkpt lat="37.257979874868255" lon="14.880928602060116"><ele>94.0</ele><time>2026-04-06T11:52:00Z</time></trkpt><trkpt lat="37.257904191756516" lon="14.881026362953996"><ele>94.0</ele><time>2026-04-06T11:52:01Z</time></trkpt><trkpt lat="37.25783397541179" lon="14.881148816596372"><ele>94.0</ele><time>2026-04-06T11:52:02Z</time></trkpt><trkpt lat="37.25777181373985" lon="14.881288811144271"><ele>93.0</ele><time>2026-04-06T11:52:03Z</time></trkpt><trkpt lat="37.25771268260222" lon="14.881428752105016"><ele>92.0</ele><time>2026-04-06T11:52:04Z</time></trkpt><trkpt lat="37.25765599012857" lon="14.8815575036898"><ele>91.0</ele><time>2026-04-06T11:52:05Z</time></trkpt><trkpt lat="37.25760593951412" lon="14.881675311604525"><ele>90.0</ele><time>2026-04-06T11:52:06Z</time></trkpt><trkpt lat="37.257555042713285" lon="14.881785002903214"><ele>89.8</ele><time>2026-04-06T11:52:07Z</time></trkpt><trkpt lat="37.25750586310803" lon="14.881891621696521"><ele>89.6</ele><time>2026-04-06T11:52:08Z</time></trkpt><trkpt lat="37.257460090574085" lon="14.881995061844398"><ele>89.4</ele><time>2026-04-06T11:52:09Z</time></trkpt><trkpt lat="37.2574144622936" lon="14.882094738350894"><ele>89.2</ele><time>2026-04-06T11:52:10Z</time></trkpt><trkpt lat="37.2573707786261" lon="14.88219774460295"><ele>89.0</ele><time>2026-04-06T11:52:11Z</time></trkpt><trkpt lat="37.257326721500085" lon="14.882300868853248"><ele>90.0</ele><time>2026-04-06T11:52:12Z</time></trkpt><trkpt lat="37.25728505030127" lon="14.882399739134708"><ele>91.0</ele><time>2026-04-06T11:52:13Z</time></trkpt><trkpt lat="37.25724629015362" lon="14.882486939561337"><ele>92.0</ele><time>2026-04-06T11:52:14Z</time></trkpt><trkpt lat="37.25721500449941" lon="14.88255917762114"><ele>93.0</ele><time>2026-04-06T11:52:15Z</time></trkpt><trkpt lat="37.25717413602368" lon="14.882650936912771"><ele>94.0</ele><time>2026-04-06T11:52:17Z</time></trkpt><trkpt lat="37.25720683976317" lon="14.882577237538952"><ele>95.0</ele><time>2026-04-06T11:52:27Z</time></trkpt><trkpt lat="37.25723611497814" lon="14.882716352676342"><ele>93.5</ele><time>2026-04-06T11:52:28Z</time></trkpt><trkpt lat="37.25739338216885" lon="14.88258001793892"><ele>92.0</ele><time>2026-04-06T11:52:29Z</time></trkpt><trkpt lat="37.25750475487001" lon="14.8825027123713"><ele>90.5</ele><time>2026-04-06T11:52:31Z</time></trkpt><trkpt lat="37.2575655110496" lon="14.882472960384197"><ele>89.0</ele><time>2026-04-06T11:52:32Z</time></trkpt><trkpt lat="37.2576296934364" lon="14.882443102565343"><ele>89.0</ele><time>2026-04-06T11:52:33Z</time></trkpt><trkpt lat="37.25799572836391" lon="14.88200673094468"><ele>89.0</ele><time>2026-04-06T11:52:34Z</time></trkpt><trkpt lat="37.25801785842591" lon="14.881897612228093"><ele>89.0</ele><time>2026-04-06T11:52:35Z</time></trkpt><trkpt lat="37.25804378538863" lon="14.881779629115186"><ele>89.0</ele><time>2026-04-06T11:52:36Z</time></trkpt><trkpt lat="37.25806882496746" lon="14.881665684049853"><ele>89.0</ele><time>2026-04-06T11:52:37Z</time></trkpt><trkpt lat="37.25809280182731" lon="14.881551840281478"><ele>89.0</ele><time>2026-04-06T11:52:38Z</time></trkpt><trkpt lat="37.258113049845925" lon="14.881454432122245"><ele>88.57142857142857</ele><time>2026-04-06T11:52:39Z</time></trkpt><trkpt lat="37.258131838371085" lon="14.88136301348569"><ele>88.14285714285714</ele><time>2026-04-06T11:52:40Z</time></trkpt><trkpt lat="37.25814795382024" lon="14.881283107206182"><ele>87.71428571428572</ele><time>2026-04-06T11:52:41Z</time></trkpt><trkpt lat="37.25816109314754" lon="14.881201507700956"><ele>87.28571428571428</ele><time>2026-04-06T11:52:42Z</time></trkpt><trkpt lat="37.25817746056421" lon="14.881104467177693"><ele>86.85714285714286</ele><time>2026-04-06T11:52:44Z</time></trkpt><trkpt lat="37.25819112691587" lon="14.881023439837161"><ele>86.42857142857143</ele><time>2026-04-06T11:52:46Z</time></trkpt><trkpt lat="37.258205979270315" lon="14.880935380726234"><ele>86.0</ele><time>2026-04-06T11:52:48Z</time></trkpt><trkpt lat="37.258111290486696" lon="14.880774101947974"><ele>86.4</ele><time>2026-04-06T11:52:50Z</time></trkpt><trkpt lat="37.258149007517744" lon="14.880635040710189"><ele>86.8</ele><time>2026-04-06T11:52:52Z</time></trkpt><trkpt lat="37.258171992817594" lon="14.880504373396663"><ele>87.2</ele><time>2026-04-06T11:52:54Z</time></trkpt><trkpt lat="37.258179790959915" lon="14.880392202632125"><ele>87.60000000000001</ele><time>2026-04-06T11:52:56Z</time></trkpt><trkpt lat="37.258196893543655" lon="14.880265128337358"><ele>88.0</ele><time>2026-04-06T11:52:58Z</time></trkpt><trkpt lat="37.25822217574073" lon="14.880122160910364"><ele>89.0</ele><time>2026-04-06T11:53:00Z</time></trkpt><trkpt lat="37.258271077939796" lon="14.879975979005744"><ele>90.0</ele><time>2026-04-06T11:53:02Z</time></trkpt><trkpt lat="37.258325850033806" lon="14.879839429244335"><ele>91.0</ele><time>2026-04-06T11:53:04Z</time></trkpt><trkpt lat="37.258376718758626" lon="14.879717143259413"><ele>92.0</ele><time>2026-04-06T11:53:06Z</time></trkpt><trkpt lat="37.25842368547016" lon="14.879618081246878"><ele>93.0</ele><time>2026-04-06T11:53:08Z</time></trkpt><trkpt lat="37.258485558192774" lon="14.879483797889046"><ele>93.0</ele><time>2026-04-06T11:53:10Z</time></trkpt><trkpt lat="37.258524280398674" lon="14.879399098875894"><ele>93.0</ele><time>2026-04-06T11:53:11Z</time></trkpt><trkpt lat="37.258562874255134" lon="14.87931916581203"><ele>93.0</ele><time>2026-04-06T11:53:12Z</time></trkpt><trkpt lat="37.25859688235707" lon="14.879245074587393"><ele>93.0</ele><time>2026-04-06T11:53:13Z</time></trkpt><trkpt lat="37.25864045395843" lon="14.879144109376606"><ele>93.0</ele><time>2026-04-06T11:53:15Z</time></trkpt><trkpt lat="37.25866040112626" lon="14.879068101414815"><ele>93.0</ele><time>2026-04-06T11:54:56Z</time></trkpt><trkpt lat="37.25861413443523" lon="14.879191719598774"><ele>93.0</ele><time>2026-04-06T11:55:00Z</time></trkpt><trkpt lat="37.25848835224598" lon="14.879415536394475"><ele>93.0</ele><time>2026-04-06T11:55:03Z</time></trkpt><trkpt lat="37.2584477263639" lon="14.879486519973373"><ele>93.0</ele><time>2026-04-06T11:55:04Z</time></trkpt><trkpt lat="37.25840984511666" lon="14.879578240199454"><ele>93.0</ele><time>2026-04-06T11:55:05Z</time></trkpt><trkpt lat="37.258368909586395" lon="14.87967926340497"><ele>93.0</ele><time>2026-04-06T11:55:06Z</time></trkpt><trkpt lat="37.25832858622661" lon="14.879783253668727"><ele>93.0</ele><time>2026-04-06T11:55:07Z</time></trkpt><trkpt lat="37.25828965046678" lon="14.87987993545484"><ele>93.0</ele><time>2026-04-06T11:55:08Z</time></trkpt><trkpt lat="37.25825021195749" lon="14.879976181067516"><ele>93.0</ele><time>2026-04-06T11:55:09Z</time></trkpt><trkpt lat="37.258214489893405" lon="14.880090575696531"><ele>93.0</ele><time>2026-04-06T11:55:10Z</time></trkpt><trkpt lat="37.258183834483994" lon="14.880218258626169"><ele>93.16666666666667</ele><time>2026-04-06T11:55:11Z</time></trkpt><trkpt lat="37.25816378492111" lon="14.880343282853001"><ele>93.33333333333333</ele><time>2026-04-06T11:55:12Z</time></trkpt><trkpt lat="37.25815007618386" lon="14.880461217719283"><ele>93.5</ele><time>2026-04-06T11:55:13Z</time></trkpt><trkpt lat="37.25813755651155" lon="14.880563640677929"><ele>93.66666666666666</ele><time>2026-04-06T11:55:14Z</time></trkpt><trkpt lat="37.258117779561495" lon="14.880657733756422"><ele>93.83333333333333</ele><time>2026-04-06T11:55:15Z</time></trkpt><trkpt lat="37.25809300227829" lon="14.88074409095159"><ele>94.0</ele><time>2026-04-06T11:55:16Z</time></trkpt><trkpt lat="37.25805694008326" lon="14.880824116757369"><ele>94.0</ele><time>2026-04-06T11:55:17Z</time></trkpt><trkpt lat="37.258013937747776" lon="14.880884656141507"><ele>94.0</ele><time>2026-04-06T11:55:18Z</time></trkpt><trkpt lat="37.25794663213651" lon="14.880959267192242"><ele>94.0</ele><time>2026-04-06T11:55:20Z</time></trkpt><trkpt lat="37.25789196578464" lon="14.881002313274683"><ele>94.0</ele><time>2026-04-06T11:55:24Z</time></trkpt><trkpt lat="37.25785562052332" lon="14.88107949351684"><ele>94.0</ele><time>2026-04-06T11:57:19Z</time></trkpt><trkpt lat="37.25782220655704" lon="14.881164806107002"><ele>94.0</ele><time>2026-04-06T11:57:20Z</time></trkpt><trkpt lat="37.257780914541925" lon="14.881266979796191"><ele>93.2</ele><time>2026-04-06T11:57:21Z</time></trkpt><trkpt lat="37.25774068118397" lon="14.8813641008631"><ele>92.4</ele><time>2026-04-06T11:57:22Z</time></trkpt><trkpt lat="37.25769353951331" lon="14.881475982776148"><ele>91.6</ele><time>2026-04-06T11:57:23Z</time></trkpt><trkpt lat="37.25764610525289" lon="14.88158589791984"><ele>90.8</ele><time>2026-04-06T11:57:24Z</time></trkpt><trkpt lat="37.25759214129927" lon="14.881707916938575"><ele>90.0</ele><time>2026-04-06T11:57:25Z</time></trkpt><trkpt lat="37.25753611779782" lon="14.881835232191307"><ele>89.8</ele><time>2026-04-06T11:57:26Z</time></trkpt><trkpt lat="37.257486333969354" lon="14.881962397632151"><ele>89.6</ele><time>2026-04-06T11:57:27Z</time></trkpt><trkpt lat="37.257434105341396" lon="14.882084032516028"><ele>89.4</ele><time>2026-04-06T11:57:28Z</time></trkpt><trkpt lat="37.25738181622111" lon="14.882204077041253"><ele>89.2</ele><time>2026-04-06T11:57:29Z</time></trkpt><trkpt lat="37.257328852649756" lon="14.882325264812538"><ele>89.0</ele><time>2026-04-06T11:57:30Z</time></trkpt><trkpt lat="37.25727395653493" lon="14.882444874902225"><ele>90.5</ele><time>2026-04-06T11:57:31Z</time></trkpt><trkpt lat="37.25721766278589" lon="14.882566199585877"><ele>92.0</ele><time>2026-04-06T11:57:32Z</time></trkpt><trkpt lat="37.257164228877684" lon="14.882691525909483"><ele>93.5</ele><time>2026-04-06T11:57:33Z</time></trkpt><trkpt lat="37.25711121227537" lon="14.882818074764227"><ele>95.0</ele><time>2026-04-06T11:57:34Z</time></trkpt><trkpt lat="37.25705623531886" lon="14.88294504010732"><ele>95.0</ele><time>2026-04-06T11:57:35Z</time></trkpt><trkpt lat="37.257001069849174" lon="14.883071586257563"><ele>95.0</ele><time>2026-04-06T11:57:36Z</time></trkpt><trkpt lat="37.25694007690539" lon="14.883195233973405"><ele>95.0</ele><time>2026-04-06T11:57:37Z</time></trkpt><trkpt lat="37.25687610850047" lon="14.883316300561669"><ele>95.0</ele><time>2026-04-06T11:57:38Z</time></trkpt><trkpt lat="37.25680910201044" lon="14.883435888604426"><ele>94.25</ele><time>2026-04-06T11:57:39Z</time></trkpt><trkpt lat="37.25673591212938" lon="14.883548925592008"><ele>93.5</ele><time>2026-04-06T11:57:40Z</time></trkpt><trkpt lat="37.25666276933729" lon="14.88366346526275"><ele>92.75</ele><time>2026-04-06T11:57:41Z</time></trkpt><trkpt lat="37.25658527752421" lon="14.88377228892605"><ele>92.0</ele><time>2026-04-06T11:57:42Z</time></trkpt><trkpt lat="37.25650765146207" lon="14.88387750957218"><ele>92.0</ele><time>2026-04-06T11:57:43Z</time></trkpt><trkpt lat="37.25643052695831" lon="14.883990938925454"><ele>92.0</ele><time>2026-04-06T11:57:44Z</time></trkpt><trkpt lat="37.256348799780476" lon="14.884111815049938"><ele>92.0</ele><time>2026-04-06T11:57:45Z</time></trkpt><trkpt lat="37.25626615954076" lon="14.884237221914715"><ele>92.0</ele><time>2026-04-06T11:57:46.001Z</time></trkpt><trkpt lat="37.25618770166543" lon="14.884367251318222"><ele>92.0</ele><time>2026-04-06T11:57:47.001Z</time></trkpt><trkpt lat="37.2561171752097" lon="14.8845036077523"><ele>92.0</ele><time>2026-04-06T11:57:48.001Z</time></trkpt><trkpt lat="37.25604889624983" lon="14.884638477691883"><ele>92.0</ele><time>2026-04-06T11:57:49.001Z</time></trkpt><trkpt lat="37.255983669078425" lon="14.884777465904273"><ele>92.0</ele><time>2026-04-06T11:57:50Z</time></trkpt><trkpt lat="37.25592071313813" lon="14.884916629496741"><ele>92.0</ele><time>2026-04-06T11:57:51Z</time></trkpt><trkpt lat="37.25585540774239" lon="14.885053611659865"><ele>92.0</ele><time>2026-04-06T11:57:52Z</time></trkpt><trkpt lat="37.255788194543754" lon="14.885190732671079"><ele>92.0</ele><time>2026-04-06T11:57:53Z</time></trkpt><trkpt lat="37.25572432456579" lon="14.88533039796506"><ele>92.0</ele><time>2026-04-06T11:57:54Z</time></trkpt><trkpt lat="37.255658497978516" lon="14.885469481312573"><ele>93.5</ele><time>2026-04-06T11:57:55Z</time></trkpt><trkpt lat="37.255593440752044" lon="14.885609879835538"><ele>95.0</ele><time>2026-04-06T11:57:56Z</time></trkpt><trkpt lat="37.25553164224184" lon="14.885743115042649"><ele>96.5</ele><time>2026-04-06T11:57:57Z</time></trkpt><trkpt lat="37.25547752049414" lon="14.88587321005358"><ele>98.0</ele><time>2026-04-06T11:57:58Z</time></trkpt><trkpt lat="37.25542994056589" lon="14.886005348993628"><ele>98.2</ele><time>2026-04-06T11:57:59Z</time></trkpt><trkpt lat="37.255418968958445" lon="14.886136935834465"><ele>98.4</ele><time>2026-04-06T11:58:00Z</time></trkpt><trkpt lat="37.25541759042588" lon="14.886266227488177"><ele>98.60000000000001</ele><time>2026-04-06T11:58:01Z</time></trkpt><trkpt lat="37.25542912811835" lon="14.886382328463512"><ele>98.80000000000001</ele><time>2026-04-06T11:58:02Z</time></trkpt><trkpt lat="37.25544614050329" lon="14.886486610644786"><ele>99.0</ele><time>2026-04-06T11:58:03Z</time></trkpt><trkpt lat="37.255464397975956" lon="14.88658877787454"><ele>99.0</ele><time>2026-04-06T11:58:04Z</time></trkpt><trkpt lat="37.25548817551151" lon="14.886693223740233"><ele>99.0</ele><time>2026-04-06T11:58:05Z</time></trkpt><trkpt lat="37.2555273409033" lon="14.886794605059729"><ele>99.0</ele><time>2026-04-06T11:58:06Z</time></trkpt><trkpt lat="37.25557802283099" lon="14.886889251110569"><ele>99.0</ele><time>2026-04-06T11:58:07Z</time></trkpt><trkpt lat="37.255632484356916" lon="14.886976050612088"><ele>99.0</ele><time>2026-04-06T11:58:08Z</time></trkpt><trkpt lat="37.255677320142" lon="14.88706639947271"><ele>99.0</ele><time>2026-04-06T11:58:09Z</time></trkpt><trkpt lat="37.255709872751304" lon="14.887169100929576"><ele>96.4</ele><time>2026-04-06T11:58:10Z</time></trkpt><trkpt lat="37.255730770697426" lon="14.887278782778022"><ele>93.80000000000001</ele><time>2026-04-06T11:58:11Z</time></trkpt><trkpt lat="37.25575402275664" lon="14.887391227833987"><ele>91.19999999999999</ele><time>2026-04-06T11:58:12Z</time></trkpt><trkpt lat="37.25578221651926" lon="14.887507426589682"><ele>88.6</ele><time>2026-04-06T11:58:13Z</time></trkpt><trkpt lat="37.255816384615166" lon="14.887626083182584"><ele>86.0</ele><time>2026-04-06T11:58:14Z</time></trkpt><trkpt lat="37.25585234288302" lon="14.887745451789515"><ele>86.0</ele><time>2026-04-06T11:58:15Z</time></trkpt><trkpt lat="37.255884868318475" lon="14.887866466620885"><ele>86.0</ele><time>2026-04-06T11:58:16Z</time></trkpt><trkpt lat="37.25591301089243" lon="14.887989024462682"><ele>86.0</ele><time>2026-04-06T11:58:17Z</time></trkpt><trkpt lat="37.255935848253365" lon="14.888115845352452"><ele>86.0</ele><time>2026-04-06T11:58:18Z</time></trkpt><trkpt lat="37.255956201152635" lon="14.888245236989084"><ele>86.0</ele><time>2026-04-06T11:58:19Z</time></trkpt><trkpt lat="37.2559698707378" lon="14.8883774577482"><ele>85.6</ele><time>2026-04-06T11:58:20Z</time></trkpt><trkpt lat="37.25598019442316" lon="14.888511304683506"><ele>85.19999999999999</ele><time>2026-04-06T11:58:21Z</time></trkpt><trkpt lat="37.255980573788264" lon="14.888645405710022"><ele>84.80000000000001</ele><time>2026-04-06T11:58:22Z</time></trkpt><trkpt lat="37.25597521856725" lon="14.888778818416043"><ele>84.4</ele><time>2026-04-06T11:58:23Z</time></trkpt><trkpt lat="37.25596846325722" lon="14.88891187571766"><ele>84.0</ele><time>2026-04-06T11:58:24Z</time></trkpt><trkpt lat="37.25596116030235" lon="14.88904507930292"><ele>84.0</ele><time>2026-04-06T11:58:25Z</time></trkpt><trkpt lat="37.25595168001481" lon="14.88918322880037"><ele>84.0</ele><time>2026-04-06T11:58:26Z</time></trkpt><trkpt lat="37.255939327889145" lon="14.889323640007914"><ele>84.0</ele><time>2026-04-06T11:58:27Z</time></trkpt><trkpt lat="37.255928103327086" lon="14.88946504348425"><ele>84.0</ele><time>2026-04-06T11:58:28Z</time></trkpt><trkpt lat="37.2559199673507" lon="14.889610219625405"><ele>83.5</ele><time>2026-04-06T11:58:29Z</time></trkpt><trkpt lat="37.255910371791856" lon="14.889755108484424"><ele>83.0</ele><time>2026-04-06T11:58:30Z</time></trkpt><trkpt lat="37.25590169795852" lon="14.88990097291423"><ele>82.5</ele><time>2026-04-06T11:58:31Z</time></trkpt><trkpt lat="37.25589574749242" lon="14.89004506599733"><ele>82.0</ele><time>2026-04-06T11:58:32Z</time></trkpt><trkpt lat="37.25588736966813" lon="14.890186670439382"><ele>82.0</ele><time>2026-04-06T11:58:33Z</time></trkpt><trkpt lat="37.25588004904477" lon="14.890326359709615"><ele>82.0</ele><time>2026-04-06T11:58:34Z</time></trkpt><trkpt lat="37.25587436937809" lon="14.890457568408058"><ele>82.0</ele><time>2026-04-06T11:58:35Z</time></trkpt><trkpt lat="37.255870406082806" lon="14.890579546618094"><ele>82.0</ele><time>2026-04-06T11:58:36Z</time></trkpt><trkpt lat="37.255865261849245" lon="14.890693855049669"><ele>82.0</ele><time>2026-04-06T11:58:37Z</time></trkpt><trkpt lat="37.25586017501227" lon="14.890801287941072"><ele>82.0</ele><time>2026-04-06T11:58:38Z</time></trkpt><trkpt lat="37.255855440059555" lon="14.890903954950073"><ele>82.0</ele><time>2026-04-06T11:58:39Z</time></trkpt><trkpt lat="37.25585008485767" lon="14.891003579222936"><ele>82.0</ele><time>2026-04-06T11:58:40Z</time></trkpt><trkpt lat="37.255843422367825" lon="14.891102069920509"><ele>82.0</ele><time>2026-04-06T11:58:41Z</time></trkpt><trkpt lat="37.25583806993129" lon="14.891198790687126"><ele>82.0</ele><time>2026-04-06T11:58:42Z</time></trkpt><trkpt lat="37.255831106113554" lon="14.891290416096503"><ele>82.0</ele><time>2026-04-06T11:58:43Z</time></trkpt><trkpt lat="37.2558228891438" lon="14.891376414636117"><ele>81.66666666666666</ele><time>2026-04-06T11:58:44Z</time></trkpt><trkpt lat="37.25581089350385" lon="14.8914600575128"><ele>81.33333333333333</ele><time>2026-04-06T11:58:45Z</time></trkpt><trkpt lat="37.255798479905714" lon="14.891542239746462"><ele>81.0</ele><time>2026-04-06T11:58:46Z</time></trkpt><trkpt lat="37.25578795243267" lon="14.89162804969933"><ele>80.66666666666667</ele><time>2026-04-06T11:58:47Z</time></trkpt><trkpt lat="37.25577428488011" lon="14.891722956953876"><ele>80.33333333333334</ele><time>2026-04-06T11:58:48Z</time></trkpt><trkpt lat="37.25575586837922" lon="14.891827310844448"><ele>80.0</ele><time>2026-04-06T11:58:49Z</time></trkpt><trkpt lat="37.25573591571543" lon="14.891937538411185"><ele>79.6</ele><time>2026-04-06T11:58:50Z</time></trkpt><trkpt lat="37.255714634611564" lon="14.892054530796592"><ele>79.2</ele><time>2026-04-06T11:58:51Z</time></trkpt><trkpt lat="37.25569819303981" lon="14.8921783157375"><ele>78.8</ele><time>2026-04-06T11:58:52Z</time></trkpt><trkpt lat="37.255682483906085" lon="14.892308480042557"><ele>78.4</ele><time>2026-04-06T11:58:53Z</time></trkpt><trkpt lat="37.25566393643471" lon="14.892437941018597"><ele>78.0</ele><time>2026-04-06T11:58:54Z</time></trkpt><trkpt lat="37.255642440096025" lon="14.892562839867802"><ele>77.33333333333333</ele><time>2026-04-06T11:58:55Z</time></trkpt><trkpt lat="37.25562517523051" lon="14.892682388289119"><ele>76.66666666666667</ele><time>2026-04-06T11:58:56Z</time></trkpt><trkpt lat="37.255612207794165" lon="14.892791883221358"><ele>76.0</ele><time>2026-04-06T11:58:57Z</time></trkpt><trkpt lat="37.255598797761245" lon="14.892891750226449"><ele>75.33333333333334</ele><time>2026-04-06T11:58:58Z</time></trkpt><trkpt lat="37.25558433810033" lon="14.892988061461985"><ele>74.66666666666667</ele><time>2026-04-06T11:58:59Z</time></trkpt><trkpt lat="37.25556895019907" lon="14.893082413586072"><ele>74.0</ele><time>2026-04-06T11:59:00Z</time></trkpt><trkpt lat="37.25555414566293" lon="14.8931833966848"><ele>74.8</ele><time>2026-04-06T11:59:01Z</time></trkpt><trkpt lat="37.255539154135995" lon="14.893291038123268"><ele>75.60000000000001</ele><time>2026-04-06T11:59:02Z</time></trkpt><trkpt lat="37.255525147723645" lon="14.893406316635417"><ele>76.4</ele><time>2026-04-06T11:59:03Z</time></trkpt><trkpt lat="37.25550671079012" lon="14.89352636018592"><ele>77.2</ele><time>2026-04-06T11:59:04Z</time></trkpt><trkpt lat="37.25548501992618" lon="14.893644674860498"><ele>78.0</ele><time>2026-04-06T11:59:05Z</time></trkpt><trkpt lat="37.25546160866088" lon="14.893762487825"><ele>78.0</ele><time>2026-04-06T11:59:06Z</time></trkpt><trkpt lat="37.25542800736097" lon="14.893875089566144"><ele>78.0</ele><time>2026-04-06T11:59:07Z</time></trkpt><trkpt lat="37.25539677860106" lon="14.893977449082053"><ele>78.0</ele><time>2026-04-06T11:59:08Z</time></trkpt><trkpt lat="37.25536612149313" lon="14.89406355852222"><ele>78.0</ele><time>2026-04-06T11:59:09Z</time></trkpt><trkpt lat="37.255340261872114" lon="14.894143102356669"><ele>78.0</ele><time>2026-04-06T11:59:10Z</time></trkpt><trkpt lat="37.25530861606455" lon="14.89421450873173"><ele>78.0</ele><time>2026-04-06T11:59:11Z</time></trkpt><trkpt lat="37.25527808778287" lon="14.894283720878848"><ele>76.6</ele><time>2026-04-06T11:59:12Z</time></trkpt><trkpt lat="37.255215796204624" lon="14.894415860802473"><ele>75.19999999999999</ele><time>2026-04-06T11:59:14Z</time></trkpt><trkpt lat="37.25517240796118" lon="14.894477163133068"><ele>73.8</ele><time>2026-04-06T11:59:16Z</time></trkpt><trkpt lat="37.25512893541452" lon="14.894568133476222"><ele>72.39999999999999</ele><time>2026-04-06T12:00:14Z</time></trkpt><trkpt lat="37.255094379729584" lon="14.894682207626188"><ele>71.0</ele><time>2026-04-06T12:00:16Z</time></trkpt><trkpt lat="37.25503248412167" lon="14.89480176059286"><ele>71.0</ele><time>2026-04-06T12:00:18Z</time></trkpt><trkpt lat="37.254987433092104" lon="14.894868779681998"><ele>71.0</ele><time>2026-04-06T12:00:19Z</time></trkpt><trkpt lat="37.25492829726153" lon="14.894946222522494"><ele>71.0</ele><time>2026-04-06T12:00:20Z</time></trkpt><trkpt lat="37.25485219351305" lon="14.895027607200614"><ele>71.0</ele><time>2026-04-06T12:00:21Z</time></trkpt><trkpt lat="37.254773139708426" lon="14.895086380400034"><ele>71.0</ele><time>2026-04-06T12:00:22Z</time></trkpt><trkpt lat="37.25467685153521" lon="14.895142209761207"><ele>70.39999999999999</ele><time>2026-04-06T12:00:23Z</time></trkpt><trkpt lat="37.25457916765175" lon="14.895185525414163"><ele>69.8</ele><time>2026-04-06T12:00:24Z</time></trkpt><trkpt lat="37.254485064517226" lon="14.895217212553577"><ele>69.19999999999999</ele><time>2026-04-06T12:00:25Z</time></trkpt><trkpt lat="37.25438353562067" lon="14.895236892970942"><ele>68.6</ele><time>2026-04-06T12:00:26Z</time></trkpt><trkpt lat="37.25428372584783" lon="14.895231190927865"><ele>68.0</ele><time>2026-04-06T12:00:27Z</time></trkpt><trkpt lat="37.25419554127535" lon="14.89518710955375"><ele>68.0</ele><time>2026-04-06T12:00:28Z</time></trkpt><trkpt lat="37.25411462897961" lon="14.895128746151277"><ele>68.0</ele><time>2026-04-06T12:00:29Z</time></trkpt><trkpt lat="37.25404126266484" lon="14.895067323453947"><ele>68.0</ele><time>2026-04-06T12:00:30Z</time></trkpt><trkpt lat="37.25397024772801" lon="14.895007628967692"><ele>68.0</ele><time>2026-04-06T12:00:31Z</time></trkpt><trkpt lat="37.253900377956384" lon="14.894950139712392"><ele>68.0</ele><time>2026-04-06T12:00:32Z</time></trkpt><trkpt lat="37.25382434994586" lon="14.894882958674735"><ele>68.0</ele><time>2026-04-06T12:00:33Z</time></trkpt><trkpt lat="37.253741444114745" lon="14.894818296180492"><ele>69.4</ele><time>2026-04-06T12:00:34Z</time></trkpt><trkpt lat="37.25365410810576" lon="14.89475708707874"><ele>70.8</ele><time>2026-04-06T12:00:35Z</time></trkpt><trkpt lat="37.25356168344985" lon="14.894701233535013"><ele>72.2</ele><time>2026-04-06T12:00:36Z</time></trkpt><trkpt lat="37.25345680737864" lon="14.894655898064068"><ele>73.6</ele><time>2026-04-06T12:00:37Z</time></trkpt><trkpt lat="37.25334513888906" lon="14.894616587188304"><ele>75.0</ele><time>2026-04-06T12:00:38Z</time></trkpt><trkpt lat="37.2532294757742" lon="14.894579099900692"><ele>75.4</ele><time>2026-04-06T12:00:39Z</time></trkpt><trkpt lat="37.25311444305678" lon="14.89454545614446"><ele>75.8</ele><time>2026-04-06T12:00:40Z</time></trkpt><trkpt lat="37.253007819116455" lon="14.89451480859912"><ele>76.2</ele><time>2026-04-06T12:00:41Z</time></trkpt><trkpt lat="37.25290681248092" lon="14.894484156163115"><ele>76.6</ele><time>2026-04-06T12:00:42Z</time></trkpt><trkpt lat="37.25279856460799" lon="14.894451343207574"><ele>77.0</ele><time>2026-04-06T12:00:43Z</time></trkpt><trkpt lat="37.25268915755458" lon="14.894420120313674"><ele>77.0</ele><time>2026-04-06T12:00:44Z</time></trkpt><trkpt lat="37.2525786273455" lon="14.894387469460732"><ele>77.0</ele><time>2026-04-06T12:00:45Z</time></trkpt><trkpt lat="37.25246873375505" lon="14.89435250562591"><ele>77.0</ele><time>2026-04-06T12:00:46Z</time></trkpt><trkpt lat="37.25235990049849" lon="14.894313003629412"><ele>77.0</ele><time>2026-04-06T12:00:47Z</time></trkpt><trkpt lat="37.252250648340734" lon="14.89427072247794"><ele>78.5</ele><time>2026-04-06T12:00:48Z</time></trkpt><trkpt lat="37.25213878298708" lon="14.89423077441322"><ele>80.0</ele><time>2026-04-06T12:00:49Z</time></trkpt><trkpt lat="37.252023162494076" lon="14.894196370190107"><ele>81.5</ele><time>2026-04-06T12:00:50Z</time></trkpt><trkpt lat="37.251905641222365" lon="14.89416445303613"><ele>83.0</ele><time>2026-04-06T12:00:51Z</time></trkpt><trkpt lat="37.25178626511852" lon="14.894137709839152"><ele>83.0</ele><time>2026-04-06T12:00:52Z</time></trkpt><trkpt lat="37.251671204037926" lon="14.894117791733517"><ele>83.0</ele><time>2026-04-06T12:00:53Z</time></trkpt><trkpt lat="37.25155983096409" lon="14.894098203703823"><ele>83.0</ele><time>2026-04-06T12:00:54Z</time></trkpt><trkpt lat="37.25145205841983" lon="14.894081960157736"><ele>83.0</ele><time>2026-04-06T12:00:55Z</time></trkpt><trkpt lat="37.25134852425392" lon="14.894071212356074"><ele>83.0</ele><time>2026-04-06T12:00:56Z</time></trkpt><trkpt lat="37.25125438054296" lon="14.894034106135262"><ele>83.0</ele><time>2026-04-06T12:00:57Z</time></trkpt><trkpt lat="37.25115801439322" lon="14.894035844317926"><ele>83.0</ele><time>2026-04-06T12:00:58Z</time></trkpt><trkpt lat="37.25106106484297" lon="14.89401477965452"><ele>83.0</ele><time>2026-04-06T12:00:59Z</time></trkpt><trkpt lat="37.25096080850954" lon="14.894004421176211"><ele>83.0</ele><time>2026-04-06T12:01:00Z</time></trkpt><trkpt lat="37.25085892023701" lon="14.894010246523333"><ele>83.0</ele><time>2026-04-06T12:01:01Z</time></trkpt><trkpt lat="37.250754721900606" lon="14.894030700797012"><ele>83.0</ele><time>2026-04-06T12:01:02Z</time></trkpt><trkpt lat="37.25064886259033" lon="14.894057800931689"><ele>83.0</ele><time>2026-04-06T12:01:03Z</time></trkpt><trkpt lat="37.250539055372485" lon="14.894086366199783"><ele>83.0</ele><time>2026-04-06T12:01:04Z</time></trkpt><trkpt lat="37.25042723406316" lon="14.894117460679936"><ele>83.0</ele><time>2026-04-06T12:01:05Z</time></trkpt><trkpt lat="37.25031301046819" lon="14.894148376389317"><ele>82.0</ele><time>2026-04-06T12:01:06Z</time></trkpt><trkpt lat="37.25019617169912" lon="14.894177452693743"><ele>81.0</ele><time>2026-04-06T12:01:07Z</time></trkpt><trkpt lat="37.250076847470915" lon="14.894206476528394"><ele>80.0</ele><time>2026-04-06T12:01:08Z</time></trkpt><trkpt lat="37.24995742264883" lon="14.894236272161288"><ele>79.0</ele><time>2026-04-06T12:01:09Z</time></trkpt><trkpt lat="37.249837334067216" lon="14.894260080614872"><ele>79.5</ele><time>2026-04-06T12:01:10Z</time></trkpt><trkpt lat="37.249715594381364" lon="14.894275758250615"><ele>80.0</ele><time>2026-04-06T12:01:11Z</time></trkpt><trkpt lat="37.24959243678405" lon="14.89428232944873"><ele>80.5</ele><time>2026-04-06T12:01:12Z</time></trkpt><trkpt lat="37.24946941683549" lon="14.894280156328637"><ele>81.0</ele><time>2026-04-06T12:01:13Z</time></trkpt><trkpt lat="37.249344231222636" lon="14.89427428412533"><ele>81.0</ele><time>2026-04-06T12:01:14Z</time></trkpt><trkpt lat="37.24921752457489" lon="14.894263927174208"><ele>81.0</ele><time>2026-04-06T12:01:15Z</time></trkpt><trkpt lat="37.24909008477307" lon="14.894251040067466"><ele>81.0</ele><time>2026-04-06T12:01:16Z</time></trkpt><trkpt lat="37.24896105970036" lon="14.894239526017326"><ele>81.0</ele><time>2026-04-06T12:01:17Z</time></trkpt><trkpt lat="37.24883150672355" lon="14.894227845349409"><ele>83.0</ele><time>2026-04-06T12:01:18Z</time></trkpt><trkpt lat="37.248700681383895" lon="14.894215860233514"><ele>85.0</ele><time>2026-04-06T12:01:19Z</time></trkpt><trkpt lat="37.248571740675146" lon="14.894204036568839"><ele>87.0</ele><time>2026-04-06T12:01:20Z</time></trkpt><trkpt lat="37.24844282461491" lon="14.894193945903204"><ele>89.0</ele><time>2026-04-06T12:01:21Z</time></trkpt><trkpt lat="37.24831843114344" lon="14.894182180648079"><ele>89.0</ele><time>2026-04-06T12:01:22Z</time></trkpt><trkpt lat="37.24820140866703" lon="14.894167146499065"><ele>89.0</ele><time>2026-04-06T12:01:23Z</time></trkpt><trkpt lat="37.24809032407561" lon="14.894153288406896"><ele>89.0</ele><time>2026-04-06T12:01:24Z</time></trkpt><trkpt lat="37.24798363542701" lon="14.894144208216813"><ele>89.0</ele><time>2026-04-06T12:01:25Z</time></trkpt><trkpt lat="37.24788634550707" lon="14.894137544700168"><ele>89.0</ele><time>2026-04-06T12:01:26Z</time></trkpt><trkpt lat="37.24779924429559" lon="14.894131363118458"><ele>89.16666666666667</ele><time>2026-04-06T12:01:27Z</time></trkpt><trkpt lat="37.24772395711067" lon="14.89412261580048"><ele>89.33333333333334</ele><time>2026-04-06T12:01:28Z</time></trkpt><trkpt lat="37.24765991710063" lon="14.894114334599807"><ele>89.5</ele><time>2026-04-06T12:01:29Z</time></trkpt><trkpt lat="37.24759197700159" lon="14.894109798797063"><ele>89.66666666666667</ele><time>2026-04-06T12:01:31Z</time></trkpt><trkpt lat="37.24757831238879" lon="14.894024822021295"><ele>89.83333333333333</ele><time>2026-04-06T12:01:38Z</time></trkpt><trkpt lat="37.24769187797701" lon="14.894003460811696"><ele>90.0</ele><time>2026-04-06T12:02:43Z</time></trkpt><trkpt lat="37.24774500288299" lon="14.894059242560864"><ele>90.0</ele><time>2026-04-06T12:02:47Z</time></trkpt><trkpt lat="37.24763354008696" lon="14.894122083821896"><ele>90.0</ele><time>2026-04-06T12:02:51Z</time></trkpt><trkpt lat="37.24756703419327" lon="14.894106388287272"><ele>90.0</ele><time>2026-04-06T12:02:52Z</time></trkpt><trkpt lat="37.247497836008215" lon="14.894098091429743"><ele>90.0</ele><time>2026-04-06T12:02:53Z</time></trkpt><trkpt lat="37.24742629879957" lon="14.89409834952015"><ele>90.0</ele><time>2026-04-06T12:02:54Z</time></trkpt><trkpt lat="37.24735612756154" lon="14.894114082722714"><ele>90.0</ele><time>2026-04-06T12:02:55Z</time></trkpt><trkpt lat="37.24728619294165" lon="14.894139534022568"><ele>90.16666666666667</ele><time>2026-04-06T12:02:56Z</time></trkpt><trkpt lat="37.24722185075468" lon="14.894178213470465"><ele>90.33333333333333</ele><time>2026-04-06T12:02:57Z</time></trkpt><trkpt lat="37.247158311547" lon="14.894229501302723"><ele>90.5</ele><time>2026-04-06T12:02:58Z</time></trkpt><trkpt lat="37.24709484585048" lon="14.894297338370269"><ele>90.66666666666666</ele><time>2026-04-06T12:02:59Z</time></trkpt><trkpt lat="37.2470446187167" lon="14.894384285994862"><ele>90.83333333333333</ele><time>2026-04-06T12:03:00Z</time></trkpt><trkpt lat="37.24700600121734" lon="14.894482170344965"><ele>91.0</ele><time>2026-04-06T12:03:01Z</time></trkpt><trkpt lat="37.24696531850311" lon="14.894581437736168"><ele>91.0</ele><time>2026-04-06T12:03:02Z</time></trkpt><trkpt lat="37.246928261149726" lon="14.894677834112096"><ele>91.0</ele><time>2026-04-06T12:03:03Z</time></trkpt><trkpt lat="37.24689943390095" lon="14.894777337874332"><ele>91.0</ele><time>2026-04-06T12:03:04Z</time></trkpt><trkpt lat="37.24686910508592" lon="14.894876956012315"><ele>91.0</ele><time>2026-04-06T12:03:05Z</time></trkpt><trkpt lat="37.24683538349631" lon="14.89497116109016"><ele>91.0</ele><time>2026-04-06T12:03:06Z</time></trkpt><trkpt lat="37.246794126837955" lon="14.895057167724897"><ele>91.0</ele><time>2026-04-06T12:03:07Z</time></trkpt><trkpt lat="37.2467442886633" lon="14.8951413245203"><ele>91.16666666666666</ele><time>2026-04-06T12:03:08Z</time></trkpt><trkpt lat="37.24669064568393" lon="14.895223127807654"><ele>91.33333333333333</ele><time>2026-04-06T12:03:09Z</time></trkpt><trkpt lat="37.24663398980792" lon="14.895301785383788"><ele>91.5</ele><time>2026-04-06T12:03:10Z</time></trkpt><trkpt lat="37.24657812162043" lon="14.89538245648956"><ele>91.66666666666667</ele><time>2026-04-06T12:03:11Z</time></trkpt><trkpt lat="37.24653142722279" lon="14.895469503634997"><ele>91.83333333333334</ele><time>2026-04-06T12:03:12Z</time></trkpt><trkpt lat="37.246514827871145" lon="14.895578791388418"><ele>92.0</ele><time>2026-04-06T12:03:13Z</time></trkpt><trkpt lat="37.246523656245664" lon="14.895707008734323"><ele>92.0</ele><time>2026-04-06T12:03:14Z</time></trkpt><trkpt lat="37.24653781478826" lon="14.895835784664277"><ele>92.0</ele><time>2026-04-06T12:03:15Z</time></trkpt><trkpt lat="37.246556491261735" lon="14.895961515684254"><ele>92.0</ele><time>2026-04-06T12:03:16Z</time></trkpt><trkpt lat="37.24657135101717" lon="14.896086038392017"><ele>92.0</ele><time>2026-04-06T12:03:17Z</time></trkpt><trkpt lat="37.24657254726085" lon="14.896219143329843"><ele>92.0</ele><time>2026-04-06T12:03:18Z</time></trkpt><trkpt lat="37.2465737393775" lon="14.896357927682878"><ele>92.19999999999999</ele><time>2026-04-06T12:03:19Z</time></trkpt><trkpt lat="37.24657543909757" lon="14.896497201697562"><ele>92.4</ele><time>2026-04-06T12:03:20Z</time></trkpt><trkpt lat="37.24657813031069" lon="14.89663295086943"><ele>92.6</ele><time>2026-04-06T12:03:21Z</time></trkpt><trkpt lat="37.24657873724065" lon="14.896764370428627"><ele>92.80000000000001</ele><time>2026-04-06T12:03:22Z</time></trkpt><trkpt lat="37.24658178384181" lon="14.896890261668108"><ele>93.0</ele><time>2026-04-06T12:03:23Z</time></trkpt><trkpt lat="37.24658070009908" lon="14.897010661642232"><ele>92.4</ele><time>2026-04-06T12:03:24Z</time></trkpt><trkpt lat="37.246569832146946" lon="14.89712107833879"><ele>91.80000000000001</ele><time>2026-04-06T12:03:25Z</time></trkpt><trkpt lat="37.2465484761069" lon="14.897232017808385"><ele>91.2</ele><time>2026-04-06T12:03:26Z</time></trkpt><trkpt lat="37.24650826450246" lon="14.897342916307716"><ele>90.6</ele><time>2026-04-06T12:03:27Z</time></trkpt><trkpt lat="37.24645388459721" lon="14.897450433804096"><ele>90.0</ele><time>2026-04-06T12:03:28Z</time></trkpt><trkpt lat="37.24640208709528" lon="14.897560842499315"><ele>91.4</ele><time>2026-04-06T12:03:29Z</time></trkpt><trkpt lat="37.24635361977814" lon="14.897670952028156"><ele>92.8</ele><time>2026-04-06T12:03:30Z</time></trkpt><trkpt lat="37.24630690320789" lon="14.89778147712154"><ele>94.19999999999999</ele><time>2026-04-06T12:03:31Z</time></trkpt><trkpt lat="37.246259501598644" lon="14.897890358241451"><ele>95.6</ele><time>2026-04-06T12:03:32Z</time></trkpt><trkpt lat="37.24620892892531" lon="14.897999755238692"><ele>97.0</ele><time>2026-04-06T12:03:33Z</time></trkpt><trkpt lat="37.246157330559186" lon="14.898114492224675"><ele>97.0</ele><time>2026-04-06T12:03:34Z</time></trkpt><trkpt lat="37.24610717497299" lon="14.898225214702586"><ele>97.0</ele><time>2026-04-06T12:03:35Z</time></trkpt><trkpt lat="37.24605429689523" lon="14.898333178757262"><ele>97.0</ele><time>2026-04-06T12:03:36Z</time></trkpt><trkpt lat="37.24600093908222" lon="14.898440740614076"><ele>97.0</ele><time>2026-04-06T12:03:37Z</time></trkpt><trkpt lat="37.24594971173346" lon="14.89854715436619"><ele>97.0</ele><time>2026-04-06T12:03:38Z</time></trkpt><trkpt lat="37.24590271262563" lon="14.898648006995963"><ele>96.33333333333334</ele><time>2026-04-06T12:03:39Z</time></trkpt><trkpt lat="37.245858625988255" lon="14.898737459785398"><ele>95.66666666666667</ele><time>2026-04-06T12:03:40Z</time></trkpt><trkpt lat="37.24580575749735" lon="14.898810585605224"><ele>95.0</ele><time>2026-04-06T12:03:41Z</time></trkpt><trkpt lat="37.24574105705486" lon="14.898853385484841"><ele>94.33333333333334</ele><time>2026-04-06T12:03:42Z</time></trkpt><trkpt lat="37.24566813771714" lon="14.898858313087903"><ele>93.66666666666667</ele><time>2026-04-06T12:03:43Z</time></trkpt><trkpt lat="37.245591736685576" lon="14.898827026969833"><ele>93.0</ele><time>2026-04-06T12:03:44Z</time></trkpt><trkpt lat="37.245515048120346" lon="14.89876849606917"><ele>92.80000000000001</ele><time>2026-04-06T12:03:45Z</time></trkpt><trkpt lat="37.24543520189606" lon="14.898700847826598"><ele>92.6</ele><time>2026-04-06T12:03:46Z</time></trkpt><trkpt lat="37.245362508464716" lon="14.8986361296613"><ele>92.4</ele><time>2026-04-06T12:03:47Z</time></trkpt><trkpt lat="37.245289428971624" lon="14.898573197306373"><ele>92.19999999999999</ele><time>2026-04-06T12:03:48Z</time></trkpt><trkpt lat="37.24521550561201" lon="14.898512547068403"><ele>92.0</ele><time>2026-04-06T12:03:49Z</time></trkpt><trkpt lat="37.24514121836616" lon="14.89845502018594"><ele>92.5</ele><time>2026-04-06T12:03:50Z</time></trkpt><trkpt lat="37.24506427484664" lon="14.898394011959471"><ele>93.0</ele><time>2026-04-06T12:03:51Z</time></trkpt><trkpt lat="37.244997461081375" lon="14.898337818565995"><ele>93.5</ele><time>2026-04-06T12:03:52Z</time></trkpt><trkpt lat="37.24493548325726" lon="14.898283948124737"><ele>94.0</ele><time>2026-04-06T12:03:53Z</time></trkpt><trkpt lat="37.24486801963394" lon="14.898228231068117"><ele>94.5</ele><time>2026-04-06T12:03:54Z</time></trkpt><trkpt lat="37.24479412430319" lon="14.89816931279133"><ele>95.0</ele><time>2026-04-06T12:03:55Z</time></trkpt><trkpt lat="37.244715721622846" lon="14.898109586498181"><ele>95.0</ele><time>2026-04-06T12:03:56Z</time></trkpt><trkpt lat="37.244636630385344" lon="14.898045415075273"><ele>95.0</ele><time>2026-04-06T12:03:57Z</time></trkpt><trkpt lat="37.24455589827147" lon="14.897978899603697"><ele>95.0</ele><time>2026-04-06T12:03:58Z</time></trkpt><trkpt lat="37.24447141336571" lon="14.897912156549662"><ele>95.0</ele><time>2026-04-06T12:03:59Z</time></trkpt><trkpt lat="37.244385740642855" lon="14.897845104575927"><ele>95.0</ele><time>2026-04-06T12:04:00Z</time></trkpt><trkpt lat="37.24429823068594" lon="14.897774545679628"><ele>95.0</ele><time>2026-04-06T12:04:01Z</time></trkpt><trkpt lat="37.2442086489349" lon="14.897703608974329"><ele>95.0</ele><time>2026-04-06T12:04:02Z</time></trkpt><trkpt lat="37.244120548358865" lon="14.897631807677172"><ele>95.0</ele><time>2026-04-06T12:04:03Z</time></trkpt><trkpt lat="37.24403093684101" lon="14.897564675684544"><ele>95.0</ele><time>2026-04-06T12:04:04Z</time></trkpt><trkpt lat="37.243940565584595" lon="14.897500426836169"><ele>95.0</ele><time>2026-04-06T12:04:05Z</time></trkpt><trkpt lat="37.24385076487537" lon="14.897442558897547"><ele>96.4</ele><time>2026-04-06T12:04:06Z</time></trkpt><trkpt lat="37.24376601056642" lon="14.897402055104038"><ele>97.8</ele><time>2026-04-06T12:04:07Z</time></trkpt><trkpt lat="37.243694195608754" lon="14.89738002620767"><ele>99.19999999999999</ele><time>2026-04-06T12:04:08.001Z</time></trkpt><trkpt lat="37.24357711688877" lon="14.897367215638374"><ele>100.6</ele><time>2026-04-06T12:04:10.001Z</time></trkpt><trkpt lat="37.24345324101355" lon="14.897374564735978"><ele>102.0</ele><time>2026-04-06T12:04:12.001Z</time></trkpt><trkpt lat="37.24337346339168" lon="14.89739123159374"><ele>102.0</ele><time>2026-04-06T12:04:13.001Z</time></trkpt><trkpt lat="37.243282014894916" lon="14.897411484456548"><ele>102.0</ele><time>2026-04-06T12:04:14.001Z</time></trkpt><trkpt lat="37.243185551559684" lon="14.897430423630668"><ele>102.0</ele><time>2026-04-06T12:04:15.001Z</time></trkpt><trkpt lat="37.243090686475625" lon="14.897442244650447"><ele>102.0</ele><time>2026-04-06T12:04:16.001Z</time></trkpt><trkpt lat="37.24299957521174" lon="14.897450669638873"><ele>102.0</ele><time>2026-04-06T12:04:17.001Z</time></trkpt><trkpt lat="37.24291614455396" lon="14.89745905024068"><ele>102.14285714285714</ele><time>2026-04-06T12:04:18.001Z</time></trkpt><trkpt lat="37.242837859635216" lon="14.897465704175296"><ele>102.28571428571429</ele><time>2026-04-06T12:04:19.001Z</time></trkpt><trkpt lat="37.242764199908024" lon="14.897470006118052"><ele>102.42857142857142</ele><time>2026-04-06T12:04:20.001Z</time></trkpt><trkpt lat="37.242692796718785" lon="14.897466139913556"><ele>102.57142857142857</ele><time>2026-04-06T12:04:21.001Z</time></trkpt><trkpt lat="37.2426230154406" lon="14.897462195557436"><ele>102.71428571428571</ele><time>2026-04-06T12:04:22.001Z</time></trkpt><trkpt lat="37.24255881214215" lon="14.897458145078977"><ele>102.85714285714285</ele><time>2026-04-06T12:04:23.001Z</time></trkpt><trkpt lat="37.24249339727761" lon="14.897448406599372"><ele>103.0</ele><time>2026-04-06T12:04:24.001Z</time></trkpt><trkpt lat="37.24242105777388" lon="14.897455508263402"><ele>103.0</ele><time>2026-04-06T12:04:25.001Z</time></trkpt><trkpt lat="37.2423418549936" lon="14.89736347957375"><ele>103.0</ele><time>2026-04-06T12:04:26.001Z</time></trkpt><trkpt lat="37.24226411277787" lon="14.89732194571737"><ele>103.0</ele><time>2026-04-06T12:04:27.001Z</time></trkpt><trkpt lat="37.2421843783128" lon="14.89729034910283"><ele>103.0</ele><time>2026-04-06T12:04:28.001Z</time></trkpt><trkpt lat="37.24210598945503" lon="14.897250815729295"><ele>103.0</ele><time>2026-04-06T12:04:29.001Z</time></trkpt><trkpt lat="37.242024757007265" lon="14.897202319522993"><ele>103.0</ele><time>2026-04-06T12:04:30.001Z</time></trkpt><trkpt lat="37.241937502067685" lon="14.897155440950735"><ele>103.0</ele><time>2026-04-06T12:04:31.001Z</time></trkpt><trkpt lat="37.241845158440064" lon="14.897112302364738"><ele>103.0</ele><time>2026-04-06T12:04:32.001Z</time></trkpt><trkpt lat="37.241749708315375" lon="14.897071227870539"><ele>103.0</ele><time>2026-04-06T12:04:33.001Z</time></trkpt><trkpt lat="37.241653786826035" lon="14.897024596825625"><ele>103.0</ele><time>2026-04-06T12:04:34.001Z</time></trkpt><trkpt lat="37.241556629020565" lon="14.896979741219747"><ele>103.0</ele><time>2026-04-06T12:04:35.001Z</time></trkpt><trkpt lat="37.241458455873804" lon="14.89693627523324"><ele>103.0</ele><time>2026-04-06T12:04:36.001Z</time></trkpt><trkpt lat="37.24135779816057" lon="14.896892145913412"><ele>103.0</ele><time>2026-04-06T12:04:37.001Z</time></trkpt><trkpt lat="37.241255389662584" lon="14.8968477061256"><ele>103.0</ele><time>2026-04-06T12:04:38.001Z</time></trkpt><trkpt lat="37.2411522979002" lon="14.896803789819359"><ele>103.0</ele><time>2026-04-06T12:04:39.001Z</time></trkpt><trkpt lat="37.24105680465495" lon="14.896761530042758"><ele>103.16666666666667</ele><time>2026-04-06T12:04:40.001Z</time></trkpt><trkpt lat="37.24096650910914" lon="14.896719702738435"><ele>103.33333333333334</ele><time>2026-04-06T12:04:41.001Z</time></trkpt><trkpt lat="37.240880924249836" lon="14.896680677815741"><ele>103.5</ele><time>2026-04-06T12:04:42.001Z</time></trkpt><trkpt lat="37.240799024297516" lon="14.89664390831322"><ele>103.66666666666666</ele><time>2026-04-06T12:04:43.001Z</time></trkpt><trkpt lat="37.240720128390905" lon="14.896611670240004"><ele>103.83333333333333</ele><time>2026-04-06T12:04:44Z</time></trkpt><trkpt lat="37.240649309492795" lon="14.896576264929823"><ele>104.0</ele><time>2026-04-06T12:04:45Z</time></trkpt><trkpt lat="37.2405818735559" lon="14.896542496986358"><ele>104.33333333333333</ele><time>2026-04-06T12:04:46Z</time></trkpt><trkpt lat="37.240511287794185" lon="14.896510183606361"><ele>104.66666666666666</ele><time>2026-04-06T12:04:47Z</time></trkpt><trkpt lat="37.24043768068789" lon="14.896478554724037"><ele>105.0</ele><time>2026-04-06T12:04:48Z</time></trkpt><trkpt lat="37.24036288852503" lon="14.896444552373326"><ele>105.33333333333334</ele><time>2026-04-06T12:04:49Z</time></trkpt><trkpt lat="37.2402858573987" lon="14.896409890761408"><ele>105.66666666666667</ele><time>2026-04-06T12:04:50Z</time></trkpt><trkpt lat="37.24020750171279" lon="14.896375472712332"><ele>106.0</ele><time>2026-04-06T12:04:51Z</time></trkpt><trkpt lat="37.24012433863931" lon="14.896337388738646"><ele>106.0</ele><time>2026-04-06T12:04:52Z</time></trkpt><trkpt lat="37.240033555145935" lon="14.89629352026135"><ele>106.0</ele><time>2026-04-06T12:04:53Z</time></trkpt><trkpt lat="37.23993772957463" lon="14.896250083868388"><ele>106.0</ele><time>2026-04-06T12:04:54Z</time></trkpt><trkpt lat="37.239836188766304" lon="14.896213296203905"><ele>106.0</ele><time>2026-04-06T12:04:55Z</time></trkpt><trkpt lat="37.2397321277649" lon="14.896177806246795"><ele>106.0</ele><time>2026-04-06T12:04:56Z</time></trkpt><trkpt lat="37.239626621462214" lon="14.896143031107764"><ele>106.75</ele><time>2026-04-06T12:04:57Z</time></trkpt><trkpt lat="37.239519241496275" lon="14.896105410284584"><ele>107.5</ele><time>2026-04-06T12:04:58Z</time></trkpt><trkpt lat="37.23940864839644" lon="14.896064547625159"><ele>108.25</ele><time>2026-04-06T12:04:59Z</time></trkpt><trkpt lat="37.23929298545179" lon="14.896020147032242"><ele>109.0</ele><time>2026-04-06T12:05:00Z</time></trkpt><trkpt lat="37.23917403966074" lon="14.895975768616"><ele>109.0</ele><time>2026-04-06T12:05:01Z</time></trkpt><trkpt lat="37.239060458846346" lon="14.895935989437815"><ele>109.0</ele><time>2026-04-06T12:05:02Z</time></trkpt><trkpt lat="37.238942669114266" lon="14.895898111877182"><ele>109.0</ele><time>2026-04-06T12:05:03Z</time></trkpt><trkpt lat="37.23881873435857" lon="14.89586102575578"><ele>109.0</ele><time>2026-04-06T12:05:04Z</time></trkpt><trkpt lat="37.23869060607775" lon="14.895825985196403"><ele>109.5</ele><time>2026-04-06T12:05:05Z</time></trkpt><trkpt lat="37.238560050796586" lon="14.895794151221176"><ele>110.0</ele><time>2026-04-06T12:05:06Z</time></trkpt><trkpt lat="37.238426968321" lon="14.895762708811848"><ele>110.5</ele><time>2026-04-06T12:05:07Z</time></trkpt><trkpt lat="37.238292173210525" lon="14.89572873362255"><ele>111.0</ele><time>2026-04-06T12:05:08Z</time></trkpt><trkpt lat="37.23815439933442" lon="14.895694330854944"><ele>111.25</ele><time>2026-04-06T12:05:09Z</time></trkpt><trkpt lat="37.23801367674931" lon="14.895661749472268"><ele>111.5</ele><time>2026-04-06T12:05:10Z</time></trkpt><trkpt lat="37.23786951620091" lon="14.895634299121248"><ele>111.75</ele><time>2026-04-06T12:05:11Z</time></trkpt><trkpt lat="37.237726304064076" lon="14.895614809588226"><ele>112.0</ele><time>2026-04-06T12:05:12Z</time></trkpt><trkpt lat="37.237585240341275" lon="14.895603792338864"><ele>112.0</ele><time>2026-04-06T12:05:13Z</time></trkpt><trkpt lat="37.23744500569947" lon="14.895603489931322"><ele>112.0</ele><time>2026-04-06T12:05:14Z</time></trkpt><trkpt lat="37.237303738174425" lon="14.895612915335217"><ele>112.0</ele><time>2026-04-06T12:05:15Z</time></trkpt><trkpt lat="37.237158689384195" lon="14.895630522846606"><ele>112.0</ele><time>2026-04-06T12:05:16Z</time></trkpt><trkpt lat="37.237013608256" lon="14.895658737043822"><ele>112.75</ele><time>2026-04-06T12:05:17Z</time></trkpt><trkpt lat="37.236867498165196" lon="14.895696032874671"><ele>113.5</ele><time>2026-04-06T12:05:18Z</time></trkpt><trkpt lat="37.23672162858439" lon="14.895741603803883"><ele>114.25</ele><time>2026-04-06T12:05:19Z</time></trkpt><trkpt lat="37.23657922206221" lon="14.895794952819955"><ele>115.0</ele><time>2026-04-06T12:05:20Z</time></trkpt><trkpt lat="37.236440840826255" lon="14.89586035589646"><ele>115.5</ele><time>2026-04-06T12:05:21Z</time></trkpt><trkpt lat="37.23630863927648" lon="14.895938363752"><ele>116.0</ele><time>2026-04-06T12:05:22Z</time></trkpt><trkpt lat="37.236182437906486" lon="14.896027803257484"><ele>116.5</ele><time>2026-04-06T12:05:23Z</time></trkpt><trkpt lat="37.2360582038064" lon="14.896123720839924"><ele>117.0</ele><time>2026-04-06T12:05:24Z</time></trkpt><trkpt lat="37.23593624814732" lon="14.896225280440786"><ele>117.0</ele><time>2026-04-06T12:05:25Z</time></trkpt><trkpt lat="37.23581729645109" lon="14.89632820104256"><ele>117.0</ele><time>2026-04-06T12:05:26Z</time></trkpt><trkpt lat="37.23570026224684" lon="14.89643749763328"><ele>117.0</ele><time>2026-04-06T12:05:27Z</time></trkpt><trkpt lat="37.23558583931548" lon="14.896549091385085"><ele>117.0</ele><time>2026-04-06T12:05:28Z</time></trkpt><trkpt lat="37.23547412717183" lon="14.896661076631236"><ele>118.25</ele><time>2026-04-06T12:05:29Z</time></trkpt><trkpt lat="37.235367657661556" lon="14.896772239654018"><ele>119.5</ele><time>2026-04-06T12:05:30Z</time></trkpt><trkpt lat="37.23526650405062" lon="14.89688269358714"><ele>120.75</ele><time>2026-04-06T12:05:31Z</time></trkpt><trkpt lat="37.235168804050254" lon="14.89699236482292"><ele>122.0</ele><time>2026-04-06T12:05:32Z</time></trkpt><trkpt lat="37.23507289473395" lon="14.897100283847097"><ele>122.0</ele><time>2026-04-06T12:05:33Z</time></trkpt><trkpt lat="37.23497240768292" lon="14.89721243265088"><ele>122.0</ele><time>2026-04-06T12:05:34Z</time></trkpt><trkpt lat="37.234869632451165" lon="14.897327792410227"><ele>122.0</ele><time>2026-04-06T12:05:35Z</time></trkpt><trkpt lat="37.234765722465575" lon="14.897442664417904"><ele>122.0</ele><time>2026-04-06T12:05:36Z</time></trkpt><trkpt lat="37.23466056421764" lon="14.897557285378447"><ele>123.5</ele><time>2026-04-06T12:05:37Z</time></trkpt><trkpt lat="37.23455490635946" lon="14.897672754960219"><ele>125.0</ele><time>2026-04-06T12:05:38Z</time></trkpt><trkpt lat="37.234448698572066" lon="14.897790945639942"><ele>126.5</ele><time>2026-04-06T12:05:39Z</time></trkpt><trkpt lat="37.234342280873385" lon="14.897908096496003"><ele>128.0</ele><time>2026-04-06T12:05:40Z</time></trkpt><trkpt lat="37.234236388103405" lon="14.898024411084975"><ele>128.0</ele><time>2026-04-06T12:05:41Z</time></trkpt><trkpt lat="37.23413257012633" lon="14.89814238445702"><ele>128.0</ele><time>2026-04-06T12:05:42Z</time></trkpt><trkpt lat="37.234027812860006" lon="14.89826152797803"><ele>128.0</ele><time>2026-04-06T12:05:43Z</time></trkpt><trkpt lat="37.23392269719184" lon="14.898377717577787"><ele>128.0</ele><time>2026-04-06T12:05:44Z</time></trkpt><trkpt lat="37.233817593895786" lon="14.89849855166765"><ele>128.0</ele><time>2026-04-06T12:05:45Z</time></trkpt><trkpt lat="37.23371433716258" lon="14.898614171157933"><ele>128.0</ele><time>2026-04-06T12:05:46Z</time></trkpt><trkpt lat="37.2336140051113" lon="14.898724228847573"><ele>128.0</ele><time>2026-04-06T12:05:47Z</time></trkpt><trkpt lat="37.23351626087586" lon="14.89882985481196"><ele>128.0</ele><time>2026-04-06T12:05:48Z</time></trkpt><trkpt lat="37.23341646867313" lon="14.898925022462295"><ele>128.0</ele><time>2026-04-06T12:05:49Z</time></trkpt><trkpt lat="37.23331320953752" lon="14.89901082892922"><ele>128.0</ele><time>2026-04-06T12:05:50Z</time></trkpt><trkpt lat="37.23320712034363" lon="14.899093543998116"><ele>128.0</ele><time>2026-04-06T12:05:51Z</time></trkpt><trkpt lat="37.233096545673995" lon="14.899170473649342"><ele>128.0</ele><time>2026-04-06T12:05:52Z</time></trkpt><trkpt lat="37.23298082449356" lon="14.899240321025108"><ele>130.5</ele><time>2026-04-06T12:05:53Z</time></trkpt><trkpt lat="37.23286218189479" lon="14.8993044956219"><ele>133.0</ele><time>2026-04-06T12:05:54Z</time></trkpt><trkpt lat="37.23274071859025" lon="14.89936238784342"><ele>135.5</ele><time>2026-04-06T12:05:55Z</time></trkpt><trkpt lat="37.232615418940206" lon="14.899413598710042"><ele>138.0</ele><time>2026-04-06T12:05:56Z</time></trkpt><trkpt lat="37.232486236912116" lon="14.899451706088998"><ele>138.0</ele><time>2026-04-06T12:05:57Z</time></trkpt><trkpt lat="37.232354314023475" lon="14.899478978976765"><ele>138.0</ele><time>2026-04-06T12:05:58Z</time></trkpt><trkpt lat="37.23221984856231" lon="14.899497836620355"><ele>138.0</ele><time>2026-04-06T12:05:59Z</time></trkpt><trkpt lat="37.23208628977946" lon="14.899507796596282"><ele>138.0</ele><time>2026-04-06T12:06:00Z</time></trkpt><trkpt lat="37.23195116352513" lon="14.899502671858702"><ele>138.5</ele><time>2026-04-06T12:06:01Z</time></trkpt><trkpt lat="37.231814287467195" lon="14.89948691356501"><ele>139.0</ele><time>2026-04-06T12:06:02Z</time></trkpt><trkpt lat="37.231676092243966" lon="14.899466422140458"><ele>139.5</ele><time>2026-04-06T12:06:03Z</time></trkpt><trkpt lat="37.231537712275404" lon="14.899439117441299"><ele>140.0</ele><time>2026-04-06T12:06:04Z</time></trkpt><trkpt lat="37.23139769546153" lon="14.89940466690337"><ele>139.75</ele><time>2026-04-06T12:06:05Z</time></trkpt><trkpt lat="37.23126013524239" lon="14.899357392176183"><ele>139.5</ele><time>2026-04-06T12:06:06Z</time></trkpt><trkpt lat="37.231124834588634" lon="14.89929408288743"><ele>139.25</ele><time>2026-04-06T12:06:07Z</time></trkpt><trkpt lat="37.23099260398132" lon="14.899215433582668"><ele>139.0</ele><time>2026-04-06T12:06:08Z</time></trkpt><trkpt lat="37.23086587484295" lon="14.899117852722842"><ele>139.0</ele><time>2026-04-06T12:06:09Z</time></trkpt><trkpt lat="37.230742940713846" lon="14.899010928722033"><ele>139.0</ele><time>2026-04-06T12:06:10Z</time></trkpt><trkpt lat="37.230617404402835" lon="14.89889867839473"><ele>139.0</ele><time>2026-04-06T12:06:11Z</time></trkpt><trkpt lat="37.230488455660314" lon="14.898786588913513"><ele>136.66666666666669</ele><time>2026-04-06T12:06:12Z</time></trkpt><trkpt lat="37.230356883807936" lon="14.898672619227963"><ele>134.33333333333334</ele><time>2026-04-06T12:06:13Z</time></trkpt><trkpt lat="37.23022464941343" lon="14.898563884971097"><ele>132.0</ele><time>2026-04-06T12:06:14.001Z</time></trkpt><trkpt lat="37.230096751507375" lon="14.898455691774478"><ele>135.33333333333334</ele><time>2026-04-06T12:06:15.001Z</time></trkpt><trkpt lat="37.22996046546395" lon="14.898344654581084"><ele>138.66666666666669</ele><time>2026-04-06T12:06:16.001Z</time></trkpt><trkpt lat="37.22982044287437" lon="14.898237310805765"><ele>142.0</ele><time>2026-04-06T12:06:17.001Z</time></trkpt><trkpt lat="37.22967166978952" lon="14.89813874725442"><ele>142.33333333333334</ele><time>2026-04-06T12:06:18.001Z</time></trkpt><trkpt lat="37.2295176992878" lon="14.898051093038411"><ele>142.66666666666666</ele><time>2026-04-06T12:06:19.001Z</time></trkpt><trkpt lat="37.2293581746299" lon="14.897977643863639"><ele>143.0</ele><time>2026-04-06T12:06:20.001Z</time></trkpt><trkpt lat="37.22918542205045" lon="14.897924240451873"><ele>143.0</ele><time>2026-04-06T12:06:21.001Z</time></trkpt><trkpt lat="37.22901235778708" lon="14.897883296842172"><ele>143.0</ele><time>2026-04-06T12:06:22.001Z</time></trkpt><trkpt lat="37.22883543253941" lon="14.897851412735731"><ele>143.0</ele><time>2026-04-06T12:06:23.001Z</time></trkpt><trkpt lat="37.22866067554332" lon="14.897819868029643"><ele>145.0</ele><time>2026-04-06T12:06:24.001Z</time></trkpt><trkpt lat="37.22849101674845" lon="14.897790584841184"><ele>147.0</ele><time>2026-04-06T12:06:25.001Z</time></trkpt><trkpt lat="37.22832542438182" lon="14.897761286682769"><ele>149.0</ele><time>2026-04-06T12:06:26.001Z</time></trkpt><trkpt lat="37.22816203863314" lon="14.897735616932346"><ele>149.33333333333331</ele><time>2026-04-06T12:06:27.001Z</time></trkpt><trkpt lat="37.22799878002483" lon="14.897709304744973"><ele>149.66666666666666</ele><time>2026-04-06T12:06:28.001Z</time></trkpt><trkpt lat="37.227832095492126" lon="14.897682261391608"><ele>150.0</ele><time>2026-04-06T12:06:29.001Z</time></trkpt><trkpt lat="37.22766360246322" lon="14.897654553015771"><ele>150.0</ele><time>2026-04-06T12:06:30.001Z</time></trkpt><trkpt lat="37.22749603082439" lon="14.89762686992107"><ele>150.0</ele><time>2026-04-06T12:06:31.001Z</time></trkpt><trkpt lat="37.227326374344244" lon="14.897601092351389"><ele>150.0</ele><time>2026-04-06T12:06:32.001Z</time></trkpt><trkpt lat="37.227157122651036" lon="14.897575740267843"><ele>152.33333333333334</ele><time>2026-04-06T12:06:33.001Z</time></trkpt><trkpt lat="37.226988868384325" lon="14.897547041344318"><ele>154.66666666666669</ele><time>2026-04-06T12:06:34.001Z</time></trkpt><trkpt lat="37.2268187708459" lon="14.897516701870892"><ele>157.0</ele><time>2026-04-06T12:06:35.001Z</time></trkpt><trkpt lat="37.22664946768036" lon="14.89748866827848"><ele>157.0</ele><time>2026-04-06T12:06:36.001Z</time></trkpt><trkpt lat="37.22648138456529" lon="14.897463472299494"><ele>157.0</ele><time>2026-04-06T12:06:37.001Z</time></trkpt><trkpt lat="37.22631479783987" lon="14.897437045297556"><ele>157.0</ele><time>2026-04-06T12:06:38.001Z</time></trkpt><trkpt lat="37.22615019368514" lon="14.897410570296973"><ele>157.33333333333334</ele><time>2026-04-06T12:06:39.001Z</time></trkpt><trkpt lat="37.22598714797893" lon="14.897383360118956"><ele>157.66666666666666</ele><time>2026-04-06T12:06:40.001Z</time></trkpt><trkpt lat="37.22582370626563" lon="14.89735640187895"><ele>158.0</ele><time>2026-04-06T12:06:41.001Z</time></trkpt><trkpt lat="37.22566143551953" lon="14.897328078894502"><ele>159.0</ele><time>2026-04-06T12:06:42.001Z</time></trkpt><trkpt lat="37.22550092202018" lon="14.897299438329988"><ele>160.0</ele><time>2026-04-06T12:06:43.001Z</time></trkpt><trkpt lat="37.225337313939086" lon="14.897271402200547"><ele>161.0</ele><time>2026-04-06T12:06:44.001Z</time></trkpt><trkpt lat="37.225173675525866" lon="14.897246664511412"><ele>161.0</ele><time>2026-04-06T12:06:45.001Z</time></trkpt><trkpt lat="37.22500864677023" lon="14.897224548933853"><ele>161.0</ele><time>2026-04-06T12:06:46.001Z</time></trkpt><trkpt lat="37.224841387611676" lon="14.897205166044747"><ele>161.0</ele><time>2026-04-06T12:06:47.001Z</time></trkpt><trkpt lat="37.22467038202919" lon="14.897180959961737"><ele>161.33333333333331</ele><time>2026-04-06T12:06:48.001Z</time></trkpt><trkpt lat="37.22450169597836" lon="14.897154218306628"><ele>161.66666666666666</ele><time>2026-04-06T12:06:49.001Z</time></trkpt><trkpt lat="37.224334161615005" lon="14.897126387315506"><ele>162.0</ele><time>2026-04-06T12:06:50.001Z</time></trkpt><trkpt lat="37.22416909550286" lon="14.89709755154913"><ele>162.0</ele><time>2026-04-06T12:06:51.001Z</time></trkpt><trkpt lat="37.22400605868465" lon="14.897064423470528"><ele>162.0</ele><time>2026-04-06T12:06:52.001Z</time></trkpt><trkpt lat="37.22385627349964" lon="14.897021977110596"><ele>162.0</ele><time>2026-04-06T12:06:53.001Z</time></trkpt><trkpt lat="37.223720329341695" lon="14.8969760106483"><ele>163.0</ele><time>2026-04-06T12:06:54.001Z</time></trkpt><trkpt lat="37.22359838316148" lon="14.896931175099624"><ele>164.0</ele><time>2026-04-06T12:06:55Z</time></trkpt><trkpt lat="37.22349685989606" lon="14.896890469213925"><ele>165.0</ele><time>2026-04-06T12:06:56Z</time></trkpt><trkpt lat="37.22341635467383" lon="14.896849295219118"><ele>166.0</ele><time>2026-04-06T12:06:57Z</time></trkpt><trkpt lat="37.223354680638785" lon="14.896817659944393"><ele>167.0</ele><time>2026-04-06T12:06:58Z</time></trkpt><trkpt lat="37.22325872798985" lon="14.896763541561256"><ele>167.66666666666666</ele><time>2026-04-06T12:07:00Z</time></trkpt><trkpt lat="37.22318432061567" lon="14.896717022581235"><ele>168.33333333333331</ele><time>2026-04-06T12:07:02Z</time></trkpt><trkpt lat="37.22311521273608" lon="14.896681615528516"><ele>169.0</ele><time>2026-04-06T12:07:04Z</time></trkpt><trkpt lat="37.223027615396646" lon="14.89663660886161"><ele>169.66666666666666</ele><time>2026-04-06T12:07:06Z</time></trkpt><trkpt lat="37.222917508666036" lon="14.896570482103872"><ele>170.33333333333334</ele><time>2026-04-06T12:07:08Z</time></trkpt><trkpt lat="37.22285245124089" lon="14.896530209856833"><ele>171.0</ele><time>2026-04-06T12:07:09Z</time></trkpt><trkpt lat="37.22278150956322" lon="14.896482281711595"><ele>171.0</ele><time>2026-04-06T12:07:10Z</time></trkpt><trkpt lat="37.22270354612599" lon="14.896435190698297"><ele>171.0</ele><time>2026-04-06T12:07:11Z</time></trkpt><trkpt lat="37.22262064944707" lon="14.896385758533354"><ele>171.0</ele><time>2026-04-06T12:07:12Z</time></trkpt><trkpt lat="37.22254042512201" lon="14.896327101876441"><ele>171.0</ele><time>2026-04-06T12:07:13Z</time></trkpt><trkpt lat="37.222468639877306" lon="14.896268956683999"><ele>171.0</ele><time>2026-04-06T12:07:14Z</time></trkpt><trkpt lat="37.22240108809544" lon="14.896213956777807"><ele>171.0</ele><time>2026-04-06T12:07:15Z</time></trkpt><trkpt lat="37.22234034150739" lon="14.896163134368383"><ele>170.66666666666666</ele><time>2026-04-06T12:07:16Z</time></trkpt><trkpt lat="37.22228462054699" lon="14.896113588638064"><ele>170.33333333333334</ele><time>2026-04-06T12:07:17Z</time></trkpt><trkpt lat="37.2222263830796" lon="14.896061579643835"><ele>170.0</ele><time>2026-04-06T12:07:18Z</time></trkpt><trkpt lat="37.222161684872866" lon="14.896005627885803"><ele>169.66666666666669</ele><time>2026-04-06T12:07:19Z</time></trkpt><trkpt lat="37.22209119581847" lon="14.895945513325593"><ele>169.33333333333334</ele><time>2026-04-06T12:07:20Z</time></trkpt><trkpt lat="37.222015617170904" lon="14.895881663761083"><ele>169.0</ele><time>2026-04-06T12:07:21Z</time></trkpt><trkpt lat="37.22193290055727" lon="14.895813345487012"><ele>169.0</ele><time>2026-04-06T12:07:22Z</time></trkpt><trkpt lat="37.221844051177285" lon="14.895743538164833"><ele>169.0</ele><time>2026-04-06T12:07:23Z</time></trkpt><trkpt lat="37.221750645661686" lon="14.895668959384041"><ele>169.0</ele><time>2026-04-06T12:07:24Z</time></trkpt><trkpt lat="37.221653845174" lon="14.895591450333832"><ele>169.0</ele><time>2026-04-06T12:07:25Z</time></trkpt><trkpt lat="37.22155473299284" lon="14.895510455037002"><ele>169.0</ele><time>2026-04-06T12:07:26Z</time></trkpt><trkpt lat="37.22146026587457" lon="14.895433730792083"><ele>169.0</ele><time>2026-04-06T12:07:27Z</time></trkpt><trkpt lat="37.22137573295096" lon="14.895361286446914"><ele>169.0</ele><time>2026-04-06T12:07:28Z</time></trkpt><trkpt lat="37.221294742568766" lon="14.89529278613352"><ele>169.0</ele><time>2026-04-06T12:07:29Z</time></trkpt><trkpt lat="37.221231533994185" lon="14.89523826256176"><ele>169.0</ele><time>2026-04-06T12:07:30Z</time></trkpt><trkpt lat="37.22114310527772" lon="14.895163054139699"><ele>169.0</ele><time>2026-04-06T12:07:32Z</time></trkpt><trkpt lat="37.22104438679123" lon="14.895084829787853"><ele>170.16666666666669</ele><time>2026-04-06T12:07:34Z</time></trkpt><trkpt lat="37.2209812852563" lon="14.895034111428997"><ele>171.33333333333334</ele><time>2026-04-06T12:07:35Z</time></trkpt><trkpt lat="37.220911077356774" lon="14.894980990245307"><ele>172.5</ele><time>2026-04-06T12:07:36Z</time></trkpt><trkpt lat="37.22084226802891" lon="14.89492437896168"><ele>173.66666666666666</ele><time>2026-04-06T12:07:37Z</time></trkpt><trkpt lat="37.22077299839754" lon="14.89485787434991"><ele>174.83333333333331</ele><time>2026-04-06T12:07:38Z</time></trkpt><trkpt lat="37.22069307373738" lon="14.894788071035936"><ele>176.0</ele><time>2026-04-06T12:07:39Z</time></trkpt><trkpt lat="37.22061447549723" lon="14.894714755063564"><ele>176.0</ele><time>2026-04-06T12:07:40Z</time></trkpt><trkpt lat="37.22053889206987" lon="14.894636299171061"><ele>176.0</ele><time>2026-04-06T12:07:41Z</time></trkpt><trkpt lat="37.22045981088247" lon="14.894551974718562"><ele>176.0</ele><time>2026-04-06T12:07:42Z</time></trkpt><trkpt lat="37.220381376794585" lon="14.894462490234055"><ele>176.0</ele><time>2026-04-06T12:07:43Z</time></trkpt><trkpt lat="37.22030161996277" lon="14.894369306417893"><ele>176.0</ele><time>2026-04-06T12:07:44Z</time></trkpt><trkpt lat="37.220229926708015" lon="14.894269321174797"><ele>179.0</ele><time>2026-04-06T12:07:45Z</time></trkpt><trkpt lat="37.2201657779597" lon="14.894157138385657"><ele>182.0</ele><time>2026-04-06T12:07:46Z</time></trkpt><trkpt lat="37.22010286377948" lon="14.894040722949809"><ele>185.0</ele><time>2026-04-06T12:07:47Z</time></trkpt><trkpt lat="37.22004277284146" lon="14.893921301387028"><ele>188.0</ele><time>2026-04-06T12:07:48Z</time></trkpt><trkpt lat="37.21998905624792" lon="14.893797291519668"><ele>191.0</ele><time>2026-04-06T12:07:49Z</time></trkpt><trkpt lat="37.21994699949052" lon="14.893665725985876"><ele>191.0</ele><time>2026-04-06T12:07:50Z</time></trkpt><trkpt lat="37.21991373800362" lon="14.893528239909726"><ele>191.0</ele><time>2026-04-06T12:07:51Z</time></trkpt><trkpt lat="37.21988171653348" lon="14.893386457620815"><ele>191.0</ele><time>2026-04-06T12:07:52Z</time></trkpt><trkpt lat="37.21984938842618" lon="14.893241714682434"><ele>191.0</ele><time>2026-04-06T12:07:53Z</time></trkpt><trkpt lat="37.21982032746333" lon="14.89309690278745"><ele>189.0</ele><time>2026-04-06T12:07:54Z</time></trkpt><trkpt lat="37.21979812121152" lon="14.892950458420485"><ele>187.0</ele><time>2026-04-06T12:07:55Z</time></trkpt><trkpt lat="37.219783649220325" lon="14.89281809917064"><ele>185.0</ele><time>2026-04-06T12:07:56Z</time></trkpt><trkpt lat="37.21977272908006" lon="14.892716640759664"><ele>183.0</ele><time>2026-04-06T12:07:57Z</time></trkpt><trkpt lat="37.21974003625073" lon="14.892618488496542"><ele>181.0</ele><time>2026-04-06T12:07:59Z</time></trkpt><trkpt lat="37.21974517171141" lon="14.892746805522535"><ele>181.0</ele><time>2026-04-06T12:08:04Z</time></trkpt><trkpt lat="37.21973065165762" lon="14.892830062555317"><ele>181.0</ele><time>2026-04-06T12:08:05Z</time></trkpt><trkpt lat="37.21974725209824" lon="14.89293025296806"><ele>181.0</ele><time>2026-04-06T12:08:06Z</time></trkpt><trkpt lat="37.21976206741012" lon="14.893054217147773"><ele>181.0</ele><time>2026-04-06T12:08:07Z</time></trkpt><trkpt lat="37.219779642545" lon="14.893181175463626"><ele>181.0</ele><time>2026-04-06T12:08:08Z</time></trkpt><trkpt lat="37.21980589538947" lon="14.893301148067819"><ele>183.0</ele><time>2026-04-06T12:08:09Z</time></trkpt><trkpt lat="37.21984021622843" lon="14.893424338930085"><ele>185.0</ele><time>2026-04-06T12:08:10Z</time></trkpt><trkpt lat="37.219876725579084" lon="14.89354999108494"><ele>187.0</ele><time>2026-04-06T12:08:11Z</time></trkpt><trkpt lat="37.21991611929192" lon="14.893679663605495"><ele>189.0</ele><time>2026-04-06T12:08:12Z</time></trkpt><trkpt lat="37.21996055404007" lon="14.893809551254552"><ele>191.0</ele><time>2026-04-06T12:08:13Z</time></trkpt><trkpt lat="37.220011437396145" lon="14.8939403294801"><ele>191.0</ele><time>2026-04-06T12:08:14Z</time></trkpt><trkpt lat="37.220068255877585" lon="14.894069150856861"><ele>191.0</ele><time>2026-04-06T12:08:15Z</time></trkpt><trkpt lat="37.220137225092245" lon="14.894192058793216"><ele>191.0</ele><time>2026-04-06T12:08:16Z</time></trkpt><trkpt lat="37.22021255735519" lon="14.894311299396865"><ele>191.0</ele><time>2026-04-06T12:08:17Z</time></trkpt><trkpt lat="37.22029146951965" lon="14.89442861940387"><ele>189.25</ele><time>2026-04-06T12:08:18Z</time></trkpt><trkpt lat="37.22037685625403" lon="14.89454101222716"><ele>187.5</ele><time>2026-04-06T12:08:19Z</time></trkpt><trkpt lat="37.22046800689008" lon="14.894648437206236"><ele>185.75</ele><time>2026-04-06T12:08:20.001Z</time></trkpt><trkpt lat="37.22056164421289" lon="14.89475031532587"><ele>184.0</ele><time>2026-04-06T12:08:21.001Z</time></trkpt><trkpt lat="37.220661225171824" lon="14.894842368130716"><ele>184.0</ele><time>2026-04-06T12:08:22.001Z</time></trkpt><trkpt lat="37.22075781254699" lon="14.894927945136132"><ele>184.0</ele><time>2026-04-06T12:08:23.001Z</time></trkpt><trkpt lat="37.22085414515018" lon="14.895006864811313"><ele>184.0</ele><time>2026-04-06T12:08:24.001Z</time></trkpt><trkpt lat="37.22095423665697" lon="14.895086372863783"><ele>184.0</ele><time>2026-04-06T12:08:25.001Z</time></trkpt><trkpt lat="37.2210641560867" lon="14.895175720927737"><ele>180.25</ele><time>2026-04-06T12:08:26.001Z</time></trkpt><trkpt lat="37.22118197689802" lon="14.8952688257401"><ele>176.5</ele><time>2026-04-06T12:08:27.001Z</time></trkpt><trkpt lat="37.22129417652644" lon="14.895359088472809"><ele>172.75</ele><time>2026-04-06T12:08:28.001Z</time></trkpt><trkpt lat="37.221401614155226" lon="14.895448822033638"><ele>169.0</ele><time>2026-04-06T12:08:29.001Z</time></trkpt><trkpt lat="37.22150613986681" lon="14.895533787895024"><ele>169.0</ele><time>2026-04-06T12:08:30.001Z</time></trkpt><trkpt lat="37.22160646188974" lon="14.895619100118827"><ele>169.0</ele><time>2026-04-06T12:08:31.001Z</time></trkpt><trkpt lat="37.22170394139009" lon="14.89570033845716"><ele>169.0</ele><time>2026-04-06T12:08:32.001Z</time></trkpt><trkpt lat="37.2218024359792" lon="14.895781117173621"><ele>169.0</ele><time>2026-04-06T12:08:33.001Z</time></trkpt><trkpt lat="37.22190257996366" lon="14.895861633201172"><ele>169.5</ele><time>2026-04-06T12:08:34.001Z</time></trkpt><trkpt lat="37.222003248142094" lon="14.895944788731809"><ele>170.0</ele><time>2026-04-06T12:08:35.001Z</time></trkpt><trkpt lat="37.222105903422126" lon="14.896029508621051"><ele>170.5</ele><time>2026-04-06T12:08:36.001Z</time></trkpt><trkpt lat="37.22221234344074" lon="14.896115925268246"><ele>171.0</ele><time>2026-04-06T12:08:37.001Z</time></trkpt><trkpt lat="37.222322005938516" lon="14.896204318890932"><ele>171.0</ele><time>2026-04-06T12:08:38.001Z</time></trkpt><trkpt lat="37.22243345084959" lon="14.89629211765823"><ele>171.0</ele><time>2026-04-06T12:08:39.001Z</time></trkpt><trkpt lat="37.22254954726467" lon="14.896378873833111"><ele>171.0</ele><time>2026-04-06T12:08:40.001Z</time></trkpt><trkpt lat="37.222666209380264" lon="14.896466401092452"><ele>171.0</ele><time>2026-04-06T12:08:41.001Z</time></trkpt><trkpt lat="37.2227839540649" lon="14.896550887498218"><ele>171.0</ele><time>2026-04-06T12:08:42.001Z</time></trkpt><trkpt lat="37.22289799879113" lon="14.896627504285286"><ele>171.0</ele><time>2026-04-06T12:08:43.001Z</time></trkpt><trkpt lat="37.22300720705676" lon="14.896697157383633"><ele>171.0</ele><time>2026-04-06T12:08:44.001Z</time></trkpt><trkpt lat="37.22310302552691" lon="14.896753055639444"><ele>171.0</ele><time>2026-04-06T12:08:45.001Z</time></trkpt><trkpt lat="37.22318473599122" lon="14.896801459532844"><ele>171.0</ele><time>2026-04-06T12:08:46.001Z</time></trkpt><trkpt lat="37.22325495008761" lon="14.896844680977221"><ele>170.33333333333334</ele><time>2026-04-06T12:08:47.001Z</time></trkpt><trkpt lat="37.22330775847955" lon="14.896890497528448"><ele>169.66666666666666</ele><time>2026-04-06T12:08:48.001Z</time></trkpt><trkpt lat="37.223384326698124" lon="14.897009943298084"><ele>169.0</ele><time>2026-04-06T12:08:50.001Z</time></trkpt><trkpt lat="37.22340333683226" lon="14.89709263482192"><ele>168.33333333333331</ele><time>2026-04-06T12:08:51.001Z</time></trkpt><trkpt lat="37.22340547250996" lon="14.897182377480927"><ele>167.66666666666666</ele><time>2026-04-06T12:08:52.001Z</time></trkpt><trkpt lat="37.22341758248607" lon="14.897268010622826"><ele>167.0</ele><time>2026-04-06T12:08:53.001Z</time></trkpt><trkpt lat="37.22336849030867" lon="14.897360526127647"><ele>167.0</ele><time>2026-04-06T12:08:54Z</time></trkpt><trkpt lat="37.22334765996061" lon="14.897449937934164"><ele>167.0</ele><time>2026-04-06T12:08:55Z</time></trkpt><trkpt lat="37.22335289417241" lon="14.897542990690877"><ele>167.0</ele><time>2026-04-06T12:08:56Z</time></trkpt><trkpt lat="37.22337547461438" lon="14.897633762072958"><ele>167.0</ele><time>2026-04-06T12:08:57Z</time></trkpt><trkpt lat="37.223392299763525" lon="14.89772825519612"><ele>167.0</ele><time>2026-04-06T12:08:58Z</time></trkpt><trkpt lat="37.223438930641784" lon="14.89779999062979"><ele>167.0</ele><time>2026-04-06T12:08:59Z</time></trkpt><trkpt lat="37.22349415993083" lon="14.897853361614422"><ele>167.0</ele><time>2026-04-06T12:09:00Z</time></trkpt><trkpt lat="37.22353767459889" lon="14.897923110554894"><ele>165.83333333333331</ele><time>2026-04-06T12:09:01Z</time></trkpt><trkpt lat="37.22357319802975" lon="14.897998929875499"><ele>164.66666666666666</ele><time>2026-04-06T12:09:02Z</time></trkpt><trkpt lat="37.22358347634764" lon="14.898081352699505"><ele>163.5</ele><time>2026-04-06T12:09:03Z</time></trkpt><trkpt lat="37.22356872106825" lon="14.898164104217493"><ele>162.33333333333334</ele><time>2026-04-06T12:09:04Z</time></trkpt><trkpt lat="37.223491274039844" lon="14.898279889430556"><ele>161.16666666666669</ele><time>2026-04-06T12:09:06Z</time></trkpt><trkpt lat="37.22340137430165" lon="14.89831976065643"><ele>160.0</ele><time>2026-04-06T12:09:08Z</time></trkpt><trkpt lat="37.223351625698804" lon="14.898377684394461"><ele>160.0</ele><time>2026-04-06T12:09:10Z</time></trkpt><trkpt lat="37.22329049920262" lon="14.898398345456547"><ele>160.0</ele><time>2026-04-06T12:09:13Z</time></trkpt><trkpt lat="37.223213692611594" lon="14.898207790207957"><ele>160.0</ele><time>2026-04-06T12:09:14Z</time></trkpt><trkpt lat="37.22318646275871" lon="14.898073797824562"><ele>160.0</ele><time>2026-04-06T12:09:16Z</time></trkpt><trkpt lat="37.223177354437446" lon="14.897989554055117"><ele>160.0</ele><time>2026-04-06T12:09:17Z</time></trkpt><trkpt lat="37.22316286798921" lon="14.897894329419824"><ele>160.0</ele><time>2026-04-06T12:09:18Z</time></trkpt><trkpt lat="37.22315155623209" lon="14.897804411426108"><ele>160.0</ele><time>2026-04-06T12:09:19Z</time></trkpt><trkpt lat="37.22314101043408" lon="14.897723959799023"><ele>160.0</ele><time>2026-04-06T12:09:20Z</time></trkpt><trkpt lat="37.223132866553605" lon="14.89763131339289"><ele>160.0</ele><time>2026-04-06T12:09:21Z</time></trkpt><trkpt lat="37.223127286050776" lon="14.897535743272252"><ele>160.0</ele><time>2026-04-06T12:09:22Z</time></trkpt><trkpt lat="37.22312434152526" lon="14.897435815262952"><ele>160.0</ele><time>2026-04-06T12:09:23Z</time></trkpt><trkpt lat="37.22311954175736" lon="14.897333708215712"><ele>160.0</ele><time>2026-04-06T12:09:24Z</time></trkpt><trkpt lat="37.22311836905635" lon="14.897252399144719"><ele>160.57142857142856</ele><time>2026-04-06T12:09:25Z</time></trkpt><trkpt lat="37.2231296028436" lon="14.89717167871831"><ele>161.14285714285714</ele><time>2026-04-06T12:09:26Z</time></trkpt><trkpt lat="37.22314756279311" lon="14.897082899942136"><ele>161.71428571428572</ele><time>2026-04-06T12:09:27Z</time></trkpt><trkpt lat="37.22316660594189" lon="14.896997365692277"><ele>162.28571428571428</ele><time>2026-04-06T12:09:28Z</time></trkpt><trkpt lat="37.22319121471324" lon="14.896912310039903"><ele>162.85714285714286</ele><time>2026-04-06T12:09:29Z</time></trkpt><trkpt lat="37.22322182105831" lon="14.89682724573961"><ele>163.42857142857142</ele><time>2026-04-06T12:09:30Z</time></trkpt><trkpt lat="37.22326014056602" lon="14.89674031817561"><ele>164.0</ele><time>2026-04-06T12:09:31Z</time></trkpt><trkpt lat="37.22330783198002" lon="14.896648338995268"><ele>166.0</ele><time>2026-04-06T12:09:32Z</time></trkpt><trkpt lat="37.223367880211335" lon="14.896558779000731"><ele>168.0</ele><time>2026-04-06T12:09:33Z</time></trkpt><trkpt lat="37.22343094225043" lon="14.896481946560382"><ele>170.0</ele><time>2026-04-06T12:09:34Z</time></trkpt><trkpt lat="37.223497848028686" lon="14.896417202036949"><ele>172.0</ele><time>2026-04-06T12:09:35Z</time></trkpt><trkpt lat="37.22357363288545" lon="14.896348629047864"><ele>174.0</ele><time>2026-04-06T12:09:36Z</time></trkpt><trkpt lat="37.22366284094022" lon="14.896283390828444"><ele>174.0</ele><time>2026-04-06T12:09:37Z</time></trkpt><trkpt lat="37.22376041850263" lon="14.89622460990345"><ele>174.0</ele><time>2026-04-06T12:09:38Z</time></trkpt><trkpt lat="37.22386184521295" lon="14.896172424436422"><ele>174.0</ele><time>2026-04-06T12:09:39Z</time></trkpt><trkpt lat="37.223963557927796" lon="14.896128827909887"><ele>174.0</ele><time>2026-04-06T12:09:40Z</time></trkpt><trkpt lat="37.224066444792875" lon="14.896095432400458"><ele>174.0</ele><time>2026-04-06T12:09:41Z</time></trkpt><trkpt lat="37.22416995497126" lon="14.896066889803093"><ele>173.79999999999998</ele><time>2026-04-06T12:09:42Z</time></trkpt><trkpt lat="37.224273295080444" lon="14.89603720339082"><ele>173.6</ele><time>2026-04-06T12:09:43Z</time></trkpt><trkpt lat="37.22437708452638" lon="14.89600359354054"><ele>173.4</ele><time>2026-04-06T12:09:44Z</time></trkpt><trkpt lat="37.224481605071944" lon="14.895968836426317"><ele>173.2</ele><time>2026-04-06T12:09:45Z</time></trkpt><trkpt lat="37.22458598400807" lon="14.895932266709396"><ele>173.0</ele><time>2026-04-06T12:09:46Z</time></trkpt><trkpt lat="37.22468601624137" lon="14.89588972934138"><ele>174.0</ele><time>2026-04-06T12:09:47Z</time></trkpt><trkpt lat="37.22477639367375" lon="14.895842717276988"><ele>175.0</ele><time>2026-04-06T12:09:48Z</time></trkpt><trkpt lat="37.22486015642621" lon="14.895793903719882"><ele>176.0</ele><time>2026-04-06T12:09:49Z</time></trkpt><trkpt lat="37.22493714824745" lon="14.895746060751033"><ele>177.0</ele><time>2026-04-06T12:09:50Z</time></trkpt><trkpt lat="37.225011582496066" lon="14.895693699916032"><ele>178.0</ele><time>2026-04-06T12:09:51Z</time></trkpt><trkpt lat="37.22508811952618" lon="14.895639381477615"><ele>179.0</ele><time>2026-04-06T12:09:52Z</time></trkpt><trkpt lat="37.22516725205493" lon="14.89558419596555"><ele>179.0</ele><time>2026-04-06T12:09:53Z</time></trkpt><trkpt lat="37.225247895115615" lon="14.895526255768518"><ele>179.0</ele><time>2026-04-06T12:09:54Z</time></trkpt><trkpt lat="37.225329076627425" lon="14.895465571472405"><ele>179.0</ele><time>2026-04-06T12:09:55Z</time></trkpt><trkpt lat="37.22541226196402" lon="14.895405966390921"><ele>179.0</ele><time>2026-04-06T12:09:56Z</time></trkpt><trkpt lat="37.225498320551644" lon="14.895353704236289"><ele>179.0</ele><time>2026-04-06T12:09:57Z</time></trkpt><trkpt lat="37.225583392568346" lon="14.895302694966299"><ele>179.0</ele><time>2026-04-06T12:09:58Z</time></trkpt><trkpt lat="37.22566614600994" lon="14.895252020100004"><ele>179.0</ele><time>2026-04-06T12:09:59Z</time></trkpt><trkpt lat="37.22574683370733" lon="14.895206091500045"><ele>179.0</ele><time>2026-04-06T12:10:00Z</time></trkpt><trkpt lat="37.225822800734605" lon="14.895163399404654"><ele>179.0</ele><time>2026-04-06T12:10:01Z</time></trkpt><trkpt lat="37.22590620476409" lon="14.895111918728723"><ele>179.0</ele><time>2026-04-06T12:10:02Z</time></trkpt><trkpt lat="37.225996090664026" lon="14.895055581301875"><ele>180.2</ele><time>2026-04-06T12:10:03Z</time></trkpt><trkpt lat="37.22607989785182" lon="14.895005609192953"><ele>181.39999999999998</ele><time>2026-04-06T12:10:04Z</time></trkpt><trkpt lat="37.226155203088176" lon="14.89495991962834"><ele>182.6</ele><time>2026-04-06T12:10:05Z</time></trkpt><trkpt lat="37.226218730076084" lon="14.894917770127556"><ele>183.8</ele><time>2026-04-06T12:10:06Z</time></trkpt><trkpt lat="37.226323499432546" lon="14.894849892151688"><ele>185.0</ele><time>2026-04-06T12:10:08Z</time></trkpt><trkpt lat="37.22640967455297" lon="14.894814731622228"><ele>185.0</ele><time>2026-04-06T12:10:10Z</time></trkpt><trkpt lat="37.22646953890231" lon="14.894772923890187"><ele>185.0</ele><time>2026-04-06T12:10:13Z</time></trkpt><trkpt lat="37.22654558479456" lon="14.894747999956682"><ele>185.0</ele><time>2026-04-06T12:11:46Z</time></trkpt><trkpt lat="37.226670687368234" lon="14.894901106929748"><ele>185.0</ele><time>2026-04-06T12:11:49Z</time></trkpt><trkpt lat="37.22673964187555" lon="14.894918765591619"><ele>185.0</ele><time>2026-04-06T12:11:51Z</time></trkpt><trkpt lat="37.226821477266746" lon="14.894938849466426"><ele>184.66666666666666</ele><time>2026-04-06T12:11:53Z</time></trkpt><trkpt lat="37.22692102583274" lon="14.894963180044249"><ele>184.33333333333331</ele><time>2026-04-06T12:11:55Z</time></trkpt><trkpt lat="37.22698751730783" lon="14.894970829794467"><ele>184.0</ele><time>2026-04-06T12:11:57Z</time></trkpt><trkpt lat="37.22706423951917" lon="14.894961215767752"><ele>183.66666666666666</ele><time>2026-04-06T12:11:59Z</time></trkpt><trkpt lat="37.22714139844292" lon="14.894944219601438"><ele>183.33333333333334</ele><time>2026-04-06T12:12:01Z</time></trkpt><trkpt lat="37.227214944915836" lon="14.894925190433549"><ele>183.0</ele><time>2026-04-06T12:12:04Z</time></trkpt><trkpt lat="37.22728133136582" lon="14.894904386977437"><ele>183.0</ele><time>2026-04-06T12:12:09Z</time></trkpt><trkpt lat="37.22710060759487" lon="14.894952117163609"><ele>183.0</ele><time>2026-04-06T12:12:23Z</time></trkpt><trkpt lat="37.227034199157536" lon="14.894883011222321"><ele>183.0</ele><time>2026-04-06T12:12:24Z</time></trkpt><trkpt lat="37.226945502174125" lon="14.894906641254313"><ele>183.0</ele><time>2026-04-06T12:12:26Z</time></trkpt><trkpt lat="37.22683767844941" lon="14.894895523291087"><ele>183.0</ele><time>2026-04-06T12:12:28Z</time></trkpt><trkpt lat="37.226765131174915" lon="14.894883239736819"><ele>183.0</ele><time>2026-04-06T12:12:29Z</time></trkpt><trkpt lat="37.226689524994114" lon="14.894863170847154"><ele>183.0</ele><time>2026-04-06T12:12:30Z</time></trkpt><trkpt lat="37.22662087260871" lon="14.894842524586352"><ele>183.0</ele><time>2026-04-06T12:12:31Z</time></trkpt><trkpt lat="37.22651960478921" lon="14.894813554764326"><ele>183.0</ele><time>2026-04-06T12:12:33Z</time></trkpt><trkpt lat="37.22641828472407" lon="14.894803092997504"><ele>183.0</ele><time>2026-04-06T12:12:35Z</time></trkpt><trkpt lat="37.226298653843024" lon="14.89486149691126"><ele>183.4</ele><time>2026-04-06T12:12:37Z</time></trkpt><trkpt lat="37.22621715338362" lon="14.89491170497739"><ele>183.8</ele><time>2026-04-06T12:12:38Z</time></trkpt><trkpt lat="37.22612738143396" lon="14.894964483905829"><ele>184.2</ele><time>2026-04-06T12:12:39Z</time></trkpt><trkpt lat="37.226034046192055" lon="14.89501847731065"><ele>184.6</ele><time>2026-04-06T12:12:40Z</time></trkpt><trkpt lat="37.22592937549278" lon="14.895075466356278"><ele>185.0</ele><time>2026-04-06T12:12:41Z</time></trkpt><trkpt lat="37.22581417796275" lon="14.895141028807975"><ele>183.5</ele><time>2026-04-06T12:12:42Z</time></trkpt><trkpt lat="37.22569849066261" lon="14.895214357391072"><ele>182.0</ele><time>2026-04-06T12:12:43Z</time></trkpt><trkpt lat="37.22558105868581" lon="14.895264219425846"><ele>180.5</ele><time>2026-04-06T12:12:44Z</time></trkpt><trkpt lat="37.225460114320434" lon="14.895341671255487"><ele>179.0</ele><time>2026-04-06T12:12:45Z</time></trkpt><trkpt lat="37.22534317848833" lon="14.895420954264761"><ele>179.0</ele><time>2026-04-06T12:12:46Z</time></trkpt><trkpt lat="37.22523631060128" lon="14.895495197130804"><ele>179.0</ele><time>2026-04-06T12:12:47Z</time></trkpt><trkpt lat="37.225136699920895" lon="14.895566720355932"><ele>179.0</ele><time>2026-04-06T12:12:48Z</time></trkpt><trkpt lat="37.22504811437324" lon="14.895650704696516"><ele>179.0</ele><time>2026-04-06T12:12:49Z</time></trkpt><trkpt lat="37.22494685153994" lon="14.895711595813845"><ele>179.0</ele><time>2026-04-06T12:12:50Z</time></trkpt><trkpt lat="37.22484000589393" lon="14.895774389115159"><ele>179.0</ele><time>2026-04-06T12:12:51Z</time></trkpt><trkpt lat="37.22472982623117" lon="14.895831722681557"><ele>179.0</ele><time>2026-04-06T12:12:52Z</time></trkpt><trkpt lat="37.22462338525575" lon="14.89587850082554"><ele>179.0</ele><time>2026-04-06T12:12:53Z</time></trkpt><trkpt lat="37.224520056142026" lon="14.895917626804502"><ele>177.79999999999998</ele><time>2026-04-06T12:12:54Z</time></trkpt><trkpt lat="37.22441648048789" lon="14.895954496258621"><ele>176.6</ele><time>2026-04-06T12:12:55Z</time></trkpt><trkpt lat="37.22431136572085" lon="14.895988696993582"><ele>175.4</ele><time>2026-04-06T12:12:56Z</time></trkpt><trkpt lat="37.22420733785135" lon="14.89602468595407"><ele>174.2</ele><time>2026-04-06T12:12:57Z</time></trkpt><trkpt lat="37.22410494221209" lon="14.896061585499695"><ele>173.0</ele><time>2026-04-06T12:12:58Z</time></trkpt><trkpt lat="37.22400019299973" lon="14.896098390330726"><ele>173.2</ele><time>2026-04-06T12:12:59Z</time></trkpt><trkpt lat="37.22389540364946" lon="14.896136771011435"><ele>173.4</ele><time>2026-04-06T12:13:00Z</time></trkpt><trkpt lat="37.22379245219036" lon="14.896179217975055"><ele>173.6</ele><time>2026-04-06T12:13:01Z</time></trkpt><trkpt lat="37.22370078881568" lon="14.89622399669853"><ele>173.79999999999998</ele><time>2026-04-06T12:13:02Z</time></trkpt><trkpt lat="37.22361544413473" lon="14.896276101725704"><ele>174.0</ele><time>2026-04-06T12:13:03Z</time></trkpt><trkpt lat="37.22353645757505" lon="14.896336628520716"><ele>174.0</ele><time>2026-04-06T12:13:04Z</time></trkpt><trkpt lat="37.223455697327026" lon="14.896388277636254"><ele>174.0</ele><time>2026-04-06T12:13:05Z</time></trkpt><trkpt lat="37.223392936410015" lon="14.896459694798407"><ele>174.0</ele><time>2026-04-06T12:13:06Z</time></trkpt><trkpt lat="37.223337283714756" lon="14.896531737102194"><ele>174.0</ele><time>2026-04-06T12:13:07Z</time></trkpt><trkpt lat="37.22328985452668" lon="14.896610835512902"><ele>174.0</ele><time>2026-04-06T12:13:08Z</time></trkpt><trkpt lat="37.223240782520875" lon="14.89670529852622"><ele>174.0</ele><time>2026-04-06T12:13:09Z</time></trkpt><trkpt lat="37.22318744550534" lon="14.896825028894886"><ele>172.0</ele><time>2026-04-06T12:13:10Z</time></trkpt><trkpt lat="37.22314179881822" lon="14.896949642541669"><ele>170.0</ele><time>2026-04-06T12:13:11Z</time></trkpt><trkpt lat="37.22311111522534" lon="14.89707885511269"><ele>168.0</ele><time>2026-04-06T12:13:12Z</time></trkpt><trkpt lat="37.22309312562912" lon="14.897213709940646"><ele>166.0</ele><time>2026-04-06T12:13:13Z</time></trkpt><trkpt lat="37.223081784957664" lon="14.897362621467009"><ele>164.0</ele><time>2026-04-06T12:13:14Z</time></trkpt><trkpt lat="37.22308699204057" lon="14.897516627449402"><ele>163.0</ele><time>2026-04-06T12:13:15Z</time></trkpt><trkpt lat="37.22310053119898" lon="14.89766652014736"><ele>162.0</ele><time>2026-04-06T12:13:16Z</time></trkpt><trkpt lat="37.22311598505537" lon="14.89782502523533"><ele>161.0</ele><time>2026-04-06T12:13:17Z</time></trkpt><trkpt lat="37.22313261875911" lon="14.897995632008325"><ele>160.0</ele><time>2026-04-06T12:13:18Z</time></trkpt><trkpt lat="37.22315346511048" lon="14.898186644121203"><ele>160.0</ele><time>2026-04-06T12:13:19Z</time></trkpt><trkpt lat="37.22317380327376" lon="14.898383857674087"><ele>160.0</ele><time>2026-04-06T12:13:20Z</time></trkpt><trkpt lat="37.223194330914424" lon="14.898599199396575"><ele>160.0</ele><time>2026-04-06T12:13:21Z</time></trkpt><trkpt lat="37.2232173674057" lon="14.898825527485448"><ele>158.33333333333334</ele><time>2026-04-06T12:13:22Z</time></trkpt><trkpt lat="37.22324097043913" lon="14.899052840596475"><ele>156.66666666666666</ele><time>2026-04-06T12:13:23Z</time></trkpt><trkpt lat="37.22326498728332" lon="14.899280538791912"><ele>155.0</ele><time>2026-04-06T12:13:24Z</time></trkpt><trkpt lat="37.22329010493426" lon="14.89950788012903"><ele>153.66666666666666</ele><time>2026-04-06T12:13:25Z</time></trkpt><trkpt lat="37.223314080507805" lon="14.899727068499029"><ele>152.33333333333334</ele><time>2026-04-06T12:13:26Z</time></trkpt><trkpt lat="37.223338165195315" lon="14.899935815433535"><ele>151.0</ele><time>2026-04-06T12:13:27Z</time></trkpt><trkpt lat="37.22337893621892" lon="14.900142944727072"><ele>149.33333333333334</ele><time>2026-04-06T12:13:28Z</time></trkpt><trkpt lat="37.22343968346128" lon="14.900354945464755"><ele>147.66666666666666</ele><time>2026-04-06T12:13:29Z</time></trkpt><trkpt lat="37.22352445717185" lon="14.900566695861533"><ele>146.0</ele><time>2026-04-06T12:13:30Z</time></trkpt><trkpt lat="37.22362501247025" lon="14.9007689839918"><ele>144.0</ele><time>2026-04-06T12:13:31Z</time></trkpt><trkpt lat="37.223714234761296" lon="14.900985003252012"><ele>142.0</ele><time>2026-04-06T12:13:32Z</time></trkpt><trkpt lat="37.2237895062218" lon="14.90122775655425"><ele>140.0</ele><time>2026-04-06T12:13:33Z</time></trkpt><trkpt lat="37.22387751759638" lon="14.901465286342518"><ele>140.0</ele><time>2026-04-06T12:13:34Z</time></trkpt><trkpt lat="37.22396317205774" lon="14.901707008223225"><ele>140.0</ele><time>2026-04-06T12:13:35Z</time></trkpt><trkpt lat="37.224058219091354" lon="14.901934512836904"><ele>140.0</ele><time>2026-04-06T12:13:36Z</time></trkpt><trkpt lat="37.22413142643813" lon="14.90216511517317"><ele>140.0</ele><time>2026-04-06T12:13:37Z</time></trkpt><trkpt lat="37.22420156390382" lon="14.902380997023982"><ele>140.0</ele><time>2026-04-06T12:13:38Z</time></trkpt><trkpt lat="37.224263320164205" lon="14.902573882147973"><ele>140.0</ele><time>2026-04-06T12:13:39Z</time></trkpt><trkpt lat="37.224304145804375" lon="14.902752960454942"><ele>138.33333333333331</ele><time>2026-04-06T12:13:40Z</time></trkpt><trkpt lat="37.224381502439456" lon="14.902908632503882"><ele>136.66666666666666</ele><time>2026-04-06T12:13:41Z</time></trkpt><trkpt lat="37.22450021775085" lon="14.90302847521953"><ele>135.0</ele><time>2026-04-06T12:13:42Z</time></trkpt><trkpt lat="37.224637818522154" lon="14.903125271474167"><ele>135.0</ele><time>2026-04-06T12:13:43Z</time></trkpt><trkpt lat="37.22479689887513" lon="14.903207956094251"><ele>135.0</ele><time>2026-04-06T12:13:44Z</time></trkpt><trkpt lat="37.22495319863941" lon="14.903315399748706"><ele>135.0</ele><time>2026-04-06T12:13:45Z</time></trkpt><trkpt lat="37.225105451006876" lon="14.903407943120254"><ele>133.75</ele><time>2026-04-06T12:13:46Z</time></trkpt><trkpt lat="37.225246072989854" lon="14.903493417360412"><ele>132.5</ele><time>2026-04-06T12:13:47Z</time></trkpt><trkpt lat="37.22537849882039" lon="14.90357390962028"><ele>131.25</ele><time>2026-04-06T12:13:48Z</time></trkpt><trkpt lat="37.22549587956751" lon="14.903645079947527"><ele>130.0</ele><time>2026-04-06T12:13:49Z</time></trkpt><trkpt lat="37.225602830809" lon="14.903706992545441"><ele>130.33333333333334</ele><time>2026-04-06T12:13:50Z</time></trkpt><trkpt lat="37.225691741733854" lon="14.90376025856886"><ele>130.66666666666669</ele><time>2026-04-06T12:13:51Z</time></trkpt><trkpt lat="37.22577227087291" lon="14.903806611895826"><ele>131.0</ele><time>2026-04-06T12:13:52Z</time></trkpt><trkpt lat="37.22581847639835" lon="14.903886861294744"><ele>131.33333333333334</ele><time>2026-04-06T12:13:53Z</time></trkpt><trkpt lat="37.22583295726604" lon="14.903982993188878"><ele>131.66666666666666</ele><time>2026-04-06T12:13:54Z</time></trkpt><trkpt lat="37.22580855507424" lon="14.90407893100815"><ele>132.0</ele><time>2026-04-06T12:13:55Z</time></trkpt><trkpt lat="37.22574713382534" lon="14.904164053857418"><ele>132.0</ele><time>2026-04-06T12:13:56Z</time></trkpt><trkpt lat="37.22565273073327" lon="14.904229599451822"><ele>132.0</ele><time>2026-04-06T12:13:57Z</time></trkpt><trkpt lat="37.22554040945408" lon="14.904290992078685"><ele>132.0</ele><time>2026-04-06T12:13:58Z</time></trkpt><trkpt lat="37.22542115284095" lon="14.904358206420868"><ele>132.0</ele><time>2026-04-06T12:13:58.999Z</time></trkpt><trkpt lat="37.225302045822" lon="14.904443934738584"><ele>127.33333333333334</ele><time>2026-04-06T12:13:59.999Z</time></trkpt><trkpt lat="37.22518407212642" lon="14.904561583492608"><ele>122.66666666666667</ele><time>2026-04-06T12:14:00.999Z</time></trkpt><trkpt lat="37.22507093310179" lon="14.90469871270361"><ele>118.0</ele><time>2026-04-06T12:14:01.999Z</time></trkpt><trkpt lat="37.22494898765364" lon="14.904825754728364"><ele>118.0</ele><time>2026-04-06T12:14:02.999Z</time></trkpt><trkpt lat="37.22482766372191" lon="14.904973357418022"><ele>118.0</ele><time>2026-04-06T12:14:03.999Z</time></trkpt><trkpt lat="37.224697136050224" lon="14.90512657179289"><ele>118.0</ele><time>2026-04-06T12:14:04.999Z</time></trkpt><trkpt lat="37.22456778988786" lon="14.905283475729144"><ele>116.33333333333334</ele><time>2026-04-06T12:14:05.999Z</time></trkpt><trkpt lat="37.22443831293758" lon="14.905437240554004"><ele>114.66666666666666</ele><time>2026-04-06T12:14:06.999Z</time></trkpt><trkpt lat="37.22431002181371" lon="14.905588010187522"><ele>113.0</ele><time>2026-04-06T12:14:07.999Z</time></trkpt><trkpt lat="37.224189764072925" lon="14.905733192468702"><ele>113.0</ele><time>2026-04-06T12:14:08.999Z</time></trkpt><trkpt lat="37.224075661794814" lon="14.905871081225776"><ele>113.0</ele><time>2026-04-06T12:14:09.999Z</time></trkpt><trkpt lat="37.22397098755135" lon="14.905998420570977"><ele>113.0</ele><time>2026-04-06T12:14:10.999Z</time></trkpt><trkpt lat="37.22387334878877" lon="14.906114318348095"><ele>113.0</ele><time>2026-04-06T12:14:11.999Z</time></trkpt><trkpt lat="37.22378283118561" lon="14.90621721840739"><ele>113.25</ele><time>2026-04-06T12:14:12.999Z</time></trkpt><trkpt lat="37.22368712220559" lon="14.906321128588075"><ele>113.5</ele><time>2026-04-06T12:14:13.999Z</time></trkpt><trkpt lat="37.22355918758515" lon="14.90636526388882"><ele>113.75</ele><time>2026-04-06T12:14:14.999Z</time></trkpt><trkpt lat="37.22343106488512" lon="14.90642115455308"><ele>114.0</ele><time>2026-04-06T12:14:15.999Z</time></trkpt><trkpt lat="37.22330724095042" lon="14.906484597685667"><ele>114.0</ele><time>2026-04-06T12:14:16.999Z</time></trkpt><trkpt lat="37.22318719460715" lon="14.906535237013392"><ele>114.0</ele><time>2026-04-06T12:14:17.999Z</time></trkpt><trkpt lat="37.223073175667494" lon="14.906556196801466"><ele>114.0</ele><time>2026-04-06T12:14:18.999Z</time></trkpt><trkpt lat="37.222994177038615" lon="14.906713760784958"><ele>114.0</ele><time>2026-04-06T12:14:19.999Z</time></trkpt><trkpt lat="37.222914088941785" lon="14.906844552698937"><ele>114.5</ele><time>2026-04-06T12:14:20.999Z</time></trkpt><trkpt lat="37.22281734435527" lon="14.906970187119265"><ele>115.0</ele><time>2026-04-06T12:14:21.999Z</time></trkpt><trkpt lat="37.22273257992015" lon="14.907113401457206"><ele>115.5</ele><time>2026-04-06T12:14:22.999Z</time></trkpt><trkpt lat="37.22265197996879" lon="14.907249580113726"><ele>116.0</ele><time>2026-04-06T12:14:23.999Z</time></trkpt><trkpt lat="37.22256655274053" lon="14.907372558270078"><ele>116.0</ele><time>2026-04-06T12:14:24.999Z</time></trkpt><trkpt lat="37.22247069698883" lon="14.907484659437513"><ele>116.0</ele><time>2026-04-06T12:14:25.999Z</time></trkpt><trkpt lat="37.22237051521044" lon="14.90757238839433"><ele>116.0</ele><time>2026-04-06T12:14:26.999Z</time></trkpt><trkpt lat="37.22227653349893" lon="14.90762839369655"><ele>116.0</ele><time>2026-04-06T12:14:27.999Z</time></trkpt><trkpt lat="37.222182124111896" lon="14.907639814480904"><ele>116.75</ele><time>2026-04-06T12:14:28.999Z</time></trkpt><trkpt lat="37.22206434327373" lon="14.90764207175368"><ele>117.5</ele><time>2026-04-06T12:14:29.999Z</time></trkpt><trkpt lat="37.2219441047863" lon="14.90762942663178"><ele>118.25</ele><time>2026-04-06T12:14:30.999Z</time></trkpt><trkpt lat="37.22182839123771" lon="14.907624156824404"><ele>119.0</ele><time>2026-04-06T12:14:31.999Z</time></trkpt><trkpt lat="37.221717876342495" lon="14.907630322168327"><ele>119.0</ele><time>2026-04-06T12:14:32.999Z</time></trkpt><trkpt lat="37.22161835264259" lon="14.907627727889883"><ele>119.0</ele><time>2026-04-06T12:14:33.999Z</time></trkpt><trkpt lat="37.221520750302055" lon="14.907690024586548"><ele>119.0</ele><time>2026-04-06T12:14:34.999Z</time></trkpt><trkpt lat="37.22144304975848" lon="14.907792833476236"><ele>119.0</ele><time>2026-04-06T12:14:35.999Z</time></trkpt><trkpt lat="37.22138725700928" lon="14.907927391220996"><ele>119.0</ele><time>2026-04-06T12:14:36.999Z</time></trkpt><trkpt lat="37.221328732530964" lon="14.90807045405119"><ele>120.0</ele><time>2026-04-06T12:14:37.999Z</time></trkpt><trkpt lat="37.22126816484388" lon="14.908219396172434"><ele>121.0</ele><time>2026-04-06T12:14:38.999Z</time></trkpt><trkpt lat="37.2212124146925" lon="14.908359176287071"><ele>122.0</ele><time>2026-04-06T12:14:39.999Z</time></trkpt><trkpt lat="37.221152374849396" lon="14.908504243755369"><ele>123.0</ele><time>2026-04-06T12:14:40.999Z</time></trkpt><trkpt lat="37.22109031704819" lon="14.90865316839591"><ele>123.5</ele><time>2026-04-06T12:14:41.999Z</time></trkpt><trkpt lat="37.22103035293876" lon="14.908797068702887"><ele>124.0</ele><time>2026-04-06T12:14:42.999Z</time></trkpt><trkpt lat="37.22098787948719" lon="14.908944037243193"><ele>124.5</ele><time>2026-04-06T12:14:43.999Z</time></trkpt><trkpt lat="37.22093152842455" lon="14.909070855143502"><ele>125.0</ele><time>2026-04-06T12:14:44.999Z</time></trkpt><trkpt lat="37.220892651309974" lon="14.909187140107466"><ele>125.4</ele><time>2026-04-06T12:14:45.999Z</time></trkpt><trkpt lat="37.22087699722661" lon="14.909294034790609"><ele>125.8</ele><time>2026-04-06T12:14:46.999Z</time></trkpt><trkpt lat="37.22093332818606" lon="14.909399701653642"><ele>126.19999999999999</ele><time>2026-04-06T12:14:47.999Z</time></trkpt><trkpt lat="37.220981824164625" lon="14.909517183505779"><ele>126.6</ele><time>2026-04-06T12:14:48.999Z</time></trkpt><trkpt lat="37.22100175960638" lon="14.90965781923347"><ele>127.0</ele><time>2026-04-06T12:14:49.999Z</time></trkpt><trkpt lat="37.22102177844945" lon="14.909811927666079"><ele>127.0</ele><time>2026-04-06T12:14:50.999Z</time></trkpt><trkpt lat="37.22103286363823" lon="14.909963293775055"><ele>127.0</ele><time>2026-04-06T12:14:52Z</time></trkpt><trkpt lat="37.22104165285174" lon="14.91013023228518"><ele>127.0</ele><time>2026-04-06T12:14:53Z</time></trkpt><trkpt lat="37.221051082032645" lon="14.910309325898256"><ele>127.0</ele><time>2026-04-06T12:14:54Z</time></trkpt><trkpt lat="37.22106071696361" lon="14.910492327463906"><ele>127.25</ele><time>2026-04-06T12:14:55Z</time></trkpt><trkpt lat="37.22106911158785" lon="14.910676024096949"><ele>127.5</ele><time>2026-04-06T12:14:56Z</time></trkpt><trkpt lat="37.221077478340106" lon="14.910862927161956"><ele>127.75</ele><time>2026-04-06T12:14:57Z</time></trkpt><trkpt lat="37.221085868567215" lon="14.911050354413781"><ele>128.0</ele><time>2026-04-06T12:14:58Z</time></trkpt><trkpt lat="37.22109742840736" lon="14.911234699739348"><ele>128.0</ele><time>2026-04-06T12:14:59Z</time></trkpt><trkpt lat="37.221108072647134" lon="14.91140655176891"><ele>128.0</ele><time>2026-04-06T12:15:00Z</time></trkpt><trkpt lat="37.22111786694205" lon="14.911568988349474"><ele>128.0</ele><time>2026-04-06T12:15:01Z</time></trkpt><trkpt lat="37.22112633114512" lon="14.911717057119997"><ele>128.0</ele><time>2026-04-06T12:15:02Z</time></trkpt><trkpt lat="37.2211278755196" lon="14.911846295367075"><ele>128.0</ele><time>2026-04-06T12:15:03Z</time></trkpt><trkpt lat="37.221116097699685" lon="14.91196233939749"><ele>128.0</ele><time>2026-04-06T12:15:04Z</time></trkpt><trkpt lat="37.221083309727426" lon="14.912080792155052"><ele>128.0</ele><time>2026-04-06T12:15:05Z</time></trkpt><trkpt lat="37.22102462744859" lon="14.912207093206572"><ele>128.0</ele><time>2026-04-06T12:15:06Z</time></trkpt><trkpt lat="37.22094941045845" lon="14.91233882025302"><ele>128.0</ele><time>2026-04-06T12:15:07Z</time></trkpt><trkpt lat="37.22087515008488" lon="14.912463447536261"><ele>128.0</ele><time>2026-04-06T12:15:08Z</time></trkpt><trkpt lat="37.22079355214275" lon="14.912599860493176"><ele>128.0</ele><time>2026-04-06T12:15:09Z</time></trkpt><trkpt lat="37.220710520183" lon="14.912742667706691"><ele>128.0</ele><time>2026-04-06T12:15:10Z</time></trkpt><trkpt lat="37.220631455215255" lon="14.912884850339779"><ele>128.0</ele><time>2026-04-06T12:15:11Z</time></trkpt><trkpt lat="37.2205607190121" lon="14.913028381807866"><ele>129.0</ele><time>2026-04-06T12:15:12Z</time></trkpt><trkpt lat="37.22050065942536" lon="14.91318900231077"><ele>130.0</ele><time>2026-04-06T12:15:13Z</time></trkpt><trkpt lat="37.2204604265023" lon="14.913362405676265"><ele>131.0</ele><time>2026-04-06T12:15:14Z</time></trkpt><trkpt lat="37.22042347127578" lon="14.913536628241475"><ele>132.0</ele><time>2026-04-06T12:15:15Z</time></trkpt><trkpt lat="37.22038711966793" lon="14.91370800508709"><ele>133.0</ele><time>2026-04-06T12:15:16Z</time></trkpt><trkpt lat="37.220349843638274" lon="14.91387861785157"><ele>134.0</ele><time>2026-04-06T12:15:17Z</time></trkpt><trkpt lat="37.22031787132345" lon="14.914022093255015"><ele>135.0</ele><time>2026-04-06T12:15:18Z</time></trkpt><trkpt lat="37.22029674176143" lon="14.914116911933442"><ele>136.0</ele><time>2026-04-06T12:15:19Z</time></trkpt><trkpt lat="37.220160013819324" lon="14.914102866091342"><ele>136.0</ele><time>2026-04-06T12:15:23Z</time></trkpt><trkpt lat="37.22010499088471" lon="14.914024806442992"><ele>136.0</ele><time>2026-04-06T12:15:24Z</time></trkpt><trkpt lat="37.220037964200785" lon="14.913939845042808"><ele>136.0</ele><time>2026-04-06T12:15:25Z</time></trkpt><trkpt lat="37.219962721851054" lon="14.913840782569336"><ele>136.0</ele><time>2026-04-06T12:15:26Z</time></trkpt><trkpt lat="37.21988983989589" lon="14.913752261142937"><ele>136.0</ele><time>2026-04-06T12:15:27Z</time></trkpt><trkpt lat="37.21981533044978" lon="14.913658505149062"><ele>138.5</ele><time>2026-04-06T12:15:27.999Z</time></trkpt><trkpt lat="37.219731771309434" lon="14.913554309027049"><ele>141.0</ele><time>2026-04-06T12:15:28.999Z</time></trkpt><trkpt lat="37.219642323847545" lon="14.913443778412425"><ele>143.5</ele><time>2026-04-06T12:15:29.999Z</time></trkpt><trkpt lat="37.21955063679152" lon="14.913326524547797"><ele>146.0</ele><time>2026-04-06T12:15:30.999Z</time></trkpt><trkpt lat="37.219466065326195" lon="14.913213172387602"><ele>146.0</ele><time>2026-04-06T12:15:31.999Z</time></trkpt><trkpt lat="37.21938135745914" lon="14.913089302743385"><ele>146.0</ele><time>2026-04-06T12:15:32.999Z</time></trkpt><trkpt lat="37.2193001829355" lon="14.912952074807572"><ele>146.0</ele><time>2026-04-06T12:15:33.999Z</time></trkpt><trkpt lat="37.219235253549265" lon="14.912806912770343"><ele>146.0</ele><time>2026-04-06T12:15:34.999Z</time></trkpt><trkpt lat="37.219192022616355" lon="14.912666183124427"><ele>144.75</ele><time>2026-04-06T12:15:35.999Z</time></trkpt><trkpt lat="37.219157556123434" lon="14.91251901138708"><ele>143.5</ele><time>2026-04-06T12:15:36.999Z</time></trkpt><trkpt lat="37.21912985243056" lon="14.912356065071345"><ele>142.25</ele><time>2026-04-06T12:15:37.999Z</time></trkpt><trkpt lat="37.219108781644934" lon="14.912181972275162"><ele>141.0</ele><time>2026-04-06T12:15:38.999Z</time></trkpt><trkpt lat="37.21909156551539" lon="14.911996569565739"><ele>141.0</ele><time>2026-04-06T12:15:39.999Z</time></trkpt><trkpt lat="37.2190699900935" lon="14.911814344373266"><ele>141.0</ele><time>2026-04-06T12:15:40.999Z</time></trkpt><trkpt lat="37.21904573320279" lon="14.911628857961938"><ele>141.0</ele><time>2026-04-06T12:15:41.999Z</time></trkpt><trkpt lat="37.21902397097396" lon="14.911443562295167"><ele>141.0</ele><time>2026-04-06T12:15:42.999Z</time></trkpt><trkpt lat="37.21900425584215" lon="14.911261451086535"><ele>146.66666666666666</ele><time>2026-04-06T12:15:43.999Z</time></trkpt><trkpt lat="37.218982535603445" lon="14.911079441359682"><ele>152.33333333333331</ele><time>2026-04-06T12:15:44.999Z</time></trkpt><trkpt lat="37.21895090718795" lon="14.91089293091582"><ele>158.0</ele><time>2026-04-06T12:15:45.999Z</time></trkpt><trkpt lat="37.218902214573355" lon="14.910708980926861"><ele>158.0</ele><time>2026-04-06T12:15:46.999Z</time></trkpt><trkpt lat="37.21884337130892" lon="14.910526839060235"><ele>158.0</ele><time>2026-04-06T12:15:47.999Z</time></trkpt><trkpt lat="37.218785662807726" lon="14.910360227147288"><ele>158.0</ele><time>2026-04-06T12:15:48.999Z</time></trkpt><trkpt lat="37.21872490578883" lon="14.910207622456458"><ele>158.0</ele><time>2026-04-06T12:15:49.999Z</time></trkpt><trkpt lat="37.21865968866591" lon="14.910063991324833"><ele>157.25</ele><time>2026-04-06T12:15:50.999Z</time></trkpt><trkpt lat="37.218577807421546" lon="14.909935844486908"><ele>156.5</ele><time>2026-04-06T12:15:51.999Z</time></trkpt><trkpt lat="37.2184763928755" lon="14.909818137447171"><ele>155.75</ele><time>2026-04-06T12:15:52.999Z</time></trkpt><trkpt lat="37.21837296294681" lon="14.909701680010041"><ele>155.0</ele><time>2026-04-06T12:15:53.999Z</time></trkpt><trkpt lat="37.21827126082027" lon="14.909584618284539"><ele>155.0</ele><time>2026-04-06T12:15:54.999Z</time></trkpt><trkpt lat="37.21817467707497" lon="14.90945457600571"><ele>155.0</ele><time>2026-04-06T12:15:55.999Z</time></trkpt><trkpt lat="37.21809030346084" lon="14.909316605749737"><ele>155.0</ele><time>2026-04-06T12:15:56.999Z</time></trkpt><trkpt lat="37.21801230106438" lon="14.909178167874872"><ele>155.0</ele><time>2026-04-06T12:15:57.999Z</time></trkpt><trkpt lat="37.217944204855094" lon="14.909030310932103"><ele>157.5</ele><time>2026-04-06T12:15:58.999Z</time></trkpt><trkpt lat="37.217881788831605" lon="14.908870074974546"><ele>160.0</ele><time>2026-04-06T12:15:59.999Z</time></trkpt><trkpt lat="37.2178165778196" lon="14.908706927593247"><ele>162.5</ele><time>2026-04-06T12:16:00.999Z</time></trkpt><trkpt lat="37.21773817787184" lon="14.908548161423907"><ele>165.0</ele><time>2026-04-06T12:16:01.999Z</time></trkpt><trkpt lat="37.2176468661541" lon="14.908412757721857"><ele>166.0</ele><time>2026-04-06T12:16:02.999Z</time></trkpt><trkpt lat="37.2175432901328" lon="14.90830209392646"><ele>167.0</ele><time>2026-04-06T12:16:03.999Z</time></trkpt><trkpt lat="37.217420045752334" lon="14.90822017705128"><ele>168.0</ele><time>2026-04-06T12:16:04.999Z</time></trkpt><trkpt lat="37.217282226079206" lon="14.908159543557337"><ele>169.0</ele><time>2026-04-06T12:16:05.999Z</time></trkpt><trkpt lat="37.21713821722828" lon="14.908109739623722"><ele>169.0</ele><time>2026-04-06T12:16:06.999Z</time></trkpt><trkpt lat="37.216997286408244" lon="14.908037396983804"><ele>169.0</ele><time>2026-04-06T12:16:07.999Z</time></trkpt><trkpt lat="37.216861047086105" lon="14.907942835655648"><ele>169.0</ele><time>2026-04-06T12:16:08.999Z</time></trkpt><trkpt lat="37.216739486788754" lon="14.907826865817011"><ele>169.0</ele><time>2026-04-06T12:16:09.999Z</time></trkpt><trkpt lat="37.21661276990541" lon="14.907732862156688"><ele>169.0</ele><time>2026-04-06T12:16:10.999Z</time></trkpt><trkpt lat="37.216486839310015" lon="14.907648767793937"><ele>169.0</ele><time>2026-04-06T12:16:11.999Z</time></trkpt><trkpt lat="37.21637405555664" lon="14.907577968854563"><ele>169.0</ele><time>2026-04-06T12:16:12.999Z</time></trkpt><trkpt lat="37.21626899076825" lon="14.907511935298016"><ele>171.2</ele><time>2026-04-06T12:16:13.999Z</time></trkpt><trkpt lat="37.216187392073664" lon="14.90744321790973"><ele>173.39999999999998</ele><time>2026-04-06T12:16:14.999Z</time></trkpt><trkpt lat="37.21613743468119" lon="14.907342630110994"><ele>175.6</ele><time>2026-04-06T12:16:15.999Z</time></trkpt><trkpt lat="37.21610709718691" lon="14.90721994360948"><ele>177.8</ele><time>2026-04-06T12:16:16.999Z</time></trkpt><trkpt lat="37.21610261618889" lon="14.907082307483895"><ele>180.0</ele><time>2026-04-06T12:16:17.999Z</time></trkpt><trkpt lat="37.216112657389544" lon="14.90693290412748"><ele>180.0</ele><time>2026-04-06T12:16:18.999Z</time></trkpt><trkpt lat="37.216123778574904" lon="14.906777193852921"><ele>180.0</ele><time>2026-04-06T12:16:19.999Z</time></trkpt><trkpt lat="37.21612885233154" lon="14.906624706418855"><ele>180.0</ele><time>2026-04-06T12:16:20.999Z</time></trkpt><trkpt lat="37.216112485505725" lon="14.906479054442878"><ele>180.0</ele><time>2026-04-06T12:16:21.999Z</time></trkpt><trkpt lat="37.2160696627653" lon="14.90634170761529"><ele>179.5</ele><time>2026-04-06T12:16:22.999Z</time></trkpt><trkpt lat="37.21599351299377" lon="14.906225098823557"><ele>179.0</ele><time>2026-04-06T12:16:23.999Z</time></trkpt><trkpt lat="37.21589168811174" lon="14.906129255040984"><ele>178.5</ele><time>2026-04-06T12:16:24.999Z</time></trkpt><trkpt lat="37.215779301016184" lon="14.906062077443659"><ele>178.0</ele><time>2026-04-06T12:16:25.999Z</time></trkpt><trkpt lat="37.21566437579531" lon="14.906023320969181"><ele>182.5</ele><time>2026-04-06T12:16:26.999Z</time></trkpt><trkpt lat="37.21552984282429" lon="14.906009175597253"><ele>187.0</ele><time>2026-04-06T12:16:27.999Z</time></trkpt><trkpt lat="37.215393284450556" lon="14.906004893962521"><ele>191.5</ele><time>2026-04-06T12:16:28.999Z</time></trkpt><trkpt lat="37.21525794142414" lon="14.905993066825333"><ele>196.0</ele><time>2026-04-06T12:16:29.999Z</time></trkpt><trkpt lat="37.21513039250942" lon="14.906029757473915"><ele>196.0</ele><time>2026-04-06T12:16:30.999Z</time></trkpt><trkpt lat="37.21501347886084" lon="14.90607904845588"><ele>196.0</ele><time>2026-04-06T12:16:31.999Z</time></trkpt><trkpt lat="37.21491461812683" lon="14.906115683766805"><ele>196.0</ele><time>2026-04-06T12:16:32.999Z</time></trkpt><trkpt lat="37.21482443463" lon="14.906136045663967"><ele>196.0</ele><time>2026-04-06T12:16:33.999Z</time></trkpt><trkpt lat="37.21472944976932" lon="14.906104050077538"><ele>196.0</ele><time>2026-04-06T12:16:34.999Z</time></trkpt><trkpt lat="37.21463402625526" lon="14.906029997141314"><ele>195.0</ele><time>2026-04-06T12:16:35.999Z</time></trkpt><trkpt lat="37.21453156253888" lon="14.90594786245177"><ele>194.0</ele><time>2026-04-06T12:16:36.999Z</time></trkpt><trkpt lat="37.214422728438414" lon="14.905867694087506"><ele>193.0</ele><time>2026-04-06T12:16:37.999Z</time></trkpt><trkpt lat="37.21431123284474" lon="14.905781629042702"><ele>192.0</ele><time>2026-04-06T12:16:38.999Z</time></trkpt><trkpt lat="37.214201815828616" lon="14.905682360143384"><ele>192.0</ele><time>2026-04-06T12:16:39.999Z</time></trkpt><trkpt lat="37.21409821836073" lon="14.905572288885665"><ele>192.0</ele><time>2026-04-06T12:16:40.999Z</time></trkpt><trkpt lat="37.21399635571999" lon="14.905453546340196"><ele>192.0</ele><time>2026-04-06T12:16:41.999Z</time></trkpt><trkpt lat="37.21390442695047" lon="14.905336885957496"><ele>192.0</ele><time>2026-04-06T12:16:42.999Z</time></trkpt><trkpt lat="37.213813542710774" lon="14.905198589365146"><ele>194.25</ele><time>2026-04-06T12:16:44Z</time></trkpt><trkpt lat="37.21372658588953" lon="14.905051736185097"><ele>196.5</ele><time>2026-04-06T12:16:45Z</time></trkpt><trkpt lat="37.21364782785657" lon="14.904893598262165"><ele>198.75</ele><time>2026-04-06T12:16:46Z</time></trkpt><trkpt lat="37.21357151680305" lon="14.904744125264349"><ele>201.0</ele><time>2026-04-06T12:16:47Z</time></trkpt><trkpt lat="37.213504758855" lon="14.904597239179965"><ele>201.0</ele><time>2026-04-06T12:16:48Z</time></trkpt><trkpt lat="37.213432857830426" lon="14.904453268441943"><ele>201.0</ele><time>2026-04-06T12:16:49Z</time></trkpt><trkpt lat="37.21335779223118" lon="14.904330326218743"><ele>201.0</ele><time>2026-04-06T12:16:50Z</time></trkpt><trkpt lat="37.21327686706784" lon="14.904238348320483"><ele>201.0</ele><time>2026-04-06T12:16:51Z</time></trkpt><trkpt lat="37.213183209003546" lon="14.904197506211958"><ele>202.25</ele><time>2026-04-06T12:16:52Z</time></trkpt><trkpt lat="37.213071097496176" lon="14.904200464799045"><ele>203.5</ele><time>2026-04-06T12:16:53Z</time></trkpt><trkpt lat="37.21295442252172" lon="14.904253480798413"><ele>204.75</ele><time>2026-04-06T12:16:54Z</time></trkpt><trkpt lat="37.21282467043889" lon="14.904275007734201"><ele>206.0</ele><time>2026-04-06T12:16:55Z</time></trkpt><trkpt lat="37.21269055360215" lon="14.904298940797876"><ele>206.0</ele><time>2026-04-06T12:16:56Z</time></trkpt><trkpt lat="37.212566771165264" lon="14.904311964849954"><ele>206.0</ele><time>2026-04-06T12:16:57Z</time></trkpt><trkpt lat="37.212456863961705" lon="14.904328735707434"><ele>206.0</ele><time>2026-04-06T12:16:58Z</time></trkpt><trkpt lat="37.21236491479721" lon="14.904323517547121"><ele>206.0</ele><time>2026-04-06T12:16:59Z</time></trkpt><trkpt lat="37.21229293254102" lon="14.904349008003335"><ele>206.0</ele><time>2026-04-06T12:17:00Z</time></trkpt><trkpt lat="37.21222412261303" lon="14.904355478064621"><ele>201.60000000000002</ele><time>2026-04-06T12:17:01Z</time></trkpt><trkpt lat="37.21218247359902" lon="14.904467152097528"><ele>197.2</ele><time>2026-04-06T12:17:02Z</time></trkpt><trkpt lat="37.21213742711417" lon="14.904563515357168"><ele>192.8</ele><time>2026-04-06T12:17:03Z</time></trkpt><trkpt lat="37.21210575938451" lon="14.904678379161567"><ele>188.39999999999998</ele><time>2026-04-06T12:17:04Z</time></trkpt><trkpt lat="37.21207924557607" lon="14.904809379349732"><ele>184.0</ele><time>2026-04-06T12:17:05Z</time></trkpt><trkpt lat="37.212052260842974" lon="14.904936609963562"><ele>184.0</ele><time>2026-04-06T12:17:06Z</time></trkpt><trkpt lat="37.21202384728038" lon="14.905069194669908"><ele>184.0</ele><time>2026-04-06T12:17:07Z</time></trkpt><trkpt lat="37.21198865841059" lon="14.905209436910559"><ele>184.0</ele><time>2026-04-06T12:17:08Z</time></trkpt><trkpt lat="37.211942581200695" lon="14.905342850567822"><ele>184.0</ele><time>2026-04-06T12:17:09Z</time></trkpt><trkpt lat="37.21188601116697" lon="14.905468269684798"><ele>186.79999999999998</ele><time>2026-04-06T12:17:10Z</time></trkpt><trkpt lat="37.211792694844874" lon="14.90555504520021"><ele>189.6</ele><time>2026-04-06T12:17:11Z</time></trkpt><trkpt lat="37.211708144720546" lon="14.905642455387248"><ele>192.4</ele><time>2026-04-06T12:17:12Z</time></trkpt><trkpt lat="37.21161280133495" lon="14.905713830005512"><ele>195.2</ele><time>2026-04-06T12:17:13Z</time></trkpt><trkpt lat="37.211506170569145" lon="14.90575654892986"><ele>198.0</ele><time>2026-04-06T12:17:14Z</time></trkpt><trkpt lat="37.21138979838751" lon="14.905787904102812"><ele>198.0</ele><time>2026-04-06T12:17:15Z</time></trkpt><trkpt lat="37.21126911316608" lon="14.905818070335313"><ele>198.0</ele><time>2026-04-06T12:17:16Z</time></trkpt><trkpt lat="37.21114310997329" lon="14.905848399738584"><ele>198.0</ele><time>2026-04-06T12:17:17Z</time></trkpt><trkpt lat="37.211013119250424" lon="14.905879688934327"><ele>198.0</ele><time>2026-04-06T12:17:18Z</time></trkpt><trkpt lat="37.210885637113634" lon="14.905910374330935"><ele>204.75</ele><time>2026-04-06T12:17:19Z</time></trkpt><trkpt lat="37.210760229518954" lon="14.905938359216803"><ele>211.5</ele><time>2026-04-06T12:17:20Z</time></trkpt><trkpt lat="37.2106370222615" lon="14.905972890189178"><ele>218.25</ele><time>2026-04-06T12:17:21Z</time></trkpt><trkpt lat="37.21050562500593" lon="14.905965310921014"><ele>225.0</ele><time>2026-04-06T12:17:22Z</time></trkpt><trkpt lat="37.2103772820367" lon="14.905942951149708"><ele>219.25</ele><time>2026-04-06T12:17:23Z</time></trkpt><trkpt lat="37.210242734024405" lon="14.905910977546124"><ele>213.5</ele><time>2026-04-06T12:17:24Z</time></trkpt><trkpt lat="37.210103596527354" lon="14.905882282419086"><ele>207.75</ele><time>2026-04-06T12:17:25Z</time></trkpt><trkpt lat="37.209964382513995" lon="14.90585657976462"><ele>202.0</ele><time>2026-04-06T12:17:26Z</time></trkpt><trkpt lat="37.20983396040304" lon="14.905826830061118"><ele>205.0</ele><time>2026-04-06T12:17:27Z</time></trkpt><trkpt lat="37.209708174010686" lon="14.90577776822166"><ele>208.0</ele><time>2026-04-06T12:17:28Z</time></trkpt><trkpt lat="37.20958487495657" lon="14.905709025221181"><ele>211.0</ele><time>2026-04-06T12:17:29Z</time></trkpt><trkpt lat="37.20946727566078" lon="14.905623927018535"><ele>214.0</ele><time>2026-04-06T12:17:30Z</time></trkpt><trkpt lat="37.209347051104146" lon="14.90553926466836"><ele>214.0</ele><time>2026-04-06T12:17:31Z</time></trkpt><trkpt lat="37.209224334562784" lon="14.905483982836163"><ele>214.0</ele><time>2026-04-06T12:17:32Z</time></trkpt><trkpt lat="37.209090198340576" lon="14.90545831785571"><ele>214.0</ele><time>2026-04-06T12:17:33Z</time></trkpt><trkpt lat="37.20895909312854" lon="14.905462142900554"><ele>214.0</ele><time>2026-04-06T12:17:34Z</time></trkpt><trkpt lat="37.208839646561096" lon="14.905488544739349"><ele>212.0</ele><time>2026-04-06T12:17:35Z</time></trkpt><trkpt lat="37.20873567573621" lon="14.905543872795077"><ele>210.0</ele><time>2026-04-06T12:17:36Z</time></trkpt><trkpt lat="37.2086535593837" lon="14.905638717029895"><ele>208.0</ele><time>2026-04-06T12:17:37Z</time></trkpt><trkpt lat="37.208583453167826" lon="14.905773613777383"><ele>206.0</ele><time>2026-04-06T12:17:38Z</time></trkpt><trkpt lat="37.20850596040737" lon="14.90591420279722"><ele>209.75</ele><time>2026-04-06T12:17:39Z</time></trkpt><trkpt lat="37.208403757341785" lon="14.906011493745737"><ele>213.5</ele><time>2026-04-06T12:17:40Z</time></trkpt><trkpt lat="37.208301025801525" lon="14.906100009610796"><ele>217.25</ele><time>2026-04-06T12:17:41Z</time></trkpt><trkpt lat="37.208184322849554" lon="14.906191602051036"><ele>221.0</ele><time>2026-04-06T12:17:42Z</time></trkpt><trkpt lat="37.20806538505852" lon="14.906280765328283"><ele>221.0</ele><time>2026-04-06T12:17:43Z</time></trkpt><trkpt lat="37.207936929075984" lon="14.906362979170513"><ele>221.0</ele><time>2026-04-06T12:17:44Z</time></trkpt><trkpt lat="37.20779549969038" lon="14.906430765855273"><ele>221.0</ele><time>2026-04-06T12:17:45Z</time></trkpt><trkpt lat="37.207650317126124" lon="14.90649150322412"><ele>221.0</ele><time>2026-04-06T12:17:46Z</time></trkpt><trkpt lat="37.207502268243985" lon="14.906542994812941"><ele>221.0</ele><time>2026-04-06T12:17:47Z</time></trkpt><trkpt lat="37.207348247842766" lon="14.906576031609484"><ele>221.0</ele><time>2026-04-06T12:17:48Z</time></trkpt><trkpt lat="37.207190353718815" lon="14.906598224422757"><ele>221.0</ele><time>2026-04-06T12:17:49Z</time></trkpt><trkpt lat="37.207030258604235" lon="14.90662335968411"><ele>220.0</ele><time>2026-04-06T12:17:50Z</time></trkpt><trkpt lat="37.206867677020384" lon="14.906659444622923"><ele>219.0</ele><time>2026-04-06T12:17:51Z</time></trkpt><trkpt lat="37.206706279144726" lon="14.906701350877945"><ele>218.0</ele><time>2026-04-06T12:17:52Z</time></trkpt><trkpt lat="37.20655070183776" lon="14.906746647870328"><ele>223.5</ele><time>2026-04-06T12:17:52.999Z</time></trkpt><trkpt lat="37.206409069893034" lon="14.906796216621132"><ele>229.0</ele><time>2026-04-06T12:17:53.999Z</time></trkpt><trkpt lat="37.20628290886262" lon="14.906840636229155"><ele>234.5</ele><time>2026-04-06T12:17:54.999Z</time></trkpt><trkpt lat="37.2061682385565" lon="14.906884208834338"><ele>240.0</ele><time>2026-04-06T12:17:55.999Z</time></trkpt><trkpt lat="37.20604875074958" lon="14.906852081454105"><ele>240.0</ele><time>2026-04-06T12:17:56.999Z</time></trkpt><trkpt lat="37.20590970972159" lon="14.906824155650481"><ele>240.0</ele><time>2026-04-06T12:17:57.999Z</time></trkpt><trkpt lat="37.205762565408634" lon="14.906789966369951"><ele>240.0</ele><time>2026-04-06T12:17:58.999Z</time></trkpt><trkpt lat="37.205615104611944" lon="14.906747677030308"><ele>240.0</ele><time>2026-04-06T12:17:59.999Z</time></trkpt><trkpt lat="37.20546672339885" lon="14.906693974741748"><ele>237.33333333333331</ele><time>2026-04-06T12:18:00.999Z</time></trkpt><trkpt lat="37.20530981763559" lon="14.906640785136641"><ele>234.66666666666666</ele><time>2026-04-06T12:18:01.999Z</time></trkpt><trkpt lat="37.20515666521998" lon="14.906552502924983"><ele>232.0</ele><time>2026-04-06T12:18:02.999Z</time></trkpt><trkpt lat="37.205005858147956" lon="14.9064517301503"><ele>232.0</ele><time>2026-04-06T12:18:03.999Z</time></trkpt><trkpt lat="37.20485843194509" lon="14.906336269862047"><ele>232.0</ele><time>2026-04-06T12:18:04.999Z</time></trkpt><trkpt lat="37.20471564154485" lon="14.906233696457571"><ele>232.0</ele><time>2026-04-06T12:18:05.999Z</time></trkpt><trkpt lat="37.204553930216505" lon="14.906148135174782"><ele>236.0</ele><time>2026-04-06T12:18:06.999Z</time></trkpt><trkpt lat="37.20439693586706" lon="14.906089383002408"><ele>240.0</ele><time>2026-04-06T12:18:07.999Z</time></trkpt><trkpt lat="37.20424354875961" lon="14.90604425050365"><ele>244.0</ele><time>2026-04-06T12:18:08.999Z</time></trkpt><trkpt lat="37.204082135701874" lon="14.906025208166158"><ele>245.75</ele><time>2026-04-06T12:18:09.999Z</time></trkpt><trkpt lat="37.203915731912936" lon="14.906023173052384"><ele>247.5</ele><time>2026-04-06T12:18:10.999Z</time></trkpt><trkpt lat="37.20377320250942" lon="14.906047088431361"><ele>249.25</ele><time>2026-04-06T12:18:11.999Z</time></trkpt><trkpt lat="37.20366659964907" lon="14.906065609041248"><ele>251.0</ele><time>2026-04-06T12:18:12.999Z</time></trkpt><trkpt lat="37.203593263737886" lon="14.90608473988314"><ele>251.0</ele><time>2026-04-06T12:18:13.999Z</time></trkpt><trkpt lat="37.20352993039464" lon="14.906016250712694"><ele>251.00000000000003</ele><time>2026-04-06T12:18:15.999Z</time></trkpt><trkpt lat="37.203574289048895" lon="14.905899363442177"><ele>251.00000000000003</ele><time>2026-04-06T12:18:17.999Z</time></trkpt><trkpt lat="37.20365142276447" lon="14.905861855630995"><ele>251.0</ele><time>2026-04-06T12:18:18.999Z</time></trkpt><trkpt lat="37.20373229751176" lon="14.905823797929415"><ele>251.0</ele><time>2026-04-06T12:18:19.999Z</time></trkpt><trkpt lat="37.20382590523546" lon="14.905771816739525"><ele>248.5</ele><time>2026-04-06T12:18:20.999Z</time></trkpt><trkpt lat="37.203929037038755" lon="14.905717025097063"><ele>246.0</ele><time>2026-04-06T12:18:21.999Z</time></trkpt><trkpt lat="37.204039501903026" lon="14.905650991585256"><ele>243.5</ele><time>2026-04-06T12:18:22.999Z</time></trkpt><trkpt lat="37.20414192946043" lon="14.905584469836956"><ele>241.0</ele><time>2026-04-06T12:18:23.999Z</time></trkpt><trkpt lat="37.204238441194455" lon="14.905511242045014"><ele>239.75</ele><time>2026-04-06T12:18:24.999Z</time></trkpt><trkpt lat="37.20432355955534" lon="14.905419462206083"><ele>238.5</ele><time>2026-04-06T12:18:25.999Z</time></trkpt><trkpt lat="37.204389665328755" lon="14.905297792840654"><ele>237.25</ele><time>2026-04-06T12:18:26.999Z</time></trkpt><trkpt lat="37.20443331111804" lon="14.905154262252639"><ele>236.0</ele><time>2026-04-06T12:18:27.999Z</time></trkpt><trkpt lat="37.20444381667259" lon="14.90499293873737"><ele>236.0</ele><time>2026-04-06T12:18:28.999Z</time></trkpt><trkpt lat="37.204416361656214" lon="14.904833136221967"><ele>236.0</ele><time>2026-04-06T12:18:29.999Z</time></trkpt><trkpt lat="37.204358962647746" lon="14.904675131167304"><ele>236.0</ele><time>2026-04-06T12:18:30.999Z</time></trkpt><trkpt lat="37.20428088473525" lon="14.904533354122515"><ele>236.0</ele><time>2026-04-06T12:18:31.999Z</time></trkpt><trkpt lat="37.20419785473042" lon="14.904399532678955"><ele>236.0</ele><time>2026-04-06T12:18:32.999Z</time></trkpt><trkpt lat="37.204106581549205" lon="14.904273901171546"><ele>236.0</ele><time>2026-04-06T12:18:33.999Z</time></trkpt><trkpt lat="37.20400458821581" lon="14.904171074221118"><ele>236.0</ele><time>2026-04-06T12:18:34.999Z</time></trkpt><trkpt lat="37.203890311621684" lon="14.90409463969863"><ele>236.0</ele><time>2026-04-06T12:18:35.999Z</time></trkpt><trkpt lat="37.203751944945985" lon="14.904044194268238"><ele>237.0</ele><time>2026-04-06T12:18:36.999Z</time></trkpt><trkpt lat="37.20360558117262" lon="14.904014098179228"><ele>238.0</ele><time>2026-04-06T12:18:37.999Z</time></trkpt><trkpt lat="37.20345782807483" lon="14.903990935605634"><ele>239.0</ele><time>2026-04-06T12:18:38.999Z</time></trkpt><trkpt lat="37.20330784098461" lon="14.90395073569204"><ele>241.33333333333334</ele><time>2026-04-06T12:18:39.999Z</time></trkpt><trkpt lat="37.203149154469294" lon="14.903979178062775"><ele>243.66666666666669</ele><time>2026-04-06T12:18:40.999Z</time></trkpt><trkpt lat="37.20298948307251" lon="14.903971579248896"><ele>246.0</ele><time>2026-04-06T12:18:41.999Z</time></trkpt><trkpt lat="37.20283132441185" lon="14.903990268057969"><ele>246.0</ele><time>2026-04-06T12:18:42.999Z</time></trkpt><trkpt lat="37.20267299940148" lon="14.904006926933924"><ele>246.0</ele><time>2026-04-06T12:18:43.999Z</time></trkpt><trkpt lat="37.20251302092903" lon="14.904017999573973"><ele>246.0</ele><time>2026-04-06T12:18:44.999Z</time></trkpt><trkpt lat="37.20234976824096" lon="14.904014486058848"><ele>249.0</ele><time>2026-04-06T12:18:45.999Z</time></trkpt><trkpt lat="37.20218961497562" lon="14.90400767719306"><ele>252.0</ele><time>2026-04-06T12:18:46.999Z</time></trkpt><trkpt lat="37.20204119311388" lon="14.903998566512596"><ele>255.0</ele><time>2026-04-06T12:18:47.999Z</time></trkpt><trkpt lat="37.20189769374398" lon="14.903998994223231"><ele>255.0</ele><time>2026-04-06T12:18:48.999Z</time></trkpt><trkpt lat="37.20174897717843" lon="14.903966053247437"><ele>255.0</ele><time>2026-04-06T12:18:50Z</time></trkpt><trkpt lat="37.201600774622136" lon="14.903919857660282"><ele>255.0</ele><time>2026-04-06T12:18:51Z</time></trkpt><trkpt lat="37.20146051727309" lon="14.903854102943003"><ele>258.0</ele><time>2026-04-06T12:18:52Z</time></trkpt><trkpt lat="37.201322550181374" lon="14.903769208803114"><ele>261.0</ele><time>2026-04-06T12:18:53Z</time></trkpt><trkpt lat="37.2011938873936" lon="14.903671918571787"><ele>264.0</ele><time>2026-04-06T12:18:54Z</time></trkpt><trkpt lat="37.201067456786724" lon="14.903587606867221"><ele>267.0</ele><time>2026-04-06T12:18:55Z</time></trkpt><trkpt lat="37.200930412543485" lon="14.903540994003654"><ele>267.0</ele><time>2026-04-06T12:18:56Z</time></trkpt><trkpt lat="37.20078672371729" lon="14.90351055573994"><ele>267.0</ele><time>2026-04-06T12:18:57Z</time></trkpt><trkpt lat="37.20063876093418" lon="14.903532637153827"><ele>267.0</ele><time>2026-04-06T12:18:58Z</time></trkpt><trkpt lat="37.20051438356475" lon="14.90357477493255"><ele>267.0</ele><time>2026-04-06T12:18:59Z</time></trkpt><trkpt lat="37.20041211108563" lon="14.903606264775748"><ele>268.2</ele><time>2026-04-06T12:19:00Z</time></trkpt><trkpt lat="37.20032378117951" lon="14.903630713113204"><ele>269.4</ele><time>2026-04-06T12:19:01Z</time></trkpt><trkpt lat="37.200238729084305" lon="14.90357910976922"><ele>270.6</ele><time>2026-04-06T12:19:02Z</time></trkpt><trkpt lat="37.20016255276432" lon="14.903486572688152"><ele>271.8</ele><time>2026-04-06T12:19:03Z</time></trkpt><trkpt lat="37.200088565012315" lon="14.903375986140157"><ele>273.0</ele><time>2026-04-06T12:19:04Z</time></trkpt><trkpt lat="37.19999975613905" lon="14.903284706271528"><ele>270.5</ele><time>2026-04-06T12:19:05Z</time></trkpt><trkpt lat="37.19988295208009" lon="14.903207253557415"><ele>268.0</ele><time>2026-04-06T12:19:06Z</time></trkpt><trkpt lat="37.199738841331026" lon="14.903177033715405"><ele>265.5</ele><time>2026-04-06T12:19:07Z</time></trkpt><trkpt lat="37.19960815210395" lon="14.90317696769651"><ele>263.0</ele><time>2026-04-06T12:19:08Z</time></trkpt><trkpt lat="37.199466530603424" lon="14.903170575925113"><ele>263.0</ele><time>2026-04-06T12:19:09Z</time></trkpt><trkpt lat="37.19932895011095" lon="14.903168783995097"><ele>263.0</ele><time>2026-04-06T12:19:10Z</time></trkpt><trkpt lat="37.19919775769207" lon="14.903161770416611"><ele>263.0</ele><time>2026-04-06T12:19:11Z</time></trkpt><trkpt lat="37.19906496797977" lon="14.903227327065197"><ele>263.0</ele><time>2026-04-06T12:19:12Z</time></trkpt><trkpt lat="37.19892167022554" lon="14.903287526893536"><ele>264.0</ele><time>2026-04-06T12:19:13Z</time></trkpt><trkpt lat="37.19878761664693" lon="14.903372156604732"><ele>265.0</ele><time>2026-04-06T12:19:14Z</time></trkpt><trkpt lat="37.19865058842718" lon="14.903454955399647"><ele>266.0</ele><time>2026-04-06T12:19:15Z</time></trkpt><trkpt lat="37.19851308691209" lon="14.903534996034367"><ele>269.5</ele><time>2026-04-06T12:19:16Z</time></trkpt><trkpt lat="37.19838136354483" lon="14.903604691791784"><ele>273.0</ele><time>2026-04-06T12:19:17Z</time></trkpt><trkpt lat="37.198259821505" lon="14.903660772038146"><ele>276.5</ele><time>2026-04-06T12:19:18Z</time></trkpt><trkpt lat="37.19815395353729" lon="14.903708817354241"><ele>280.0</ele><time>2026-04-06T12:19:19Z</time></trkpt><trkpt lat="37.19806249820953" lon="14.90374725292468"><ele>280.66666666666663</ele><time>2026-04-06T12:19:20Z</time></trkpt><trkpt lat="37.19799298746678" lon="14.903770512765075"><ele>281.3333333333333</ele><time>2026-04-06T12:19:21Z</time></trkpt><trkpt lat="37.197924271816845" lon="14.903772585904608"><ele>282.0</ele><time>2026-04-06T12:19:22Z</time></trkpt><trkpt lat="37.197862381628504" lon="14.903713964690867"><ele>282.6666666666667</ele><time>2026-04-06T12:19:23Z</time></trkpt><trkpt lat="37.19783452157552" lon="14.903624204901353"><ele>283.33333333333337</ele><time>2026-04-06T12:19:24Z</time></trkpt><trkpt lat="37.197846937523366" lon="14.90352457528809"><ele>284.0</ele><time>2026-04-06T12:19:25Z</time></trkpt><trkpt lat="37.19790192466603" lon="14.903434211819349"><ele>283.5</ele><time>2026-04-06T12:19:26Z</time></trkpt><trkpt lat="37.19798556043601" lon="14.903365156942215"><ele>283.0</ele><time>2026-04-06T12:19:27Z</time></trkpt><trkpt lat="37.198081563484514" lon="14.903292771883638"><ele>282.5</ele><time>2026-04-06T12:19:28Z</time></trkpt><trkpt lat="37.19817806511914" lon="14.903183656213024"><ele>282.0</ele><time>2026-04-06T12:19:29Z</time></trkpt><trkpt lat="37.19826135269211" lon="14.9030647539581"><ele>278.0</ele><time>2026-04-06T12:19:30Z</time></trkpt><trkpt lat="37.19832706459492" lon="14.902931470450449"><ele>274.0</ele><time>2026-04-06T12:19:31Z</time></trkpt><trkpt lat="37.19837843577183" lon="14.902791954854042"><ele>270.0</ele><time>2026-04-06T12:19:32Z</time></trkpt><trkpt lat="37.198402842931" lon="14.90265252285882"><ele>266.0</ele><time>2026-04-06T12:19:33Z</time></trkpt><trkpt lat="37.198394509309736" lon="14.902522399194329"><ele>266.0</ele><time>2026-04-06T12:19:34Z</time></trkpt><trkpt lat="37.198356485362616" lon="14.902399975501451"><ele>266.0</ele><time>2026-04-06T12:19:35Z</time></trkpt><trkpt lat="37.19827824465301" lon="14.902293103519455"><ele>266.0</ele><time>2026-04-06T12:19:36Z</time></trkpt><trkpt lat="37.19818359154298" lon="14.902188860000845"><ele>266.0</ele><time>2026-04-06T12:19:37Z</time></trkpt><trkpt lat="37.1980797355905" lon="14.902130061920401"><ele>270.0</ele><time>2026-04-06T12:19:38Z</time></trkpt><trkpt lat="37.19796145849394" lon="14.902100963905903"><ele>274.0</ele><time>2026-04-06T12:19:39Z</time></trkpt><trkpt lat="37.19783234133433" lon="14.90206954787946"><ele>278.0</ele><time>2026-04-06T12:19:40Z</time></trkpt><trkpt lat="37.197709475763176" lon="14.902008745832521"><ele>282.0</ele><time>2026-04-06T12:19:41Z</time></trkpt><trkpt lat="37.197593139266196" lon="14.901926513522136"><ele>282.0</ele><time>2026-04-06T12:19:42Z</time></trkpt><trkpt lat="37.19748760495793" lon="14.901876147761884"><ele>282.0</ele><time>2026-04-06T12:19:43Z</time></trkpt><trkpt lat="37.197382832487655" lon="14.901881400526218"><ele>282.0</ele><time>2026-04-06T12:19:44Z</time></trkpt><trkpt lat="37.19727365713824" lon="14.901917146742068"><ele>282.0</ele><time>2026-04-06T12:19:45Z</time></trkpt><trkpt lat="37.19718074450489" lon="14.902021809273341"><ele>282.5</ele><time>2026-04-06T12:19:46Z</time></trkpt><trkpt lat="37.197106218823905" lon="14.902159604085396"><ele>283.0</ele><time>2026-04-06T12:19:47Z</time></trkpt><trkpt lat="37.19703705929755" lon="14.902313338599058"><ele>283.5</ele><time>2026-04-06T12:19:48Z</time></trkpt><trkpt lat="37.196972058265445" lon="14.902458245921732"><ele>284.0</ele><time>2026-04-06T12:19:49Z</time></trkpt><trkpt lat="37.196898016054845" lon="14.902608573467681"><ele>284.0</ele><time>2026-04-06T12:19:50Z</time></trkpt><trkpt lat="37.196811197782814" lon="14.902755716711134"><ele>284.0</ele><time>2026-04-06T12:19:51Z</time></trkpt><trkpt lat="37.196729179233024" lon="14.902893046129849"><ele>284.0</ele><time>2026-04-06T12:19:52Z</time></trkpt><trkpt lat="37.19661963759159" lon="14.903000263719493"><ele>284.0</ele><time>2026-04-06T12:19:53Z</time></trkpt><trkpt lat="37.19649015638784" lon="14.903085192080516"><ele>281.0</ele><time>2026-04-06T12:19:54Z</time></trkpt><trkpt lat="37.196340288615296" lon="14.903112318331196"><ele>278.0</ele><time>2026-04-06T12:19:55Z</time></trkpt><trkpt lat="37.196196428991065" lon="14.903170169685351"><ele>275.0</ele><time>2026-04-06T12:19:56Z</time></trkpt><trkpt lat="37.19605367214037" lon="14.903232914189067"><ele>275.0</ele><time>2026-04-06T12:19:57Z</time></trkpt><trkpt lat="37.195900603204244" lon="14.903329339395357"><ele>275.0</ele><time>2026-04-06T12:19:58Z</time></trkpt><trkpt lat="37.19576606461414" lon="14.90344624525592"><ele>275.0</ele><time>2026-04-06T12:19:59Z</time></trkpt><trkpt lat="37.19563744357769" lon="14.903560405296716"><ele>275.33333333333337</ele><time>2026-04-06T12:20:00Z</time></trkpt><trkpt lat="37.19552129466214" lon="14.903687588152907"><ele>275.6666666666667</ele><time>2026-04-06T12:20:01Z</time></trkpt><trkpt lat="37.19539427995588" lon="14.903792655691095"><ele>276.0</ele><time>2026-04-06T12:20:02Z</time></trkpt><trkpt lat="37.19527400345821" lon="14.90389956066592"><ele>276.0</ele><time>2026-04-06T12:20:03Z</time></trkpt><trkpt lat="37.19515786587289" lon="14.904018636557934"><ele>276.0</ele><time>2026-04-06T12:20:04Z</time></trkpt><trkpt lat="37.195050187284664" lon="14.904171797488754"><ele>276.0</ele><time>2026-04-06T12:20:05Z</time></trkpt><trkpt lat="37.1949616020263" lon="14.904357628420616"><ele>273.3333333333333</ele><time>2026-04-06T12:20:06Z</time></trkpt><trkpt lat="37.19487704927388" lon="14.904556665937127"><ele>270.66666666666663</ele><time>2026-04-06T12:20:07Z</time></trkpt><trkpt lat="37.194777664758156" lon="14.904746874066547"><ele>268.0</ele><time>2026-04-06T12:20:08Z</time></trkpt><trkpt lat="37.19469413209112" lon="14.904936682497771"><ele>271.66666666666663</ele><time>2026-04-06T12:20:09Z</time></trkpt><trkpt lat="37.19463015208605" lon="14.905122198993602"><ele>275.3333333333333</ele><time>2026-04-06T12:20:10Z</time></trkpt><trkpt lat="37.19455806334137" lon="14.905300162240163"><ele>279.0</ele><time>2026-04-06T12:20:11Z</time></trkpt><trkpt lat="37.19449811126637" lon="14.905486967748667"><ele>279.0</ele><time>2026-04-06T12:20:12Z</time></trkpt><trkpt lat="37.19446416001481" lon="14.905693121006585"><ele>279.0</ele><time>2026-04-06T12:20:13Z</time></trkpt><trkpt lat="37.19444786250646" lon="14.905911597208195"><ele>279.0</ele><time>2026-04-06T12:20:14Z</time></trkpt><trkpt lat="37.19441882677283" lon="14.906133015253062"><ele>280.3333333333333</ele><time>2026-04-06T12:20:15Z</time></trkpt><trkpt lat="37.19440349370649" lon="14.90634362527445"><ele>281.66666666666663</ele><time>2026-04-06T12:20:16Z</time></trkpt><trkpt lat="37.19438046368264" lon="14.906562936824981"><ele>283.0</ele><time>2026-04-06T12:20:17Z</time></trkpt><trkpt lat="37.19435535333144" lon="14.906791693875695"><ele>285.3333333333333</ele><time>2026-04-06T12:20:18Z</time></trkpt><trkpt lat="37.19433197269247" lon="14.907024339201849"><ele>287.6666666666667</ele><time>2026-04-06T12:20:19Z</time></trkpt><trkpt lat="37.19431983893152" lon="14.907252868258627"><ele>290.0</ele><time>2026-04-06T12:20:20Z</time></trkpt><trkpt lat="37.19431936336949" lon="14.907474045872304"><ele>292.6666666666667</ele><time>2026-04-06T12:20:21Z</time></trkpt><trkpt lat="37.19431302503356" lon="14.907690407766895"><ele>295.3333333333333</ele><time>2026-04-06T12:20:22Z</time></trkpt><trkpt lat="37.194310444439566" lon="14.907909732939094"><ele>298.0</ele><time>2026-04-06T12:20:23Z</time></trkpt><trkpt lat="37.19427457454902" lon="14.908120269022797"><ele>298.0</ele><time>2026-04-06T12:20:24Z</time></trkpt><trkpt lat="37.19419897254106" lon="14.908320689445283"><ele>298.0</ele><time>2026-04-06T12:20:25Z</time></trkpt><trkpt lat="37.19411234995448" lon="14.90853298566229"><ele>298.0</ele><time>2026-04-06T12:20:26Z</time></trkpt><trkpt lat="37.194027514728546" lon="14.908742522690073"><ele>298.66666666666663</ele><time>2026-04-06T12:20:27Z</time></trkpt><trkpt lat="37.19395428163353" lon="14.90894413114132"><ele>299.3333333333333</ele><time>2026-04-06T12:20:28Z</time></trkpt><trkpt lat="37.19391835318006" lon="14.909171023152505"><ele>300.0</ele><time>2026-04-06T12:20:29Z</time></trkpt><trkpt lat="37.19388380248863" lon="14.90938617000511"><ele>300.75</ele><time>2026-04-06T12:20:30Z</time></trkpt><trkpt lat="37.19384091056356" lon="14.909579899462333"><ele>301.5</ele><time>2026-04-06T12:20:31Z</time></trkpt><trkpt lat="37.19381369150006" lon="14.909747000488446"><ele>302.25</ele><time>2026-04-06T12:20:32Z</time></trkpt><trkpt lat="37.19380635782242" lon="14.909883409631671"><ele>303.0</ele><time>2026-04-06T12:20:33Z</time></trkpt><trkpt lat="37.19377649788451" lon="14.909991312711158"><ele>303.75</ele><time>2026-04-06T12:20:34Z</time></trkpt><trkpt lat="37.193737653845574" lon="14.910114213326384"><ele>304.5</ele><time>2026-04-06T12:20:35Z</time></trkpt><trkpt lat="37.193688912836436" lon="14.910250032884061"><ele>305.25</ele><time>2026-04-06T12:20:36Z</time></trkpt><trkpt lat="37.193607291123584" lon="14.910381571123581"><ele>306.0</ele><time>2026-04-06T12:20:37Z</time></trkpt><trkpt lat="37.19353251503571" lon="14.910527763907018"><ele>306.0</ele><time>2026-04-06T12:20:38Z</time></trkpt><trkpt lat="37.1934584598456" lon="14.910688059474873"><ele>306.0</ele><time>2026-04-06T12:20:39Z</time></trkpt><trkpt lat="37.19335386949656" lon="14.910826167381032"><ele>306.0</ele><time>2026-04-06T12:20:40Z</time></trkpt><trkpt lat="37.19322770303429" lon="14.910943022799106"><ele>307.0</ele><time>2026-04-06T12:20:41Z</time></trkpt><trkpt lat="37.19307570700611" lon="14.91101669780296"><ele>308.0</ele><time>2026-04-06T12:20:42Z</time></trkpt><trkpt lat="37.192915189161" lon="14.911102933894384"><ele>309.0</ele><time>2026-04-06T12:20:42.999Z</time></trkpt><trkpt lat="37.192754677072394" lon="14.911206495283547"><ele>309.0</ele><time>2026-04-06T12:20:43.999Z</time></trkpt><trkpt lat="37.192581793183265" lon="14.91128631510967"><ele>309.0</ele><time>2026-04-06T12:20:44.999Z</time></trkpt><trkpt lat="37.19241249797929" lon="14.911368170936072"><ele>309.0</ele><time>2026-04-06T12:20:45.999Z</time></trkpt><trkpt lat="37.19223465847583" lon="14.911458695555796"><ele>309.6666666666667</ele><time>2026-04-06T12:20:46.999Z</time></trkpt><trkpt lat="37.192038877654724" lon="14.911532001337067"><ele>310.33333333333337</ele><time>2026-04-06T12:20:47.999Z</time></trkpt><trkpt lat="37.19184436891725" lon="14.911626807024808"><ele>311.0</ele><time>2026-04-06T12:20:48.999Z</time></trkpt><trkpt lat="37.1916503064639" lon="14.911741834095016"><ele>312.6666666666667</ele><time>2026-04-06T12:20:49.999Z</time></trkpt><trkpt lat="37.19144835684946" lon="14.911839775458704"><ele>314.3333333333333</ele><time>2026-04-06T12:20:50.999Z</time></trkpt><trkpt lat="37.191241589295494" lon="14.911938740134444"><ele>316.0</ele><time>2026-04-06T12:20:51.999Z</time></trkpt><trkpt lat="37.19104324394557" lon="14.912034156848694"><ele>316.0</ele><time>2026-04-06T12:20:52.999Z</time></trkpt><trkpt lat="37.19083000622864" lon="14.912119786651383"><ele>316.0</ele><time>2026-04-06T12:20:53.999Z</time></trkpt><trkpt lat="37.190617841683924" lon="14.912222952205507"><ele>317.5</ele><time>2026-04-06T12:20:54.999Z</time></trkpt><trkpt lat="37.19040171446796" lon="14.912327763664146"><ele>319.0</ele><time>2026-04-06T12:20:56Z</time></trkpt><trkpt lat="37.190184757594224" lon="14.91243291868525"><ele>319.0</ele><time>2026-04-06T12:20:57Z</time></trkpt><trkpt lat="37.18996750800364" lon="14.91253642377684"><ele>319.0</ele><time>2026-04-06T12:20:58Z</time></trkpt><trkpt lat="37.18975066798125" lon="14.912634578029389"><ele>320.0</ele><time>2026-04-06T12:20:59Z</time></trkpt><trkpt lat="37.18954024678204" lon="14.912748216396883"><ele>321.0</ele><time>2026-04-06T12:21:00Z</time></trkpt><trkpt lat="37.18932827619451" lon="14.912817106408822"><ele>322.0</ele><time>2026-04-06T12:21:01Z</time></trkpt><trkpt lat="37.1891360018396" lon="14.912919257688259"><ele>323.0</ele><time>2026-04-06T12:21:02Z</time></trkpt><trkpt lat="37.18894971361982" lon="14.912997628860868"><ele>324.0</ele><time>2026-04-06T12:21:03Z</time></trkpt><trkpt lat="37.18877150602514" lon="14.913050530781641"><ele>325.0</ele><time>2026-04-06T12:21:04Z</time></trkpt><trkpt lat="37.188613331635636" lon="14.913115228218246"><ele>325.0</ele><time>2026-04-06T12:21:05Z</time></trkpt><trkpt lat="37.18846567918198" lon="14.913179890934417"><ele>325.0</ele><time>2026-04-06T12:21:06Z</time></trkpt><trkpt lat="37.188333092154664" lon="14.913254872473278"><ele>325.0</ele><time>2026-04-06T12:21:07Z</time></trkpt><trkpt lat="37.1882154792667" lon="14.913291281694555"><ele>325.0</ele><time>2026-04-06T12:21:08Z</time></trkpt><trkpt lat="37.18809794409869" lon="14.913304800740402"><ele>325.75</ele><time>2026-04-06T12:21:09Z</time></trkpt><trkpt lat="37.1879721075358" lon="14.91329772815881"><ele>326.5</ele><time>2026-04-06T12:21:10Z</time></trkpt><trkpt lat="37.18783984242413" lon="14.913268839061288"><ele>327.25</ele><time>2026-04-06T12:21:11Z</time></trkpt><trkpt lat="37.1877124072375" lon="14.91322571464335"><ele>328.0</ele><time>2026-04-06T12:21:12Z</time></trkpt><trkpt lat="37.18759219288362" lon="14.913159519482686"><ele>328.0</ele><time>2026-04-06T12:21:13Z</time></trkpt><trkpt lat="37.18747781859409" lon="14.913063624659413"><ele>328.0</ele><time>2026-04-06T12:21:14Z</time></trkpt><trkpt lat="37.18737490775715" lon="14.91294972408449"><ele>328.0</ele><time>2026-04-06T12:21:15Z</time></trkpt><trkpt lat="37.18728916244869" lon="14.912813908053048"><ele>328.0</ele><time>2026-04-06T12:21:16Z</time></trkpt><trkpt lat="37.18720324558889" lon="14.912660855869252"><ele>330.3333333333333</ele><time>2026-04-06T12:21:17Z</time></trkpt><trkpt lat="37.18711595007359" lon="14.912496747627817"><ele>332.6666666666667</ele><time>2026-04-06T12:21:18Z</time></trkpt><trkpt lat="37.18703763910523" lon="14.912324430237657"><ele>335.0</ele><time>2026-04-06T12:21:19Z</time></trkpt><trkpt lat="37.18697417853975" lon="14.912154316810247"><ele>335.0</ele><time>2026-04-06T12:21:20Z</time></trkpt><trkpt lat="37.18692684908781" lon="14.911980101934423"><ele>335.0</ele><time>2026-04-06T12:21:21Z</time></trkpt><trkpt lat="37.18689884228935" lon="14.911789858078494"><ele>335.0</ele><time>2026-04-06T12:21:22Z</time></trkpt><trkpt lat="37.18689513424832" lon="14.911589584772067"><ele>335.0</ele><time>2026-04-06T12:21:23Z</time></trkpt><trkpt lat="37.1868944704497" lon="14.911407532115346"><ele>335.0</ele><time>2026-04-06T12:21:24Z</time></trkpt><trkpt lat="37.18688930085217" lon="14.911241227892145"><ele>335.0</ele><time>2026-04-06T12:21:25Z</time></trkpt><trkpt lat="37.18684877659496" lon="14.911097672505242"><ele>335.0</ele><time>2026-04-06T12:21:26Z</time></trkpt><trkpt lat="37.18678118268053" lon="14.910975016088965"><ele>335.0</ele><time>2026-04-06T12:21:27Z</time></trkpt><trkpt lat="37.18668810553717" lon="14.910892569879238"><ele>335.0</ele><time>2026-04-06T12:21:28Z</time></trkpt><trkpt lat="37.1865741915407" lon="14.910852143823078"><ele>335.0</ele><time>2026-04-06T12:21:29Z</time></trkpt><trkpt lat="37.18644385070989" lon="14.910837090180273"><ele>335.0</ele><time>2026-04-06T12:21:30Z</time></trkpt><trkpt lat="37.18630392938681" lon="14.910823181833706"><ele>336.5</ele><time>2026-04-06T12:21:31Z</time></trkpt><trkpt lat="37.18616085438251" lon="14.910778498673439"><ele>338.0</ele><time>2026-04-06T12:21:32Z</time></trkpt><trkpt lat="37.186024559327336" lon="14.910699981101356"><ele>339.5</ele><time>2026-04-06T12:21:33Z</time></trkpt><trkpt lat="37.18590290087417" lon="14.910597439237298"><ele>341.0</ele><time>2026-04-06T12:21:34Z</time></trkpt><trkpt lat="37.18577991021008" lon="14.910509325394822"><ele>343.0</ele><time>2026-04-06T12:21:35Z</time></trkpt><trkpt lat="37.18564282074265" lon="14.910461100674162"><ele>345.0</ele><time>2026-04-06T12:21:36Z</time></trkpt><trkpt lat="37.18550166476399" lon="14.910453736243422"><ele>347.0</ele><time>2026-04-06T12:21:37Z</time></trkpt><trkpt lat="37.185379344437635" lon="14.910484391776745"><ele>349.0</ele><time>2026-04-06T12:21:38Z</time></trkpt><trkpt lat="37.18527921935221" lon="14.910525088423366"><ele>349.0</ele><time>2026-04-06T12:21:39Z</time></trkpt><trkpt lat="37.185208914840594" lon="14.910628819076283"><ele>349.0</ele><time>2026-04-06T12:21:40Z</time></trkpt><trkpt lat="37.18517067939103" lon="14.910767207373867"><ele>349.0</ele><time>2026-04-06T12:21:41Z</time></trkpt><trkpt lat="37.18517676008682" lon="14.910923440863272"><ele>349.0</ele><time>2026-04-06T12:21:42Z</time></trkpt><trkpt lat="37.18518469234271" lon="14.911086645659138"><ele>349.75</ele><time>2026-04-06T12:21:43Z</time></trkpt><trkpt lat="37.185175769449245" lon="14.911264309127224"><ele>350.5</ele><time>2026-04-06T12:21:44Z</time></trkpt><trkpt lat="37.18518770368317" lon="14.91145320465429"><ele>351.25</ele><time>2026-04-06T12:21:45Z</time></trkpt><trkpt lat="37.185199025891826" lon="14.911630789904477"><ele>352.0</ele><time>2026-04-06T12:21:46Z</time></trkpt><trkpt lat="37.185210634647675" lon="14.911812869565798"><ele>352.75</ele><time>2026-04-06T12:21:47Z</time></trkpt><trkpt lat="37.18522252213771" lon="14.91199932107258"><ele>353.5</ele><time>2026-04-06T12:21:48Z</time></trkpt><trkpt lat="37.1852336238463" lon="14.912181245376306"><ele>354.25</ele><time>2026-04-06T12:21:49Z</time></trkpt><trkpt lat="37.18524013142253" lon="14.912339108578857"><ele>355.0</ele><time>2026-04-06T12:21:50Z</time></trkpt><trkpt lat="37.18523450306057" lon="14.912470769506013"><ele>354.8</ele><time>2026-04-06T12:21:51Z</time></trkpt><trkpt lat="37.18519861236194" lon="14.91257874383453"><ele>354.6</ele><time>2026-04-06T12:21:52Z</time></trkpt><trkpt lat="37.18513940107472" lon="14.912670683738414"><ele>354.4</ele><time>2026-04-06T12:21:53Z</time></trkpt><trkpt lat="37.18505559767553" lon="14.91274773872417"><ele>354.2</ele><time>2026-04-06T12:21:54Z</time></trkpt><trkpt lat="37.18496125185595" lon="14.912849859662291"><ele>354.0</ele><time>2026-04-06T12:21:55Z</time></trkpt><trkpt lat="37.18484384556498" lon="14.9129305160158"><ele>355.25</ele><time>2026-04-06T12:21:56Z</time></trkpt><trkpt lat="37.18474676606397" lon="14.913066470941976"><ele>356.5</ele><time>2026-04-06T12:21:57Z</time></trkpt><trkpt lat="37.184679636844685" lon="14.913223394231167"><ele>357.75</ele><time>2026-04-06T12:21:58Z</time></trkpt><trkpt lat="37.184621225759614" lon="14.913405552183532"><ele>359.0</ele><time>2026-04-06T12:21:59Z</time></trkpt><trkpt lat="37.18456484467839" lon="14.913597207682225"><ele>360.6666666666667</ele><time>2026-04-06T12:22:00Z</time></trkpt><trkpt lat="37.18451343763465" lon="14.913793919383162"><ele>362.3333333333333</ele><time>2026-04-06T12:22:01Z</time></trkpt><trkpt lat="37.184465031141144" lon="14.9139989531425"><ele>364.0</ele><time>2026-04-06T12:22:02Z</time></trkpt><trkpt lat="37.18442123418971" lon="14.914217379164366"><ele>364.0</ele><time>2026-04-06T12:22:03Z</time></trkpt><trkpt lat="37.184388993633476" lon="14.914431668211826"><ele>364.0</ele><time>2026-04-06T12:22:04Z</time></trkpt><trkpt lat="37.18436767842236" lon="14.914625144123042"><ele>364.0</ele><time>2026-04-06T12:22:05Z</time></trkpt><trkpt lat="37.18434806601574" lon="14.914807319273331"><ele>364.0</ele><time>2026-04-06T12:22:06Z</time></trkpt><trkpt lat="37.18431252526583" lon="14.914980859429583"><ele>364.0</ele><time>2026-04-06T12:22:07Z</time></trkpt><trkpt lat="37.18425682805686" lon="14.915138376219813"><ele>364.0</ele><time>2026-04-06T12:22:08Z</time></trkpt><trkpt lat="37.184182586595746" lon="14.915280802058728"><ele>364.0</ele><time>2026-04-06T12:22:09Z</time></trkpt><trkpt lat="37.184098046596894" lon="14.915413767837132"><ele>365.25</ele><time>2026-04-06T12:22:10Z</time></trkpt><trkpt lat="37.18401026419982" lon="14.915536581507602"><ele>366.5</ele><time>2026-04-06T12:22:11Z</time></trkpt><trkpt lat="37.18390039103483" lon="14.915606942132644"><ele>367.75</ele><time>2026-04-06T12:22:12Z</time></trkpt><trkpt lat="37.183770229697195" lon="14.915649101265354"><ele>369.0</ele><time>2026-04-06T12:22:13Z</time></trkpt><trkpt lat="37.18362520054779" lon="14.91568227187412"><ele>369.0</ele><time>2026-04-06T12:22:14Z</time></trkpt><trkpt lat="37.18347204863161" lon="14.915693735297388"><ele>369.0</ele><time>2026-04-06T12:22:15Z</time></trkpt><trkpt lat="37.18332875903695" lon="14.915757122865344"><ele>369.0</ele><time>2026-04-06T12:22:16Z</time></trkpt><trkpt lat="37.18318542780427" lon="14.915805286058974"><ele>370.75</ele><time>2026-04-06T12:22:17Z</time></trkpt><trkpt lat="37.183045259230774" lon="14.91585265047674"><ele>372.5</ele><time>2026-04-06T12:22:18Z</time></trkpt><trkpt lat="37.18291806797345" lon="14.915881501238445"><ele>374.25</ele><time>2026-04-06T12:22:19Z</time></trkpt><trkpt lat="37.18279249343435" lon="14.91588699110708"><ele>376.0</ele><time>2026-04-06T12:22:20Z</time></trkpt><trkpt lat="37.18265714156108" lon="14.915864174278004"><ele>376.0</ele><time>2026-04-06T12:22:21Z</time></trkpt><trkpt lat="37.18251105247664" lon="14.915818930095865"><ele>376.0</ele><time>2026-04-06T12:22:22Z</time></trkpt><trkpt lat="37.18236329863156" lon="14.915769087929617"><ele>376.0</ele><time>2026-04-06T12:22:23Z</time></trkpt><trkpt lat="37.18222739829228" lon="14.915721191392945"><ele>376.0</ele><time>2026-04-06T12:22:24Z</time></trkpt><trkpt lat="37.18209463662017" lon="14.91565370211928"><ele>374.0</ele><time>2026-04-06T12:22:25Z</time></trkpt><trkpt lat="37.181972011709114" lon="14.915568706494488"><ele>372.0</ele><time>2026-04-06T12:22:26Z</time></trkpt><trkpt lat="37.18183511007979" lon="14.915493472429876"><ele>370.0</ele><time>2026-04-06T12:22:27Z</time></trkpt><trkpt lat="37.181671676760494" lon="14.915454299060581"><ele>371.66666666666663</ele><time>2026-04-06T12:22:28Z</time></trkpt><trkpt lat="37.181500781391236" lon="14.915436873086179"><ele>373.3333333333333</ele><time>2026-04-06T12:22:29Z</time></trkpt><trkpt lat="37.181323407785584" lon="14.91543217348306"><ele>375.0</ele><time>2026-04-06T12:22:30Z</time></trkpt><trkpt lat="37.181146533567336" lon="14.915438335696052"><ele>375.0</ele><time>2026-04-06T12:22:31Z</time></trkpt><trkpt lat="37.180981251098274" lon="14.915451984587401"><ele>375.0</ele><time>2026-04-06T12:22:32Z</time></trkpt><trkpt lat="37.18083025157765" lon="14.915446078784685"><ele>375.0</ele><time>2026-04-06T12:22:33Z</time></trkpt><trkpt lat="37.18069168753493" lon="14.915474112764558"><ele>377.75</ele><time>2026-04-06T12:22:34Z</time></trkpt><trkpt lat="37.18055523388491" lon="14.915547919085684"><ele>380.5</ele><time>2026-04-06T12:22:35Z</time></trkpt><trkpt lat="37.18042070335367" lon="14.915642615007767"><ele>383.25</ele><time>2026-04-06T12:22:36Z</time></trkpt><trkpt lat="37.18030080973492" lon="14.915729236268627"><ele>386.0</ele><time>2026-04-06T12:22:37Z</time></trkpt><trkpt lat="37.18019957193753" lon="14.915794576111821"><ele>386.0</ele><time>2026-04-06T12:22:38Z</time></trkpt><trkpt lat="37.180109109545455" lon="14.915835305855854"><ele>386.0</ele><time>2026-04-06T12:22:39Z</time></trkpt><trkpt lat="37.18000987084948" lon="14.91587342265149"><ele>386.0</ele><time>2026-04-06T12:22:40Z</time></trkpt><trkpt lat="37.17988535123885" lon="14.915845625311366"><ele>386.0</ele><time>2026-04-06T12:22:41Z</time></trkpt><trkpt lat="37.17974536891255" lon="14.915826217381529"><ele>387.75</ele><time>2026-04-06T12:22:42Z</time></trkpt><trkpt lat="37.17960382271948" lon="14.915833189686374"><ele>389.5</ele><time>2026-04-06T12:22:43Z</time></trkpt><trkpt lat="37.17948257988635" lon="14.915868295641937"><ele>391.25</ele><time>2026-04-06T12:22:44Z</time></trkpt><trkpt lat="37.17937600851461" lon="14.91591499508799"><ele>393.0</ele><time>2026-04-06T12:22:45Z</time></trkpt><trkpt lat="37.17926205156218" lon="14.915905389873258"><ele>393.0</ele><time>2026-04-06T12:22:46Z</time></trkpt><trkpt lat="37.179143999822976" lon="14.915910259751062"><ele>393.0</ele><time>2026-04-06T12:22:47Z</time></trkpt><trkpt lat="37.17901998548906" lon="14.915878872996469"><ele>393.0</ele><time>2026-04-06T12:22:48Z</time></trkpt><trkpt lat="37.17888947145428" lon="14.91584474656206"><ele>393.0</ele><time>2026-04-06T12:22:49Z</time></trkpt><trkpt lat="37.178768609070914" lon="14.9157841513032"><ele>392.0</ele><time>2026-04-06T12:22:50Z</time></trkpt><trkpt lat="37.1786545231795" lon="14.915762025532525"><ele>391.0</ele><time>2026-04-06T12:22:51Z</time></trkpt><trkpt lat="37.178556622442805" lon="14.915721938572636"><ele>390.0</ele><time>2026-04-06T12:22:52Z</time></trkpt><trkpt lat="37.178465875483795" lon="14.915668874882638"><ele>389.0</ele><time>2026-04-06T12:22:53Z</time></trkpt><trkpt lat="37.17838325719155" lon="14.915586309948091"><ele>388.0</ele><time>2026-04-06T12:22:54Z</time></trkpt><trkpt lat="37.17830837063351" lon="14.915476600299716"><ele>388.0</ele><time>2026-04-06T12:22:55Z</time></trkpt><trkpt lat="37.178239067350766" lon="14.915341322938154"><ele>388.0</ele><time>2026-04-06T12:22:55.999Z</time></trkpt><trkpt lat="37.17816960492168" lon="14.915193209383775"><ele>388.0</ele><time>2026-04-06T12:22:56.999Z</time></trkpt><trkpt lat="37.17810159756696" lon="14.915048606508112"><ele>388.0</ele><time>2026-04-06T12:22:57.999Z</time></trkpt><trkpt lat="37.178036598872076" lon="14.914933002610837"><ele>389.79999999999995</ele><time>2026-04-06T12:22:58.999Z</time></trkpt><trkpt lat="37.177960427136775" lon="14.914837406935375"><ele>391.6</ele><time>2026-04-06T12:22:59.999Z</time></trkpt><trkpt lat="37.17787341395834" lon="14.914767741422502"><ele>393.4</ele><time>2026-04-06T12:23:00.999Z</time></trkpt><trkpt lat="37.177777684766426" lon="14.914742046187012"><ele>395.20000000000005</ele><time>2026-04-06T12:23:02Z</time></trkpt><trkpt lat="37.17767203957276" lon="14.914755918554471"><ele>397.0</ele><time>2026-04-06T12:23:03Z</time></trkpt><trkpt lat="37.177555601850656" lon="14.914799567665874"><ele>397.0</ele><time>2026-04-06T12:23:04Z</time></trkpt><trkpt lat="37.17745585259879" lon="14.914882898524281"><ele>397.0</ele><time>2026-04-06T12:23:05Z</time></trkpt><trkpt lat="37.17737190122239" lon="14.914958163059202"><ele>397.0</ele><time>2026-04-06T12:23:06Z</time></trkpt><trkpt lat="37.17729769143025" lon="14.915023930887374"><ele>397.0</ele><time>2026-04-06T12:23:07Z</time></trkpt><trkpt lat="37.17722482033766" lon="14.915071178060513"><ele>397.0</ele><time>2026-04-06T12:23:08Z</time></trkpt><trkpt lat="37.17714616241612" lon="14.915116204426308"><ele>397.8</ele><time>2026-04-06T12:23:09Z</time></trkpt><trkpt lat="37.177055308264826" lon="14.91512484615551"><ele>398.6</ele><time>2026-04-06T12:23:10Z</time></trkpt><trkpt lat="37.1769577404175" lon="14.915114830487212"><ele>399.40000000000003</ele><time>2026-04-06T12:23:11Z</time></trkpt><trkpt lat="37.176853981453654" lon="14.915094393790522"><ele>400.20000000000005</ele><time>2026-04-06T12:23:12Z</time></trkpt><trkpt lat="37.17674688924717" lon="14.915068764457233"><ele>401.0</ele><time>2026-04-06T12:23:13Z</time></trkpt><trkpt lat="37.17664644144738" lon="14.91503128245098"><ele>401.0</ele><time>2026-04-06T12:23:14Z</time></trkpt><trkpt lat="37.176552739084734" lon="14.914978899108648"><ele>401.0</ele><time>2026-04-06T12:23:15Z</time></trkpt><trkpt lat="37.17645273135049" lon="14.91491187855924"><ele>401.0</ele><time>2026-04-06T12:23:16Z</time></trkpt><trkpt lat="37.17635136743666" lon="14.914830992296961"><ele>401.0</ele><time>2026-04-06T12:23:17Z</time></trkpt><trkpt lat="37.176251929357655" lon="14.91472876091741"><ele>398.5</ele><time>2026-04-06T12:23:18Z</time></trkpt><trkpt lat="37.17615602890379" lon="14.914621428907656"><ele>396.0</ele><time>2026-04-06T12:23:19Z</time></trkpt><trkpt lat="37.17607114179694" lon="14.914516719898762"><ele>393.5</ele><time>2026-04-06T12:23:20Z</time></trkpt><trkpt lat="37.175988660151006" lon="14.914400157713327"><ele>391.0</ele><time>2026-04-06T12:23:21Z</time></trkpt><trkpt lat="37.17590902411607" lon="14.914276647412237"><ele>392.5</ele><time>2026-04-06T12:23:22Z</time></trkpt><trkpt lat="37.17582664693515" lon="14.914149880159027"><ele>394.0</ele><time>2026-04-06T12:23:23Z</time></trkpt><trkpt lat="37.17574455341684" lon="14.914021169047233"><ele>395.5</ele><time>2026-04-06T12:23:24Z</time></trkpt><trkpt lat="37.175656824187044" lon="14.91389334687684"><ele>397.0</ele><time>2026-04-06T12:23:25Z</time></trkpt><trkpt lat="37.175559802488976" lon="14.913773030492894"><ele>397.0</ele><time>2026-04-06T12:23:26Z</time></trkpt><trkpt lat="37.17545183250064" lon="14.913661626668784"><ele>397.0</ele><time>2026-04-06T12:23:27Z</time></trkpt><trkpt lat="37.17534567614554" lon="14.913545510248076"><ele>397.0</ele><time>2026-04-06T12:23:28Z</time></trkpt><trkpt lat="37.17524627128878" lon="14.913433094508772"><ele>397.0</ele><time>2026-04-06T12:23:29Z</time></trkpt><trkpt lat="37.175157025613885" lon="14.913328219480686"><ele>397.5</ele><time>2026-04-06T12:23:30Z</time></trkpt><trkpt lat="37.1750721808165" lon="14.913233550400097"><ele>398.0</ele><time>2026-04-06T12:23:31Z</time></trkpt><trkpt lat="37.17497804922387" lon="14.91315594972641"><ele>398.5</ele><time>2026-04-06T12:23:32Z</time></trkpt><trkpt lat="37.17487741292925" lon="14.91309094067918"><ele>399.0</ele><time>2026-04-06T12:23:33Z</time></trkpt><trkpt lat="37.17476391544014" lon="14.913046773830755"><ele>399.0</ele><time>2026-04-06T12:23:34Z</time></trkpt><trkpt lat="37.17464698377572" lon="14.912997125405214"><ele>399.0</ele><time>2026-04-06T12:23:35Z</time></trkpt><trkpt lat="37.17453186355266" lon="14.912937564188635"><ele>399.0</ele><time>2026-04-06T12:23:36Z</time></trkpt><trkpt lat="37.174427051075284" lon="14.912871361522603"><ele>399.0</ele><time>2026-04-06T12:23:37Z</time></trkpt><trkpt lat="37.17433672003762" lon="14.912798818391359"><ele>399.0</ele><time>2026-04-06T12:23:38Z</time></trkpt><trkpt lat="37.17425620906924" lon="14.912706514734776"><ele>399.0</ele><time>2026-04-06T12:23:39Z</time></trkpt><trkpt lat="37.17419425462723" lon="14.9125989751276"><ele>399.0</ele><time>2026-04-06T12:23:40Z</time></trkpt><trkpt lat="37.17414295504954" lon="14.91246153364163"><ele>399.0</ele><time>2026-04-06T12:23:41Z</time></trkpt><trkpt lat="37.174084630085915" lon="14.912340650040692"><ele>399.0</ele><time>2026-04-06T12:23:42Z</time></trkpt><trkpt lat="37.174020750930445" lon="14.912231347718658"><ele>400.6</ele><time>2026-04-06T12:23:43Z</time></trkpt><trkpt lat="37.173903077694014" lon="14.912193127499187"><ele>402.2</ele><time>2026-04-06T12:23:44Z</time></trkpt><trkpt lat="37.17380309479404" lon="14.912150538645658"><ele>403.8</ele><time>2026-04-06T12:23:45Z</time></trkpt><trkpt lat="37.17369481426235" lon="14.912152955717264"><ele>405.40000000000003</ele><time>2026-04-06T12:23:46Z</time></trkpt><trkpt lat="37.17358924061335" lon="14.912164524077596"><ele>407.0</ele><time>2026-04-06T12:23:47Z</time></trkpt><trkpt lat="37.17349379715125" lon="14.912168570053993"><ele>407.0</ele><time>2026-04-06T12:23:48Z</time></trkpt><trkpt lat="37.17339720800009" lon="14.912171322299118"><ele>407.0</ele><time>2026-04-06T12:23:49Z</time></trkpt><trkpt lat="37.17329052076079" lon="14.912132544490847"><ele>407.0</ele><time>2026-04-06T12:23:50Z</time></trkpt><trkpt lat="37.173175805263725" lon="14.912063941474978"><ele>407.0</ele><time>2026-04-06T12:23:51Z</time></trkpt><trkpt lat="37.173059057157815" lon="14.911976885624256"><ele>405.5</ele><time>2026-04-06T12:23:52Z</time></trkpt><trkpt lat="37.17294393880982" lon="14.911890302781213"><ele>404.0</ele><time>2026-04-06T12:23:53Z</time></trkpt><trkpt lat="37.17282104214631" lon="14.911817216723149"><ele>402.5</ele><time>2026-04-06T12:23:54Z</time></trkpt><trkpt lat="37.17268225354674" lon="14.911749385597698"><ele>401.0</ele><time>2026-04-06T12:23:55Z</time></trkpt><trkpt lat="37.172537958473" lon="14.91168016554823"><ele>408.3333333333333</ele><time>2026-04-06T12:23:56Z</time></trkpt><trkpt lat="37.172389816444436" lon="14.911610786904307"><ele>415.66666666666663</ele><time>2026-04-06T12:23:57Z</time></trkpt><trkpt lat="37.172240119177474" lon="14.911537118013312"><ele>423.0</ele><time>2026-04-06T12:23:58Z</time></trkpt><trkpt lat="37.17208227627167" lon="14.911463608624956"><ele>423.0</ele><time>2026-04-06T12:23:59Z</time></trkpt><trkpt lat="37.17192038427013" lon="14.911386786091894"><ele>423.0</ele><time>2026-04-06T12:24:00Z</time></trkpt><trkpt lat="37.17174850338142" lon="14.911378527474163"><ele>423.0</ele><time>2026-04-06T12:24:01Z</time></trkpt><trkpt lat="37.17159259582012" lon="14.911352239940554"><ele>422.5</ele><time>2026-04-06T12:24:02Z</time></trkpt><trkpt lat="37.171450946002544" lon="14.91130586282604"><ele>422.0</ele><time>2026-04-06T12:24:03Z</time></trkpt><trkpt lat="37.171311886135086" lon="14.911302070099046"><ele>421.5</ele><time>2026-04-06T12:24:04Z</time></trkpt><trkpt lat="37.17118714780668" lon="14.911327122089084"><ele>421.0</ele><time>2026-04-06T12:24:05Z</time></trkpt><trkpt lat="37.171065531521776" lon="14.911330573973054"><ele>421.0</ele><time>2026-04-06T12:24:06Z</time></trkpt><trkpt lat="37.170938348283265" lon="14.91130993246613"><ele>421.0</ele><time>2026-04-06T12:24:07Z</time></trkpt><trkpt lat="37.170801799359026" lon="14.911258233237124"><ele>421.0</ele><time>2026-04-06T12:24:08Z</time></trkpt><trkpt lat="37.17065963701715" lon="14.911194536607537"><ele>421.0</ele><time>2026-04-06T12:24:09Z</time></trkpt><trkpt lat="37.170516643527456" lon="14.911122201504497"><ele>420.25</ele><time>2026-04-06T12:24:10Z</time></trkpt><trkpt lat="37.170382218731426" lon="14.911043431260639"><ele>419.5</ele><time>2026-04-06T12:24:11Z</time></trkpt><trkpt lat="37.17025410909238" lon="14.910967943859742"><ele>418.75</ele><time>2026-04-06T12:24:12Z</time></trkpt><trkpt lat="37.170132669512796" lon="14.910893583981714"><ele>418.0</ele><time>2026-04-06T12:24:13Z</time></trkpt><trkpt lat="37.17000975380276" lon="14.910824752139552"><ele>423.5</ele><time>2026-04-06T12:24:14Z</time></trkpt><trkpt lat="37.169884663808176" lon="14.910750409836123"><ele>429.0</ele><time>2026-04-06T12:24:15Z</time></trkpt><trkpt lat="37.16977703159322" lon="14.910666374041348"><ele>434.5</ele><time>2026-04-06T12:24:16Z</time></trkpt><trkpt lat="37.16968069126373" lon="14.910580181156922"><ele>440.0</ele><time>2026-04-06T12:24:17Z</time></trkpt><trkpt lat="37.16960023008515" lon="14.910486081460737"><ele>440.2</ele><time>2026-04-06T12:24:18Z</time></trkpt><trkpt lat="37.16952687231284" lon="14.910406546471743"><ele>440.4</ele><time>2026-04-06T12:24:19Z</time></trkpt><trkpt lat="37.16944636872592" lon="14.910362507033724"><ele>440.6</ele><time>2026-04-06T12:24:20Z</time></trkpt><trkpt lat="37.16937173393357" lon="14.910329069099925"><ele>440.8</ele><time>2026-04-06T12:24:21Z</time></trkpt><trkpt lat="37.16928334839835" lon="14.910379810149063"><ele>441.0</ele><time>2026-04-06T12:24:22Z</time></trkpt><trkpt lat="37.1692457647764" lon="14.910502227231872"><ele>441.0</ele><time>2026-04-06T12:24:23Z</time></trkpt><trkpt lat="37.16917539414314" lon="14.910586873069828"><ele>441.0</ele><time>2026-04-06T12:24:24Z</time></trkpt><trkpt lat="37.169116317019686" lon="14.910686719857486"><ele>441.0</ele><time>2026-04-06T12:24:25Z</time></trkpt><trkpt lat="37.169032418648825" lon="14.910729963006412"><ele>441.0</ele><time>2026-04-06T12:24:26Z</time></trkpt><trkpt lat="37.16893438871051" lon="14.910735493345678"><ele>441.0</ele><time>2026-04-06T12:24:27Z</time></trkpt><trkpt lat="37.16882844681313" lon="14.910693515315266"><ele>441.0</ele><time>2026-04-06T12:24:28Z</time></trkpt><trkpt lat="37.16872285684181" lon="14.910603868611265"><ele>441.0</ele><time>2026-04-06T12:24:29Z</time></trkpt><trkpt lat="37.168612402900685" lon="14.910498111278262"><ele>441.0</ele><time>2026-04-06T12:24:30Z</time></trkpt><trkpt lat="37.16849597110582" lon="14.91039071425583"><ele>441.0</ele><time>2026-04-06T12:24:31Z</time></trkpt><trkpt lat="37.16837790388806" lon="14.91029208758457"><ele>441.0</ele><time>2026-04-06T12:24:32Z</time></trkpt><trkpt lat="37.16825349304148" lon="14.910206917536154"><ele>441.0</ele><time>2026-04-06T12:24:33Z</time></trkpt><trkpt lat="37.16813149440158" lon="14.910160122243258"><ele>441.0</ele><time>2026-04-06T12:24:34Z</time></trkpt><trkpt lat="37.16801964723932" lon="14.910125118622952"><ele>441.0</ele><time>2026-04-06T12:24:35Z</time></trkpt><trkpt lat="37.16792564112839" lon="14.910130016198384"><ele>442.4</ele><time>2026-04-06T12:24:36Z</time></trkpt><trkpt lat="37.16783989338523" lon="14.910188075123564"><ele>443.8</ele><time>2026-04-06T12:24:37Z</time></trkpt><trkpt lat="37.167767408780755" lon="14.910277773722898"><ele>445.19999999999993</ele><time>2026-04-06T12:24:38Z</time></trkpt><trkpt lat="37.16769466491199" lon="14.910357342905682"><ele>446.59999999999997</ele><time>2026-04-06T12:24:39Z</time></trkpt><trkpt lat="37.167619300767704" lon="14.910419006711447"><ele>448.0</ele><time>2026-04-06T12:24:40Z</time></trkpt><trkpt lat="37.1675282379339" lon="14.910466001579962"><ele>448.0</ele><time>2026-04-06T12:24:41Z</time></trkpt><trkpt lat="37.1674204000474" lon="14.910474518898631"><ele>447.99999999999994</ele><time>2026-04-06T12:24:42Z</time></trkpt><trkpt lat="37.16731850130682" lon="14.910458486586863"><ele>447.99999999999994</ele><time>2026-04-06T12:24:43Z</time></trkpt><trkpt lat="37.16721391621025" lon="14.91040655830829"><ele>448.0</ele><time>2026-04-06T12:24:44Z</time></trkpt><trkpt lat="37.16710300502014" lon="14.910337836713206"><ele>448.0</ele><time>2026-04-06T12:24:45Z</time></trkpt><trkpt lat="37.1669835063081" lon="14.91028339170084"><ele>448.75</ele><time>2026-04-06T12:24:46Z</time></trkpt><trkpt lat="37.16685408135171" lon="14.91024101280656"><ele>449.5</ele><time>2026-04-06T12:24:47Z</time></trkpt><trkpt lat="37.166723533239164" lon="14.910201412988318"><ele>450.25</ele><time>2026-04-06T12:24:48Z</time></trkpt><trkpt lat="37.166603834378094" lon="14.910136125630792"><ele>451.0</ele><time>2026-04-06T12:24:49Z</time></trkpt><trkpt lat="37.166499005540345" lon="14.91005550664737"><ele>454.0</ele><time>2026-04-06T12:24:50Z</time></trkpt><trkpt lat="37.16639854277829" lon="14.909999720296907"><ele>457.0</ele><time>2026-04-06T12:24:51Z</time></trkpt><trkpt lat="37.16629172593781" lon="14.909979427288508"><ele>460.0</ele><time>2026-04-06T12:24:52Z</time></trkpt><trkpt lat="37.16616607925466" lon="14.909967024700492"><ele>463.0</ele><time>2026-04-06T12:24:53Z</time></trkpt><trkpt lat="37.16603441648198" lon="14.910017076919612"><ele>457.25</ele><time>2026-04-06T12:24:54Z</time></trkpt><trkpt lat="37.16593314609946" lon="14.9101280138594"><ele>451.5</ele><time>2026-04-06T12:24:55Z</time></trkpt><trkpt lat="37.16582696084089" lon="14.910190272013601"><ele>445.75</ele><time>2026-04-06T12:24:56Z</time></trkpt><trkpt lat="37.16573030918438" lon="14.910250102104529"><ele>440.0</ele><time>2026-04-06T12:24:57Z</time></trkpt><trkpt lat="37.16561889730604" lon="14.910302630207273"><ele>437.25</ele><time>2026-04-06T12:24:58Z</time></trkpt><trkpt lat="37.16549082051024" lon="14.910307586604427"><ele>434.5</ele><time>2026-04-06T12:24:59Z</time></trkpt><trkpt lat="37.1653587728092" lon="14.910279109045502"><ele>431.75</ele><time>2026-04-06T12:25:00Z</time></trkpt><trkpt lat="37.165224791411816" lon="14.910233078318516"><ele>429.0</ele><time>2026-04-06T12:25:01Z</time></trkpt><trkpt lat="37.165097127229714" lon="14.910183446341385"><ele>429.0</ele><time>2026-04-06T12:25:02Z</time></trkpt><trkpt lat="37.16494249963949" lon="14.910139130397535"><ele>429.0</ele><time>2026-04-06T12:25:03Z</time></trkpt><trkpt lat="37.16479125381337" lon="14.910094719031045"><ele>429.0</ele><time>2026-04-06T12:25:04Z</time></trkpt><trkpt lat="37.16465645399209" lon="14.910051947547794"><ele>436.5</ele><time>2026-04-06T12:25:05Z</time></trkpt><trkpt lat="37.16452914725317" lon="14.91000998643965"><ele>444.0</ele><time>2026-04-06T12:25:06Z</time></trkpt><trkpt lat="37.164405750288" lon="14.909948738045763"><ele>451.5</ele><time>2026-04-06T12:25:07.001Z</time></trkpt><trkpt lat="37.16427700172112" lon="14.909861551360912"><ele>459.0</ele><time>2026-04-06T12:25:08.001Z</time></trkpt><trkpt lat="37.16414692851143" lon="14.909761711350269"><ele>452.66666666666663</ele><time>2026-04-06T12:25:09.001Z</time></trkpt><trkpt lat="37.16401535054985" lon="14.909654019725979"><ele>446.3333333333333</ele><time>2026-04-06T12:25:10.001Z</time></trkpt><trkpt lat="37.16388459295023" lon="14.909541411114448"><ele>440.0</ele><time>2026-04-06T12:25:11.001Z</time></trkpt><trkpt lat="37.16375328443776" lon="14.909413943189982"><ele>440.0</ele><time>2026-04-06T12:25:12Z</time></trkpt><trkpt lat="37.16362314996676" lon="14.909268416633523"><ele>440.0</ele><time>2026-04-06T12:25:13Z</time></trkpt><trkpt lat="37.163489517387475" lon="14.909116367059223"><ele>440.0</ele><time>2026-04-06T12:25:14Z</time></trkpt><trkpt lat="37.16335263418331" lon="14.90897101517192"><ele>441.66666666666663</ele><time>2026-04-06T12:25:15Z</time></trkpt><trkpt lat="37.16321955274063" lon="14.9088367203549"><ele>443.33333333333337</ele><time>2026-04-06T12:25:16Z</time></trkpt><trkpt lat="37.163099804053516" lon="14.908715221885796"><ele>445.0</ele><time>2026-04-06T12:25:17Z</time></trkpt><trkpt lat="37.16298628831516" lon="14.908602687871106"><ele>445.0</ele><time>2026-04-06T12:25:18Z</time></trkpt><trkpt lat="37.162881477678276" lon="14.908498710509663"><ele>445.0</ele><time>2026-04-06T12:25:19Z</time></trkpt><trkpt lat="37.16278593224702" lon="14.90839821869751"><ele>445.0</ele><time>2026-04-06T12:25:20Z</time></trkpt><trkpt lat="37.16270291715881" lon="14.90828561710966"><ele>445.0</ele><time>2026-04-06T12:25:21Z</time></trkpt><trkpt lat="37.162628244116455" lon="14.908144766334932"><ele>449.6666666666667</ele><time>2026-04-06T12:25:22Z</time></trkpt><trkpt lat="37.16256122664452" lon="14.907977522520353"><ele>454.33333333333337</ele><time>2026-04-06T12:25:23Z</time></trkpt><trkpt lat="37.1625045448349" lon="14.907795579129038"><ele>459.0</ele><time>2026-04-06T12:25:24Z</time></trkpt><trkpt lat="37.16246440287888" lon="14.90759996813387"><ele>461.25</ele><time>2026-04-06T12:25:25Z</time></trkpt><trkpt lat="37.16243782426483" lon="14.907417839029279"><ele>463.5</ele><time>2026-04-06T12:25:26Z</time></trkpt><trkpt lat="37.16240557818511" lon="14.90724635289519"><ele>465.75</ele><time>2026-04-06T12:25:27Z</time></trkpt><trkpt lat="37.162345824378754" lon="14.907097357137692"><ele>468.0</ele><time>2026-04-06T12:25:28Z</time></trkpt><trkpt lat="37.162247079443" lon="14.906963378146934"><ele>466.33333333333337</ele><time>2026-04-06T12:25:29Z</time></trkpt><trkpt lat="37.162125106420355" lon="14.90683535952382"><ele>464.6666666666667</ele><time>2026-04-06T12:25:30Z</time></trkpt><trkpt lat="37.16200419020364" lon="14.906697183852854"><ele>463.0</ele><time>2026-04-06T12:25:31Z</time></trkpt><trkpt lat="37.16188780465266" lon="14.906539679115689"><ele>463.0</ele><time>2026-04-06T12:25:32Z</time></trkpt><trkpt lat="37.161786191989" lon="14.90637730933311"><ele>463.0</ele><time>2026-04-06T12:25:33Z</time></trkpt><trkpt lat="37.16168115347822" lon="14.906210402690387"><ele>463.0</ele><time>2026-04-06T12:25:34Z</time></trkpt><trkpt lat="37.16157739835908" lon="14.90604710111796"><ele>460.0</ele><time>2026-04-06T12:25:35Z</time></trkpt><trkpt lat="37.161473376685166" lon="14.90588236336289"><ele>457.0</ele><time>2026-04-06T12:25:36Z</time></trkpt><trkpt lat="37.16136462686038" lon="14.90572495223434"><ele>454.0</ele><time>2026-04-06T12:25:37Z</time></trkpt><trkpt lat="37.16125377918941" lon="14.90556430770676"><ele>454.0</ele><time>2026-04-06T12:25:38Z</time></trkpt><trkpt lat="37.161143081059194" lon="14.905409849211917"><ele>454.0</ele><time>2026-04-06T12:25:39Z</time></trkpt><trkpt lat="37.16103451407427" lon="14.905268872536325"><ele>454.0</ele><time>2026-04-06T12:25:40Z</time></trkpt><trkpt lat="37.160941800796564" lon="14.905149351645166"><ele>453.75</ele><time>2026-04-06T12:25:41Z</time></trkpt><trkpt lat="37.16085671047124" lon="14.905038547358794"><ele>453.5</ele><time>2026-04-06T12:25:42Z</time></trkpt><trkpt lat="37.160778526284645" lon="14.904935968522626"><ele>453.25</ele><time>2026-04-06T12:25:43Z</time></trkpt><trkpt lat="37.160702003067534" lon="14.90480793154919"><ele>453.0</ele><time>2026-04-06T12:25:44Z</time></trkpt><trkpt lat="37.160617089538874" lon="14.904654193673482"><ele>453.0</ele><time>2026-04-06T12:25:45Z</time></trkpt><trkpt lat="37.160526508880984" lon="14.904486821645389"><ele>453.0</ele><time>2026-04-06T12:25:46Z</time></trkpt><trkpt lat="37.16042866841708" lon="14.904311343443489"><ele>453.0</ele><time>2026-04-06T12:25:47Z</time></trkpt><trkpt lat="37.16033226932886" lon="14.90414046815632"><ele>459.33333333333337</ele><time>2026-04-06T12:25:48Z</time></trkpt><trkpt lat="37.16024092905497" lon="14.903975512290904"><ele>465.6666666666667</ele><time>2026-04-06T12:25:49Z</time></trkpt><trkpt lat="37.16015218753059" lon="14.9038179716943"><ele>472.0</ele><time>2026-04-06T12:25:50Z</time></trkpt><trkpt lat="37.16006633913958" lon="14.903676018325996"><ele>472.0</ele><time>2026-04-06T12:25:51Z</time></trkpt><trkpt lat="37.159985540496066" lon="14.903540552975997"><ele>472.0</ele><time>2026-04-06T12:25:52Z</time></trkpt><trkpt lat="37.15991087029593" lon="14.903407307278828"><ele>472.0</ele><time>2026-04-06T12:25:53Z</time></trkpt><trkpt lat="37.159845524665165" lon="14.903264750707343"><ele>472.0</ele><time>2026-04-06T12:25:54Z</time></trkpt><trkpt lat="37.15980552100024" lon="14.90309848838178"><ele>473.6666666666667</ele><time>2026-04-06T12:25:55Z</time></trkpt><trkpt lat="37.15978419839902" lon="14.902905643918482"><ele>475.33333333333337</ele><time>2026-04-06T12:25:56Z</time></trkpt><trkpt lat="37.15976480468406" lon="14.902703369712272"><ele>477.0</ele><time>2026-04-06T12:25:57Z</time></trkpt><trkpt lat="37.15974576698985" lon="14.902490750043727"><ele>478.33333333333337</ele><time>2026-04-06T12:25:58Z</time></trkpt><trkpt lat="37.15972759636637" lon="14.90227331757569"><ele>479.6666666666667</ele><time>2026-04-06T12:25:59Z</time></trkpt><trkpt lat="37.15971400242592" lon="14.902067600264012"><ele>481.0</ele><time>2026-04-06T12:26:00Z</time></trkpt><trkpt lat="37.159703516950124" lon="14.90187063397431"><ele>481.6666666666667</ele><time>2026-04-06T12:26:01Z</time></trkpt><trkpt lat="37.15970612532426" lon="14.90167900373754"><ele>482.33333333333337</ele><time>2026-04-06T12:26:02Z</time></trkpt><trkpt lat="37.159729879076394" lon="14.901480012348358"><ele>483.0</ele><time>2026-04-06T12:26:03Z</time></trkpt><trkpt lat="37.15976004528068" lon="14.901275350172778"><ele>483.0</ele><time>2026-04-06T12:26:04Z</time></trkpt><trkpt lat="37.15979453276378" lon="14.901080164105386"><ele>483.0</ele><time>2026-04-06T12:26:05Z</time></trkpt><trkpt lat="37.15982786517211" lon="14.900898756430562"><ele>483.0</ele><time>2026-04-06T12:26:06Z</time></trkpt><trkpt lat="37.159848972441296" lon="14.900716914025653"><ele>484.33333333333337</ele><time>2026-04-06T12:26:07Z</time></trkpt><trkpt lat="37.15985111832568" lon="14.90052235094607"><ele>485.6666666666667</ele><time>2026-04-06T12:26:08Z</time></trkpt><trkpt lat="37.159829930486914" lon="14.90031271620947"><ele>487.0</ele><time>2026-04-06T12:26:09Z</time></trkpt><trkpt lat="37.15980092224668" lon="14.900095385919704"><ele>487.0</ele><time>2026-04-06T12:26:10Z</time></trkpt><trkpt lat="37.159767322200686" lon="14.899872181622914"><ele>487.0</ele><time>2026-04-06T12:26:11Z</time></trkpt><trkpt lat="37.15973645081969" lon="14.89965527968453"><ele>487.0</ele><time>2026-04-06T12:26:12Z</time></trkpt><trkpt lat="37.15970962349547" lon="14.899445795103995"><ele>488.0</ele><time>2026-04-06T12:26:13Z</time></trkpt><trkpt lat="37.15968807459732" lon="14.899249545782798"><ele>489.0</ele><time>2026-04-06T12:26:14Z</time></trkpt><trkpt lat="37.159665563877546" lon="14.899065116004888"><ele>490.0</ele><time>2026-04-06T12:26:15Z</time></trkpt><trkpt lat="37.15964512683988" lon="14.89889873149439"><ele>491.0</ele><time>2026-04-06T12:26:16Z</time></trkpt><trkpt lat="37.159624549935614" lon="14.898761801035716"><ele>491.0</ele><time>2026-04-06T12:26:17Z</time></trkpt><trkpt lat="37.15958523003278" lon="14.898639954138803"><ele>491.0</ele><time>2026-04-06T12:26:18Z</time></trkpt><trkpt lat="37.15951575703662" lon="14.89853825757701"><ele>491.0</ele><time>2026-04-06T12:26:19Z</time></trkpt><trkpt lat="37.15941423715261" lon="14.898455656946307"><ele>491.0</ele><time>2026-04-06T12:26:20Z</time></trkpt><trkpt lat="37.15929377122836" lon="14.898405766712866"><ele>490.25</ele><time>2026-04-06T12:26:21Z</time></trkpt><trkpt lat="37.15918428661659" lon="14.898358625351086"><ele>489.5</ele><time>2026-04-06T12:26:22Z</time></trkpt><trkpt lat="37.15909740315188" lon="14.898285192888983"><ele>488.75</ele><time>2026-04-06T12:26:23Z</time></trkpt><trkpt lat="37.159027498417124" lon="14.89816784933439"><ele>488.0</ele><time>2026-04-06T12:26:24Z</time></trkpt><trkpt lat="37.15897877091299" lon="14.8980268183249"><ele>488.0</ele><time>2026-04-06T12:26:25Z</time></trkpt><trkpt lat="37.15894828682301" lon="14.897873404437217"><ele>488.0</ele><time>2026-04-06T12:26:26Z</time></trkpt><trkpt lat="37.15892938549486" lon="14.897699907534884"><ele>488.0</ele><time>2026-04-06T12:26:27Z</time></trkpt><trkpt lat="37.15891611796136" lon="14.897531536351446"><ele>488.0</ele><time>2026-04-06T12:26:28Z</time></trkpt><trkpt lat="37.15889975742109" lon="14.897347150482034"><ele>489.3333333333333</ele><time>2026-04-06T12:26:29Z</time></trkpt><trkpt lat="37.15885775964772" lon="14.89715462998504"><ele>490.66666666666663</ele><time>2026-04-06T12:26:30Z</time></trkpt><trkpt lat="37.15879928338032" lon="14.896957900051456"><ele>492.0</ele><time>2026-04-06T12:26:31Z</time></trkpt><trkpt lat="37.15874378626341" lon="14.896775881036895"><ele>494.25</ele><time>2026-04-06T12:26:32Z</time></trkpt><trkpt lat="37.15868456863053" lon="14.896610931382773"><ele>496.5</ele><time>2026-04-06T12:26:33Z</time></trkpt><trkpt lat="37.15860099312572" lon="14.896467634844015"><ele>498.75</ele><time>2026-04-06T12:26:34Z</time></trkpt><trkpt lat="37.15848388889519" lon="14.896350711114465"><ele>501.0</ele><time>2026-04-06T12:26:35Z</time></trkpt><trkpt lat="37.15834412975318" lon="14.896269022121109"><ele>501.0</ele><time>2026-04-06T12:26:36Z</time></trkpt><trkpt lat="37.15821009004539" lon="14.896212275580735"><ele>501.0</ele><time>2026-04-06T12:26:37Z</time></trkpt><trkpt lat="37.15809865351272" lon="14.89613793429785"><ele>501.0</ele><time>2026-04-06T12:26:38Z</time></trkpt><trkpt lat="37.158004087651705" lon="14.896015059520346"><ele>501.0</ele><time>2026-04-06T12:26:39Z</time></trkpt><trkpt lat="37.157922808654334" lon="14.895856397841673"><ele>501.0</ele><time>2026-04-06T12:26:40Z</time></trkpt><trkpt lat="37.15785665994902" lon="14.895703382112695"><ele>501.0</ele><time>2026-04-06T12:26:41Z</time></trkpt><trkpt lat="37.15780273145293" lon="14.895555377071133"><ele>501.0</ele><time>2026-04-06T12:26:42Z</time></trkpt><trkpt lat="37.15775373641346" lon="14.895406880470206"><ele>501.0</ele><time>2026-04-06T12:26:43Z</time></trkpt><trkpt lat="37.15772859616108" lon="14.895271208613478"><ele>501.0</ele><time>2026-04-06T12:26:44Z</time></trkpt><trkpt lat="37.15772858495208" lon="14.895139304332655"><ele>501.0</ele><time>2026-04-06T12:26:45Z</time></trkpt><trkpt lat="37.157759499035286" lon="14.895011254623435"><ele>501.0</ele><time>2026-04-06T12:26:46Z</time></trkpt><trkpt lat="37.15782941673923" lon="14.894896913498739"><ele>501.0</ele><time>2026-04-06T12:26:47Z</time></trkpt><trkpt lat="37.15791344816044" lon="14.894809657663227"><ele>501.0</ele><time>2026-04-06T12:26:48Z</time></trkpt><trkpt lat="37.15795676193921" lon="14.894728650510286"><ele>501.6</ele><time>2026-04-06T12:26:49Z</time></trkpt><trkpt lat="37.15794928763098" lon="14.894630608965665"><ele>502.20000000000005</ele><time>2026-04-06T12:26:50Z</time></trkpt><trkpt lat="37.15790327120879" lon="14.894536526391631"><ele>502.79999999999995</ele><time>2026-04-06T12:26:51Z</time></trkpt><trkpt lat="37.15782815631446" lon="14.89444631848128"><ele>503.4</ele><time>2026-04-06T12:26:52Z</time></trkpt><trkpt lat="37.15773292125581" lon="14.894360499879294"><ele>504.0</ele><time>2026-04-06T12:26:53Z</time></trkpt><trkpt lat="37.15762392515094" lon="14.894304320024627"><ele>504.0</ele><time>2026-04-06T12:26:54Z</time></trkpt><trkpt lat="37.15748369026437" lon="14.89427651921777"><ele>504.0</ele><time>2026-04-06T12:26:55Z</time></trkpt><trkpt lat="37.157334806626274" lon="14.894267145265351"><ele>504.0</ele><time>2026-04-06T12:26:56Z</time></trkpt><trkpt lat="37.15718023303508" lon="14.894287745028437"><ele>504.0</ele><time>2026-04-06T12:26:57Z</time></trkpt><trkpt lat="37.15703103351828" lon="14.894328885764459"><ele>504.0</ele><time>2026-04-06T12:26:58Z</time></trkpt><trkpt lat="37.15688641520501" lon="14.894367860808682"><ele>504.0</ele><time>2026-04-06T12:26:59Z</time></trkpt><trkpt lat="37.15675659056792" lon="14.894404501379901"><ele>504.0</ele><time>2026-04-06T12:27:00Z</time></trkpt><trkpt lat="37.15663905635461" lon="14.894426413063716"><ele>504.0</ele><time>2026-04-06T12:27:01Z</time></trkpt><trkpt lat="37.15651992684616" lon="14.894428869338523"><ele>504.5</ele><time>2026-04-06T12:27:02Z</time></trkpt><trkpt lat="37.156393391596986" lon="14.894421672672738"><ele>505.0</ele><time>2026-04-06T12:27:03Z</time></trkpt><trkpt lat="37.15627333145422" lon="14.89440239745828"><ele>505.5</ele><time>2026-04-06T12:27:04Z</time></trkpt><trkpt lat="37.156158511350505" lon="14.894361710857611"><ele>506.0</ele><time>2026-04-06T12:27:05Z</time></trkpt><trkpt lat="37.15603480011187" lon="14.894312635462892"><ele>506.25</ele><time>2026-04-06T12:27:06Z</time></trkpt><trkpt lat="37.15590419458832" lon="14.894254654669757"><ele>506.5</ele><time>2026-04-06T12:27:07Z</time></trkpt><trkpt lat="37.155770567800914" lon="14.894171132836897"><ele>506.75</ele><time>2026-04-06T12:27:08Z</time></trkpt><trkpt lat="37.155635587685985" lon="14.89406089869194"><ele>507.0</ele><time>2026-04-06T12:27:09Z</time></trkpt><trkpt lat="37.155508081903584" lon="14.893942659432005"><ele>507.0</ele><time>2026-04-06T12:27:10Z</time></trkpt><trkpt lat="37.15539085270737" lon="14.89383532820108"><ele>507.0</ele><time>2026-04-06T12:27:11Z</time></trkpt><trkpt lat="37.1552841061366" lon="14.893736340203455"><ele>507.0</ele><time>2026-04-06T12:27:12Z</time></trkpt><trkpt lat="37.15518068388705" lon="14.893633824906113"><ele>507.0</ele><time>2026-04-06T12:27:13.001Z</time></trkpt><trkpt lat="37.15508774824738" lon="14.893526472470224"><ele>509.5</ele><time>2026-04-06T12:27:14.001Z</time></trkpt><trkpt lat="37.155016705570716" lon="14.893418741315136"><ele>512.0</ele><time>2026-04-06T12:27:15.001Z</time></trkpt><trkpt lat="37.154958086655064" lon="14.89330422442875"><ele>514.5</ele><time>2026-04-06T12:27:16.001Z</time></trkpt><trkpt lat="37.154915059034685" lon="14.893176815350408"><ele>517.0</ele><time>2026-04-06T12:27:17.001Z</time></trkpt><trkpt lat="37.15488278395912" lon="14.893015974324953"><ele>515.75</ele><time>2026-04-06T12:27:18Z</time></trkpt><trkpt lat="37.15485539991582" lon="14.892847034449327"><ele>514.5</ele><time>2026-04-06T12:27:19Z</time></trkpt><trkpt lat="37.15483093731272" lon="14.892680564369856"><ele>513.25</ele><time>2026-04-06T12:27:20Z</time></trkpt><trkpt lat="37.15480470222781" lon="14.89250932458283"><ele>512.0</ele><time>2026-04-06T12:27:21Z</time></trkpt><trkpt lat="37.15478038212345" lon="14.89234988987654"><ele>512.0</ele><time>2026-04-06T12:27:22Z</time></trkpt><trkpt lat="37.15475853489162" lon="14.892197081371009"><ele>512.0</ele><time>2026-04-06T12:27:23Z</time></trkpt><trkpt lat="37.1547403710833" lon="14.892055166865266"><ele>512.0</ele><time>2026-04-06T12:27:24Z</time></trkpt><trkpt lat="37.15472367622683" lon="14.891907022132619"><ele>512.0</ele><time>2026-04-06T12:27:25Z</time></trkpt><trkpt lat="37.15470250258311" lon="14.891752449418684"><ele>513.5</ele><time>2026-04-06T12:27:26Z</time></trkpt><trkpt lat="37.15467606606202" lon="14.891595561516702"><ele>515.0</ele><time>2026-04-06T12:27:27Z</time></trkpt><trkpt lat="37.1546411529697" lon="14.891454242545338"><ele>516.5</ele><time>2026-04-06T12:27:28Z</time></trkpt><trkpt lat="37.154589072175604" lon="14.891324644113046"><ele>518.0</ele><time>2026-04-06T12:27:29Z</time></trkpt><trkpt lat="37.15453062076527" lon="14.891191595537927"><ele>518.0</ele><time>2026-04-06T12:27:30Z</time></trkpt><trkpt lat="37.15447761976131" lon="14.891064493589242"><ele>518.0</ele><time>2026-04-06T12:27:31Z</time></trkpt><trkpt lat="37.15442459756543" lon="14.890947883199319"><ele>518.0</ele><time>2026-04-06T12:27:32Z</time></trkpt><trkpt lat="37.154372479001836" lon="14.890844143108998"><ele>518.0</ele><time>2026-04-06T12:27:33Z</time></trkpt><trkpt lat="37.1543256398417" lon="14.890730033339578"><ele>518.0</ele><time>2026-04-06T12:27:34Z</time></trkpt><trkpt lat="37.15426633755654" lon="14.890621959457832"><ele>519.25</ele><time>2026-04-06T12:27:35Z</time></trkpt><trkpt lat="37.15419069474661" lon="14.890524342164506"><ele>520.5</ele><time>2026-04-06T12:27:36Z</time></trkpt><trkpt lat="37.15410055245297" lon="14.89042720341124"><ele>521.75</ele><time>2026-04-06T12:27:37Z</time></trkpt><trkpt lat="37.15400142537619" lon="14.89032804664506"><ele>523.0</ele><time>2026-04-06T12:27:38Z</time></trkpt><trkpt lat="37.15389614287839" lon="14.890237049565165"><ele>523.25</ele><time>2026-04-06T12:27:39Z</time></trkpt><trkpt lat="37.15379118108155" lon="14.890175148935546"><ele>523.5</ele><time>2026-04-06T12:27:40Z</time></trkpt><trkpt lat="37.15368410890105" lon="14.890143967231898"><ele>523.75</ele><time>2026-04-06T12:27:41Z</time></trkpt><trkpt lat="37.153565578189145" lon="14.890149779432065"><ele>524.0</ele><time>2026-04-06T12:27:42Z</time></trkpt><trkpt lat="37.1534452378656" lon="14.890194582586373"><ele>524.0</ele><time>2026-04-06T12:27:43Z</time></trkpt><trkpt lat="37.15333269224378" lon="14.890275371284845"><ele>524.0</ele><time>2026-04-06T12:27:44Z</time></trkpt><trkpt lat="37.15322719950094" lon="14.890379772655542"><ele>524.0</ele><time>2026-04-06T12:27:45Z</time></trkpt><trkpt lat="37.15312777942115" lon="14.890477569644625"><ele>524.0</ele><time>2026-04-06T12:27:46Z</time></trkpt><trkpt lat="37.15303377799573" lon="14.89055974048682"><ele>525.0</ele><time>2026-04-06T12:27:47Z</time></trkpt><trkpt lat="37.15294947791622" lon="14.890624715692194"><ele>526.0</ele><time>2026-04-06T12:27:48Z</time></trkpt><trkpt lat="37.152873789320786" lon="14.890676860728588"><ele>527.0</ele><time>2026-04-06T12:27:49Z</time></trkpt><trkpt lat="37.152797164380914" lon="14.890703605023347"><ele>528.0</ele><time>2026-04-06T12:27:50Z</time></trkpt><trkpt lat="37.15271865400077" lon="14.89071308001178"><ele>529.0</ele><time>2026-04-06T12:27:51Z</time></trkpt><trkpt lat="37.152640672915496" lon="14.890700359632417"><ele>530.0</ele><time>2026-04-06T12:27:52Z</time></trkpt><trkpt lat="37.15256639781414" lon="14.890658905692488"><ele>530.0</ele><time>2026-04-06T12:27:53Z</time></trkpt><trkpt lat="37.15249351810934" lon="14.89059504879343"><ele>530.0</ele><time>2026-04-06T12:27:54Z</time></trkpt><trkpt lat="37.15241791702299" lon="14.890520431177519"><ele>530.0</ele><time>2026-04-06T12:27:55Z</time></trkpt><trkpt lat="37.15234367403364" lon="14.89042809681659"><ele>530.0</ele><time>2026-04-06T12:27:56Z</time></trkpt><trkpt lat="37.152279435588426" lon="14.890315404870494"><ele>530.0</ele><time>2026-04-06T12:27:57Z</time></trkpt><trkpt lat="37.1522222641684" lon="14.890189050563805"><ele>529.8</ele><time>2026-04-06T12:27:58Z</time></trkpt><trkpt lat="37.152171502076136" lon="14.890063855802625"><ele>529.6</ele><time>2026-04-06T12:27:59Z</time></trkpt><trkpt lat="37.15212923932845" lon="14.889947836838935"><ele>529.4</ele><time>2026-04-06T12:28:00Z</time></trkpt><trkpt lat="37.15209329673844" lon="14.889839157241044"><ele>529.2</ele><time>2026-04-06T12:28:01Z</time></trkpt><trkpt lat="37.15206617281271" lon="14.8897353638388"><ele>529.0</ele><time>2026-04-06T12:28:02Z</time></trkpt><trkpt lat="37.15204713554712" lon="14.889654174167298"><ele>529.0</ele><time>2026-04-06T12:28:03Z</time></trkpt><trkpt lat="37.15204283941846" lon="14.889556089903053"><ele>529.0</ele><time>2026-04-06T12:28:05Z</time></trkpt><trkpt lat="37.15210632117671" lon="14.889579030081434"><ele>529.0</ele><time>2026-04-06T12:28:09Z</time></trkpt><trkpt lat="37.15212529781793" lon="14.889657386546135"><ele>529.0</ele><time>2026-04-06T12:28:11Z</time></trkpt><trkpt lat="37.152183243979174" lon="14.889769621117265"><ele>529.0</ele><time>2026-04-06T12:28:13Z</time></trkpt><trkpt lat="37.15223105239388" lon="14.88982691314614"><ele>529.0</ele><time>2026-04-06T12:28:14Z</time></trkpt><trkpt lat="37.15228861979526" lon="14.889879745390456"><ele>529.0</ele><time>2026-04-06T12:28:15Z</time></trkpt><trkpt lat="37.15234559634826" lon="14.889927612098578"><ele>529.0</ele><time>2026-04-06T12:28:16Z</time></trkpt><trkpt lat="37.15242861707943" lon="14.889994089381988"><ele>529.0</ele><time>2026-04-06T12:28:18Z</time></trkpt><trkpt lat="37.15249302027825" lon="14.890015087258107"><ele>529.0</ele><time>2026-04-06T12:28:21Z</time></trkpt><trkpt lat="37.15252792021277" lon="14.889926786426805"><ele>529.0</ele><time>2026-04-06T12:28:25Z</time></trkpt><trkpt lat="37.15249212993212" lon="14.88984835274254"><ele>529.0</ele><time>2026-04-06T12:28:29Z</time></trkpt><trkpt lat="37.152535766666134" lon="14.889914990218783"><ele>529.1428571428571</ele><time>2026-04-06T12:29:30Z</time></trkpt><trkpt lat="37.15253660068176" lon="14.889997321930277"><ele>529.2857142857142</ele><time>2026-04-06T12:29:38Z</time></trkpt><trkpt lat="37.15250105962485" lon="14.890076250881346"><ele>529.4285714285713</ele><time>2026-04-06T12:29:46Z</time></trkpt><trkpt lat="37.15246546278319" lon="14.890144915593165"><ele>529.5714285714286</ele><time>2026-04-06T12:29:54Z</time></trkpt><trkpt lat="37.15245201306181" lon="14.890227552921457"><ele>529.7142857142857</ele><time>2026-04-06T12:30:01Z</time></trkpt><trkpt lat="37.152496236218134" lon="14.89028924300364"><ele>529.8571428571428</ele><time>2026-04-06T12:30:09Z</time></trkpt><trkpt lat="37.15255279677081" lon="14.890326722842719"><ele>530.0</ele><time>2026-04-06T12:30:17Z</time></trkpt><trkpt lat="37.15261602098654" lon="14.890311011961005"><ele>530.0</ele><time>2026-04-06T12:30:26Z</time></trkpt><trkpt lat="37.15263457467339" lon="14.890234806470449"><ele>530.0</ele><time>2026-04-06T12:30:36Z</time></trkpt><trkpt lat="37.15258228765278" lon="14.890184118384244"><ele>530.0</ele><time>2026-04-06T12:31:37Z</time></trkpt><trkpt lat="37.15269035360656" lon="14.890392449138028"><ele>530.0</ele><time>2026-04-06T12:32:03.072Z</time></trkpt><trkpt lat="37.15270938902882" lon="14.890287129430913"><ele>530.0</ele><time>2026-04-06T12:32:05.073Z</time></trkpt><trkpt lat="37.152741634196346" lon="14.890158881872445"><ele>530.0</ele><time>2026-04-06T12:32:07.072Z</time></trkpt><trkpt lat="37.152647511186245" lon="14.890157360835618"><ele>530.0</ele><time>2026-04-06T12:32:12Z</time></trkpt><trkpt lat="37.15269800141541" lon="14.890235982845583"><ele>530.0</ele><time>2026-04-06T12:32:28Z</time></trkpt><trkpt lat="37.152816494246295" lon="14.890300676965069"><ele>530.0</ele><time>2026-04-06T12:32:30Z</time></trkpt><trkpt lat="37.15260295058385" lon="14.890192330083128"><ele>530.0</ele><time>2026-04-06T12:34:00.405Z</time></trkpt><trkpt lat="37.152691865945094" lon="14.890217580981712"><ele>530.0</ele><time>2026-04-06T12:37:25.4Z</time></trkpt><trkpt lat="37.15261190733533" lon="14.890209454210337"><ele>530.0</ele><time>2026-04-06T12:37:49.404Z</time></trkpt><trkpt lat="37.15268527986005" lon="14.890136393059754"><ele>530.0</ele><time>2026-04-06T12:37:54.997Z</time></trkpt><trkpt lat="37.15271729014248" lon="14.890058853968512"><ele>530.0</ele><time>2026-04-06T12:38:05Z</time></trkpt><trkpt lat="37.15270591465815" lon="14.89017067729077"><ele>530.0</ele><time>2026-04-06T12:52:46.999Z</time></trkpt><trkpt lat="37.152585178190954" lon="14.890162409645027"><ele>530.0</ele><time>2026-04-06T14:05:48.012Z</time></trkpt><trkpt lat="37.152710848266196" lon="14.8901243276874"><ele>530.0</ele><time>2026-04-06T14:06:35.51Z</time></trkpt><trkpt lat="37.15261977572049" lon="14.890146890895233"><ele>530.0</ele><time>2026-04-06T14:06:44Z</time></trkpt><trkpt lat="37.152614868970026" lon="14.890247367242411"><ele>530.0</ele><time>2026-04-06T14:07:01Z</time></trkpt><trkpt lat="37.15262989594086" lon="14.890340802349998"><ele>530.0</ele><time>2026-04-06T14:07:15Z</time></trkpt><trkpt lat="37.15268329932639" lon="14.890386959230215"><ele>530.0</ele><time>2026-04-06T14:07:35Z</time></trkpt><trkpt lat="37.15275974866517" lon="14.890388844394481"><ele>529.9999999999999</ele><time>2026-04-06T14:07:54.999Z</time></trkpt><trkpt lat="37.15279120236147" lon="14.890313979486619"><ele>530.0</ele><time>2026-04-06T14:08:05.999Z</time></trkpt><trkpt lat="37.152841091277764" lon="14.890262129863338"><ele>530.0</ele><time>2026-04-06T14:08:17.999Z</time></trkpt><trkpt lat="37.15284677329739" lon="14.890166693925467"><ele>530.0</ele><time>2026-04-06T14:08:42.999Z</time></trkpt><trkpt lat="37.15279282807821" lon="14.890101383949375"><ele>530.0</ele><time>2026-04-06T14:09:04Z</time></trkpt><trkpt lat="37.152792757707545" lon="14.8901831589653"><ele>529.9999999999999</ele><time>2026-04-06T14:09:47.999Z</time></trkpt><trkpt lat="37.15275394182961" lon="14.890248494407201"><ele>530.0</ele><time>2026-04-06T14:09:56.999Z</time></trkpt><trkpt lat="37.15272525033196" lon="14.890319813367327"><ele>529.9999999999999</ele><time>2026-04-06T14:10:05.999Z</time></trkpt><trkpt lat="37.15268709449096" lon="14.890394628941777"><ele>530.0</ele><time>2026-04-06T14:10:17.999Z</time></trkpt><trkpt lat="37.152655704836924" lon="14.890319819350728"><ele>530.0</ele><time>2026-04-06T14:10:29.999Z</time></trkpt><trkpt lat="37.152592357839445" lon="14.890305026101194"><ele>530.0</ele><time>2026-04-06T14:10:42.999Z</time></trkpt><trkpt lat="37.152526509295676" lon="14.890286399735345"><ele>530.0</ele><time>2026-04-06T14:10:56Z</time></trkpt><trkpt lat="37.15246772269838" lon="14.890246471565991"><ele>529.9999999999999</ele><time>2026-04-06T14:11:09Z</time></trkpt><trkpt lat="37.152444400097764" lon="14.890159997437378"><ele>530.0</ele><time>2026-04-06T14:11:26Z</time></trkpt><trkpt lat="37.15249600853009" lon="14.890103099508256"><ele>531.9999999999999</ele><time>2026-04-06T14:11:38Z</time></trkpt><trkpt lat="37.152511991485774" lon="14.890020371583125"><ele>534.0</ele><time>2026-04-06T14:11:47.999Z</time></trkpt><trkpt lat="37.1525424764207" lon="14.889933520333312"><ele>536.0</ele><time>2026-04-06T14:11:58.999Z</time></trkpt><trkpt lat="37.15252648640451" lon="14.889851996932505"><ele>538.0</ele><time>2026-04-06T14:12:07.999Z</time></trkpt><trkpt lat="37.15249523393425" lon="14.889763429168369"><ele>540.0</ele><time>2026-04-06T14:20:57.999Z</time></trkpt><trkpt lat="37.15243090902223" lon="14.889792176698101"><ele>541.9999999999999</ele><time>2026-04-06T14:21:23.999Z</time></trkpt><trkpt lat="37.152463093828835" lon="14.889862916512937"><ele>544.0</ele><time>2026-04-06T14:21:26.999Z</time></trkpt><trkpt lat="37.152508094979034" lon="14.889919617424255"><ele>544.0</ele><time>2026-04-06T14:21:42.999Z</time></trkpt><trkpt lat="37.152489470344" lon="14.890027780829401"><ele>544.0</ele><time>2026-04-06T14:21:45.999Z</time></trkpt><trkpt lat="37.152432891064855" lon="14.890081042478469"><ele>544.0</ele><time>2026-04-06T14:21:48.999Z</time></trkpt><trkpt lat="37.15238056210863" lon="14.8901294864656"><ele>544.0</ele><time>2026-04-06T14:21:52.999Z</time></trkpt><trkpt lat="37.15232325079023" lon="14.890057081937966"><ele>544.0</ele><time>2026-04-06T14:21:55.999Z</time></trkpt><trkpt lat="37.152274275354515" lon="14.88994510303427"><ele>544.0</ele><time>2026-04-06T14:21:57.999Z</time></trkpt><trkpt lat="37.152222727951006" lon="14.889841877290468"><ele>541.5</ele><time>2026-04-06T14:21:59.999Z</time></trkpt><trkpt lat="37.15218028855254" lon="14.88977179949481"><ele>539.0</ele><time>2026-04-06T14:22:01.999Z</time></trkpt><trkpt lat="37.152123505595945" lon="14.889681985871857"><ele>536.5</ele><time>2026-04-06T14:22:04.999Z</time></trkpt><trkpt lat="37.152091631211455" lon="14.889592785585831"><ele>534.0</ele><time>2026-04-06T14:22:07.999Z</time></trkpt><trkpt lat="37.15206792823288" lon="14.889512481686506"><ele>531.5</ele><time>2026-04-06T14:22:10.999Z</time></trkpt><trkpt lat="37.15200235601245" lon="14.889563676387937"><ele>529.0</ele><time>2026-04-06T14:22:35.999Z</time></trkpt><trkpt lat="37.152017827344444" lon="14.889654373923404"><ele>529.0</ele><time>2026-04-06T14:22:36.999Z</time></trkpt><trkpt lat="37.15203967358732" lon="14.889742946865352"><ele>529.0</ele><time>2026-04-06T14:22:37.999Z</time></trkpt><trkpt lat="37.152065321847196" lon="14.889836963850112"><ele>529.0</ele><time>2026-04-06T14:22:38.999Z</time></trkpt><trkpt lat="37.15212525080561" lon="14.890012425467456"><ele>529.0</ele><time>2026-04-06T14:22:39.999Z</time></trkpt><trkpt lat="37.15217260280786" lon="14.890122410292236"><ele>529.0</ele><time>2026-04-06T14:22:40.999Z</time></trkpt><trkpt lat="37.15221788848539" lon="14.890230391798946"><ele>529.2</ele><time>2026-04-06T14:22:41.999Z</time></trkpt><trkpt lat="37.15226500708225" lon="14.890340926698675"><ele>529.4</ele><time>2026-04-06T14:22:42.999Z</time></trkpt><trkpt lat="37.15232220112537" lon="14.890445207281074"><ele>529.6</ele><time>2026-04-06T14:22:43.999Z</time></trkpt><trkpt lat="37.152401178929125" lon="14.890537701859914"><ele>529.8</ele><time>2026-04-06T14:22:44.999Z</time></trkpt><trkpt lat="37.152485966126534" lon="14.890618222359228"><ele>530.0</ele><time>2026-04-06T14:22:45.999Z</time></trkpt><trkpt lat="37.15256661860822" lon="14.890678801890026"><ele>530.0</ele><time>2026-04-06T14:22:46.999Z</time></trkpt><trkpt lat="37.152645771113" lon="14.890720298688018"><ele>530.0</ele><time>2026-04-06T14:22:47.999Z</time></trkpt><trkpt lat="37.152727454585474" lon="14.890729572607361"><ele>530.0</ele><time>2026-04-06T14:22:48.999Z</time></trkpt><trkpt lat="37.15280956654667" lon="14.890702331903857"><ele>530.0</ele><time>2026-04-06T14:22:49.999Z</time></trkpt><trkpt lat="37.15289777154328" lon="14.890648946873817"><ele>530.0</ele><time>2026-04-06T14:22:50.999Z</time></trkpt><trkpt lat="37.152991592612715" lon="14.89057504152414"><ele>530.0</ele><time>2026-04-06T14:22:51.999Z</time></trkpt><trkpt lat="37.1530883644442" lon="14.890492988250509"><ele>530.0</ele><time>2026-04-06T14:22:52.999Z</time></trkpt><trkpt lat="37.15318600684924" lon="14.890410035362033"><ele>530.0</ele><time>2026-04-06T14:22:53.999Z</time></trkpt><trkpt lat="37.1532784940302" lon="14.89032818385611"><ele>530.0</ele><time>2026-04-06T14:22:54.999Z</time></trkpt><trkpt lat="37.15336649042014" lon="14.890254039200148"><ele>528.8</ele><time>2026-04-06T14:22:55.999Z</time></trkpt><trkpt lat="37.15345482735671" lon="14.890195331411384"><ele>527.6</ele><time>2026-04-06T14:22:56.999Z</time></trkpt><trkpt lat="37.15354169628497" lon="14.89015553854929"><ele>526.4</ele><time>2026-04-06T14:22:57.999Z</time></trkpt><trkpt lat="37.15363338546761" lon="14.890139988031516"><ele>525.2</ele><time>2026-04-06T14:22:58.999Z</time></trkpt><trkpt lat="37.15372610141658" lon="14.890158757100624"><ele>524.0</ele><time>2026-04-06T14:22:59.999Z</time></trkpt><trkpt lat="37.153819359129564" lon="14.89021012807539"><ele>524.0</ele><time>2026-04-06T14:23:00.999Z</time></trkpt><trkpt lat="37.15391288473584" lon="14.890274659980959"><ele>524.0</ele><time>2026-04-06T14:23:01.999Z</time></trkpt><trkpt lat="37.154002840778254" lon="14.890348659978438"><ele>524.0</ele><time>2026-04-06T14:23:02.999Z</time></trkpt><trkpt lat="37.15408722951032" lon="14.890432200922604"><ele>524.0</ele><time>2026-04-06T14:23:03.999Z</time></trkpt><trkpt lat="37.15416663754072" lon="14.890523546193522"><ele>524.0</ele><time>2026-04-06T14:23:04.999Z</time></trkpt><trkpt lat="37.15423447163508" lon="14.890624145687408"><ele>523.8</ele><time>2026-04-06T14:23:05.999Z</time></trkpt><trkpt lat="37.15428952655483" lon="14.890734157165593"><ele>523.5999999999999</ele><time>2026-04-06T14:23:06.999Z</time></trkpt><trkpt lat="37.15433692073036" lon="14.890847910028825"><ele>523.4</ele><time>2026-04-06T14:23:07.999Z</time></trkpt><trkpt lat="37.15438403526454" lon="14.890963888859346"><ele>523.1999999999999</ele><time>2026-04-06T14:23:08.999Z</time></trkpt><trkpt lat="37.154439391520505" lon="14.891078768455522"><ele>523.0</ele><time>2026-04-06T14:23:09.999Z</time></trkpt><trkpt lat="37.15449622565139" lon="14.891193322879017"><ele>521.75</ele><time>2026-04-06T14:23:10.999Z</time></trkpt><trkpt lat="37.15454910162699" lon="14.891313394688504"><ele>520.5</ele><time>2026-04-06T14:23:11.999Z</time></trkpt><trkpt lat="37.154593288309684" lon="14.891437785086687"><ele>519.25</ele><time>2026-04-06T14:23:12.999Z</time></trkpt><trkpt lat="37.15462977113144" lon="14.89157715823129"><ele>518.0</ele><time>2026-04-06T14:23:13.999Z</time></trkpt><trkpt lat="37.15465852657859" lon="14.891730612131482"><ele>516.5</ele><time>2026-04-06T14:23:14.999Z</time></trkpt><trkpt lat="37.15468330805446" lon="14.891887353633416"><ele>515.0</ele><time>2026-04-06T14:23:15.999Z</time></trkpt><trkpt lat="37.154704720815104" lon="14.892039881706664"><ele>513.5</ele><time>2026-04-06T14:23:16.999Z</time></trkpt><trkpt lat="37.154722765231064" lon="14.892186291149073"><ele>512.0</ele><time>2026-04-06T14:23:17.999Z</time></trkpt><trkpt lat="37.15473912332462" lon="14.892322625358144"><ele>512.0</ele><time>2026-04-06T14:23:18.999Z</time></trkpt><trkpt lat="37.15475755834057" lon="14.89245033664427"><ele>512.0</ele><time>2026-04-06T14:23:19.999Z</time></trkpt><trkpt lat="37.154776514578465" lon="14.892575330378994"><ele>512.0</ele><time>2026-04-06T14:23:20.999Z</time></trkpt><trkpt lat="37.1547939083349" lon="14.892693950188264"><ele>512.0</ele><time>2026-04-06T14:23:21.999Z</time></trkpt><trkpt lat="37.15481188049203" lon="14.892811896160289"><ele>512.0</ele><time>2026-04-06T14:23:22.999Z</time></trkpt><trkpt lat="37.154829972315156" lon="14.892925131559542"><ele>512.8333333333333</ele><time>2026-04-06T14:23:23.999Z</time></trkpt><trkpt lat="37.15484896602594" lon="14.893033303312896"><ele>513.6666666666666</ele><time>2026-04-06T14:23:24.999Z</time></trkpt><trkpt lat="37.154869154061856" lon="14.89313892085886"><ele>514.5</ele><time>2026-04-06T14:23:25.999Z</time></trkpt><trkpt lat="37.1548951901133" lon="14.89324422217421"><ele>515.3333333333334</ele><time>2026-04-06T14:23:26.999Z</time></trkpt><trkpt lat="37.15493523238583" lon="14.893346580895157"><ele>516.1666666666667</ele><time>2026-04-06T14:23:27.999Z</time></trkpt><trkpt lat="37.1549926836528" lon="14.893437107498707"><ele>517.0</ele><time>2026-04-06T14:23:28.999Z</time></trkpt><trkpt lat="37.15506022566551" lon="14.893524735748395"><ele>515.0</ele><time>2026-04-06T14:23:29.998Z</time></trkpt><trkpt lat="37.15513628595231" lon="14.893610378219906"><ele>513.0</ele><time>2026-04-06T14:23:30.998Z</time></trkpt><trkpt lat="37.15521367786073" lon="14.893686197264818"><ele>511.00000000000006</ele><time>2026-04-06T14:23:31.998Z</time></trkpt><trkpt lat="37.155289434552465" lon="14.893761624479893"><ele>509.0</ele><time>2026-04-06T14:23:32.998Z</time></trkpt><trkpt lat="37.15536388354698" lon="14.893834316137632"><ele>507.0</ele><time>2026-04-06T14:23:33.998Z</time></trkpt><trkpt lat="37.155436947143244" lon="14.893905522024342"><ele>507.0</ele><time>2026-04-06T14:23:34.998Z</time></trkpt><trkpt lat="37.15550881714027" lon="14.893970910347335"><ele>507.00000000000006</ele><time>2026-04-06T14:23:35.998Z</time></trkpt><trkpt lat="37.15558032346999" lon="14.894035269708063"><ele>507.00000000000006</ele><time>2026-04-06T14:23:36.998Z</time></trkpt><trkpt lat="37.15565122426263" lon="14.894101055671761"><ele>507.0</ele><time>2026-04-06T14:23:37.998Z</time></trkpt><trkpt lat="37.15572737174608" lon="14.89417160426833"><ele>507.0</ele><time>2026-04-06T14:23:38.998Z</time></trkpt><trkpt lat="37.155820600951735" lon="14.894239447746521"><ele>506.75</ele><time>2026-04-06T14:23:39.998Z</time></trkpt><trkpt lat="37.15593221387558" lon="14.89429660680278"><ele>506.5</ele><time>2026-04-06T14:23:40.998Z</time></trkpt><trkpt lat="37.15605023780535" lon="14.89434243721447"><ele>506.25</ele><time>2026-04-06T14:23:41.998Z</time></trkpt><trkpt lat="37.15616835274276" lon="14.894379742643137"><ele>506.0</ele><time>2026-04-06T14:23:42.998Z</time></trkpt><trkpt lat="37.15628453521217" lon="14.89441193686284"><ele>506.0</ele><time>2026-04-06T14:23:43.998Z</time></trkpt><trkpt lat="37.15639732100562" lon="14.894432792898767"><ele>506.0</ele><time>2026-04-06T14:23:44.998Z</time></trkpt><trkpt lat="37.15651153089276" lon="14.894437268446643"><ele>506.0</ele><time>2026-04-06T14:23:45.998Z</time></trkpt><trkpt lat="37.15662154239864" lon="14.894429703798874"><ele>506.0</ele><time>2026-04-06T14:23:46.998Z</time></trkpt><trkpt lat="37.156736657537806" lon="14.894411912475883"><ele>505.5</ele><time>2026-04-06T14:23:47.998Z</time></trkpt><trkpt lat="37.15686142335038" lon="14.89437148941369"><ele>505.0</ele><time>2026-04-06T14:23:48.998Z</time></trkpt><trkpt lat="37.15697990024463" lon="14.894331458136906"><ele>504.5</ele><time>2026-04-06T14:23:49.998Z</time></trkpt><trkpt lat="37.15709390556081" lon="14.894294747596636"><ele>504.0</ele><time>2026-04-06T14:23:50.998Z</time></trkpt><trkpt lat="37.1572040807327" lon="14.894271383905958"><ele>504.0</ele><time>2026-04-06T14:23:51.998Z</time></trkpt><trkpt lat="37.15731124589053" lon="14.89426532998661"><ele>504.0</ele><time>2026-04-06T14:23:52.998Z</time></trkpt><trkpt lat="37.157421888438236" lon="14.894277933808453"><ele>504.0</ele><time>2026-04-06T14:23:53.998Z</time></trkpt><trkpt lat="37.157530501887834" lon="14.894307912039952"><ele>504.0</ele><time>2026-04-06T14:23:54.999Z</time></trkpt><trkpt lat="37.15763418327707" lon="14.894340044448818"><ele>504.0</ele><time>2026-04-06T14:23:55.999Z</time></trkpt><trkpt lat="37.15773073520347" lon="14.894388730392624"><ele>504.0</ele><time>2026-04-06T14:23:56.999Z</time></trkpt><trkpt lat="37.15781374329053" lon="14.894455772580049"><ele>504.0</ele><time>2026-04-06T14:23:57.999Z</time></trkpt><trkpt lat="37.157878238427976" lon="14.8945353888518"><ele>504.0</ele><time>2026-04-06T14:23:58.999Z</time></trkpt><trkpt lat="37.15791741436954" lon="14.894621700594643"><ele>504.0</ele><time>2026-04-06T14:23:59.999Z</time></trkpt><trkpt lat="37.15792698535138" lon="14.894711875352181"><ele>504.0</ele><time>2026-04-06T14:24:00.999Z</time></trkpt><trkpt lat="37.15785283806308" lon="14.89484921920548"><ele>504.0</ele><time>2026-04-06T14:24:02.999Z</time></trkpt><trkpt lat="37.157784159716854" lon="14.894913041239798"><ele>504.0</ele><time>2026-04-06T14:24:03.999Z</time></trkpt><trkpt lat="37.1577218276295" lon="14.895001092247412"><ele>504.0</ele><time>2026-04-06T14:24:04.999Z</time></trkpt><trkpt lat="37.157686801377174" lon="14.895099900999918"><ele>504.0</ele><time>2026-04-06T14:24:05.999Z</time></trkpt><trkpt lat="37.157679875729215" lon="14.895217428855029"><ele>504.0</ele><time>2026-04-06T14:24:06.999Z</time></trkpt><trkpt lat="37.1576991173863" lon="14.89535261586767"><ele>503.25</ele><time>2026-04-06T14:24:07.999Z</time></trkpt><trkpt lat="37.157751681504884" lon="14.895504262099143"><ele>502.5</ele><time>2026-04-06T14:24:08.999Z</time></trkpt><trkpt lat="37.15780705678371" lon="14.895654880799995"><ele>501.75</ele><time>2026-04-06T14:24:09.999Z</time></trkpt><trkpt lat="37.157861172000594" lon="14.895795966160604"><ele>501.0</ele><time>2026-04-06T14:24:10.999Z</time></trkpt><trkpt lat="37.15791882747862" lon="14.895933184815798"><ele>501.0</ele><time>2026-04-06T14:24:11.999Z</time></trkpt><trkpt lat="37.157993154132534" lon="14.896057006195615"><ele>501.0</ele><time>2026-04-06T14:24:12.999Z</time></trkpt><trkpt lat="37.15809256339162" lon="14.89615255381693"><ele>501.0</ele><time>2026-04-06T14:24:13.999Z</time></trkpt><trkpt lat="37.158202808584925" lon="14.896219526439385"><ele>501.0</ele><time>2026-04-06T14:24:14.999Z</time></trkpt><trkpt lat="37.158317845178175" lon="14.896271876405512"><ele>501.0</ele><time>2026-04-06T14:24:15.999Z</time></trkpt><trkpt lat="37.15842608865197" lon="14.896323419687702"><ele>501.0</ele><time>2026-04-06T14:24:16.999Z</time></trkpt><trkpt lat="37.15851939993651" lon="14.896395807759099"><ele>501.0</ele><time>2026-04-06T14:24:17.999Z</time></trkpt><trkpt lat="37.15859577262604" lon="14.896502704651674"><ele>501.0</ele><time>2026-04-06T14:24:18.999Z</time></trkpt><trkpt lat="37.158659829266426" lon="14.896640331401459"><ele>498.75</ele><time>2026-04-06T14:24:19.999Z</time></trkpt><trkpt lat="37.15871650256672" lon="14.89679444220447"><ele>496.5</ele><time>2026-04-06T14:24:20.999Z</time></trkpt><trkpt lat="37.1587633357702" lon="14.89694240922137"><ele>494.25</ele><time>2026-04-06T14:24:21.999Z</time></trkpt><trkpt lat="37.15880706314276" lon="14.897088067787456"><ele>492.0</ele><time>2026-04-06T14:24:22.999Z</time></trkpt><trkpt lat="37.15884504051332" lon="14.897235639508434"><ele>492.0</ele><time>2026-04-06T14:24:23.999Z</time></trkpt><trkpt lat="37.15887038748384" lon="14.89738593098404"><ele>492.0</ele><time>2026-04-06T14:24:24.999Z</time></trkpt><trkpt lat="37.15888582937513" lon="14.897544395753172"><ele>492.0</ele><time>2026-04-06T14:24:25.999Z</time></trkpt><trkpt lat="37.158895136774035" lon="14.89769946234941"><ele>492.0</ele><time>2026-04-06T14:24:26.999Z</time></trkpt><trkpt lat="37.15890572020339" lon="14.897841243965342"><ele>491.20000000000005</ele><time>2026-04-06T14:24:27.999Z</time></trkpt><trkpt lat="37.158927736019464" lon="14.89797328054612"><ele>490.40000000000003</ele><time>2026-04-06T14:24:28.999Z</time></trkpt><trkpt lat="37.15896396896088" lon="14.898097109226185"><ele>489.59999999999997</ele><time>2026-04-06T14:24:29.999Z</time></trkpt><trkpt lat="37.159017422292" lon="14.898211302943281"><ele>488.79999999999995</ele><time>2026-04-06T14:24:30.999Z</time></trkpt><trkpt lat="37.15908877211002" lon="14.898301896390686"><ele>488.0</ele><time>2026-04-06T14:24:31.999Z</time></trkpt><trkpt lat="37.15918796086064" lon="14.898373089507805"><ele>488.59999999999997</ele><time>2026-04-06T14:24:32.999Z</time></trkpt><trkpt lat="37.159291095547445" lon="14.898421685895826"><ele>489.19999999999993</ele><time>2026-04-06T14:24:33.999Z</time></trkpt><trkpt lat="37.15938107922105" lon="14.898468096590145"><ele>489.8</ele><time>2026-04-06T14:24:34.999Z</time></trkpt><trkpt lat="37.15946145113584" lon="14.898522169702039"><ele>490.4</ele><time>2026-04-06T14:24:35.999Z</time></trkpt><trkpt lat="37.1595219572805" lon="14.898597871063766"><ele>491.0</ele><time>2026-04-06T14:24:36.999Z</time></trkpt><trkpt lat="37.1595631370325" lon="14.898700029618752"><ele>491.0</ele><time>2026-04-06T14:24:37.999Z</time></trkpt><trkpt lat="37.15958305707744" lon="14.898784649216882"><ele>490.99999999999994</ele><time>2026-04-06T14:24:38.999Z</time></trkpt><trkpt lat="37.159595706626945" lon="14.898894331353914"><ele>491.0</ele><time>2026-04-06T14:24:40.999Z</time></trkpt><trkpt lat="37.15961353343191" lon="14.898972022427225"><ele>491.0</ele><time>2026-04-06T14:24:42.999Z</time></trkpt><trkpt lat="37.15963197434838" lon="14.899052535935098"><ele>490.99999999999994</ele><time>2026-04-06T14:24:44.999Z</time></trkpt><trkpt lat="37.159637139267964" lon="14.899140114654708"><ele>491.0</ele><time>2026-04-06T14:24:46.999Z</time></trkpt><trkpt lat="37.159646391165104" lon="14.89922249158646"><ele>491.0</ele><time>2026-04-06T14:24:48.999Z</time></trkpt><trkpt lat="37.159662120670276" lon="14.89930907365593"><ele>490.3333333333333</ele><time>2026-04-06T14:24:50.999Z</time></trkpt><trkpt lat="37.15967554552345" lon="14.899409979105156"><ele>489.66666666666663</ele><time>2026-04-06T14:24:52.999Z</time></trkpt><trkpt lat="37.15968646851497" lon="14.899555428638655"><ele>489.0</ele><time>2026-04-06T14:24:54.999Z</time></trkpt><trkpt lat="37.159698297505905" lon="14.899644906685545"><ele>488.33333333333337</ele><time>2026-04-06T14:24:55.999Z</time></trkpt><trkpt lat="37.15971053614765" lon="14.899741344810426"><ele>487.6666666666667</ele><time>2026-04-06T14:24:56.999Z</time></trkpt><trkpt lat="37.159726026912836" lon="14.899839775110147"><ele>487.0</ele><time>2026-04-06T14:24:57.999Z</time></trkpt><trkpt lat="37.15974357142766" lon="14.899935721763216"><ele>487.00000000000006</ele><time>2026-04-06T14:24:58.999Z</time></trkpt><trkpt lat="37.15976012886189" lon="14.900028060148145"><ele>487.0</ele><time>2026-04-06T14:24:59.999Z</time></trkpt><trkpt lat="37.15977320722192" lon="14.90012207325623"><ele>487.0</ele><time>2026-04-06T14:25:00.999Z</time></trkpt><trkpt lat="37.15978234496975" lon="14.900211514095375"><ele>487.0</ele><time>2026-04-06T14:25:01.999Z</time></trkpt><trkpt lat="37.15979414993701" lon="14.90035724502085"><ele>487.00000000000006</ele><time>2026-04-06T14:25:03.999Z</time></trkpt><trkpt lat="37.159799966734255" lon="14.900484473030897"><ele>487.0</ele><time>2026-04-06T14:25:05.999Z</time></trkpt><trkpt lat="37.159803379485666" lon="14.900588287129697"><ele>487.00000000000006</ele><time>2026-04-06T14:25:07.999Z</time></trkpt><trkpt lat="37.15980266756747" lon="14.900689556693061"><ele>487.0</ele><time>2026-04-06T14:25:10.999Z</time></trkpt><trkpt lat="37.15984152812658" lon="14.900613235004883"><ele>487.0</ele><time>2026-04-06T14:25:25.999Z</time></trkpt><trkpt lat="37.15983185645913" lon="14.900526249732858"><ele>487.0</ele><time>2026-04-06T14:25:26.999Z</time></trkpt><trkpt lat="37.15981860363878" lon="14.900426461347001"><ele>487.00000000000006</ele><time>2026-04-06T14:25:27.999Z</time></trkpt><trkpt lat="37.159794414230454" lon="14.900246856295563"><ele>487.0</ele><time>2026-04-06T14:25:28.998Z</time></trkpt><trkpt lat="37.15978412419565" lon="14.900126705388837"><ele>487.0</ele><time>2026-04-06T14:25:29.998Z</time></trkpt><trkpt lat="37.1597718437902" lon="14.900013796318452"><ele>487.00000000000006</ele><time>2026-04-06T14:25:30.998Z</time></trkpt><trkpt lat="37.15975710522211" lon="14.899895702351948"><ele>487.00000000000006</ele><time>2026-04-06T14:25:31.998Z</time></trkpt><trkpt lat="37.159740909182474" lon="14.899773777392557"><ele>487.0</ele><time>2026-04-06T14:25:32.998Z</time></trkpt><trkpt lat="37.15972270104034" lon="14.899645088044469"><ele>487.0</ele><time>2026-04-06T14:25:33.998Z</time></trkpt><trkpt lat="37.159704927800355" lon="14.899503672488523"><ele>487.00000000000006</ele><time>2026-04-06T14:25:34.998Z</time></trkpt><trkpt lat="37.159690159009656" lon="14.899371848720008"><ele>487.0</ele><time>2026-04-06T14:25:35.998Z</time></trkpt><trkpt lat="37.15967745336856" lon="14.899252920334856"><ele>487.0</ele><time>2026-04-06T14:25:36.998Z</time></trkpt><trkpt lat="37.159667947667714" lon="14.899150808974667"><ele>487.0</ele><time>2026-04-06T14:25:37.998Z</time></trkpt><trkpt lat="37.15965824342442" lon="14.899057642997295"><ele>487.00000000000006</ele><time>2026-04-06T14:25:38.998Z</time></trkpt><trkpt lat="37.159647991938584" lon="14.898976934908001"><ele>487.0</ele><time>2026-04-06T14:25:39.998Z</time></trkpt><trkpt lat="37.159627121306585" lon="14.898834075981005"><ele>487.57142857142856</ele><time>2026-04-06T14:25:41.998Z</time></trkpt><trkpt lat="37.159614123097384" lon="14.898755813676285"><ele>488.1428571428571</ele><time>2026-04-06T14:25:43.998Z</time></trkpt><trkpt lat="37.1595697707608" lon="14.898676636770645"><ele>488.71428571428567</ele><time>2026-04-06T14:25:48.998Z</time></trkpt><trkpt lat="37.1595169039326" lon="14.898723333165211"><ele>489.2857142857143</ele><time>2026-04-06T14:25:51.998Z</time></trkpt><trkpt lat="37.159457650202675" lon="14.898772564793362"><ele>489.8571428571428</ele><time>2026-04-06T14:28:11Z</time></trkpt><trkpt lat="37.1593866959058" lon="14.898816916268364"><ele>490.4285714285714</ele><time>2026-04-06T14:28:13Z</time></trkpt><trkpt lat="37.159314034754615" lon="14.898856498919605"><ele>491.0</ele><time>2026-04-06T14:28:16Z</time></trkpt><trkpt lat="37.1592612688202" lon="14.898918242456112"><ele>490.99999999999994</ele><time>2026-04-06T14:28:19Z</time></trkpt><trkpt lat="37.15919302885562" lon="14.898958063892884"><ele>491.0</ele><time>2026-04-06T14:28:22Z</time></trkpt><trkpt lat="37.15912697702776" lon="14.898991693063298"><ele>491.0</ele><time>2026-04-06T14:28:24Z</time></trkpt><trkpt lat="37.159038045932185" lon="14.899034421382131"><ele>491.0</ele><time>2026-04-06T14:28:26Z</time></trkpt><trkpt lat="37.158950444325114" lon="14.899064619261159"><ele>490.99999999999994</ele><time>2026-04-06T14:28:28Z</time></trkpt><trkpt lat="37.15888663674444" lon="14.899096517541027"><ele>491.0</ele><time>2026-04-06T14:28:31Z</time></trkpt><trkpt lat="37.158780996055924" lon="14.899131499421138"><ele>489.3333333333333</ele><time>2026-04-06T14:28:51Z</time></trkpt><trkpt lat="37.15865666487947" lon="14.899181682676618"><ele>487.66666666666663</ele><time>2026-04-06T14:28:53Z</time></trkpt><trkpt lat="37.15859027785841" lon="14.899206478242393"><ele>486.0</ele><time>2026-04-06T14:28:54Z</time></trkpt><trkpt lat="37.15852197026427" lon="14.899231848724893"><ele>484.33333333333337</ele><time>2026-04-06T14:28:55Z</time></trkpt><trkpt lat="37.15845506074181" lon="14.899258056614805"><ele>482.6666666666667</ele><time>2026-04-06T14:28:56Z</time></trkpt><trkpt lat="37.15839228752464" lon="14.899286603924665"><ele>481.0</ele><time>2026-04-06T14:28:57Z</time></trkpt><trkpt lat="37.15832791210116" lon="14.899316872586905"><ele>480.6</ele><time>2026-04-06T14:28:58Z</time></trkpt><trkpt lat="37.15826649370369" lon="14.899339211971562"><ele>480.20000000000005</ele><time>2026-04-06T14:28:59Z</time></trkpt><trkpt lat="37.15814890385559" lon="14.899371241867522"><ele>479.79999999999995</ele><time>2026-04-06T14:29:01Z</time></trkpt><trkpt lat="37.15803191036312" lon="14.899406215573721"><ele>479.4</ele><time>2026-04-06T14:29:03Z</time></trkpt><trkpt lat="37.15793342190968" lon="14.899437794011563"><ele>479.0</ele><time>2026-04-06T14:29:05Z</time></trkpt><trkpt lat="37.15783562473224" lon="14.89946615586722"><ele>478.16666666666663</ele><time>2026-04-06T14:29:07Z</time></trkpt><trkpt lat="37.15774185401003" lon="14.899489766001222"><ele>477.3333333333333</ele><time>2026-04-06T14:29:09Z</time></trkpt><trkpt lat="37.15765233245087" lon="14.89950285108127"><ele>476.5</ele><time>2026-04-06T14:29:11Z</time></trkpt><trkpt lat="37.15757300388155" lon="14.899512595192862"><ele>475.66666666666663</ele><time>2026-04-06T14:29:13Z</time></trkpt><trkpt lat="37.157501280643736" lon="14.899519858893916"><ele>474.8333333333333</ele><time>2026-04-06T14:29:16Z</time></trkpt><trkpt lat="37.15743636718146" lon="14.899502336182525"><ele>474.0</ele><time>2026-04-06T14:29:29Z</time></trkpt><trkpt lat="37.157364406096534" lon="14.8994599691396"><ele>473.8333333333333</ele><time>2026-04-06T14:29:38Z</time></trkpt><trkpt lat="37.157313472698206" lon="14.899406507344962"><ele>473.66666666666663</ele><time>2026-04-06T14:29:41Z</time></trkpt><trkpt lat="37.15724718651538" lon="14.89933246114663"><ele>473.5</ele><time>2026-04-06T14:29:43Z</time></trkpt><trkpt lat="37.157190201365275" lon="14.899290658958062"><ele>473.3333333333333</ele><time>2026-04-06T14:29:45Z</time></trkpt><trkpt lat="37.1571209306925" lon="14.899231222500548"><ele>473.16666666666663</ele><time>2026-04-06T14:29:48Z</time></trkpt><trkpt lat="37.15711504080249" lon="14.899144258959968"><ele>473.0</ele><time>2026-04-06T14:29:52Z</time></trkpt><trkpt lat="37.15718921945843" lon="14.899119450092131"><ele>473.28571428571433</ele><time>2026-04-06T14:29:56Z</time></trkpt><trkpt lat="37.15722144513872" lon="14.899044749449681"><ele>473.57142857142856</ele><time>2026-04-06T14:30:01Z</time></trkpt><trkpt lat="37.157188730562076" lon="14.898969880278006"><ele>473.8571428571429</ele><time>2026-04-06T14:30:07Z</time></trkpt><trkpt lat="37.15714064794066" lon="14.898891392680943"><ele>474.14285714285717</ele><time>2026-04-06T14:30:14Z</time></trkpt><trkpt lat="37.15717437773083" lon="14.898966032198038"><ele>474.42857142857144</ele><time>2026-04-06T14:30:54Z</time></trkpt><trkpt lat="37.15718261116232" lon="14.899053329310721"><ele>474.7142857142857</ele><time>2026-04-06T14:30:59Z</time></trkpt><trkpt lat="37.157213668383385" lon="14.899125590922514"><ele>475.0</ele><time>2026-04-06T14:32:15Z</time></trkpt><trkpt lat="37.1571537596954" lon="14.899150924767577"><ele>475.00000000000006</ele><time>2026-04-06T14:32:19Z</time></trkpt><trkpt lat="37.157085003457894" lon="14.899190165965924"><ele>475.0</ele><time>2026-04-06T14:35:05Z</time></trkpt><trkpt lat="37.1570224984818" lon="14.899251727009203"><ele>475.0</ele><time>2026-04-06T14:35:07Z</time></trkpt><trkpt lat="37.156966052133455" lon="14.899323641986362"><ele>475.0</ele><time>2026-04-06T14:35:10Z</time></trkpt><trkpt lat="37.15689479635275" lon="14.899367235033939"><ele>475.00000000000006</ele><time>2026-04-06T14:35:14Z</time></trkpt><trkpt lat="37.15679808975741" lon="14.899357013149489"><ele>475.0</ele><time>2026-04-06T14:35:16Z</time></trkpt><trkpt lat="37.15668342559114" lon="14.899347297891053"><ele>475.0</ele><time>2026-04-06T14:35:18Z</time></trkpt><trkpt lat="37.15658130353709" lon="14.89934052443335"><ele>475.0</ele><time>2026-04-06T14:35:20Z</time></trkpt><trkpt lat="37.156488060392384" lon="14.89933851284089"><ele>475.0</ele><time>2026-04-06T14:35:22Z</time></trkpt><trkpt lat="37.15638450977704" lon="14.899325284041575"><ele>475.0</ele><time>2026-04-06T14:35:24Z</time></trkpt><trkpt lat="37.15627825684127" lon="14.899285267091207"><ele>475.0</ele><time>2026-04-06T14:35:26Z</time></trkpt><trkpt lat="37.15618263795974" lon="14.899230332255536"><ele>475.00000000000006</ele><time>2026-04-06T14:35:28Z</time></trkpt><trkpt lat="37.156101247475014" lon="14.899151053750334"><ele>475.0</ele><time>2026-04-06T14:35:30Z</time></trkpt><trkpt lat="37.156046398660955" lon="14.899088661355043"><ele>475.0</ele><time>2026-04-06T14:35:32Z</time></trkpt><trkpt lat="37.155993048108826" lon="14.899031076358712"><ele>475.0</ele><time>2026-04-06T14:35:37Z</time></trkpt><trkpt lat="37.15593793680936" lon="14.899117763152404"><ele>475.00000000000006</ele><time>2026-04-06T14:36:04Z</time></trkpt><trkpt lat="37.15590780626547" lon="14.89920197164935"><ele>475.0</ele><time>2026-04-06T14:36:06Z</time></trkpt><trkpt lat="37.15588990031158" lon="14.899282283903117"><ele>475.00000000000006</ele><time>2026-04-06T14:36:08Z</time></trkpt><trkpt lat="37.15586809710449" lon="14.899373543034212"><ele>475.0</ele><time>2026-04-06T14:36:10Z</time></trkpt><trkpt lat="37.15585019638289" lon="14.899477931458804"><ele>475.0</ele><time>2026-04-06T14:36:11Z</time></trkpt><trkpt lat="37.15582906333459" lon="14.899600511575297"><ele>475.0</ele><time>2026-04-06T14:36:13Z</time></trkpt><trkpt lat="37.155822635118" lon="14.89970438839978"><ele>475.00000000000006</ele><time>2026-04-06T14:36:15Z</time></trkpt><trkpt lat="37.155823612277594" lon="14.899792573660612"><ele>475.0</ele><time>2026-04-06T14:36:17Z</time></trkpt><trkpt lat="37.15582923936188" lon="14.89987846599334"><ele>475.00000000000006</ele><time>2026-04-06T14:36:19Z</time></trkpt><trkpt lat="37.155850265424206" lon="14.899973170188698"><ele>475.0</ele><time>2026-04-06T14:36:22Z</time></trkpt><trkpt lat="37.15578682721629" lon="14.90004789154994"><ele>475.0</ele><time>2026-04-06T14:36:26Z</time></trkpt><trkpt lat="37.15572514072663" lon="14.90009636181367"><ele>475.0</ele><time>2026-04-06T14:36:30Z</time></trkpt><trkpt lat="37.15568481089004" lon="14.90017689499307"><ele>475.00000000000006</ele><time>2026-04-06T14:36:35Z</time></trkpt><trkpt lat="37.1556905054281" lon="14.900260762655337"><ele>475.0</ele><time>2026-04-06T14:36:39Z</time></trkpt><trkpt lat="37.155751164159085" lon="14.90031144902288"><ele>474.28571428571433</ele><time>2026-04-06T14:36:51Z</time></trkpt><trkpt lat="37.155779420575925" lon="14.900398209303901"><ele>473.5714285714286</ele><time>2026-04-06T14:36:55Z</time></trkpt><trkpt lat="37.15581247424847" lon="14.900482489516188"><ele>472.8571428571429</ele><time>2026-04-06T14:37:12Z</time></trkpt><trkpt lat="37.15585854485322" lon="14.900412342986513"><ele>472.1428571428571</ele><time>2026-04-06T14:37:17Z</time></trkpt><trkpt lat="37.155808865346614" lon="14.900324892411083"><ele>471.4285714285714</ele><time>2026-04-06T14:37:20Z</time></trkpt><trkpt lat="37.15575236355231" lon="14.900283163603222"><ele>470.71428571428567</ele><time>2026-04-06T14:37:22Z</time></trkpt><trkpt lat="37.15571378900221" lon="14.900215894306065"><ele>470.0</ele><time>2026-04-06T14:37:25Z</time></trkpt><trkpt lat="37.1557459491083" lon="14.900120777903556"><ele>471.0</ele><time>2026-04-06T14:37:28Z</time></trkpt><trkpt lat="37.15580410415563" lon="14.900040951457266"><ele>472.0</ele><time>2026-04-06T14:37:30Z</time></trkpt><trkpt lat="37.1558388825261" lon="14.899956600762938"><ele>473.0</ele><time>2026-04-06T14:37:32Z</time></trkpt><trkpt lat="37.15584420644683" lon="14.8998502788512"><ele>474.0</ele><time>2026-04-06T14:37:34Z</time></trkpt><trkpt lat="37.155823197032916" lon="14.899702646781357"><ele>475.0</ele><time>2026-04-06T14:37:36Z</time></trkpt><trkpt lat="37.15583338471014" lon="14.899543204564258"><ele>475.00000000000006</ele><time>2026-04-06T14:37:38Z</time></trkpt><trkpt lat="37.15585914823725" lon="14.899397023357777"><ele>475.0</ele><time>2026-04-06T14:37:40Z</time></trkpt><trkpt lat="37.15588402791824" lon="14.899298623459064"><ele>475.0</ele><time>2026-04-06T14:37:42Z</time></trkpt><trkpt lat="37.15590151377706" lon="14.899204116584686"><ele>475.0</ele><time>2026-04-06T14:37:44Z</time></trkpt><trkpt lat="37.15586386544854" lon="14.899116684579926"><ele>475.00000000000006</ele><time>2026-04-06T14:37:48Z</time></trkpt><trkpt lat="37.15578223417849" lon="14.899087044480952"><ele>475.0</ele><time>2026-04-06T14:37:51Z</time></trkpt><trkpt lat="37.15574735248583" lon="14.89901543156637"><ele>475.28571428571433</ele><time>2026-04-06T14:38:20Z</time></trkpt><trkpt lat="37.155709786426144" lon="14.898944591648155"><ele>475.5714285714286</ele><time>2026-04-06T14:38:22Z</time></trkpt><trkpt lat="37.15567061434385" lon="14.898862257714061"><ele>475.8571428571429</ele><time>2026-04-06T14:38:24Z</time></trkpt><trkpt lat="37.1556305848044" lon="14.89878395737614"><ele>476.1428571428571</ele><time>2026-04-06T14:38:26Z</time></trkpt><trkpt lat="37.15558601115432" lon="14.898714733251975"><ele>476.4285714285714</ele><time>2026-04-06T14:38:28Z</time></trkpt><trkpt lat="37.1555426170042" lon="14.89864962309127"><ele>476.71428571428567</ele><time>2026-04-06T14:38:30Z</time></trkpt><trkpt lat="37.15549503242648" lon="14.898583258660846"><ele>477.0</ele><time>2026-04-06T14:38:33Z</time></trkpt><trkpt lat="37.1554444971344" lon="14.898503018939845"><ele>477.0</ele><time>2026-04-06T14:38:36Z</time></trkpt><trkpt lat="37.15537621235076" lon="14.898451686031523"><ele>476.99999999999994</ele><time>2026-04-06T14:38:39Z</time></trkpt><trkpt lat="37.155310469073555" lon="14.898445291837668"><ele>477.0</ele><time>2026-04-06T14:38:44Z</time></trkpt><trkpt lat="37.15536988370882" lon="14.898476896227198"><ele>477.0</ele><time>2026-04-06T14:41:35Z</time></trkpt><trkpt lat="37.155431029285" lon="14.898531211020481"><ele>476.99999999999994</ele><time>2026-04-06T14:41:38Z</time></trkpt><trkpt lat="37.15548440021524" lon="14.898596498320794"><ele>477.0</ele><time>2026-04-06T14:42:20Z</time></trkpt><trkpt lat="37.15552979540818" lon="14.898667039357642"><ele>477.0</ele><time>2026-04-06T14:42:22Z</time></trkpt><trkpt lat="37.15558185456708" lon="14.898746193729842"><ele>477.0</ele><time>2026-04-06T14:42:24Z</time></trkpt><trkpt lat="37.15563557697899" lon="14.89882115605158"><ele>477.0</ele><time>2026-04-06T14:42:26Z</time></trkpt><trkpt lat="37.15570400726799" lon="14.89892722895525"><ele>477.0</ele><time>2026-04-06T14:42:28Z</time></trkpt><trkpt lat="37.15567295699764" lon="14.89900598383175"><ele>477.0</ele><time>2026-04-06T14:42:40Z</time></trkpt><trkpt lat="37.15561270114062" lon="14.89894641329973"><ele>477.0</ele><time>2026-04-06T14:42:43Z</time></trkpt><trkpt lat="37.15555866058586" lon="14.89885058411102"><ele>477.0</ele><time>2026-04-06T14:42:45Z</time></trkpt><trkpt lat="37.155510567560775" lon="14.898782326088268"><ele>477.0</ele><time>2026-04-06T14:42:47Z</time></trkpt><trkpt lat="37.15542551667832" lon="14.89875570691195"><ele>476.99999999999994</ele><time>2026-04-06T14:43:02Z</time></trkpt><trkpt lat="37.15537765227013" lon="14.898812762082942"><ele>477.0</ele><time>2026-04-06T14:43:05Z</time></trkpt><trkpt lat="37.15533614973179" lon="14.898873868265994"><ele>477.0</ele><time>2026-04-06T14:43:13Z</time></trkpt><trkpt lat="37.155290872809424" lon="14.898940071770612"><ele>476.99999999999994</ele><time>2026-04-06T14:43:16Z</time></trkpt><trkpt lat="37.15524105931588" lon="14.89904126384754"><ele>477.0</ele><time>2026-04-06T14:43:18Z</time></trkpt><trkpt lat="37.155208118836825" lon="14.899109751377164"><ele>477.0</ele><time>2026-04-06T14:43:20Z</time></trkpt><trkpt lat="37.15515578303149" lon="14.89920919359077"><ele>476.8333333333333</ele><time>2026-04-06T14:43:23Z</time></trkpt><trkpt lat="37.155100880792034" lon="14.899280863386688"><ele>476.66666666666663</ele><time>2026-04-06T14:43:25Z</time></trkpt><trkpt lat="37.15503341817608" lon="14.899340549488095"><ele>476.5</ele><time>2026-04-06T14:43:27Z</time></trkpt><trkpt lat="37.154960766794225" lon="14.899369741389066"><ele>476.3333333333333</ele><time>2026-04-06T14:43:29Z</time></trkpt><trkpt lat="37.15487525725783" lon="14.899371233886392"><ele>476.16666666666663</ele><time>2026-04-06T14:43:31Z</time></trkpt><trkpt lat="37.15477048155177" lon="14.899398870852039"><ele>476.0</ele><time>2026-04-06T14:43:33Z</time></trkpt><trkpt lat="37.15466299888219" lon="14.899429204092339"><ele>476.0</ele><time>2026-04-06T14:43:35Z</time></trkpt><trkpt lat="37.15454884157056" lon="14.899459342999226"><ele>476.0</ele><time>2026-04-06T14:43:37Z</time></trkpt><trkpt lat="37.15444313894678" lon="14.89950066026847"><ele>476.0</ele><time>2026-04-06T14:43:39Z</time></trkpt><trkpt lat="37.15435126982062" lon="14.899526433310962"><ele>476.0</ele><time>2026-04-06T14:43:41Z</time></trkpt><trkpt lat="37.15427098523625" lon="14.899527852282834"><ele>476.0</ele><time>2026-04-06T14:43:43Z</time></trkpt><trkpt lat="37.15418327265078" lon="14.899533662153678"><ele>476.0</ele><time>2026-04-06T14:43:45Z</time></trkpt><trkpt lat="37.15409054413903" lon="14.899529941664456"><ele>476.0</ele><time>2026-04-06T14:43:47Z</time></trkpt><trkpt lat="37.15397402547819" lon="14.899511482782046"><ele>476.0</ele><time>2026-04-06T14:43:49Z</time></trkpt><trkpt lat="37.15386351057582" lon="14.899516455240873"><ele>476.0</ele><time>2026-04-06T14:43:51Z</time></trkpt><trkpt lat="37.15376008650313" lon="14.89954447858086"><ele>476.0</ele><time>2026-04-06T14:43:53Z</time></trkpt><trkpt lat="37.15365266712015" lon="14.899576876074695"><ele>475.8333333333333</ele><time>2026-04-06T14:43:55Z</time></trkpt><trkpt lat="37.153570290544394" lon="14.899578950616025"><ele>475.66666666666663</ele><time>2026-04-06T14:43:57Z</time></trkpt><trkpt lat="37.15348362992883" lon="14.899564097259029"><ele>475.5</ele><time>2026-04-06T14:44:00Z</time></trkpt><trkpt lat="37.15340377581248" lon="14.899565958478664"><ele>475.33333333333337</ele><time>2026-04-06T14:44:04Z</time></trkpt><trkpt lat="37.15333567102849" lon="14.899616140119006"><ele>475.1666666666667</ele><time>2026-04-06T14:44:08Z</time></trkpt><trkpt lat="37.15324648664254" lon="14.89962630992666"><ele>475.0</ele><time>2026-04-06T14:44:11Z</time></trkpt><trkpt lat="37.15316835624065" lon="14.899624364170704"><ele>474.33333333333337</ele><time>2026-04-06T14:44:13Z</time></trkpt><trkpt lat="37.1530862226057" lon="14.89963260236715"><ele>473.6666666666667</ele><time>2026-04-06T14:44:15Z</time></trkpt><trkpt lat="37.15301116109252" lon="14.899644297511003"><ele>473.0</ele><time>2026-04-06T14:44:17Z</time></trkpt><trkpt lat="37.15292851679213" lon="14.899656909716512"><ele>472.33333333333337</ele><time>2026-04-06T14:44:19Z</time></trkpt><trkpt lat="37.15284424490759" lon="14.899659555777156"><ele>471.6666666666667</ele><time>2026-04-06T14:44:21Z</time></trkpt><trkpt lat="37.15275859294762" lon="14.899645452167466"><ele>471.0</ele><time>2026-04-06T14:44:23Z</time></trkpt><trkpt lat="37.15267214280116" lon="14.899629931931685"><ele>471.0</ele><time>2026-04-06T14:44:25Z</time></trkpt><trkpt lat="37.1525920521885" lon="14.899624463759833"><ele>471.0</ele><time>2026-04-06T14:44:27Z</time></trkpt><trkpt lat="37.152502295013" lon="14.899606517783797"><ele>471.0</ele><time>2026-04-06T14:44:30Z</time></trkpt><trkpt lat="37.15244171315178" lon="14.899559314923573"><ele>471.0</ele><time>2026-04-06T14:44:32Z</time></trkpt><trkpt lat="37.152375288829596" lon="14.899472947095635"><ele>471.0</ele><time>2026-04-06T14:44:34Z</time></trkpt><trkpt lat="37.152319303423866" lon="14.899386050594558"><ele>471.0</ele><time>2026-04-06T14:44:36Z</time></trkpt><trkpt lat="37.15224830935112" lon="14.89933618107283"><ele>471.3333333333333</ele><time>2026-04-06T14:44:38Z</time></trkpt><trkpt lat="37.152154605228475" lon="14.89932364670886"><ele>471.66666666666663</ele><time>2026-04-06T14:44:40Z</time></trkpt><trkpt lat="37.15207185928193" lon="14.899335397886038"><ele>472.0</ele><time>2026-04-06T14:44:42Z</time></trkpt><trkpt lat="37.152005300088234" lon="14.89939352701375"><ele>472.3333333333333</ele><time>2026-04-06T14:44:44Z</time></trkpt><trkpt lat="37.15195121034885" lon="14.899449822330224"><ele>472.66666666666663</ele><time>2026-04-06T14:44:46Z</time></trkpt><trkpt lat="37.15190215865078" lon="14.899504605297459"><ele>473.0</ele><time>2026-04-06T14:44:48Z</time></trkpt><trkpt lat="37.15187087024147" lon="14.899581052193648"><ele>473.0</ele><time>2026-04-06T14:44:50Z</time></trkpt><trkpt lat="37.1518366612492" lon="14.899656131319066"><ele>473.0</ele><time>2026-04-06T14:44:52Z</time></trkpt><trkpt lat="37.15180026613759" lon="14.899735479922265"><ele>473.0</ele><time>2026-04-06T14:44:54Z</time></trkpt><trkpt lat="37.15175784718188" lon="14.899797260707123"><ele>473.0</ele><time>2026-04-06T14:44:56Z</time></trkpt><trkpt lat="37.15168312974307" lon="14.89984353810721"><ele>473.0</ele><time>2026-04-06T14:44:59Z</time></trkpt><trkpt lat="37.15161208537743" lon="14.89983223897289"><ele>473.0</ele><time>2026-04-06T14:45:03Z</time></trkpt><trkpt lat="37.15154795698072" lon="14.89976798524204"><ele>473.0</ele><time>2026-04-06T14:45:21Z</time></trkpt><trkpt lat="37.15148700502351" lon="14.899733372351117"><ele>474.49999999999994</ele><time>2026-04-06T14:45:30Z</time></trkpt><trkpt lat="37.151401527723905" lon="14.899735938812519"><ele>476.0</ele><time>2026-04-06T14:45:46Z</time></trkpt><trkpt lat="37.15133460200857" lon="14.899693513105627"><ele>477.5</ele><time>2026-04-06T14:45:48Z</time></trkpt><trkpt lat="37.151248002426065" lon="14.89966886384574"><ele>479.0</ele><time>2026-04-06T14:47:36Z</time></trkpt><trkpt lat="37.15115914619084" lon="14.899617930340534"><ele>480.49999999999994</ele><time>2026-04-06T14:47:38Z</time></trkpt><trkpt lat="37.1510744641698" lon="14.899620504986066"><ele>482.0</ele><time>2026-04-06T14:47:40Z</time></trkpt><trkpt lat="37.150988320317104" lon="14.899654627395712"><ele>481.99999999999994</ele><time>2026-04-06T14:47:42Z</time></trkpt><trkpt lat="37.15093797755163" lon="14.89972607465471"><ele>482.0</ele><time>2026-04-06T14:47:44Z</time></trkpt><trkpt lat="37.15093190610045" lon="14.89985123418603"><ele>482.0</ele><time>2026-04-06T14:47:46Z</time></trkpt><trkpt lat="37.150934194839216" lon="14.899956757137463"><ele>482.0</ele><time>2026-04-06T14:47:48Z</time></trkpt><trkpt lat="37.15088334073675" lon="14.900009522553601"><ele>481.99999999999994</ele><time>2026-04-06T14:47:50Z</time></trkpt><trkpt lat="37.15079225145988" lon="14.900002610530702"><ele>482.0</ele><time>2026-04-06T14:47:52Z</time></trkpt><trkpt lat="37.15068178495422" lon="14.899984161352146"><ele>483.66666666666663</ele><time>2026-04-06T14:47:54Z</time></trkpt><trkpt lat="37.15057590132029" lon="14.90001525779107"><ele>485.3333333333333</ele><time>2026-04-06T14:47:56Z</time></trkpt><trkpt lat="37.15048718745834" lon="14.900085599340557"><ele>487.0</ele><time>2026-04-06T14:47:58Z</time></trkpt><trkpt lat="37.15044912794363" lon="14.900158495538234"><ele>488.66666666666663</ele><time>2026-04-06T14:48:01Z</time></trkpt><trkpt lat="37.150494381428075" lon="14.900095989965726"><ele>490.3333333333333</ele><time>2026-04-06T14:50:14Z</time></trkpt><trkpt lat="37.1505583390802" lon="14.900045083639451"><ele>492.0</ele><time>2026-04-06T14:50:52Z</time></trkpt><trkpt lat="37.15065654840911" lon="14.899991337508988"><ele>490.3333333333333</ele><time>2026-04-06T14:50:54Z</time></trkpt><trkpt lat="37.150726555852735" lon="14.899989956513979"><ele>488.66666666666663</ele><time>2026-04-06T14:50:56Z</time></trkpt><trkpt lat="37.15080487988157" lon="14.900001228684463"><ele>487.0</ele><time>2026-04-06T14:50:59Z</time></trkpt><trkpt lat="37.15087868977785" lon="14.900003406295099"><ele>485.3333333333333</ele><time>2026-04-06T14:51:03Z</time></trkpt><trkpt lat="37.15094103490834" lon="14.899965452485562"><ele>483.66666666666663</ele><time>2026-04-06T14:51:07Z</time></trkpt><trkpt lat="37.150943533835665" lon="14.899859531690904"><ele>482.0</ele><time>2026-04-06T14:51:10Z</time></trkpt><trkpt lat="37.1509376446746" lon="14.899739826136805"><ele>481.99999999999994</ele><time>2026-04-06T14:51:13Z</time></trkpt><trkpt lat="37.15099104974062" lon="14.899646390934292"><ele>482.0</ele><time>2026-04-06T14:51:16Z</time></trkpt><trkpt lat="37.1510593541752" lon="14.899620201156637"><ele>482.0</ele><time>2026-04-06T14:51:18Z</time></trkpt><trkpt lat="37.151141203911244" lon="14.899609234394093"><ele>482.0</ele><time>2026-04-06T14:51:21Z</time></trkpt><trkpt lat="37.151233454884384" lon="14.899636716294383"><ele>481.99999999999994</ele><time>2026-04-06T14:51:24Z</time></trkpt><trkpt lat="37.15129441094323" lon="14.89967961706334"><ele>482.0</ele><time>2026-04-06T14:51:26Z</time></trkpt><trkpt lat="37.151355451272366" lon="14.899715539836361"><ele>482.0</ele><time>2026-04-06T14:51:29Z</time></trkpt><trkpt lat="37.15141746175996" lon="14.899733034492368"><ele>482.00000000000006</ele><time>2026-04-06T14:51:46Z</time></trkpt><trkpt lat="37.151491979622016" lon="14.899737198166891"><ele>482.0</ele><time>2026-04-06T14:51:51Z</time></trkpt><trkpt lat="37.151559615257" lon="14.899764263773209"><ele>482.0</ele><time>2026-04-06T14:51:54Z</time></trkpt><trkpt lat="37.15162172783566" lon="14.899833215657434"><ele>482.00000000000006</ele><time>2026-04-06T14:51:56Z</time></trkpt><trkpt lat="37.15169959033658" lon="14.89985862602494"><ele>482.0</ele><time>2026-04-06T14:51:59Z</time></trkpt><trkpt lat="37.15175712938749" lon="14.899821929627239"><ele>482.0</ele><time>2026-04-06T14:54:26Z</time></trkpt><trkpt lat="37.1518171646208" lon="14.899754632692819"><ele>480.49999999999994</ele><time>2026-04-06T14:54:28Z</time></trkpt><trkpt lat="37.151860758068906" lon="14.899653606138871"><ele>479.0</ele><time>2026-04-06T14:54:30Z</time></trkpt><trkpt lat="37.151898343378946" lon="14.899560033030212"><ele>477.5</ele><time>2026-04-06T14:54:32Z</time></trkpt><trkpt lat="37.151942543160416" lon="14.89947001260357"><ele>476.0</ele><time>2026-04-06T14:54:34Z</time></trkpt><trkpt lat="37.152005945625234" lon="14.89940934425467"><ele>474.49999999999994</ele><time>2026-04-06T14:54:36Z</time></trkpt><trkpt lat="37.15207434657975" lon="14.899352269647029"><ele>473.0</ele><time>2026-04-06T14:54:38Z</time></trkpt><trkpt lat="37.15214840176997" lon="14.899323338937737"><ele>472.99999999999994</ele><time>2026-04-06T14:54:40Z</time></trkpt><trkpt lat="37.15222880781891" lon="14.89933707985134"><ele>473.0</ele><time>2026-04-06T14:54:42Z</time></trkpt><trkpt lat="37.152312373423904" lon="14.899378309209848"><ele>473.0</ele><time>2026-04-06T14:54:44Z</time></trkpt><trkpt lat="37.152378514566614" lon="14.89946244919883"><ele>473.0</ele><time>2026-04-06T14:54:46Z</time></trkpt><trkpt lat="37.15243757386258" lon="14.899555343233363"><ele>472.99999999999994</ele><time>2026-04-06T14:54:48Z</time></trkpt><trkpt lat="37.15250715479356" lon="14.899615629159637"><ele>473.0</ele><time>2026-04-06T14:54:50Z</time></trkpt><trkpt lat="37.15259962627082" lon="14.899639092179799"><ele>472.59999999999997</ele><time>2026-04-06T14:54:52Z</time></trkpt><trkpt lat="37.15271017218196" lon="14.899651553801613"><ele>472.19999999999993</ele><time>2026-04-06T14:54:54Z</time></trkpt><trkpt lat="37.152811514030674" lon="14.89965813997405"><ele>471.8</ele><time>2026-04-06T14:54:56Z</time></trkpt><trkpt lat="37.152910288370926" lon="14.899664719431058"><ele>471.4</ele><time>2026-04-06T14:54:58Z</time></trkpt><trkpt lat="37.15301580335439" lon="14.899652651476632"><ele>471.0</ele><time>2026-04-06T14:55:00Z</time></trkpt><trkpt lat="37.15311497515985" lon="14.899634335756279"><ele>471.0</ele><time>2026-04-06T14:55:02Z</time></trkpt><trkpt lat="37.15322001890052" lon="14.899638704225806"><ele>471.0</ele><time>2026-04-06T14:55:04Z</time></trkpt><trkpt lat="37.15331909231349" lon="14.899629631918254"><ele>471.0</ele><time>2026-04-06T14:55:06Z</time></trkpt><trkpt lat="37.15338286805151" lon="14.89958488941211"><ele>471.0</ele><time>2026-04-06T14:55:09Z</time></trkpt><trkpt lat="37.15331804848328" lon="14.899524830656826"><ele>471.0</ele><time>2026-04-06T14:55:55Z</time></trkpt><trkpt lat="37.1531895384385" lon="14.899484363281827"><ele>471.0</ele><time>2026-04-06T14:55:57Z</time></trkpt><trkpt lat="37.1531301108527" lon="14.89945740537833"><ele>471.0</ele><time>2026-04-06T14:55:58Z</time></trkpt><trkpt lat="37.15302301354686" lon="14.8993979272273"><ele>471.0</ele><time>2026-04-06T14:56:00Z</time></trkpt><trkpt lat="37.15291204330071" lon="14.899323746542912"><ele>471.0</ele><time>2026-04-06T14:56:02Z</time></trkpt><trkpt lat="37.15285105275713" lon="14.899292973068082"><ele>471.0</ele><time>2026-04-06T14:56:03Z</time></trkpt><trkpt lat="37.15278967007408" lon="14.899267393593977"><ele>471.0</ele><time>2026-04-06T14:56:04Z</time></trkpt><trkpt lat="37.15267585490516" lon="14.89920068409373"><ele>473.75</ele><time>2026-04-06T14:56:06Z</time></trkpt><trkpt lat="37.15256537828982" lon="14.899130293469645"><ele>476.5</ele><time>2026-04-06T14:56:08Z</time></trkpt><trkpt lat="37.15245940076626" lon="14.899070286209758"><ele>479.25</ele><time>2026-04-06T14:56:10Z</time></trkpt><trkpt lat="37.152362432357634" lon="14.899035631912188"><ele>482.0</ele><time>2026-04-06T14:56:12Z</time></trkpt><trkpt lat="37.152248965824974" lon="14.899003970234185"><ele>482.0</ele><time>2026-04-06T14:56:14Z</time></trkpt><trkpt lat="37.152135167005085" lon="14.898971294003443"><ele>482.00000000000006</ele><time>2026-04-06T14:56:16Z</time></trkpt><trkpt lat="37.152007954719004" lon="14.898917249945713"><ele>482.00000000000006</ele><time>2026-04-06T14:56:18Z</time></trkpt><trkpt lat="37.151937523714714" lon="14.898888324910315"><ele>482.0</ele><time>2026-04-06T14:56:19Z</time></trkpt><trkpt lat="37.151872919947905" lon="14.898864531939248"><ele>482.0</ele><time>2026-04-06T14:56:20Z</time></trkpt><trkpt lat="37.15176198317199" lon="14.898828214781238"><ele>482.0</ele><time>2026-04-06T14:56:22Z</time></trkpt><trkpt lat="37.151659755358935" lon="14.898781690418891"><ele>482.00000000000006</ele><time>2026-04-06T14:56:24Z</time></trkpt><trkpt lat="37.151574947658986" lon="14.898731727239257"><ele>482.00000000000006</ele><time>2026-04-06T14:56:26Z</time></trkpt><trkpt lat="37.15147266670086" lon="14.898666095396434"><ele>482.0</ele><time>2026-04-06T14:56:28Z</time></trkpt><trkpt lat="37.15137923218856" lon="14.898607665084945"><ele>482.0</ele><time>2026-04-06T14:56:30Z</time></trkpt><trkpt lat="37.15128863356811" lon="14.89856456388722"><ele>482.0</ele><time>2026-04-06T14:56:32Z</time></trkpt><trkpt lat="37.15119718367953" lon="14.898510938471318"><ele>482.00000000000006</ele><time>2026-04-06T14:56:34Z</time></trkpt><trkpt lat="37.151101745031" lon="14.89844988685385"><ele>482.00000000000006</ele><time>2026-04-06T14:56:36Z</time></trkpt><trkpt lat="37.15101067227116" lon="14.898399750042735"><ele>482.0</ele><time>2026-04-06T14:56:38Z</time></trkpt><trkpt lat="37.1509027752856" lon="14.89837110332687"><ele>482.0</ele><time>2026-04-06T14:56:40Z</time></trkpt><trkpt lat="37.15079119722853" lon="14.898324384393177"><ele>484.6</ele><time>2026-04-06T14:56:42Z</time></trkpt><trkpt lat="37.150678026812066" lon="14.898274641044036"><ele>487.20000000000005</ele><time>2026-04-06T14:56:44Z</time></trkpt><trkpt lat="37.15057748823945" lon="14.898245262683567"><ele>489.8</ele><time>2026-04-06T14:56:46Z</time></trkpt><trkpt lat="37.15047616975425" lon="14.89822601091088"><ele>492.4</ele><time>2026-04-06T14:56:48Z</time></trkpt><trkpt lat="37.15036131381516" lon="14.898233049111418"><ele>495.0</ele><time>2026-04-06T14:56:50Z</time></trkpt><trkpt lat="37.150255108491976" lon="14.898229723002164"><ele>495.0</ele><time>2026-04-06T14:56:52Z</time></trkpt><trkpt lat="37.15017760488912" lon="14.89822703116477"><ele>495.0</ele><time>2026-04-06T14:56:54Z</time></trkpt><trkpt lat="37.150094537280104" lon="14.898199258057184"><ele>495.0</ele><time>2026-04-06T14:56:57Z</time></trkpt><trkpt lat="37.15002313943518" lon="14.898129431316212"><ele>495.0</ele><time>2026-04-06T14:57:00Z</time></trkpt><trkpt lat="37.14994793800915" lon="14.898015267586741"><ele>495.0</ele><time>2026-04-06T14:57:02Z</time></trkpt><trkpt lat="37.14986416638101" lon="14.897926888231087"><ele>494.4</ele><time>2026-04-06T14:57:04Z</time></trkpt><trkpt lat="37.14977830300211" lon="14.897849988550922"><ele>493.8</ele><time>2026-04-06T14:57:06Z</time></trkpt><trkpt lat="37.149696782246366" lon="14.897770894834704"><ele>493.20000000000005</ele><time>2026-04-06T14:57:08Z</time></trkpt><trkpt lat="37.14961653823389" lon="14.89768838088296"><ele>492.6</ele><time>2026-04-06T14:57:10Z</time></trkpt><trkpt lat="37.149533022385796" lon="14.89761104216967"><ele>492.0</ele><time>2026-04-06T14:57:12Z</time></trkpt><trkpt lat="37.14944936318759" lon="14.897536162951532"><ele>493.8</ele><time>2026-04-06T14:57:14Z</time></trkpt><trkpt lat="37.14935881519495" lon="14.897454269293094"><ele>495.6</ele><time>2026-04-06T14:57:16Z</time></trkpt><trkpt lat="37.14927770638249" lon="14.897374043550501"><ele>497.40000000000003</ele><time>2026-04-06T14:57:18Z</time></trkpt><trkpt lat="37.14921330730105" lon="14.897316484977768"><ele>499.20000000000005</ele><time>2026-04-06T14:57:21Z</time></trkpt><trkpt lat="37.149154308849575" lon="14.897270294184542"><ele>501.0</ele><time>2026-04-06T14:57:25Z</time></trkpt><trkpt lat="37.14907066816185" lon="14.897238536158818"><ele>500.5</ele><time>2026-04-06T14:57:28Z</time></trkpt><trkpt lat="37.14900957662064" lon="14.897219420852357"><ele>500.0</ele><time>2026-04-06T14:57:30Z</time></trkpt><trkpt lat="37.14892778697283" lon="14.897225080962192"><ele>499.5</ele><time>2026-04-06T14:57:33Z</time></trkpt><trkpt lat="37.148848518760225" lon="14.8972221777332"><ele>499.0</ele><time>2026-04-06T14:57:37Z</time></trkpt><trkpt lat="37.14877137312022" lon="14.89720784369126"><ele>498.5</ele><time>2026-04-06T14:57:40Z</time></trkpt><trkpt lat="37.14871269065269" lon="14.897149071189478"><ele>498.0</ele><time>2026-04-06T14:57:42Z</time></trkpt><trkpt lat="37.14864897978417" lon="14.897090417841634"><ele>498.0</ele><time>2026-04-06T14:57:44Z</time></trkpt><trkpt lat="37.148583422271415" lon="14.897044427709416"><ele>498.0</ele><time>2026-04-06T14:57:46Z</time></trkpt><trkpt lat="37.148501754709244" lon="14.897020557307195"><ele>498.0</ele><time>2026-04-06T14:57:48Z</time></trkpt><trkpt lat="37.148412991047515" lon="14.897022247741223"><ele>498.0</ele><time>2026-04-06T14:57:50Z</time></trkpt><trkpt lat="37.1483327114102" lon="14.897007500265842"><ele>498.0</ele><time>2026-04-06T14:57:52Z</time></trkpt><trkpt lat="37.14825639411864" lon="14.896992790201544"><ele>498.0</ele><time>2026-04-06T14:57:54Z</time></trkpt><trkpt lat="37.148182043412945" lon="14.896987482022842"><ele>499.79999999999995</ele><time>2026-04-06T14:57:56Z</time></trkpt><trkpt lat="37.1481103830123" lon="14.896984135599919"><ele>501.59999999999997</ele><time>2026-04-06T14:57:58Z</time></trkpt><trkpt lat="37.14802517668795" lon="14.896987940026053"><ele>503.40000000000003</ele><time>2026-04-06T14:58:01Z</time></trkpt><trkpt lat="37.14792067756293" lon="14.896993300333664"><ele>505.20000000000005</ele><time>2026-04-06T14:58:03Z</time></trkpt><trkpt lat="37.14780270933095" lon="14.897013565322881"><ele>507.0</ele><time>2026-04-06T14:58:05Z</time></trkpt><trkpt lat="37.14768066567152" lon="14.897074741790275"><ele>507.0</ele><time>2026-04-06T14:58:07Z</time></trkpt><trkpt lat="37.14762003328098" lon="14.897104152835698"><ele>507.0</ele><time>2026-04-06T14:58:08Z</time></trkpt><trkpt lat="37.147505584444175" lon="14.897156704578753"><ele>507.0</ele><time>2026-04-06T14:58:10Z</time></trkpt><trkpt lat="37.147444663057165" lon="14.897184000085824"><ele>507.0</ele><time>2026-04-06T14:58:11Z</time></trkpt><trkpt lat="37.14733582521954" lon="14.89726163490864"><ele>507.0</ele><time>2026-04-06T14:58:13Z</time></trkpt><trkpt lat="37.147283111110674" lon="14.897305332197542"><ele>507.0</ele><time>2026-04-06T14:58:14Z</time></trkpt><trkpt lat="37.14718858488571" lon="14.897359114215517"><ele>510.0</ele><time>2026-04-06T14:58:16Z</time></trkpt><trkpt lat="37.14708075248932" lon="14.89738260359727"><ele>513.0</ele><time>2026-04-06T14:58:18Z</time></trkpt><trkpt lat="37.146963017535484" lon="14.897372322501331"><ele>516.0</ele><time>2026-04-06T14:58:20Z</time></trkpt><trkpt lat="37.14684808123338" lon="14.89737905029992"><ele>519.0</ele><time>2026-04-06T14:58:22Z</time></trkpt><trkpt lat="37.14674908496758" lon="14.897405250850852"><ele>522.0</ele><time>2026-04-06T14:58:24Z</time></trkpt><trkpt lat="37.14666940105731" lon="14.89738270039089"><ele>522.0</ele><time>2026-04-06T14:58:26Z</time></trkpt><trkpt lat="37.14659604971655" lon="14.897289421374445"><ele>522.0</ele><time>2026-04-06T14:58:28Z</time></trkpt><trkpt lat="37.14655992675347" lon="14.897223863274585"><ele>522.0</ele><time>2026-04-06T14:58:29Z</time></trkpt><trkpt lat="37.146476439533764" lon="14.89713544034845"><ele>522.0</ele><time>2026-04-06T14:58:31Z</time></trkpt><trkpt lat="37.146399385049214" lon="14.897147567550723"><ele>522.0</ele><time>2026-04-06T14:58:33Z</time></trkpt><trkpt lat="37.14639652923246" lon="14.897238254646938"><ele>522.0</ele><time>2026-04-06T14:58:35Z</time></trkpt><trkpt lat="37.14643757845696" lon="14.897365399701664"><ele>523.0</ele><time>2026-04-06T14:58:37Z</time></trkpt><trkpt lat="37.14645194090884" lon="14.897488766793092"><ele>524.0</ele><time>2026-04-06T14:58:40Z</time></trkpt><trkpt lat="37.14644160384634" lon="14.897595684584669"><ele>525.0</ele><time>2026-04-06T14:58:42Z</time></trkpt><trkpt lat="37.14642816985476" lon="14.897677489402875"><ele>526.0</ele><time>2026-04-06T14:58:45Z</time></trkpt><trkpt lat="37.14639018281776" lon="14.89776682783422"><ele>527.0</ele><time>2026-04-06T14:58:48Z</time></trkpt><trkpt lat="37.14634299786522" lon="14.897830664220757"><ele>528.0</ele><time>2026-04-06T14:58:50Z</time></trkpt><trkpt lat="37.146258769653265" lon="14.89788011450563"><ele>528.0</ele><time>2026-04-06T14:58:52Z</time></trkpt><trkpt lat="37.14619154465633" lon="14.897900438744147"><ele>528.0</ele><time>2026-04-06T14:58:54Z</time></trkpt><trkpt lat="37.14613761862105" lon="14.897855530892853"><ele>528.0</ele><time>2026-04-06T14:58:56Z</time></trkpt><trkpt lat="37.146107608243156" lon="14.897722276120474"><ele>528.0</ele><time>2026-04-06T14:58:58Z</time></trkpt><trkpt lat="37.146062767424596" lon="14.897575460463601"><ele>528.0</ele><time>2026-04-06T14:59:00Z</time></trkpt><trkpt lat="37.145991713696155" lon="14.897444619971594"><ele>529.6666666666666</ele><time>2026-04-06T14:59:02Z</time></trkpt><trkpt lat="37.14594740619583" lon="14.8973849907494"><ele>531.3333333333334</ele><time>2026-04-06T14:59:03Z</time></trkpt><trkpt lat="37.14590383756938" lon="14.897321998539713"><ele>533.0</ele><time>2026-04-06T14:59:04Z</time></trkpt><trkpt lat="37.14586201190165" lon="14.897261070807167"><ele>534.6666666666667</ele><time>2026-04-06T14:59:05Z</time></trkpt><trkpt lat="37.1457905313284" lon="14.89714656356419"><ele>536.3333333333334</ele><time>2026-04-06T14:59:07Z</time></trkpt><trkpt lat="37.1457166809682" lon="14.897031070055993"><ele>538.0</ele><time>2026-04-06T14:59:09Z</time></trkpt><trkpt lat="37.14565030388238" lon="14.89690974215504"><ele>540.0</ele><time>2026-04-06T14:59:11Z</time></trkpt><trkpt lat="37.145592511303114" lon="14.896781758201922"><ele>542.0</ele><time>2026-04-06T14:59:13Z</time></trkpt><trkpt lat="37.14558065478457" lon="14.896703005051286"><ele>544.0</ele><time>2026-04-06T14:59:14Z</time></trkpt><trkpt lat="37.1455213405703" lon="14.896571070407706"><ele>546.0</ele><time>2026-04-06T14:59:16Z</time></trkpt><trkpt lat="37.14546351274761" lon="14.89645642442291"><ele>548.0</ele><time>2026-04-06T14:59:18Z</time></trkpt><trkpt lat="37.14540118488551" lon="14.89632693125091"><ele>550.75</ele><time>2026-04-06T14:59:20Z</time></trkpt><trkpt lat="37.14532859850098" lon="14.89620136654588"><ele>553.5</ele><time>2026-04-06T14:59:22Z</time></trkpt><trkpt lat="37.1452606192194" lon="14.89607770300652"><ele>556.25</ele><time>2026-04-06T14:59:24Z</time></trkpt><trkpt lat="37.145198689436185" lon="14.895954024016826"><ele>559.0</ele><time>2026-04-06T14:59:26Z</time></trkpt><trkpt lat="37.14515761943974" lon="14.895826743144994"><ele>559.0</ele><time>2026-04-06T14:59:28Z</time></trkpt><trkpt lat="37.14511027273173" lon="14.895742887983234"><ele>559.0</ele><time>2026-04-06T14:59:30Z</time></trkpt><trkpt lat="37.145157274906815" lon="14.895824381305662"><ele>559.0</ele><time>2026-04-06T15:01:23Z</time></trkpt><trkpt lat="37.145202566775126" lon="14.895924502584203"><ele>559.0</ele><time>2026-04-06T15:01:25Z</time></trkpt><trkpt lat="37.14524646720348" lon="14.896020297761575"><ele>559.0</ele><time>2026-04-06T15:01:27Z</time></trkpt><trkpt lat="37.14528539554728" lon="14.896096666996794"><ele>559.0</ele><time>2026-04-06T15:01:30Z</time></trkpt><trkpt lat="37.14496788433514" lon="14.896471894523588"><ele>559.0</ele><time>2026-04-06T15:01:35Z</time></trkpt><trkpt lat="37.14489473519888" lon="14.896495404755793"><ele>559.0</ele><time>2026-04-06T15:01:36Z</time></trkpt><trkpt lat="37.144811389030465" lon="14.896566611702513"><ele>559.0</ele><time>2026-04-06T15:01:38Z</time></trkpt><trkpt lat="37.14471539687017" lon="14.896616058531976"><ele>559.0</ele><time>2026-04-06T15:01:40Z</time></trkpt><trkpt lat="37.1446136585928" lon="14.896652060941461"><ele>559.0</ele><time>2026-04-06T15:01:42Z</time></trkpt><trkpt lat="37.14451303172283" lon="14.89667649451922"><ele>561.6</ele><time>2026-04-06T15:01:44Z</time></trkpt><trkpt lat="37.144417309634555" lon="14.896686085601702"><ele>564.2</ele><time>2026-04-06T15:01:46Z</time></trkpt><trkpt lat="37.14431653538995" lon="14.8966730958106"><ele>566.8000000000001</ele><time>2026-04-06T15:01:48Z</time></trkpt><trkpt lat="37.14421083127451" lon="14.896675060359811"><ele>569.4</ele><time>2026-04-06T15:01:50Z</time></trkpt><trkpt lat="37.14409882289754" lon="14.896685182242308"><ele>572.0</ele><time>2026-04-06T15:01:52Z</time></trkpt><trkpt lat="37.14398378821852" lon="14.896676254012231"><ele>573.6666666666666</ele><time>2026-04-06T15:01:54Z</time></trkpt><trkpt lat="37.14386484850406" lon="14.896632907174736"><ele>575.3333333333333</ele><time>2026-04-06T15:01:56Z</time></trkpt><trkpt lat="37.143802172556114" lon="14.896625084900375"><ele>577.0</ele><time>2026-04-06T15:01:57Z</time></trkpt><trkpt lat="37.14373820277861" lon="14.8966401334045"><ele>578.6666666666666</ele><time>2026-04-06T15:01:58Z</time></trkpt><trkpt lat="37.14367416480429" lon="14.8966481803826"><ele>580.3333333333334</ele><time>2026-04-06T15:01:59Z</time></trkpt><trkpt lat="37.14355758100334" lon="14.896632913473512"><ele>582.0</ele><time>2026-04-06T15:02:01Z</time></trkpt><trkpt lat="37.143465401518625" lon="14.89663467736528"><ele>582.0</ele><time>2026-04-06T15:02:03Z</time></trkpt><trkpt lat="37.14336780582406" lon="14.896649852550247"><ele>582.0</ele><time>2026-04-06T15:02:05Z</time></trkpt><trkpt lat="37.14326444234632" lon="14.896599889183992"><ele>582.0</ele><time>2026-04-06T15:02:07Z</time></trkpt><trkpt lat="37.143162582084706" lon="14.896558238400878"><ele>582.0</ele><time>2026-04-06T15:02:09Z</time></trkpt><trkpt lat="37.14309360358525" lon="14.896540128766318"><ele>582.0</ele><time>2026-04-06T15:02:11Z</time></trkpt><trkpt lat="37.143016932126145" lon="14.896491168739024"><ele>581.6666666666666</ele><time>2026-04-06T15:03:00Z</time></trkpt><trkpt lat="37.142956032977615" lon="14.896463079595762"><ele>581.3333333333334</ele><time>2026-04-06T15:03:01Z</time></trkpt><trkpt lat="37.14283685547022" lon="14.896431890493359"><ele>581.0</ele><time>2026-04-06T15:03:03Z</time></trkpt><trkpt lat="37.14277525355248" lon="14.89638471155398"><ele>580.6666666666667</ele><time>2026-04-06T15:03:04Z</time></trkpt><trkpt lat="37.14270453959081" lon="14.89635437884963"><ele>580.3333333333334</ele><time>2026-04-06T15:03:05Z</time></trkpt><trkpt lat="37.142631986973" lon="14.896323257459303"><ele>580.0</ele><time>2026-04-06T15:03:06Z</time></trkpt><trkpt lat="37.14255244340178" lon="14.896310689624054"><ele>580.0</ele><time>2026-04-06T15:03:06.999Z</time></trkpt><trkpt lat="37.14248194032751" lon="14.8962761057769"><ele>580.0</ele><time>2026-04-06T15:03:07.999Z</time></trkpt><trkpt lat="37.14237191049981" lon="14.896211887035292"><ele>580.0</ele><time>2026-04-06T15:03:09.999Z</time></trkpt><trkpt lat="37.14230795171419" lon="14.89620564436023"><ele>580.0</ele><time>2026-04-06T15:03:10.999Z</time></trkpt><trkpt lat="37.14219133971637" lon="14.89615571448601"><ele>580.0</ele><time>2026-04-06T15:03:12.999Z</time></trkpt><trkpt lat="37.14207645977109" lon="14.896087373894494"><ele>581.5</ele><time>2026-04-06T15:03:14.999Z</time></trkpt><trkpt lat="37.1420143977981" lon="14.896059871930131"><ele>583.0</ele><time>2026-04-06T15:03:15.999Z</time></trkpt><trkpt lat="37.14195086451298" lon="14.896031717960106"><ele>584.5</ele><time>2026-04-06T15:03:16.999Z</time></trkpt><trkpt lat="37.14188622604147" lon="14.896002128517193"><ele>586.0</ele><time>2026-04-06T15:03:17.999Z</time></trkpt><trkpt lat="37.1417780094444" lon="14.895950016805172"><ele>587.5</ele><time>2026-04-06T15:03:19.999Z</time></trkpt><trkpt lat="37.14167455334015" lon="14.895895957097256"><ele>589.0</ele><time>2026-04-06T15:03:21.999Z</time></trkpt><trkpt lat="37.14157658822999" lon="14.895867298088472"><ele>586.6</ele><time>2026-04-06T15:03:23.999Z</time></trkpt><trkpt lat="37.14151773038917" lon="14.895832862126403"><ele>584.2</ele><time>2026-04-06T15:03:26.999Z</time></trkpt><trkpt lat="37.141439285900326" lon="14.895758180888683"><ele>581.8000000000001</ele><time>2026-04-06T15:03:29.999Z</time></trkpt><trkpt lat="37.14136084488834" lon="14.89566952525902"><ele>579.4</ele><time>2026-04-06T15:03:31.999Z</time></trkpt><trkpt lat="37.141282405611534" lon="14.895576030028627"><ele>577.0</ele><time>2026-04-06T15:03:33.999Z</time></trkpt><trkpt lat="37.14122926838751" lon="14.89545283739479"><ele>577.0</ele><time>2026-04-06T15:03:35.999Z</time></trkpt><trkpt lat="37.1411819258475" lon="14.895325696346633"><ele>577.0</ele><time>2026-04-06T15:03:37.999Z</time></trkpt><trkpt lat="37.14111286074423" lon="14.895219373710642"><ele>577.0</ele><time>2026-04-06T15:03:39.999Z</time></trkpt><trkpt lat="37.14102390157436" lon="14.895136794528177"><ele>577.0</ele><time>2026-04-06T15:03:41.999Z</time></trkpt><trkpt lat="37.14095870790795" lon="14.895028820451346"><ele>577.0</ele><time>2026-04-06T15:03:43.999Z</time></trkpt><trkpt lat="37.14089862101315" lon="14.894908281394882"><ele>579.25</ele><time>2026-04-06T15:03:45.999Z</time></trkpt><trkpt lat="37.140836200251535" lon="14.894782429380697"><ele>581.5</ele><time>2026-04-06T15:03:47.999Z</time></trkpt><trkpt lat="37.14077961178195" lon="14.894657216562283"><ele>583.75</ele><time>2026-04-06T15:03:49.999Z</time></trkpt><trkpt lat="37.14074647541851" lon="14.894519216468526"><ele>586.0</ele><time>2026-04-06T15:03:51.999Z</time></trkpt><trkpt lat="37.14067529707303" lon="14.894405050649862"><ele>586.0</ele><time>2026-04-06T15:03:53.999Z</time></trkpt><trkpt lat="37.14059632504831" lon="14.894293567861897"><ele>586.0</ele><time>2026-04-06T15:03:55.999Z</time></trkpt><trkpt lat="37.14051889773667" lon="14.894195140875889"><ele>586.0</ele><time>2026-04-06T15:03:57.999Z</time></trkpt><trkpt lat="37.140415337758576" lon="14.894138663700732"><ele>586.0</ele><time>2026-04-06T15:03:59.999Z</time></trkpt><trkpt lat="37.140302846551485" lon="14.894097127028171"><ele>589.4</ele><time>2026-04-06T15:04:01.999Z</time></trkpt><trkpt lat="37.14020573951033" lon="14.894013112290484"><ele>592.8</ele><time>2026-04-06T15:04:03.999Z</time></trkpt><trkpt lat="37.14013770464986" lon="14.893896903010402"><ele>596.1999999999999</ele><time>2026-04-06T15:04:05.999Z</time></trkpt><trkpt lat="37.140081696951185" lon="14.893779522574459"><ele>599.6</ele><time>2026-04-06T15:04:07.999Z</time></trkpt><trkpt lat="37.1400343991923" lon="14.893664278611611"><ele>603.0</ele><time>2026-04-06T15:04:09.999Z</time></trkpt><trkpt lat="37.13999007607141" lon="14.89354686302288"><ele>603.0</ele><time>2026-04-06T15:04:11.999Z</time></trkpt><trkpt lat="37.13990968276739" lon="14.893455156636866"><ele>603.0</ele><time>2026-04-06T15:04:13.999Z</time></trkpt><trkpt lat="37.13981793803949" lon="14.893401658384679"><ele>603.0</ele><time>2026-04-06T15:04:15.999Z</time></trkpt><trkpt lat="37.13972375986076" lon="14.893367800807686"><ele>603.0</ele><time>2026-04-06T15:04:17.999Z</time></trkpt><trkpt lat="37.13962001956047" lon="14.893404079546567"><ele>603.0</ele><time>2026-04-06T15:04:19.999Z</time></trkpt><trkpt lat="37.139545557840975" lon="14.893416361215069"><ele>605.0</ele><time>2026-04-06T15:04:21.999Z</time></trkpt><trkpt lat="37.13945231558348" lon="14.893391089481568"><ele>607.0</ele><time>2026-04-06T15:04:23.999Z</time></trkpt><trkpt lat="37.13934718990128" lon="14.89336062981049"><ele>609.0</ele><time>2026-04-06T15:04:25.999Z</time></trkpt><trkpt lat="37.13926109138811" lon="14.893308929808729"><ele>611.0</ele><time>2026-04-06T15:04:27.999Z</time></trkpt><trkpt lat="37.13918340374016" lon="14.893221795353746"><ele>613.0</ele><time>2026-04-06T15:04:29.999Z</time></trkpt><trkpt lat="37.13911568367636" lon="14.893113919302595"><ele>613.0</ele><time>2026-04-06T15:04:31.999Z</time></trkpt><trkpt lat="37.13903025935162" lon="14.893026298807085"><ele>613.0</ele><time>2026-04-06T15:04:33.999Z</time></trkpt><trkpt lat="37.138933708508205" lon="14.892951830494717"><ele>613.0</ele><time>2026-04-06T15:04:35.999Z</time></trkpt><trkpt lat="37.13882380612255" lon="14.892886454765229"><ele>613.0</ele><time>2026-04-06T15:04:37.999Z</time></trkpt><trkpt lat="37.138708453387565" lon="14.89283068872984"><ele>613.0</ele><time>2026-04-06T15:04:39.999Z</time></trkpt><trkpt lat="37.13859611877545" lon="14.892760756679836"><ele>613.0</ele><time>2026-04-06T15:04:41.999Z</time></trkpt><trkpt lat="37.138480560069546" lon="14.892734162409718"><ele>613.0</ele><time>2026-04-06T15:04:43.999Z</time></trkpt><trkpt lat="37.13837385494301" lon="14.892692040345615"><ele>613.0</ele><time>2026-04-06T15:04:45.999Z</time></trkpt><trkpt lat="37.138263479938544" lon="14.892656233944868"><ele>613.6</ele><time>2026-04-06T15:04:47.999Z</time></trkpt><trkpt lat="37.13815985250785" lon="14.892598737297147"><ele>614.1999999999999</ele><time>2026-04-06T15:04:49.999Z</time></trkpt><trkpt lat="37.13805396908583" lon="14.892582271993767"><ele>614.8</ele><time>2026-04-06T15:04:51.999Z</time></trkpt><trkpt lat="37.13795767471158" lon="14.89254035293292"><ele>615.4</ele><time>2026-04-06T15:04:53.999Z</time></trkpt><trkpt lat="37.13786573174323" lon="14.892507061615424"><ele>616.0</ele><time>2026-04-06T15:04:55.999Z</time></trkpt><trkpt lat="37.13777279583844" lon="14.892471038029427"><ele>618.8</ele><time>2026-04-06T15:04:57.999Z</time></trkpt><trkpt lat="37.13768134826591" lon="14.892434052600477"><ele>621.6</ele><time>2026-04-06T15:04:59.999Z</time></trkpt><trkpt lat="37.137582634244076" lon="14.89238906995787"><ele>624.4</ele><time>2026-04-06T15:05:01.999Z</time></trkpt><trkpt lat="37.13747697132052" lon="14.89233973202745"><ele>627.2</ele><time>2026-04-06T15:05:03.999Z</time></trkpt><trkpt lat="37.13736625917426" lon="14.892296072484358"><ele>630.0</ele><time>2026-04-06T15:05:05.999Z</time></trkpt><trkpt lat="37.137262388688164" lon="14.892248515188587"><ele>631.2</ele><time>2026-04-06T15:05:07.999Z</time></trkpt><trkpt lat="37.137176977009695" lon="14.892184593148464"><ele>632.4</ele><time>2026-04-06T15:05:09.999Z</time></trkpt><trkpt lat="37.13710159935936" lon="14.89215722982589"><ele>633.6</ele><time>2026-04-06T15:05:11.999Z</time></trkpt><trkpt lat="37.13707800626589" lon="14.892067842824849"><ele>634.8</ele><time>2026-04-06T15:05:13.999Z</time></trkpt><trkpt lat="37.13717209028345" lon="14.892032355176916"><ele>636.0</ele><time>2026-04-06T15:05:15.999Z</time></trkpt><trkpt lat="37.13726742573367" lon="14.891985127094928"><ele>636.0</ele><time>2026-04-06T15:05:17.999Z</time></trkpt><trkpt lat="37.137367374798615" lon="14.89195060775547"><ele>636.0</ele><time>2026-04-06T15:05:19.999Z</time></trkpt><trkpt lat="37.13743509415679" lon="14.891936172503756"><ele>636.0</ele><time>2026-04-06T15:05:22.999Z</time></trkpt><trkpt lat="37.13750458626429" lon="14.891939014813136"><ele>636.0</ele><time>2026-04-06T15:07:09Z</time></trkpt><trkpt lat="37.137439975507775" lon="14.891933066588352"><ele>636.0</ele><time>2026-04-06T15:08:09Z</time></trkpt><trkpt lat="37.13736739397541" lon="14.891952987956696"><ele>636.0</ele><time>2026-04-06T15:08:11Z</time></trkpt><trkpt lat="37.137304152055044" lon="14.891971206787092"><ele>636.0</ele><time>2026-04-06T15:08:13Z</time></trkpt><trkpt lat="37.13724009292363" lon="14.891991019752151"><ele>636.0</ele><time>2026-04-06T15:08:15Z</time></trkpt><trkpt lat="37.13717556663101" lon="14.89201478885353"><ele>636.0</ele><time>2026-04-06T15:08:17Z</time></trkpt><trkpt lat="37.13710498108883" lon="14.892059581055005"><ele>636.0</ele><time>2026-04-06T15:08:20Z</time></trkpt><trkpt lat="37.137203377124074" lon="14.892022588888516"><ele>636.0</ele><time>2026-04-06T15:08:26Z</time></trkpt><trkpt lat="37.137304330999356" lon="14.891987468402675"><ele>636.0</ele><time>2026-04-06T15:08:28Z</time></trkpt><trkpt lat="37.13736663610656" lon="14.891967266583835"><ele>636.0</ele><time>2026-04-06T15:08:29Z</time></trkpt><trkpt lat="37.13751675257197" lon="14.891939138589153"><ele>634.8</ele><time>2026-04-06T15:08:30Z</time></trkpt><trkpt lat="37.13766179934731" lon="14.891939427519704"><ele>633.6</ele><time>2026-04-06T15:08:33Z</time></trkpt><trkpt lat="37.137770493258664" lon="14.891940052659276"><ele>632.4</ele><time>2026-04-06T15:08:34Z</time></trkpt><trkpt lat="37.13783801272694" lon="14.891947818850195"><ele>631.2</ele><time>2026-04-06T15:08:35Z</time></trkpt><trkpt lat="37.13790394644194" lon="14.891955402671192"><ele>630.0</ele><time>2026-04-06T15:08:36Z</time></trkpt><trkpt lat="37.13800422663803" lon="14.891959091840441"><ele>629.3333333333334</ele><time>2026-04-06T15:08:38Z</time></trkpt><trkpt lat="37.13833774444282" lon="14.891968170059315"><ele>628.6666666666667</ele><time>2026-04-06T15:08:41Z</time></trkpt><trkpt lat="37.13842135048337" lon="14.891996644551076"><ele>628.0</ele><time>2026-04-06T15:08:44Z</time></trkpt><trkpt lat="37.13849405110769" lon="14.892010257136633"><ele>628.0</ele><time>2026-04-06T15:08:47Z</time></trkpt><trkpt lat="37.13856629507691" lon="14.892018051829343"><ele>628.0</ele><time>2026-04-06T15:08:51Z</time></trkpt><trkpt lat="37.13863126759905" lon="14.892061927067358"><ele>628.0</ele><time>2026-04-06T15:08:53Z</time></trkpt><trkpt lat="37.13878525997316" lon="14.89222483048302"><ele>628.0</ele><time>2026-04-06T15:08:57Z</time></trkpt><trkpt lat="37.13885845061624" lon="14.892325873426485"><ele>628.0</ele><time>2026-04-06T15:08:59Z</time></trkpt><trkpt lat="37.1389995253591" lon="14.892447116574065"><ele>628.0</ele><time>2026-04-06T15:09:01Z</time></trkpt><trkpt lat="37.1390398747782" lon="14.892564124029432"><ele>628.0</ele><time>2026-04-06T15:09:03Z</time></trkpt><trkpt lat="37.13910048015362" lon="14.892702087380815"><ele>628.0</ele><time>2026-04-06T15:09:05Z</time></trkpt><trkpt lat="37.13908259990791" lon="14.893065973087888"><ele>625.0</ele><time>2026-04-06T15:09:06Z</time></trkpt><trkpt lat="37.139143724891035" lon="14.89314599944913"><ele>622.0</ele><time>2026-04-06T15:09:08Z</time></trkpt><trkpt lat="37.13919492506734" lon="14.893233160440584"><ele>619.0</ele><time>2026-04-06T15:09:10Z</time></trkpt><trkpt lat="37.13926143129281" lon="14.893312086478634"><ele>616.0</ele><time>2026-04-06T15:09:12Z</time></trkpt><trkpt lat="37.13935615583199" lon="14.893363191858242"><ele>613.0</ele><time>2026-04-06T15:09:14Z</time></trkpt><trkpt lat="37.13945930777733" lon="14.893405749372405"><ele>613.0</ele><time>2026-04-06T15:09:16Z</time></trkpt><trkpt lat="37.13956201086152" lon="14.893442097335761"><ele>613.0</ele><time>2026-04-06T15:09:18Z</time></trkpt><trkpt lat="37.139632116245636" lon="14.893441884359973"><ele>613.0</ele><time>2026-04-06T15:09:20Z</time></trkpt><trkpt lat="37.13969652002406" lon="14.893420573092973"><ele>613.0</ele><time>2026-04-06T15:09:22Z</time></trkpt><trkpt lat="37.139784884361546" lon="14.893387570681352"><ele>613.0</ele><time>2026-04-06T15:09:25Z</time></trkpt><trkpt lat="37.13987162194717" lon="14.89342501939152"><ele>613.0</ele><time>2026-04-06T15:09:27Z</time></trkpt><trkpt lat="37.13996034940835" lon="14.893503709485788"><ele>611.0</ele><time>2026-04-06T15:09:29Z</time></trkpt><trkpt lat="37.14002424193733" lon="14.893594636572193"><ele>609.0</ele><time>2026-04-06T15:09:31Z</time></trkpt><trkpt lat="37.14005591562595" lon="14.893724597477853"><ele>607.0</ele><time>2026-04-06T15:09:33Z</time></trkpt><trkpt lat="37.140113710408336" lon="14.893846291717843"><ele>605.0</ele><time>2026-04-06T15:09:35Z</time></trkpt><trkpt lat="37.14017640667576" lon="14.8939616874849"><ele>603.0</ele><time>2026-04-06T15:09:37Z</time></trkpt><trkpt lat="37.14023328770484" lon="14.894075126243493"><ele>603.0</ele><time>2026-04-06T15:09:39Z</time></trkpt><trkpt lat="37.140334520426734" lon="14.894143681259779"><ele>603.0</ele><time>2026-04-06T15:09:41Z</time></trkpt><trkpt lat="37.140444975864156" lon="14.894161794650946"><ele>603.0</ele><time>2026-04-06T15:09:43Z</time></trkpt><trkpt lat="37.14053018746751" lon="14.894210547826924"><ele>603.0</ele><time>2026-04-06T15:09:45Z</time></trkpt><trkpt lat="37.14057732669741" lon="14.894332246588618"><ele>603.0</ele><time>2026-04-06T15:09:47Z</time></trkpt><trkpt lat="37.14065753216331" lon="14.894450011496366"><ele>601.8</ele><time>2026-04-06T15:09:49Z</time></trkpt><trkpt lat="37.140728180857174" lon="14.894556199290202"><ele>600.5999999999999</ele><time>2026-04-06T15:09:51Z</time></trkpt><trkpt lat="37.140746244115554" lon="14.894672468990075"><ele>599.4000000000001</ele><time>2026-04-06T15:09:53Z</time></trkpt><trkpt lat="37.14080571486976" lon="14.894799957355325"><ele>598.2</ele><time>2026-04-06T15:09:55Z</time></trkpt><trkpt lat="37.14086428208119" lon="14.894920108345758"><ele>597.0</ele><time>2026-04-06T15:09:57Z</time></trkpt><trkpt lat="37.140923348767764" lon="14.895033523691122"><ele>592.0</ele><time>2026-04-06T15:09:59Z</time></trkpt><trkpt lat="37.141002284103955" lon="14.895155814407433"><ele>587.0</ele><time>2026-04-06T15:10:01Z</time></trkpt><trkpt lat="37.14110008347224" lon="14.895244622043892"><ele>582.0</ele><time>2026-04-06T15:10:03Z</time></trkpt><trkpt lat="37.141159081466256" lon="14.895345193003939"><ele>577.0</ele><time>2026-04-06T15:10:05Z</time></trkpt><trkpt lat="37.14120611369551" lon="14.895486627005331"><ele>577.0</ele><time>2026-04-06T15:10:07Z</time></trkpt><trkpt lat="37.14124112149375" lon="14.895558394736636"><ele>577.0</ele><time>2026-04-06T15:10:08Z</time></trkpt><trkpt lat="37.141286412794514" lon="14.895630766374843"><ele>577.0</ele><time>2026-04-06T15:10:09Z</time></trkpt><trkpt lat="37.141357568330065" lon="14.895691053307264"><ele>577.0</ele><time>2026-04-06T15:10:10Z</time></trkpt><trkpt lat="37.141423930120496" lon="14.895758579965575"><ele>577.0</ele><time>2026-04-06T15:10:11Z</time></trkpt><trkpt lat="37.14147621367317" lon="14.895843738891529"><ele>577.0</ele><time>2026-04-06T15:10:12Z</time></trkpt><trkpt lat="37.14156379896607" lon="14.895884439654958"><ele>575.6666666666667</ele><time>2026-04-06T15:10:13Z</time></trkpt><trkpt lat="37.14164430949512" lon="14.895908278681166"><ele>574.3333333333334</ele><time>2026-04-06T15:10:14Z</time></trkpt><trkpt lat="37.14172279807071" lon="14.89594975306583"><ele>573.0</ele><time>2026-04-06T15:10:15Z</time></trkpt><trkpt lat="37.14180447144962" lon="14.8959912279647"><ele>571.6666666666666</ele><time>2026-04-06T15:10:16Z</time></trkpt><trkpt lat="37.14189098559487" lon="14.896030935361557"><ele>570.3333333333333</ele><time>2026-04-06T15:10:17Z</time></trkpt><trkpt lat="37.1419793679477" lon="14.896070196040418"><ele>569.0</ele><time>2026-04-06T15:10:18Z</time></trkpt><trkpt lat="37.142069468105646" lon="14.896110182642724"><ele>569.0</ele><time>2026-04-06T15:10:19Z</time></trkpt><trkpt lat="37.14216219082513" lon="14.896149426232494"><ele>569.0</ele><time>2026-04-06T15:10:20Z</time></trkpt><trkpt lat="37.142247300845156" lon="14.896184013053626"><ele>569.0</ele><time>2026-04-06T15:10:21Z</time></trkpt><trkpt lat="37.14232746782358" lon="14.896218436356898"><ele>569.0</ele><time>2026-04-06T15:10:22Z</time></trkpt><trkpt lat="37.14240221027251" lon="14.896247697768288"><ele>569.0</ele><time>2026-04-06T15:10:23Z</time></trkpt><trkpt lat="37.14247446068288" lon="14.896278303524133"><ele>569.0</ele><time>2026-04-06T15:10:24Z</time></trkpt><trkpt lat="37.14254084393842" lon="14.896328190614213"><ele>570.5714285714287</ele><time>2026-04-06T15:10:25Z</time></trkpt><trkpt lat="37.142606932390585" lon="14.896356539212688"><ele>572.1428571428571</ele><time>2026-04-06T15:10:26Z</time></trkpt><trkpt lat="37.14267959942078" lon="14.896366056475353"><ele>573.7142857142858</ele><time>2026-04-06T15:10:27Z</time></trkpt><trkpt lat="37.142747168919705" lon="14.896416693560642"><ele>575.2857142857143</ele><time>2026-04-06T15:10:28Z</time></trkpt><trkpt lat="37.14281622972648" lon="14.89642615950149"><ele>576.8571428571429</ele><time>2026-04-06T15:10:29Z</time></trkpt><trkpt lat="37.14287775367958" lon="14.896453436767871"><ele>578.4285714285714</ele><time>2026-04-06T15:10:30Z</time></trkpt><trkpt lat="37.14293679328832" lon="14.896481619059285"><ele>580.0</ele><time>2026-04-06T15:10:31Z</time></trkpt><trkpt lat="37.14304274889067" lon="14.896528634712737"><ele>580.0</ele><time>2026-04-06T15:10:33Z</time></trkpt><trkpt lat="37.143137826849" lon="14.896571234092374"><ele>580.0</ele><time>2026-04-06T15:10:35Z</time></trkpt><trkpt lat="37.14321987644923" lon="14.896628754152857"><ele>580.0</ele><time>2026-04-06T15:10:37Z</time></trkpt><trkpt lat="37.143306669366325" lon="14.896640550614766"><ele>580.0</ele><time>2026-04-06T15:10:39Z</time></trkpt><trkpt lat="37.143371806828746" lon="14.896656062896602"><ele>580.0</ele><time>2026-04-06T15:10:41Z</time></trkpt><trkpt lat="37.14343890521347" lon="14.896668024781524"><ele>580.0</ele><time>2026-04-06T15:10:43Z</time></trkpt><trkpt lat="37.14350640928499" lon="14.896672100626928"><ele>580.4</ele><time>2026-04-06T15:10:45Z</time></trkpt><trkpt lat="37.143578154780265" lon="14.896672016439112"><ele>580.8</ele><time>2026-04-06T15:10:47Z</time></trkpt><trkpt lat="37.143669036864296" lon="14.896665331044664"><ele>581.2</ele><time>2026-04-06T15:10:49Z</time></trkpt><trkpt lat="37.14377078112699" lon="14.896658304888865"><ele>581.6</ele><time>2026-04-06T15:10:51Z</time></trkpt><trkpt lat="37.143878577966156" lon="14.89666194089873"><ele>582.0</ele><time>2026-04-06T15:10:53Z</time></trkpt><trkpt lat="37.143993731207956" lon="14.89668342089891"><ele>580.3333333333334</ele><time>2026-04-06T15:10:55Z</time></trkpt><trkpt lat="37.144121163914626" lon="14.896700599143212"><ele>578.6666666666666</ele><time>2026-04-06T15:10:57Z</time></trkpt><trkpt lat="37.14419272063081" lon="14.89670813084183"><ele>577.0</ele><time>2026-04-06T15:10:58Z</time></trkpt><trkpt lat="37.14427002857733" lon="14.896709265875982"><ele>575.3333333333333</ele><time>2026-04-06T15:10:59Z</time></trkpt><trkpt lat="37.14434851519604" lon="14.896704262896089"><ele>573.6666666666666</ele><time>2026-04-06T15:11:00Z</time></trkpt><trkpt lat="37.14442697150464" lon="14.896699024729815"><ele>572.0</ele><time>2026-04-06T15:11:01Z</time></trkpt><trkpt lat="37.14450469210223" lon="14.896688524529935"><ele>572.0</ele><time>2026-04-06T15:11:02Z</time></trkpt><trkpt lat="37.144586604883145" lon="14.896675837598382"><ele>572.0</ele><time>2026-04-06T15:11:03Z</time></trkpt><trkpt lat="37.14466525445352" lon="14.896660570697662"><ele>572.0</ele><time>2026-04-06T15:11:04Z</time></trkpt><trkpt lat="37.1447403402189" lon="14.896631345353779"><ele>572.0</ele><time>2026-04-06T15:11:05Z</time></trkpt><trkpt lat="37.14481050212018" lon="14.896596200078632"><ele>572.0</ele><time>2026-04-06T15:11:06Z</time></trkpt><trkpt lat="37.14487222589013" lon="14.896555255998281"><ele>572.0</ele><time>2026-04-06T15:11:07Z</time></trkpt><trkpt lat="37.14496932457852" lon="14.896476669546589"><ele>569.4</ele><time>2026-04-06T15:11:09Z</time></trkpt><trkpt lat="37.14503783801052" lon="14.896408673042139"><ele>566.8000000000001</ele><time>2026-04-06T15:11:11Z</time></trkpt><trkpt lat="37.14508696783238" lon="14.896329293046664"><ele>564.2</ele><time>2026-04-06T15:11:13Z</time></trkpt><trkpt lat="37.14511833588256" lon="14.896225514351958"><ele>561.6</ele><time>2026-04-06T15:11:15Z</time></trkpt><trkpt lat="37.1451267448712" lon="14.89609747038943"><ele>559.0</ele><time>2026-04-06T15:11:17Z</time></trkpt><trkpt lat="37.14511835571457" lon="14.895974848260312"><ele>559.3333333333334</ele><time>2026-04-06T15:11:19Z</time></trkpt><trkpt lat="37.14510755475783" lon="14.895883763536808"><ele>559.6666666666667</ele><time>2026-04-06T15:11:21Z</time></trkpt><trkpt lat="37.14508002280998" lon="14.895802698928426"><ele>560.0</ele><time>2026-04-06T15:11:25Z</time></trkpt><trkpt lat="37.14505215148271" lon="14.895699159290555"><ele>560.3333333333334</ele><time>2026-04-06T15:11:36Z</time></trkpt><trkpt lat="37.145001904997564" lon="14.895555543806836"><ele>560.6666666666666</ele><time>2026-04-06T15:11:38Z</time></trkpt><trkpt lat="37.14496882536358" lon="14.895472999590611"><ele>561.0</ele><time>2026-04-06T15:11:39Z</time></trkpt><trkpt lat="37.14493863904963" lon="14.895390513642399"><ele>561.0</ele><time>2026-04-06T15:11:40Z</time></trkpt><trkpt lat="37.14491349443991" lon="14.895315966608461"><ele>561.0</ele><time>2026-04-06T15:11:41Z</time></trkpt><trkpt lat="37.14488245011088" lon="14.895236819546403"><ele>561.0</ele><time>2026-04-06T15:11:42Z</time></trkpt><trkpt lat="37.144852499165765" lon="14.895152261631901"><ele>561.0</ele><time>2026-04-06T15:11:43Z</time></trkpt><trkpt lat="37.1448209895847" lon="14.89506716064143"><ele>561.0</ele><time>2026-04-06T15:11:44Z</time></trkpt><trkpt lat="37.144789353770555" lon="14.894981392236527"><ele>561.0</ele><time>2026-04-06T15:11:45Z</time></trkpt><trkpt lat="37.144758709763124" lon="14.894895854145043"><ele>561.0</ele><time>2026-04-06T15:11:46Z</time></trkpt><trkpt lat="37.14473100791317" lon="14.894811126489335"><ele>567.4</ele><time>2026-04-06T15:11:47Z</time></trkpt><trkpt lat="37.14469947478529" lon="14.894720256135017"><ele>573.8</ele><time>2026-04-06T15:11:48Z</time></trkpt><trkpt lat="37.144669242344534" lon="14.894628924659742"><ele>580.1999999999999</ele><time>2026-04-06T15:11:49Z</time></trkpt><trkpt lat="37.144641097844115" lon="14.894553099512336"><ele>586.6</ele><time>2026-04-06T15:11:50Z</time></trkpt><trkpt lat="37.14459054492329" lon="14.894421275943031"><ele>593.0</ele><time>2026-04-06T15:11:52Z</time></trkpt><trkpt lat="37.14456552306236" lon="14.894267063989734"><ele>592.6666666666666</ele><time>2026-04-06T15:11:54Z</time></trkpt><trkpt lat="37.14454705658154" lon="14.894182783015893"><ele>592.3333333333333</ele><time>2026-04-06T15:11:55Z</time></trkpt><trkpt lat="37.14453279967451" lon="14.894085328960179"><ele>592.0</ele><time>2026-04-06T15:11:56Z</time></trkpt><trkpt lat="37.14451752458352" lon="14.893978019055261"><ele>591.6666666666666</ele><time>2026-04-06T15:11:57Z</time></trkpt><trkpt lat="37.14450963966469" lon="14.893864876871653"><ele>591.3333333333334</ele><time>2026-04-06T15:11:58Z</time></trkpt><trkpt lat="37.144500091879536" lon="14.893749591168861"><ele>591.0</ele><time>2026-04-06T15:11:59Z</time></trkpt><trkpt lat="37.14449076963462" lon="14.893642230125902"><ele>591.0</ele><time>2026-04-06T15:12:00Z</time></trkpt><trkpt lat="37.1444803323589" lon="14.8935299679405"><ele>591.0</ele><time>2026-04-06T15:12:01Z</time></trkpt><trkpt lat="37.14447291867182" lon="14.893415451266513"><ele>591.0</ele><time>2026-04-06T15:12:02Z</time></trkpt><trkpt lat="37.14446456730217" lon="14.893299295158696"><ele>591.0</ele><time>2026-04-06T15:12:03Z</time></trkpt><trkpt lat="37.144459648948526" lon="14.893184626907223"><ele>591.0</ele><time>2026-04-06T15:12:04Z</time></trkpt><trkpt lat="37.1444564826207" lon="14.893070129425759"><ele>590.0</ele><time>2026-04-06T15:12:05Z</time></trkpt><trkpt lat="37.14444664148257" lon="14.892959753311855"><ele>589.0</ele><time>2026-04-06T15:12:06Z</time></trkpt><trkpt lat="37.14443661705687" lon="14.892851159948492"><ele>588.0</ele><time>2026-04-06T15:12:07Z</time></trkpt><trkpt lat="37.14442015161386" lon="14.892740725881122"><ele>587.0</ele><time>2026-04-06T15:12:08Z</time></trkpt><trkpt lat="37.14438918517394" lon="14.892633289557823"><ele>586.0</ele><time>2026-04-06T15:12:09Z</time></trkpt><trkpt lat="37.144357158707294" lon="14.89253430996018"><ele>585.0</ele><time>2026-04-06T15:12:10Z</time></trkpt><trkpt lat="37.144347739149914" lon="14.892432421702232"><ele>583.6666666666666</ele><time>2026-04-06T15:12:11Z</time></trkpt><trkpt lat="37.144316055231066" lon="14.8923412709286"><ele>582.3333333333334</ele><time>2026-04-06T15:12:12Z</time></trkpt><trkpt lat="37.144298683114954" lon="14.89223552139803"><ele>581.0</ele><time>2026-04-06T15:12:13Z</time></trkpt><trkpt lat="37.14429842043487" lon="14.892127424972575"><ele>579.6666666666667</ele><time>2026-04-06T15:12:14Z</time></trkpt><trkpt lat="37.14429139947401" lon="14.892028490604675"><ele>578.3333333333334</ele><time>2026-04-06T15:12:15Z</time></trkpt><trkpt lat="37.144278673201335" lon="14.891935031014672"><ele>577.0</ele><time>2026-04-06T15:12:16Z</time></trkpt><trkpt lat="37.14425695910766" lon="14.891846395707233"><ele>577.1666666666667</ele><time>2026-04-06T15:12:17Z</time></trkpt><trkpt lat="37.144247468119204" lon="14.891756759211455"><ele>577.3333333333334</ele><time>2026-04-06T15:12:18Z</time></trkpt><trkpt lat="37.14424567479672" lon="14.891655884575663"><ele>577.5</ele><time>2026-04-06T15:12:19Z</time></trkpt><trkpt lat="37.1442735531993" lon="14.891553106305478"><ele>577.6666666666666</ele><time>2026-04-06T15:12:20Z</time></trkpt><trkpt lat="37.144304559467685" lon="14.891446114163118"><ele>577.8333333333333</ele><time>2026-04-06T15:12:21Z</time></trkpt><trkpt lat="37.144335849917404" lon="14.89134021133941"><ele>578.0</ele><time>2026-04-06T15:12:22Z</time></trkpt><trkpt lat="37.14435006651033" lon="14.891230437811334"><ele>578.0</ele><time>2026-04-06T15:12:23Z</time></trkpt><trkpt lat="37.144348920650934" lon="14.891116009536738"><ele>578.0</ele><time>2026-04-06T15:12:24Z</time></trkpt><trkpt lat="37.144337574739765" lon="14.890996409739659"><ele>578.0</ele><time>2026-04-06T15:12:25Z</time></trkpt><trkpt lat="37.144325902656156" lon="14.890882351097803"><ele>578.0</ele><time>2026-04-06T15:12:26Z</time></trkpt><trkpt lat="37.14431198552174" lon="14.890772845909641"><ele>578.0</ele><time>2026-04-06T15:12:27Z</time></trkpt><trkpt lat="37.144300028741576" lon="14.890664168805335"><ele>578.6</ele><time>2026-04-06T15:12:28Z</time></trkpt><trkpt lat="37.14428732874285" lon="14.890554631916439"><ele>579.1999999999999</ele><time>2026-04-06T15:12:29Z</time></trkpt><trkpt lat="37.144272698994094" lon="14.890445895222953"><ele>579.8</ele><time>2026-04-06T15:12:30Z</time></trkpt><trkpt lat="37.1442608365019" lon="14.89034511008453"><ele>580.4</ele><time>2026-04-06T15:12:31Z</time></trkpt><trkpt lat="37.1442733430429" lon="14.890255548601033"><ele>581.0</ele><time>2026-04-06T15:12:32Z</time></trkpt><trkpt lat="37.14428122582739" lon="14.890097541500731"><ele>581.8333333333333</ele><time>2026-04-06T15:12:34Z</time></trkpt><trkpt lat="37.144277952737085" lon="14.890015641208695"><ele>582.6666666666666</ele><time>2026-04-06T15:12:35Z</time></trkpt><trkpt lat="37.144291252221215" lon="14.889928565993927"><ele>583.5</ele><time>2026-04-06T15:12:36Z</time></trkpt><trkpt lat="37.144309396679525" lon="14.889827244921628"><ele>584.3333333333334</ele><time>2026-04-06T15:12:37Z</time></trkpt><trkpt lat="37.1443249940215" lon="14.889715453090442"><ele>585.1666666666667</ele><time>2026-04-06T15:12:38Z</time></trkpt><trkpt lat="37.144340701645305" lon="14.889610107880268"><ele>586.0</ele><time>2026-04-06T15:12:39Z</time></trkpt><trkpt lat="37.14435608582174" lon="14.88951002178809"><ele>585.9999999999999</ele><time>2026-04-06T15:12:40Z</time></trkpt><trkpt lat="37.14436942189599" lon="14.8894138676543"><ele>586.0</ele><time>2026-04-06T15:12:41Z</time></trkpt><trkpt lat="37.14438467858071" lon="14.889321413491842"><ele>586.0</ele><time>2026-04-06T15:12:42Z</time></trkpt><trkpt lat="37.14441502033226" lon="14.889235246980544"><ele>586.0</ele><time>2026-04-06T15:12:43Z</time></trkpt><trkpt lat="37.14442215637163" lon="14.889145777796966"><ele>586.0</ele><time>2026-04-06T15:12:44Z</time></trkpt><trkpt lat="37.14445196610355" lon="14.889063854798112"><ele>585.9999999999999</ele><time>2026-04-06T15:12:45Z</time></trkpt><trkpt lat="37.1444731940764" lon="14.88897769063832"><ele>586.0</ele><time>2026-04-06T15:12:46Z</time></trkpt><trkpt lat="37.144497716871435" lon="14.888891678406678"><ele>586.9999999999999</ele><time>2026-04-06T15:12:47Z</time></trkpt><trkpt lat="37.144517801589096" lon="14.888802154113238"><ele>588.0</ele><time>2026-04-06T15:12:48Z</time></trkpt><trkpt lat="37.1445369127603" lon="14.88871071117926"><ele>589.0</ele><time>2026-04-06T15:12:49Z</time></trkpt><trkpt lat="37.14455123643193" lon="14.88862502396361"><ele>590.0</ele><time>2026-04-06T15:12:50Z</time></trkpt><trkpt lat="37.144564730596734" lon="14.88854744719424"><ele>591.0</ele><time>2026-04-06T15:12:51Z</time></trkpt><trkpt lat="37.14458254621077" lon="14.888435734533182"><ele>591.9999999999999</ele><time>2026-04-06T15:12:53Z</time></trkpt><trkpt lat="37.14459852473531" lon="14.88835673411076"><ele>593.0</ele><time>2026-04-06T15:12:56Z</time></trkpt><trkpt lat="37.1446003737263" lon="14.888268511626576"><ele>593.8</ele><time>2026-04-06T15:13:01Z</time></trkpt><trkpt lat="37.144602866581536" lon="14.88812628346975"><ele>594.5999999999999</ele><time>2026-04-06T15:13:10Z</time></trkpt><trkpt lat="37.14460476842399" lon="14.888027121555352"><ele>595.4000000000001</ele><time>2026-04-06T15:13:11Z</time></trkpt><trkpt lat="37.14460985875272" lon="14.88791237092184"><ele>596.2</ele><time>2026-04-06T15:13:12Z</time></trkpt><trkpt lat="37.14461290378911" lon="14.887812727864045"><ele>597.0</ele><time>2026-04-06T15:13:13Z</time></trkpt><trkpt lat="37.14461093201092" lon="14.887683989520017"><ele>598.0</ele><time>2026-04-06T15:13:14Z</time></trkpt><trkpt lat="37.144613578151315" lon="14.887556486446254"><ele>599.0</ele><time>2026-04-06T15:13:15Z</time></trkpt><trkpt lat="37.14463954255301" lon="14.88742940684962"><ele>600.0</ele><time>2026-04-06T15:13:16Z</time></trkpt><trkpt lat="37.144660948894604" lon="14.887296321420623"><ele>601.0</ele><time>2026-04-06T15:13:17Z</time></trkpt><trkpt lat="37.144700343046686" lon="14.887167203245449"><ele>602.0</ele><time>2026-04-06T15:13:18Z</time></trkpt><trkpt lat="37.14474359633354" lon="14.887050063579553"><ele>602.0</ele><time>2026-04-06T15:13:19Z</time></trkpt><trkpt lat="37.144774479526575" lon="14.88694199244987"><ele>602.0</ele><time>2026-04-06T15:13:20Z</time></trkpt><trkpt lat="37.14480523844219" lon="14.886831628023092"><ele>602.0</ele><time>2026-04-06T15:13:21Z</time></trkpt><trkpt lat="37.144827119865845" lon="14.88673182873707"><ele>602.0</ele><time>2026-04-06T15:13:22Z</time></trkpt><trkpt lat="37.1448436067143" lon="14.886643739758838"><ele>602.0</ele><time>2026-04-06T15:13:23Z</time></trkpt><trkpt lat="37.14486210547942" lon="14.88655232922319"><ele>602.0</ele><time>2026-04-06T15:13:24Z</time></trkpt><trkpt lat="37.14488340983205" lon="14.886455671716742"><ele>600.8333333333333</ele><time>2026-04-06T15:13:25Z</time></trkpt><trkpt lat="37.14491872245543" lon="14.886362818188012"><ele>599.6666666666666</ele><time>2026-04-06T15:13:26Z</time></trkpt><trkpt lat="37.14494116954131" lon="14.886262129386125"><ele>598.5</ele><time>2026-04-06T15:13:27Z</time></trkpt><trkpt lat="37.144964223805815" lon="14.886158717018853"><ele>597.3333333333334</ele><time>2026-04-06T15:13:28Z</time></trkpt><trkpt lat="37.14496340540029" lon="14.886046131482704"><ele>596.1666666666667</ele><time>2026-04-06T15:13:29Z</time></trkpt><trkpt lat="37.14499195045288" lon="14.885942144680802"><ele>595.0</ele><time>2026-04-06T15:13:30Z</time></trkpt><trkpt lat="37.14500478990635" lon="14.885830150169456"><ele>595.0</ele><time>2026-04-06T15:13:31Z</time></trkpt><trkpt lat="37.14501400331187" lon="14.88571323553069"><ele>595.0</ele><time>2026-04-06T15:13:32Z</time></trkpt><trkpt lat="37.14502412307776" lon="14.885599333715794"><ele>595.0</ele><time>2026-04-06T15:13:33Z</time></trkpt><trkpt lat="37.14502475013327" lon="14.88548365678855"><ele>595.0</ele><time>2026-04-06T15:13:34Z</time></trkpt><trkpt lat="37.14502429624475" lon="14.885368717734677"><ele>595.0</ele><time>2026-04-06T15:13:35Z</time></trkpt><trkpt lat="37.145021892263316" lon="14.885252637046827"><ele>595.0</ele><time>2026-04-06T15:13:36Z</time></trkpt><trkpt lat="37.145019901886606" lon="14.885147127031397"><ele>595.0</ele><time>2026-04-06T15:13:37Z</time></trkpt><trkpt lat="37.145016682512036" lon="14.885050811432283"><ele>595.0</ele><time>2026-04-06T15:13:38Z</time></trkpt><trkpt lat="37.145015914074726" lon="14.8849566226998"><ele>595.0</ele><time>2026-04-06T15:13:39Z</time></trkpt><trkpt lat="37.14501619092068" lon="14.884872692537728"><ele>595.0</ele><time>2026-04-06T15:13:40Z</time></trkpt><trkpt lat="37.145042691873606" lon="14.884716039719434"><ele>595.0</ele><time>2026-04-06T15:13:42Z</time></trkpt><trkpt lat="37.14507634346349" lon="14.884631853435076"><ele>595.0</ele><time>2026-04-06T15:13:43Z</time></trkpt><trkpt lat="37.14512323832851" lon="14.88454361062207"><ele>595.0</ele><time>2026-04-06T15:13:43.999Z</time></trkpt><trkpt lat="37.14517379275441" lon="14.88444649534201"><ele>595.0</ele><time>2026-04-06T15:13:44.999Z</time></trkpt><trkpt lat="37.14521465278305" lon="14.884344122826"><ele>595.0</ele><time>2026-04-06T15:13:45.999Z</time></trkpt><trkpt lat="37.14525423188639" lon="14.884239920455018"><ele>595.0</ele><time>2026-04-06T15:13:46.999Z</time></trkpt><trkpt lat="37.14529123920171" lon="14.884144678782485"><ele>595.0</ele><time>2026-04-06T15:13:47.999Z</time></trkpt><trkpt lat="37.14532721171344" lon="14.884059096914383"><ele>595.0</ele><time>2026-04-06T15:13:48.999Z</time></trkpt><trkpt lat="37.14535890546211" lon="14.883979310837608"><ele>595.0</ele><time>2026-04-06T15:13:50Z</time></trkpt><trkpt lat="37.14537930112455" lon="14.883903655282325"><ele>595.0</ele><time>2026-04-06T15:13:51Z</time></trkpt><trkpt lat="37.14539198191887" lon="14.883753627397306"><ele>595.0</ele><time>2026-04-06T15:13:53Z</time></trkpt><trkpt lat="37.14538592154409" lon="14.883671085986922"><ele>595.0</ele><time>2026-04-06T15:13:54Z</time></trkpt><trkpt lat="37.14534321445016" lon="14.88357277949176"><ele>595.0</ele><time>2026-04-06T15:13:55Z</time></trkpt><trkpt lat="37.14530730064439" lon="14.883472274311112"><ele>594.3333333333334</ele><time>2026-04-06T15:13:56Z</time></trkpt><trkpt lat="37.145271518659214" lon="14.883383712511034"><ele>593.6666666666667</ele><time>2026-04-06T15:13:57Z</time></trkpt><trkpt lat="37.145242856929876" lon="14.883308789526614"><ele>593.0</ele><time>2026-04-06T15:13:58Z</time></trkpt><trkpt lat="37.14519271246521" lon="14.88318954376844"><ele>592.3333333333334</ele><time>2026-04-06T15:14:00Z</time></trkpt><trkpt lat="37.14515765956071" lon="14.88310816902826"><ele>591.6666666666666</ele><time>2026-04-06T15:14:02Z</time></trkpt><trkpt lat="37.14515122555811" lon="14.883019760443329"><ele>591.0</ele><time>2026-04-06T15:14:05Z</time></trkpt><trkpt lat="37.14521491517446" lon="14.882973311052643"><ele>591.0</ele><time>2026-04-06T15:14:22Z</time></trkpt><trkpt lat="37.14528864564335" lon="14.883034912536104"><ele>591.0</ele><time>2026-04-06T15:14:23Z</time></trkpt><trkpt lat="37.14535171556669" lon="14.88310134915949"><ele>591.0</ele><time>2026-04-06T15:14:24Z</time></trkpt><trkpt lat="37.145412288182946" lon="14.88315349655186"><ele>591.0</ele><time>2026-04-06T15:14:25Z</time></trkpt><trkpt lat="37.14548729334362" lon="14.883216482434733"><ele>591.0</ele><time>2026-04-06T15:14:26Z</time></trkpt><trkpt lat="37.145559177516695" lon="14.883287501796161"><ele>591.0</ele><time>2026-04-06T15:14:27Z</time></trkpt><trkpt lat="37.1456273358966" lon="14.883375039027491"><ele>592.0</ele><time>2026-04-06T15:14:28Z</time></trkpt><trkpt lat="37.145690929949204" lon="14.883494234034709"><ele>593.0</ele><time>2026-04-06T15:14:29Z</time></trkpt><trkpt lat="37.14574428106524" lon="14.883630535298003"><ele>594.0</ele><time>2026-04-06T15:14:30Z</time></trkpt><trkpt lat="37.145790319330885" lon="14.883766352400569"><ele>595.0</ele><time>2026-04-06T15:14:31Z</time></trkpt><trkpt lat="37.145832731709426" lon="14.883909489577094"><ele>591.25</ele><time>2026-04-06T15:14:32Z</time></trkpt><trkpt lat="37.14588071620265" lon="14.884053113948955"><ele>587.5</ele><time>2026-04-06T15:14:33Z</time></trkpt><trkpt lat="37.14592842982796" lon="14.88419169737011"><ele>583.75</ele><time>2026-04-06T15:14:34Z</time></trkpt><trkpt lat="37.14597392828289" lon="14.88432808852579"><ele>580.0</ele><time>2026-04-06T15:14:35Z</time></trkpt><trkpt lat="37.14601753337067" lon="14.88446299082676"><ele>580.0</ele><time>2026-04-06T15:14:36Z</time></trkpt><trkpt lat="37.14606261150942" lon="14.88459006912386"><ele>580.0</ele><time>2026-04-06T15:14:37Z</time></trkpt><trkpt lat="37.146114587257046" lon="14.884705606554679"><ele>580.0</ele><time>2026-04-06T15:14:38Z</time></trkpt><trkpt lat="37.14619061930987" lon="14.88479356773913"><ele>580.0</ele><time>2026-04-06T15:14:39Z</time></trkpt><trkpt lat="37.146282751427805" lon="14.88485155381554"><ele>580.0</ele><time>2026-04-06T15:14:40Z</time></trkpt><trkpt lat="37.14638887191676" lon="14.88488876805854"><ele>580.0</ele><time>2026-04-06T15:14:41Z</time></trkpt><trkpt lat="37.14649855638604" lon="14.884919958761072"><ele>580.0</ele><time>2026-04-06T15:14:42Z</time></trkpt><trkpt lat="37.14660963015502" lon="14.88494874853052"><ele>580.0</ele><time>2026-04-06T15:14:43Z</time></trkpt><trkpt lat="37.14671441216042" lon="14.88498314131405"><ele>580.0</ele><time>2026-04-06T15:14:44Z</time></trkpt><trkpt lat="37.14681452641138" lon="14.885028457062894"><ele>580.0</ele><time>2026-04-06T15:14:45Z</time></trkpt><trkpt lat="37.14691336251433" lon="14.885091061146332"><ele>581.0</ele><time>2026-04-06T15:14:45.999Z</time></trkpt><trkpt lat="37.14701663608098" lon="14.88516113643093"><ele>582.0</ele><time>2026-04-06T15:14:46.999Z</time></trkpt><trkpt lat="37.14712392458932" lon="14.885246748671356"><ele>583.0</ele><time>2026-04-06T15:14:47.999Z</time></trkpt><trkpt lat="37.14723254406076" lon="14.885339964093337"><ele>584.0</ele><time>2026-04-06T15:14:48.999Z</time></trkpt><trkpt lat="37.14734436717671" lon="14.885433023663833"><ele>581.25</ele><time>2026-04-06T15:14:49.999Z</time></trkpt><trkpt lat="37.14745827777218" lon="14.885526329767082"><ele>578.5</ele><time>2026-04-06T15:14:50.999Z</time></trkpt><trkpt lat="37.147573632616655" lon="14.885620547673199"><ele>575.75</ele><time>2026-04-06T15:14:51.999Z</time></trkpt><trkpt lat="37.14768586239614" lon="14.885714136933606"><ele>573.0</ele><time>2026-04-06T15:14:52.999Z</time></trkpt><trkpt lat="37.14779398819941" lon="14.885803143790104"><ele>573.0</ele><time>2026-04-06T15:14:53.999Z</time></trkpt><trkpt lat="37.14789559884243" lon="14.885888696239453"><ele>573.0</ele><time>2026-04-06T15:14:54.999Z</time></trkpt><trkpt lat="37.1479888120058" lon="14.885976207489563"><ele>573.0</ele><time>2026-04-06T15:14:55.999Z</time></trkpt><trkpt lat="37.14807501882598" lon="14.886072990676134"><ele>573.0</ele><time>2026-04-06T15:14:56.999Z</time></trkpt><trkpt lat="37.148150325070475" lon="14.886184606348692"><ele>572.25</ele><time>2026-04-06T15:14:57.999Z</time></trkpt><trkpt lat="37.14821712816706" lon="14.886304814797189"><ele>571.5</ele><time>2026-04-06T15:14:58.999Z</time></trkpt><trkpt lat="37.14828312150815" lon="14.886428468556842"><ele>570.75</ele><time>2026-04-06T15:14:59.999Z</time></trkpt><trkpt lat="37.14834580230356" lon="14.886551513784834"><ele>570.0</ele><time>2026-04-06T15:15:00.999Z</time></trkpt><trkpt lat="37.14840467686138" lon="14.886665058354867"><ele>570.2</ele><time>2026-04-06T15:15:01.999Z</time></trkpt><trkpt lat="37.148458930274494" lon="14.886765933014177"><ele>570.4</ele><time>2026-04-06T15:15:02.999Z</time></trkpt><trkpt lat="37.14851353196657" lon="14.886860487026718"><ele>570.6</ele><time>2026-04-06T15:15:03.999Z</time></trkpt><trkpt lat="37.14857214064875" lon="14.886945207287658"><ele>570.8</ele><time>2026-04-06T15:15:04.999Z</time></trkpt><trkpt lat="37.14863476682773" lon="14.887021437246903"><ele>571.0</ele><time>2026-04-06T15:15:05.999Z</time></trkpt><trkpt lat="37.1486988451272" lon="14.887095932172823"><ele>571.0</ele><time>2026-04-06T15:15:06.999Z</time></trkpt><trkpt lat="37.148767701973206" lon="14.88717431270231"><ele>571.0</ele><time>2026-04-06T15:15:07.999Z</time></trkpt><trkpt lat="37.14883870253532" lon="14.887258927469814"><ele>571.0</ele><time>2026-04-06T15:15:08.999Z</time></trkpt><trkpt lat="37.14890833140868" lon="14.887355810461296"><ele>571.0</ele><time>2026-04-06T15:15:09.999Z</time></trkpt><trkpt lat="37.14898267969582" lon="14.887459320821641"><ele>571.0</ele><time>2026-04-06T15:15:10.999Z</time></trkpt><trkpt lat="37.14906105736166" lon="14.887562397476625"><ele>568.0</ele><time>2026-04-06T15:15:11.999Z</time></trkpt><trkpt lat="37.14914090863416" lon="14.887665853487976"><ele>565.0</ele><time>2026-04-06T15:15:12.999Z</time></trkpt><trkpt lat="37.14921980448174" lon="14.88776579164799"><ele>562.0</ele><time>2026-04-06T15:15:13.999Z</time></trkpt><trkpt lat="37.14930435063726" lon="14.887860166429366"><ele>559.0</ele><time>2026-04-06T15:15:14.999Z</time></trkpt><trkpt lat="37.149399500999536" lon="14.887942208180345"><ele>559.0</ele><time>2026-04-06T15:15:15.999Z</time></trkpt><trkpt lat="37.1495092239262" lon="14.888006089980493"><ele>559.0</ele><time>2026-04-06T15:15:16.999Z</time></trkpt><trkpt lat="37.149628316569014" lon="14.888063173589146"><ele>559.0</ele><time>2026-04-06T15:15:17.999Z</time></trkpt><trkpt lat="37.14975214572995" lon="14.888121647611227"><ele>559.0</ele><time>2026-04-06T15:15:18.999Z</time></trkpt><trkpt lat="37.149876975079074" lon="14.888180998988206"><ele>558.0</ele><time>2026-04-06T15:15:19.999Z</time></trkpt><trkpt lat="37.15000264773204" lon="14.888242101110336"><ele>557.0</ele><time>2026-04-06T15:15:20.999Z</time></trkpt><trkpt lat="37.15012198088175" lon="14.88830595984179"><ele>556.0</ele><time>2026-04-06T15:15:21.999Z</time></trkpt><trkpt lat="37.1502394734804" lon="14.88836356842342"><ele>555.0</ele><time>2026-04-06T15:15:22.999Z</time></trkpt><trkpt lat="37.150353721102825" lon="14.888412734075022"><ele>555.0</ele><time>2026-04-06T15:15:23.999Z</time></trkpt><trkpt lat="37.15046926181179" lon="14.888444004328623"><ele>555.0</ele><time>2026-04-06T15:15:24.999Z</time></trkpt><trkpt lat="37.150588933164144" lon="14.888455659661119"><ele>555.0</ele><time>2026-04-06T15:15:25.999Z</time></trkpt><trkpt lat="37.15071505600719" lon="14.88843995912924"><ele>555.0</ele><time>2026-04-06T15:15:26.999Z</time></trkpt><trkpt lat="37.150846135033014" lon="14.88842181699034"><ele>555.0</ele><time>2026-04-06T15:15:27.999Z</time></trkpt><trkpt lat="37.150979023916115" lon="14.888407079957291"><ele>555.0</ele><time>2026-04-06T15:15:28.999Z</time></trkpt><trkpt lat="37.15110991473932" lon="14.888396645260602"><ele>555.0</ele><time>2026-04-06T15:15:29.999Z</time></trkpt><trkpt lat="37.151237983060284" lon="14.8883849101696"><ele>555.0</ele><time>2026-04-06T15:15:30.999Z</time></trkpt><trkpt lat="37.15136564542356" lon="14.888376908073052"><ele>555.0</ele><time>2026-04-06T15:15:31.999Z</time></trkpt><trkpt lat="37.151488674515264" lon="14.888378808011506"><ele>555.0</ele><time>2026-04-06T15:15:32.999Z</time></trkpt><trkpt lat="37.15159200835331" lon="14.888393286468432"><ele>555.0</ele><time>2026-04-06T15:15:33.999Z</time></trkpt><trkpt lat="37.15168472988369" lon="14.888403160773526"><ele>555.0</ele><time>2026-04-06T15:15:34.999Z</time></trkpt><trkpt lat="37.151771001405" lon="14.888421421700533"><ele>555.0</ele><time>2026-04-06T15:15:35.999Z</time></trkpt><trkpt lat="37.15184479123792" lon="14.88845304705186"><ele>553.0</ele><time>2026-04-06T15:15:36.999Z</time></trkpt><trkpt lat="37.151905479447564" lon="14.888492737999131"><ele>551.0</ele><time>2026-04-06T15:15:37.999Z</time></trkpt><trkpt lat="37.15198940788097" lon="14.888593925067646"><ele>549.0</ele><time>2026-04-06T15:15:39.999Z</time></trkpt><trkpt lat="37.15204869491607" lon="14.888679410137108"><ele>547.0</ele><time>2026-04-06T15:15:41.999Z</time></trkpt><trkpt lat="37.15212249381573" lon="14.888700877080028"><ele>545.0</ele><time>2026-04-06T15:15:44.999Z</time></trkpt><trkpt lat="37.15215487808453" lon="14.888624223770158"><ele>543.0</ele><time>2026-04-06T15:15:47.999Z</time></trkpt><trkpt lat="37.15209280729304" lon="14.888559913219108"><ele>543.0</ele><time>2026-04-06T15:15:49.999Z</time></trkpt><trkpt lat="37.15202133125035" lon="14.888542431562067"><ele>543.0</ele><time>2026-04-06T15:15:51.999Z</time></trkpt><trkpt lat="37.151954400013935" lon="14.888522015039792"><ele>543.0</ele><time>2026-04-06T15:15:53.999Z</time></trkpt><trkpt lat="37.15187673427534" lon="14.888478471701044"><ele>543.0</ele><time>2026-04-06T15:15:57Z</time></trkpt><trkpt lat="37.15180134950998" lon="14.888427177939091"><ele>543.0</ele><time>2026-04-06T15:16:00Z</time></trkpt><trkpt lat="37.15174278994834" lon="14.88838137356053"><ele>543.0</ele><time>2026-04-06T15:16:02Z</time></trkpt><trkpt lat="37.15167860840487" lon="14.888370530232661"><ele>543.0</ele><time>2026-04-06T15:16:05Z</time></trkpt><trkpt lat="37.15166304322378" lon="14.888469218401303"><ele>543.0</ele><time>2026-04-06T15:16:08Z</time></trkpt><trkpt lat="37.15174142584855" lon="14.88858524251701"><ele>543.0</ele><time>2026-04-06T15:16:10Z</time></trkpt><trkpt lat="37.15183700979002" lon="14.88870682551412"><ele>543.0</ele><time>2026-04-06T15:16:12Z</time></trkpt><trkpt lat="37.15187711034777" lon="14.888789329595177"><ele>543.0</ele><time>2026-04-06T15:16:13Z</time></trkpt><trkpt lat="37.15191116980729" lon="14.888887185310411"><ele>543.0</ele><time>2026-04-06T15:16:14Z</time></trkpt><trkpt lat="37.15194093523609" lon="14.889008580967372"><ele>543.0</ele><time>2026-04-06T15:16:15Z</time></trkpt><trkpt lat="37.151962736030505" lon="14.88913233747244"><ele>543.0</ele><time>2026-04-06T15:16:16Z</time></trkpt><trkpt lat="37.151975683909114" lon="14.889255444865487"><ele>543.0</ele><time>2026-04-06T15:16:17Z</time></trkpt><trkpt lat="37.15199004246072" lon="14.889376041497117"><ele>543.0</ele><time>2026-04-06T15:16:18Z</time></trkpt><trkpt lat="37.15200937346267" lon="14.88949353325732"><ele>543.0</ele><time>2026-04-06T15:16:19Z</time></trkpt><trkpt lat="37.1520284257684" lon="14.88960817452989"><ele>540.6666666666666</ele><time>2026-04-06T15:16:20Z</time></trkpt><trkpt lat="37.15204546387778" lon="14.889716503868907"><ele>538.3333333333334</ele><time>2026-04-06T15:16:21Z</time></trkpt><trkpt lat="37.1520688499273" lon="14.889814620752285"><ele>536.0</ele><time>2026-04-06T15:16:22Z</time></trkpt><trkpt lat="37.15209923783298" lon="14.889907258643783"><ele>533.6666666666667</ele><time>2026-04-06T15:16:23Z</time></trkpt><trkpt lat="37.15213450234492" lon="14.889997630558861"><ele>531.3333333333334</ele><time>2026-04-06T15:16:24Z</time></trkpt><trkpt lat="37.15217231843527" lon="14.890087761145105"><ele>529.0</ele><time>2026-04-06T15:16:25Z</time></trkpt><trkpt lat="37.15220748416107" lon="14.890179462371675"><ele>529.1666666666667</ele><time>2026-04-06T15:16:26Z</time></trkpt><trkpt lat="37.1522431753869" lon="14.890268546684922"><ele>529.3333333333334</ele><time>2026-04-06T15:16:27Z</time></trkpt><trkpt lat="37.15227955073353" lon="14.890353421261432"><ele>529.5</ele><time>2026-04-06T15:16:28Z</time></trkpt><trkpt lat="37.15232196612915" lon="14.890431237237582"><ele>529.6666666666666</ele><time>2026-04-06T15:16:29Z</time></trkpt><trkpt lat="37.15237510774722" lon="14.890497786262378"><ele>529.8333333333333</ele><time>2026-04-06T15:16:30Z</time></trkpt><trkpt lat="37.1524308175251" lon="14.890558475212076"><ele>530.0</ele><time>2026-04-06T15:16:31Z</time></trkpt><trkpt lat="37.15248779250087" lon="14.890616771558545"><ele>530.0</ele><time>2026-04-06T15:16:32Z</time></trkpt><trkpt lat="37.15254700387412" lon="14.89067095778634"><ele>530.0</ele><time>2026-04-06T15:16:33Z</time></trkpt><trkpt lat="37.152603430501344" lon="14.89071868044291"><ele>530.0</ele><time>2026-04-06T15:16:34Z</time></trkpt><trkpt lat="37.152724578920534" lon="14.89074705603149"><ele>530.0</ele><time>2026-04-06T15:16:36Z</time></trkpt><trkpt lat="37.15284355811278" lon="14.89070277822531"><ele>530.0</ele><time>2026-04-06T15:16:38Z</time></trkpt><trkpt lat="37.152902392011946" lon="14.890669041941788"><ele>529.9999999999999</ele><time>2026-04-06T15:16:39Z</time></trkpt><trkpt lat="37.15296094167835" lon="14.89062704264953"><ele>530.0</ele><time>2026-04-06T15:16:40Z</time></trkpt><trkpt lat="37.15302350816748" lon="14.890577473288808"><ele>530.0</ele><time>2026-04-06T15:16:41Z</time></trkpt><trkpt lat="37.153082460538734" lon="14.890523731770651"><ele>530.0</ele><time>2026-04-06T15:16:42Z</time></trkpt><trkpt lat="37.15314239084652" lon="14.890469938965605"><ele>530.0</ele><time>2026-04-06T15:16:43Z</time></trkpt><trkpt lat="37.15320190082041" lon="14.890417578329192"><ele>529.9999999999999</ele><time>2026-04-06T15:16:44Z</time></trkpt><trkpt lat="37.15325644365276" lon="14.890371413724301"><ele>530.0</ele><time>2026-04-06T15:16:45Z</time></trkpt><trkpt lat="37.15334149921046" lon="14.890302717681777"><ele>528.8</ele><time>2026-04-06T15:16:47Z</time></trkpt><trkpt lat="37.1534182599455" lon="14.890238193139249"><ele>527.6</ele><time>2026-04-06T15:16:49Z</time></trkpt><trkpt lat="37.15351461667763" lon="14.890181444394965"><ele>526.4</ele><time>2026-04-06T15:16:51Z</time></trkpt><trkpt lat="37.15364374988618" lon="14.890156286784254"><ele>525.2</ele><time>2026-04-06T15:16:53Z</time></trkpt><trkpt lat="37.15371653738199" lon="14.890166567098701"><ele>524.0</ele><time>2026-04-06T15:16:53.999Z</time></trkpt><trkpt lat="37.15379024937526" lon="14.890190392159711"><ele>524.0</ele><time>2026-04-06T15:16:54.999Z</time></trkpt><trkpt lat="37.15386248729085" lon="14.890225020239082"><ele>524.0</ele><time>2026-04-06T15:16:55.999Z</time></trkpt><trkpt lat="37.15392736678089" lon="14.89026857989959"><ele>524.0</ele><time>2026-04-06T15:16:56.999Z</time></trkpt><trkpt lat="37.15398277223177" lon="14.890316347488142"><ele>524.0</ele><time>2026-04-06T15:16:57.999Z</time></trkpt><trkpt lat="37.15407194026698" lon="14.890420602547092"><ele>524.0</ele><time>2026-04-06T15:16:59.999Z</time></trkpt><trkpt lat="37.15415917005079" lon="14.890514423678288"><ele>523.8</ele><time>2026-04-06T15:17:01.999Z</time></trkpt><trkpt lat="37.15423916310557" lon="14.890602328454175"><ele>523.5999999999999</ele><time>2026-04-06T15:17:03.999Z</time></trkpt><trkpt lat="37.1543066936053" lon="14.890681287483565"><ele>523.4</ele><time>2026-04-06T15:17:05.999Z</time></trkpt><trkpt lat="37.154379809779456" lon="14.890699575414757"><ele>523.1999999999999</ele><time>2026-04-06T15:17:08.999Z</time></trkpt><trkpt lat="37.15434682662948" lon="14.890629571506876"><ele>523.0</ele><time>2026-04-06T15:17:13.999Z</time></trkpt><trkpt lat="37.15424229772526" lon="14.890560896092843"><ele>523.0</ele><time>2026-04-06T15:17:16.999Z</time></trkpt><trkpt lat="37.15419226704864" lon="14.890508024688067"><ele>523.0</ele><time>2026-04-06T15:17:17.999Z</time></trkpt><trkpt lat="37.15413893758627" lon="14.890448578019809"><ele>523.0</ele><time>2026-04-06T15:17:18.999Z</time></trkpt><trkpt lat="37.15408812970573" lon="14.890394816724012"><ele>523.0</ele><time>2026-04-06T15:17:19.999Z</time></trkpt><trkpt lat="37.153978837954206" lon="14.890298304050152"><ele>523.0</ele><time>2026-04-06T15:17:21.999Z</time></trkpt><trkpt lat="37.15388123520162" lon="14.890232310245763"><ele>523.0</ele><time>2026-04-06T15:17:23.999Z</time></trkpt><trkpt lat="37.15379202818041" lon="14.890184017903579"><ele>523.1999999999999</ele><time>2026-04-06T15:17:25.999Z</time></trkpt><trkpt lat="37.15370054954503" lon="14.890150623817693"><ele>523.4</ele><time>2026-04-06T15:17:27.999Z</time></trkpt><trkpt lat="37.15360290789832" lon="14.890138061651141"><ele>523.5999999999999</ele><time>2026-04-06T15:17:29.999Z</time></trkpt><trkpt lat="37.15350598647066" lon="14.890157236997887"><ele>523.8</ele><time>2026-04-06T15:17:31.999Z</time></trkpt><trkpt lat="37.153424153834756" lon="14.890196422277171"><ele>524.0</ele><time>2026-04-06T15:17:33.999Z</time></trkpt><trkpt lat="37.15336112423979" lon="14.89024372718177"><ele>524.0</ele><time>2026-04-06T15:17:35.999Z</time></trkpt><trkpt lat="37.15330082968602" lon="14.890295896983194"><ele>524.0</ele><time>2026-04-06T15:17:37.999Z</time></trkpt><trkpt lat="37.15322990211503" lon="14.8903555466971"><ele>524.0</ele><time>2026-04-06T15:17:39.999Z</time></trkpt><trkpt lat="37.153152227053575" lon="14.890438016054754"><ele>524.0</ele><time>2026-04-06T15:17:41.999Z</time></trkpt><trkpt lat="37.153064173183665" lon="14.890519078234272"><ele>524.0</ele><time>2026-04-06T15:17:43.999Z</time></trkpt><trkpt lat="37.152927138691126" lon="14.890614301226991"><ele>525.5</ele><time>2026-04-06T15:17:45.999Z</time></trkpt><trkpt lat="37.15281495120286" lon="14.890679772155947"><ele>527.0</ele><time>2026-04-06T15:17:47.999Z</time></trkpt><trkpt lat="37.1526922861041" lon="14.890695976004567"><ele>528.5</ele><time>2026-04-06T15:17:49.999Z</time></trkpt><trkpt lat="37.152576698885916" lon="14.890662278821658"><ele>530.0</ele><time>2026-04-06T15:17:51.999Z</time></trkpt><trkpt lat="37.15247875903422" lon="14.890571633580183"><ele>529.9999999999999</ele><time>2026-04-06T15:17:53.999Z</time></trkpt><trkpt lat="37.15243246207499" lon="14.890517127341683"><ele>530.0</ele><time>2026-04-06T15:17:54.999Z</time></trkpt><trkpt lat="37.15233690017223" lon="14.89041353317806"><ele>530.0</ele><time>2026-04-06T15:17:56.999Z</time></trkpt><trkpt lat="37.15229973929211" lon="14.890348356490405"><ele>530.0</ele><time>2026-04-06T15:17:57.999Z</time></trkpt><trkpt lat="37.1522664856097" lon="14.890278832284423"><ele>530.0</ele><time>2026-04-06T15:17:58.999Z</time></trkpt><trkpt lat="37.152234254329656" lon="14.890209731233778"><ele>529.9999999999999</ele><time>2026-04-06T15:17:59.999Z</time></trkpt><trkpt lat="37.15220508011875" lon="14.89013760405793"><ele>530.0</ele><time>2026-04-06T15:18:01Z</time></trkpt><trkpt lat="37.1521484281147" lon="14.88999671136626"><ele>529.8</ele><time>2026-04-06T15:18:03Z</time></trkpt><trkpt lat="37.15209895767694" lon="14.889852763619176"><ele>529.6</ele><time>2026-04-06T15:18:05Z</time></trkpt><trkpt lat="37.15206035838771" lon="14.889706837030282"><ele>529.4</ele><time>2026-04-06T15:18:07Z</time></trkpt><trkpt lat="37.15204817442626" lon="14.889581010661836"><ele>529.2</ele><time>2026-04-06T15:18:09Z</time></trkpt><trkpt lat="37.152041732034455" lon="14.889481984169775"><ele>529.0</ele><time>2026-04-06T15:18:11Z</time></trkpt><trkpt lat="37.15201537434335" lon="14.889343136003921"><ele>531.3333333333334</ele><time>2026-04-06T15:18:13Z</time></trkpt><trkpt lat="37.151995864965265" lon="14.889253301980647"><ele>533.6666666666667</ele><time>2026-04-06T15:18:14Z</time></trkpt><trkpt lat="37.151982301255806" lon="14.889168313606396"><ele>536.0</ele><time>2026-04-06T15:18:15Z</time></trkpt><trkpt lat="37.15196399515688" lon="14.889012050722123"><ele>538.3333333333334</ele><time>2026-04-06T15:18:17Z</time></trkpt><trkpt lat="37.15194745437193" lon="14.888932498180178"><ele>540.6666666666666</ele><time>2026-04-06T15:18:18Z</time></trkpt><trkpt lat="37.1519260330291" lon="14.888855765339931"><ele>543.0</ele><time>2026-04-06T15:18:19Z</time></trkpt><trkpt lat="37.15189852121828" lon="14.88877929468917"><ele>543.0</ele><time>2026-04-06T15:18:20Z</time></trkpt><trkpt lat="37.151862406033196" lon="14.888703852601724"><ele>543.0</ele><time>2026-04-06T15:18:21Z</time></trkpt><trkpt lat="37.15181802166466" lon="14.88862735523506"><ele>543.0</ele><time>2026-04-06T15:18:22Z</time></trkpt><trkpt lat="37.15176655797113" lon="14.888552076886453"><ele>543.0</ele><time>2026-04-06T15:18:23Z</time></trkpt><trkpt lat="37.151705017020106" lon="14.88847766893957"><ele>543.0</ele><time>2026-04-06T15:18:24Z</time></trkpt><trkpt lat="37.15162966509475" lon="14.88841680561888"><ele>543.0</ele><time>2026-04-06T15:18:25Z</time></trkpt><trkpt lat="37.15155606893403" lon="14.88837498761524"><ele>545.0</ele><time>2026-04-06T15:18:26Z</time></trkpt><trkpt lat="37.151481177804904" lon="14.888356553466332"><ele>547.0</ele><time>2026-04-06T15:18:27Z</time></trkpt><trkpt lat="37.1514083098368" lon="14.888350691370672"><ele>549.0</ele><time>2026-04-06T15:18:28Z</time></trkpt><trkpt lat="37.151333279083964" lon="14.88835231119729"><ele>551.0</ele><time>2026-04-06T15:18:29Z</time></trkpt><trkpt lat="37.15125244838" lon="14.888359748060001"><ele>553.0</ele><time>2026-04-06T15:18:30Z</time></trkpt><trkpt lat="37.151167484152005" lon="14.888371921602587"><ele>555.0</ele><time>2026-04-06T15:18:31Z</time></trkpt><trkpt lat="37.15107744616663" lon="14.888382352496217"><ele>555.0</ele><time>2026-04-06T15:18:32Z</time></trkpt><trkpt lat="37.15098459482651" lon="14.888391330328709"><ele>555.0</ele><time>2026-04-06T15:18:33Z</time></trkpt><trkpt lat="37.15088924735936" lon="14.8884013508444"><ele>555.0</ele><time>2026-04-06T15:18:34Z</time></trkpt><trkpt lat="37.15079551074893" lon="14.888412171460235"><ele>555.0</ele><time>2026-04-06T15:18:35Z</time></trkpt><trkpt lat="37.15071254712218" lon="14.888420480318516"><ele>555.0</ele><time>2026-04-06T15:18:36Z</time></trkpt><trkpt lat="37.15063724376182" lon="14.888423801289044"><ele>555.0</ele><time>2026-04-06T15:18:37Z</time></trkpt><trkpt lat="37.15056859382282" lon="14.888424892667798"><ele>555.0000000000001</ele><time>2026-04-06T15:18:38Z</time></trkpt><trkpt lat="37.15049995401702" lon="14.888415471806608"><ele>555.0</ele><time>2026-04-06T15:18:39Z</time></trkpt><trkpt lat="37.15043160155907" lon="14.88840116129157"><ele>555.0</ele><time>2026-04-06T15:18:40Z</time></trkpt><trkpt lat="37.15036293989523" lon="14.88838287650747"><ele>555.0</ele><time>2026-04-06T15:18:41Z</time></trkpt><trkpt lat="37.15029810546002" lon="14.8883610760614"><ele>555.0</ele><time>2026-04-06T15:18:42Z</time></trkpt><trkpt lat="37.150232123426214" lon="14.888330714874952"><ele>555.0000000000001</ele><time>2026-04-06T15:18:43Z</time></trkpt><trkpt lat="37.150166398159456" lon="14.888298395158802"><ele>555.0</ele><time>2026-04-06T15:18:44Z</time></trkpt><trkpt lat="37.150100859116726" lon="14.888268752005812"><ele>555.0</ele><time>2026-04-06T15:18:45Z</time></trkpt><trkpt lat="37.1500315688117" lon="14.88823834372314"><ele>555.0</ele><time>2026-04-06T15:18:46Z</time></trkpt><trkpt lat="37.149957326199996" lon="14.888201932573486"><ele>555.0</ele><time>2026-04-06T15:18:47Z</time></trkpt><trkpt lat="37.14988118450034" lon="14.888162512324568"><ele>555.0</ele><time>2026-04-06T15:18:48Z</time></trkpt><trkpt lat="37.149800156435695" lon="14.888121447963773"><ele>555.0</ele><time>2026-04-06T15:18:49Z</time></trkpt><trkpt lat="37.149714267251085" lon="14.888080428114101"><ele>555.0</ele><time>2026-04-06T15:18:50Z</time></trkpt><trkpt lat="37.14963292075695" lon="14.888040250644556"><ele>555.8</ele><time>2026-04-06T15:18:51Z</time></trkpt><trkpt lat="37.14955572405174" lon="14.888005254855113"><ele>556.6</ele><time>2026-04-06T15:18:52Z</time></trkpt><trkpt lat="37.149477111346854" lon="14.887965552510241"><ele>557.4</ele><time>2026-04-06T15:18:53Z</time></trkpt><trkpt lat="37.14940099587624" lon="14.887905868298407"><ele>558.2</ele><time>2026-04-06T15:18:54Z</time></trkpt><trkpt lat="37.149321447900086" lon="14.887840736654484"><ele>559.0</ele><time>2026-04-06T15:18:55Z</time></trkpt><trkpt lat="37.149241405646556" lon="14.887763959620871"><ele>559.0</ele><time>2026-04-06T15:18:56Z</time></trkpt><trkpt lat="37.14916599456541" lon="14.88767276492534"><ele>559.0</ele><time>2026-04-06T15:18:57Z</time></trkpt><trkpt lat="37.14909180590153" lon="14.88757677067047"><ele>559.0</ele><time>2026-04-06T15:18:58Z</time></trkpt><trkpt lat="37.14901700196351" lon="14.88747669504671"><ele>559.0</ele><time>2026-04-06T15:18:59Z</time></trkpt><trkpt lat="37.14894254793643" lon="14.88737832066"><ele>559.0</ele><time>2026-04-06T15:19:00Z</time></trkpt><trkpt lat="37.14886844854307" lon="14.887283927251346"><ele>561.4</ele><time>2026-04-06T15:19:01Z</time></trkpt><trkpt lat="37.14879682326252" lon="14.88719259962396"><ele>563.8</ele><time>2026-04-06T15:19:02Z</time></trkpt><trkpt lat="37.148736034893425" lon="14.887116141646793"><ele>566.2</ele><time>2026-04-06T15:19:03Z</time></trkpt><trkpt lat="37.14869001022915" lon="14.887052060390053"><ele>568.6</ele><time>2026-04-06T15:19:04Z</time></trkpt><trkpt lat="37.148623433363404" lon="14.886963180502258"><ele>571.0</ele><time>2026-04-06T15:19:06Z</time></trkpt><trkpt lat="37.14855610907547" lon="14.886870852939834"><ele>571.0</ele><time>2026-04-06T15:19:08Z</time></trkpt><trkpt lat="37.14851319110348" lon="14.886811552874937"><ele>571.0</ele><time>2026-04-06T15:19:09Z</time></trkpt><trkpt lat="37.148466519232784" lon="14.886739483849968"><ele>571.0</ele><time>2026-04-06T15:19:10Z</time></trkpt><trkpt lat="37.14841799570434" lon="14.88665133343948"><ele>571.0</ele><time>2026-04-06T15:19:11Z</time></trkpt><trkpt lat="37.14836773595247" lon="14.886548678647532"><ele>571.0</ele><time>2026-04-06T15:19:12Z</time></trkpt><trkpt lat="37.1483153207296" lon="14.88643626998933"><ele>571.0</ele><time>2026-04-06T15:19:13Z</time></trkpt><trkpt lat="37.148261227689034" lon="14.88632574993409"><ele>571.4</ele><time>2026-04-06T15:19:14Z</time></trkpt><trkpt lat="37.14820092600806" lon="14.886222434636617"><ele>571.8</ele><time>2026-04-06T15:19:15Z</time></trkpt><trkpt lat="37.14813108252798" lon="14.88612318279627"><ele>572.1999999999999</ele><time>2026-04-06T15:19:15.999Z</time></trkpt><trkpt lat="37.14805043219639" lon="14.886026735448814"><ele>572.6</ele><time>2026-04-06T15:19:16.999Z</time></trkpt><trkpt lat="37.14795568758469" lon="14.88593445639665"><ele>573.0</ele><time>2026-04-06T15:19:17.999Z</time></trkpt><trkpt lat="37.14785724654473" lon="14.885843427017168"><ele>573.0</ele><time>2026-04-06T15:19:18.999Z</time></trkpt><trkpt lat="37.14775251169948" lon="14.885753946350077"><ele>573.0</ele><time>2026-04-06T15:19:19.999Z</time></trkpt><trkpt lat="37.14764554644591" lon="14.885664063388942"><ele>573.0</ele><time>2026-04-06T15:19:20.999Z</time></trkpt><trkpt lat="37.14753657843667" lon="14.885572951009955"><ele>573.0</ele><time>2026-04-06T15:19:21.999Z</time></trkpt><trkpt lat="37.14742859692312" lon="14.885483152939027"><ele>575.75</ele><time>2026-04-06T15:19:22.999Z</time></trkpt><trkpt lat="37.147320034001474" lon="14.885397366843865"><ele>578.5</ele><time>2026-04-06T15:19:23.999Z</time></trkpt><trkpt lat="37.147215589368294" lon="14.885311236024789"><ele>581.25</ele><time>2026-04-06T15:19:24.999Z</time></trkpt><trkpt lat="37.14711100729198" lon="14.885225611905009"><ele>584.0</ele><time>2026-04-06T15:19:25.999Z</time></trkpt><trkpt lat="37.14700793796835" lon="14.885141375599467"><ele>581.25</ele><time>2026-04-06T15:19:26.999Z</time></trkpt><trkpt lat="37.146902026088135" lon="14.885065863985606"><ele>578.5</ele><time>2026-04-06T15:19:27.999Z</time></trkpt><trkpt lat="37.146795727565575" lon="14.885003708169194"><ele>575.75</ele><time>2026-04-06T15:19:28.999Z</time></trkpt><trkpt lat="37.14669123605358" lon="14.884953810994913"><ele>573.0</ele><time>2026-04-06T15:19:29.999Z</time></trkpt><trkpt lat="37.146591420445844" lon="14.884924583299334"><ele>574.1666666666666</ele><time>2026-04-06T15:19:30.999Z</time></trkpt><trkpt lat="37.14649377783318" lon="14.884897477348664"><ele>575.3333333333334</ele><time>2026-04-06T15:19:31.999Z</time></trkpt><trkpt lat="37.146398439001786" lon="14.884873181387565"><ele>576.5</ele><time>2026-04-06T15:19:32.999Z</time></trkpt><trkpt lat="37.14631189910201" lon="14.884838528156166"><ele>577.6666666666667</ele><time>2026-04-06T15:19:33.999Z</time></trkpt><trkpt lat="37.146239419598984" lon="14.884788685114199"><ele>578.8333333333334</ele><time>2026-04-06T15:19:34.999Z</time></trkpt><trkpt lat="37.146180615085086" lon="14.884734867898105"><ele>580.0</ele><time>2026-04-06T15:19:35.999Z</time></trkpt><trkpt lat="37.146132466498344" lon="14.884675351426267"><ele>580.0</ele><time>2026-04-06T15:19:36.999Z</time></trkpt><trkpt lat="37.14609019943576" lon="14.884604012593993"><ele>580.0</ele><time>2026-04-06T15:19:37.999Z</time></trkpt><trkpt lat="37.14605123136282" lon="14.884529580944106"><ele>580.0</ele><time>2026-04-06T15:19:38.999Z</time></trkpt><trkpt lat="37.14601624586311" lon="14.884440921946666"><ele>580.0</ele><time>2026-04-06T15:19:39.999Z</time></trkpt><trkpt lat="37.14598382304424" lon="14.884348713215925"><ele>580.0</ele><time>2026-04-06T15:19:40.999Z</time></trkpt><trkpt lat="37.145949042324986" lon="14.884252258444784"><ele>580.0</ele><time>2026-04-06T15:19:41.999Z</time></trkpt><trkpt lat="37.145917269552704" lon="14.884147934507716"><ele>579.6</ele><time>2026-04-06T15:19:42.999Z</time></trkpt><trkpt lat="37.14588156893979" lon="14.884044435202858"><ele>579.2</ele><time>2026-04-06T15:19:43.999Z</time></trkpt><trkpt lat="37.14584666866982" lon="14.883939522691389"><ele>578.8</ele><time>2026-04-06T15:19:44.999Z</time></trkpt><trkpt lat="37.145814026573994" lon="14.883833437388477"><ele>578.4</ele><time>2026-04-06T15:19:45.999Z</time></trkpt><trkpt lat="37.14578119256865" lon="14.883725314423408"><ele>578.0</ele><time>2026-04-06T15:19:46.999Z</time></trkpt><trkpt lat="37.14574892880708" lon="14.883621657394828"><ele>578.0</ele><time>2026-04-06T15:19:47.999Z</time></trkpt><trkpt lat="37.14571435065687" lon="14.883515922316217"><ele>578.0</ele><time>2026-04-06T15:19:48.999Z</time></trkpt><trkpt lat="37.145669310150765" lon="14.88342778817554"><ele>578.0</ele><time>2026-04-06T15:19:49.999Z</time></trkpt><trkpt lat="37.14561743758311" lon="14.883343848364191"><ele>578.0</ele><time>2026-04-06T15:19:50.999Z</time></trkpt><trkpt lat="37.14555093539432" lon="14.883226441399"><ele>578.0</ele><time>2026-04-06T15:19:51.999Z</time></trkpt><trkpt lat="37.14546284390576" lon="14.883154785067664"><ele>580.6</ele><time>2026-04-06T15:19:52.999Z</time></trkpt><trkpt lat="37.145372057589135" lon="14.88308302449213"><ele>583.1999999999999</ele><time>2026-04-06T15:19:53.999Z</time></trkpt><trkpt lat="37.145283746716856" lon="14.883009792899825"><ele>585.8</ele><time>2026-04-06T15:19:54.999Z</time></trkpt><trkpt lat="37.1451998466698" lon="14.88293951369076"><ele>588.4</ele><time>2026-04-06T15:19:55.999Z</time></trkpt><trkpt lat="37.14511767850631" lon="14.882874117247834"><ele>591.0</ele><time>2026-04-06T15:19:56.999Z</time></trkpt><trkpt lat="37.14503617350432" lon="14.88280979600075"><ele>591.0</ele><time>2026-04-06T15:19:57.999Z</time></trkpt><trkpt lat="37.144953729763635" lon="14.882743700173064"><ele>591.0</ele><time>2026-04-06T15:19:58.999Z</time></trkpt><trkpt lat="37.144872465899624" lon="14.882679068723967"><ele>591.0</ele><time>2026-04-06T15:19:59.999Z</time></trkpt><trkpt lat="37.144792845668775" lon="14.88261820934601"><ele>591.0</ele><time>2026-04-06T15:20:00.999Z</time></trkpt><trkpt lat="37.14470491707198" lon="14.882550958526933"><ele>591.0</ele><time>2026-04-06T15:20:01.999Z</time></trkpt><trkpt lat="37.14461118425058" lon="14.882472807509254"><ele>592.2</ele><time>2026-04-06T15:20:02.999Z</time></trkpt><trkpt lat="37.14452207824309" lon="14.88239536770867"><ele>593.4000000000001</ele><time>2026-04-06T15:20:03.999Z</time></trkpt><trkpt lat="37.14443110740785" lon="14.882316733670285"><ele>594.6</ele><time>2026-04-06T15:20:04.999Z</time></trkpt><trkpt lat="37.14434226256271" lon="14.88224936448748"><ele>595.8000000000001</ele><time>2026-04-06T15:20:05.999Z</time></trkpt><trkpt lat="37.1442658600028" lon="14.882187722219998"><ele>597.0</ele><time>2026-04-06T15:20:07Z</time></trkpt><trkpt lat="37.14420832797057" lon="14.882128655618164"><ele>597.0000000000001</ele><time>2026-04-06T15:20:08Z</time></trkpt><trkpt lat="37.14416469229538" lon="14.882061334511906"><ele>597.0</ele><time>2026-04-06T15:20:09Z</time></trkpt><trkpt lat="37.14413089698775" lon="14.881986961273958"><ele>597.0</ele><time>2026-04-06T15:20:10Z</time></trkpt><trkpt lat="37.14410552228204" lon="14.88190300179708"><ele>597.0</ele><time>2026-04-06T15:20:11Z</time></trkpt><trkpt lat="37.144081301973706" lon="14.881815341439571"><ele>597.0</ele><time>2026-04-06T15:20:12Z</time></trkpt><trkpt lat="37.14406045890476" lon="14.881726786633994"><ele>597.0000000000001</ele><time>2026-04-06T15:20:13Z</time></trkpt><trkpt lat="37.14404499827496" lon="14.881626303855784"><ele>597.0</ele><time>2026-04-06T15:20:14Z</time></trkpt><trkpt lat="37.144026150707994" lon="14.881519605840806"><ele>599.6</ele><time>2026-04-06T15:20:15Z</time></trkpt><trkpt lat="37.144007165023844" lon="14.881407407843367"><ele>602.2</ele><time>2026-04-06T15:20:16Z</time></trkpt><trkpt lat="37.14399415062774" lon="14.8812901892935"><ele>604.8</ele><time>2026-04-06T15:20:17Z</time></trkpt><trkpt lat="37.143990435428506" lon="14.88116560898593"><ele>607.4</ele><time>2026-04-06T15:20:18Z</time></trkpt><trkpt lat="37.14399171874592" lon="14.88104075767909"><ele>610.0</ele><time>2026-04-06T15:20:19Z</time></trkpt><trkpt lat="37.1439927664661" lon="14.880913284034271"><ele>610.0</ele><time>2026-04-06T15:20:20Z</time></trkpt><trkpt lat="37.143983026014816" lon="14.880790173728712"><ele>610.0</ele><time>2026-04-06T15:20:21Z</time></trkpt><trkpt lat="37.14396227523436" lon="14.880671822911102"><ele>610.0</ele><time>2026-04-06T15:20:22Z</time></trkpt><trkpt lat="37.143924813213744" lon="14.880556668787492"><ele>610.0</ele><time>2026-04-06T15:20:23Z</time></trkpt><trkpt lat="37.143875367961165" lon="14.8804431456871"><ele>610.0</ele><time>2026-04-06T15:20:24Z</time></trkpt><trkpt lat="37.14381221447743" lon="14.880336438960713"><ele>610.0</ele><time>2026-04-06T15:20:25Z</time></trkpt><trkpt lat="37.143741348203264" lon="14.880238747385972"><ele>610.0</ele><time>2026-04-06T15:20:26Z</time></trkpt><trkpt lat="37.14366507529342" lon="14.880151299607757"><ele>610.0</ele><time>2026-04-06T15:20:27Z</time></trkpt><trkpt lat="37.143585381097495" lon="14.880068066090532"><ele>610.0</ele><time>2026-04-06T15:20:28Z</time></trkpt><trkpt lat="37.14350171224937" lon="14.879994561240245"><ele>610.0</ele><time>2026-04-06T15:20:29Z</time></trkpt><trkpt lat="37.143410272259175" lon="14.879932678845917"><ele>608.0</ele><time>2026-04-06T15:20:30Z</time></trkpt><trkpt lat="37.14331583369952" lon="14.879881992240364"><ele>606.0</ele><time>2026-04-06T15:20:31Z</time></trkpt><trkpt lat="37.14321771601348" lon="14.879841118941242"><ele>604.0</ele><time>2026-04-06T15:20:32Z</time></trkpt><trkpt lat="37.143117801857805" lon="14.879803772766115"><ele>602.0</ele><time>2026-04-06T15:20:33Z</time></trkpt><trkpt lat="37.143022245603085" lon="14.879756857488701"><ele>600.0</ele><time>2026-04-06T15:20:34Z</time></trkpt><trkpt lat="37.14293614468313" lon="14.879694522828721"><ele>605.5</ele><time>2026-04-06T15:20:35Z</time></trkpt><trkpt lat="37.142854784243845" lon="14.87960567342346"><ele>611.0</ele><time>2026-04-06T15:20:36Z</time></trkpt><trkpt lat="37.14277420943046" lon="14.879501590653824"><ele>616.5</ele><time>2026-04-06T15:20:37Z</time></trkpt><trkpt lat="37.14269399655368" lon="14.879393026568517"><ele>622.0</ele><time>2026-04-06T15:20:38Z</time></trkpt><trkpt lat="37.14260688484335" lon="14.87928333968431"><ele>623.5</ele><time>2026-04-06T15:20:39Z</time></trkpt><trkpt lat="37.142515763071934" lon="14.879178976206697"><ele>625.0</ele><time>2026-04-06T15:20:40Z</time></trkpt><trkpt lat="37.142422848950034" lon="14.879082820167971"><ele>626.5</ele><time>2026-04-06T15:20:41Z</time></trkpt><trkpt lat="37.142326075065846" lon="14.878995638664714"><ele>628.0</ele><time>2026-04-06T15:20:42Z</time></trkpt><trkpt lat="37.14223203748874" lon="14.878913312703755"><ele>628.0</ele><time>2026-04-06T15:20:43Z</time></trkpt><trkpt lat="37.14214183968114" lon="14.878832171572197"><ele>628.0</ele><time>2026-04-06T15:20:44Z</time></trkpt><trkpt lat="37.142059749558605" lon="14.878748001352983"><ele>628.0</ele><time>2026-04-06T15:20:45Z</time></trkpt><trkpt lat="37.14198952590896" lon="14.878655804662463"><ele>628.0</ele><time>2026-04-06T15:20:46Z</time></trkpt><trkpt lat="37.14193080939536" lon="14.878555749674039"><ele>628.0</ele><time>2026-04-06T15:20:47Z</time></trkpt><trkpt lat="37.14188117798889" lon="14.878438045370448"><ele>624.75</ele><time>2026-04-06T15:20:48Z</time></trkpt><trkpt lat="37.141838416962855" lon="14.87831450087115"><ele>621.5</ele><time>2026-04-06T15:20:49Z</time></trkpt><trkpt lat="37.141800927632474" lon="14.878181568892408"><ele>618.25</ele><time>2026-04-06T15:20:50Z</time></trkpt><trkpt lat="37.14176523798085" lon="14.878040560429188"><ele>615.0</ele><time>2026-04-06T15:20:51Z</time></trkpt><trkpt lat="37.141722918008185" lon="14.87790222956204"><ele>615.0</ele><time>2026-04-06T15:20:52Z</time></trkpt><trkpt lat="37.141667125771626" lon="14.877772884938125"><ele>615.0</ele><time>2026-04-06T15:20:53Z</time></trkpt><trkpt lat="37.141594250067016" lon="14.87765224887057"><ele>615.0</ele><time>2026-04-06T15:20:54Z</time></trkpt><trkpt lat="37.141517459577976" lon="14.877531587445057"><ele>615.0</ele><time>2026-04-06T15:20:55Z</time></trkpt><trkpt lat="37.14144013455694" lon="14.877405155364269"><ele>617.25</ele><time>2026-04-06T15:20:56Z</time></trkpt><trkpt lat="37.1413647331079" lon="14.877282368347048"><ele>619.5</ele><time>2026-04-06T15:20:57Z</time></trkpt><trkpt lat="37.14127853799111" lon="14.877166639054053"><ele>621.75</ele><time>2026-04-06T15:20:58Z</time></trkpt><trkpt lat="37.14117525788209" lon="14.877060993283276"><ele>624.0</ele><time>2026-04-06T15:20:59Z</time></trkpt><trkpt lat="37.14105623199689" lon="14.876973300621719"><ele>624.0</ele><time>2026-04-06T15:21:00Z</time></trkpt><trkpt lat="37.14093527664911" lon="14.876892193004576"><ele>624.0</ele><time>2026-04-06T15:21:01Z</time></trkpt><trkpt lat="37.140826364858995" lon="14.876815638973548"><ele>624.0</ele><time>2026-04-06T15:21:02Z</time></trkpt><trkpt lat="37.14073253989898" lon="14.876729752221792"><ele>624.0</ele><time>2026-04-06T15:21:03Z</time></trkpt><trkpt lat="37.14065178969115" lon="14.876637290216086"><ele>626.2</ele><time>2026-04-06T15:21:04Z</time></trkpt><trkpt lat="37.14058760558652" lon="14.876545777679091"><ele>628.4</ele><time>2026-04-06T15:21:05Z</time></trkpt><trkpt lat="37.14053692934204" lon="14.87644864824799"><ele>630.6</ele><time>2026-04-06T15:21:06Z</time></trkpt><trkpt lat="37.140488199883016" lon="14.87633264651925"><ele>632.8</ele><time>2026-04-06T15:21:07Z</time></trkpt><trkpt lat="37.140435041958725" lon="14.876218719277226"><ele>635.0</ele><time>2026-04-06T15:21:07.999Z</time></trkpt><trkpt lat="37.14036511996045" lon="14.87611496660029"><ele>635.0</ele><time>2026-04-06T15:21:08.999Z</time></trkpt><trkpt lat="37.140281303892095" lon="14.876014973243993"><ele>635.0</ele><time>2026-04-06T15:21:09.999Z</time></trkpt><trkpt lat="37.140182971944036" lon="14.8759180759942"><ele>635.0</ele><time>2026-04-06T15:21:10.999Z</time></trkpt><trkpt lat="37.14008234023171" lon="14.875816901860324"><ele>635.0</ele><time>2026-04-06T15:21:11.999Z</time></trkpt><trkpt lat="37.13998106754686" lon="14.875711900894355"><ele>635.5</ele><time>2026-04-06T15:21:12.999Z</time></trkpt><trkpt lat="37.13988414838578" lon="14.875612792002293"><ele>636.0</ele><time>2026-04-06T15:21:13.999Z</time></trkpt><trkpt lat="37.1397865752742" lon="14.87550959480965"><ele>636.5</ele><time>2026-04-06T15:21:14.999Z</time></trkpt><trkpt lat="37.13968451904342" lon="14.875400806622876"><ele>637.0</ele><time>2026-04-06T15:21:15.999Z</time></trkpt><trkpt lat="37.139584275415416" lon="14.875285302711568"><ele>637.0</ele><time>2026-04-06T15:21:16.999Z</time></trkpt><trkpt lat="37.13948450960315" lon="14.875168723346608"><ele>637.0</ele><time>2026-04-06T15:21:17.999Z</time></trkpt><trkpt lat="37.139385679108656" lon="14.875052923071323"><ele>637.0</ele><time>2026-04-06T15:21:18.999Z</time></trkpt><trkpt lat="37.13928273236238" lon="14.874939224197437"><ele>637.0</ele><time>2026-04-06T15:21:19.999Z</time></trkpt><trkpt lat="37.13917557589522" lon="14.874825598319129"><ele>635.5</ele><time>2026-04-06T15:21:20.999Z</time></trkpt><trkpt lat="37.139067964191575" lon="14.874710567523813"><ele>634.0</ele><time>2026-04-06T15:21:21.999Z</time></trkpt><trkpt lat="37.13896392784683" lon="14.87459230918563"><ele>632.5</ele><time>2026-04-06T15:21:22.999Z</time></trkpt><trkpt lat="37.13885810585284" lon="14.874472558976219"><ele>631.0</ele><time>2026-04-06T15:21:23.999Z</time></trkpt><trkpt lat="37.13875141028643" lon="14.874357089194893"><ele>633.0</ele><time>2026-04-06T15:21:24.999Z</time></trkpt><trkpt lat="37.13863847249917" lon="14.874236774766372"><ele>635.0</ele><time>2026-04-06T15:21:25.999Z</time></trkpt><trkpt lat="37.138528271678375" lon="14.874122440437578"><ele>637.0</ele><time>2026-04-06T15:21:26.999Z</time></trkpt><trkpt lat="37.13841917658496" lon="14.874006994150895"><ele>639.0</ele><time>2026-04-06T15:21:27.999Z</time></trkpt><trkpt lat="37.13831623466099" lon="14.873886661616742"><ele>641.5</ele><time>2026-04-06T15:21:28.999Z</time></trkpt><trkpt lat="37.138209400127884" lon="14.873769128476951"><ele>644.0</ele><time>2026-04-06T15:21:29.999Z</time></trkpt><trkpt lat="37.13810364497701" lon="14.87364829003688"><ele>646.5</ele><time>2026-04-06T15:21:30.999Z</time></trkpt><trkpt lat="37.13799721680397" lon="14.873530551129194"><ele>649.0</ele><time>2026-04-06T15:21:31.999Z</time></trkpt><trkpt lat="37.13789495435793" lon="14.873411319284685"><ele>649.0</ele><time>2026-04-06T15:21:32.999Z</time></trkpt><trkpt lat="37.13780283961486" lon="14.8733034409588"><ele>649.0</ele><time>2026-04-06T15:21:33.999Z</time></trkpt><trkpt lat="37.13771676745228" lon="14.873201841145201"><ele>649.0</ele><time>2026-04-06T15:21:34.999Z</time></trkpt><trkpt lat="37.137633188375155" lon="14.873101697597207"><ele>649.0</ele><time>2026-04-06T15:21:35.999Z</time></trkpt><trkpt lat="37.13755225151443" lon="14.872987973551334"><ele>649.0</ele><time>2026-04-06T15:21:36.999Z</time></trkpt><trkpt lat="37.13749174393986" lon="14.872855759495852"><ele>649.0</ele><time>2026-04-06T15:21:37.999Z</time></trkpt><trkpt lat="37.13744367214247" lon="14.872718019119523"><ele>649.0</ele><time>2026-04-06T15:21:38.999Z</time></trkpt><trkpt lat="37.13739895310438" lon="14.87258223565536"><ele>649.0</ele><time>2026-04-06T15:21:39.999Z</time></trkpt><trkpt lat="37.13734323956243" lon="14.872455108329047"><ele>651.25</ele><time>2026-04-06T15:21:40.999Z</time></trkpt><trkpt lat="37.13725559250723" lon="14.872345142846276"><ele>653.5</ele><time>2026-04-06T15:21:41.999Z</time></trkpt><trkpt lat="37.137155232963174" lon="14.872242666040737"><ele>655.75</ele><time>2026-04-06T15:21:42.999Z</time></trkpt><trkpt lat="37.137057374467986" lon="14.872150272941768"><ele>658.0</ele><time>2026-04-06T15:21:43.999Z</time></trkpt><trkpt lat="37.136969645778" lon="14.872055147773374"><ele>658.0</ele><time>2026-04-06T15:21:44.999Z</time></trkpt><trkpt lat="37.13689685600843" lon="14.87195073439427"><ele>658.0</ele><time>2026-04-06T15:21:45.999Z</time></trkpt><trkpt lat="37.136827845888064" lon="14.871845051477033"><ele>658.0</ele><time>2026-04-06T15:21:46.999Z</time></trkpt><trkpt lat="37.13676562355408" lon="14.871725071003452"><ele>658.0</ele><time>2026-04-06T15:21:47.999Z</time></trkpt><trkpt lat="37.136708267528" lon="14.87159263878548"><ele>656.25</ele><time>2026-04-06T15:21:48.999Z</time></trkpt><trkpt lat="37.13665450109713" lon="14.871451717214159"><ele>654.5</ele><time>2026-04-06T15:21:49.999Z</time></trkpt><trkpt lat="37.136596163725535" lon="14.871310427830613"><ele>652.75</ele><time>2026-04-06T15:21:50.999Z</time></trkpt><trkpt lat="37.13652944390034" lon="14.871168818226687"><ele>651.0</ele><time>2026-04-06T15:21:51.999Z</time></trkpt><trkpt lat="37.13646097753543" lon="14.871026806761192"><ele>655.75</ele><time>2026-04-06T15:21:52.999Z</time></trkpt><trkpt lat="37.136394493725014" lon="14.87088483671142"><ele>660.5</ele><time>2026-04-06T15:21:53.999Z</time></trkpt><trkpt lat="37.13632839460364" lon="14.870741372491013"><ele>665.25</ele><time>2026-04-06T15:21:54.999Z</time></trkpt><trkpt lat="37.13626557851209" lon="14.870599650722369"><ele>670.0</ele><time>2026-04-06T15:21:55.999Z</time></trkpt><trkpt lat="37.136202794603825" lon="14.870456919108658"><ele>670.0</ele><time>2026-04-06T15:21:56.999Z</time></trkpt><trkpt lat="37.13613822859729" lon="14.87031457418174"><ele>670.0</ele><time>2026-04-06T15:21:57.999Z</time></trkpt><trkpt lat="37.136072838091884" lon="14.870183479695566"><ele>670.0</ele><time>2026-04-06T15:21:58.999Z</time></trkpt><trkpt lat="37.13600263465486" lon="14.870075190405263"><ele>670.0</ele><time>2026-04-06T15:21:59.999Z</time></trkpt><trkpt lat="37.13592231879152" lon="14.86999774020442"><ele>671.2</ele><time>2026-04-06T15:22:00.999Z</time></trkpt><trkpt lat="37.13583269312978" lon="14.869941230116229"><ele>672.4</ele><time>2026-04-06T15:22:01.999Z</time></trkpt><trkpt lat="37.13573336333173" lon="14.869879565347354"><ele>673.5999999999999</ele><time>2026-04-06T15:22:02.999Z</time></trkpt><trkpt lat="37.13563302322274" lon="14.869810588331422"><ele>674.8</ele><time>2026-04-06T15:22:03.999Z</time></trkpt><trkpt lat="37.135527361868164" lon="14.86974545488595"><ele>676.0</ele><time>2026-04-06T15:22:04.999Z</time></trkpt><trkpt lat="37.13541651057123" lon="14.869684248946838"><ele>676.0</ele><time>2026-04-06T15:22:05.999Z</time></trkpt><trkpt lat="37.135310822516914" lon="14.869616340039524"><ele>676.0</ele><time>2026-04-06T15:22:06.999Z</time></trkpt><trkpt lat="37.13521225636612" lon="14.869542414793475"><ele>676.0</ele><time>2026-04-06T15:22:07.999Z</time></trkpt><trkpt lat="37.13512203071269" lon="14.869454306361902"><ele>676.0</ele><time>2026-04-06T15:22:08.999Z</time></trkpt><trkpt lat="37.13504566041211" lon="14.869338052635849"><ele>673.0</ele><time>2026-04-06T15:22:09.999Z</time></trkpt><trkpt lat="37.134974452123046" lon="14.869200924668817"><ele>670.0</ele><time>2026-04-06T15:22:10.999Z</time></trkpt><trkpt lat="37.13490962495948" lon="14.869050031060572"><ele>667.0</ele><time>2026-04-06T15:22:11.999Z</time></trkpt><trkpt lat="37.13484749947884" lon="14.868901073898591"><ele>664.0</ele><time>2026-04-06T15:22:13Z</time></trkpt><trkpt lat="37.134790521938136" lon="14.868767500111415"><ele>667.5</ele><time>2026-04-06T15:22:14Z</time></trkpt><trkpt lat="37.13472568337159" lon="14.86863822361841"><ele>671.0</ele><time>2026-04-06T15:22:15Z</time></trkpt><trkpt lat="37.134647924309704" lon="14.868513883589207"><ele>674.5</ele><time>2026-04-06T15:22:16Z</time></trkpt><trkpt lat="37.1345605670399" lon="14.868395242065255"><ele>678.0</ele><time>2026-04-06T15:22:17Z</time></trkpt><trkpt lat="37.13446176085236" lon="14.86828225033031"><ele>678.0</ele><time>2026-04-06T15:22:18Z</time></trkpt><trkpt lat="37.13435780107493" lon="14.868174267061747"><ele>678.0</ele><time>2026-04-06T15:22:19Z</time></trkpt><trkpt lat="37.13424800489061" lon="14.868072928669992"><ele>678.0</ele><time>2026-04-06T15:22:20Z</time></trkpt><trkpt lat="37.13413947468497" lon="14.867976810327841"><ele>678.0</ele><time>2026-04-06T15:22:21Z</time></trkpt><trkpt lat="37.134030510388826" lon="14.86788345080637"><ele>679.75</ele><time>2026-04-06T15:22:22Z</time></trkpt><trkpt lat="37.13391911076935" lon="14.867791209305892"><ele>681.5</ele><time>2026-04-06T15:22:23Z</time></trkpt><trkpt lat="37.133813968829664" lon="14.867693484531905"><ele>683.25</ele><time>2026-04-06T15:22:24Z</time></trkpt><trkpt lat="37.133714991620195" lon="14.867583195005336"><ele>685.0</ele><time>2026-04-06T15:22:25Z</time></trkpt><trkpt lat="37.1336233307719" lon="14.867457768474392"><ele>685.0</ele><time>2026-04-06T15:22:26Z</time></trkpt><trkpt lat="37.133542903005576" lon="14.867330190606793"><ele>685.0</ele><time>2026-04-06T15:22:27Z</time></trkpt><trkpt lat="37.13346710429415" lon="14.867211565254351"><ele>685.0</ele><time>2026-04-06T15:22:28Z</time></trkpt><trkpt lat="37.133400052014466" lon="14.867108216483395"><ele>685.0</ele><time>2026-04-06T15:22:29Z</time></trkpt><trkpt lat="37.13333720956676" lon="14.867010686611268"><ele>685.0</ele><time>2026-04-06T15:22:30Z</time></trkpt><trkpt lat="37.133284632348" lon="14.866925754838254"><ele>685.0</ele><time>2026-04-06T15:22:31Z</time></trkpt><trkpt lat="37.13323605366283" lon="14.866848674797879"><ele>685.0</ele><time>2026-04-06T15:22:32Z</time></trkpt><trkpt lat="37.13319144403826" lon="14.866766816796304"><ele>685.0</ele><time>2026-04-06T15:22:33Z</time></trkpt><trkpt lat="37.133153915966666" lon="14.866674745553318"><ele>685.0</ele><time>2026-04-06T15:22:34Z</time></trkpt><trkpt lat="37.13312662188003" lon="14.86656723811114"><ele>685.0</ele><time>2026-04-06T15:22:35Z</time></trkpt><trkpt lat="37.13310751501426" lon="14.866451699649193"><ele>686.2</ele><time>2026-04-06T15:22:36Z</time></trkpt><trkpt lat="37.13309199559912" lon="14.8663369296445"><ele>687.4</ele><time>2026-04-06T15:22:37Z</time></trkpt><trkpt lat="37.133067194062086" lon="14.866220725282526"><ele>688.5999999999999</ele><time>2026-04-06T15:22:38Z</time></trkpt><trkpt lat="37.13302869981152" lon="14.86610542335744"><ele>689.8</ele><time>2026-04-06T15:22:39Z</time></trkpt><trkpt lat="37.1329752953664" lon="14.865995096519356"><ele>691.0</ele><time>2026-04-06T15:22:40Z</time></trkpt><trkpt lat="37.13291366302971" lon="14.865888281180007"><ele>691.0</ele><time>2026-04-06T15:22:41Z</time></trkpt><trkpt lat="37.13284607369064" lon="14.86579289312199"><ele>691.0</ele><time>2026-04-06T15:22:42Z</time></trkpt><trkpt lat="37.132773744386036" lon="14.865712554629395"><ele>691.0</ele><time>2026-04-06T15:22:43Z</time></trkpt><trkpt lat="37.13269732914606" lon="14.865644972845146"><ele>691.0</ele><time>2026-04-06T15:22:44Z</time></trkpt><trkpt lat="37.1326176194036" lon="14.865593076467082"><ele>691.0</ele><time>2026-04-06T15:22:45Z</time></trkpt><trkpt lat="37.132549989138354" lon="14.865567295860814"><ele>691.0</ele><time>2026-04-06T15:22:46Z</time></trkpt><trkpt lat="37.13245821092489" lon="14.865596712915217"><ele>691.0</ele><time>2026-04-06T15:22:48Z</time></trkpt><trkpt lat="37.13242997729678" lon="14.865724342071017"><ele>691.0</ele><time>2026-04-06T15:22:49.999Z</time></trkpt><trkpt lat="37.132505515116485" lon="14.865868901120635"><ele>691.0</ele><time>2026-04-06T15:22:51.999Z</time></trkpt><trkpt lat="37.132557475647225" lon="14.865950181633238"><ele>691.0</ele><time>2026-04-06T15:22:52.999Z</time></trkpt><trkpt lat="37.13260543989305" lon="14.866023672990577"><ele>692.3333333333334</ele><time>2026-04-06T15:22:53.999Z</time></trkpt><trkpt lat="37.13265584398384" lon="14.866093347696584"><ele>693.6666666666667</ele><time>2026-04-06T15:22:54.999Z</time></trkpt><trkpt lat="37.13270675244195" lon="14.866174538887114"><ele>695.0</ele><time>2026-04-06T15:22:55.999Z</time></trkpt><trkpt lat="37.132750711615365" lon="14.866246085668362"><ele>696.3333333333334</ele><time>2026-04-06T15:22:56.999Z</time></trkpt><trkpt lat="37.1327829663031" lon="14.86631705651861"><ele>697.6666666666666</ele><time>2026-04-06T15:22:57.999Z</time></trkpt><trkpt lat="37.13277571431865" lon="14.866444769129163"><ele>699.0</ele><time>2026-04-06T15:22:59.999Z</time></trkpt><trkpt lat="37.13269798285785" lon="14.866475580738529"><ele>699.0</ele><time>2026-04-06T15:23:01.999Z</time></trkpt><trkpt lat="37.132638749372106" lon="14.866441286552982"><ele>699.0</ele><time>2026-04-06T15:23:02.999Z</time></trkpt><trkpt lat="37.132585518704396" lon="14.866377160853322"><ele>699.0</ele><time>2026-04-06T15:23:03.999Z</time></trkpt><trkpt lat="37.132528928650075" lon="14.866312628418155"><ele>699.0</ele><time>2026-04-06T15:23:04.999Z</time></trkpt><trkpt lat="37.13243345719827" lon="14.866207697666846"><ele>699.0</ele><time>2026-04-06T15:23:06.999Z</time></trkpt><trkpt lat="37.13237640728442" lon="14.866147591817903"><ele>699.0</ele><time>2026-04-06T15:23:07.999Z</time></trkpt><trkpt lat="37.13231503535285" lon="14.8660833425239"><ele>701.6</ele><time>2026-04-06T15:23:08.999Z</time></trkpt><trkpt lat="37.13224836025456" lon="14.866014467930917"><ele>704.2</ele><time>2026-04-06T15:23:09.999Z</time></trkpt><trkpt lat="37.13217641535075" lon="14.865940728910749"><ele>706.8000000000001</ele><time>2026-04-06T15:23:10.999Z</time></trkpt><trkpt lat="37.13210232020281" lon="14.865861428494744"><ele>709.4000000000001</ele><time>2026-04-06T15:23:11.999Z</time></trkpt><trkpt lat="37.13203625737441" lon="14.865782761501558"><ele>712.0</ele><time>2026-04-06T15:23:12.999Z</time></trkpt><trkpt lat="37.13197663037176" lon="14.865699619274363"><ele>712.0</ele><time>2026-04-06T15:23:13.999Z</time></trkpt><trkpt lat="37.13191822360805" lon="14.865608426836488"><ele>712.0</ele><time>2026-04-06T15:23:14.999Z</time></trkpt><trkpt lat="37.131871089131366" lon="14.865504307058872"><ele>712.0</ele><time>2026-04-06T15:23:15.999Z</time></trkpt><trkpt lat="37.13183407746" lon="14.865388424462864"><ele>712.0</ele><time>2026-04-06T15:23:16.999Z</time></trkpt><trkpt lat="37.13180839718558" lon="14.865260234591933"><ele>712.0</ele><time>2026-04-06T15:23:17.999Z</time></trkpt><trkpt lat="37.131786582216975" lon="14.865124690642867"><ele>709.75</ele><time>2026-04-06T15:23:18.999Z</time></trkpt><trkpt lat="37.13175673238594" lon="14.86499210072509"><ele>707.5</ele><time>2026-04-06T15:23:19.999Z</time></trkpt><trkpt lat="37.1317081527692" lon="14.864870007640613"><ele>705.25</ele><time>2026-04-06T15:23:20.999Z</time></trkpt><trkpt lat="37.13163622075781" lon="14.864750280654286"><ele>703.0</ele><time>2026-04-06T15:23:21.999Z</time></trkpt><trkpt lat="37.13156055462437" lon="14.86463317356313"><ele>708.75</ele><time>2026-04-06T15:23:22.999Z</time></trkpt><trkpt lat="37.13148878029521" lon="14.864526214399872"><ele>714.5</ele><time>2026-04-06T15:23:23.999Z</time></trkpt><trkpt lat="37.13142659905392" lon="14.864415049976982"><ele>720.25</ele><time>2026-04-06T15:23:24.999Z</time></trkpt><trkpt lat="37.13137530686055" lon="14.864279047902034"><ele>726.0</ele><time>2026-04-06T15:23:25.999Z</time></trkpt><trkpt lat="37.13133117064038" lon="14.86413261762123"><ele>726.0</ele><time>2026-04-06T15:23:26.999Z</time></trkpt><trkpt lat="37.13128711210619" lon="14.863983264534204"><ele>726.0</ele><time>2026-04-06T15:23:27.999Z</time></trkpt><trkpt lat="37.13123541540337" lon="14.86383524433123"><ele>726.0</ele><time>2026-04-06T15:23:28.999Z</time></trkpt><trkpt lat="37.13117502516814" lon="14.863689365947444"><ele>726.0</ele><time>2026-04-06T15:23:29.999Z</time></trkpt><trkpt lat="37.13111737905525" lon="14.86355216492722"><ele>724.5</ele><time>2026-04-06T15:23:30.999Z</time></trkpt><trkpt lat="37.13106787336183" lon="14.863414734833174"><ele>723.0</ele><time>2026-04-06T15:23:31.999Z</time></trkpt><trkpt lat="37.13102763363226" lon="14.863272734696272"><ele>721.5</ele><time>2026-04-06T15:23:32.999Z</time></trkpt><trkpt lat="37.13099923676539" lon="14.86311943349092"><ele>720.0</ele><time>2026-04-06T15:23:33.999Z</time></trkpt><trkpt lat="37.13098480300619" lon="14.86295511887686"><ele>720.0</ele><time>2026-04-06T15:23:34.999Z</time></trkpt><trkpt lat="37.130973142774145" lon="14.862786170179442"><ele>720.0</ele><time>2026-04-06T15:23:35.999Z</time></trkpt><trkpt lat="37.13096269192172" lon="14.862622572867082"><ele>720.0</ele><time>2026-04-06T15:23:36.999Z</time></trkpt><trkpt lat="37.1309499469422" lon="14.862461067802235"><ele>720.0</ele><time>2026-04-06T15:23:37.999Z</time></trkpt><trkpt lat="37.130925742237984" lon="14.86231455126155"><ele>719.8</ele><time>2026-04-06T15:23:38.999Z</time></trkpt><trkpt lat="37.13088289248053" lon="14.862183898073495"><ele>719.6</ele><time>2026-04-06T15:23:39.999Z</time></trkpt><trkpt lat="37.13082715264172" lon="14.862065784813138"><ele>719.4000000000001</ele><time>2026-04-06T15:23:40.999Z</time></trkpt><trkpt lat="37.13077466226829" lon="14.861949022744597"><ele>719.2</ele><time>2026-04-06T15:23:41.999Z</time></trkpt><trkpt lat="37.13073787533179" lon="14.861827501599715"><ele>719.0</ele><time>2026-04-06T15:23:42.999Z</time></trkpt><trkpt lat="37.13072163593099" lon="14.861695637275883"><ele>719.0</ele><time>2026-04-06T15:23:43.999Z</time></trkpt><trkpt lat="37.13071491239357" lon="14.861571739590087"><ele>719.0</ele><time>2026-04-06T15:23:44.999Z</time></trkpt><trkpt lat="37.130717415850455" lon="14.86144562854241"><ele>719.0</ele><time>2026-04-06T15:23:45.999Z</time></trkpt><trkpt lat="37.130730889327594" lon="14.861317991579746"><ele>719.0</ele><time>2026-04-06T15:23:46.999Z</time></trkpt><trkpt lat="37.13076294655764" lon="14.861194257909778"><ele>719.0</ele><time>2026-04-06T15:23:47.999Z</time></trkpt><trkpt lat="37.13082630261731" lon="14.861089309158643"><ele>719.0</ele><time>2026-04-06T15:23:48.999Z</time></trkpt><trkpt lat="37.13090403662167" lon="14.861010707177282"><ele>719.0</ele><time>2026-04-06T15:23:49.999Z</time></trkpt><trkpt lat="37.13098356361562" lon="14.86094231047061"><ele>719.0</ele><time>2026-04-06T15:23:50.999Z</time></trkpt><trkpt lat="37.131040736284625" lon="14.860856667353257"><ele>719.0</ele><time>2026-04-06T15:23:51.999Z</time></trkpt><trkpt lat="37.13105103922807" lon="14.860755534837706"><ele>719.0</ele><time>2026-04-06T15:23:52.999Z</time></trkpt><trkpt lat="37.13102964805843" lon="14.860651058092605"><ele>719.8000000000001</ele><time>2026-04-06T15:23:53.999Z</time></trkpt><trkpt lat="37.13097409955804" lon="14.86053861755288"><ele>720.6</ele><time>2026-04-06T15:23:54.999Z</time></trkpt><trkpt lat="37.130903993559215" lon="14.86042140035683"><ele>721.4</ele><time>2026-04-06T15:23:55.999Z</time></trkpt><trkpt lat="37.130841350757905" lon="14.860302276468413"><ele>722.2</ele><time>2026-04-06T15:23:56.999Z</time></trkpt><trkpt lat="37.13078946571298" lon="14.86018206801034"><ele>723.0</ele><time>2026-04-06T15:23:57.999Z</time></trkpt><trkpt lat="37.130748362321164" lon="14.860040637539317"><ele>730.0</ele><time>2026-04-06T15:23:58.999Z</time></trkpt><trkpt lat="37.13072214174554" lon="14.859881843770632"><ele>737.0</ele><time>2026-04-06T15:23:59.999Z</time></trkpt><trkpt lat="37.130691476211545" lon="14.859715795855651"><ele>744.0</ele><time>2026-04-06T15:24:00.999Z</time></trkpt><trkpt lat="37.13064710119324" lon="14.859559465387003"><ele>751.0</ele><time>2026-04-06T15:24:01.999Z</time></trkpt><trkpt lat="37.13058573106773" lon="14.859408810801625"><ele>750.25</ele><time>2026-04-06T15:24:02.999Z</time></trkpt><trkpt lat="37.130512214538896" lon="14.859246982095138"><ele>749.5</ele><time>2026-04-06T15:24:03.999Z</time></trkpt><trkpt lat="37.13044402181762" lon="14.859093592611904"><ele>748.75</ele><time>2026-04-06T15:24:04.999Z</time></trkpt><trkpt lat="37.130384341375496" lon="14.858946767418082"><ele>748.0</ele><time>2026-04-06T15:24:05.999Z</time></trkpt><trkpt lat="37.13033294314799" lon="14.858785653411548"><ele>748.0</ele><time>2026-04-06T15:24:06.999Z</time></trkpt><trkpt lat="37.13029791938534" lon="14.85860229707345"><ele>748.0</ele><time>2026-04-06T15:24:07.999Z</time></trkpt><trkpt lat="37.13027407360279" lon="14.858426294164511"><ele>748.0</ele><time>2026-04-06T15:24:08.999Z</time></trkpt><trkpt lat="37.13025621762462" lon="14.85826633085211"><ele>748.0</ele><time>2026-04-06T15:24:09.999Z</time></trkpt><trkpt lat="37.130233773574965" lon="14.858117954772865"><ele>747.2</ele><time>2026-04-06T15:24:10.999Z</time></trkpt><trkpt lat="37.13019275170926" lon="14.857986150129337"><ele>746.4</ele><time>2026-04-06T15:24:11.999Z</time></trkpt><trkpt lat="37.130132500012294" lon="14.857877560043026"><ele>745.6</ele><time>2026-04-06T15:24:12.999Z</time></trkpt><trkpt lat="37.13005379226526" lon="14.85780445022604"><ele>744.8000000000001</ele><time>2026-04-06T15:24:13.999Z</time></trkpt><trkpt lat="37.1299569773031" lon="14.857760702772989"><ele>744.0</ele><time>2026-04-06T15:24:14.999Z</time></trkpt><trkpt lat="37.12985013836048" lon="14.85774234826182"><ele>748.0</ele><time>2026-04-06T15:24:15.999Z</time></trkpt><trkpt lat="37.129738943624666" lon="14.857753883723491"><ele>752.0</ele><time>2026-04-06T15:24:16.999Z</time></trkpt><trkpt lat="37.129629749286075" lon="14.857781150309185"><ele>756.0</ele><time>2026-04-06T15:24:17.999Z</time></trkpt><trkpt lat="37.12953127173886" lon="14.85780229245056"><ele>760.0</ele><time>2026-04-06T15:24:19Z</time></trkpt><trkpt lat="37.12944265271147" lon="14.85779736886812"><ele>764.0</ele><time>2026-04-06T15:24:20Z</time></trkpt><trkpt lat="37.12936974483351" lon="14.857754487920921"><ele>764.0</ele><time>2026-04-06T15:24:21Z</time></trkpt><trkpt lat="37.12931166569342" lon="14.85768212486362"><ele>764.0</ele><time>2026-04-06T15:24:22Z</time></trkpt><trkpt lat="37.1292630973687" lon="14.857592014073006"><ele>764.0</ele><time>2026-04-06T15:24:23Z</time></trkpt><trkpt lat="37.129244661719966" lon="14.857490820390904"><ele>764.0</ele><time>2026-04-06T15:24:24Z</time></trkpt><trkpt lat="37.129245657409676" lon="14.857385453149195"><ele>764.0</ele><time>2026-04-06T15:24:25Z</time></trkpt><trkpt lat="37.12925261463217" lon="14.857273148818116"><ele>764.0</ele><time>2026-04-06T15:24:26Z</time></trkpt><trkpt lat="37.12925462106213" lon="14.857152707918159"><ele>762.6</ele><time>2026-04-06T15:24:27Z</time></trkpt><trkpt lat="37.129243354136975" lon="14.857023489370281"><ele>761.2</ele><time>2026-04-06T15:24:28Z</time></trkpt><trkpt lat="37.12921277276598" lon="14.856892410917807"><ele>759.8000000000001</ele><time>2026-04-06T15:24:29Z</time></trkpt><trkpt lat="37.12917367715469" lon="14.85677687133809"><ele>758.4000000000001</ele><time>2026-04-06T15:24:30Z</time></trkpt><trkpt lat="37.1291294282265" lon="14.85666033489784"><ele>757.0</ele><time>2026-04-06T15:24:31Z</time></trkpt><trkpt lat="37.12907595906801" lon="14.85654253238631"><ele>763.25</ele><time>2026-04-06T15:24:32Z</time></trkpt><trkpt lat="37.1290217723922" lon="14.856415961602943"><ele>769.5</ele><time>2026-04-06T15:24:33Z</time></trkpt><trkpt lat="37.128972664454935" lon="14.856282177918066"><ele>775.75</ele><time>2026-04-06T15:24:34Z</time></trkpt><trkpt lat="37.128933013162744" lon="14.856136022447531"><ele>782.0</ele><time>2026-04-06T15:24:35Z</time></trkpt><trkpt lat="37.12890348665267" lon="14.855980787285864"><ele>780.75</ele><time>2026-04-06T15:24:36Z</time></trkpt><trkpt lat="37.12887791078939" lon="14.855821650822215"><ele>779.5</ele><time>2026-04-06T15:24:37Z</time></trkpt><trkpt lat="37.12885176477231" lon="14.855667695074949"><ele>778.25</ele><time>2026-04-06T15:24:38Z</time></trkpt><trkpt lat="37.12882554959587" lon="14.855521577475223"><ele>777.0</ele><time>2026-04-06T15:24:39Z</time></trkpt><trkpt lat="37.12879989148689" lon="14.855380372594535"><ele>777.0</ele><time>2026-04-06T15:24:40Z</time></trkpt><trkpt lat="37.128772196714344" lon="14.855239425087111"><ele>777.0</ele><time>2026-04-06T15:24:41Z</time></trkpt><trkpt lat="37.1287451344195" lon="14.855096828781095"><ele>777.0</ele><time>2026-04-06T15:24:42Z</time></trkpt><trkpt lat="37.128718630381684" lon="14.854955558244335"><ele>777.0</ele><time>2026-04-06T15:24:43Z</time></trkpt><trkpt lat="37.1286927629834" lon="14.854815048983546"><ele>776.2</ele><time>2026-04-06T15:24:44Z</time></trkpt><trkpt lat="37.128671508952216" lon="14.854684451475242"><ele>775.4000000000001</ele><time>2026-04-06T15:24:45Z</time></trkpt><trkpt lat="37.12865110436118" lon="14.854567410360554"><ele>774.5999999999999</ele><time>2026-04-06T15:24:46Z</time></trkpt><trkpt lat="37.12863359880742" lon="14.854485713206234"><ele>773.8</ele><time>2026-04-06T15:24:47Z</time></trkpt><trkpt lat="37.12855385559226" lon="14.854395844559479"><ele>773.0</ele><time>2026-04-06T15:24:48.999Z</time></trkpt><trkpt lat="37.12845434660341" lon="14.854451827973747"><ele>773.0000000000001</ele><time>2026-04-06T15:24:50.999Z</time></trkpt><trkpt lat="37.128441400462975" lon="14.854535312232354"><ele>773.0</ele><time>2026-04-06T15:24:51.999Z</time></trkpt><trkpt lat="37.128451566639235" lon="14.854625148014371"><ele>773.0</ele><time>2026-04-06T15:24:52.999Z</time></trkpt><trkpt lat="37.12847824318605" lon="14.85472412653805"><ele>773.0</ele><time>2026-04-06T15:24:53.999Z</time></trkpt><trkpt lat="37.12850103443429" lon="14.854836650535221"><ele>773.0000000000001</ele><time>2026-04-06T15:24:54.999Z</time></trkpt><trkpt lat="37.12851578492861" lon="14.854961073553403"><ele>773.0</ele><time>2026-04-06T15:24:55.999Z</time></trkpt><trkpt lat="37.12853532157006" lon="14.855094083164197"><ele>773.8</ele><time>2026-04-06T15:24:56.999Z</time></trkpt><trkpt lat="37.12854808279163" lon="14.855236036205167"><ele>774.5999999999999</ele><time>2026-04-06T15:24:57.999Z</time></trkpt><trkpt lat="37.12855817025826" lon="14.855368610745295"><ele>775.4000000000001</ele><time>2026-04-06T15:24:58.999Z</time></trkpt><trkpt lat="37.128565842618215" lon="14.855493477944831"><ele>776.2</ele><time>2026-04-06T15:24:59.999Z</time></trkpt><trkpt lat="37.12857190137605" lon="14.855616798089184"><ele>777.0</ele><time>2026-04-06T15:25:00.999Z</time></trkpt><trkpt lat="37.12857946182687" lon="14.855738144192106"><ele>777.0</ele><time>2026-04-06T15:25:01.999Z</time></trkpt><trkpt lat="37.12857577767228" lon="14.855853776307617"><ele>777.0</ele><time>2026-04-06T15:25:02.999Z</time></trkpt><trkpt lat="37.12855005721608" lon="14.855967540506654"><ele>777.0</ele><time>2026-04-06T15:25:03.999Z</time></trkpt><trkpt lat="37.12850509564638" lon="14.856078995402578"><ele>777.0</ele><time>2026-04-06T15:25:04.999Z</time></trkpt><trkpt lat="37.128461428329864" lon="14.856194001365242"><ele>777.0</ele><time>2026-04-06T15:25:05.999Z</time></trkpt><trkpt lat="37.12845477953842" lon="14.856315585386128"><ele>778.0</ele><time>2026-04-06T15:25:06.999Z</time></trkpt><trkpt lat="37.12847752078494" lon="14.856438248934706"><ele>779.0</ele><time>2026-04-06T15:25:07.999Z</time></trkpt><trkpt lat="37.12851936105406" lon="14.856559356735458"><ele>780.0</ele><time>2026-04-06T15:25:08.999Z</time></trkpt><trkpt lat="37.128566873598324" lon="14.856671076758733"><ele>781.0</ele><time>2026-04-06T15:25:09.999Z</time></trkpt><trkpt lat="37.128615357641365" lon="14.856786474375344"><ele>782.0</ele><time>2026-04-06T15:25:10.999Z</time></trkpt><trkpt lat="37.128651920605435" lon="14.856908467425129"><ele>783.6</ele><time>2026-04-06T15:25:11.999Z</time></trkpt><trkpt lat="37.12867094394751" lon="14.85704234913749"><ele>785.2</ele><time>2026-04-06T15:25:12.999Z</time></trkpt><trkpt lat="37.12867659964769" lon="14.857182276466698"><ele>786.8</ele><time>2026-04-06T15:25:13.999Z</time></trkpt><trkpt lat="37.12867753083948" lon="14.857322764696253"><ele>788.4</ele><time>2026-04-06T15:25:14.999Z</time></trkpt><trkpt lat="37.12867505160803" lon="14.857466452644854"><ele>790.0</ele><time>2026-04-06T15:25:15.999Z</time></trkpt><trkpt lat="37.12866941401129" lon="14.857613225137232"><ele>791.0</ele><time>2026-04-06T15:25:16.999Z</time></trkpt><trkpt lat="37.12866707788964" lon="14.857764716419126"><ele>792.0</ele><time>2026-04-06T15:25:17.999Z</time></trkpt><trkpt lat="37.128663146886026" lon="14.857918499798851"><ele>793.0</ele><time>2026-04-06T15:25:18.999Z</time></trkpt><trkpt lat="37.12865653689222" lon="14.85807486445238"><ele>794.0</ele><time>2026-04-06T15:25:19.999Z</time></trkpt><trkpt lat="37.128648667642516" lon="14.858234934982297"><ele>794.0</ele><time>2026-04-06T15:25:20.999Z</time></trkpt><trkpt lat="37.12864048505886" lon="14.858395548878887"><ele>794.0</ele><time>2026-04-06T15:25:21.999Z</time></trkpt><trkpt lat="37.12863130012428" lon="14.858552165470487"><ele>794.0</ele><time>2026-04-06T15:25:22.999Z</time></trkpt><trkpt lat="37.1286278096155" lon="14.858704847586692"><ele>794.0</ele><time>2026-04-06T15:25:23.999Z</time></trkpt><trkpt lat="37.12863022537256" lon="14.858854014906724"><ele>794.4000000000001</ele><time>2026-04-06T15:25:24.999Z</time></trkpt><trkpt lat="37.12863617047451" lon="14.85899933797078"><ele>794.8</ele><time>2026-04-06T15:25:25.999Z</time></trkpt><trkpt lat="37.12865834852407" lon="14.859137820074427"><ele>795.2</ele><time>2026-04-06T15:25:26.999Z</time></trkpt><trkpt lat="37.128695598349026" lon="14.859261820161525"><ele>795.5999999999999</ele><time>2026-04-06T15:25:27.999Z</time></trkpt><trkpt lat="37.12875332571876" lon="14.859365349610021"><ele>796.0</ele><time>2026-04-06T15:25:28.999Z</time></trkpt><trkpt lat="37.128834180241356" lon="14.859436758071961"><ele>796.0</ele><time>2026-04-06T15:25:29.999Z</time></trkpt><trkpt lat="37.128925699718685" lon="14.859489257637394"><ele>796.0</ele><time>2026-04-06T15:25:30.999Z</time></trkpt><trkpt lat="37.12901247221316" lon="14.859542640459159"><ele>796.0</ele><time>2026-04-06T15:25:31.999Z</time></trkpt><trkpt lat="37.12906596943931" lon="14.859628916533238"><ele>796.0</ele><time>2026-04-06T15:25:32.999Z</time></trkpt><trkpt lat="37.129086464311996" lon="14.859739069180948"><ele>796.0</ele><time>2026-04-06T15:25:33.999Z</time></trkpt><trkpt lat="37.129097229127225" lon="14.85986536473664"><ele>796.4</ele><time>2026-04-06T15:25:34.999Z</time></trkpt><trkpt lat="37.12911015104078" lon="14.859997087787637"><ele>796.8</ele><time>2026-04-06T15:25:35.999Z</time></trkpt><trkpt lat="37.12912674324014" lon="14.860118878023378"><ele>797.1999999999999</ele><time>2026-04-06T15:25:36.999Z</time></trkpt><trkpt lat="37.12913569894696" lon="14.860226018520969"><ele>797.5999999999999</ele><time>2026-04-06T15:25:37.999Z</time></trkpt><trkpt lat="37.12912699182108" lon="14.860309483440636"><ele>798.0</ele><time>2026-04-06T15:25:38.999Z</time></trkpt><trkpt lat="37.12905553919901" lon="14.860404186333424"><ele>798.0</ele><time>2026-04-06T15:25:40.999Z</time></trkpt><trkpt lat="37.12893698589018" lon="14.860349316181956"><ele>798.0</ele><time>2026-04-06T15:25:42.999Z</time></trkpt><trkpt lat="37.12886926817957" lon="14.86030089445116"><ele>798.0</ele><time>2026-04-06T15:25:43.999Z</time></trkpt><trkpt lat="37.12879443862753" lon="14.860256051663791"><ele>798.0</ele><time>2026-04-06T15:25:44.999Z</time></trkpt><trkpt lat="37.12871300006132" lon="14.860215052622817"><ele>798.0</ele><time>2026-04-06T15:25:45.999Z</time></trkpt><trkpt lat="37.12862960002243" lon="14.860178534615018"><ele>798.0</ele><time>2026-04-06T15:25:46.999Z</time></trkpt><trkpt lat="37.12854688811559" lon="14.860142028901226"><ele>798.0</ele><time>2026-04-06T15:25:47.999Z</time></trkpt><trkpt lat="37.12846597196941" lon="14.860102685552558"><ele>798.0</ele><time>2026-04-06T15:25:48.999Z</time></trkpt><trkpt lat="37.128389190339696" lon="14.860049621388882"><ele>798.0</ele><time>2026-04-06T15:25:49.999Z</time></trkpt><trkpt lat="37.12832448448155" lon="14.85997532065978"><ele>798.0</ele><time>2026-04-06T15:25:50.999Z</time></trkpt><trkpt lat="37.12827982010871" lon="14.859880277850428"><ele>798.0</ele><time>2026-04-06T15:25:51.999Z</time></trkpt><trkpt lat="37.12825551143048" lon="14.859773285197388"><ele>797.8</ele><time>2026-04-06T15:25:52.999Z</time></trkpt><trkpt lat="37.128243473920925" lon="14.859656772555347"><ele>797.5999999999999</ele><time>2026-04-06T15:25:53.999Z</time></trkpt><trkpt lat="37.12823941333413" lon="14.859524256963395"><ele>797.4000000000001</ele><time>2026-04-06T15:25:54.999Z</time></trkpt><trkpt lat="37.128236010754215" lon="14.859382527524698"><ele>797.2</ele><time>2026-04-06T15:25:55.999Z</time></trkpt><trkpt lat="37.12823284920616" lon="14.859253634027125"><ele>797.0</ele><time>2026-04-06T15:25:56.999Z</time></trkpt><trkpt lat="37.12822967283586" lon="14.85913100300918"><ele>797.0</ele><time>2026-04-06T15:25:57.999Z</time></trkpt><trkpt lat="37.12822824853448" lon="14.859001642336457"><ele>797.0</ele><time>2026-04-06T15:25:58.999Z</time></trkpt><trkpt lat="37.12822716004316" lon="14.858866195100802"><ele>797.0</ele><time>2026-04-06T15:25:59.999Z</time></trkpt><trkpt lat="37.12822678343148" lon="14.858723465441436"><ele>797.0</ele><time>2026-04-06T15:26:00.999Z</time></trkpt><trkpt lat="37.12822759774246" lon="14.85858669349178"><ele>797.0</ele><time>2026-04-06T15:26:01.999Z</time></trkpt><trkpt lat="37.128227021616546" lon="14.858453794734343"><ele>801.2</ele><time>2026-04-06T15:26:02.999Z</time></trkpt><trkpt lat="37.12822073989087" lon="14.858325009240758"><ele>805.4000000000001</ele><time>2026-04-06T15:26:03.999Z</time></trkpt><trkpt lat="37.12819985234426" lon="14.858201540391338"><ele>809.5999999999999</ele><time>2026-04-06T15:26:04.999Z</time></trkpt><trkpt lat="37.128161240068515" lon="14.858085121952707"><ele>813.8</ele><time>2026-04-06T15:26:05.999Z</time></trkpt><trkpt lat="37.12809611091005" lon="14.857977972853803"><ele>818.0</ele><time>2026-04-06T15:26:06.999Z</time></trkpt><trkpt lat="37.12801364615224" lon="14.857882808999879"><ele>818.0</ele><time>2026-04-06T15:26:07.999Z</time></trkpt><trkpt lat="37.12792121242076" lon="14.85779229024284"><ele>818.0</ele><time>2026-04-06T15:26:08.999Z</time></trkpt><trkpt lat="37.12782491973065" lon="14.857704388095115"><ele>818.0</ele><time>2026-04-06T15:26:09.999Z</time></trkpt><trkpt lat="37.12772347407839" lon="14.857617899360381"><ele>818.0</ele><time>2026-04-06T15:26:10.999Z</time></trkpt><trkpt lat="37.12762158123341" lon="14.857525363943731"><ele>818.5</ele><time>2026-04-06T15:26:11.999Z</time></trkpt><trkpt lat="37.12751922196476" lon="14.857436794848585"><ele>819.0</ele><time>2026-04-06T15:26:12.999Z</time></trkpt><trkpt lat="37.12741699796267" lon="14.857349842198424"><ele>819.5</ele><time>2026-04-06T15:26:13.999Z</time></trkpt><trkpt lat="37.127310267584555" lon="14.857267584378736"><ele>820.0</ele><time>2026-04-06T15:26:14.999Z</time></trkpt><trkpt lat="37.127201901745806" lon="14.857193994258695"><ele>820.0</ele><time>2026-04-06T15:26:15.999Z</time></trkpt><trkpt lat="37.12709245772358" lon="14.857124022743326"><ele>820.0</ele><time>2026-04-06T15:26:16.999Z</time></trkpt><trkpt lat="37.12698091847195" lon="14.857056631040523"><ele>820.0</ele><time>2026-04-06T15:26:17.999Z</time></trkpt><trkpt lat="37.12686753354051" lon="14.856990554574585"><ele>820.0</ele><time>2026-04-06T15:26:18.999Z</time></trkpt><trkpt lat="37.126755295739166" lon="14.856921660850517"><ele>820.0</ele><time>2026-04-06T15:26:19.999Z</time></trkpt><trkpt lat="37.12663947139347" lon="14.856849765921144"><ele>820.0</ele><time>2026-04-06T15:26:20.999Z</time></trkpt><trkpt lat="37.126525055190214" lon="14.856774671602949"><ele>820.0</ele><time>2026-04-06T15:26:21.999Z</time></trkpt><trkpt lat="37.12640835972351" lon="14.85669798634553"><ele>820.0</ele><time>2026-04-06T15:26:22.999Z</time></trkpt><trkpt lat="37.12629296626059" lon="14.85662000366804"><ele>821.5</ele><time>2026-04-06T15:26:23.999Z</time></trkpt><trkpt lat="37.126177747473456" lon="14.856540561934217"><ele>823.0</ele><time>2026-04-06T15:26:24.999Z</time></trkpt><trkpt lat="37.12607826045125" lon="14.856446584710513"><ele>824.5</ele><time>2026-04-06T15:26:25.999Z</time></trkpt><trkpt lat="37.12597865375251" lon="14.85637575256976"><ele>826.0</ele><time>2026-04-06T15:26:26.999Z</time></trkpt><trkpt lat="37.12588459185222" lon="14.85632811498989"><ele>826.0</ele><time>2026-04-06T15:26:27.999Z</time></trkpt><trkpt lat="37.125811064453394" lon="14.856256899904052"><ele>826.0</ele><time>2026-04-06T15:26:28.999Z</time></trkpt><trkpt lat="37.12575656598754" lon="14.856179251862576"><ele>826.0</ele><time>2026-04-06T15:26:29.999Z</time></trkpt><trkpt lat="37.12570902559909" lon="14.85608825069492"><ele>826.0</ele><time>2026-04-06T15:26:30.999Z</time></trkpt><trkpt lat="37.12566871558043" lon="14.855974312236762"><ele>826.0</ele><time>2026-04-06T15:26:31.999Z</time></trkpt><trkpt lat="37.12563442126535" lon="14.855846188982726"><ele>832.5</ele><time>2026-04-06T15:26:32.999Z</time></trkpt><trkpt lat="37.12560941960398" lon="14.85570907689718"><ele>839.0</ele><time>2026-04-06T15:26:33.999Z</time></trkpt><trkpt lat="37.12559812197558" lon="14.855562072182456"><ele>845.5</ele><time>2026-04-06T15:26:34.999Z</time></trkpt><trkpt lat="37.125615170214715" lon="14.8554232630747"><ele>852.0</ele><time>2026-04-06T15:26:35.999Z</time></trkpt><trkpt lat="37.125678997294365" lon="14.855284602096372"><ele>852.0</ele><time>2026-04-06T15:26:36.999Z</time></trkpt><trkpt lat="37.12571924456119" lon="14.855130303849833"><ele>852.0</ele><time>2026-04-06T15:26:37.999Z</time></trkpt><trkpt lat="37.125779574810956" lon="14.854990644688122"><ele>852.0</ele><time>2026-04-06T15:26:38.999Z</time></trkpt><trkpt lat="37.12583410623696" lon="14.854857126715142"><ele>852.0</ele><time>2026-04-06T15:26:39.999Z</time></trkpt><trkpt lat="37.125903872865784" lon="14.854739968564799"><ele>849.2</ele><time>2026-04-06T15:26:40.999Z</time></trkpt><trkpt lat="37.12595871654679" lon="14.85461765580423"><ele>846.4000000000001</ele><time>2026-04-06T15:26:41.999Z</time></trkpt><trkpt lat="37.12600846509203" lon="14.85449923205871"><ele>843.5999999999999</ele><time>2026-04-06T15:26:42.999Z</time></trkpt><trkpt lat="37.12604266983354" lon="14.8543762281112"><ele>840.8</ele><time>2026-04-06T15:26:43.999Z</time></trkpt><trkpt lat="37.126091188819395" lon="14.854264778658479"><ele>838.0</ele><time>2026-04-06T15:26:44.999Z</time></trkpt><trkpt lat="37.12614132788101" lon="14.85414989469965"><ele>838.0</ele><time>2026-04-06T15:26:45.999Z</time></trkpt><trkpt lat="37.12619133462372" lon="14.854034733529788"><ele>838.0</ele><time>2026-04-06T15:26:46.999Z</time></trkpt><trkpt lat="37.12623990485686" lon="14.853918175861763"><ele>838.0</ele><time>2026-04-06T15:26:47.999Z</time></trkpt><trkpt lat="37.12628674478816" lon="14.853801991851327"><ele>838.0</ele><time>2026-04-06T15:26:48.999Z</time></trkpt><trkpt lat="37.12632388372895" lon="14.853691835135832"><ele>838.0</ele><time>2026-04-06T15:26:49.999Z</time></trkpt><trkpt lat="37.126365221311985" lon="14.85361272210169"><ele>838.0</ele><time>2026-04-06T15:26:50.999Z</time></trkpt><trkpt lat="37.12634534013919" lon="14.85353518549417"><ele>838.0</ele><time>2026-04-06T15:26:51.999Z</time></trkpt><trkpt lat="37.12627746456555" lon="14.853445347897727"><ele>838.0</ele><time>2026-04-06T15:26:53.999Z</time></trkpt><trkpt lat="37.12615913766122" lon="14.853396201317803"><ele>838.0</ele><time>2026-04-06T15:26:55.999Z</time></trkpt><trkpt lat="37.12608006522431" lon="14.853344850802076"><ele>838.0</ele><time>2026-04-06T15:26:57.999Z</time></trkpt><trkpt lat="37.125995576630025" lon="14.853309718076812"><ele>837.2</ele><time>2026-04-06T15:26:59.999Z</time></trkpt><trkpt lat="37.125898678668385" lon="14.85328519615197"><ele>836.4</ele><time>2026-04-06T15:27:01.999Z</time></trkpt><trkpt lat="37.1258077350389" lon="14.853301408028896"><ele>835.6</ele><time>2026-04-06T15:27:03.999Z</time></trkpt><trkpt lat="37.12571312224029" lon="14.853303924482109"><ele>834.8000000000001</ele><time>2026-04-06T15:27:05.999Z</time></trkpt><trkpt lat="37.12559295781673" lon="14.853311091603175"><ele>834.0</ele><time>2026-04-06T15:27:07.999Z</time></trkpt><trkpt lat="37.1255265317868" lon="14.85331479606453"><ele>833.0</ele><time>2026-04-06T15:27:08.999Z</time></trkpt><trkpt lat="37.125456633747156" lon="14.853318153756312"><ele>832.0</ele><time>2026-04-06T15:27:09.999Z</time></trkpt><trkpt lat="37.125384149643075" lon="14.853320744201673"><ele>831.0</ele><time>2026-04-06T15:27:10.999Z</time></trkpt><trkpt lat="37.12530784106211" lon="14.853324080938599"><ele>830.0</ele><time>2026-04-06T15:27:11.999Z</time></trkpt><trkpt lat="37.1252342547455" lon="14.853325586858368"><ele>829.0</ele><time>2026-04-06T15:27:12.999Z</time></trkpt><trkpt lat="37.12515991151763" lon="14.853329520783875"><ele>828.0</ele><time>2026-04-06T15:27:13.999Z</time></trkpt><trkpt lat="37.125086723764724" lon="14.853336133711192"><ele>827.0</ele><time>2026-04-06T15:27:14.999Z</time></trkpt><trkpt lat="37.12501329325455" lon="14.853343691468623"><ele>827.0</ele><time>2026-04-06T15:27:15.999Z</time></trkpt><trkpt lat="37.1249388544762" lon="14.853356217683631"><ele>827.0</ele><time>2026-04-06T15:27:16.999Z</time></trkpt><trkpt lat="37.124862004280715" lon="14.853374548005698"><ele>827.0</ele><time>2026-04-06T15:27:17.999Z</time></trkpt><trkpt lat="37.124784700483715" lon="14.853402886698223"><ele>827.0</ele><time>2026-04-06T15:27:18.999Z</time></trkpt><trkpt lat="37.1247171171959" lon="14.853433773742779"><ele>827.0</ele><time>2026-04-06T15:27:19.999Z</time></trkpt><trkpt lat="37.12464965323942" lon="14.85344429399453"><ele>827.0</ele><time>2026-04-06T15:27:20.999Z</time></trkpt><trkpt lat="37.12458442033706" lon="14.853485398800046"><ele>827.0</ele><time>2026-04-06T15:27:21.999Z</time></trkpt><trkpt lat="37.124534168403684" lon="14.85355656504818"><ele>828.5000000000001</ele><time>2026-04-06T15:27:22.999Z</time></trkpt><trkpt lat="37.124475303598096" lon="14.853609187900114"><ele>830.0</ele><time>2026-04-06T15:27:23.999Z</time></trkpt><trkpt lat="37.12442221585514" lon="14.853667447454885"><ele>831.5</ele><time>2026-04-06T15:27:24.999Z</time></trkpt><trkpt lat="37.1243760928054" lon="14.853724444284945"><ele>833.0</ele><time>2026-04-06T15:27:25.999Z</time></trkpt><trkpt lat="37.124320004800275" lon="14.853760944333636"><ele>834.5000000000001</ele><time>2026-04-06T15:27:26.999Z</time></trkpt><trkpt lat="37.124238474140576" lon="14.853871264960922"><ele>836.0</ele><time>2026-04-06T15:27:28.999Z</time></trkpt><trkpt lat="37.12414871683297" lon="14.85391882127652"><ele>836.0</ele><time>2026-04-06T15:27:30.999Z</time></trkpt><trkpt lat="37.12414900992889" lon="14.853784983498768"><ele>836.0</ele><time>2026-04-06T15:27:36.999Z</time></trkpt><trkpt lat="37.12419951158084" lon="14.85367896003257"><ele>836.0</ele><time>2026-04-06T15:27:38.999Z</time></trkpt><trkpt lat="37.12427736285393" lon="14.853578716975184"><ele>836.0</ele><time>2026-04-06T15:27:40.999Z</time></trkpt><trkpt lat="37.12434741792751" lon="14.853452707183573"><ele>836.0</ele><time>2026-04-06T15:27:42.999Z</time></trkpt><trkpt lat="37.12441906466092" lon="14.853327036574084"><ele>834.4</ele><time>2026-04-06T15:27:44.999Z</time></trkpt><trkpt lat="37.12445835964007" lon="14.853265097722904"><ele>832.8</ele><time>2026-04-06T15:27:45.999Z</time></trkpt><trkpt lat="37.124546773952474" lon="14.853150971095769"><ele>831.1999999999999</ele><time>2026-04-06T15:27:47.999Z</time></trkpt><trkpt lat="37.12462675165628" lon="14.853028636141444"><ele>829.5999999999999</ele><time>2026-04-06T15:27:49.999Z</time></trkpt><trkpt lat="37.1246872650579" lon="14.852907949766003"><ele>828.0</ele><time>2026-04-06T15:27:51.999Z</time></trkpt><trkpt lat="37.12475174230106" lon="14.852812578249337"><ele>828.0</ele><time>2026-04-06T15:27:53.999Z</time></trkpt><trkpt lat="37.12479954241937" lon="14.852740951578776"><ele>828.0</ele><time>2026-04-06T15:27:55.999Z</time></trkpt><trkpt lat="37.12484537222431" lon="14.852660406428738"><ele>828.0</ele><time>2026-04-06T15:27:58.999Z</time></trkpt><trkpt lat="37.12474065945854" lon="14.852499473816923"><ele>828.0</ele><time>2026-04-06T15:28:02.999Z</time></trkpt><trkpt lat="37.12469745152651" lon="14.852358744795128"><ele>828.0</ele><time>2026-04-06T15:28:04.999Z</time></trkpt><trkpt lat="37.124727727774086" lon="14.852276198912012"><ele>827.8333333333334</ele><time>2026-04-06T15:28:05.999Z</time></trkpt><trkpt lat="37.12473856278972" lon="14.85218028499369"><ele>827.6666666666667</ele><time>2026-04-06T15:28:06.999Z</time></trkpt><trkpt lat="37.1247515100916" lon="14.852070525267738"><ele>827.5</ele><time>2026-04-06T15:28:07.999Z</time></trkpt><trkpt lat="37.12476285171137" lon="14.85197459638605"><ele>827.3333333333334</ele><time>2026-04-06T15:28:08.999Z</time></trkpt><trkpt lat="37.12477283167857" lon="14.851888013501345"><ele>827.1666666666667</ele><time>2026-04-06T15:28:09.999Z</time></trkpt><trkpt lat="37.12478208776067" lon="14.85180128948424"><ele>827.0</ele><time>2026-04-06T15:28:10.999Z</time></trkpt><trkpt lat="37.12479089013492" lon="14.85171143667856"><ele>827.3333333333334</ele><time>2026-04-06T15:28:11.999Z</time></trkpt><trkpt lat="37.12480056885505" lon="14.851612638303731"><ele>827.6666666666667</ele><time>2026-04-06T15:28:12.999Z</time></trkpt><trkpt lat="37.12481082531898" lon="14.851507942439978"><ele>828.0</ele><time>2026-04-06T15:28:13.999Z</time></trkpt><trkpt lat="37.12480686029222" lon="14.851394960064331"><ele>828.3333333333333</ele><time>2026-04-06T15:28:14.999Z</time></trkpt><trkpt lat="37.124820693648424" lon="14.851279105460971"><ele>828.6666666666666</ele><time>2026-04-06T15:28:15.999Z</time></trkpt><trkpt lat="37.12485066182959" lon="14.851160627342319"><ele>829.0</ele><time>2026-04-06T15:28:16.999Z</time></trkpt><trkpt lat="37.12486495090104" lon="14.85103938072528"><ele>830.8000000000001</ele><time>2026-04-06T15:28:17.999Z</time></trkpt><trkpt lat="37.124863216801714" lon="14.85091231266755"><ele>832.6</ele><time>2026-04-06T15:28:18.999Z</time></trkpt><trkpt lat="37.124880787872364" lon="14.850788621596575"><ele>834.4</ele><time>2026-04-06T15:28:19.999Z</time></trkpt><trkpt lat="37.124890861564914" lon="14.850665570088287"><ele>836.2</ele><time>2026-04-06T15:28:20.999Z</time></trkpt><trkpt lat="37.12490296778604" lon="14.850554095313397"><ele>838.0</ele><time>2026-04-06T15:28:21.999Z</time></trkpt><trkpt lat="37.12491795998841" lon="14.850454450758772"><ele>835.5714285714286</ele><time>2026-04-06T15:28:22.999Z</time></trkpt><trkpt lat="37.1249394081763" lon="14.850361964900392"><ele>833.1428571428571</ele><time>2026-04-06T15:28:23.999Z</time></trkpt><trkpt lat="37.12494901755704" lon="14.850273884449281"><ele>830.7142857142858</ele><time>2026-04-06T15:28:24.999Z</time></trkpt><trkpt lat="37.124958313811824" lon="14.850188674126255"><ele>828.2857142857142</ele><time>2026-04-06T15:28:25.999Z</time></trkpt><trkpt lat="37.12496774807249" lon="14.850102198835637"><ele>825.8571428571429</ele><time>2026-04-06T15:28:26.999Z</time></trkpt><trkpt lat="37.124977348873614" lon="14.85001419701886"><ele>823.4285714285714</ele><time>2026-04-06T15:28:27.999Z</time></trkpt><trkpt lat="37.12498839441859" lon="14.849914013662731"><ele>821.0</ele><time>2026-04-06T15:28:28.999Z</time></trkpt><trkpt lat="37.12500015629115" lon="14.849810405391802"><ele>821.0000000000001</ele><time>2026-04-06T15:28:29.999Z</time></trkpt><trkpt lat="37.12501045259034" lon="14.849710420358965"><ele>821.0</ele><time>2026-04-06T15:28:30.999Z</time></trkpt><trkpt lat="37.1250034857777" lon="14.849605816791096"><ele>821.0</ele><time>2026-04-06T15:28:31.999Z</time></trkpt><trkpt lat="37.125009564700406" lon="14.849488636575163"><ele>821.0</ele><time>2026-04-06T15:28:32.999Z</time></trkpt><trkpt lat="37.12499996796149" lon="14.849373104522915"><ele>821.0000000000001</ele><time>2026-04-06T15:28:33.999Z</time></trkpt><trkpt lat="37.12500249758644" lon="14.849258267823117"><ele>821.0</ele><time>2026-04-06T15:28:34.999Z</time></trkpt><trkpt lat="37.12498734453546" lon="14.84914792835115"><ele>821.8333333333334</ele><time>2026-04-06T15:28:35.999Z</time></trkpt><trkpt lat="37.124944218206686" lon="14.849049336493882"><ele>822.6666666666667</ele><time>2026-04-06T15:28:36.999Z</time></trkpt><trkpt lat="37.124930810676815" lon="14.848945053795084"><ele>823.5</ele><time>2026-04-06T15:28:37.999Z</time></trkpt><trkpt lat="37.12492197704576" lon="14.848843468002222"><ele>824.3333333333333</ele><time>2026-04-06T15:28:38.999Z</time></trkpt><trkpt lat="37.124913072189216" lon="14.84874807345187"><ele>825.1666666666666</ele><time>2026-04-06T15:28:39.999Z</time></trkpt><trkpt lat="37.124891526581855" lon="14.8486650547057"><ele>826.0</ele><time>2026-04-06T15:28:40.999Z</time></trkpt><trkpt lat="37.1248233021559" lon="14.848564589741029"><ele>827.1666666666666</ele><time>2026-04-06T15:28:42.999Z</time></trkpt><trkpt lat="37.124734469387896" lon="14.848540984319277"><ele>828.3333333333333</ele><time>2026-04-06T15:28:44.999Z</time></trkpt><trkpt lat="37.12462724378121" lon="14.848613912134121"><ele>829.5</ele><time>2026-04-06T15:28:46.999Z</time></trkpt><trkpt lat="37.124598548403405" lon="14.84868879790992"><ele>830.6666666666667</ele><time>2026-04-06T15:28:47.999Z</time></trkpt><trkpt lat="37.12458163409534" lon="14.848779109375121"><ele>831.8333333333334</ele><time>2026-04-06T15:28:48.999Z</time></trkpt><trkpt lat="37.12457124982504" lon="14.84887751878748"><ele>833.0</ele><time>2026-04-06T15:28:49.999Z</time></trkpt><trkpt lat="37.124557923315244" lon="14.848967638810526"><ele>833.0</ele><time>2026-04-06T15:28:50.999Z</time></trkpt><trkpt lat="37.124542935178084" lon="14.84907873201253"><ele>833.0</ele><time>2026-04-06T15:28:51.999Z</time></trkpt><trkpt lat="37.12451345077784" lon="14.849191851518603"><ele>833.0</ele><time>2026-04-06T15:28:52.999Z</time></trkpt><trkpt lat="37.124494709713595" lon="14.84931427692414"><ele>833.0</ele><time>2026-04-06T15:28:53.999Z</time></trkpt><trkpt lat="37.12448313204752" lon="14.849437299809352"><ele>833.0</ele><time>2026-04-06T15:28:54.999Z</time></trkpt><trkpt lat="37.12447180299423" lon="14.84955710230214"><ele>833.8333333333334</ele><time>2026-04-06T15:28:55.999Z</time></trkpt><trkpt lat="37.12445286340711" lon="14.84966883643565"><ele>834.6666666666667</ele><time>2026-04-06T15:28:56.999Z</time></trkpt><trkpt lat="37.12443430395638" lon="14.849777119614306"><ele>835.5</ele><time>2026-04-06T15:28:57.999Z</time></trkpt><trkpt lat="37.12441643129234" lon="14.84988127631359"><ele>836.3333333333333</ele><time>2026-04-06T15:28:58.999Z</time></trkpt><trkpt lat="37.1243964460319" lon="14.849982189763328"><ele>837.1666666666666</ele><time>2026-04-06T15:28:59.999Z</time></trkpt><trkpt lat="37.124370494297686" lon="14.850080282302796"><ele>838.0</ele><time>2026-04-06T15:29:00.999Z</time></trkpt><trkpt lat="37.12433461715091" lon="14.850173452651783"><ele>837.9999999999999</ele><time>2026-04-06T15:29:01.999Z</time></trkpt><trkpt lat="37.12429902266159" lon="14.850269062007031"><ele>838.0</ele><time>2026-04-06T15:29:02.999Z</time></trkpt><trkpt lat="37.12426216787105" lon="14.850365052958434"><ele>838.0</ele><time>2026-04-06T15:29:03.999Z</time></trkpt><trkpt lat="37.12422300385985" lon="14.850460610644726"><ele>838.0</ele><time>2026-04-06T15:29:04.999Z</time></trkpt><trkpt lat="37.1241850343855" lon="14.850549905149293"><ele>837.9999999999999</ele><time>2026-04-06T15:29:05.999Z</time></trkpt><trkpt lat="37.124164469442036" lon="14.850641185276816"><ele>838.0</ele><time>2026-04-06T15:29:06.999Z</time></trkpt><trkpt lat="37.12414746521363" lon="14.850732252337988"><ele>837.9999999999999</ele><time>2026-04-06T15:29:07.999Z</time></trkpt><trkpt lat="37.12413673396547" lon="14.850823074089808"><ele>838.0</ele><time>2026-04-06T15:29:08.999Z</time></trkpt><trkpt lat="37.1241304251868" lon="14.85091455897724"><ele>838.0</ele><time>2026-04-06T15:29:09.999Z</time></trkpt><trkpt lat="37.1241240065987" lon="14.851008840287639"><ele>838.0</ele><time>2026-04-06T15:29:10.999Z</time></trkpt><trkpt lat="37.12410706804065" lon="14.851106015268451"><ele>837.9999999999999</ele><time>2026-04-06T15:29:11.999Z</time></trkpt><trkpt lat="37.12407311466983" lon="14.851199927382464"><ele>838.0</ele><time>2026-04-06T15:29:12.999Z</time></trkpt><trkpt lat="37.124019402389195" lon="14.8512832195553"><ele>841.5999999999999</ele><time>2026-04-06T15:29:13.999Z</time></trkpt><trkpt lat="37.12395143007511" lon="14.851351917271156"><ele>845.1999999999999</ele><time>2026-04-06T15:29:14.999Z</time></trkpt><trkpt lat="37.123876644039996" lon="14.851412501421322"><ele>848.8</ele><time>2026-04-06T15:29:15.999Z</time></trkpt><trkpt lat="37.123799292474104" lon="14.851469713201592"><ele>852.4</ele><time>2026-04-06T15:29:16.999Z</time></trkpt><trkpt lat="37.12371700996586" lon="14.851521270036606"><ele>856.0</ele><time>2026-04-06T15:29:17.999Z</time></trkpt><trkpt lat="37.12363433870728" lon="14.851574694559192"><ele>856.0</ele><time>2026-04-06T15:29:18.999Z</time></trkpt><trkpt lat="37.1235518403397" lon="14.851633708692587"><ele>855.9999999999999</ele><time>2026-04-06T15:29:19.999Z</time></trkpt><trkpt lat="37.12346893836648" lon="14.85169496557539"><ele>855.9999999999999</ele><time>2026-04-06T15:29:20.999Z</time></trkpt><trkpt lat="37.12338781443278" lon="14.851751068831533"><ele>856.0</ele><time>2026-04-06T15:29:21.999Z</time></trkpt><trkpt lat="37.123313720463116" lon="14.851814357317743"><ele>856.0</ele><time>2026-04-06T15:29:22.999Z</time></trkpt><trkpt lat="37.12326420735888" lon="14.85190071582102"><ele>854.8333333333333</ele><time>2026-04-06T15:29:23.999Z</time></trkpt><trkpt lat="37.12324037302742" lon="14.852005281510692"><ele>853.6666666666666</ele><time>2026-04-06T15:29:24.999Z</time></trkpt><trkpt lat="37.12323517467078" lon="14.852110215202938"><ele>852.5</ele><time>2026-04-06T15:29:25.999Z</time></trkpt><trkpt lat="37.12322924169688" lon="14.85221249777948"><ele>851.3333333333333</ele><time>2026-04-06T15:29:26.999Z</time></trkpt><trkpt lat="37.12322338126435" lon="14.852319237059417"><ele>850.1666666666666</ele><time>2026-04-06T15:29:27.999Z</time></trkpt><trkpt lat="37.123210577860036" lon="14.852428529413299"><ele>849.0</ele><time>2026-04-06T15:29:28.999Z</time></trkpt><trkpt lat="37.1231945480908" lon="14.852537410321382"><ele>855.4000000000001</ele><time>2026-04-06T15:29:29.999Z</time></trkpt><trkpt lat="37.12317455714775" lon="14.852648184211128"><ele>861.8</ele><time>2026-04-06T15:29:30.999Z</time></trkpt><trkpt lat="37.12315448097391" lon="14.852761701371689"><ele>868.1999999999999</ele><time>2026-04-06T15:29:31.999Z</time></trkpt><trkpt lat="37.12312934103477" lon="14.852878211940922"><ele>874.5999999999999</ele><time>2026-04-06T15:29:32.999Z</time></trkpt><trkpt lat="37.12310904120602" lon="14.852994896778307"><ele>881.0</ele><time>2026-04-06T15:29:33.999Z</time></trkpt><trkpt lat="37.12309187727973" lon="14.853112700242841"><ele>881.0000000000001</ele><time>2026-04-06T15:29:34.999Z</time></trkpt><trkpt lat="37.12307298178595" lon="14.853229979630267"><ele>881.0</ele><time>2026-04-06T15:29:35.999Z</time></trkpt><trkpt lat="37.123046668650716" lon="14.853340012980416"><ele>881.0</ele><time>2026-04-06T15:29:36.999Z</time></trkpt><trkpt lat="37.12299367012761" lon="14.853433409481571"><ele>881.0</ele><time>2026-04-06T15:29:37.999Z</time></trkpt><trkpt lat="37.12296970769624" lon="14.853534742684301"><ele>881.0000000000001</ele><time>2026-04-06T15:29:38.999Z</time></trkpt><trkpt lat="37.12298213690528" lon="14.853636988410532"><ele>881.0</ele><time>2026-04-06T15:29:39.999Z</time></trkpt><trkpt lat="37.12299598709023" lon="14.853724579311939"><ele>879.1666666666667</ele><time>2026-04-06T15:29:40.999Z</time></trkpt><trkpt lat="37.123012414458266" lon="14.853808291321865"><ele>877.3333333333334</ele><time>2026-04-06T15:29:41.999Z</time></trkpt><trkpt lat="37.12302528153646" lon="14.853893682937649"><ele>875.5</ele><time>2026-04-06T15:29:42.999Z</time></trkpt><trkpt lat="37.123024385330005" lon="14.85398565010903"><ele>873.6666666666667</ele><time>2026-04-06T15:29:43.999Z</time></trkpt><trkpt lat="37.12299989812794" lon="14.854076743981855"><ele>871.8333333333334</ele><time>2026-04-06T15:29:44.999Z</time></trkpt><trkpt lat="37.12295402821357" lon="14.854167494908436"><ele>870.0</ele><time>2026-04-06T15:29:45.999Z</time></trkpt><trkpt lat="37.12288741610628" lon="14.854248270035342"><ele>870.3333333333334</ele><time>2026-04-06T15:29:46.999Z</time></trkpt><trkpt lat="37.12280801390169" lon="14.854325443532733"><ele>870.6666666666667</ele><time>2026-04-06T15:29:47.999Z</time></trkpt><trkpt lat="37.1227272911321" lon="14.854390263320731"><ele>871.0</ele><time>2026-04-06T15:29:48.999Z</time></trkpt><trkpt lat="37.12264698291286" lon="14.85444433199896"><ele>871.3333333333334</ele><time>2026-04-06T15:29:49.999Z</time></trkpt><trkpt lat="37.12257707583389" lon="14.854507439258512"><ele>871.6666666666667</ele><time>2026-04-06T15:29:50.999Z</time></trkpt><trkpt lat="37.12253342992693" lon="14.854577715486263"><ele>872.0</ele><time>2026-04-06T15:29:51.999Z</time></trkpt><trkpt lat="37.12251342330902" lon="14.854655412098632"><ele>872.0</ele><time>2026-04-06T15:29:52.999Z</time></trkpt><trkpt lat="37.12257274922423" lon="14.854787287622248"><ele>872.0</ele><time>2026-04-06T15:29:54.999Z</time></trkpt><trkpt lat="37.12264002521171" lon="14.854839270996262"><ele>872.0</ele><time>2026-04-06T15:29:55.999Z</time></trkpt><trkpt lat="37.12271936012576" lon="14.854891578264079"><ele>872.0</ele><time>2026-04-06T15:29:56.999Z</time></trkpt><trkpt lat="37.122794663909715" lon="14.854970734151099"><ele>872.0</ele><time>2026-04-06T15:29:57.999Z</time></trkpt><trkpt lat="37.12289014048348" lon="14.855022823054687"><ele>872.0</ele><time>2026-04-06T15:29:58.999Z</time></trkpt><trkpt lat="37.12297699889799" lon="14.855093540507449"><ele>872.0</ele><time>2026-04-06T15:29:59.999Z</time></trkpt><trkpt lat="37.123065929272826" lon="14.85516361589383"><ele>872.0</ele><time>2026-04-06T15:30:00.999Z</time></trkpt><trkpt lat="37.123148641216936" lon="14.855226631974018"><ele>872.0</ele><time>2026-04-06T15:30:01.999Z</time></trkpt><trkpt lat="37.12323873833475" lon="14.85529501979734"><ele>872.0</ele><time>2026-04-06T15:30:02.999Z</time></trkpt><trkpt lat="37.12333288543639" lon="14.855365814448025"><ele>873.0</ele><time>2026-04-06T15:30:03.999Z</time></trkpt><trkpt lat="37.12342191012496" lon="14.855428640426146"><ele>874.0</ele><time>2026-04-06T15:30:04.999Z</time></trkpt><trkpt lat="37.12350755680511" lon="14.855487057820193"><ele>875.0</ele><time>2026-04-06T15:30:05.999Z</time></trkpt><trkpt lat="37.123586566849134" lon="14.85555565060742"><ele>876.0</ele><time>2026-04-06T15:30:06.999Z</time></trkpt><trkpt lat="37.12368751752468" lon="14.855555014624107"><ele>877.0</ele><time>2026-04-06T15:30:07.999Z</time></trkpt><trkpt lat="37.12377485198362" lon="14.85549024613408"><ele>877.0</ele><time>2026-04-06T15:30:08.999Z</time></trkpt><trkpt lat="37.123858016499305" lon="14.855428998342793"><ele>877.0</ele><time>2026-04-06T15:30:09.999Z</time></trkpt><trkpt lat="37.123951317004156" lon="14.855379615623114"><ele>877.0</ele><time>2026-04-06T15:30:10.999Z</time></trkpt><trkpt lat="37.12403267731824" lon="14.855309744597331"><ele>877.0</ele><time>2026-04-06T15:30:11.999Z</time></trkpt><trkpt lat="37.124114686714385" lon="14.855240576703727"><ele>877.0</ele><time>2026-04-06T15:30:12.999Z</time></trkpt><trkpt lat="37.12418898793824" lon="14.855155436249069"><ele>872.8</ele><time>2026-04-06T15:30:13.999Z</time></trkpt><trkpt lat="37.12427907334435" lon="14.85509786405209"><ele>868.6</ele><time>2026-04-06T15:30:14.999Z</time></trkpt><trkpt lat="37.12437298818889" lon="14.855052803885757"><ele>864.3999999999999</ele><time>2026-04-06T15:30:15.999Z</time></trkpt><trkpt lat="37.12446941268103" lon="14.855018738537316"><ele>860.1999999999999</ele><time>2026-04-06T15:30:16.999Z</time></trkpt><trkpt lat="37.12456607432146" lon="14.854988063177402"><ele>856.0</ele><time>2026-04-06T15:30:17.999Z</time></trkpt><trkpt lat="37.12466115655925" lon="14.85496389627526"><ele>855.9999999999999</ele><time>2026-04-06T15:30:18.999Z</time></trkpt><trkpt lat="37.124748582223724" lon="14.854945568615157"><ele>856.0</ele><time>2026-04-06T15:30:19.999Z</time></trkpt><trkpt lat="37.1248190333147" lon="14.854935946590745"><ele>856.0</ele><time>2026-04-06T15:30:20.999Z</time></trkpt><trkpt lat="37.12491084631595" lon="14.854976407999349"><ele>856.0</ele><time>2026-04-06T15:30:22.999Z</time></trkpt><trkpt lat="37.124926959021906" lon="14.855102929923552"><ele>855.9999999999999</ele><time>2026-04-06T15:30:24.999Z</time></trkpt><trkpt lat="37.12488791270142" lon="14.85518069401367"><ele>856.0</ele><time>2026-04-06T15:30:25.999Z</time></trkpt><trkpt lat="37.124838673616296" lon="14.855256374991058"><ele>859.0</ele><time>2026-04-06T15:30:26.999Z</time></trkpt><trkpt lat="37.12478472043627" lon="14.855337368118885"><ele>861.9999999999999</ele><time>2026-04-06T15:30:27.999Z</time></trkpt><trkpt lat="37.124729137723456" lon="14.855416811374889"><ele>864.9999999999999</ele><time>2026-04-06T15:30:28.999Z</time></trkpt><trkpt lat="37.1246746718975" lon="14.855498439395781"><ele>868.0</ele><time>2026-04-06T15:30:29.999Z</time></trkpt><trkpt lat="37.12460874764082" lon="14.855594337654418"><ele>871.0</ele><time>2026-04-06T15:30:30.999Z</time></trkpt><trkpt lat="37.12454026760675" lon="14.855701712929424"><ele>871.0</ele><time>2026-04-06T15:30:31.999Z</time></trkpt><trkpt lat="37.124471051909325" lon="14.855811836045214"><ele>870.9999999999999</ele><time>2026-04-06T15:30:32.999Z</time></trkpt><trkpt lat="37.124405965482865" lon="14.85590706350723"><ele>870.9999999999999</ele><time>2026-04-06T15:30:33.999Z</time></trkpt><trkpt lat="37.1243318865803" lon="14.856004772699919"><ele>871.0</ele><time>2026-04-06T15:30:34.999Z</time></trkpt><trkpt lat="37.12425360411203" lon="14.856109167792713"><ele>871.0</ele><time>2026-04-06T15:30:35.999Z</time></trkpt><trkpt lat="37.12417678009442" lon="14.856220204668894"><ele>871.1999999999999</ele><time>2026-04-06T15:30:36.999Z</time></trkpt><trkpt lat="37.12410149455212" lon="14.856333571819754"><ele>871.3999999999999</ele><time>2026-04-06T15:30:37.999Z</time></trkpt><trkpt lat="37.12402834657251" lon="14.856440654296653"><ele>871.6</ele><time>2026-04-06T15:30:38.999Z</time></trkpt><trkpt lat="37.12396001991754" lon="14.856544587809003"><ele>871.8</ele><time>2026-04-06T15:30:39.999Z</time></trkpt><trkpt lat="37.12390677231486" lon="14.856660013314315"><ele>872.0</ele><time>2026-04-06T15:30:40.999Z</time></trkpt><trkpt lat="37.12387878264333" lon="14.856789642792068"><ele>875.75</ele><time>2026-04-06T15:30:41.999Z</time></trkpt><trkpt lat="37.123867871948825" lon="14.856930118533073"><ele>879.5</ele><time>2026-04-06T15:30:42.999Z</time></trkpt><trkpt lat="37.123876933846745" lon="14.857086448565209"><ele>883.25</ele><time>2026-04-06T15:30:43.999Z</time></trkpt><trkpt lat="37.123888838163595" lon="14.85723608879329"><ele>887.0</ele><time>2026-04-06T15:30:44.999Z</time></trkpt><trkpt lat="37.12389893963364" lon="14.857383484390695"><ele>887.0</ele><time>2026-04-06T15:30:45.999Z</time></trkpt><trkpt lat="37.123907106429286" lon="14.857518947748623"><ele>887.0</ele><time>2026-04-06T15:30:46.999Z</time></trkpt><trkpt lat="37.12391629430869" lon="14.857648247325834"><ele>887.0</ele><time>2026-04-06T15:30:47.999Z</time></trkpt><trkpt lat="37.12392811672367" lon="14.857777439117484"><ele>887.0</ele><time>2026-04-06T15:30:48.999Z</time></trkpt><trkpt lat="37.12393880083939" lon="14.857905175409032"><ele>887.0</ele><time>2026-04-06T15:30:49.999Z</time></trkpt><trkpt lat="37.12394713662915" lon="14.858026801115448"><ele>887.1666666666667</ele><time>2026-04-06T15:30:50.999Z</time></trkpt><trkpt lat="37.12395189565919" lon="14.858139674079437"><ele>887.3333333333334</ele><time>2026-04-06T15:30:51.999Z</time></trkpt><trkpt lat="37.123956608154145" lon="14.858234672491536"><ele>887.5</ele><time>2026-04-06T15:30:52.999Z</time></trkpt><trkpt lat="37.123947592735" lon="14.8583624722648"><ele>887.6666666666667</ele><time>2026-04-06T15:30:54.999Z</time></trkpt><trkpt lat="37.123888402638755" lon="14.858431400840239"><ele>887.8333333333334</ele><time>2026-04-06T15:30:56.999Z</time></trkpt><trkpt lat="37.12383549957693" lon="14.858500892435126"><ele>888.0</ele><time>2026-04-06T15:30:58.999Z</time></trkpt><trkpt lat="37.1238318676115" lon="14.858615555858664"><ele>888.0</ele><time>2026-04-06T15:31:00.999Z</time></trkpt><trkpt lat="37.123857668269444" lon="14.85869384244408"><ele>888.0</ele><time>2026-04-06T15:31:01.999Z</time></trkpt><trkpt lat="37.123875705217614" lon="14.858779603610778"><ele>888.0</ele><time>2026-04-06T15:31:02.999Z</time></trkpt><trkpt lat="37.123882070542614" lon="14.85886836377416"><ele>888.0</ele><time>2026-04-06T15:31:03.999Z</time></trkpt><trkpt lat="37.123922477380695" lon="14.858929517096911"><ele>888.0</ele><time>2026-04-06T15:31:04.999Z</time></trkpt><trkpt lat="37.123850352996534" lon="14.859035613697369"><ele>888.0</ele><time>2026-04-06T15:31:05.999Z</time></trkpt><trkpt lat="37.123803788088686" lon="14.859103294120695"><ele>888.0</ele><time>2026-04-06T15:31:06.999Z</time></trkpt><trkpt lat="37.12373970913383" lon="14.859164735393424"><ele>888.0</ele><time>2026-04-06T15:31:07.999Z</time></trkpt><trkpt lat="37.12366662203476" lon="14.859230665439423"><ele>888.0</ele><time>2026-04-06T15:31:08.999Z</time></trkpt><trkpt lat="37.123585594907205" lon="14.859305028384883"><ele>888.0</ele><time>2026-04-06T15:31:09.999Z</time></trkpt><trkpt lat="37.123507997343424" lon="14.859378882212022"><ele>888.0</ele><time>2026-04-06T15:31:10.999Z</time></trkpt><trkpt lat="37.12342994272191" lon="14.859450547019165"><ele>888.0</ele><time>2026-04-06T15:31:11.999Z</time></trkpt><trkpt lat="37.123338049611995" lon="14.859519669482863"><ele>888.0</ele><time>2026-04-06T15:31:12.999Z</time></trkpt><trkpt lat="37.12323460764253" lon="14.85959238902843"><ele>888.0</ele><time>2026-04-06T15:31:13.999Z</time></trkpt><trkpt lat="37.12313513997638" lon="14.859669080504224"><ele>888.0</ele><time>2026-04-06T15:31:14.999Z</time></trkpt><trkpt lat="37.12304268342889" lon="14.859743150499039"><ele>888.25</ele><time>2026-04-06T15:31:15.999Z</time></trkpt><trkpt lat="37.12295228940656" lon="14.859813588142373"><ele>888.5</ele><time>2026-04-06T15:31:16.999Z</time></trkpt><trkpt lat="37.12285495745447" lon="14.859887885822893"><ele>888.75</ele><time>2026-04-06T15:31:17.999Z</time></trkpt><trkpt lat="37.12274450432529" lon="14.85997441154526"><ele>889.0</ele><time>2026-04-06T15:31:18.999Z</time></trkpt><trkpt lat="37.12262974595194" lon="14.860067604754228"><ele>888.5</ele><time>2026-04-06T15:31:19.999Z</time></trkpt><trkpt lat="37.122522400446634" lon="14.86015469041647"><ele>888.0</ele><time>2026-04-06T15:31:20.999Z</time></trkpt><trkpt lat="37.12241855287694" lon="14.86024173029811"><ele>887.5</ele><time>2026-04-06T15:31:21.999Z</time></trkpt><trkpt lat="37.12231150627276" lon="14.860326017777343"><ele>887.0</ele><time>2026-04-06T15:31:22.999Z</time></trkpt><trkpt lat="37.1221995607572" lon="14.860410037989599"><ele>886.75</ele><time>2026-04-06T15:31:23.999Z</time></trkpt><trkpt lat="37.12208709004382" lon="14.860492287800849"><ele>886.5</ele><time>2026-04-06T15:31:24.999Z</time></trkpt><trkpt lat="37.121972272604125" lon="14.860557566907318"><ele>886.25</ele><time>2026-04-06T15:31:25.999Z</time></trkpt><trkpt lat="37.12185932950128" lon="14.860628115902554"><ele>886.0</ele><time>2026-04-06T15:31:26.999Z</time></trkpt><trkpt lat="37.121734788936074" lon="14.860639251001645"><ele>886.0</ele><time>2026-04-06T15:31:27.999Z</time></trkpt><trkpt lat="37.12161737720748" lon="14.86066818893019"><ele>886.0</ele><time>2026-04-06T15:31:28.999Z</time></trkpt><trkpt lat="37.121500975376144" lon="14.860634087822886"><ele>886.0</ele><time>2026-04-06T15:31:29.999Z</time></trkpt><trkpt lat="37.121382936818854" lon="14.8606051625912"><ele>886.0</ele><time>2026-04-06T15:31:30.999Z</time></trkpt><trkpt lat="37.121265510603706" lon="14.860570045680529"><ele>887.0</ele><time>2026-04-06T15:31:31.999Z</time></trkpt><trkpt lat="37.12115474165705" lon="14.86052937681292"><ele>888.0</ele><time>2026-04-06T15:31:32.999Z</time></trkpt><trkpt lat="37.12104593523524" lon="14.860488389663608"><ele>889.0</ele><time>2026-04-06T15:31:33.999Z</time></trkpt><trkpt lat="37.12093459685159" lon="14.860444261854393"><ele>890.0</ele><time>2026-04-06T15:31:34.999Z</time></trkpt><trkpt lat="37.12082027738348" lon="14.860398270928389"><ele>889.8</ele><time>2026-04-06T15:31:35.999Z</time></trkpt><trkpt lat="37.12070891478319" lon="14.860355649881793"><ele>889.6</ele><time>2026-04-06T15:31:36.999Z</time></trkpt><trkpt lat="37.120608356752804" lon="14.860331384991037"><ele>889.4000000000001</ele><time>2026-04-06T15:31:37.999Z</time></trkpt><trkpt lat="37.12050673654492" lon="14.860328755447105"><ele>889.2</ele><time>2026-04-06T15:31:38.999Z</time></trkpt><trkpt lat="37.120414072725424" lon="14.860363422547366"><ele>889.0</ele><time>2026-04-06T15:31:39.999Z</time></trkpt><trkpt lat="37.12033338908905" lon="14.860425673706885"><ele>889.0</ele><time>2026-04-06T15:31:40.999Z</time></trkpt><trkpt lat="37.12027128382397" lon="14.860511949139113"><ele>889.0000000000001</ele><time>2026-04-06T15:31:41.999Z</time></trkpt><trkpt lat="37.12022212664797" lon="14.860628244660436"><ele>889.0000000000001</ele><time>2026-04-06T15:31:42.999Z</time></trkpt><trkpt lat="37.12018780692397" lon="14.860771920094454"><ele>889.0</ele><time>2026-04-06T15:31:43.999Z</time></trkpt><trkpt lat="37.12015300088631" lon="14.860924916876002"><ele>889.0</ele><time>2026-04-06T15:31:44.999Z</time></trkpt><trkpt lat="37.12012407972117" lon="14.861077842697588"><ele>888.75</ele><time>2026-04-06T15:31:45.999Z</time></trkpt><trkpt lat="37.120095902253894" lon="14.861236066320997"><ele>888.5</ele><time>2026-04-06T15:31:46.999Z</time></trkpt><trkpt lat="37.12006411311831" lon="14.861399230817101"><ele>888.25</ele><time>2026-04-06T15:31:47.999Z</time></trkpt><trkpt lat="37.120026589257606" lon="14.861564451453859"><ele>888.0</ele><time>2026-04-06T15:31:48.999Z</time></trkpt><trkpt lat="37.11999075717311" lon="14.861728028889647"><ele>887.5</ele><time>2026-04-06T15:31:49.999Z</time></trkpt><trkpt lat="37.119954489792704" lon="14.861883635007691"><ele>887.0</ele><time>2026-04-06T15:31:50.999Z</time></trkpt><trkpt lat="37.11991127092667" lon="14.862027272201695"><ele>886.5</ele><time>2026-04-06T15:31:51.999Z</time></trkpt><trkpt lat="37.1198515915474" lon="14.862149626392764"><ele>886.0</ele><time>2026-04-06T15:31:52.999Z</time></trkpt><trkpt lat="37.11977202285212" lon="14.862247810226712"><ele>886.0</ele><time>2026-04-06T15:31:53.999Z</time></trkpt><trkpt lat="37.11971813912887" lon="14.862369243844913"><ele>886.0</ele><time>2026-04-06T15:31:54.999Z</time></trkpt><trkpt lat="37.1195756263355" lon="14.862423229559358"><ele>886.0</ele><time>2026-04-06T15:31:55.999Z</time></trkpt><trkpt lat="37.11946886653659" lon="14.862520628196044"><ele>886.0</ele><time>2026-04-06T15:31:56.999Z</time></trkpt><trkpt lat="37.119360396325035" lon="14.862615994907234"><ele>886.25</ele><time>2026-04-06T15:31:57.999Z</time></trkpt><trkpt lat="37.11924658187569" lon="14.862707614245137"><ele>886.5</ele><time>2026-04-06T15:31:58.999Z</time></trkpt><trkpt lat="37.11912667295272" lon="14.862799690492"><ele>886.75</ele><time>2026-04-06T15:31:59.999Z</time></trkpt><trkpt lat="37.119008194456995" lon="14.862896397023341"><ele>887.0</ele><time>2026-04-06T15:32:00.999Z</time></trkpt><trkpt lat="37.118888389960944" lon="14.862996539041902"><ele>887.0</ele><time>2026-04-06T15:32:01.999Z</time></trkpt><trkpt lat="37.11876838648132" lon="14.863093252999096"><ele>887.0</ele><time>2026-04-06T15:32:02.999Z</time></trkpt><trkpt lat="37.11864952522429" lon="14.863189318146807"><ele>887.0</ele><time>2026-04-06T15:32:03.999Z</time></trkpt><trkpt lat="37.11852956282007" lon="14.863286394210121"><ele>887.0</ele><time>2026-04-06T15:32:04.999Z</time></trkpt><trkpt lat="37.11841049081274" lon="14.863383029069555"><ele>887.0</ele><time>2026-04-06T15:32:05.999Z</time></trkpt><trkpt lat="37.11829028384546" lon="14.863476539598995"><ele>887.0</ele><time>2026-04-06T15:32:06.999Z</time></trkpt><trkpt lat="37.11817124310984" lon="14.863571720492047"><ele>887.0</ele><time>2026-04-06T15:32:07.999Z</time></trkpt><trkpt lat="37.11804866095563" lon="14.863669232015484"><ele>887.0</ele><time>2026-04-06T15:32:08.999Z</time></trkpt><trkpt lat="37.117919822096766" lon="14.863770947186957"><ele>887.6666666666667</ele><time>2026-04-06T15:32:09.999Z</time></trkpt><trkpt lat="37.117787888780164" lon="14.863875781152123"><ele>888.3333333333333</ele><time>2026-04-06T15:32:10.999Z</time></trkpt><trkpt lat="37.117651719174155" lon="14.86398116730166"><ele>889.0</ele><time>2026-04-06T15:32:11.999Z</time></trkpt><trkpt lat="37.117512446398045" lon="14.864086945610827"><ele>889.6666666666666</ele><time>2026-04-06T15:32:12.999Z</time></trkpt><trkpt lat="37.11736672084775" lon="14.864190860917498"><ele>890.3333333333333</ele><time>2026-04-06T15:32:13.999Z</time></trkpt><trkpt lat="37.117215395051694" lon="14.864295830690516"><ele>891.0</ele><time>2026-04-06T15:32:14.999Z</time></trkpt><trkpt lat="37.117057869925794" lon="14.864398650011823"><ele>889.3333333333333</ele><time>2026-04-06T15:32:15.999Z</time></trkpt><trkpt lat="37.11689312295949" lon="14.864493002878328"><ele>887.6666666666666</ele><time>2026-04-06T15:32:16.999Z</time></trkpt><trkpt lat="37.116728498564164" lon="14.864577281704188"><ele>886.0</ele><time>2026-04-06T15:32:17.999Z</time></trkpt><trkpt lat="37.116562784246526" lon="14.864654351528376"><ele>885.0</ele><time>2026-04-06T15:32:18.999Z</time></trkpt><trkpt lat="37.11639965509203" lon="14.864722509157854"><ele>884.0</ele><time>2026-04-06T15:32:19.999Z</time></trkpt><trkpt lat="37.116242881307166" lon="14.864780874023827"><ele>883.0</ele><time>2026-04-06T15:32:20.999Z</time></trkpt><trkpt lat="37.11609019527965" lon="14.864832729283538"><ele>883.0</ele><time>2026-04-06T15:32:21.999Z</time></trkpt><trkpt lat="37.11593554026247" lon="14.864886625135624"><ele>883.0</ele><time>2026-04-06T15:32:22.999Z</time></trkpt><trkpt lat="37.115794756575845" lon="14.86492926373327"><ele>883.0</ele><time>2026-04-06T15:32:23.999Z</time></trkpt><trkpt lat="37.11565609984464" lon="14.864970610335533"><ele>883.0</ele><time>2026-04-06T15:32:24.999Z</time></trkpt><trkpt lat="37.11552321130535" lon="14.86500223585864"><ele>882.5</ele><time>2026-04-06T15:32:25.999Z</time></trkpt><trkpt lat="37.115390564031934" lon="14.865033313659866"><ele>882.0</ele><time>2026-04-06T15:32:26.999Z</time></trkpt><trkpt lat="37.11526411469702" lon="14.865067121455708"><ele>881.5</ele><time>2026-04-06T15:32:27.999Z</time></trkpt><trkpt lat="37.11514121121305" lon="14.8650973881964"><ele>881.0</ele><time>2026-04-06T15:32:28.999Z</time></trkpt><trkpt lat="37.115024679755415" lon="14.865124704367114"><ele>879.75</ele><time>2026-04-06T15:32:29.999Z</time></trkpt><trkpt lat="37.11490691413549" lon="14.865155981564106"><ele>878.5</ele><time>2026-04-06T15:32:30.999Z</time></trkpt><trkpt lat="37.11479313579209" lon="14.865185800581223"><ele>877.25</ele><time>2026-04-06T15:32:31.999Z</time></trkpt><trkpt lat="37.1146799186279" lon="14.86521466267837"><ele>876.0</ele><time>2026-04-06T15:32:32.999Z</time></trkpt><trkpt lat="37.11457229785075" lon="14.865243438699068"><ele>875.25</ele><time>2026-04-06T15:32:33.999Z</time></trkpt><trkpt lat="37.11446443347414" lon="14.865278248483031"><ele>874.5</ele><time>2026-04-06T15:32:34.999Z</time></trkpt><trkpt lat="37.11435082195163" lon="14.865318817723075"><ele>873.75</ele><time>2026-04-06T15:32:35.999Z</time></trkpt><trkpt lat="37.11423802558451" lon="14.865365634538257"><ele>873.0</ele><time>2026-04-06T15:32:36.999Z</time></trkpt><trkpt lat="37.11412711934577" lon="14.865422328276928"><ele>872.0</ele><time>2026-04-06T15:32:37.999Z</time></trkpt><trkpt lat="37.114009597430595" lon="14.865480098928103"><ele>871.0</ele><time>2026-04-06T15:32:38.999Z</time></trkpt><trkpt lat="37.113884234952515" lon="14.865548795744942"><ele>870.0</ele><time>2026-04-06T15:32:39.999Z</time></trkpt><trkpt lat="37.113756978454674" lon="14.865629772051438"><ele>869.0</ele><time>2026-04-06T15:32:40.999Z</time></trkpt><trkpt lat="37.113630880105454" lon="14.865712211457007"><ele>869.0</ele><time>2026-04-06T15:32:41.999Z</time></trkpt><trkpt lat="37.11350549317034" lon="14.865800414960328"><ele>869.0</ele><time>2026-04-06T15:32:42.999Z</time></trkpt><trkpt lat="37.11338003194423" lon="14.865896905151354"><ele>869.0</ele><time>2026-04-06T15:32:43.999Z</time></trkpt><trkpt lat="37.113255030745336" lon="14.866009172120318"><ele>869.0</ele><time>2026-04-06T15:32:44.999Z</time></trkpt><trkpt lat="37.11312055585921" lon="14.86616140640345"><ele>869.6666666666667</ele><time>2026-04-06T15:32:45.999Z</time></trkpt><trkpt lat="37.11299519603855" lon="14.866305166998982"><ele>870.3333333333333</ele><time>2026-04-06T15:32:46.999Z</time></trkpt><trkpt lat="37.11287653629566" lon="14.866449946080136"><ele>871.0</ele><time>2026-04-06T15:32:47.999Z</time></trkpt><trkpt lat="37.112762948464926" lon="14.86661027953746"><ele>869.0</ele><time>2026-04-06T15:32:48.999Z</time></trkpt><trkpt lat="37.11264922290069" lon="14.866789649858106"><ele>867.0</ele><time>2026-04-06T15:32:49.999Z</time></trkpt><trkpt lat="37.11253743169407" lon="14.86697545476476"><ele>865.0</ele><time>2026-04-06T15:32:50.999Z</time></trkpt><trkpt lat="37.112435403926355" lon="14.867169192459944"><ele>865.3333333333333</ele><time>2026-04-06T15:32:51.999Z</time></trkpt><trkpt lat="37.11233117872301" lon="14.867354969516164"><ele>865.6666666666667</ele><time>2026-04-06T15:32:52.999Z</time></trkpt><trkpt lat="37.11223492516277" lon="14.867539428550593"><ele>866.0</ele><time>2026-04-06T15:32:53.999Z</time></trkpt><trkpt lat="37.11215184966959" lon="14.867717891929905"><ele>866.0</ele><time>2026-04-06T15:32:54.999Z</time></trkpt><trkpt lat="37.112085996870334" lon="14.867895417063329"><ele>866.0</ele><time>2026-04-06T15:32:55.999Z</time></trkpt><trkpt lat="37.11204004975862" lon="14.868061600487549"><ele>866.0</ele><time>2026-04-06T15:32:56.999Z</time></trkpt><trkpt lat="37.11200104503421" lon="14.86821369876789"><ele>866.0</ele><time>2026-04-06T15:32:57.999Z</time></trkpt><trkpt lat="37.111949761332156" lon="14.868354023987889"><ele>865.5</ele><time>2026-04-06T15:32:58.999Z</time></trkpt><trkpt lat="37.111857987860176" lon="14.868478557812887"><ele>865.0</ele><time>2026-04-06T15:32:59.999Z</time></trkpt><trkpt lat="37.111747753029434" lon="14.868609328934335"><ele>864.5</ele><time>2026-04-06T15:33:00.999Z</time></trkpt><trkpt lat="37.11163386578238" lon="14.868749981084749"><ele>864.0</ele><time>2026-04-06T15:33:01.999Z</time></trkpt><trkpt lat="37.11152268195759" lon="14.868906619549511"><ele>864.0</ele><time>2026-04-06T15:33:02.999Z</time></trkpt><trkpt lat="37.11140738046091" lon="14.86907051445845"><ele>864.0</ele><time>2026-04-06T15:33:03.999Z</time></trkpt><trkpt lat="37.111288987969246" lon="14.869237323328589"><ele>864.0</ele><time>2026-04-06T15:33:04.999Z</time></trkpt><trkpt lat="37.11116550052535" lon="14.86941243919179"><ele>861.0</ele><time>2026-04-06T15:33:05.999Z</time></trkpt><trkpt lat="37.1110374766931" lon="14.86958838719402"><ele>858.0</ele><time>2026-04-06T15:33:06.999Z</time></trkpt><trkpt lat="37.11090764066092" lon="14.869769142962056"><ele>855.0</ele><time>2026-04-06T15:33:07.999Z</time></trkpt><trkpt lat="37.11077722593629" lon="14.869955771398757"><ele>852.6666666666667</ele><time>2026-04-06T15:33:08.999Z</time></trkpt><trkpt lat="37.11064643166589" lon="14.870140773576743"><ele>850.3333333333334</ele><time>2026-04-06T15:33:09.999Z</time></trkpt><trkpt lat="37.11051491266681" lon="14.870325999497704"><ele>848.0</ele><time>2026-04-06T15:33:10.999Z</time></trkpt><trkpt lat="37.11037612328761" lon="14.870519133576556"><ele>848.0</ele><time>2026-04-06T15:33:11.999Z</time></trkpt><trkpt lat="37.11023233043054" lon="14.87071786396773"><ele>848.0</ele><time>2026-04-06T15:33:12.999Z</time></trkpt><trkpt lat="37.1100914894139" lon="14.870916816374347"><ele>848.0</ele><time>2026-04-06T15:33:13.999Z</time></trkpt><trkpt lat="37.10995189918438" lon="14.871115023760595"><ele>847.3333333333334</ele><time>2026-04-06T15:33:14.999Z</time></trkpt><trkpt lat="37.10981003104294" lon="14.87130926004971"><ele>846.6666666666667</ele><time>2026-04-06T15:33:15.999Z</time></trkpt><trkpt lat="37.10966951073348" lon="14.87150298863508"><ele>846.0</ele><time>2026-04-06T15:33:16.999Z</time></trkpt><trkpt lat="37.10953163064988" lon="14.87169972789903"><ele>844.6666666666667</ele><time>2026-04-06T15:33:17.999Z</time></trkpt><trkpt lat="37.109397004785166" lon="14.871893399109739"><ele>843.3333333333334</ele><time>2026-04-06T15:33:18.999Z</time></trkpt><trkpt lat="37.10926516662283" lon="14.872078539154701"><ele>842.0</ele><time>2026-04-06T15:33:19.999Z</time></trkpt><trkpt lat="37.10913678411952" lon="14.872254494895264"><ele>842.3333333333334</ele><time>2026-04-06T15:33:20.999Z</time></trkpt><trkpt lat="37.10901153871731" lon="14.872427998319631"><ele>842.6666666666667</ele><time>2026-04-06T15:33:21.999Z</time></trkpt><trkpt lat="37.10889058957041" lon="14.872596683172556"><ele>843.0</ele><time>2026-04-06T15:33:22.999Z</time></trkpt><trkpt lat="37.108777635998806" lon="14.872755464707824"><ele>841.5</ele><time>2026-04-06T15:33:23.999Z</time></trkpt><trkpt lat="37.10867886245237" lon="14.872898314184342"><ele>840.0</ele><time>2026-04-06T15:33:24.999Z</time></trkpt><trkpt lat="37.10860593020445" lon="14.87303054606951"><ele>838.5</ele><time>2026-04-06T15:33:25.999Z</time></trkpt><trkpt lat="37.108564251345115" lon="14.87316513067502"><ele>837.0</ele><time>2026-04-06T15:33:26.999Z</time></trkpt><trkpt lat="37.10853693253962" lon="14.87328344682725"><ele>837.0</ele><time>2026-04-06T15:33:27.999Z</time></trkpt><trkpt lat="37.10849977408125" lon="14.873377891153927"><ele>837.0</ele><time>2026-04-06T15:33:28.999Z</time></trkpt><trkpt lat="37.10844293094486" lon="14.873431033498278"><ele>837.0</ele><time>2026-04-06T15:33:29.999Z</time></trkpt><trkpt lat="37.108365960131785" lon="14.873456741969514"><ele>837.0</ele><time>2026-04-06T15:33:30.999Z</time></trkpt><trkpt lat="37.10828190239762" lon="14.873450387350243"><ele>837.0</ele><time>2026-04-06T15:33:31.999Z</time></trkpt><trkpt lat="37.10820618562103" lon="14.873401991764798"><ele>837.0</ele><time>2026-04-06T15:33:32.999Z</time></trkpt><trkpt lat="37.10814503194924" lon="14.873330218825211"><ele>835.8</ele><time>2026-04-06T15:33:33.999Z</time></trkpt><trkpt lat="37.10812031452313" lon="14.873223366620445"><ele>834.6</ele><time>2026-04-06T15:33:34.999Z</time></trkpt><trkpt lat="37.108067321525944" lon="14.873131645171826"><ele>833.4</ele><time>2026-04-06T15:33:35.999Z</time></trkpt><trkpt lat="37.108029532463355" lon="14.873020152861244"><ele>832.1999999999999</ele><time>2026-04-06T15:33:36.999Z</time></trkpt><trkpt lat="37.10798716186736" lon="14.87290349796612"><ele>831.0</ele><time>2026-04-06T15:33:37.999Z</time></trkpt><trkpt lat="37.107938100065915" lon="14.872778368542305"><ele>831.0</ele><time>2026-04-06T15:33:38.999Z</time></trkpt><trkpt lat="37.10788670137999" lon="14.872645020219117"><ele>831.0</ele><time>2026-04-06T15:33:39.999Z</time></trkpt><trkpt lat="37.10784301116294" lon="14.872499983211446"><ele>831.0</ele><time>2026-04-06T15:33:40.999Z</time></trkpt><trkpt lat="37.10779231313026" lon="14.872355549127088"><ele>831.0</ele><time>2026-04-06T15:33:41.999Z</time></trkpt><trkpt lat="37.10772439902945" lon="14.872217909893806"><ele>831.5</ele><time>2026-04-06T15:33:42.999Z</time></trkpt><trkpt lat="37.10764433634075" lon="14.872091636394083"><ele>832.0</ele><time>2026-04-06T15:33:43.999Z</time></trkpt><trkpt lat="37.107562195609354" lon="14.871982047064678"><ele>832.5</ele><time>2026-04-06T15:33:44.999Z</time></trkpt><trkpt lat="37.10748579500229" lon="14.871880091150214"><ele>833.0</ele><time>2026-04-06T15:33:45.999Z</time></trkpt><trkpt lat="37.107405940079246" lon="14.871790133123314"><ele>832.0</ele><time>2026-04-06T15:33:46.999Z</time></trkpt><trkpt lat="37.10732718729548" lon="14.87171345843849"><ele>831.0</ele><time>2026-04-06T15:33:47.999Z</time></trkpt><trkpt lat="37.10726830941611" lon="14.871627293483698"><ele>830.0</ele><time>2026-04-06T15:33:48.999Z</time></trkpt><trkpt lat="37.10723345409121" lon="14.871517957527088"><ele>829.0</ele><time>2026-04-06T15:33:49.999Z</time></trkpt><trkpt lat="37.10721906903155" lon="14.871379298679436"><ele>828.0</ele><time>2026-04-06T15:33:50.999Z</time></trkpt><trkpt lat="37.10720605277509" lon="14.871222723835617"><ele>828.0</ele><time>2026-04-06T15:33:51.999Z</time></trkpt><trkpt lat="37.10718845559619" lon="14.871063052997687"><ele>828.0</ele><time>2026-04-06T15:33:52.999Z</time></trkpt><trkpt lat="37.10716952026688" lon="14.87090795685838"><ele>828.0</ele><time>2026-04-06T15:33:53.999Z</time></trkpt><trkpt lat="37.10715242112224" lon="14.870757153579522"><ele>828.0</ele><time>2026-04-06T15:33:54.999Z</time></trkpt><trkpt lat="37.10713451900387" lon="14.87061137510361"><ele>828.4</ele><time>2026-04-06T15:33:55.999Z</time></trkpt><trkpt lat="37.10712069308674" lon="14.870472615327493"><ele>828.8</ele><time>2026-04-06T15:33:56.999Z</time></trkpt><trkpt lat="37.10710508553495" lon="14.870341525269895"><ele>829.2</ele><time>2026-04-06T15:33:57.999Z</time></trkpt><trkpt lat="37.10708323204546" lon="14.87022801039081"><ele>829.6</ele><time>2026-04-06T15:33:58.999Z</time></trkpt><trkpt lat="37.10704067505058" lon="14.870133903888334"><ele>830.0</ele><time>2026-04-06T15:33:59.999Z</time></trkpt><trkpt lat="37.106973538923306" lon="14.87008146776327"><ele>830.0</ele><time>2026-04-06T15:34:00.999Z</time></trkpt><trkpt lat="37.10689170762974" lon="14.870064788917928"><ele>830.0</ele><time>2026-04-06T15:34:01.999Z</time></trkpt><trkpt lat="37.10680281683677" lon="14.870096813908942"><ele>830.0</ele><time>2026-04-06T15:34:02.999Z</time></trkpt><trkpt lat="37.10671136573963" lon="14.870166681937585"><ele>830.0</ele><time>2026-04-06T15:34:03.999Z</time></trkpt><trkpt lat="37.1066206017913" lon="14.870261433089464"><ele>830.0</ele><time>2026-04-06T15:34:04.999Z</time></trkpt><trkpt lat="37.10652017490951" lon="14.87035863361349"><ele>830.25</ele><time>2026-04-06T15:34:05.999Z</time></trkpt><trkpt lat="37.106412616388596" lon="14.870461947475816"><ele>830.5</ele><time>2026-04-06T15:34:06.999Z</time></trkpt><trkpt lat="37.10629948915928" lon="14.870565872806214"><ele>830.75</ele><time>2026-04-06T15:34:07.999Z</time></trkpt><trkpt lat="37.106191475818385" lon="14.870661636038937"><ele>831.0</ele><time>2026-04-06T15:34:08.999Z</time></trkpt><trkpt lat="37.10608730981468" lon="14.870753959748932"><ele>831.0</ele><time>2026-04-06T15:34:09.999Z</time></trkpt><trkpt lat="37.10598309730041" lon="14.87084716769566"><ele>831.0</ele><time>2026-04-06T15:34:10.999Z</time></trkpt><trkpt lat="37.10588038266175" lon="14.870942770857791"><ele>831.0</ele><time>2026-04-06T15:34:11.999Z</time></trkpt><trkpt lat="37.10578827079605" lon="14.871051007899194"><ele>831.0</ele><time>2026-04-06T15:34:12.999Z</time></trkpt><trkpt lat="37.10572536343545" lon="14.871186551053892"><ele>830.25</ele><time>2026-04-06T15:34:13.999Z</time></trkpt><trkpt lat="37.10569377559615" lon="14.871339186110509"><ele>829.5</ele><time>2026-04-06T15:34:14.999Z</time></trkpt><trkpt lat="37.10570456032403" lon="14.8715060447561"><ele>828.75</ele><time>2026-04-06T15:34:15.999Z</time></trkpt><trkpt lat="37.10573859235026" lon="14.871666437766914"><ele>828.0</ele><time>2026-04-06T15:34:16.999Z</time></trkpt><trkpt lat="37.10576215757645" lon="14.871835252713181"><ele>827.5</ele><time>2026-04-06T15:34:17.999Z</time></trkpt><trkpt lat="37.10581983098192" lon="14.871989528207008"><ele>827.0</ele><time>2026-04-06T15:34:18.999Z</time></trkpt><trkpt lat="37.105888522429545" lon="14.872112145210457"><ele>826.5</ele><time>2026-04-06T15:34:19.999Z</time></trkpt><trkpt lat="37.1059337289654" lon="14.872243074021322"><ele>826.0</ele><time>2026-04-06T15:34:20.999Z</time></trkpt><trkpt lat="37.10594602536024" lon="14.872377758310325"><ele>826.0</ele><time>2026-04-06T15:34:21.999Z</time></trkpt><trkpt lat="37.10592239115137" lon="14.87251109811325"><ele>826.0</ele><time>2026-04-06T15:34:22.999Z</time></trkpt><trkpt lat="37.10585176823661" lon="14.872635353033639"><ele>826.0</ele><time>2026-04-06T15:34:23.999Z</time></trkpt><trkpt lat="37.10578834527632" lon="14.872784420816938"><ele>826.0</ele><time>2026-04-06T15:34:24.999Z</time></trkpt><trkpt lat="37.10570414309586" lon="14.872931762392986"><ele>825.0</ele><time>2026-04-06T15:34:25.999Z</time></trkpt><trkpt lat="37.105624354019135" lon="14.873090326744546"><ele>824.0</ele><time>2026-04-06T15:34:26.999Z</time></trkpt><trkpt lat="37.10554339628817" lon="14.873257363983894"><ele>823.0</ele><time>2026-04-06T15:34:27.999Z</time></trkpt><trkpt lat="37.10545197940897" lon="14.873426740632707"><ele>820.3333333333333</ele><time>2026-04-06T15:34:28.999Z</time></trkpt><trkpt lat="37.10534925092156" lon="14.873588599433914"><ele>817.6666666666667</ele><time>2026-04-06T15:34:29.999Z</time></trkpt><trkpt lat="37.105237730512265" lon="14.873742007358649"><ele>815.0</ele><time>2026-04-06T15:34:30.999Z</time></trkpt><trkpt lat="37.10512751708386" lon="14.873891738976946"><ele>815.0</ele><time>2026-04-06T15:34:31.999Z</time></trkpt><trkpt lat="37.10502300817777" lon="14.874038355429702"><ele>815.0</ele><time>2026-04-06T15:34:32.999Z</time></trkpt><trkpt lat="37.10492423510779" lon="14.874184034766888"><ele>815.0</ele><time>2026-04-06T15:34:33.999Z</time></trkpt><trkpt lat="37.104827984681634" lon="14.874327207064175"><ele>812.5</ele><time>2026-04-06T15:34:34.999Z</time></trkpt><trkpt lat="37.10473239229209" lon="14.874464406445584"><ele>810.0</ele><time>2026-04-06T15:34:35.999Z</time></trkpt><trkpt lat="37.10464087048867" lon="14.874602626608814"><ele>807.5</ele><time>2026-04-06T15:34:36.999Z</time></trkpt><trkpt lat="37.104561711596716" lon="14.874743199291398"><ele>805.0</ele><time>2026-04-06T15:34:37.999Z</time></trkpt><trkpt lat="37.10449469591404" lon="14.874889341623229"><ele>805.0</ele><time>2026-04-06T15:34:38.999Z</time></trkpt><trkpt lat="37.104428600027035" lon="14.87503036111989"><ele>805.0</ele><time>2026-04-06T15:34:39.999Z</time></trkpt><trkpt lat="37.1043449625751" lon="14.875160108644204"><ele>805.0</ele><time>2026-04-06T15:34:40.999Z</time></trkpt><trkpt lat="37.10424155979816" lon="14.875271289095293"><ele>805.0</ele><time>2026-04-06T15:34:41.999Z</time></trkpt><trkpt lat="37.10412689191582" lon="14.875373835289073"><ele>806.75</ele><time>2026-04-06T15:34:42.999Z</time></trkpt><trkpt lat="37.1040086429373" lon="14.875465780285007"><ele>808.5</ele><time>2026-04-06T15:34:43.999Z</time></trkpt><trkpt lat="37.10388799508993" lon="14.87555592518116"><ele>810.25</ele><time>2026-04-06T15:34:44.999Z</time></trkpt><trkpt lat="37.10375638104045" lon="14.875626724467113"><ele>812.0</ele><time>2026-04-06T15:34:45.999Z</time></trkpt><trkpt lat="37.10360800732482" lon="14.875681948820464"><ele>812.0</ele><time>2026-04-06T15:34:46.999Z</time></trkpt><trkpt lat="37.10344658405015" lon="14.875714027909956"><ele>812.0</ele><time>2026-04-06T15:34:48Z</time></trkpt><trkpt lat="37.10327836992563" lon="14.875725474947616"><ele>812.0</ele><time>2026-04-06T15:34:49Z</time></trkpt><trkpt lat="37.10310360320987" lon="14.875715648579241"><ele>812.6666666666667</ele><time>2026-04-06T15:34:50Z</time></trkpt><trkpt lat="37.1029278484899" lon="14.875701456330368"><ele>813.3333333333333</ele><time>2026-04-06T15:34:51Z</time></trkpt><trkpt lat="37.102750882339066" lon="14.875685992228563"><ele>814.0</ele><time>2026-04-06T15:34:52Z</time></trkpt><trkpt lat="37.10257991269378" lon="14.875670755249102"><ele>813.3333333333333</ele><time>2026-04-06T15:34:53Z</time></trkpt><trkpt lat="37.102412479483796" lon="14.875651449298479"><ele>812.6666666666667</ele><time>2026-04-06T15:34:54Z</time></trkpt><trkpt lat="37.10224802042952" lon="14.875619703868232"><ele>812.0</ele><time>2026-04-06T15:34:55Z</time></trkpt><trkpt lat="37.102085707176016" lon="14.875555892039246"><ele>812.0</ele><time>2026-04-06T15:34:56Z</time></trkpt><trkpt lat="37.1019290612829" lon="14.875487174924158"><ele>812.0</ele><time>2026-04-06T15:34:57Z</time></trkpt><trkpt lat="37.10177438347962" lon="14.875419744882217"><ele>812.0</ele><time>2026-04-06T15:34:58Z</time></trkpt><trkpt lat="37.101626633241246" lon="14.875347798792292"><ele>809.6666666666667</ele><time>2026-04-06T15:34:59Z</time></trkpt><trkpt lat="37.101484090350866" lon="14.875274175201003"><ele>807.3333333333333</ele><time>2026-04-06T15:35:00Z</time></trkpt><trkpt lat="37.10134146857019" lon="14.87520991322718"><ele>805.0</ele><time>2026-04-06T15:35:01Z</time></trkpt><trkpt lat="37.10119650473311" lon="14.875168090164168"><ele>805.0</ele><time>2026-04-06T15:35:02Z</time></trkpt><trkpt lat="37.10104733285127" lon="14.875143043505414"><ele>805.0</ele><time>2026-04-06T15:35:03Z</time></trkpt><trkpt lat="37.1008964663797" lon="14.875144149539357"><ele>805.0</ele><time>2026-04-06T15:35:04Z</time></trkpt><trkpt lat="37.10074328009175" lon="14.875174016357208"><ele>798.3333333333333</ele><time>2026-04-06T15:35:05Z</time></trkpt><trkpt lat="37.100591996990076" lon="14.87523502877288"><ele>791.6666666666667</ele><time>2026-04-06T15:35:06Z</time></trkpt><trkpt lat="37.10044483630978" lon="14.875315692204065"><ele>785.0</ele><time>2026-04-06T15:35:07Z</time></trkpt><trkpt lat="37.10030340480864" lon="14.875420140812482"><ele>785.0</ele><time>2026-04-06T15:35:08Z</time></trkpt><trkpt lat="37.100173999930924" lon="14.875552882533574"><ele>785.0</ele><time>2026-04-06T15:35:09Z</time></trkpt><trkpt lat="37.10005127689774" lon="14.875706477616081"><ele>785.0</ele><time>2026-04-06T15:35:10Z</time></trkpt><trkpt lat="37.09992784413511" lon="14.87586502763753"><ele>782.0</ele><time>2026-04-06T15:35:11Z</time></trkpt><trkpt lat="37.09980376207081" lon="14.876028424280385"><ele>779.0</ele><time>2026-04-06T15:35:12Z</time></trkpt><trkpt lat="37.09967653694346" lon="14.876195791266275"><ele>776.0</ele><time>2026-04-06T15:35:13Z</time></trkpt><trkpt lat="37.09954696033612" lon="14.876361274556308"><ele>776.0</ele><time>2026-04-06T15:35:14Z</time></trkpt><trkpt lat="37.099416217912434" lon="14.876522847425454"><ele>776.0</ele><time>2026-04-06T15:35:15Z</time></trkpt><trkpt lat="37.09928507352711" lon="14.876681282725606"><ele>776.0</ele><time>2026-04-06T15:35:16Z</time></trkpt><trkpt lat="37.09915520307201" lon="14.87683890992319"><ele>772.6666666666667</ele><time>2026-04-06T15:35:17Z</time></trkpt><trkpt lat="37.099028061012326" lon="14.876998751311584"><ele>769.3333333333334</ele><time>2026-04-06T15:35:18Z</time></trkpt><trkpt lat="37.09890154702095" lon="14.877160035765755"><ele>766.0</ele><time>2026-04-06T15:35:19Z</time></trkpt><trkpt lat="37.09878163004879" lon="14.877321928979047"><ele>766.0</ele><time>2026-04-06T15:35:20Z</time></trkpt><trkpt lat="37.098680185856665" lon="14.877481236923725"><ele>766.0</ele><time>2026-04-06T15:35:21Z</time></trkpt><trkpt lat="37.09860280922767" lon="14.877647898609307"><ele>766.0</ele><time>2026-04-06T15:35:22Z</time></trkpt><trkpt lat="37.09855582235519" lon="14.877826668213507"><ele>765.6666666666667</ele><time>2026-04-06T15:35:23Z</time></trkpt><trkpt lat="37.09853760646755" lon="14.87801645550211"><ele>765.3333333333334</ele><time>2026-04-06T15:35:24Z</time></trkpt><trkpt lat="37.09854000508617" lon="14.878211924545138"><ele>765.0</ele><time>2026-04-06T15:35:25Z</time></trkpt><trkpt lat="37.09854649231678" lon="14.8784099579463"><ele>766.3333333333333</ele><time>2026-04-06T15:35:26Z</time></trkpt><trkpt lat="37.09855558475168" lon="14.878609422033563"><ele>767.6666666666666</ele><time>2026-04-06T15:35:26.999Z</time></trkpt><trkpt lat="37.09856749239288" lon="14.878804177218061"><ele>769.0</ele><time>2026-04-06T15:35:27.999Z</time></trkpt><trkpt lat="37.09857670078518" lon="14.878987689250717"><ele>769.0</ele><time>2026-04-06T15:35:28.999Z</time></trkpt><trkpt lat="37.09857731992017" lon="14.879163246947131"><ele>769.0</ele><time>2026-04-06T15:35:29.999Z</time></trkpt><trkpt lat="37.09856130703798" lon="14.879334209619085"><ele>769.0</ele><time>2026-04-06T15:35:30.999Z</time></trkpt><trkpt lat="37.098531851499146" lon="14.879503930783969"><ele>769.0</ele><time>2026-04-06T15:35:31.999Z</time></trkpt><trkpt lat="37.09849206253893" lon="14.879672465465832"><ele>766.5</ele><time>2026-04-06T15:35:32.999Z</time></trkpt><trkpt lat="37.09843334354699" lon="14.879836955627825"><ele>764.0</ele><time>2026-04-06T15:35:33.999Z</time></trkpt><trkpt lat="37.098360151707816" lon="14.879987480992726"><ele>761.5</ele><time>2026-04-06T15:35:34.999Z</time></trkpt><trkpt lat="37.09829838806711" lon="14.88014281276608"><ele>759.0</ele><time>2026-04-06T15:35:35.999Z</time></trkpt><trkpt lat="37.098255659639875" lon="14.880305120965751"><ele>756.75</ele><time>2026-04-06T15:35:36.999Z</time></trkpt><trkpt lat="37.09822870534921" lon="14.88047405049784"><ele>754.5</ele><time>2026-04-06T15:35:37.999Z</time></trkpt><trkpt lat="37.0982171686707" lon="14.880647160190227"><ele>752.25</ele><time>2026-04-06T15:35:38.999Z</time></trkpt><trkpt lat="37.09822283114296" lon="14.880821444164072"><ele>750.0</ele><time>2026-04-06T15:35:39.999Z</time></trkpt><trkpt lat="37.098241028740354" lon="14.880993482257807"><ele>748.75</ele><time>2026-04-06T15:35:40.999Z</time></trkpt><trkpt lat="37.09826255598252" lon="14.881163458962119"><ele>747.5</ele><time>2026-04-06T15:35:41.999Z</time></trkpt><trkpt lat="37.098280017782976" lon="14.881334743851708"><ele>746.25</ele><time>2026-04-06T15:35:42.999Z</time></trkpt><trkpt lat="37.098282015591415" lon="14.881496073289632"><ele>745.0</ele><time>2026-04-06T15:35:43.999Z</time></trkpt><trkpt lat="37.0982622764662" lon="14.881643384327688"><ele>739.25</ele><time>2026-04-06T15:35:44.999Z</time></trkpt><trkpt lat="37.09821755435448" lon="14.88177914100694"><ele>733.5</ele><time>2026-04-06T15:35:45.999Z</time></trkpt><trkpt lat="37.09814574511163" lon="14.881888270679697"><ele>727.75</ele><time>2026-04-06T15:35:46.999Z</time></trkpt><trkpt lat="37.09805321583649" lon="14.881963375123288"><ele>722.0</ele><time>2026-04-06T15:35:47.999Z</time></trkpt><trkpt lat="37.09794774031872" lon="14.882009916007126"><ele>722.0</ele><time>2026-04-06T15:35:48.999Z</time></trkpt><trkpt lat="37.09783455825627" lon="14.882022149292748"><ele>722.0</ele><time>2026-04-06T15:35:49.999Z</time></trkpt><trkpt lat="37.097722747875544" lon="14.882001427159128"><ele>722.0</ele><time>2026-04-06T15:35:50.999Z</time></trkpt><trkpt lat="37.09761000561728" lon="14.88195434950096"><ele>722.0</ele><time>2026-04-06T15:35:51.999Z</time></trkpt><trkpt lat="37.09752313870773" lon="14.881875524211717"><ele>716.3333333333333</ele><time>2026-04-06T15:35:52.999Z</time></trkpt><trkpt lat="37.09739967434279" lon="14.881767204660179"><ele>710.6666666666666</ele><time>2026-04-06T15:35:53.999Z</time></trkpt><trkpt lat="37.09729118129803" lon="14.881619401798838"><ele>705.0</ele><time>2026-04-06T15:35:54.999Z</time></trkpt><trkpt lat="37.097175245842244" lon="14.881483440807907"><ele>705.0</ele><time>2026-04-06T15:35:55.999Z</time></trkpt><trkpt lat="37.097061566774265" lon="14.88135093960977"><ele>705.0</ele><time>2026-04-06T15:35:56.999Z</time></trkpt><trkpt lat="37.096952357547515" lon="14.881223382103167"><ele>705.0</ele><time>2026-04-06T15:35:57.999Z</time></trkpt><trkpt lat="37.096851467579086" lon="14.881101584725675"><ele>705.0</ele><time>2026-04-06T15:35:58.999Z</time></trkpt><trkpt lat="37.09675579422949" lon="14.880969271881497"><ele>702.75</ele><time>2026-04-06T15:35:59.999Z</time></trkpt><trkpt lat="37.09667276654511" lon="14.880830855964339"><ele>700.5</ele><time>2026-04-06T15:36:00.999Z</time></trkpt><trkpt lat="37.09659326883336" lon="14.880686564629496"><ele>698.25</ele><time>2026-04-06T15:36:01.999Z</time></trkpt><trkpt lat="37.09652595388414" lon="14.880536481703967"><ele>696.0</ele><time>2026-04-06T15:36:02.999Z</time></trkpt><trkpt lat="37.09646969436564" lon="14.880382787445935"><ele>696.0</ele><time>2026-04-06T15:36:03.999Z</time></trkpt><trkpt lat="37.09642034732818" lon="14.880214600417967"><ele>696.0</ele><time>2026-04-06T15:36:04.999Z</time></trkpt><trkpt lat="37.09637499562681" lon="14.88004019765077"><ele>696.0</ele><time>2026-04-06T15:36:05.999Z</time></trkpt><trkpt lat="37.09632698727027" lon="14.879855775589187"><ele>696.0</ele><time>2026-04-06T15:36:06.999Z</time></trkpt><trkpt lat="37.096285242142606" lon="14.879661592075415"><ele>698.3333333333334</ele><time>2026-04-06T15:36:07.999Z</time></trkpt><trkpt lat="37.09622943371452" lon="14.879461343696565"><ele>700.6666666666667</ele><time>2026-04-06T15:36:08.999Z</time></trkpt><trkpt lat="37.09617192127907" lon="14.879270154032973"><ele>703.0</ele><time>2026-04-06T15:36:09.999Z</time></trkpt><trkpt lat="37.09612117197237" lon="14.87907796546411"><ele>705.0</ele><time>2026-04-06T15:36:10.999Z</time></trkpt><trkpt lat="37.0960746988703" lon="14.878893883171223"><ele>707.0</ele><time>2026-04-06T15:36:11.999Z</time></trkpt><trkpt lat="37.09605318478589" lon="14.878714245403433"><ele>709.0</ele><time>2026-04-06T15:36:12.999Z</time></trkpt><trkpt lat="37.09604699115645" lon="14.878533977281679"><ele>711.0</ele><time>2026-04-06T15:36:13.999Z</time></trkpt><trkpt lat="37.09603338587406" lon="14.878359713532396"><ele>711.75</ele><time>2026-04-06T15:36:14.999Z</time></trkpt><trkpt lat="37.09604380139628" lon="14.878190087297556"><ele>712.5</ele><time>2026-04-06T15:36:15.999Z</time></trkpt><trkpt lat="37.096049308049466" lon="14.878023809897538"><ele>713.25</ele><time>2026-04-06T15:36:16.999Z</time></trkpt><trkpt lat="37.096043222337244" lon="14.877856390109566"><ele>714.0</ele><time>2026-04-06T15:36:17.999Z</time></trkpt><trkpt lat="37.096020543512" lon="14.877685585191522"><ele>714.25</ele><time>2026-04-06T15:36:18.999Z</time></trkpt><trkpt lat="37.09597622072241" lon="14.877516773964302"><ele>714.5</ele><time>2026-04-06T15:36:19.999Z</time></trkpt><trkpt lat="37.09591329803737" lon="14.877352443786016"><ele>714.75</ele><time>2026-04-06T15:36:20.999Z</time></trkpt><trkpt lat="37.095836193849856" lon="14.877194971450852"><ele>715.0</ele><time>2026-04-06T15:36:21.999Z</time></trkpt><trkpt lat="37.095738572742995" lon="14.87705211164981"><ele>713.6666666666667</ele><time>2026-04-06T15:36:22.999Z</time></trkpt><trkpt lat="37.095624724477766" lon="14.876925865032415"><ele>712.3333333333334</ele><time>2026-04-06T15:36:23.999Z</time></trkpt><trkpt lat="37.095503462393346" lon="14.876809662114592"><ele>711.0</ele><time>2026-04-06T15:36:24.999Z</time></trkpt><trkpt lat="37.095374649937355" lon="14.87670032456569"><ele>711.0</ele><time>2026-04-06T15:36:25.999Z</time></trkpt><trkpt lat="37.09524028474322" lon="14.876591853234977"><ele>711.0</ele><time>2026-04-06T15:36:26.999Z</time></trkpt><trkpt lat="37.095102514321766" lon="14.876482452892795"><ele>711.0</ele><time>2026-04-06T15:36:27.999Z</time></trkpt><trkpt lat="37.094958700319566" lon="14.876367701933878"><ele>717.6666666666666</ele><time>2026-04-06T15:36:28.999Z</time></trkpt><trkpt lat="37.09481744308481" lon="14.876247019036107"><ele>724.3333333333333</ele><time>2026-04-06T15:36:29.999Z</time></trkpt><trkpt lat="37.09467378192508" lon="14.876119805209932"><ele>731.0</ele><time>2026-04-06T15:36:30.999Z</time></trkpt><trkpt lat="37.094528336585164" lon="14.875992579457415"><ele>724.3333333333333</ele><time>2026-04-06T15:36:31.999Z</time></trkpt><trkpt lat="37.094378245134706" lon="14.875868869869105"><ele>717.6666666666666</ele><time>2026-04-06T15:36:32.999Z</time></trkpt><trkpt lat="37.09422421254156" lon="14.875749485465578"><ele>711.0</ele><time>2026-04-06T15:36:33.999Z</time></trkpt><trkpt lat="37.09406415951952" lon="14.875641362959179"><ele>711.0</ele><time>2026-04-06T15:36:34.999Z</time></trkpt><trkpt lat="37.0938995749977" lon="14.875551661864899"><ele>711.0</ele><time>2026-04-06T15:36:35.999Z</time></trkpt><trkpt lat="37.093729060787574" lon="14.87548711555705"><ele>711.0</ele><time>2026-04-06T15:36:36.999Z</time></trkpt><trkpt lat="37.09354839234442" lon="14.875452394091052"><ele>711.0</ele><time>2026-04-06T15:36:37.999Z</time></trkpt><trkpt lat="37.09336735030543" lon="14.875434621071532"><ele>711.0</ele><time>2026-04-06T15:36:38.999Z</time></trkpt><trkpt lat="37.09318538336802" lon="14.875431923054464"><ele>711.0</ele><time>2026-04-06T15:36:39.999Z</time></trkpt><trkpt lat="37.093007988574854" lon="14.87545365170185"><ele>708.6666666666666</ele><time>2026-04-06T15:36:40.999Z</time></trkpt><trkpt lat="37.092841265585506" lon="14.875490324966382"><ele>706.3333333333333</ele><time>2026-04-06T15:36:41.999Z</time></trkpt><trkpt lat="37.092682369594385" lon="14.875537906170713"><ele>704.0</ele><time>2026-04-06T15:36:42.999Z</time></trkpt><trkpt lat="37.09253190213269" lon="14.875584419825543"><ele>703.25</ele><time>2026-04-06T15:36:43.999Z</time></trkpt><trkpt lat="37.09238618109983" lon="14.875617005463036"><ele>702.5</ele><time>2026-04-06T15:36:44.999Z</time></trkpt><trkpt lat="37.092241325779604" lon="14.875626709849092"><ele>701.75</ele><time>2026-04-06T15:36:45.999Z</time></trkpt><trkpt lat="37.092095846358106" lon="14.87561282514485"><ele>701.0</ele><time>2026-04-06T15:36:46.999Z</time></trkpt><trkpt lat="37.09194343038611" lon="14.87557640134819"><ele>701.0</ele><time>2026-04-06T15:36:47.999Z</time></trkpt><trkpt lat="37.09178591889464" lon="14.875511981700152"><ele>701.0</ele><time>2026-04-06T15:36:48.999Z</time></trkpt><trkpt lat="37.09163249408282" lon="14.875422165132179"><ele>701.0</ele><time>2026-04-06T15:36:49.999Z</time></trkpt><trkpt lat="37.091490667365065" lon="14.875319675216275"><ele>701.6666666666666</ele><time>2026-04-06T15:36:50.999Z</time></trkpt><trkpt lat="37.09135426231521" lon="14.875225322140311"><ele>702.3333333333334</ele><time>2026-04-06T15:36:51.999Z</time></trkpt><trkpt lat="37.09121167910424" lon="14.875160555363157"><ele>703.0</ele><time>2026-04-06T15:36:52.999Z</time></trkpt><trkpt lat="37.091058050951816" lon="14.875124108469501"><ele>703.0</ele><time>2026-04-06T15:36:54Z</time></trkpt><trkpt lat="37.09089707538018" lon="14.875111593290926"><ele>703.0</ele><time>2026-04-06T15:36:55Z</time></trkpt><trkpt lat="37.09073883573142" lon="14.875135685544679"><ele>703.0</ele><time>2026-04-06T15:36:56Z</time></trkpt><trkpt lat="37.090580451680694" lon="14.875186999299803"><ele>700.0</ele><time>2026-04-06T15:36:57Z</time></trkpt><trkpt lat="37.09042230736167" lon="14.875258157796067"><ele>697.0</ele><time>2026-04-06T15:36:58Z</time></trkpt><trkpt lat="37.09026179880318" lon="14.87534572768853"><ele>694.0</ele><time>2026-04-06T15:36:59Z</time></trkpt><trkpt lat="37.09009333824612" lon="14.875427583272877"><ele>691.3333333333334</ele><time>2026-04-06T15:37:00Z</time></trkpt><trkpt lat="37.08992006020106" lon="14.875495177333402"><ele>688.6666666666666</ele><time>2026-04-06T15:37:01Z</time></trkpt><trkpt lat="37.089743120011526" lon="14.875541293232986"><ele>686.0</ele><time>2026-04-06T15:37:02Z</time></trkpt><trkpt lat="37.08954924916167" lon="14.87557271487403"><ele>686.0</ele><time>2026-04-06T15:37:03Z</time></trkpt><trkpt lat="37.089344957709436" lon="14.875587721717142"><ele>686.0</ele><time>2026-04-06T15:37:04Z</time></trkpt><trkpt lat="37.089139037310595" lon="14.875594770407627"><ele>686.0</ele><time>2026-04-06T15:37:05Z</time></trkpt><trkpt lat="37.08893697281776" lon="14.875600511468052"><ele>682.3333333333333</ele><time>2026-04-06T15:37:06Z</time></trkpt><trkpt lat="37.08873326625778" lon="14.875607487535863"><ele>678.6666666666666</ele><time>2026-04-06T15:37:07Z</time></trkpt><trkpt lat="37.0885287103307" lon="14.87562000954944"><ele>675.0</ele><time>2026-04-06T15:37:08Z</time></trkpt><trkpt lat="37.08832657857864" lon="14.875634209356415"><ele>673.6666666666666</ele><time>2026-04-06T15:37:09Z</time></trkpt><trkpt lat="37.08812989723016" lon="14.875648299358671"><ele>672.3333333333333</ele><time>2026-04-06T15:37:10Z</time></trkpt><trkpt lat="37.087940939334985" lon="14.875680344931379"><ele>671.0</ele><time>2026-04-06T15:37:11Z</time></trkpt><trkpt lat="37.08776440285796" lon="14.875741625062915"><ele>671.0</ele><time>2026-04-06T15:37:12Z</time></trkpt><trkpt lat="37.087598060448315" lon="14.875829085198262"><ele>671.0</ele><time>2026-04-06T15:37:13Z</time></trkpt><trkpt lat="37.08742798184117" lon="14.87594368661709"><ele>671.0</ele><time>2026-04-06T15:37:14Z</time></trkpt><trkpt lat="37.0872582575274" lon="14.876086040581477"><ele>670.6666666666666</ele><time>2026-04-06T15:37:15Z</time></trkpt><trkpt lat="37.08709911393833" lon="14.876230036631359"><ele>670.3333333333334</ele><time>2026-04-06T15:37:16Z</time></trkpt><trkpt lat="37.08693685523966" lon="14.876356713084599"><ele>670.0</ele><time>2026-04-06T15:37:17Z</time></trkpt><trkpt lat="37.086764697332654" lon="14.876466438906148"><ele>665.3333333333334</ele><time>2026-04-06T15:37:18Z</time></trkpt><trkpt lat="37.0865727340708" lon="14.876559116890858"><ele>660.6666666666666</ele><time>2026-04-06T15:37:19Z</time></trkpt><trkpt lat="37.08637296953397" lon="14.876634001692963"><ele>656.0</ele><time>2026-04-06T15:37:20Z</time></trkpt><trkpt lat="37.086176024036305" lon="14.876696889431766"><ele>658.0</ele><time>2026-04-06T15:37:21Z</time></trkpt><trkpt lat="37.08579511148622" lon="14.876848199958863"><ele>660.0</ele><time>2026-04-06T15:37:23Z</time></trkpt><trkpt lat="37.08560384948145" lon="14.876966323301527"><ele>660.0</ele><time>2026-04-06T15:37:24Z</time></trkpt><trkpt lat="37.08541425425936" lon="14.877105098455718"><ele>660.0</ele><time>2026-04-06T15:37:25.001Z</time></trkpt><trkpt lat="37.08522947111517" lon="14.877251754889834"><ele>660.0</ele><time>2026-04-06T15:37:26.001Z</time></trkpt><trkpt lat="37.08504408035522" lon="14.877399735155116"><ele>659.6666666666666</ele><time>2026-04-06T15:37:27.001Z</time></trkpt><trkpt lat="37.08486058252897" lon="14.877544861195654"><ele>659.3333333333333</ele><time>2026-04-06T15:37:28.001Z</time></trkpt><trkpt lat="37.08468360958277" lon="14.877687147871155"><ele>659.0</ele><time>2026-04-06T15:37:29.001Z</time></trkpt><trkpt lat="37.084503770916335" lon="14.877820560823448"><ele>659.0</ele><time>2026-04-06T15:37:30.001Z</time></trkpt><trkpt lat="37.08432748986278" lon="14.877950781928718"><ele>659.0</ele><time>2026-04-06T15:37:31.001Z</time></trkpt><trkpt lat="37.08415455430842" lon="14.878084523980256"><ele>659.0</ele><time>2026-04-06T15:37:32.001Z</time></trkpt><trkpt lat="37.08397960732407" lon="14.878222169860047"><ele>656.3333333333333</ele><time>2026-04-06T15:37:33.001Z</time></trkpt><trkpt lat="37.08380044516013" lon="14.878370950738507"><ele>653.6666666666666</ele><time>2026-04-06T15:37:34.001Z</time></trkpt><trkpt lat="37.08363006006098" lon="14.878537575403477"><ele>651.0</ele><time>2026-04-06T15:37:35.001Z</time></trkpt><trkpt lat="37.083471556595335" lon="14.878722440194643"><ele>651.0</ele><time>2026-04-06T15:37:36.001Z</time></trkpt><trkpt lat="37.08332671694752" lon="14.878920429455688"><ele>651.0</ele><time>2026-04-06T15:37:37.001Z</time></trkpt><trkpt lat="37.08318848422709" lon="14.879120105865615"><ele>651.0</ele><time>2026-04-06T15:37:38.001Z</time></trkpt><trkpt lat="37.083051631804786" lon="14.879312795807035"><ele>649.3333333333334</ele><time>2026-04-06T15:37:39.001Z</time></trkpt><trkpt lat="37.082912031225206" lon="14.879491277903751"><ele>647.6666666666667</ele><time>2026-04-06T15:37:40.001Z</time></trkpt><trkpt lat="37.08276551893085" lon="14.879650670952774"><ele>646.0</ele><time>2026-04-06T15:37:41.001Z</time></trkpt><trkpt lat="37.08260322132637" lon="14.879796810141032"><ele>644.6666666666667</ele><time>2026-04-06T15:37:42.001Z</time></trkpt><trkpt lat="37.08242356261482" lon="14.87993402429246"><ele>643.3333333333334</ele><time>2026-04-06T15:37:43.001Z</time></trkpt><trkpt lat="37.082238793936895" lon="14.88006393847636"><ele>642.0</ele><time>2026-04-06T15:37:44.001Z</time></trkpt><trkpt lat="37.082051627847314" lon="14.880194602631738"><ele>642.0</ele><time>2026-04-06T15:37:45.001Z</time></trkpt><trkpt lat="37.081861718505984" lon="14.880329502362207"><ele>642.0</ele><time>2026-04-06T15:37:46.001Z</time></trkpt><trkpt lat="37.081673386488454" lon="14.880467008313182"><ele>642.0</ele><time>2026-04-06T15:37:47.001Z</time></trkpt><trkpt lat="37.081477508085506" lon="14.880609885623409"><ele>643.0</ele><time>2026-04-06T15:37:48.001Z</time></trkpt><trkpt lat="37.081284292511896" lon="14.880748673694747"><ele>644.0</ele><time>2026-04-06T15:37:49.001Z</time></trkpt><trkpt lat="37.08109517019561" lon="14.880877715088571"><ele>645.0</ele><time>2026-04-06T15:37:50.001Z</time></trkpt><trkpt lat="37.08091349798743" lon="14.880997716952352"><ele>637.3333333333334</ele><time>2026-04-06T15:37:51.001Z</time></trkpt><trkpt lat="37.08074034746305" lon="14.881119270213144"><ele>629.6666666666667</ele><time>2026-04-06T15:37:52.001Z</time></trkpt><trkpt lat="37.08058388398356" lon="14.881244811922208"><ele>622.0</ele><time>2026-04-06T15:37:53.001Z</time></trkpt><trkpt lat="37.08044585822223" lon="14.881377212016933"><ele>622.0</ele><time>2026-04-06T15:37:54.001Z</time></trkpt><trkpt lat="37.08033300799656" lon="14.881530075286706"><ele>622.0</ele><time>2026-04-06T15:37:55.001Z</time></trkpt><trkpt lat="37.08023554525515" lon="14.881710060588409"><ele>622.0</ele><time>2026-04-06T15:37:56.001Z</time></trkpt><trkpt lat="37.080157014930286" lon="14.881922964069323"><ele>624.6666666666667</ele><time>2026-04-06T15:37:57.001Z</time></trkpt><trkpt lat="37.08008969968952" lon="14.8821399946901"><ele>627.3333333333334</ele><time>2026-04-06T15:37:58.001Z</time></trkpt><trkpt lat="37.080022014645664" lon="14.882340332102633"><ele>630.0</ele><time>2026-04-06T15:37:59Z</time></trkpt><trkpt lat="37.07995581817585" lon="14.88252262095722"><ele>630.0</ele><time>2026-04-06T15:38:00Z</time></trkpt><trkpt lat="37.07988319988349" lon="14.882677266705972"><ele>630.0</ele><time>2026-04-06T15:38:01Z</time></trkpt><trkpt lat="37.07978796058464" lon="14.882812726707229"><ele>630.0</ele><time>2026-04-06T15:38:02Z</time></trkpt><trkpt lat="37.079679035318115" lon="14.882931477486855"><ele>630.0</ele><time>2026-04-06T15:38:03Z</time></trkpt><trkpt lat="37.07954709762515" lon="14.88302645872927"><ele>630.0</ele><time>2026-04-06T15:38:04Z</time></trkpt><trkpt lat="37.07940237824828" lon="14.883091225345542"><ele>630.0</ele><time>2026-04-06T15:38:05Z</time></trkpt><trkpt lat="37.079245189571644" lon="14.883121304277859"><ele>630.0</ele><time>2026-04-06T15:38:06Z</time></trkpt><trkpt lat="37.07907955351259" lon="14.883116306207873"><ele>629.3333333333334</ele><time>2026-04-06T15:38:07Z</time></trkpt><trkpt lat="37.07890356281436" lon="14.883078290563395"><ele>628.6666666666667</ele><time>2026-04-06T15:38:08Z</time></trkpt><trkpt lat="37.07872573311373" lon="14.883027015057383"><ele>628.0</ele><time>2026-04-06T15:38:09Z</time></trkpt><trkpt lat="37.07852717648881" lon="14.882977339832264"><ele>628.0</ele><time>2026-04-06T15:38:10Z</time></trkpt><trkpt lat="37.07832097439825" lon="14.882932953183817"><ele>628.0</ele><time>2026-04-06T15:38:11Z</time></trkpt><trkpt lat="37.078114051065505" lon="14.88288789869601"><ele>628.0</ele><time>2026-04-06T15:38:12Z</time></trkpt><trkpt lat="37.077906103521805" lon="14.882841838479917"><ele>624.0</ele><time>2026-04-06T15:38:13Z</time></trkpt><trkpt lat="37.07769653649886" lon="14.882792293881526"><ele>620.0</ele><time>2026-04-06T15:38:14Z</time></trkpt><trkpt lat="37.07748712221446" lon="14.882744552412758"><ele>616.0</ele><time>2026-04-06T15:38:15Z</time></trkpt><trkpt lat="37.077273355288696" lon="14.882697808876598"><ele>613.6666666666667</ele><time>2026-04-06T15:38:16Z</time></trkpt><trkpt lat="37.077065008515014" lon="14.882651214146344"><ele>611.3333333333334</ele><time>2026-04-06T15:38:17Z</time></trkpt><trkpt lat="37.07686212856145" lon="14.882603439199277"><ele>609.0</ele><time>2026-04-06T15:38:18Z</time></trkpt><trkpt lat="37.0766629068585" lon="14.882554055402565"><ele>605.3333333333334</ele><time>2026-04-06T15:38:19Z</time></trkpt><trkpt lat="37.076471859962695" lon="14.882512818026305"><ele>601.6666666666667</ele><time>2026-04-06T15:38:20Z</time></trkpt><trkpt lat="37.07629100523096" lon="14.88248972213519"><ele>598.0</ele><time>2026-04-06T15:38:21Z</time></trkpt><trkpt lat="37.076113097479166" lon="14.882503792362513"><ele>598.0</ele><time>2026-04-06T15:38:22Z</time></trkpt><trkpt lat="37.07592817353848" lon="14.882543333916828"><ele>598.0</ele><time>2026-04-06T15:38:23Z</time></trkpt><trkpt lat="37.075744748539584" lon="14.88260821379231"><ele>598.0</ele><time>2026-04-06T15:38:24Z</time></trkpt><trkpt lat="37.07556694707851" lon="14.882696993656282"><ele>596.3333333333334</ele><time>2026-04-06T15:38:25Z</time></trkpt><trkpt lat="37.07539992445499" lon="14.882801774946424"><ele>594.6666666666666</ele><time>2026-04-06T15:38:26Z</time></trkpt><trkpt lat="37.07523791022399" lon="14.882916620651777"><ele>593.0</ele><time>2026-04-06T15:38:27Z</time></trkpt><trkpt lat="37.07508215905229" lon="14.883032563467987"><ele>593.0</ele><time>2026-04-06T15:38:28Z</time></trkpt><trkpt lat="37.07493769695239" lon="14.883162225616532"><ele>593.0</ele><time>2026-04-06T15:38:29Z</time></trkpt><trkpt lat="37.07481046060998" lon="14.883308465412473"><ele>593.0</ele><time>2026-04-06T15:38:30Z</time></trkpt><trkpt lat="37.07469865087909" lon="14.883464321855705"><ele>587.3333333333333</ele><time>2026-04-06T15:38:31Z</time></trkpt><trkpt lat="37.074605704086544" lon="14.88363426301634"><ele>581.6666666666666</ele><time>2026-04-06T15:38:32Z</time></trkpt><trkpt lat="37.07452982715058" lon="14.883814353295504"><ele>576.0</ele><time>2026-04-06T15:38:33Z</time></trkpt><trkpt lat="37.07446802067118" lon="14.884005333081848"><ele>576.0</ele><time>2026-04-06T15:38:34Z</time></trkpt><trkpt lat="37.07442506168986" lon="14.884209112240944"><ele>576.0</ele><time>2026-04-06T15:38:35Z</time></trkpt><trkpt lat="37.07440390189256" lon="14.884435116662678"><ele>576.0</ele><time>2026-04-06T15:38:36Z</time></trkpt><trkpt lat="37.07440491944483" lon="14.884671427175725"><ele>576.0</ele><time>2026-04-06T15:38:37Z</time></trkpt><trkpt lat="37.07441357403853" lon="14.884918021638411"><ele>576.0</ele><time>2026-04-06T15:38:38Z</time></trkpt><trkpt lat="37.074421646398314" lon="14.885168987324752"><ele>576.0</ele><time>2026-04-06T15:38:39Z</time></trkpt><trkpt lat="37.074434243454164" lon="14.885422502980916"><ele>574.3333333333334</ele><time>2026-04-06T15:38:40Z</time></trkpt><trkpt lat="37.07444738949278" lon="14.885677450352102"><ele>572.6666666666667</ele><time>2026-04-06T15:38:41Z</time></trkpt><trkpt lat="37.07446015612351" lon="14.88593158461014"><ele>571.0</ele><time>2026-04-06T15:38:42Z</time></trkpt><trkpt lat="37.0744700573844" lon="14.886181052983808"><ele>568.6666666666667</ele><time>2026-04-06T15:38:43Z</time></trkpt><trkpt lat="37.07448070865124" lon="14.886436503970874"><ele>566.3333333333334</ele><time>2026-04-06T15:38:44Z</time></trkpt><trkpt lat="37.07449536005538" lon="14.886693900368135"><ele>564.0</ele><time>2026-04-06T15:38:45Z</time></trkpt><trkpt lat="37.074513388929724" lon="14.886948026888264"><ele>563.0</ele><time>2026-04-06T15:38:46Z</time></trkpt><trkpt lat="37.074530771426176" lon="14.887197027538344"><ele>562.0</ele><time>2026-04-06T15:38:47Z</time></trkpt><trkpt lat="37.07454553681429" lon="14.88743805905735"><ele>561.0</ele><time>2026-04-06T15:38:48Z</time></trkpt><trkpt lat="37.07455341128934" lon="14.887678266774806"><ele>561.0</ele><time>2026-04-06T15:38:49Z</time></trkpt><trkpt lat="37.07455164447206" lon="14.887933810451035"><ele>561.0</ele><time>2026-04-06T15:38:50Z</time></trkpt><trkpt lat="37.07453898182037" lon="14.888200023717355"><ele>561.0</ele><time>2026-04-06T15:38:51Z</time></trkpt><trkpt lat="37.07451394143084" lon="14.888469803697099"><ele>561.0</ele><time>2026-04-06T15:38:52Z</time></trkpt><trkpt lat="37.074479742105204" lon="14.888727491990895"><ele>561.0</ele><time>2026-04-06T15:38:53Z</time></trkpt><trkpt lat="37.074442226752936" lon="14.888976626663034"><ele>561.0</ele><time>2026-04-06T15:38:54Z</time></trkpt><trkpt lat="37.07440746097617" lon="14.88921767069638"><ele>560.6666666666666</ele><time>2026-04-06T15:38:55Z</time></trkpt><trkpt lat="37.07437665540765" lon="14.88943678010572"><ele>560.3333333333333</ele><time>2026-04-06T15:38:56Z</time></trkpt><trkpt lat="37.07434915557553" lon="14.88963086673632"><ele>560.0</ele><time>2026-04-06T15:38:57Z</time></trkpt><trkpt lat="37.07431778361931" lon="14.889796159381472"><ele>560.0</ele><time>2026-04-06T15:38:58Z</time></trkpt><trkpt lat="37.074269998260384" lon="14.889918928679748"><ele>560.0</ele><time>2026-04-06T15:38:59.001Z</time></trkpt><trkpt lat="37.07420238490499" lon="14.89000756523483"><ele>560.0</ele><time>2026-04-06T15:39:00.001Z</time></trkpt><trkpt lat="37.07411499757165" lon="14.89005587291432"><ele>560.0</ele><time>2026-04-06T15:39:01.001Z</time></trkpt><trkpt lat="37.074017105073885" lon="14.89007016063625"><ele>560.0</ele><time>2026-04-06T15:39:02.001Z</time></trkpt><trkpt lat="37.073916025084216" lon="14.89004683600673"><ele>555.8</ele><time>2026-04-06T15:39:03.001Z</time></trkpt><trkpt lat="37.073825358227424" lon="14.889990266141696"><ele>551.6</ele><time>2026-04-06T15:39:04.001Z</time></trkpt><trkpt lat="37.07375805196641" lon="14.889893646782797"><ele>547.4</ele><time>2026-04-06T15:39:05.001Z</time></trkpt><trkpt lat="37.073719350066305" lon="14.889776027590482"><ele>543.2</ele><time>2026-04-06T15:39:06.001Z</time></trkpt><trkpt lat="37.07371390098392" lon="14.8896427871013"><ele>539.0</ele><time>2026-04-06T15:39:07.001Z</time></trkpt><trkpt lat="37.073734949269635" lon="14.88949152625469"><ele>539.0</ele><time>2026-04-06T15:39:08.001Z</time></trkpt><trkpt lat="37.073741507268025" lon="14.889343288144499"><ele>539.0</ele><time>2026-04-06T15:39:09.001Z</time></trkpt><trkpt lat="37.0737721007305" lon="14.889156418303038"><ele>539.0</ele><time>2026-04-06T15:39:10.001Z</time></trkpt><trkpt lat="37.07378450301374" lon="14.888952501025075"><ele>539.0</ele><time>2026-04-06T15:39:11.001Z</time></trkpt><trkpt lat="37.07379669556546" lon="14.888736328032227"><ele>539.0</ele><time>2026-04-06T15:39:12.001Z</time></trkpt><trkpt lat="37.07381235320534" lon="14.888513591794045"><ele>539.0</ele><time>2026-04-06T15:39:13.001Z</time></trkpt><trkpt lat="37.07382745067432" lon="14.8882885371201"><ele>539.0</ele><time>2026-04-06T15:39:14.001Z</time></trkpt><trkpt lat="37.07384950991843" lon="14.888072239824691"><ele>538.6666666666666</ele><time>2026-04-06T15:39:15.001Z</time></trkpt><trkpt lat="37.07386572733702" lon="14.887865655280638"><ele>538.3333333333334</ele><time>2026-04-06T15:39:16.001Z</time></trkpt><trkpt lat="37.07388070397307" lon="14.887680013818523"><ele>538.0</ele><time>2026-04-06T15:39:17.001Z</time></trkpt><trkpt lat="37.07388174806738" lon="14.887501069937656"><ele>538.5</ele><time>2026-04-06T15:39:18.001Z</time></trkpt><trkpt lat="37.073857677624204" lon="14.887328059731624"><ele>539.0</ele><time>2026-04-06T15:39:19.001Z</time></trkpt><trkpt lat="37.073802903608694" lon="14.887162795596188"><ele>539.5</ele><time>2026-04-06T15:39:20.001Z</time></trkpt><trkpt lat="37.07371568713188" lon="14.887021232809262"><ele>540.0</ele><time>2026-04-06T15:39:21.001Z</time></trkpt><trkpt lat="37.07360977612265" lon="14.886905855226932"><ele>540.0</ele><time>2026-04-06T15:39:22.001Z</time></trkpt><trkpt lat="37.073471558259655" lon="14.886818934112998"><ele>540.0</ele><time>2026-04-06T15:39:23.001Z</time></trkpt><trkpt lat="37.073313637591596" lon="14.886768340303718"><ele>540.0</ele><time>2026-04-06T15:39:24.001Z</time></trkpt><trkpt lat="37.073142775763344" lon="14.886743210035002"><ele>540.0</ele><time>2026-04-06T15:39:25.001Z</time></trkpt><trkpt lat="37.072971683083416" lon="14.886720128825804"><ele>540.0</ele><time>2026-04-06T15:39:26.001Z</time></trkpt><trkpt lat="37.072807179436055" lon="14.886669019784884"><ele>540.0</ele><time>2026-04-06T15:39:27.001Z</time></trkpt><trkpt lat="37.07264400191652" lon="14.88658908777283"><ele>540.0</ele><time>2026-04-06T15:39:28.001Z</time></trkpt><trkpt lat="37.072498402839436" lon="14.886484037560798"><ele>540.0</ele><time>2026-04-06T15:39:29.001Z</time></trkpt><trkpt lat="37.072357654869144" lon="14.886361999674815"><ele>540.0</ele><time>2026-04-06T15:39:30.001Z</time></trkpt><trkpt lat="37.07222753275285" lon="14.886218722948906"><ele>536.6666666666666</ele><time>2026-04-06T15:39:31.001Z</time></trkpt><trkpt lat="37.072121959487134" lon="14.886036202075323"><ele>533.3333333333333</ele><time>2026-04-06T15:39:32.001Z</time></trkpt><trkpt lat="37.072026414202476" lon="14.885850322168048"><ele>530.0</ele><time>2026-04-06T15:39:33.001Z</time></trkpt><trkpt lat="37.071939826569825" lon="14.885639774725796"><ele>530.0</ele><time>2026-04-06T15:39:34.001Z</time></trkpt><trkpt lat="37.07186358578041" lon="14.885417927632036"><ele>530.0</ele><time>2026-04-06T15:39:35.001Z</time></trkpt><trkpt lat="37.07180007173567" lon="14.885184583377411"><ele>530.0</ele><time>2026-04-06T15:39:36.001Z</time></trkpt><trkpt lat="37.07173425063585" lon="14.884940553616099"><ele>532.3333333333333</ele><time>2026-04-06T15:39:37.001Z</time></trkpt><trkpt lat="37.07166988312877" lon="14.884692156861345"><ele>534.6666666666666</ele><time>2026-04-06T15:39:38.001Z</time></trkpt><trkpt lat="37.071603293950176" lon="14.884442075248145"><ele>537.0</ele><time>2026-04-06T15:39:39.001Z</time></trkpt><trkpt lat="37.07153468365076" lon="14.88418866708374"><ele>529.6666666666666</ele><time>2026-04-06T15:39:40.001Z</time></trkpt><trkpt lat="37.0714635674427" lon="14.883930700771247"><ele>522.3333333333333</ele><time>2026-04-06T15:39:41.001Z</time></trkpt><trkpt lat="37.071388656356596" lon="14.883672002545044"><ele>515.0</ele><time>2026-04-06T15:39:42.001Z</time></trkpt><trkpt lat="37.071311366832326" lon="14.883417525012389"><ele>515.0</ele><time>2026-04-06T15:39:43.001Z</time></trkpt><trkpt lat="37.071239744108915" lon="14.883172391149419"><ele>515.0</ele><time>2026-04-06T15:39:44.001Z</time></trkpt><trkpt lat="37.071178697897366" lon="14.88293474786359"><ele>515.0</ele><time>2026-04-06T15:39:45.001Z</time></trkpt><trkpt lat="37.07113168428015" lon="14.882697629543316"><ele>516.0</ele><time>2026-04-06T15:39:46.001Z</time></trkpt><trkpt lat="37.07110050676199" lon="14.88245733486923"><ele>517.0</ele><time>2026-04-06T15:39:47.001Z</time></trkpt><trkpt lat="37.0710802418349" lon="14.882220576109654"><ele>518.0</ele><time>2026-04-06T15:39:48.001Z</time></trkpt><trkpt lat="37.07107031048257" lon="14.881984800441748"><ele>519.0</ele><time>2026-04-06T15:39:49.001Z</time></trkpt><trkpt lat="37.07106293685594" lon="14.881752983034312"><ele>520.0</ele><time>2026-04-06T15:39:50.001Z</time></trkpt><trkpt lat="37.07105323347688" lon="14.881522234655314"><ele>521.0</ele><time>2026-04-06T15:39:51Z</time></trkpt><trkpt lat="37.0710397869938" lon="14.881296693160314"><ele>521.0</ele><time>2026-04-06T15:39:52Z</time></trkpt><trkpt lat="37.071022397417686" lon="14.881064675770475"><ele>521.0</ele><time>2026-04-06T15:39:53Z</time></trkpt><trkpt lat="37.07100116110085" lon="14.880823385570181"><ele>521.0</ele><time>2026-04-06T15:39:54Z</time></trkpt><trkpt lat="37.0709779612309" lon="14.880576965886116"><ele>519.6666666666666</ele><time>2026-04-06T15:39:55Z</time></trkpt><trkpt lat="37.070951073009915" lon="14.880329041142376"><ele>518.3333333333334</ele><time>2026-04-06T15:39:56Z</time></trkpt><trkpt lat="37.0709206061988" lon="14.880079187834585"><ele>517.0</ele><time>2026-04-06T15:39:57Z</time></trkpt><trkpt lat="37.07088330834709" lon="14.87982860928007"><ele>516.0</ele><time>2026-04-06T15:39:58Z</time></trkpt><trkpt lat="37.07083597533536" lon="14.879579940060642"><ele>515.0</ele><time>2026-04-06T15:39:59Z</time></trkpt><trkpt lat="37.07078078101283" lon="14.879333847814307"><ele>514.0</ele><time>2026-04-06T15:40:00Z</time></trkpt><trkpt lat="37.07071715057516" lon="14.879091745087852"><ele>511.6666666666667</ele><time>2026-04-06T15:40:01Z</time></trkpt><trkpt lat="37.07064549981006" lon="14.878855733981542"><ele>509.33333333333337</ele><time>2026-04-06T15:40:02Z</time></trkpt><trkpt lat="37.07055710826739" lon="14.878628977056078"><ele>507.0</ele><time>2026-04-06T15:40:03Z</time></trkpt><trkpt lat="37.07046495878709" lon="14.878402857322339"><ele>507.0</ele><time>2026-04-06T15:40:04Z</time></trkpt><trkpt lat="37.070360910455975" lon="14.878185947287204"><ele>507.0</ele><time>2026-04-06T15:40:05Z</time></trkpt><trkpt lat="37.07024687881249" lon="14.877977944973695"><ele>507.0</ele><time>2026-04-06T15:40:06Z</time></trkpt><trkpt lat="37.070118951115276" lon="14.877782597242506"><ele>508.33333333333337</ele><time>2026-04-06T15:40:07Z</time></trkpt><trkpt lat="37.06998309568085" lon="14.877597685779145"><ele>509.6666666666667</ele><time>2026-04-06T15:40:08Z</time></trkpt><trkpt lat="37.06983678017556" lon="14.877424818794928"><ele>511.0</ele><time>2026-04-06T15:40:09Z</time></trkpt><trkpt lat="37.06968058421234" lon="14.87726898606433"><ele>512.0</ele><time>2026-04-06T15:40:10Z</time></trkpt><trkpt lat="37.069515259035825" lon="14.8771293312503"><ele>513.0</ele><time>2026-04-06T15:40:11Z</time></trkpt><trkpt lat="37.06934558399767" lon="14.877003248365218"><ele>514.0</ele><time>2026-04-06T15:40:12Z</time></trkpt><trkpt lat="37.069165104256655" lon="14.876890688255916"><ele>515.6666666666667</ele><time>2026-04-06T15:40:13Z</time></trkpt><trkpt lat="37.06898221583967" lon="14.876794294925427"><ele>517.3333333333334</ele><time>2026-04-06T15:40:14Z</time></trkpt><trkpt lat="37.0687935733949" lon="14.876712342942142"><ele>519.0</ele><time>2026-04-06T15:40:15Z</time></trkpt><trkpt lat="37.06860104982009" lon="14.876648484970795"><ele>520.6666666666666</ele><time>2026-04-06T15:40:16Z</time></trkpt><trkpt lat="37.06840662525103" lon="14.876606701145578"><ele>522.3333333333333</ele><time>2026-04-06T15:40:17Z</time></trkpt><trkpt lat="37.06820513112543" lon="14.876589419288232"><ele>524.0</ele><time>2026-04-06T15:40:18Z</time></trkpt><trkpt lat="37.06800256047337" lon="14.876586072757096"><ele>524.0</ele><time>2026-04-06T15:40:19Z</time></trkpt><trkpt lat="37.06780312543052" lon="14.87659852185767"><ele>524.0</ele><time>2026-04-06T15:40:20Z</time></trkpt><trkpt lat="37.0676054642185" lon="14.876634064469114"><ele>524.0</ele><time>2026-04-06T15:40:21Z</time></trkpt><trkpt lat="37.06740776007316" lon="14.87668465029703"><ele>524.6666666666666</ele><time>2026-04-06T15:40:22Z</time></trkpt><trkpt lat="37.06721397601022" lon="14.876754273609762"><ele>525.3333333333334</ele><time>2026-04-06T15:40:23Z</time></trkpt><trkpt lat="37.067024737917286" lon="14.876838920799877"><ele>526.0</ele><time>2026-04-06T15:40:24Z</time></trkpt><trkpt lat="37.06684094336964" lon="14.876939966062649"><ele>529.3333333333334</ele><time>2026-04-06T15:40:25Z</time></trkpt><trkpt lat="37.066667156193176" lon="14.877063246324507"><ele>532.6666666666666</ele><time>2026-04-06T15:40:26Z</time></trkpt><trkpt lat="37.066500953841626" lon="14.877201331433719"><ele>536.0</ele><time>2026-04-06T15:40:27Z</time></trkpt><trkpt lat="37.0663415880183" lon="14.877351924794286"><ele>537.6666666666666</ele><time>2026-04-06T15:40:28Z</time></trkpt><trkpt lat="37.06618884403401" lon="14.877512876500885"><ele>539.3333333333334</ele><time>2026-04-06T15:40:29Z</time></trkpt><trkpt lat="37.0660381357134" lon="14.87768438830762"><ele>541.0</ele><time>2026-04-06T15:40:30Z</time></trkpt><trkpt lat="37.06589665845899" lon="14.877866727913064"><ele>543.0</ele><time>2026-04-06T15:40:31Z</time></trkpt><trkpt lat="37.0657683785063" lon="14.878057562294243"><ele>545.0</ele><time>2026-04-06T15:40:32Z</time></trkpt><trkpt lat="37.065646183504" lon="14.878253122715265"><ele>547.0</ele><time>2026-04-06T15:40:33Z</time></trkpt><trkpt lat="37.06552583254371" lon="14.878448109297015"><ele>547.0</ele><time>2026-04-06T15:40:34Z</time></trkpt><trkpt lat="37.0654107668185" lon="14.878644840991226"><ele>547.0</ele><time>2026-04-06T15:40:35Z</time></trkpt><trkpt lat="37.0653013166324" lon="14.878838493616152"><ele>547.0</ele><time>2026-04-06T15:40:36Z</time></trkpt><trkpt lat="37.06519679925592" lon="14.879031630388106"><ele>547.0</ele><time>2026-04-06T15:40:37Z</time></trkpt><trkpt lat="37.06509998801224" lon="14.87922592901048"><ele>547.0</ele><time>2026-04-06T15:40:38Z</time></trkpt><trkpt lat="37.065008697595005" lon="14.879424663125894"><ele>547.0</ele><time>2026-04-06T15:40:39Z</time></trkpt><trkpt lat="37.06491954099098" lon="14.879623308590613"><ele>549.0</ele><time>2026-04-06T15:40:40Z</time></trkpt><trkpt lat="37.064828281954135" lon="14.879822146722555"><ele>551.0</ele><time>2026-04-06T15:40:41Z</time></trkpt><trkpt lat="37.06473819704079" lon="14.880010357359305"><ele>553.0</ele><time>2026-04-06T15:40:42Z</time></trkpt><trkpt lat="37.06464926713679" lon="14.880189108262844"><ele>554.3333333333334</ele><time>2026-04-06T15:40:43Z</time></trkpt><trkpt lat="37.06455826945077" lon="14.880368939104565"><ele>555.6666666666666</ele><time>2026-04-06T15:40:44Z</time></trkpt><trkpt lat="37.064465434870534" lon="14.880549250693186"><ele>557.0</ele><time>2026-04-06T15:40:45Z</time></trkpt><trkpt lat="37.064371854946934" lon="14.880734717992302"><ele>557.0</ele><time>2026-04-06T15:40:46Z</time></trkpt><trkpt lat="37.06427716753438" lon="14.880920033383651"><ele>557.0</ele><time>2026-04-06T15:40:47Z</time></trkpt><trkpt lat="37.06418216995409" lon="14.881105772096278"><ele>557.0</ele><time>2026-04-06T15:40:48Z</time></trkpt><trkpt lat="37.06408251301213" lon="14.881291969382188"><ele>561.0</ele><time>2026-04-06T15:40:49Z</time></trkpt><trkpt lat="37.063982773446156" lon="14.881479523763844"><ele>565.0</ele><time>2026-04-06T15:40:50Z</time></trkpt><trkpt lat="37.06388428202088" lon="14.881669572885837"><ele>569.0</ele><time>2026-04-06T15:40:51Z</time></trkpt><trkpt lat="37.06378638029476" lon="14.88186247725879"><ele>569.0</ele><time>2026-04-06T15:40:52Z</time></trkpt><trkpt lat="37.06368893279538" lon="14.882057833219974"><ele>569.0</ele><time>2026-04-06T15:40:53Z</time></trkpt><trkpt lat="37.06359093410111" lon="14.882246082986686"><ele>569.0</ele><time>2026-04-06T15:40:54Z</time></trkpt><trkpt lat="37.06349022900035" lon="14.882424926294906"><ele>568.0</ele><time>2026-04-06T15:40:55Z</time></trkpt><trkpt lat="37.063392181032796" lon="14.882598943432638"><ele>567.0</ele><time>2026-04-06T15:40:56Z</time></trkpt><trkpt lat="37.063302004335526" lon="14.882766714490073"><ele>566.0</ele><time>2026-04-06T15:40:57Z</time></trkpt><trkpt lat="37.0632138064864" lon="14.882929171881976"><ele>569.25</ele><time>2026-04-06T15:40:58Z</time></trkpt><trkpt lat="37.06312786425394" lon="14.883088596467319"><ele>572.5</ele><time>2026-04-06T15:40:59Z</time></trkpt><trkpt lat="37.06304665638444" lon="14.883242163178133"><ele>575.75</ele><time>2026-04-06T15:41:00Z</time></trkpt><trkpt lat="37.062970423970505" lon="14.88339314659562"><ele>579.0</ele><time>2026-04-06T15:41:01Z</time></trkpt><trkpt lat="37.062902744831916" lon="14.883542374108849"><ele>579.0</ele><time>2026-04-06T15:41:02Z</time></trkpt><trkpt lat="37.0628476508258" lon="14.883687061081565"><ele>579.0</ele><time>2026-04-06T15:41:03Z</time></trkpt><trkpt lat="37.0628045084478" lon="14.883846206971254"><ele>579.0</ele><time>2026-04-06T15:41:04Z</time></trkpt><trkpt lat="37.06277743820014" lon="14.88402073898421"><ele>579.0</ele><time>2026-04-06T15:41:05.001Z</time></trkpt><trkpt lat="37.06277222831446" lon="14.884202818512502"><ele>580.6666666666666</ele><time>2026-04-06T15:41:06.001Z</time></trkpt><trkpt lat="37.062790956835386" lon="14.88438774359893"><ele>582.3333333333333</ele><time>2026-04-06T15:41:07.001Z</time></trkpt><trkpt lat="37.06282789999056" lon="14.884570740807375"><ele>584.0</ele><time>2026-04-06T15:41:08.001Z</time></trkpt><trkpt lat="37.06288633837002" lon="14.884747551495572"><ele>584.0</ele><time>2026-04-06T15:41:09.001Z</time></trkpt><trkpt lat="37.06294278812838" lon="14.884924397811247"><ele>584.0</ele><time>2026-04-06T15:41:10.001Z</time></trkpt><trkpt lat="37.06300459595971" lon="14.88510447831251"><ele>584.0</ele><time>2026-04-06T15:41:11.001Z</time></trkpt><trkpt lat="37.06307084089476" lon="14.885282849783126"><ele>586.3333333333333</ele><time>2026-04-06T15:41:12.001Z</time></trkpt><trkpt lat="37.06313806750513" lon="14.885461302270597"><ele>588.6666666666666</ele><time>2026-04-06T15:41:13.001Z</time></trkpt><trkpt lat="37.06320772593152" lon="14.885642894026358"><ele>591.0</ele><time>2026-04-06T15:41:14.001Z</time></trkpt><trkpt lat="37.06327584421279" lon="14.88582366479322"><ele>591.0</ele><time>2026-04-06T15:41:15.001Z</time></trkpt><trkpt lat="37.06334308918866" lon="14.886007240690015"><ele>591.0</ele><time>2026-04-06T15:41:16.001Z</time></trkpt><trkpt lat="37.06341413275947" lon="14.886193602317698"><ele>591.0</ele><time>2026-04-06T15:41:17.001Z</time></trkpt><trkpt lat="37.06348434163645" lon="14.886380035655122"><ele>591.0</ele><time>2026-04-06T15:41:18.001Z</time></trkpt><trkpt lat="37.06355461436432" lon="14.886556114692896"><ele>591.0</ele><time>2026-04-06T15:41:19.001Z</time></trkpt><trkpt lat="37.063620760824705" lon="14.88672607202303"><ele>591.0</ele><time>2026-04-06T15:41:20.001Z</time></trkpt><trkpt lat="37.063687951837736" lon="14.88689155002915"><ele>592.5</ele><time>2026-04-06T15:41:21.001Z</time></trkpt><trkpt lat="37.063751443702095" lon="14.887055096832963"><ele>594.0</ele><time>2026-04-06T15:41:22.001Z</time></trkpt><trkpt lat="37.063816231196306" lon="14.887217570956812"><ele>595.5</ele><time>2026-04-06T15:41:23.001Z</time></trkpt><trkpt lat="37.063881902585344" lon="14.887386992240389"><ele>597.0</ele><time>2026-04-06T15:41:24.001Z</time></trkpt><trkpt lat="37.063947882513304" lon="14.88755602278433"><ele>595.3333333333334</ele><time>2026-04-06T15:41:25.001Z</time></trkpt><trkpt lat="37.06402129161891" lon="14.88772156748401"><ele>593.6666666666667</ele><time>2026-04-06T15:41:26.001Z</time></trkpt><trkpt lat="37.06410461651314" lon="14.887877596500202"><ele>592.0</ele><time>2026-04-06T15:41:27.001Z</time></trkpt><trkpt lat="37.06420361558091" lon="14.888026617612041"><ele>592.0</ele><time>2026-04-06T15:41:28.001Z</time></trkpt><trkpt lat="37.0643113367568" lon="14.888170730070172"><ele>592.0</ele><time>2026-04-06T15:41:29.001Z</time></trkpt><trkpt lat="37.06441910406427" lon="14.888311661361325"><ele>592.0</ele><time>2026-04-06T15:41:30.001Z</time></trkpt><trkpt lat="37.06452832705061" lon="14.888451019300888"><ele>599.6666666666667</ele><time>2026-04-06T15:41:31.001Z</time></trkpt><trkpt lat="37.06463405716913" lon="14.888587260996998"><ele>607.3333333333334</ele><time>2026-04-06T15:41:32.001Z</time></trkpt><trkpt lat="37.064738862079615" lon="14.888726869680468"><ele>615.0</ele><time>2026-04-06T15:41:33.001Z</time></trkpt><trkpt lat="37.064844472683134" lon="14.888862404171086"><ele>616.6666666666666</ele><time>2026-04-06T15:41:34.001Z</time></trkpt><trkpt lat="37.06495159002451" lon="14.888998780739524"><ele>618.3333333333333</ele><time>2026-04-06T15:41:35.001Z</time></trkpt><trkpt lat="37.06505981283497" lon="14.889132872938507"><ele>620.0</ele><time>2026-04-06T15:41:36.001Z</time></trkpt><trkpt lat="37.06517202333109" lon="14.889261593167214"><ele>620.0</ele><time>2026-04-06T15:41:37.001Z</time></trkpt><trkpt lat="37.06529828384349" lon="14.889377273473405"><ele>620.0</ele><time>2026-04-06T15:41:38.001Z</time></trkpt><trkpt lat="37.06543152591017" lon="14.889483902125196"><ele>620.0</ele><time>2026-04-06T15:41:39.001Z</time></trkpt><trkpt lat="37.065567535186375" lon="14.88957086346085"><ele>620.0</ele><time>2026-04-06T15:41:40.001Z</time></trkpt><trkpt lat="37.06571163921294" lon="14.889648165918578"><ele>620.0</ele><time>2026-04-06T15:41:41.001Z</time></trkpt><trkpt lat="37.06585704613931" lon="14.889724401588333"><ele>620.0</ele><time>2026-04-06T15:41:42.001Z</time></trkpt><trkpt lat="37.06599489090426" lon="14.889791431210373"><ele>615.5</ele><time>2026-04-06T15:41:43.001Z</time></trkpt><trkpt lat="37.0661283500955" lon="14.88985754159182"><ele>611.0</ele><time>2026-04-06T15:41:44.001Z</time></trkpt><trkpt lat="37.06625439906689" lon="14.889921289071278"><ele>606.5</ele><time>2026-04-06T15:41:45.001Z</time></trkpt><trkpt lat="37.066378625079984" lon="14.889990277292654"><ele>602.0</ele><time>2026-04-06T15:41:46.001Z</time></trkpt><trkpt lat="37.06649529260942" lon="14.890072473472346"><ele>602.0</ele><time>2026-04-06T15:41:47.001Z</time></trkpt><trkpt lat="37.066593879468236" lon="14.890182528184239"><ele>602.0</ele><time>2026-04-06T15:41:48.001Z</time></trkpt><trkpt lat="37.06667551384429" lon="14.89032058131989"><ele>602.0</ele><time>2026-04-06T15:41:49.001Z</time></trkpt><trkpt lat="37.0667395214597" lon="14.890476646142265"><ele>602.0</ele><time>2026-04-06T15:41:50.001Z</time></trkpt><trkpt lat="37.066781797015764" lon="14.890646008002834"><ele>602.0</ele><time>2026-04-06T15:41:51.001Z</time></trkpt><trkpt lat="37.066800101460174" lon="14.890825377472607"><ele>602.0</ele><time>2026-04-06T15:41:52Z</time></trkpt><trkpt lat="37.06679021694601" lon="14.891008831392007"><ele>602.0</ele><time>2026-04-06T15:41:53Z</time></trkpt><trkpt lat="37.06674717043029" lon="14.891192288322111"><ele>602.0</ele><time>2026-04-06T15:41:54Z</time></trkpt><trkpt lat="37.06667178328991" lon="14.89135887761704"><ele>602.3333333333333</ele><time>2026-04-06T15:41:55Z</time></trkpt><trkpt lat="37.06657155656426" lon="14.891499023317099"><ele>602.6666666666666</ele><time>2026-04-06T15:41:56Z</time></trkpt><trkpt lat="37.06644939579327" lon="14.89161202260831"><ele>603.0</ele><time>2026-04-06T15:41:57Z</time></trkpt><trkpt lat="37.06631051108329" lon="14.891691766241365"><ele>603.0</ele><time>2026-04-06T15:41:58Z</time></trkpt><trkpt lat="37.06615904647565" lon="14.89174124367983"><ele>603.0</ele><time>2026-04-06T15:41:59Z</time></trkpt><trkpt lat="37.06600275545641" lon="14.891760064838202"><ele>603.0</ele><time>2026-04-06T15:42:00Z</time></trkpt><trkpt lat="37.06584616725623" lon="14.891739295373688"><ele>604.25</ele><time>2026-04-06T15:42:01Z</time></trkpt><trkpt lat="37.06570122915935" lon="14.891678542210482"><ele>605.5</ele><time>2026-04-06T15:42:02Z</time></trkpt><trkpt lat="37.06556362912122" lon="14.89160293507686"><ele>606.75</ele><time>2026-04-06T15:42:03Z</time></trkpt><trkpt lat="37.06543563318254" lon="14.891534361989235"><ele>608.0</ele><time>2026-04-06T15:42:04Z</time></trkpt><trkpt lat="37.06531061626972" lon="14.891500428374558"><ele>608.0</ele><time>2026-04-06T15:42:05Z</time></trkpt><trkpt lat="37.065189327870016" lon="14.891510783642168"><ele>608.0</ele><time>2026-04-06T15:42:06Z</time></trkpt><trkpt lat="37.065071358710355" lon="14.891556070537522"><ele>608.0</ele><time>2026-04-06T15:42:07Z</time></trkpt><trkpt lat="37.064967563388485" lon="14.891640132743655"><ele>608.0</ele><time>2026-04-06T15:42:08Z</time></trkpt><trkpt lat="37.06488307312713" lon="14.891753639470283"><ele>614.0</ele><time>2026-04-06T15:42:09Z</time></trkpt><trkpt lat="37.06482105187383" lon="14.891885936733646"><ele>620.0</ele><time>2026-04-06T15:42:10Z</time></trkpt><trkpt lat="37.06479011972612" lon="14.892042492078195"><ele>626.0</ele><time>2026-04-06T15:42:11Z</time></trkpt><trkpt lat="37.06477810556433" lon="14.892209101015581"><ele>632.0</ele><time>2026-04-06T15:42:12Z</time></trkpt><trkpt lat="37.064771159753036" lon="14.892379533304187"><ele>632.0</ele><time>2026-04-06T15:42:13Z</time></trkpt><trkpt lat="37.06475752515835" lon="14.892554288222774"><ele>632.0</ele><time>2026-04-06T15:42:14Z</time></trkpt><trkpt lat="37.06473792983397" lon="14.892730469849809"><ele>632.0</ele><time>2026-04-06T15:42:15Z</time></trkpt><trkpt lat="37.06471550980294" lon="14.892902026525302"><ele>632.0</ele><time>2026-04-06T15:42:16Z</time></trkpt><trkpt lat="37.06468341480261" lon="14.893063998963111"><ele>632.75</ele><time>2026-04-06T15:42:17Z</time></trkpt><trkpt lat="37.064649962258976" lon="14.893223563855434"><ele>633.5</ele><time>2026-04-06T15:42:18Z</time></trkpt><trkpt lat="37.064596107458264" lon="14.893374390575831"><ele>634.25</ele><time>2026-04-06T15:42:19Z</time></trkpt><trkpt lat="37.0645568430976" lon="14.893533016560523"><ele>635.0</ele><time>2026-04-06T15:42:20Z</time></trkpt><trkpt lat="37.064546489851665" lon="14.893686300710637"><ele>635.0</ele><time>2026-04-06T15:42:21Z</time></trkpt><trkpt lat="37.064530486761115" lon="14.893819655108572"><ele>635.0</ele><time>2026-04-06T15:42:22Z</time></trkpt><trkpt lat="37.06453461785892" lon="14.89396400926766"><ele>635.0</ele><time>2026-04-06T15:42:23Z</time></trkpt><trkpt lat="37.06453535031133" lon="14.894115672329301"><ele>635.0</ele><time>2026-04-06T15:42:24Z</time></trkpt><trkpt lat="37.06452977405631" lon="14.894268226707851"><ele>632.75</ele><time>2026-04-06T15:42:25Z</time></trkpt><trkpt lat="37.06452752427297" lon="14.89441604375849"><ele>630.5</ele><time>2026-04-06T15:42:26Z</time></trkpt><trkpt lat="37.0645200047689" lon="14.894558729401139"><ele>628.25</ele><time>2026-04-06T15:42:27Z</time></trkpt><trkpt lat="37.06450040007098" lon="14.894697699346715"><ele>626.0</ele><time>2026-04-06T15:42:28Z</time></trkpt><trkpt lat="37.0644624244683" lon="14.894825242801064"><ele>626.0</ele><time>2026-04-06T15:42:29Z</time></trkpt><trkpt lat="37.06440438780897" lon="14.894941143924248"><ele>626.0</ele><time>2026-04-06T15:42:30Z</time></trkpt><trkpt lat="37.06432331224929" lon="14.89503490784966"><ele>626.0</ele><time>2026-04-06T15:42:31Z</time></trkpt><trkpt lat="37.06422841650299" lon="14.895106158673116"><ele>626.0</ele><time>2026-04-06T15:42:32Z</time></trkpt><trkpt lat="37.06412561894486" lon="14.895162822018506"><ele>626.0</ele><time>2026-04-06T15:42:33Z</time></trkpt><trkpt lat="37.06401890698445" lon="14.895195041001424"><ele>621.75</ele><time>2026-04-06T15:42:34Z</time></trkpt><trkpt lat="37.06390593964502" lon="14.895197825939762"><ele>617.5</ele><time>2026-04-06T15:42:35Z</time></trkpt><trkpt lat="37.06378968355854" lon="14.895182819906394"><ele>613.25</ele><time>2026-04-06T15:42:36Z</time></trkpt><trkpt lat="37.06367689885973" lon="14.895148824148412"><ele>609.0</ele><time>2026-04-06T15:42:37Z</time></trkpt><trkpt lat="37.06354982698195" lon="14.895115005622351"><ele>615.0</ele><time>2026-04-06T15:42:38Z</time></trkpt><trkpt lat="37.06341632025406" lon="14.895084279837809"><ele>621.0</ele><time>2026-04-06T15:42:39Z</time></trkpt><trkpt lat="37.06328930966071" lon="14.895074479855746"><ele>627.0</ele><time>2026-04-06T15:42:40Z</time></trkpt><trkpt lat="37.063167516186" lon="14.895091137091283"><ele>633.0</ele><time>2026-04-06T15:42:41Z</time></trkpt><trkpt lat="37.063055884132005" lon="14.895145908649184"><ele>633.75</ele><time>2026-04-06T15:42:42Z</time></trkpt><trkpt lat="37.06295386442677" lon="14.895220079641128"><ele>634.5</ele><time>2026-04-06T15:42:43Z</time></trkpt><trkpt lat="37.062861718479844" lon="14.895329626654783"><ele>635.25</ele><time>2026-04-06T15:42:44Z</time></trkpt><trkpt lat="37.06277525824761" lon="14.895460700253658"><ele>636.0</ele><time>2026-04-06T15:42:45Z</time></trkpt><trkpt lat="37.062685380528386" lon="14.895596341900063"><ele>636.0</ele><time>2026-04-06T15:42:46Z</time></trkpt><trkpt lat="37.06259658213435" lon="14.8957312507582"><ele>636.0</ele><time>2026-04-06T15:42:47Z</time></trkpt><trkpt lat="37.0625071827981" lon="14.89585294040607"><ele>636.0</ele><time>2026-04-06T15:42:48Z</time></trkpt><trkpt lat="37.06240919045107" lon="14.895968649379922"><ele>636.0</ele><time>2026-04-06T15:42:49Z</time></trkpt><trkpt lat="37.062314051433376" lon="14.896084222256249"><ele>642.0</ele><time>2026-04-06T15:42:50Z</time></trkpt><trkpt lat="37.06221501552816" lon="14.896203303849795"><ele>648.0</ele><time>2026-04-06T15:42:51Z</time></trkpt><trkpt lat="37.062124085508394" lon="14.896294577645053"><ele>654.0</ele><time>2026-04-06T15:42:52Z</time></trkpt><trkpt lat="37.06203826412342" lon="14.896400144880799"><ele>660.0</ele><time>2026-04-06T15:42:53Z</time></trkpt><trkpt lat="37.06196261595814" lon="14.896520772457297"><ele>660.0</ele><time>2026-04-06T15:42:54Z</time></trkpt><trkpt lat="37.061902722007396" lon="14.896651171884857"><ele>660.0</ele><time>2026-04-06T15:42:55Z</time></trkpt><trkpt lat="37.061862429595145" lon="14.896792483992304"><ele>660.0</ele><time>2026-04-06T15:42:56Z</time></trkpt><trkpt lat="37.061837665294874" lon="14.896955884766607"><ele>660.0</ele><time>2026-04-06T15:42:57Z</time></trkpt><trkpt lat="37.06182709964656" lon="14.89712312617185"><ele>660.5</ele><time>2026-04-06T15:42:58Z</time></trkpt><trkpt lat="37.06184214461206" lon="14.897293301805956"><ele>661.0</ele><time>2026-04-06T15:42:59Z</time></trkpt><trkpt lat="37.06188170963996" lon="14.897449323677913"><ele>661.5</ele><time>2026-04-06T15:43:00Z</time></trkpt><trkpt lat="37.061934005906174" lon="14.897623729473496"><ele>662.0</ele><time>2026-04-06T15:43:01Z</time></trkpt><trkpt lat="37.06200217200864" lon="14.897799135180403"><ele>668.6666666666666</ele><time>2026-04-06T15:43:02Z</time></trkpt><trkpt lat="37.062095110836694" lon="14.897972948679234"><ele>675.3333333333334</ele><time>2026-04-06T15:43:03Z</time></trkpt><trkpt lat="37.06219149158546" lon="14.89814637861201"><ele>682.0</ele><time>2026-04-06T15:43:04Z</time></trkpt><trkpt lat="37.062287623816765" lon="14.898318375752352"><ele>686.6666666666667</ele><time>2026-04-06T15:43:05Z</time></trkpt><trkpt lat="37.06237610858497" lon="14.898503350045235"><ele>691.3333333333334</ele><time>2026-04-06T15:43:06Z</time></trkpt><trkpt lat="37.06246313238596" lon="14.898688349979468"><ele>696.0</ele><time>2026-04-06T15:43:07Z</time></trkpt><trkpt lat="37.06253834371427" lon="14.898858719257232"><ele>694.5</ele><time>2026-04-06T15:43:08Z</time></trkpt><trkpt lat="37.06262358702506" lon="14.89901012318737"><ele>693.0</ele><time>2026-04-06T15:43:09Z</time></trkpt><trkpt lat="37.06271653258654" lon="14.899139154023091"><ele>691.5</ele><time>2026-04-06T15:43:10Z</time></trkpt><trkpt lat="37.06281768326726" lon="14.899238610000383"><ele>690.0</ele><time>2026-04-06T15:43:11.001Z</time></trkpt><trkpt lat="37.06291168487845" lon="14.899324370872383"><ele>690.0</ele><time>2026-04-06T15:43:12.001Z</time></trkpt><trkpt lat="37.06300639867598" lon="14.899393681296173"><ele>690.0</ele><time>2026-04-06T15:43:13.001Z</time></trkpt><trkpt lat="37.063093142248846" lon="14.899461090597848"><ele>690.0</ele><time>2026-04-06T15:43:14.001Z</time></trkpt><trkpt lat="37.06316590870387" lon="14.899528357227547"><ele>690.0</ele><time>2026-04-06T15:43:15.001Z</time></trkpt><trkpt lat="37.063222781210506" lon="14.899602220477062"><ele>690.0</ele><time>2026-04-06T15:43:16.001Z</time></trkpt><trkpt lat="37.063263884922826" lon="14.899675265381031"><ele>687.0</ele><time>2026-04-06T15:43:17.001Z</time></trkpt><trkpt lat="37.06330293744389" lon="14.899754992634367"><ele>684.0</ele><time>2026-04-06T15:43:18.001Z</time></trkpt><trkpt lat="37.06334511983002" lon="14.899852445210808"><ele>681.0</ele><time>2026-04-06T15:43:19.001Z</time></trkpt><trkpt lat="37.06339554175112" lon="14.89995852795217"><ele>678.0</ele><time>2026-04-06T15:43:20.001Z</time></trkpt><trkpt lat="37.063456671874945" lon="14.900077244435368"><ele>675.0</ele><time>2026-04-06T15:43:21.001Z</time></trkpt><trkpt lat="37.06351972189702" lon="14.900201388611803"><ele>675.0</ele><time>2026-04-06T15:43:22.001Z</time></trkpt><trkpt lat="37.06357940025711" lon="14.900321866454151"><ele>675.0</ele><time>2026-04-06T15:43:23.001Z</time></trkpt><trkpt lat="37.06363679757081" lon="14.900429589989999"><ele>675.0</ele><time>2026-04-06T15:43:24.001Z</time></trkpt><trkpt lat="37.06369073681012" lon="14.900528941118516"><ele>675.0</ele><time>2026-04-06T15:43:25.001Z</time></trkpt><trkpt lat="37.06373819253805" lon="14.900616720567314"><ele>675.0</ele><time>2026-04-06T15:43:26.001Z</time></trkpt><trkpt lat="37.06378093603962" lon="14.90069736468788"><ele>675.0</ele><time>2026-04-06T15:43:27.001Z</time></trkpt><trkpt lat="37.063821170387506" lon="14.900780971391097"><ele>675.0</ele><time>2026-04-06T15:43:28.001Z</time></trkpt><trkpt lat="37.06386681103581" lon="14.900867855475132"><ele>675.0</ele><time>2026-04-06T15:43:29.001Z</time></trkpt><trkpt lat="37.063912349184726" lon="14.900956188025704"><ele>675.0</ele><time>2026-04-06T15:43:30.001Z</time></trkpt><trkpt lat="37.06395738342777" lon="14.901048484259878"><ele>675.0</ele><time>2026-04-06T15:43:31.001Z</time></trkpt><trkpt lat="37.06399886522266" lon="14.901140899348055"><ele>675.0</ele><time>2026-04-06T15:43:32.001Z</time></trkpt><trkpt lat="37.06403919658306" lon="14.901226599091862"><ele>676.3333333333334</ele><time>2026-04-06T15:43:33.001Z</time></trkpt><trkpt lat="37.06406761381951" lon="14.901307951238715"><ele>677.6666666666666</ele><time>2026-04-06T15:43:34.001Z</time></trkpt><trkpt lat="37.06409329586705" lon="14.901384811712902"><ele>679.0</ele><time>2026-04-06T15:43:35.001Z</time></trkpt><trkpt lat="37.06412751544488" lon="14.901516826233145"><ele>680.3333333333333</ele><time>2026-04-06T15:43:37Z</time></trkpt><trkpt lat="37.064151662313186" lon="14.901613172784904"><ele>681.6666666666666</ele><time>2026-04-06T15:43:39Z</time></trkpt><trkpt lat="37.064168457187414" lon="14.901694719609042"><ele>683.0</ele><time>2026-04-06T15:43:41Z</time></trkpt><trkpt lat="37.06420095463764" lon="14.901787086612229"><ele>679.3333333333333</ele><time>2026-04-06T15:43:43Z</time></trkpt><trkpt lat="37.06424348849244" lon="14.90190838447783"><ele>675.6666666666666</ele><time>2026-04-06T15:43:45Z</time></trkpt><trkpt lat="37.06429006673065" lon="14.902056555376747"><ele>672.0</ele><time>2026-04-06T15:43:47Z</time></trkpt><trkpt lat="37.06430055682794" lon="14.902140716071365"><ele>668.3333333333334</ele><time>2026-04-06T15:43:48Z</time></trkpt><trkpt lat="37.064327020793264" lon="14.902219606760026"><ele>664.6666666666667</ele><time>2026-04-06T15:43:49Z</time></trkpt><trkpt lat="37.06435406801067" lon="14.902300236287"><ele>661.0</ele><time>2026-04-06T15:43:50Z</time></trkpt><trkpt lat="37.06439131881966" lon="14.902444162179302"><ele>661.0</ele><time>2026-04-06T15:43:52Z</time></trkpt><trkpt lat="37.064397386504986" lon="14.902578673696587"><ele>661.0</ele><time>2026-04-06T15:43:54Z</time></trkpt><trkpt lat="37.06437723856113" lon="14.902709545807328"><ele>661.0</ele><time>2026-04-06T15:43:56Z</time></trkpt><trkpt lat="37.064375432797625" lon="14.902831991184572"><ele>661.0</ele><time>2026-04-06T15:43:58Z</time></trkpt><trkpt lat="37.06439687831832" lon="14.902947450772716"><ele>661.0</ele><time>2026-04-06T15:44:00Z</time></trkpt><trkpt lat="37.06443757109464" lon="14.903042732853093"><ele>660.8333333333334</ele><time>2026-04-06T15:44:02Z</time></trkpt><trkpt lat="37.06448079130477" lon="14.903135890650384"><ele>660.6666666666667</ele><time>2026-04-06T15:44:04Z</time></trkpt><trkpt lat="37.06452670507922" lon="14.903219316759813"><ele>660.5</ele><time>2026-04-06T15:44:06Z</time></trkpt><trkpt lat="37.06455625572893" lon="14.903315769701674"><ele>660.3333333333334</ele><time>2026-04-06T15:44:08Z</time></trkpt><trkpt lat="37.064598349401535" lon="14.903400108346636"><ele>660.1666666666666</ele><time>2026-04-06T15:44:10Z</time></trkpt><trkpt lat="37.064642502372166" lon="14.903488572937626"><ele>660.0</ele><time>2026-04-06T15:44:12Z</time></trkpt><trkpt lat="37.06468664913079" lon="14.903579506826917"><ele>660.0</ele><time>2026-04-06T15:44:14Z</time></trkpt><trkpt lat="37.06473041201054" lon="14.903677790717373"><ele>660.0</ele><time>2026-04-06T15:44:16Z</time></trkpt><trkpt lat="37.064784737045244" lon="14.90372341210512"><ele>660.0</ele><time>2026-04-06T15:44:19Z</time></trkpt><trkpt lat="37.064798554346616" lon="14.903822166309604"><ele>660.0</ele><time>2026-04-06T15:44:22Z</time></trkpt><trkpt lat="37.06476536088303" lon="14.903901005951267"><ele>660.0</ele><time>2026-04-06T15:44:23Z</time></trkpt><trkpt lat="37.06475562252318" lon="14.903980342260365"><ele>660.0</ele><time>2026-04-06T15:44:24Z</time></trkpt><trkpt lat="37.06474043081852" lon="14.904146375583725"><ele>660.0000000000001</ele><time>2026-04-06T15:44:26Z</time></trkpt><trkpt lat="37.06473751339941" lon="14.904238187011416"><ele>660.0</ele><time>2026-04-06T15:44:27Z</time></trkpt><trkpt lat="37.0647292699888" lon="14.904325197601022"><ele>660.0</ele><time>2026-04-06T15:44:28Z</time></trkpt><trkpt lat="37.064724403370384" lon="14.90442122425357"><ele>660.0</ele><time>2026-04-06T15:44:29Z</time></trkpt><trkpt lat="37.06471509021335" lon="14.90451475709313"><ele>660.0</ele><time>2026-04-06T15:44:30Z</time></trkpt><trkpt lat="37.064699614679036" lon="14.904604709379457"><ele>660.0000000000001</ele><time>2026-04-06T15:44:31Z</time></trkpt><trkpt lat="37.06467543663695" lon="14.904695872179486"><ele>660.0</ele><time>2026-04-06T15:44:32Z</time></trkpt><trkpt lat="37.0646276960751" lon="14.90478242975558"><ele>658.8</ele><time>2026-04-06T15:44:33Z</time></trkpt><trkpt lat="37.06457447089704" lon="14.90486726842983"><ele>657.6</ele><time>2026-04-06T15:44:34Z</time></trkpt><trkpt lat="37.06450874340776" lon="14.904945644576346"><ele>656.4000000000001</ele><time>2026-04-06T15:44:35Z</time></trkpt><trkpt lat="37.06445814463227" lon="14.90504315599883"><ele>655.2</ele><time>2026-04-06T15:44:36Z</time></trkpt><trkpt lat="37.06440414242798" lon="14.905137563054186"><ele>654.0</ele><time>2026-04-06T15:44:37Z</time></trkpt><trkpt lat="37.06435245566689" lon="14.90523997975165"><ele>653.6666666666666</ele><time>2026-04-06T15:44:38Z</time></trkpt><trkpt lat="37.06432731279823" lon="14.905355369669639"><ele>653.3333333333334</ele><time>2026-04-06T15:44:39Z</time></trkpt><trkpt lat="37.064302383337825" lon="14.90546457868156"><ele>653.0</ele><time>2026-04-06T15:44:40Z</time></trkpt><trkpt lat="37.064287088423086" lon="14.905574875688227"><ele>652.6666666666667</ele><time>2026-04-06T15:44:41Z</time></trkpt><trkpt lat="37.06428339139589" lon="14.905683511875889"><ele>652.3333333333334</ele><time>2026-04-06T15:44:42Z</time></trkpt><trkpt lat="37.06427850299811" lon="14.905787097084021"><ele>652.0</ele><time>2026-04-06T15:44:43Z</time></trkpt><trkpt lat="37.064267282468776" lon="14.905891720919794"><ele>650.8333333333334</ele><time>2026-04-06T15:44:44Z</time></trkpt><trkpt lat="37.06426201592433" lon="14.90599441903705"><ele>649.6666666666667</ele><time>2026-04-06T15:44:45Z</time></trkpt><trkpt lat="37.06425654513662" lon="14.906093235334325"><ele>648.5</ele><time>2026-04-06T15:44:46Z</time></trkpt><trkpt lat="37.06424956292513" lon="14.906194417915824"><ele>647.3333333333334</ele><time>2026-04-06T15:44:47Z</time></trkpt><trkpt lat="37.06424194029828" lon="14.906295181635134"><ele>646.1666666666666</ele><time>2026-04-06T15:44:48Z</time></trkpt><trkpt lat="37.06423430776305" lon="14.90639192172456"><ele>645.0</ele><time>2026-04-06T15:44:49Z</time></trkpt><trkpt lat="37.06420813699729" lon="14.906484174131933"><ele>645.0</ele><time>2026-04-06T15:44:50Z</time></trkpt><trkpt lat="37.06416311684136" lon="14.906558192281459"><ele>645.0</ele><time>2026-04-06T15:44:51Z</time></trkpt><trkpt lat="37.06411028420463" lon="14.906619037293519"><ele>645.0</ele><time>2026-04-06T15:44:52Z</time></trkpt><trkpt lat="37.064046250865815" lon="14.906678126315203"><ele>645.0</ele><time>2026-04-06T15:44:53Z</time></trkpt><trkpt lat="37.06398607036815" lon="14.906745838210895"><ele>645.0</ele><time>2026-04-06T15:44:54Z</time></trkpt><trkpt lat="37.063927237267336" lon="14.906817500097299"><ele>645.0</ele><time>2026-04-06T15:44:55Z</time></trkpt><trkpt lat="37.06387073074987" lon="14.906888864448506"><ele>646.0</ele><time>2026-04-06T15:44:56Z</time></trkpt><trkpt lat="37.063808959366256" lon="14.906950030687291"><ele>647.0</ele><time>2026-04-06T15:44:57Z</time></trkpt><trkpt lat="37.06374950815396" lon="14.907007622474758"><ele>648.0</ele><time>2026-04-06T15:44:58Z</time></trkpt><trkpt lat="37.06369811054678" lon="14.907068347039546"><ele>649.0</ele><time>2026-04-06T15:44:59Z</time></trkpt><trkpt lat="37.06362167173618" lon="14.907172477242325"><ele>650.0</ele><time>2026-04-06T15:45:01Z</time></trkpt><trkpt lat="37.06352738513247" lon="14.907234680379089"><ele>651.0</ele><time>2026-04-06T15:45:03Z</time></trkpt><trkpt lat="37.06339936032616" lon="14.907231558822142"><ele>651.0</ele><time>2026-04-06T15:45:05Z</time></trkpt><trkpt lat="37.063325687479775" lon="14.907223485244103"><ele>651.0</ele><time>2026-04-06T15:45:06Z</time></trkpt><trkpt lat="37.063247447444255" lon="14.907208939504653"><ele>651.0</ele><time>2026-04-06T15:45:07Z</time></trkpt><trkpt lat="37.063165130408535" lon="14.907198232315542"><ele>651.0</ele><time>2026-04-06T15:45:08Z</time></trkpt><trkpt lat="37.063082447881555" lon="14.90718500990509"><ele>651.0</ele><time>2026-04-06T15:45:09Z</time></trkpt><trkpt lat="37.06300133585087" lon="14.907169741555723"><ele>651.0</ele><time>2026-04-06T15:45:10Z</time></trkpt><trkpt lat="37.06292501774528" lon="14.907154142789594"><ele>651.0</ele><time>2026-04-06T15:45:11Z</time></trkpt><trkpt lat="37.06284406589523" lon="14.907140987922656"><ele>651.0</ele><time>2026-04-06T15:45:12Z</time></trkpt><trkpt lat="37.062765929276274" lon="14.907124700846522"><ele>651.0</ele><time>2026-04-06T15:45:13Z</time></trkpt><trkpt lat="37.06268411577441" lon="14.90712765347397"><ele>651.0</ele><time>2026-04-06T15:45:14Z</time></trkpt><trkpt lat="37.06260193897633" lon="14.90709966011102"><ele>651.0</ele><time>2026-04-06T15:45:15Z</time></trkpt><trkpt lat="37.06251589007252" lon="14.90709029256057"><ele>651.0</ele><time>2026-04-06T15:45:16Z</time></trkpt><trkpt lat="37.062427430464176" lon="14.907069119751464"><ele>651.0</ele><time>2026-04-06T15:45:17Z</time></trkpt><trkpt lat="37.06233578949477" lon="14.90705976439359"><ele>651.0</ele><time>2026-04-06T15:45:18Z</time></trkpt><trkpt lat="37.06224648602505" lon="14.907052180397091"><ele>651.0</ele><time>2026-04-06T15:45:19Z</time></trkpt><trkpt lat="37.06215962653098" lon="14.907037156861245"><ele>651.0</ele><time>2026-04-06T15:45:20Z</time></trkpt><trkpt lat="37.0620702926848" lon="14.907028601635215"><ele>651.0</ele><time>2026-04-06T15:45:21Z</time></trkpt><trkpt lat="37.061986777072406" lon="14.907011964019578"><ele>651.0</ele><time>2026-04-06T15:45:22Z</time></trkpt><trkpt lat="37.061899829569775" lon="14.90700474984337"><ele>651.0</ele><time>2026-04-06T15:45:23Z</time></trkpt><trkpt lat="37.06181256850168" lon="14.907000059025862"><ele>651.0</ele><time>2026-04-06T15:45:24Z</time></trkpt><trkpt lat="37.06172779212672" lon="14.906998425718944"><ele>651.0</ele><time>2026-04-06T15:45:25Z</time></trkpt><trkpt lat="37.06164207819006" lon="14.906994209256457"><ele>651.0</ele><time>2026-04-06T15:45:26Z</time></trkpt><trkpt lat="37.0615561578828" lon="14.90699034924003"><ele>651.0</ele><time>2026-04-06T15:45:27Z</time></trkpt><trkpt lat="37.06146981403226" lon="14.906984440094265"><ele>651.0</ele><time>2026-04-06T15:45:28Z</time></trkpt><trkpt lat="37.06138148304219" lon="14.906981502871563"><ele>651.8333333333334</ele><time>2026-04-06T15:45:29Z</time></trkpt><trkpt lat="37.06129342789908" lon="14.906980229323196"><ele>652.6666666666666</ele><time>2026-04-06T15:45:30Z</time></trkpt><trkpt lat="37.06120691609419" lon="14.906976603745923"><ele>653.5</ele><time>2026-04-06T15:45:31Z</time></trkpt><trkpt lat="37.061121174775195" lon="14.90696961156946"><ele>654.3333333333333</ele><time>2026-04-06T15:45:32Z</time></trkpt><trkpt lat="37.06104184423874" lon="14.906971234470296"><ele>655.1666666666666</ele><time>2026-04-06T15:45:33Z</time></trkpt><trkpt lat="37.06097163031856" lon="14.906965997479956"><ele>656.0</ele><time>2026-04-06T15:45:34Z</time></trkpt><trkpt lat="37.06090689136559" lon="14.90696627585445"><ele>656.0</ele><time>2026-04-06T15:45:35Z</time></trkpt><trkpt lat="37.06078897248429" lon="14.906959968327783"><ele>656.0</ele><time>2026-04-06T15:45:37Z</time></trkpt><trkpt lat="37.06067804863635" lon="14.906952101782641"><ele>656.0</ele><time>2026-04-06T15:45:39Z</time></trkpt><trkpt lat="37.06056091851609" lon="14.906943919072743"><ele>656.0</ele><time>2026-04-06T15:45:41Z</time></trkpt><trkpt lat="37.06045160079261" lon="14.90694262198017"><ele>657.4</ele><time>2026-04-06T15:45:43Z</time></trkpt><trkpt lat="37.060362063380154" lon="14.906917355533103"><ele>658.8</ele><time>2026-04-06T15:45:45Z</time></trkpt><trkpt lat="37.060272652555476" lon="14.906921732505541"><ele>660.1999999999999</ele><time>2026-04-06T15:45:47Z</time></trkpt><trkpt lat="37.06020021713706" lon="14.906864338933497"><ele>661.5999999999999</ele><time>2026-04-06T15:45:49Z</time></trkpt><trkpt lat="37.06008702869612" lon="14.906901363232606"><ele>663.0</ele><time>2026-04-06T15:45:53Z</time></trkpt><trkpt lat="37.059993751544575" lon="14.906904492919402"><ele>662.9999999999999</ele><time>2026-04-06T15:45:55Z</time></trkpt><trkpt lat="37.059941679552566" lon="14.907022952944097"><ele>663.0</ele><time>2026-04-06T15:45:58Z</time></trkpt><trkpt lat="37.05992252913654" lon="14.907098517846396"><ele>663.0</ele><time>2026-04-06T15:45:59Z</time></trkpt><trkpt lat="37.05990760251049" lon="14.907190164315907"><ele>663.0</ele><time>2026-04-06T15:46:00Z</time></trkpt><trkpt lat="37.05990539741858" lon="14.907281018959875"><ele>663.0</ele><time>2026-04-06T15:46:01Z</time></trkpt><trkpt lat="37.05989529096599" lon="14.907364836695496"><ele>662.9999999999999</ele><time>2026-04-06T15:46:02Z</time></trkpt><trkpt lat="37.059883272191584" lon="14.907442345258369"><ele>663.0</ele><time>2026-04-06T15:46:03Z</time></trkpt><trkpt lat="37.05985211713367" lon="14.907588923139352"><ele>663.0</ele><time>2026-04-06T15:46:05Z</time></trkpt><trkpt lat="37.0598364934808" lon="14.90767231147445"><ele>663.0</ele><time>2026-04-06T15:46:06Z</time></trkpt><trkpt lat="37.059823586053184" lon="14.907763115880114"><ele>663.0</ele><time>2026-04-06T15:46:07Z</time></trkpt><trkpt lat="37.05981071468414" lon="14.907854671543843"><ele>663.0</ele><time>2026-04-06T15:46:08Z</time></trkpt><trkpt lat="37.059794770226574" lon="14.907949512060503"><ele>663.0</ele><time>2026-04-06T15:46:09Z</time></trkpt><trkpt lat="37.05977403966422" lon="14.908046254671278"><ele>663.0</ele><time>2026-04-06T15:46:10Z</time></trkpt><trkpt lat="37.05975402762372" lon="14.908143038448568"><ele>663.0</ele><time>2026-04-06T15:46:11Z</time></trkpt><trkpt lat="37.05973359009351" lon="14.908238775488307"><ele>663.0</ele><time>2026-04-06T15:46:12Z</time></trkpt><trkpt lat="37.0597070586292" lon="14.90833259279131"><ele>663.0</ele><time>2026-04-06T15:46:13Z</time></trkpt><trkpt lat="37.05968777103158" lon="14.90842987779652"><ele>663.0</ele><time>2026-04-06T15:46:14Z</time></trkpt><trkpt lat="37.05966060544545" lon="14.908526185750825"><ele>663.0</ele><time>2026-04-06T15:46:15Z</time></trkpt><trkpt lat="37.05962893726932" lon="14.9086261133252"><ele>663.0</ele><time>2026-04-06T15:46:16Z</time></trkpt><trkpt lat="37.059600592636784" lon="14.908729466533755"><ele>662.4</ele><time>2026-04-06T15:46:17Z</time></trkpt><trkpt lat="37.05957662343486" lon="14.908835119697383"><ele>661.8</ele><time>2026-04-06T15:46:18Z</time></trkpt><trkpt lat="37.05955648197835" lon="14.908947559246842"><ele>661.2</ele><time>2026-04-06T15:46:19Z</time></trkpt><trkpt lat="37.059539072710535" lon="14.909063284485514"><ele>660.6</ele><time>2026-04-06T15:46:20Z</time></trkpt><trkpt lat="37.059519859298234" lon="14.909178377578392"><ele>660.0</ele><time>2026-04-06T15:46:21Z</time></trkpt><trkpt lat="37.059499798854766" lon="14.909299519641882"><ele>659.5</ele><time>2026-04-06T15:46:22Z</time></trkpt><trkpt lat="37.05947630130248" lon="14.909417466397993"><ele>659.0</ele><time>2026-04-06T15:46:23Z</time></trkpt><trkpt lat="37.059447756090314" lon="14.909516205139106"><ele>658.5</ele><time>2026-04-06T15:46:24Z</time></trkpt><trkpt lat="37.05942578791283" lon="14.909614626415781"><ele>658.0</ele><time>2026-04-06T15:46:25Z</time></trkpt><trkpt lat="37.05940795254946" lon="14.909721058235817"><ele>657.5</ele><time>2026-04-06T15:46:26Z</time></trkpt><trkpt lat="37.05938866437393" lon="14.909833918208077"><ele>657.0</ele><time>2026-04-06T15:46:27Z</time></trkpt><trkpt lat="37.05936754742379" lon="14.90993070998272"><ele>657.0</ele><time>2026-04-06T15:46:28Z</time></trkpt><trkpt lat="37.05934972210256" lon="14.910027167187243"><ele>657.0</ele><time>2026-04-06T15:46:29Z</time></trkpt><trkpt lat="37.05933007087934" lon="14.910120600279203"><ele>657.0</ele><time>2026-04-06T15:46:30Z</time></trkpt><trkpt lat="37.059314955704366" lon="14.910204328242152"><ele>657.0</ele><time>2026-04-06T15:46:31Z</time></trkpt><trkpt lat="37.05928500490171" lon="14.910334143230738"><ele>657.0</ele><time>2026-04-06T15:46:33Z</time></trkpt><trkpt lat="37.05927941829373" lon="14.91041565163714"><ele>657.0</ele><time>2026-04-06T15:46:38Z</time></trkpt><trkpt lat="37.059430169811556" lon="14.910451384535918"><ele>656.6666666666666</ele><time>2026-04-06T15:46:40Z</time></trkpt><trkpt lat="37.05948408818986" lon="14.910501912452219"><ele>656.3333333333334</ele><time>2026-04-06T15:46:44Z</time></trkpt><trkpt lat="37.05943216041044" lon="14.910624711136578"><ele>656.0</ele><time>2026-04-06T15:46:45Z</time></trkpt><trkpt lat="37.059424096403035" lon="14.910725393447466"><ele>655.6666666666667</ele><time>2026-04-06T15:46:46Z</time></trkpt><trkpt lat="37.05940640689719" lon="14.91081927537174"><ele>655.3333333333334</ele><time>2026-04-06T15:46:47Z</time></trkpt><trkpt lat="37.059385131875146" lon="14.910924231107131"><ele>655.0</ele><time>2026-04-06T15:46:48Z</time></trkpt><trkpt lat="37.059363248968246" lon="14.91105301728709"><ele>654.2</ele><time>2026-04-06T15:46:49Z</time></trkpt><trkpt lat="37.05933858230636" lon="14.911174450874073"><ele>653.4</ele><time>2026-04-06T15:46:50Z</time></trkpt><trkpt lat="37.05931503679538" lon="14.911297188038075"><ele>652.5999999999999</ele><time>2026-04-06T15:46:51Z</time></trkpt><trkpt lat="37.059296130573706" lon="14.9114234380887"><ele>651.8</ele><time>2026-04-06T15:46:52Z</time></trkpt><trkpt lat="37.059258827159496" lon="14.911546117254472"><ele>651.0</ele><time>2026-04-06T15:46:53Z</time></trkpt><trkpt lat="37.05924878634942" lon="14.911678271689677"><ele>650.1999999999999</ele><time>2026-04-06T15:46:54Z</time></trkpt><trkpt lat="37.05922313297398" lon="14.911808185874062"><ele>649.4</ele><time>2026-04-06T15:46:55Z</time></trkpt><trkpt lat="37.05919874254719" lon="14.911937245749414"><ele>648.6</ele><time>2026-04-06T15:46:56Z</time></trkpt><trkpt lat="37.05917428380297" lon="14.912064106614004"><ele>647.8</ele><time>2026-04-06T15:46:57Z</time></trkpt><trkpt lat="37.059153183379514" lon="14.91218561614625"><ele>647.0</ele><time>2026-04-06T15:46:58Z</time></trkpt><trkpt lat="37.0591302036611" lon="14.912302529930567"><ele>646.6</ele><time>2026-04-06T15:46:59Z</time></trkpt><trkpt lat="37.05910590856866" lon="14.912423708589746"><ele>646.2</ele><time>2026-04-06T15:47:00Z</time></trkpt><trkpt lat="37.05908986871471" lon="14.91254867629922"><ele>645.8</ele><time>2026-04-06T15:47:01Z</time></trkpt><trkpt lat="37.05906093182416" lon="14.912681471471032"><ele>645.4</ele><time>2026-04-06T15:47:02Z</time></trkpt><trkpt lat="37.0590749851624" lon="14.912827691573927"><ele>645.0</ele><time>2026-04-06T15:47:03Z</time></trkpt><trkpt lat="37.05909782409582" lon="14.912973939948191"><ele>644.0</ele><time>2026-04-06T15:47:04Z</time></trkpt><trkpt lat="37.05912610744863" lon="14.913124148670425"><ele>643.0</ele><time>2026-04-06T15:47:05Z</time></trkpt><trkpt lat="37.059167924079524" lon="14.913271032367604"><ele>642.0</ele><time>2026-04-06T15:47:06Z</time></trkpt><trkpt lat="37.05917641556533" lon="14.913423553425655"><ele>641.0</ele><time>2026-04-06T15:47:07Z</time></trkpt><trkpt lat="37.059201570402394" lon="14.913579973080484"><ele>639.75</ele><time>2026-04-06T15:47:08Z</time></trkpt><trkpt lat="37.059229551248414" lon="14.91374227845029"><ele>638.5</ele><time>2026-04-06T15:47:09Z</time></trkpt><trkpt lat="37.0592620762884" lon="14.913909042541018"><ele>637.25</ele><time>2026-04-06T15:47:10Z</time></trkpt><trkpt lat="37.059308490438404" lon="14.914072497649622"><ele>636.0</ele><time>2026-04-06T15:47:11Z</time></trkpt><trkpt lat="37.059322052949845" lon="14.914239444352662"><ele>634.75</ele><time>2026-04-06T15:47:12Z</time></trkpt><trkpt lat="37.059348423933564" lon="14.914392049528352"><ele>633.5</ele><time>2026-04-06T15:47:13Z</time></trkpt><trkpt lat="37.059382565496996" lon="14.914532969280051"><ele>632.25</ele><time>2026-04-06T15:47:14Z</time></trkpt><trkpt lat="37.059391819449736" lon="14.914668556246392"><ele>631.0</ele><time>2026-04-06T15:47:15Z</time></trkpt><trkpt lat="37.059390656312324" lon="14.914793870904008"><ele>631.0</ele><time>2026-04-06T15:47:16Z</time></trkpt><trkpt lat="37.05941850677624" lon="14.914893183909895"><ele>631.0</ele><time>2026-04-06T15:47:17Z</time></trkpt><trkpt lat="37.05933729522708" lon="14.914998238239349"><ele>631.0</ele><time>2026-04-06T15:47:18Z</time></trkpt><trkpt lat="37.05928368156606" lon="14.91507284854932"><ele>631.0</ele><time>2026-04-06T15:47:19Z</time></trkpt><trkpt lat="37.059208626099114" lon="14.915126439781297"><ele>631.0</ele><time>2026-04-06T15:47:20Z</time></trkpt><trkpt lat="37.05912430879878" lon="14.915156540391575"><ele>630.6</ele><time>2026-04-06T15:47:21Z</time></trkpt><trkpt lat="37.0590379859865" lon="14.915185307944352"><ele>630.2</ele><time>2026-04-06T15:47:22Z</time></trkpt><trkpt lat="37.05895106344917" lon="14.915194720861988"><ele>629.8</ele><time>2026-04-06T15:47:23Z</time></trkpt><trkpt lat="37.058858074614996" lon="14.915074117484128"><ele>629.4</ele><time>2026-04-06T15:47:24Z</time></trkpt><trkpt lat="37.05876733244422" lon="14.914995683838951"><ele>629.0</ele><time>2026-04-06T15:47:25Z</time></trkpt><trkpt lat="37.0586743146766" lon="14.914912958450602"><ele>629.0</ele><time>2026-04-06T15:47:26Z</time></trkpt><trkpt lat="37.05858543142067" lon="14.914837891925725"><ele>629.0</ele><time>2026-04-06T15:47:27Z</time></trkpt><trkpt lat="37.05849630477623" lon="14.914770059955766"><ele>629.0</ele><time>2026-04-06T15:47:28Z</time></trkpt><trkpt lat="37.05840276188469" lon="14.91472757278119"><ele>629.0</ele><time>2026-04-06T15:47:29Z</time></trkpt><trkpt lat="37.05830890174095" lon="14.914713381569445"><ele>629.0</ele><time>2026-04-06T15:47:30Z</time></trkpt><trkpt lat="37.058218995868174" lon="14.914735129581604"><ele>627.6</ele><time>2026-04-06T15:47:31Z</time></trkpt><trkpt lat="37.05814145443066" lon="14.914786194780461"><ele>626.2</ele><time>2026-04-06T15:47:32Z</time></trkpt><trkpt lat="37.05808301878881" lon="14.914868835730914"><ele>624.8000000000001</ele><time>2026-04-06T15:47:33Z</time></trkpt><trkpt lat="37.0580332352467" lon="14.914953406537554"><ele>623.4</ele><time>2026-04-06T15:47:34Z</time></trkpt><trkpt lat="37.0580339235567" lon="14.915052643393254"><ele>622.0</ele><time>2026-04-06T15:47:35Z</time></trkpt><trkpt lat="37.05802819019446" lon="14.915195112468723"><ele>617.4</ele><time>2026-04-06T15:47:37Z</time></trkpt><trkpt lat="37.05801877255369" lon="14.915311686371938"><ele>612.8000000000001</ele><time>2026-04-06T15:47:39Z</time></trkpt><trkpt lat="37.057975215773766" lon="14.915394237389274"><ele>608.2</ele><time>2026-04-06T15:47:41Z</time></trkpt><trkpt lat="37.05792585354902" lon="14.91549062176453"><ele>603.6</ele><time>2026-04-06T15:47:43Z</time></trkpt><trkpt lat="37.057832296176485" lon="14.915466537855497"><ele>599.0</ele><time>2026-04-06T15:47:44Z</time></trkpt><trkpt lat="37.05771175814558" lon="14.915503012291673"><ele>599.0</ele><time>2026-04-06T15:47:46Z</time></trkpt><trkpt lat="37.05765080174281" lon="14.915524121254613"><ele>599.0</ele><time>2026-04-06T15:47:47Z</time></trkpt><trkpt lat="37.057523701712924" lon="14.915565257896434"><ele>599.0</ele><time>2026-04-06T15:47:49Z</time></trkpt><trkpt lat="37.057454221930946" lon="14.91558668204951"><ele>599.0</ele><time>2026-04-06T15:47:50Z</time></trkpt><trkpt lat="37.05738156897744" lon="14.915611850440634"><ele>599.0</ele><time>2026-04-06T15:47:51Z</time></trkpt><trkpt lat="37.05730540589395" lon="14.915636346605043"><ele>599.0</ele><time>2026-04-06T15:47:52Z</time></trkpt><trkpt lat="37.05722590154167" lon="14.915659462004681"><ele>598.3333333333333</ele><time>2026-04-06T15:47:53Z</time></trkpt><trkpt lat="37.0571418217668" lon="14.915678545603658"><ele>597.6666666666666</ele><time>2026-04-06T15:47:54Z</time></trkpt><trkpt lat="37.05705654279948" lon="14.915695663185629"><ele>597.0</ele><time>2026-04-06T15:47:55Z</time></trkpt><trkpt lat="37.0569687884175" lon="14.915713959329265"><ele>596.3333333333334</ele><time>2026-04-06T15:47:56Z</time></trkpt><trkpt lat="37.05687962567835" lon="14.915734277532163"><ele>595.6666666666667</ele><time>2026-04-06T15:47:57Z</time></trkpt><trkpt lat="37.056788285721" lon="14.915757322217635"><ele>595.0</ele><time>2026-04-06T15:47:58Z</time></trkpt><trkpt lat="37.05668873309969" lon="14.915775879617179"><ele>595.6</ele><time>2026-04-06T15:47:59Z</time></trkpt><trkpt lat="37.0565850002921" lon="14.91579345199533"><ele>596.2</ele><time>2026-04-06T15:48:00Z</time></trkpt><trkpt lat="37.05648565295384" lon="14.91581419428029"><ele>596.8</ele><time>2026-04-06T15:48:01Z</time></trkpt><trkpt lat="37.056380542969855" lon="14.915842583344192"><ele>597.4</ele><time>2026-04-06T15:48:02Z</time></trkpt><trkpt lat="37.056265588908175" lon="14.915870386103528"><ele>598.0</ele><time>2026-04-06T15:48:03Z</time></trkpt><trkpt lat="37.05614418947893" lon="14.915896492568846"><ele>601.25</ele><time>2026-04-06T15:48:04Z</time></trkpt><trkpt lat="37.05601878491106" lon="14.915922281242006"><ele>604.5</ele><time>2026-04-06T15:48:05Z</time></trkpt><trkpt lat="37.055893645912775" lon="14.915950091199935"><ele>607.75</ele><time>2026-04-06T15:48:06Z</time></trkpt><trkpt lat="37.0557612417556" lon="14.915978514083855"><ele>611.0</ele><time>2026-04-06T15:48:07Z</time></trkpt><trkpt lat="37.0556325138718" lon="14.916007677000952"><ele>613.75</ele><time>2026-04-06T15:48:08Z</time></trkpt><trkpt lat="37.05550076480525" lon="14.91603340725234"><ele>616.5</ele><time>2026-04-06T15:48:09Z</time></trkpt><trkpt lat="37.055361196252214" lon="14.916064034506782"><ele>619.25</ele><time>2026-04-06T15:48:10Z</time></trkpt><trkpt lat="37.05521741833329" lon="14.91609456737562"><ele>622.0</ele><time>2026-04-06T15:48:11Z</time></trkpt><trkpt lat="37.05506944655092" lon="14.916123733101934"><ele>622.6666666666667</ele><time>2026-04-06T15:48:12Z</time></trkpt><trkpt lat="37.05491782955931" lon="14.916153840470823"><ele>623.3333333333334</ele><time>2026-04-06T15:48:13Z</time></trkpt><trkpt lat="37.05475667618058" lon="14.916189832800288"><ele>624.0</ele><time>2026-04-06T15:48:14Z</time></trkpt><trkpt lat="37.05460229731305" lon="14.916233461073109"><ele>624.0</ele><time>2026-04-06T15:48:15Z</time></trkpt><trkpt lat="37.05444159895131" lon="14.916284998777245"><ele>624.0</ele><time>2026-04-06T15:48:16Z</time></trkpt><trkpt lat="37.05427855305731" lon="14.91634580629924"><ele>624.0</ele><time>2026-04-06T15:48:17Z</time></trkpt><trkpt lat="37.054113723654" lon="14.916416213812603"><ele>625.6666666666666</ele><time>2026-04-06T15:48:18Z</time></trkpt><trkpt lat="37.0539499809775" lon="14.916496927209614"><ele>627.3333333333333</ele><time>2026-04-06T15:48:19Z</time></trkpt><trkpt lat="37.053781817064355" lon="14.9165894560069"><ele>629.0</ele><time>2026-04-06T15:48:20Z</time></trkpt><trkpt lat="37.0536199384088" lon="14.916691812180707"><ele>629.0</ele><time>2026-04-06T15:48:21Z</time></trkpt><trkpt lat="37.0534591235181" lon="14.916805436654936"><ele>629.0</ele><time>2026-04-06T15:48:22Z</time></trkpt><trkpt lat="37.05330283467979" lon="14.91692598540646"><ele>629.0</ele><time>2026-04-06T15:48:23Z</time></trkpt><trkpt lat="37.05315039392049" lon="14.917055970950267"><ele>631.3333333333333</ele><time>2026-04-06T15:48:24Z</time></trkpt><trkpt lat="37.05300558369848" lon="14.917196932333443"><ele>633.6666666666666</ele><time>2026-04-06T15:48:25Z</time></trkpt><trkpt lat="37.05286391299749" lon="14.917352305470088"><ele>636.0</ele><time>2026-04-06T15:48:26Z</time></trkpt><trkpt lat="37.052724434169924" lon="14.917511982488877"><ele>635.6666666666666</ele><time>2026-04-06T15:48:27Z</time></trkpt><trkpt lat="37.05259782222073" lon="14.917687008655234"><ele>635.3333333333333</ele><time>2026-04-06T15:48:28Z</time></trkpt><trkpt lat="37.052474057745194" lon="14.91786267661539"><ele>635.0</ele><time>2026-04-06T15:48:29Z</time></trkpt><trkpt lat="37.052360016835024" lon="14.918044056518944"><ele>635.6666666666666</ele><time>2026-04-06T15:48:30Z</time></trkpt><trkpt lat="37.05225453112445" lon="14.918240098034893"><ele>636.3333333333334</ele><time>2026-04-06T15:48:31Z</time></trkpt><trkpt lat="37.05215574356097" lon="14.918440464867556"><ele>637.0</ele><time>2026-04-06T15:48:32Z</time></trkpt><trkpt lat="37.05204790195476" lon="14.91862943911172"><ele>637.0</ele><time>2026-04-06T15:48:33Z</time></trkpt><trkpt lat="37.05197743270894" lon="14.91884454534378"><ele>637.0</ele><time>2026-04-06T15:48:34Z</time></trkpt><trkpt lat="37.05189890800202" lon="14.91905198925766"><ele>637.0</ele><time>2026-04-06T15:48:35Z</time></trkpt><trkpt lat="37.051832597967596" lon="14.919261711950126"><ele>633.6666666666667</ele><time>2026-04-06T15:48:36Z</time></trkpt><trkpt lat="37.051759990593865" lon="14.919472637394382"><ele>630.3333333333334</ele><time>2026-04-06T15:48:37Z</time></trkpt><trkpt lat="37.051710529683625" lon="14.919688499091563"><ele>627.0</ele><time>2026-04-06T15:48:38Z</time></trkpt><trkpt lat="37.051671669845504" lon="14.91990447659598"><ele>626.0</ele><time>2026-04-06T15:48:39Z</time></trkpt><trkpt lat="37.05163821328967" lon="14.920120181232269"><ele>625.0</ele><time>2026-04-06T15:48:40Z</time></trkpt><trkpt lat="37.0516096818793" lon="14.920331049206322"><ele>624.0</ele><time>2026-04-06T15:48:41Z</time></trkpt><trkpt lat="37.051589422913764" lon="14.92055494527747"><ele>624.0</ele><time>2026-04-06T15:48:42Z</time></trkpt><trkpt lat="37.05155032290621" lon="14.920779863937529"><ele>624.0</ele><time>2026-04-06T15:48:43Z</time></trkpt><trkpt lat="37.05152932427286" lon="14.921020779951094"><ele>624.0</ele><time>2026-04-06T15:48:44Z</time></trkpt><trkpt lat="37.0515107055485" lon="14.92126798342473"><ele>626.6666666666666</ele><time>2026-04-06T15:48:45Z</time></trkpt><trkpt lat="37.051492076120084" lon="14.92151532865636"><ele>629.3333333333333</ele><time>2026-04-06T15:48:46Z</time></trkpt><trkpt lat="37.051473198920256" lon="14.921765963974737"><ele>632.0</ele><time>2026-04-06T15:48:47Z</time></trkpt><trkpt lat="37.05145390627248" lon="14.922021869716913"><ele>633.3333333333333</ele><time>2026-04-06T15:48:48Z</time></trkpt><trkpt lat="37.05143421602616" lon="14.92228395733286"><ele>634.6666666666666</ele><time>2026-04-06T15:48:49Z</time></trkpt><trkpt lat="37.05141582094993" lon="14.922524928662906"><ele>636.0</ele><time>2026-04-06T15:48:50Z</time></trkpt><trkpt lat="37.051409117092795" lon="14.922772722419293"><ele>636.6666666666666</ele><time>2026-04-06T15:48:51Z</time></trkpt><trkpt lat="37.05139037273524" lon="14.923021844902703"><ele>637.3333333333333</ele><time>2026-04-06T15:48:52Z</time></trkpt><trkpt lat="37.051357173862094" lon="14.923275813317963"><ele>638.0</ele><time>2026-04-06T15:48:53Z</time></trkpt><trkpt lat="37.05133669002359" lon="14.92353410152697"><ele>638.6666666666666</ele><time>2026-04-06T15:48:54Z</time></trkpt><trkpt lat="37.05131609172395" lon="14.923793832369263"><ele>639.3333333333334</ele><time>2026-04-06T15:48:55Z</time></trkpt><trkpt lat="37.05129586763428" lon="14.924048844494209"><ele>640.0</ele><time>2026-04-06T15:48:56Z</time></trkpt><trkpt lat="37.05127483056602" lon="14.924314108284882"><ele>640.0</ele><time>2026-04-06T15:48:57Z</time></trkpt><trkpt lat="37.05126953760412" lon="14.924581161530472"><ele>640.0</ele><time>2026-04-06T15:48:58Z</time></trkpt><trkpt lat="37.05124813020139" lon="14.92484913579386"><ele>640.0</ele><time>2026-04-06T15:48:59Z</time></trkpt><trkpt lat="37.051211618331074" lon="14.925121487653392"><ele>639.0</ele><time>2026-04-06T15:49:00Z</time></trkpt><trkpt lat="37.051189860527636" lon="14.925399467532403"><ele>638.0</ele><time>2026-04-06T15:49:01Z</time></trkpt><trkpt lat="37.05117057609627" lon="14.925667090379468"><ele>637.0</ele><time>2026-04-06T15:49:02Z</time></trkpt><trkpt lat="37.05116615962261" lon="14.925932688166135"><ele>635.0</ele><time>2026-04-06T15:49:03Z</time></trkpt><trkpt lat="37.05114028237856" lon="14.926179379875432"><ele>633.0</ele><time>2026-04-06T15:49:04Z</time></trkpt><trkpt lat="37.05112203434638" lon="14.926416986653615"><ele>631.0</ele><time>2026-04-06T15:49:05Z</time></trkpt><trkpt lat="37.05110482539588" lon="14.92666187302643"><ele>629.3333333333334</ele><time>2026-04-06T15:49:06Z</time></trkpt><trkpt lat="37.05108606890768" lon="14.926911037070477"><ele>627.6666666666666</ele><time>2026-04-06T15:49:07Z</time></trkpt><trkpt lat="37.05106813820703" lon="14.927167492067655"><ele>626.0</ele><time>2026-04-06T15:49:08Z</time></trkpt><trkpt lat="37.051048128496035" lon="14.927428194953668"><ele>625.0</ele><time>2026-04-06T15:49:09Z</time></trkpt><trkpt lat="37.05102580765626" lon="14.927698888930223"><ele>624.0</ele><time>2026-04-06T15:49:10Z</time></trkpt><trkpt lat="37.05100499800969" lon="14.927971882876047"><ele>623.0</ele><time>2026-04-06T15:49:11Z</time></trkpt><trkpt lat="37.0509822766702" lon="14.928247575606763"><ele>622.0</ele><time>2026-04-06T15:49:12Z</time></trkpt><trkpt lat="37.05095963065247" lon="14.928525427803807"><ele>621.0</ele><time>2026-04-06T15:49:13Z</time></trkpt><trkpt lat="37.05093488213957" lon="14.928812609635745"><ele>621.0</ele><time>2026-04-06T15:49:14Z</time></trkpt><trkpt lat="37.050909698653044" lon="14.929101989822481"><ele>621.0</ele><time>2026-04-06T15:49:15Z</time></trkpt><trkpt lat="37.05088316652116" lon="14.929404164922387"><ele>619.0</ele><time>2026-04-06T15:49:16Z</time></trkpt><trkpt lat="37.050865635770606" lon="14.929709368471913"><ele>617.0</ele><time>2026-04-06T15:49:17Z</time></trkpt><trkpt lat="37.0508436518889" lon="14.930012275479335"><ele>614.0</ele><time>2026-04-06T15:49:18Z</time></trkpt><trkpt lat="37.05081789923507" lon="14.930313149799593"><ele>611.0</ele><time>2026-04-06T15:49:19Z</time></trkpt><trkpt lat="37.05079440111327" lon="14.930616827281371"><ele>608.0</ele><time>2026-04-06T15:49:20Z</time></trkpt><trkpt lat="37.050771663095155" lon="14.930914654754137"><ele>605.0</ele><time>2026-04-06T15:49:21Z</time></trkpt><trkpt lat="37.05074650898293" lon="14.93121539784105"><ele>605.0</ele><time>2026-04-06T15:49:22Z</time></trkpt><trkpt lat="37.050718864451916" lon="14.931515725584386"><ele>605.0</ele><time>2026-04-06T15:49:23Z</time></trkpt><trkpt lat="37.05068156223258" lon="14.931801458074798"><ele>602.0</ele><time>2026-04-06T15:49:24Z</time></trkpt><trkpt lat="37.05064139491653" lon="14.932092423501771"><ele>599.0</ele><time>2026-04-06T15:49:25Z</time></trkpt><trkpt lat="37.05059272221081" lon="14.932382827225064"><ele>596.5</ele><time>2026-04-06T15:49:26Z</time></trkpt><trkpt lat="37.050537392493155" lon="14.932668653738006"><ele>594.0</ele><time>2026-04-06T15:49:27Z</time></trkpt><trkpt lat="37.05047213538429" lon="14.932952016926327"><ele>594.0</ele><time>2026-04-06T15:49:28Z</time></trkpt><trkpt lat="37.05039925871728" lon="14.93323205819901"><ele>594.0</ele><time>2026-04-06T15:49:29Z</time></trkpt><trkpt lat="37.05032029954332" lon="14.933515762899377"><ele>591.5</ele><time>2026-04-06T15:49:30Z</time></trkpt><trkpt lat="37.05023877162335" lon="14.933800332203543"><ele>589.0</ele><time>2026-04-06T15:49:31Z</time></trkpt><trkpt lat="37.05015147639568" lon="14.9340881199522"><ele>588.0</ele><time>2026-04-06T15:49:32Z</time></trkpt><trkpt lat="37.050058851375184" lon="14.934375999920515"><ele>587.0</ele><time>2026-04-06T15:49:33Z</time></trkpt><trkpt lat="37.04996665065762" lon="14.93466660119897"><ele>585.5</ele><time>2026-04-06T15:49:34Z</time></trkpt><trkpt lat="37.04987265873641" lon="14.934959289954186"><ele>584.0</ele><time>2026-04-06T15:49:35Z</time></trkpt><trkpt lat="37.049777142151505" lon="14.935250553641486"><ele>582.5</ele><time>2026-04-06T15:49:36Z</time></trkpt><trkpt lat="37.04968117697365" lon="14.935545270167816"><ele>581.0</ele><time>2026-04-06T15:49:37Z</time></trkpt><trkpt lat="37.04958313479661" lon="14.935839119118649"><ele>581.0</ele><time>2026-04-06T15:49:38Z</time></trkpt><trkpt lat="37.04948287493924" lon="14.936140513386352"><ele>581.0</ele><time>2026-04-06T15:49:39Z</time></trkpt><trkpt lat="37.04938579361399" lon="14.936437449600637"><ele>580.0</ele><time>2026-04-06T15:49:40Z</time></trkpt><trkpt lat="37.04928442588594" lon="14.93673836864249"><ele>579.0</ele><time>2026-04-06T15:49:41Z</time></trkpt><trkpt lat="37.04918635595759" lon="14.937035550289506"><ele>577.0</ele><time>2026-04-06T15:49:42Z</time></trkpt><trkpt lat="37.04908534278614" lon="14.93733678471231"><ele>575.0</ele><time>2026-04-06T15:49:43Z</time></trkpt><trkpt lat="37.04898338897628" lon="14.93763500939706"><ele>575.0</ele><time>2026-04-06T15:49:44Z</time></trkpt><trkpt lat="37.0488862923286" lon="14.937931713383717"><ele>575.0</ele><time>2026-04-06T15:49:45Z</time></trkpt><trkpt lat="37.04879276587002" lon="14.938223916318371"><ele>574.0</ele><time>2026-04-06T15:49:46Z</time></trkpt><trkpt lat="37.04869620963215" lon="14.938515449148488"><ele>573.0</ele><time>2026-04-06T15:49:47Z</time></trkpt><trkpt lat="37.048600724946475" lon="14.93879550400722"><ele>573.0</ele><time>2026-04-06T15:49:48Z</time></trkpt><trkpt lat="37.04850645161609" lon="14.939074070701615"><ele>573.0</ele><time>2026-04-06T15:49:49Z</time></trkpt><trkpt lat="37.04841440534166" lon="14.939355021894597"><ele>574.0</ele><time>2026-04-06T15:49:50Z</time></trkpt><trkpt lat="37.048326250222345" lon="14.939630908999405"><ele>575.0</ele><time>2026-04-06T15:49:51Z</time></trkpt><trkpt lat="37.04823673461516" lon="14.939903684572982"><ele>571.5</ele><time>2026-04-06T15:49:52Z</time></trkpt><trkpt lat="37.048140746449384" lon="14.940173304832287"><ele>568.0</ele><time>2026-04-06T15:49:53Z</time></trkpt><trkpt lat="37.04804200611473" lon="14.940448246181488"><ele>568.0</ele><time>2026-04-06T15:49:54Z</time></trkpt><trkpt lat="37.04793822305569" lon="14.940723642043064"><ele>568.0</ele><time>2026-04-06T15:49:55Z</time></trkpt><trkpt lat="37.047831580804136" lon="14.941000633878254"><ele>568.0</ele><time>2026-04-06T15:49:56Z</time></trkpt><trkpt lat="37.04771656620814" lon="14.94127277615491"><ele>568.0</ele><time>2026-04-06T15:49:57Z</time></trkpt><trkpt lat="37.04758953715421" lon="14.941537738085282"><ele>563.5</ele><time>2026-04-06T15:49:58Z</time></trkpt><trkpt lat="37.04745490353159" lon="14.941800677432154"><ele>559.0</ele><time>2026-04-06T15:49:59Z</time></trkpt><trkpt lat="37.04731293327754" lon="14.942058599107531"><ele>559.0</ele><time>2026-04-06T15:50:00Z</time></trkpt><trkpt lat="37.04716513026115" lon="14.94231315688274"><ele>559.0</ele><time>2026-04-06T15:50:01Z</time></trkpt><trkpt lat="37.04701137919962" lon="14.942562405074487"><ele>559.5</ele><time>2026-04-06T15:50:02Z</time></trkpt><trkpt lat="37.04685244049845" lon="14.942808966618488"><ele>560.0</ele><time>2026-04-06T15:50:03Z</time></trkpt><trkpt lat="37.04669408422006" lon="14.94305612294406"><ele>560.0</ele><time>2026-04-06T15:50:04Z</time></trkpt><trkpt lat="37.04653300309198" lon="14.943299244730394"><ele>560.0</ele><time>2026-04-06T15:50:05Z</time></trkpt><trkpt lat="37.04636801218083" lon="14.943537444934451"><ele>559.0</ele><time>2026-04-06T15:50:06Z</time></trkpt><trkpt lat="37.046202530210955" lon="14.943775537762658"><ele>558.0</ele><time>2026-04-06T15:50:07Z</time></trkpt><trkpt lat="37.04603642002792" lon="14.944020321064587"><ele>557.5</ele><time>2026-04-06T15:50:08Z</time></trkpt><trkpt lat="37.04587764246251" lon="14.944268526013843"><ele>557.0</ele><time>2026-04-06T15:50:09Z</time></trkpt><trkpt lat="37.04571312997475" lon="14.944513172820471"><ele>556.0</ele><time>2026-04-06T15:50:10Z</time></trkpt><trkpt lat="37.045547359129685" lon="14.94475258807373"><ele>555.0</ele><time>2026-04-06T15:50:11Z</time></trkpt><trkpt lat="37.04538519039897" lon="14.944984833041417"><ele>555.0</ele><time>2026-04-06T15:50:12Z</time></trkpt><trkpt lat="37.04523252415266" lon="14.945207218098348"><ele>555.0</ele><time>2026-04-06T15:50:13Z</time></trkpt><trkpt lat="37.04508373821839" lon="14.945426378906738"><ele>555.5</ele><time>2026-04-06T15:50:14Z</time></trkpt><trkpt lat="37.044935677416305" lon="14.945650672756717"><ele>556.0</ele><time>2026-04-06T15:50:15Z</time></trkpt><trkpt lat="37.044789589056634" lon="14.945884203787555"><ele>555.0</ele><time>2026-04-06T15:50:16Z</time></trkpt><trkpt lat="37.044646369820825" lon="14.946129207629209"><ele>554.0</ele><time>2026-04-06T15:50:17Z</time></trkpt><trkpt lat="37.044507776272546" lon="14.946383207249825"><ele>554.0</ele><time>2026-04-06T15:50:18Z</time></trkpt><trkpt lat="37.04437773121694" lon="14.946646301355692"><ele>554.0</ele><time>2026-04-06T15:50:19Z</time></trkpt><trkpt lat="37.04425439520806" lon="14.946912062614716"><ele>553.5</ele><time>2026-04-06T15:50:20Z</time></trkpt><trkpt lat="37.04414266796498" lon="14.947190199729418"><ele>553.0</ele><time>2026-04-06T15:50:21Z</time></trkpt><trkpt lat="37.0440295371743" lon="14.947471292740065"><ele>552.0</ele><time>2026-04-06T15:50:22Z</time></trkpt><trkpt lat="37.043925129572386" lon="14.947759912807275"><ele>551.0</ele><time>2026-04-06T15:50:23Z</time></trkpt><trkpt lat="37.04382342855744" lon="14.94805251838062"><ele>551.0</ele><time>2026-04-06T15:50:24Z</time></trkpt><trkpt lat="37.04372609376464" lon="14.948349157586362"><ele>551.0</ele><time>2026-04-06T15:50:25Z</time></trkpt><trkpt lat="37.04363129345615" lon="14.9486471460078"><ele>550.5</ele><time>2026-04-06T15:50:26Z</time></trkpt><trkpt lat="37.043535107527354" lon="14.948952719274875"><ele>550.0</ele><time>2026-04-06T15:50:27Z</time></trkpt><trkpt lat="37.04344054266163" lon="14.949257618484092"><ele>549.5</ele><time>2026-04-06T15:50:28Z</time></trkpt><trkpt lat="37.04334822132264" lon="14.949561254951323"><ele>549.0</ele><time>2026-04-06T15:50:29Z</time></trkpt><trkpt lat="37.043253687218474" lon="14.949863631994816"><ele>548.0</ele><time>2026-04-06T15:50:30Z</time></trkpt><trkpt lat="37.04315838248859" lon="14.950157817171066"><ele>547.0</ele><time>2026-04-06T15:50:31Z</time></trkpt><trkpt lat="37.04306527815129" lon="14.950453963227483"><ele>547.0</ele><time>2026-04-06T15:50:32Z</time></trkpt><trkpt lat="37.042973175946784" lon="14.950746300136544"><ele>547.0</ele><time>2026-04-06T15:50:33Z</time></trkpt><trkpt lat="37.04288061791507" lon="14.951042168487824"><ele>547.0</ele><time>2026-04-06T15:50:34Z</time></trkpt><trkpt lat="37.04278507970351" lon="14.951340254498891"><ele>547.0</ele><time>2026-04-06T15:50:35Z</time></trkpt><trkpt lat="37.04268989160443" lon="14.951637911967614"><ele>546.5</ele><time>2026-04-06T15:50:36Z</time></trkpt><trkpt lat="37.04259251542538" lon="14.951938938515"><ele>546.0</ele><time>2026-04-06T15:50:37Z</time></trkpt><trkpt lat="37.04249246741005" lon="14.952240636437136"><ele>545.0</ele><time>2026-04-06T15:50:38Z</time></trkpt><trkpt lat="37.042392923030086" lon="14.952543860714231"><ele>544.0</ele><time>2026-04-06T15:50:39Z</time></trkpt><trkpt lat="37.0422926709297" lon="14.95284995654727"><ele>544.0</ele><time>2026-04-06T15:50:40Z</time></trkpt><trkpt lat="37.0421934084133" lon="14.953158042837792"><ele>544.0</ele><time>2026-04-06T15:50:41Z</time></trkpt><trkpt lat="37.0420923050677" lon="14.953469352159784"><ele>542.5</ele><time>2026-04-06T15:50:42Z</time></trkpt><trkpt lat="37.04199361992678" lon="14.953781800900016"><ele>541.0</ele><time>2026-04-06T15:50:43Z</time></trkpt><trkpt lat="37.04189466920435" lon="14.954090928701753"><ele>539.5</ele><time>2026-04-06T15:50:44Z</time></trkpt><trkpt lat="37.04179789460076" lon="14.954398479460222"><ele>538.0</ele><time>2026-04-06T15:50:45Z</time></trkpt><trkpt lat="37.04169956524716" lon="14.954709186509135"><ele>538.0</ele><time>2026-04-06T15:50:46Z</time></trkpt><trkpt lat="37.041599554570695" lon="14.955019233908768"><ele>538.0</ele><time>2026-04-06T15:50:47Z</time></trkpt><trkpt lat="37.04150040498861" lon="14.955328667172253"><ele>537.0</ele><time>2026-04-06T15:50:48Z</time></trkpt><trkpt lat="37.041402018194624" lon="14.955638569205162"><ele>536.0</ele><time>2026-04-06T15:50:49Z</time></trkpt><trkpt lat="37.04128768640172" lon="14.955941147908735"><ele>535.0</ele><time>2026-04-06T15:50:50Z</time></trkpt><trkpt lat="37.04120417640139" lon="14.956258087405804"><ele>534.0</ele><time>2026-04-06T15:50:51Z</time></trkpt><trkpt lat="37.04110684869721" lon="14.956557940370457"><ele>533.5</ele><time>2026-04-06T15:50:52Z</time></trkpt><trkpt lat="37.04101136665561" lon="14.956854642439128"><ele>533.0</ele><time>2026-04-06T15:50:53Z</time></trkpt><trkpt lat="37.0409149757134" lon="14.957146591039052"><ele>533.0</ele><time>2026-04-06T15:50:54Z</time></trkpt><trkpt lat="37.04081905188506" lon="14.957430752022335"><ele>533.0</ele><time>2026-04-06T15:50:55Z</time></trkpt><trkpt lat="37.04072438680282" lon="14.957716107410505"><ele>532.0</ele><time>2026-04-06T15:50:56Z</time></trkpt><trkpt lat="37.04063319175377" lon="14.957996378849792"><ele>531.0</ele><time>2026-04-06T15:50:57Z</time></trkpt><trkpt lat="37.04054497648794" lon="14.958276654332941"><ele>530.0</ele><time>2026-04-06T15:50:58Z</time></trkpt><trkpt lat="37.040462077856745" lon="14.958546941198264"><ele>529.0</ele><time>2026-04-06T15:50:59Z</time></trkpt><trkpt lat="37.04037495511063" lon="14.958819558171438"><ele>529.0</ele><time>2026-04-06T15:51:00Z</time></trkpt><trkpt lat="37.0402861961632" lon="14.959097166888837"><ele>529.0</ele><time>2026-04-06T15:51:01Z</time></trkpt><trkpt lat="37.040181981842174" lon="14.95937063071636"><ele>526.5</ele><time>2026-04-06T15:51:02Z</time></trkpt><trkpt lat="37.04009032358714" lon="14.959654295844757"><ele>524.0</ele><time>2026-04-06T15:51:03Z</time></trkpt><trkpt lat="37.039997433795655" lon="14.95994177235078"><ele>523.0</ele><time>2026-04-06T15:51:04Z</time></trkpt><trkpt lat="37.03990312209292" lon="14.960233649403996"><ele>522.0</ele><time>2026-04-06T15:51:05Z</time></trkpt><trkpt lat="37.03980743902491" lon="14.960529680106289"><ele>522.0</ele><time>2026-04-06T15:51:06Z</time></trkpt><trkpt lat="37.03971175172484" lon="14.960825588943772"><ele>522.0</ele><time>2026-04-06T15:51:07Z</time></trkpt><trkpt lat="37.03961425112207" lon="14.96112710534605"><ele>522.0</ele><time>2026-04-06T15:51:08Z</time></trkpt><trkpt lat="37.03951596526507" lon="14.96143105011057"><ele>522.0</ele><time>2026-04-06T15:51:09Z</time></trkpt><trkpt lat="37.039417435148934" lon="14.961735750243628"><ele>522.0</ele><time>2026-04-06T15:51:10Z</time></trkpt><trkpt lat="37.0393184818739" lon="14.962041431461559"><ele>522.0</ele><time>2026-04-06T15:51:11Z</time></trkpt><trkpt lat="37.039220080626315" lon="14.962347658627381"><ele>519.0</ele><time>2026-04-06T15:51:12Z</time></trkpt><trkpt lat="37.03912123432344" lon="14.962657119941746"><ele>516.0</ele><time>2026-04-06T15:51:13Z</time></trkpt><trkpt lat="37.03902226689194" lon="14.962966960476985"><ele>516.0</ele><time>2026-04-06T15:51:14Z</time></trkpt><trkpt lat="37.03892272485765" lon="14.963278119943547"><ele>516.0</ele><time>2026-04-06T15:51:15Z</time></trkpt><trkpt lat="37.038822987708016" lon="14.963589997996149"><ele>516.0</ele><time>2026-04-06T15:51:16Z</time></trkpt><trkpt lat="37.038722875636836" lon="14.963903235760316"><ele>516.0</ele><time>2026-04-06T15:51:17Z</time></trkpt><trkpt lat="37.038622047416865" lon="14.964217373702004"><ele>516.0</ele><time>2026-04-06T15:51:18Z</time></trkpt><trkpt lat="37.03852129785677" lon="14.964530695094805"><ele>516.0</ele><time>2026-04-06T15:51:19Z</time></trkpt><trkpt lat="37.03842019826388" lon="14.96484520496869"><ele>516.5</ele><time>2026-04-06T15:51:20Z</time></trkpt><trkpt lat="37.038319540413504" lon="14.965158657939313"><ele>517.0</ele><time>2026-04-06T15:51:21Z</time></trkpt><trkpt lat="37.03821899321297" lon="14.96547176634126"><ele>515.0</ele><time>2026-04-06T15:51:22Z</time></trkpt><trkpt lat="37.0381186634191" lon="14.965783970426294"><ele>513.0</ele><time>2026-04-06T15:51:23Z</time></trkpt><trkpt lat="37.03803050856037" lon="14.966102287998584"><ele>513.0</ele><time>2026-04-06T15:51:24Z</time></trkpt><trkpt lat="37.03792368334755" lon="14.966410053420232"><ele>513.0</ele><time>2026-04-06T15:51:25Z</time></trkpt><trkpt lat="37.03782089739185" lon="14.966719885726798"><ele>513.0</ele><time>2026-04-06T15:51:26Z</time></trkpt><trkpt lat="37.037724928607744" lon="14.967032812416406"><ele>513.0</ele><time>2026-04-06T15:51:27Z</time></trkpt><trkpt lat="37.03762883188088" lon="14.967343047591264"><ele>513.0</ele><time>2026-04-06T15:51:28Z</time></trkpt><trkpt lat="37.037531171696955" lon="14.967650127422193"><ele>513.0</ele><time>2026-04-06T15:51:29Z</time></trkpt><trkpt lat="37.03743276814087" lon="14.967958605056753"><ele>512.0</ele><time>2026-04-06T15:51:30Z</time></trkpt><trkpt lat="37.03723391791271" lon="14.968576629103595"><ele>512.0</ele><time>2026-04-06T15:51:32Z</time></trkpt><trkpt lat="37.03713669679551" lon="14.968884161029413"><ele>512.0</ele><time>2026-04-06T15:51:33Z</time></trkpt><trkpt lat="37.03702263067022" lon="14.969184838706074"><ele>511.5</ele><time>2026-04-06T15:51:34Z</time></trkpt><trkpt lat="37.0369239729995" lon="14.96949125888431"><ele>511.0</ele><time>2026-04-06T15:51:35Z</time></trkpt><trkpt lat="37.0368406658305" lon="14.969801301112255"><ele>510.5</ele><time>2026-04-06T15:51:36Z</time></trkpt><trkpt lat="37.03673946390344" lon="14.970102965488149"><ele>510.0</ele><time>2026-04-06T15:51:37Z</time></trkpt><trkpt lat="37.036638723670656" lon="14.970405054927733"><ele>510.5</ele><time>2026-04-06T15:51:38Z</time></trkpt><trkpt lat="37.03654437951846" lon="14.970705274304253"><ele>511.0</ele><time>2026-04-06T15:51:39Z</time></trkpt><trkpt lat="37.03645799591444" lon="14.971003310826886"><ele>510.33333333333337</ele><time>2026-04-06T15:51:40Z</time></trkpt><trkpt lat="37.03638626440231" lon="14.97127056940705"><ele>509.66666666666663</ele><time>2026-04-06T15:51:41Z</time></trkpt><trkpt lat="37.03632480075316" lon="14.97150583895014"><ele>509.0</ele><time>2026-04-06T15:51:42Z</time></trkpt><trkpt lat="37.03627214409249" lon="14.9717321938443"><ele>509.0</ele><time>2026-04-06T15:51:43Z</time></trkpt><trkpt lat="37.03624035005697" lon="14.97193791701815"><ele>509.0</ele><time>2026-04-06T15:51:44Z</time></trkpt><trkpt lat="37.03618912756018" lon="14.972159121912183"><ele>509.0</ele><time>2026-04-06T15:51:45Z</time></trkpt><trkpt lat="37.03614623415816" lon="14.972402463227125"><ele>508.3333333333333</ele><time>2026-04-06T15:51:46Z</time></trkpt><trkpt lat="37.03610664774118" lon="14.972658076267342"><ele>507.66666666666663</ele><time>2026-04-06T15:51:47Z</time></trkpt><trkpt lat="37.036065572581236" lon="14.972923302852822"><ele>507.0</ele><time>2026-04-06T15:51:48Z</time></trkpt><trkpt lat="37.03602309493018" lon="14.973197585551317"><ele>507.0</ele><time>2026-04-06T15:51:49Z</time></trkpt><trkpt lat="37.03598044366533" lon="14.973480195757832"><ele>507.0</ele><time>2026-04-06T15:51:50Z</time></trkpt><trkpt lat="37.03595607580219" lon="14.973781002136556"><ele>507.0</ele><time>2026-04-06T15:51:51Z</time></trkpt><trkpt lat="37.03591648345778" lon="14.97407017816876"><ele>507.0</ele><time>2026-04-06T15:51:52Z</time></trkpt><trkpt lat="37.035879155295625" lon="14.974369994143062"><ele>507.0</ele><time>2026-04-06T15:51:53Z</time></trkpt><trkpt lat="37.03583778634234" lon="14.974673609139883"><ele>507.0</ele><time>2026-04-06T15:51:54Z</time></trkpt><trkpt lat="37.03579322782249" lon="14.974984446395945"><ele>505.5</ele><time>2026-04-06T15:51:55Z</time></trkpt><trkpt lat="37.03574942281396" lon="14.975296683702002"><ele>504.0</ele><time>2026-04-06T15:51:56Z</time></trkpt><trkpt lat="37.03570660789623" lon="14.975608717133165"><ele>503.5</ele><time>2026-04-06T15:51:57Z</time></trkpt><trkpt lat="37.03566466042585" lon="14.975922797646113"><ele>503.0</ele><time>2026-04-06T15:51:58Z</time></trkpt><trkpt lat="37.03562287024148" lon="14.976238871408658"><ele>503.0</ele><time>2026-04-06T15:51:59Z</time></trkpt><trkpt lat="37.0355806790359" lon="14.9765584367323"><ele>503.0</ele><time>2026-04-06T15:52:00Z</time></trkpt><trkpt lat="37.03553954869" lon="14.976884403929704"><ele>502.5</ele><time>2026-04-06T15:52:01Z</time></trkpt><trkpt lat="37.03549996043792" lon="14.977212162782445"><ele>502.0</ele><time>2026-04-06T15:52:02Z</time></trkpt><trkpt lat="37.03546006796333" lon="14.977533098857537"><ele>502.0</ele><time>2026-04-06T15:52:03Z</time></trkpt><trkpt lat="37.03541729592856" lon="14.977846752124542"><ele>502.0</ele><time>2026-04-06T15:52:04Z</time></trkpt><trkpt lat="37.03537376218445" lon="14.9781546460178"><ele>502.5</ele><time>2026-04-06T15:52:05Z</time></trkpt><trkpt lat="37.03532977672556" lon="14.97845664295382"><ele>503.0</ele><time>2026-04-06T15:52:06Z</time></trkpt><trkpt lat="37.03528869670983" lon="14.978765926152732"><ele>503.0</ele><time>2026-04-06T15:52:07Z</time></trkpt><trkpt lat="37.035249062924684" lon="14.979084359106329"><ele>503.0</ele><time>2026-04-06T15:52:08Z</time></trkpt><trkpt lat="37.0352066494927" lon="14.979411845639392"><ele>503.0</ele><time>2026-04-06T15:52:09Z</time></trkpt><trkpt lat="37.035160071687706" lon="14.979744033147162"><ele>503.0</ele><time>2026-04-06T15:52:10Z</time></trkpt><trkpt lat="37.035107018832086" lon="14.980077976714158"><ele>503.0</ele><time>2026-04-06T15:52:11Z</time></trkpt><trkpt lat="37.035045497716155" lon="14.980413680080687"><ele>503.0</ele><time>2026-04-06T15:52:12Z</time></trkpt><trkpt lat="37.034971840482044" lon="14.980752973038925"><ele>505.0</ele><time>2026-04-06T15:52:13Z</time></trkpt><trkpt lat="37.034891107643446" lon="14.981089625121493"><ele>507.0</ele><time>2026-04-06T15:52:14Z</time></trkpt><trkpt lat="37.03480706965047" lon="14.981427064077357"><ele>505.5</ele><time>2026-04-06T15:52:15Z</time></trkpt><trkpt lat="37.034722330077884" lon="14.981761375843123"><ele>504.0</ele><time>2026-04-06T15:52:16Z</time></trkpt><trkpt lat="37.034635959028584" lon="14.982098293559044"><ele>504.0</ele><time>2026-04-06T15:52:17Z</time></trkpt><trkpt lat="37.03454820662343" lon="14.982434864466091"><ele>504.0</ele><time>2026-04-06T15:52:18Z</time></trkpt><trkpt lat="37.03446022622382" lon="14.982771904608594"><ele>501.0</ele><time>2026-04-06T15:52:19Z</time></trkpt><trkpt lat="37.03437039900165" lon="14.983108099950107"><ele>498.0</ele><time>2026-04-06T15:52:20Z</time></trkpt><trkpt lat="37.03427737137102" lon="14.983443814586428"><ele>497.5</ele><time>2026-04-06T15:52:21Z</time></trkpt><trkpt lat="37.03418436840595" lon="14.983780083965398"><ele>497.0</ele><time>2026-04-06T15:52:22Z</time></trkpt><trkpt lat="37.03409469654424" lon="14.984115955110434"><ele>497.5</ele><time>2026-04-06T15:52:23Z</time></trkpt><trkpt lat="37.03400603926802" lon="14.984453453987674"><ele>498.0</ele><time>2026-04-06T15:52:24Z</time></trkpt><trkpt lat="37.03391940896984" lon="14.984788898467174"><ele>497.5</ele><time>2026-04-06T15:52:25Z</time></trkpt><trkpt lat="37.03383577218995" lon="14.985126136494914"><ele>497.0</ele><time>2026-04-06T15:52:26Z</time></trkpt><trkpt lat="37.03375086796607" lon="14.985463325399225"><ele>497.0</ele><time>2026-04-06T15:52:27Z</time></trkpt><trkpt lat="37.03366313142949" lon="14.985798528581652"><ele>497.0</ele><time>2026-04-06T15:52:28Z</time></trkpt><trkpt lat="37.03357409576819" lon="14.98612866278786"><ele>498.0</ele><time>2026-04-06T15:52:29Z</time></trkpt><trkpt lat="37.03348141908377" lon="14.986452770131296"><ele>499.0</ele><time>2026-04-06T15:52:30Z</time></trkpt><trkpt lat="37.033381506200435" lon="14.98676600396188"><ele>498.0</ele><time>2026-04-06T15:52:31Z</time></trkpt><trkpt lat="37.03327115916437" lon="14.987072713964073"><ele>497.0</ele><time>2026-04-06T15:52:32Z</time></trkpt><trkpt lat="37.03314880036954" lon="14.987371164820992"><ele>497.0</ele><time>2026-04-06T15:52:33Z</time></trkpt><trkpt lat="37.03301366600158" lon="14.987658708384854"><ele>497.0</ele><time>2026-04-06T15:52:34Z</time></trkpt><trkpt lat="37.03287782047397" lon="14.987948397370836"><ele>497.0</ele><time>2026-04-06T15:52:35Z</time></trkpt><trkpt lat="37.032743968683675" lon="14.988238564619174"><ele>497.0</ele><time>2026-04-06T15:52:36Z</time></trkpt><trkpt lat="37.03261672542662" lon="14.988529224291668"><ele>498.0</ele><time>2026-04-06T15:52:37Z</time></trkpt><trkpt lat="37.032498758680596" lon="14.988821653406134"><ele>499.0</ele><time>2026-04-06T15:52:38Z</time></trkpt><trkpt lat="37.03239161559916" lon="14.989119010685195"><ele>495.0</ele><time>2026-04-06T15:52:39Z</time></trkpt><trkpt lat="37.0323054806805" lon="14.989418171677002"><ele>491.0</ele><time>2026-04-06T15:52:40Z</time></trkpt><trkpt lat="37.03224062481763" lon="14.989725888560343"><ele>491.0</ele><time>2026-04-06T15:52:41Z</time></trkpt><trkpt lat="37.032190410035675" lon="14.990033269696816"><ele>491.0</ele><time>2026-04-06T15:52:42Z</time></trkpt><trkpt lat="37.03215800471904" lon="14.990340757531058"><ele>491.0</ele><time>2026-04-06T15:52:43Z</time></trkpt><trkpt lat="37.03214835761044" lon="14.990656069208878"><ele>491.0</ele><time>2026-04-06T15:52:44Z</time></trkpt><trkpt lat="37.0321558115168" lon="14.990977216736091"><ele>491.5</ele><time>2026-04-06T15:52:45Z</time></trkpt><trkpt lat="37.032171448437396" lon="14.99130489969929"><ele>492.0</ele><time>2026-04-06T15:52:46Z</time></trkpt><trkpt lat="37.03218965072496" lon="14.991632534895736"><ele>493.0</ele><time>2026-04-06T15:52:47Z</time></trkpt><trkpt lat="37.03220850133185" lon="14.991963362451614"><ele>494.0</ele><time>2026-04-06T15:52:48Z</time></trkpt><trkpt lat="37.03222476633863" lon="14.99229564044351"><ele>495.0</ele><time>2026-04-06T15:52:49Z</time></trkpt><trkpt lat="37.032237459744586" lon="14.99262261877423"><ele>496.0</ele><time>2026-04-06T15:52:50Z</time></trkpt><trkpt lat="37.032253794734196" lon="14.992946057865263"><ele>496.0</ele><time>2026-04-06T15:52:51Z</time></trkpt><trkpt lat="37.03227300575174" lon="14.993267688866045"><ele>496.0</ele><time>2026-04-06T15:52:52Z</time></trkpt><trkpt lat="37.03229528264453" lon="14.993583891821741"><ele>496.5</ele><time>2026-04-06T15:52:53Z</time></trkpt><trkpt lat="37.03231440038029" lon="14.993900222738471"><ele>497.0</ele><time>2026-04-06T15:52:54Z</time></trkpt><trkpt lat="37.032322711186445" lon="14.994215257397382"><ele>497.5</ele><time>2026-04-06T15:52:55Z</time></trkpt><trkpt lat="37.032316220219904" lon="14.994525643442094"><ele>498.0</ele><time>2026-04-06T15:52:56Z</time></trkpt><trkpt lat="37.03229914531565" lon="14.99483677570224"><ele>496.5</ele><time>2026-04-06T15:52:57Z</time></trkpt><trkpt lat="37.032268180912965" lon="14.995139488227467"><ele>495.0</ele><time>2026-04-06T15:52:58Z</time></trkpt><trkpt lat="37.03221957491866" lon="14.995436531972832"><ele>495.0</ele><time>2026-04-06T15:52:59Z</time></trkpt><trkpt lat="37.032156048019274" lon="14.995727601332122"><ele>495.0</ele><time>2026-04-06T15:53:00Z</time></trkpt><trkpt lat="37.03207020444379" lon="14.996014224395147"><ele>494.5</ele><time>2026-04-06T15:53:01Z</time></trkpt><trkpt lat="37.03197396859359" lon="14.99630017390883"><ele>494.0</ele><time>2026-04-06T15:53:02Z</time></trkpt><trkpt lat="37.0318678779656" lon="14.9965832450087"><ele>495.0</ele><time>2026-04-06T15:53:03Z</time></trkpt><trkpt lat="37.03175564521569" lon="14.996865706037843"><ele>496.0</ele><time>2026-04-06T15:53:04Z</time></trkpt><trkpt lat="37.0316395140638" lon="14.9971496191103"><ele>493.0</ele><time>2026-04-06T15:53:05Z</time></trkpt><trkpt lat="37.03152125544471" lon="14.997433613381526"><ele>490.0</ele><time>2026-04-06T15:53:06Z</time></trkpt><trkpt lat="37.03139958921238" lon="14.997716217354492"><ele>490.0</ele><time>2026-04-06T15:53:07Z</time></trkpt><trkpt lat="37.03127651387491" lon="14.99799602987028"><ele>490.0</ele><time>2026-04-06T15:53:08Z</time></trkpt><trkpt lat="37.03114931599286" lon="14.998275179307225"><ele>491.5</ele><time>2026-04-06T15:53:09Z</time></trkpt><trkpt lat="37.03102147674355" lon="14.99855270940057"><ele>493.0</ele><time>2026-04-06T15:53:10Z</time></trkpt><trkpt lat="37.03088945829272" lon="14.998831322922443"><ele>488.0</ele><time>2026-04-06T15:53:11Z</time></trkpt><trkpt lat="37.030748820776644" lon="14.999102110425142"><ele>483.0</ele><time>2026-04-06T15:53:12Z</time></trkpt><trkpt lat="37.03059717352137" lon="14.99936646614639"><ele>483.0</ele><time>2026-04-06T15:53:13Z</time></trkpt><trkpt lat="37.03044166440417" lon="14.999627509231171"><ele>483.0</ele><time>2026-04-06T15:53:14Z</time></trkpt><trkpt lat="37.03028539033016" lon="14.99989183832686"><ele>483.0</ele><time>2026-04-06T15:53:15Z</time></trkpt><trkpt lat="37.030126129412494" lon="15.000155770746488"><ele>483.0</ele><time>2026-04-06T15:53:16Z</time></trkpt><trkpt lat="37.02996721535769" lon="15.000420382613425"><ele>481.5</ele><time>2026-04-06T15:53:17Z</time></trkpt><trkpt lat="37.02981143906038" lon="15.0006893128176"><ele>480.0</ele><time>2026-04-06T15:53:18Z</time></trkpt><trkpt lat="37.02965700688873" lon="15.000962935208179"><ele>480.0</ele><time>2026-04-06T15:53:19Z</time></trkpt><trkpt lat="37.02950173551827" lon="15.001236022450152"><ele>480.0</ele><time>2026-04-06T15:53:20Z</time></trkpt><trkpt lat="37.02934669160852" lon="15.001508301581653"><ele>480.0</ele><time>2026-04-06T15:53:21Z</time></trkpt><trkpt lat="37.02918921145531" lon="15.001778246434437"><ele>480.0</ele><time>2026-04-06T15:53:22Z</time></trkpt><trkpt lat="37.029026479650156" lon="15.002047332836232"><ele>478.0</ele><time>2026-04-06T15:53:23Z</time></trkpt><trkpt lat="37.02885595261745" lon="15.002309375237589"><ele>476.0</ele><time>2026-04-06T15:53:24Z</time></trkpt><trkpt lat="37.02868010647244" lon="15.002564438463976"><ele>476.0</ele><time>2026-04-06T15:53:25Z</time></trkpt><trkpt lat="37.0284975857409" lon="15.00281116515443"><ele>476.0</ele><time>2026-04-06T15:53:26Z</time></trkpt><trkpt lat="37.02831038897592" lon="15.003050743886568"><ele>474.5</ele><time>2026-04-06T15:53:27Z</time></trkpt><trkpt lat="37.02811602684807" lon="15.003276907157186"><ele>473.0</ele><time>2026-04-06T15:53:28Z</time></trkpt><trkpt lat="37.027912767332" lon="15.003495231923507"><ele>473.0</ele><time>2026-04-06T15:53:29Z</time></trkpt><trkpt lat="37.02770471732839" lon="15.003710670349976"><ele>473.0</ele><time>2026-04-06T15:53:30Z</time></trkpt><trkpt lat="37.02749133070217" lon="15.003921282969994"><ele>472.0</ele><time>2026-04-06T15:53:31Z</time></trkpt><trkpt lat="37.02727722909171" lon="15.004129517431243"><ele>471.0</ele><time>2026-04-06T15:53:32Z</time></trkpt><trkpt lat="37.027064420443246" lon="15.004335637836054"><ele>471.0</ele><time>2026-04-06T15:53:33Z</time></trkpt><trkpt lat="37.02685153079705" lon="15.0045399136967"><ele>471.0</ele><time>2026-04-06T15:53:34Z</time></trkpt><trkpt lat="37.02663719085552" lon="15.004747333230432"><ele>470.0</ele><time>2026-04-06T15:53:35Z</time></trkpt><trkpt lat="37.0264229536205" lon="15.004956409928054"><ele>469.0</ele><time>2026-04-06T15:53:36Z</time></trkpt><trkpt lat="37.02620451614782" lon="15.00516515670681"><ele>469.0</ele><time>2026-04-06T15:53:37Z</time></trkpt><trkpt lat="37.0259863783816" lon="15.005363171150984"><ele>469.0</ele><time>2026-04-06T15:53:38Z</time></trkpt><trkpt lat="37.02576367231466" lon="15.00554634396632"><ele>469.5</ele><time>2026-04-06T15:53:39Z</time></trkpt><trkpt lat="37.02553524294796" lon="15.005717512582562"><ele>470.0</ele><time>2026-04-06T15:53:40Z</time></trkpt><trkpt lat="37.025298437141565" lon="15.005878926463614"><ele>470.0</ele><time>2026-04-06T15:53:41Z</time></trkpt><trkpt lat="37.025060036192535" lon="15.006041172339618"><ele>470.0</ele><time>2026-04-06T15:53:42Z</time></trkpt><trkpt lat="37.02482234817683" lon="15.006202080412287"><ele>467.5</ele><time>2026-04-06T15:53:43Z</time></trkpt><trkpt lat="37.024582932228284" lon="15.006359948398472"><ele>465.0</ele><time>2026-04-06T15:53:44.001Z</time></trkpt><trkpt lat="37.02434413519062" lon="15.006516739118448"><ele>464.0</ele><time>2026-04-06T15:53:45Z</time></trkpt><trkpt lat="37.02410573857242" lon="15.00667491852093"><ele>463.0</ele><time>2026-04-06T15:53:46.001Z</time></trkpt><trkpt lat="37.0238655922599" lon="15.00683470903613"><ele>463.0</ele><time>2026-04-06T15:53:47.001Z</time></trkpt><trkpt lat="37.02362713904567" lon="15.00699247087612"><ele>463.0</ele><time>2026-04-06T15:53:48.001Z</time></trkpt><trkpt lat="37.02338730996827" lon="15.0071491705936"><ele>461.0</ele><time>2026-04-06T15:53:49.001Z</time></trkpt><trkpt lat="37.02314845314094" lon="15.007304480012301"><ele>459.0</ele><time>2026-04-06T15:53:50.001Z</time></trkpt><trkpt lat="37.022910168937436" lon="15.007459020781848"><ele>458.5</ele><time>2026-04-06T15:53:51.001Z</time></trkpt><trkpt lat="37.02267385011033" lon="15.007615358642019"><ele>458.0</ele><time>2026-04-06T15:53:52.001Z</time></trkpt><trkpt lat="37.0224414550309" lon="15.00777954719614"><ele>458.0</ele><time>2026-04-06T15:53:53.001Z</time></trkpt><trkpt lat="37.02221419118621" lon="15.007956547489364"><ele>458.0</ele><time>2026-04-06T15:53:54Z</time></trkpt><trkpt lat="37.021990684786275" lon="15.008138221815843"><ele>458.5</ele><time>2026-04-06T15:53:55Z</time></trkpt><trkpt lat="37.021774855572716" lon="15.00832781372224"><ele>459.0</ele><time>2026-04-06T15:53:56Z</time></trkpt><trkpt lat="37.02156365953784" lon="15.008526481756226"><ele>459.0</ele><time>2026-04-06T15:53:57Z</time></trkpt><trkpt lat="37.02135775093094" lon="15.008731019769218"><ele>459.0</ele><time>2026-04-06T15:53:58Z</time></trkpt><trkpt lat="37.02115383610005" lon="15.008936447599828"><ele>459.0</ele><time>2026-04-06T15:53:59Z</time></trkpt><trkpt lat="37.02095229492107" lon="15.00914011927895"><ele>459.0</ele><time>2026-04-06T15:54:00Z</time></trkpt><trkpt lat="37.020751468404995" lon="15.009345010015936"><ele>458.0</ele><time>2026-04-06T15:54:01Z</time></trkpt><trkpt lat="37.020550497166305" lon="15.009548446947042"><ele>457.0</ele><time>2026-04-06T15:54:02Z</time></trkpt><trkpt lat="37.02034752268315" lon="15.009750701985483"><ele>457.0</ele><time>2026-04-06T15:54:03Z</time></trkpt><trkpt lat="37.02014456885537" lon="15.009951167992899"><ele>457.0</ele><time>2026-04-06T15:54:04Z</time></trkpt><trkpt lat="37.019941318926435" lon="15.01015420965148"><ele>455.5</ele><time>2026-04-06T15:54:05Z</time></trkpt><trkpt lat="37.019734566806314" lon="15.010361810946986"><ele>454.0</ele><time>2026-04-06T15:54:06Z</time></trkpt><trkpt lat="37.01952675233616" lon="15.010571234575995"><ele>454.0</ele><time>2026-04-06T15:54:07Z</time></trkpt><trkpt lat="37.01931782682098" lon="15.010783733106015"><ele>454.0</ele><time>2026-04-06T15:54:08Z</time></trkpt><trkpt lat="37.01911048147172" lon="15.010996350161609"><ele>453.5</ele><time>2026-04-06T15:54:09Z</time></trkpt><trkpt lat="37.01890182524421" lon="15.011213149550294"><ele>453.0</ele><time>2026-04-06T15:54:10Z</time></trkpt><trkpt lat="37.01869546189269" lon="15.011428387268927"><ele>453.0</ele><time>2026-04-06T15:54:11Z</time></trkpt><trkpt lat="37.01848578514124" lon="15.011641396666022"><ele>453.0</ele><time>2026-04-06T15:54:12Z</time></trkpt><trkpt lat="37.018275982941574" lon="15.011852014947277"><ele>453.5</ele><time>2026-04-06T15:54:13Z</time></trkpt><trkpt lat="37.01806847639931" lon="15.012061945813608"><ele>454.0</ele><time>2026-04-06T15:54:14Z</time></trkpt><trkpt lat="37.01786279091451" lon="15.012266516462908"><ele>454.0</ele><time>2026-04-06T15:54:15Z</time></trkpt><trkpt lat="37.01765602287634" lon="15.012467813096748"><ele>454.0</ele><time>2026-04-06T15:54:16Z</time></trkpt><trkpt lat="37.01744684547221" lon="15.012663531235921"><ele>454.5</ele><time>2026-04-06T15:54:17Z</time></trkpt><trkpt lat="37.01723159874612" lon="15.012847894861686"><ele>455.0</ele><time>2026-04-06T15:54:18Z</time></trkpt><trkpt lat="37.01701099679903" lon="15.01301819646544"><ele>455.0</ele><time>2026-04-06T15:54:19Z</time></trkpt><trkpt lat="37.016784271771705" lon="15.013173778768483"><ele>455.0</ele><time>2026-04-06T15:54:20Z</time></trkpt><trkpt lat="37.01655182947219" lon="15.01331355787563"><ele>455.0</ele><time>2026-04-06T15:54:21Z</time></trkpt><trkpt lat="37.01631332467705" lon="15.013439097084262"><ele>455.0</ele><time>2026-04-06T15:54:22Z</time></trkpt><trkpt lat="37.01607564291847" lon="15.013537825241347"><ele>455.0</ele><time>2026-04-06T15:54:23Z</time></trkpt><trkpt lat="37.01583904859706" lon="15.01361640750934"><ele>455.0</ele><time>2026-04-06T15:54:24Z</time></trkpt><trkpt lat="37.015596114299875" lon="15.013667363029192"><ele>454.5</ele><time>2026-04-06T15:54:25Z</time></trkpt><trkpt lat="37.01534297231209" lon="15.013691597267297"><ele>454.0</ele><time>2026-04-06T15:54:26Z</time></trkpt><trkpt lat="37.015082030538515" lon="15.013702130501148"><ele>453.0</ele><time>2026-04-06T15:54:27Z</time></trkpt><trkpt lat="37.01481557162741" lon="15.013703280639342"><ele>452.0</ele><time>2026-04-06T15:54:28Z</time></trkpt><trkpt lat="37.01454475352119" lon="15.0136938604033"><ele>452.0</ele><time>2026-04-06T15:54:29Z</time></trkpt><trkpt lat="37.01427158291765" lon="15.013681674604772"><ele>452.0</ele><time>2026-04-06T15:54:30Z</time></trkpt><trkpt lat="37.01400732288389" lon="15.013665249675602"><ele>451.5</ele><time>2026-04-06T15:54:31Z</time></trkpt><trkpt lat="37.01373715380286" lon="15.013648323975058"><ele>451.0</ele><time>2026-04-06T15:54:32Z</time></trkpt><trkpt lat="37.01346899253574" lon="15.013632406087945"><ele>452.5</ele><time>2026-04-06T15:54:33Z</time></trkpt><trkpt lat="37.013201737474176" lon="15.013616434713633"><ele>454.0</ele><time>2026-04-06T15:54:34Z</time></trkpt><trkpt lat="37.01293570354728" lon="15.013598805774606"><ele>454.0</ele><time>2026-04-06T15:54:35Z</time></trkpt><trkpt lat="37.012673984615425" lon="15.013575034712026"><ele>454.0</ele><time>2026-04-06T15:54:36Z</time></trkpt><trkpt lat="37.01242583051634" lon="15.013554473837916"><ele>456.0</ele><time>2026-04-06T15:54:37Z</time></trkpt><trkpt lat="37.01218701877887" lon="15.013524703512527"><ele>458.0</ele><time>2026-04-06T15:54:38Z</time></trkpt><trkpt lat="37.01195941515347" lon="15.013481948025971"><ele>458.0</ele><time>2026-04-06T15:54:39Z</time></trkpt><trkpt lat="37.01173568411227" lon="15.013421292602972"><ele>458.0</ele><time>2026-04-06T15:54:40Z</time></trkpt><trkpt lat="37.011509547160756" lon="15.013348920127385"><ele>458.5</ele><time>2026-04-06T15:54:41Z</time></trkpt><trkpt lat="37.01127875129075" lon="15.013269286146121"><ele>459.0</ele><time>2026-04-06T15:54:42Z</time></trkpt><trkpt lat="37.01105263938221" lon="15.013179414887027"><ele>459.0</ele><time>2026-04-06T15:54:43Z</time></trkpt><trkpt lat="37.010830172975105" lon="15.013088003190639"><ele>459.0</ele><time>2026-04-06T15:54:44Z</time></trkpt><trkpt lat="37.01061155684408" lon="15.01299865537328"><ele>460.0</ele><time>2026-04-06T15:54:45Z</time></trkpt><trkpt lat="37.01041225708071" lon="15.012919112495904"><ele>461.0</ele><time>2026-04-06T15:54:46Z</time></trkpt><trkpt lat="37.01023295481259" lon="15.012846925904494"><ele>462.0</ele><time>2026-04-06T15:54:47Z</time></trkpt><trkpt lat="37.01008143150489" lon="15.012786967051072"><ele>461.0</ele><time>2026-04-06T15:54:48Z</time></trkpt><trkpt lat="37.00994891307946" lon="15.012741248605703"><ele>460.0</ele><time>2026-04-06T15:54:49Z</time></trkpt><trkpt lat="37.00983050751734" lon="15.012716755634266"><ele>459.0</ele><time>2026-04-06T15:54:50Z</time></trkpt><trkpt lat="37.009719311042296" lon="15.012754535935585"><ele>458.0</ele><time>2026-04-06T15:54:51Z</time></trkpt><trkpt lat="37.009595993430686" lon="15.012846820622686"><ele>458.0</ele><time>2026-04-06T15:54:52Z</time></trkpt><trkpt lat="37.00946996813512" lon="15.012966434242507"><ele>458.0</ele><time>2026-04-06T15:54:53Z</time></trkpt><trkpt lat="37.00934147960122" lon="15.013116822888291"><ele>458.0</ele><time>2026-04-06T15:54:54Z</time></trkpt><trkpt lat="37.00921666961993" lon="15.01329939644172"><ele>456.3333333333333</ele><time>2026-04-06T15:54:55Z</time></trkpt><trkpt lat="37.009088690565086" lon="15.013498277833618"><ele>454.66666666666663</ele><time>2026-04-06T15:54:56Z</time></trkpt><trkpt lat="37.008960119603216" lon="15.013696305299316"><ele>453.0</ele><time>2026-04-06T15:54:57Z</time></trkpt><trkpt lat="37.008836862200475" lon="15.013891885238806"><ele>453.0</ele><time>2026-04-06T15:54:58Z</time></trkpt><trkpt lat="37.008707955177236" lon="15.014097330413707"><ele>453.0</ele><time>2026-04-06T15:54:59Z</time></trkpt><trkpt lat="37.00858418832998" lon="15.0142907729387"><ele>453.0</ele><time>2026-04-06T15:55:00Z</time></trkpt><trkpt lat="37.00845672796762" lon="15.014464834122293"><ele>453.66666666666663</ele><time>2026-04-06T15:55:01Z</time></trkpt><trkpt lat="37.00830657689183" lon="15.014615284904572"><ele>454.3333333333333</ele><time>2026-04-06T15:55:02Z</time></trkpt><trkpt lat="37.008131409305236" lon="15.014745776993"><ele>455.0</ele><time>2026-04-06T15:55:03Z</time></trkpt><trkpt lat="37.00794409151413" lon="15.01486815647034"><ele>455.0</ele><time>2026-04-06T15:55:04Z</time></trkpt><trkpt lat="37.007751236661136" lon="15.014996619897312"><ele>455.0</ele><time>2026-04-06T15:55:05Z</time></trkpt><trkpt lat="37.00755630198633" lon="15.015129812045176"><ele>455.0</ele><time>2026-04-06T15:55:06Z</time></trkpt><trkpt lat="37.00735726262417" lon="15.015266815301047"><ele>455.0</ele><time>2026-04-06T15:55:07Z</time></trkpt><trkpt lat="37.00717136587255" lon="15.015398004156038"><ele>455.0</ele><time>2026-04-06T15:55:08Z</time></trkpt><trkpt lat="37.00699825043218" lon="15.015533900947837"><ele>455.0</ele><time>2026-04-06T15:55:09Z</time></trkpt><trkpt lat="37.00682972184747" lon="15.015686485274317"><ele>455.66666666666663</ele><time>2026-04-06T15:55:10Z</time></trkpt><trkpt lat="37.00666239989699" lon="15.015856848623658"><ele>456.33333333333337</ele><time>2026-04-06T15:55:11Z</time></trkpt><trkpt lat="37.00649283443068" lon="15.01603663104543"><ele>457.0</ele><time>2026-04-06T15:55:12Z</time></trkpt><trkpt lat="37.00631801607604" lon="15.016218784768121"><ele>455.0</ele><time>2026-04-06T15:55:13Z</time></trkpt><trkpt lat="37.0061396943857" lon="15.0164066357702"><ele>453.0</ele><time>2026-04-06T15:55:14Z</time></trkpt><trkpt lat="37.005958899277104" lon="15.016597380472227"><ele>453.33333333333337</ele><time>2026-04-06T15:55:15Z</time></trkpt><trkpt lat="37.00578221285723" lon="15.016782881178255"><ele>453.6666666666667</ele><time>2026-04-06T15:55:16Z</time></trkpt><trkpt lat="37.0056166245266" lon="15.01695436177129"><ele>454.0</ele><time>2026-04-06T15:55:17Z</time></trkpt><trkpt lat="37.00546242172948" lon="15.017120143787468"><ele>454.0</ele><time>2026-04-06T15:55:18Z</time></trkpt><trkpt lat="37.00531106126482" lon="15.017280168239173"><ele>454.0</ele><time>2026-04-06T15:55:19Z</time></trkpt><trkpt lat="37.00515231128632" lon="15.017428041240795"><ele>454.0</ele><time>2026-04-06T15:55:20Z</time></trkpt><trkpt lat="37.00497639845371" lon="15.01756128106878"><ele>454.6666666666667</ele><time>2026-04-06T15:55:21Z</time></trkpt><trkpt lat="37.00478554964086" lon="15.01768801049127"><ele>455.33333333333337</ele><time>2026-04-06T15:55:22Z</time></trkpt><trkpt lat="37.0045916957426" lon="15.017818459892421"><ele>456.0</ele><time>2026-04-06T15:55:23Z</time></trkpt><trkpt lat="37.0043974496941" lon="15.01795195682663"><ele>456.0</ele><time>2026-04-06T15:55:24Z</time></trkpt><trkpt lat="37.004206072247065" lon="15.018081345634355"><ele>456.0</ele><time>2026-04-06T15:55:25Z</time></trkpt><trkpt lat="37.00401869863732" lon="15.018207309803634"><ele>456.0</ele><time>2026-04-06T15:55:26Z</time></trkpt><trkpt lat="37.00383156537822" lon="15.018326383365945"><ele>454.0</ele><time>2026-04-06T15:55:27Z</time></trkpt><trkpt lat="37.003635442360306" lon="15.01843816726471"><ele>452.0</ele><time>2026-04-06T15:55:28Z</time></trkpt><trkpt lat="37.003431870073776" lon="15.018541484453216"><ele>450.0</ele><time>2026-04-06T15:55:29Z</time></trkpt><trkpt lat="37.00322372910255" lon="15.018643156178937"><ele>449.0</ele><time>2026-04-06T15:55:30Z</time></trkpt><trkpt lat="37.00301225006061" lon="15.018748631321758"><ele>448.0</ele><time>2026-04-06T15:55:31Z</time></trkpt><trkpt lat="37.00279756556313" lon="15.018856157177195"><ele>448.0</ele><time>2026-04-06T15:55:32Z</time></trkpt><trkpt lat="37.002578556559484" lon="15.018963451292349"><ele>448.0</ele><time>2026-04-06T15:55:33Z</time></trkpt><trkpt lat="37.002356669663534" lon="15.019073720141813"><ele>446.5</ele><time>2026-04-06T15:55:34Z</time></trkpt><trkpt lat="37.002134027092616" lon="15.019185829378474"><ele>445.0</ele><time>2026-04-06T15:55:35Z</time></trkpt><trkpt lat="37.00191476518771" lon="15.019296848990674"><ele>445.0</ele><time>2026-04-06T15:55:36Z</time></trkpt><trkpt lat="37.00169613596449" lon="15.019406643700158"><ele>445.0</ele><time>2026-04-06T15:55:37Z</time></trkpt><trkpt lat="37.0014685483981" lon="15.019521820194724"><ele>444.5</ele><time>2026-04-06T15:55:38Z</time></trkpt><trkpt lat="37.00123784074206" lon="15.019634282339236"><ele>444.0</ele><time>2026-04-06T15:55:39Z</time></trkpt><trkpt lat="37.00100642680137" lon="15.01974519361975"><ele>444.0</ele><time>2026-04-06T15:55:40Z</time></trkpt><trkpt lat="37.00077560001226" lon="15.019857110698219"><ele>444.0</ele><time>2026-04-06T15:55:41Z</time></trkpt><trkpt lat="37.0005531465797" lon="15.019965632790717"><ele>444.0</ele><time>2026-04-06T15:55:42Z</time></trkpt><trkpt lat="37.00032716304555" lon="15.020069104888176"><ele>444.0</ele><time>2026-04-06T15:55:43Z</time></trkpt><trkpt lat="37.00013776168039" lon="15.020174417642645"><ele>444.0</ele><time>2026-04-06T15:55:44Z</time></trkpt><trkpt lat="36.99994754389559" lon="15.020266744592949"><ele>444.0</ele><time>2026-04-06T15:55:45Z</time></trkpt><trkpt lat="36.99977032178932" lon="15.020358212109196"><ele>444.0</ele><time>2026-04-06T15:55:46.001Z</time></trkpt><trkpt lat="36.9995948805681" lon="15.020476474920763"><ele>444.0</ele><time>2026-04-06T15:55:47.001Z</time></trkpt><trkpt lat="36.99942552033425" lon="15.020633168738687"><ele>444.0</ele><time>2026-04-06T15:55:48.001Z</time></trkpt><trkpt lat="36.99925781070233" lon="15.020809080645853"><ele>444.0</ele><time>2026-04-06T15:55:49.001Z</time></trkpt><trkpt lat="36.99908334258148" lon="15.020983210037874"><ele>444.0</ele><time>2026-04-06T15:55:50.001Z</time></trkpt><trkpt lat="36.998905837813766" lon="15.021158945482036"><ele>444.0</ele><time>2026-04-06T15:55:51.001Z</time></trkpt><trkpt lat="36.99872297621667" lon="15.021336650134975"><ele>444.0</ele><time>2026-04-06T15:55:52.001Z</time></trkpt><trkpt lat="36.998541483280874" lon="15.021515989338367"><ele>444.0</ele><time>2026-04-06T15:55:53.001Z</time></trkpt><trkpt lat="36.99836092146942" lon="15.021698036519279"><ele>444.0</ele><time>2026-04-06T15:55:54.001Z</time></trkpt><trkpt lat="36.998173792581305" lon="15.021879366974003"><ele>443.5</ele><time>2026-04-06T15:55:55.001Z</time></trkpt><trkpt lat="36.99798610906333" lon="15.022062892541651"><ele>443.0</ele><time>2026-04-06T15:55:56.001Z</time></trkpt><trkpt lat="36.99779751244239" lon="15.022244459328334"><ele>443.0</ele><time>2026-04-06T15:55:57.001Z</time></trkpt><trkpt lat="36.99760645293833" lon="15.02242916965433"><ele>443.0</ele><time>2026-04-06T15:55:58.001Z</time></trkpt><trkpt lat="36.997408641077016" lon="15.022614750742907"><ele>443.0</ele><time>2026-04-06T15:55:59.001Z</time></trkpt><trkpt lat="36.99721501475157" lon="15.02279376243476"><ele>443.0</ele><time>2026-04-06T15:56:00Z</time></trkpt><trkpt lat="36.99702267563223" lon="15.022969122983902"><ele>443.0</ele><time>2026-04-06T15:56:01Z</time></trkpt><trkpt lat="36.99683963000356" lon="15.023154788774468"><ele>443.0</ele><time>2026-04-06T15:56:02Z</time></trkpt><trkpt lat="36.99665931950807" lon="15.02333542516898"><ele>442.3333333333333</ele><time>2026-04-06T15:56:03Z</time></trkpt><trkpt lat="36.99648344210168" lon="15.023514616472728"><ele>441.66666666666663</ele><time>2026-04-06T15:56:04Z</time></trkpt><trkpt lat="36.99630994956549" lon="15.023687148160255"><ele>441.0</ele><time>2026-04-06T15:56:05Z</time></trkpt><trkpt lat="36.99613504053253" lon="15.023853371366696"><ele>441.0</ele><time>2026-04-06T15:56:06Z</time></trkpt><trkpt lat="36.995963213217635" lon="15.02400458516697"><ele>441.0</ele><time>2026-04-06T15:56:07Z</time></trkpt><trkpt lat="36.995796921830724" lon="15.024167038260792"><ele>441.0</ele><time>2026-04-06T15:56:08Z</time></trkpt><trkpt lat="36.995630751285404" lon="15.02432501355179"><ele>441.33333333333337</ele><time>2026-04-06T15:56:09Z</time></trkpt><trkpt lat="36.99547442251952" lon="15.024477879014624"><ele>441.6666666666667</ele><time>2026-04-06T15:56:10Z</time></trkpt><trkpt lat="36.99532211424906" lon="15.02462406820897"><ele>442.0</ele><time>2026-04-06T15:56:11Z</time></trkpt><trkpt lat="36.995182679533656" lon="15.024744413743875"><ele>442.0</ele><time>2026-04-06T15:56:12Z</time></trkpt><trkpt lat="36.99503452538228" lon="15.024850310186132"><ele>442.0</ele><time>2026-04-06T15:56:13Z</time></trkpt><trkpt lat="36.99487289972337" lon="15.024940375950047"><ele>442.0</ele><time>2026-04-06T15:56:14Z</time></trkpt><trkpt lat="36.994706823745304" lon="15.025001005099734"><ele>442.0</ele><time>2026-04-06T15:56:15Z</time></trkpt><trkpt lat="36.99453817327547" lon="15.025038170863002"><ele>442.0</ele><time>2026-04-06T15:56:16Z</time></trkpt><trkpt lat="36.99437496950803" lon="15.025039898142918"><ele>442.0</ele><time>2026-04-06T15:56:17Z</time></trkpt><trkpt lat="36.99421220626051" lon="15.025088325016517"><ele>441.6666666666667</ele><time>2026-04-06T15:56:18Z</time></trkpt><trkpt lat="36.99404414650257" lon="15.025175227648775"><ele>441.33333333333337</ele><time>2026-04-06T15:56:19Z</time></trkpt><trkpt lat="36.9938703774784" lon="15.025237281700488"><ele>441.0</ele><time>2026-04-06T15:56:20Z</time></trkpt><trkpt lat="36.99371366159451" lon="15.025333623484281"><ele>441.0</ele><time>2026-04-06T15:56:21Z</time></trkpt><trkpt lat="36.993551767716525" lon="15.025319425106469"><ele>441.0</ele><time>2026-04-06T15:56:22Z</time></trkpt><trkpt lat="36.99337229776178" lon="15.025366492867567"><ele>441.0</ele><time>2026-04-06T15:56:23Z</time></trkpt><trkpt lat="36.993166697078706" lon="15.025431116860128"><ele>440.0</ele><time>2026-04-06T15:56:24Z</time></trkpt><trkpt lat="36.99295324514634" lon="15.02549198937133"><ele>439.0</ele><time>2026-04-06T15:56:25Z</time></trkpt><trkpt lat="36.99273920648147" lon="15.025551470146874"><ele>438.0</ele><time>2026-04-06T15:56:26Z</time></trkpt><trkpt lat="36.99254177063237" lon="15.025615953005126"><ele>438.33333333333337</ele><time>2026-04-06T15:56:27Z</time></trkpt><trkpt lat="36.992350953304495" lon="15.025675730378296"><ele>438.6666666666667</ele><time>2026-04-06T15:56:28Z</time></trkpt><trkpt lat="36.99215660141304" lon="15.025739731623009"><ele>439.0</ele><time>2026-04-06T15:56:29Z</time></trkpt><trkpt lat="36.99196503704231" lon="15.025792076855257"><ele>438.6666666666667</ele><time>2026-04-06T15:56:30Z</time></trkpt><trkpt lat="36.99177830149032" lon="15.025839371392271"><ele>438.33333333333337</ele><time>2026-04-06T15:56:31Z</time></trkpt><trkpt lat="36.991588827738944" lon="15.025893381557612"><ele>438.0</ele><time>2026-04-06T15:56:32Z</time></trkpt><trkpt lat="36.991396993726035" lon="15.025946361212661"><ele>437.33333333333337</ele><time>2026-04-06T15:56:33Z</time></trkpt><trkpt lat="36.991209327801776" lon="15.026001493456"><ele>436.6666666666667</ele><time>2026-04-06T15:56:34Z</time></trkpt><trkpt lat="36.99102399892119" lon="15.026060124904484"><ele>436.0</ele><time>2026-04-06T15:56:35Z</time></trkpt><trkpt lat="36.990848903234664" lon="15.026116145530038"><ele>433.6666666666667</ele><time>2026-04-06T15:56:36Z</time></trkpt><trkpt lat="36.990682011932485" lon="15.02616491024651"><ele>431.33333333333337</ele><time>2026-04-06T15:56:37Z</time></trkpt><trkpt lat="36.990532597886194" lon="15.026210284935791"><ele>429.0</ele><time>2026-04-06T15:56:38Z</time></trkpt><trkpt lat="36.990400123771806" lon="15.026248572005317"><ele>429.0</ele><time>2026-04-06T15:56:39Z</time></trkpt><trkpt lat="36.990287016277826" lon="15.026273403674024"><ele>429.0</ele><time>2026-04-06T15:56:40Z</time></trkpt><trkpt lat="36.990183335179196" lon="15.02625998416804"><ele>429.0</ele><time>2026-04-06T15:56:41Z</time></trkpt><trkpt lat="36.99007202709969" lon="15.026199546284365"><ele>429.0</ele><time>2026-04-06T15:56:42Z</time></trkpt><trkpt lat="36.989944175759376" lon="15.026085713767474"><ele>427.66666666666663</ele><time>2026-04-06T15:56:43Z</time></trkpt><trkpt lat="36.989820580368814" lon="15.025946985023845"><ele>426.3333333333333</ele><time>2026-04-06T15:56:44Z</time></trkpt><trkpt lat="36.98971220243456" lon="15.02580858655974"><ele>425.0</ele><time>2026-04-06T15:56:45Z</time></trkpt><trkpt lat="36.9896113930835" lon="15.025657666015993"><ele>422.75</ele><time>2026-04-06T15:56:46Z</time></trkpt><trkpt lat="36.98952524826968" lon="15.02549862500376"><ele>420.5</ele><time>2026-04-06T15:56:47Z</time></trkpt><trkpt lat="36.9894582772045" lon="15.025341450904438"><ele>418.25</ele><time>2026-04-06T15:56:48Z</time></trkpt><trkpt lat="36.98941995544102" lon="15.025185472999185"><ele>416.0</ele><time>2026-04-06T15:56:49Z</time></trkpt><trkpt lat="36.989413994145245" lon="15.02504122332772"><ele>414.75</ele><time>2026-04-06T15:56:50Z</time></trkpt><trkpt lat="36.989438010710074" lon="15.024884081116628"><ele>413.5</ele><time>2026-04-06T15:56:51Z</time></trkpt><trkpt lat="36.98947010362027" lon="15.024712970304682"><ele>412.25</ele><time>2026-04-06T15:56:52Z</time></trkpt><trkpt lat="36.989479125547014" lon="15.024539906843787"><ele>411.0</ele><time>2026-04-06T15:56:53Z</time></trkpt><trkpt lat="36.98945251071629" lon="15.02439725258019"><ele>411.0</ele><time>2026-04-06T15:56:54Z</time></trkpt><trkpt lat="36.98938560236795" lon="15.024296240131271"><ele>411.0</ele><time>2026-04-06T15:56:55Z</time></trkpt><trkpt lat="36.989296457184736" lon="15.024245017913707"><ele>411.0</ele><time>2026-04-06T15:56:56Z</time></trkpt><trkpt lat="36.9892030729866" lon="15.02425421156925"><ele>411.0</ele><time>2026-04-06T15:56:57Z</time></trkpt><trkpt lat="36.98910689265002" lon="15.024309948941266"><ele>411.0</ele><time>2026-04-06T15:56:58Z</time></trkpt><trkpt lat="36.98899272907739" lon="15.024382485912403"><ele>412.0</ele><time>2026-04-06T15:56:59Z</time></trkpt><trkpt lat="36.98886020198039" lon="15.024438974036693"><ele>413.0</ele><time>2026-04-06T15:57:00Z</time></trkpt><trkpt lat="36.98873447454244" lon="15.0244801333479"><ele>414.0</ele><time>2026-04-06T15:57:01Z</time></trkpt><trkpt lat="36.98862672877736" lon="15.024549263586442"><ele>415.0</ele><time>2026-04-06T15:57:02Z</time></trkpt><trkpt lat="36.98855457067377" lon="15.024650464246786"><ele>415.0</ele><time>2026-04-06T15:57:03Z</time></trkpt><trkpt lat="36.988518316522125" lon="15.024792662371286"><ele>415.0</ele><time>2026-04-06T15:57:04Z</time></trkpt><trkpt lat="36.98849268428241" lon="15.024980738009402"><ele>415.0</ele><time>2026-04-06T15:57:05Z</time></trkpt><trkpt lat="36.98846998220417" lon="15.025180250683741"><ele>415.0</ele><time>2026-04-06T15:57:06Z</time></trkpt><trkpt lat="36.98844800127183" lon="15.02537718777119"><ele>416.33333333333337</ele><time>2026-04-06T15:57:07Z</time></trkpt><trkpt lat="36.988424249703" lon="15.02556945777454"><ele>417.66666666666663</ele><time>2026-04-06T15:57:08Z</time></trkpt><trkpt lat="36.98839644281751" lon="15.02575840195473"><ele>419.0</ele><time>2026-04-06T15:57:09Z</time></trkpt><trkpt lat="36.9883529889858" lon="15.02595827555594"><ele>415.66666666666663</ele><time>2026-04-06T15:57:10Z</time></trkpt><trkpt lat="36.98828226057856" lon="15.026175122044847"><ele>412.33333333333337</ele><time>2026-04-06T15:57:11Z</time></trkpt><trkpt lat="36.98818703644072" lon="15.026397636798423"><ele>409.0</ele><time>2026-04-06T15:57:12Z</time></trkpt><trkpt lat="36.98809068468122" lon="15.026612913643"><ele>407.6666666666667</ele><time>2026-04-06T15:57:13Z</time></trkpt><trkpt lat="36.9880036067888" lon="15.02681661808185"><ele>406.33333333333337</ele><time>2026-04-06T15:57:14Z</time></trkpt><trkpt lat="36.98793246635319" lon="15.027006618071113"><ele>405.0</ele><time>2026-04-06T15:57:15Z</time></trkpt><trkpt lat="36.98786873359388" lon="15.02718712378797"><ele>405.0</ele><time>2026-04-06T15:57:16Z</time></trkpt><trkpt lat="36.98779572753859" lon="15.027353414433865"><ele>405.0</ele><time>2026-04-06T15:57:17Z</time></trkpt><trkpt lat="36.98771707083243" lon="15.027468987107213"><ele>405.0</ele><time>2026-04-06T15:57:18Z</time></trkpt><trkpt lat="36.98764102000389" lon="15.027540021027058"><ele>405.0</ele><time>2026-04-06T15:57:19Z</time></trkpt><trkpt lat="36.98755649487074" lon="15.0275846304879"><ele>406.8</ele><time>2026-04-06T15:57:20Z</time></trkpt><trkpt lat="36.98745672758619" lon="15.027626782079576"><ele>408.6</ele><time>2026-04-06T15:57:21Z</time></trkpt><trkpt lat="36.9873509841747" lon="15.027671207402046"><ele>410.4</ele><time>2026-04-06T15:57:22Z</time></trkpt><trkpt lat="36.987243319760374" lon="15.027717920425562"><ele>412.2</ele><time>2026-04-06T15:57:23Z</time></trkpt><trkpt lat="36.98713737114356" lon="15.02776818370499"><ele>414.0</ele><time>2026-04-06T15:57:24Z</time></trkpt><trkpt lat="36.9870360154665" lon="15.027815920929964"><ele>414.0</ele><time>2026-04-06T15:57:25Z</time></trkpt><trkpt lat="36.98694428465799" lon="15.02785664700301"><ele>414.0</ele><time>2026-04-06T15:57:26Z</time></trkpt><trkpt lat="36.986864150522806" lon="15.027889885182583"><ele>414.0</ele><time>2026-04-06T15:57:27Z</time></trkpt><trkpt lat="36.98679677998563" lon="15.027907453740895"><ele>414.0</ele><time>2026-04-06T15:57:28Z</time></trkpt><trkpt lat="36.986701333216516" lon="15.027851806718376"><ele>414.0</ele><time>2026-04-06T15:57:30Z</time></trkpt><trkpt lat="36.98668762925511" lon="15.027685561046471"><ele>414.0</ele><time>2026-04-06T15:57:32Z</time></trkpt><trkpt lat="36.98670718004186" lon="15.027577375032878"><ele>414.0</ele><time>2026-04-06T15:57:33Z</time></trkpt><trkpt lat="36.98672809964376" lon="15.027454031411079"><ele>414.0</ele><time>2026-04-06T15:57:34Z</time></trkpt><trkpt lat="36.98674311962403" lon="15.027317844030474"><ele>414.0</ele><time>2026-04-06T15:57:35Z</time></trkpt><trkpt lat="36.986747416879275" lon="15.02717042257171"><ele>414.0</ele><time>2026-04-06T15:57:36Z</time></trkpt><trkpt lat="36.9867408788703" lon="15.027025332413823"><ele>414.79999999999995</ele><time>2026-04-06T15:57:37Z</time></trkpt><trkpt lat="36.98671804508396" lon="15.026894743522115"><ele>415.59999999999997</ele><time>2026-04-06T15:57:38Z</time></trkpt><trkpt lat="36.98668516765763" lon="15.026765097180991"><ele>416.4</ele><time>2026-04-06T15:57:39Z</time></trkpt><trkpt lat="36.986643734977896" lon="15.026633904446797"><ele>417.2</ele><time>2026-04-06T15:57:40Z</time></trkpt><trkpt lat="36.98659000188451" lon="15.026510817681224"><ele>418.0</ele><time>2026-04-06T15:57:41Z</time></trkpt><trkpt lat="36.98651754690103" lon="15.026425844851845"><ele>418.0</ele><time>2026-04-06T15:57:42Z</time></trkpt><trkpt lat="36.98642920760173" lon="15.02638702835735"><ele>418.0</ele><time>2026-04-06T15:57:43Z</time></trkpt><trkpt lat="36.986335389674885" lon="15.026387909594142"><ele>418.0</ele><time>2026-04-06T15:57:44Z</time></trkpt><trkpt lat="36.98624856087178" lon="15.02642702962971"><ele>418.0</ele><time>2026-04-06T15:57:45Z</time></trkpt><trkpt lat="36.986178589188974" lon="15.026508399668616"><ele>418.0</ele><time>2026-04-06T15:57:46Z</time></trkpt><trkpt lat="36.9861268186941" lon="15.02662358672947"><ele>418.5</ele><time>2026-04-06T15:57:47Z</time></trkpt><trkpt lat="36.98608410947647" lon="15.026749523320689"><ele>419.0</ele><time>2026-04-06T15:57:48Z</time></trkpt><trkpt lat="36.98604374807099" lon="15.026887732308953"><ele>419.5</ele><time>2026-04-06T15:57:49Z</time></trkpt><trkpt lat="36.98600228939174" lon="15.027028108668391"><ele>420.0</ele><time>2026-04-06T15:57:50Z</time></trkpt><trkpt lat="36.98595496156024" lon="15.027163602474875"><ele>420.0</ele><time>2026-04-06T15:57:51Z</time></trkpt><trkpt lat="36.9858968896184" lon="15.027292856446065"><ele>420.0</ele><time>2026-04-06T15:57:52.001Z</time></trkpt><trkpt lat="36.98583620815972" lon="15.027422169167597"><ele>420.0</ele><time>2026-04-06T15:57:53.001Z</time></trkpt><trkpt lat="36.98576870445623" lon="15.027547468978263"><ele>420.0</ele><time>2026-04-06T15:57:54.001Z</time></trkpt><trkpt lat="36.985695103097015" lon="15.027665316127331"><ele>421.75</ele><time>2026-04-06T15:57:55.001Z</time></trkpt><trkpt lat="36.98560300847359" lon="15.027762139432314"><ele>423.5</ele><time>2026-04-06T15:57:56.001Z</time></trkpt><trkpt lat="36.985507793438536" lon="15.027852498320817"><ele>425.25</ele><time>2026-04-06T15:57:57.001Z</time></trkpt><trkpt lat="36.985398516106265" lon="15.02791759915946"><ele>427.0</ele><time>2026-04-06T15:57:58.001Z</time></trkpt><trkpt lat="36.985272105740364" lon="15.027967270448155"><ele>427.0</ele><time>2026-04-06T15:57:59.001Z</time></trkpt><trkpt lat="36.98513639973692" lon="15.02801332507081"><ele>427.0</ele><time>2026-04-06T15:58:00.001Z</time></trkpt><trkpt lat="36.98499680193418" lon="15.028061399391044"><ele>427.0</ele><time>2026-04-06T15:58:01Z</time></trkpt><trkpt lat="36.9848630208797" lon="15.028104336408006"><ele>427.0</ele><time>2026-04-06T15:58:02.001Z</time></trkpt><trkpt lat="36.98474223041323" lon="15.028142125403683"><ele>428.75</ele><time>2026-04-06T15:58:03Z</time></trkpt><trkpt lat="36.984623946844465" lon="15.028183644543367"><ele>430.5</ele><time>2026-04-06T15:58:04Z</time></trkpt><trkpt lat="36.984501070933334" lon="15.0282265217422"><ele>432.25</ele><time>2026-04-06T15:58:05Z</time></trkpt><trkpt lat="36.9843750268217" lon="15.02826907690074"><ele>434.0</ele><time>2026-04-06T15:58:06Z</time></trkpt><trkpt lat="36.984247072838336" lon="15.02830918412682"><ele>433.75</ele><time>2026-04-06T15:58:07Z</time></trkpt><trkpt lat="36.98411639496735" lon="15.028352150244668"><ele>433.5</ele><time>2026-04-06T15:58:08Z</time></trkpt><trkpt lat="36.98398242611822" lon="15.028399954740065"><ele>433.25</ele><time>2026-04-06T15:58:09Z</time></trkpt><trkpt lat="36.98384672427502" lon="15.028451895637609"><ele>433.0</ele><time>2026-04-06T15:58:10Z</time></trkpt><trkpt lat="36.983708709493115" lon="15.028502809876832"><ele>433.0</ele><time>2026-04-06T15:58:11Z</time></trkpt><trkpt lat="36.983565448359194" lon="15.028550507064725"><ele>433.0</ele><time>2026-04-06T15:58:12Z</time></trkpt><trkpt lat="36.98342342304633" lon="15.028599744968554"><ele>433.0</ele><time>2026-04-06T15:58:13Z</time></trkpt><trkpt lat="36.98328587889996" lon="15.028651152170521"><ele>433.0</ele><time>2026-04-06T15:58:14Z</time></trkpt><trkpt lat="36.983155877420344" lon="15.028702850586729"><ele>433.25</ele><time>2026-04-06T15:58:15Z</time></trkpt><trkpt lat="36.98302894182203" lon="15.028749960516159"><ele>433.5</ele><time>2026-04-06T15:58:16Z</time></trkpt><trkpt lat="36.98290926875098" lon="15.028792495183186"><ele>433.75</ele><time>2026-04-06T15:58:17Z</time></trkpt><trkpt lat="36.982793241109306" lon="15.028849363195071"><ele>434.0</ele><time>2026-04-06T15:58:18Z</time></trkpt><trkpt lat="36.982670701612626" lon="15.028919094525055"><ele>434.0</ele><time>2026-04-06T15:58:19Z</time></trkpt><trkpt lat="36.98254288599377" lon="15.02900598550718"><ele>434.0</ele><time>2026-04-06T15:58:20Z</time></trkpt><trkpt lat="36.98240559084509" lon="15.029094877348966"><ele>434.0</ele><time>2026-04-06T15:58:21Z</time></trkpt><trkpt lat="36.982265462654304" lon="15.029184897466203"><ele>433.66666666666663</ele><time>2026-04-06T15:58:22Z</time></trkpt><trkpt lat="36.98212251766314" lon="15.02927813713425"><ele>433.33333333333337</ele><time>2026-04-06T15:58:23Z</time></trkpt><trkpt lat="36.981983470881076" lon="15.029371896208248"><ele>433.0</ele><time>2026-04-06T15:58:24Z</time></trkpt><trkpt lat="36.98184283114256" lon="15.029466147034041"><ele>433.0</ele><time>2026-04-06T15:58:25Z</time></trkpt><trkpt lat="36.98169735648933" lon="15.029561186216869"><ele>433.0</ele><time>2026-04-06T15:58:26Z</time></trkpt><trkpt lat="36.98154563996048" lon="15.029659231608145"><ele>433.0</ele><time>2026-04-06T15:58:27Z</time></trkpt><trkpt lat="36.9813931118904" lon="15.029759879340146"><ele>433.6666666666667</ele><time>2026-04-06T15:58:28Z</time></trkpt><trkpt lat="36.98124197054119" lon="15.029861509553868"><ele>434.33333333333337</ele><time>2026-04-06T15:58:29Z</time></trkpt><trkpt lat="36.98109863649508" lon="15.02996147241556"><ele>435.0</ele><time>2026-04-06T15:58:30Z</time></trkpt><trkpt lat="36.98096047135094" lon="15.030051547297985"><ele>435.5</ele><time>2026-04-06T15:58:31Z</time></trkpt><trkpt lat="36.9808265964098" lon="15.030135221177986"><ele>436.0</ele><time>2026-04-06T15:58:32Z</time></trkpt><trkpt lat="36.98069803188453" lon="15.030218640954812"><ele>436.5</ele><time>2026-04-06T15:58:33Z</time></trkpt><trkpt lat="36.980577880011616" lon="15.03029678496321"><ele>437.0</ele><time>2026-04-06T15:58:34Z</time></trkpt><trkpt lat="36.98046586892877" lon="15.030370058757756"><ele>437.0</ele><time>2026-04-06T15:58:35Z</time></trkpt><trkpt lat="36.98036047240733" lon="15.0304386433902"><ele>437.0</ele><time>2026-04-06T15:58:36Z</time></trkpt><trkpt lat="36.98025323243615" lon="15.03050578314776"><ele>437.0</ele><time>2026-04-06T15:58:37Z</time></trkpt><trkpt lat="36.98015590194697" lon="15.030573027799859"><ele>437.0</ele><time>2026-04-06T15:58:38Z</time></trkpt><trkpt lat="36.980062799573766" lon="15.030632955576007"><ele>437.0</ele><time>2026-04-06T15:58:39Z</time></trkpt><trkpt lat="36.979980053998275" lon="15.030688056238525"><ele>437.00000000000006</ele><time>2026-04-06T15:58:40Z</time></trkpt><trkpt lat="36.97991178906848" lon="15.030736057469007"><ele>437.00000000000006</ele><time>2026-04-06T15:58:41Z</time></trkpt><trkpt lat="36.97985744417441" lon="15.030785551351393"><ele>437.0</ele><time>2026-04-06T15:58:42Z</time></trkpt><trkpt lat="36.979781759539556" lon="15.030836227054813"><ele>437.0</ele><time>2026-04-06T15:58:44Z</time></trkpt><trkpt lat="36.979786018009534" lon="15.03102069167065"><ele>437.0</ele><time>2026-04-06T15:58:45Z</time></trkpt><trkpt lat="36.979761159409954" lon="15.031147944614537"><ele>437.0</ele><time>2026-04-06T15:58:46Z</time></trkpt><trkpt lat="36.979731215277596" lon="15.03130478056036"><ele>437.0</ele><time>2026-04-06T15:58:47Z</time></trkpt><trkpt lat="36.97970199749465" lon="15.03146417021106"><ele>437.0</ele><time>2026-04-06T15:58:48Z</time></trkpt><trkpt lat="36.97967520229602" lon="15.031637317815925"><ele>435.66666666666663</ele><time>2026-04-06T15:58:49Z</time></trkpt><trkpt lat="36.979656823844586" lon="15.031840720583894"><ele>434.33333333333337</ele><time>2026-04-06T15:58:50Z</time></trkpt><trkpt lat="36.97964159050537" lon="15.03203010222197"><ele>433.0</ele><time>2026-04-06T15:58:51Z</time></trkpt><trkpt lat="36.97962713484891" lon="15.032209815620156"><ele>433.0</ele><time>2026-04-06T15:58:52Z</time></trkpt><trkpt lat="36.979612977971385" lon="15.032386184220114"><ele>433.0</ele><time>2026-04-06T15:58:53Z</time></trkpt><trkpt lat="36.979599375145845" lon="15.032557139138898"><ele>433.0</ele><time>2026-04-06T15:58:54Z</time></trkpt><trkpt lat="36.979588995376886" lon="15.032717247076858"><ele>433.0</ele><time>2026-04-06T15:58:55Z</time></trkpt><trkpt lat="36.9795792957838" lon="15.032866864228543"><ele>432.2</ele><time>2026-04-06T15:58:56Z</time></trkpt><trkpt lat="36.979557275581065" lon="15.033001834968902"><ele>431.4</ele><time>2026-04-06T15:58:57Z</time></trkpt><trkpt lat="36.97953127225784" lon="15.033128948301938"><ele>430.59999999999997</ele><time>2026-04-06T15:58:58Z</time></trkpt><trkpt lat="36.979501098415966" lon="15.033261158850813"><ele>429.79999999999995</ele><time>2026-04-06T15:58:59Z</time></trkpt><trkpt lat="36.97946627670366" lon="15.033398230787121"><ele>429.0</ele><time>2026-04-06T15:59:00Z</time></trkpt><trkpt lat="36.979426955853555" lon="15.033528977733726"><ele>428.5</ele><time>2026-04-06T15:59:01Z</time></trkpt><trkpt lat="36.979387478690114" lon="15.03366172354679"><ele>428.0</ele><time>2026-04-06T15:59:02Z</time></trkpt><trkpt lat="36.97930267070367" lon="15.033785322345096"><ele>427.5</ele><time>2026-04-06T15:59:03Z</time></trkpt><trkpt lat="36.979222318501016" lon="15.033931176397015"><ele>427.0</ele><time>2026-04-06T15:59:04Z</time></trkpt><trkpt lat="36.97914177904617" lon="15.034079107639148"><ele>427.5</ele><time>2026-04-06T15:59:05Z</time></trkpt><trkpt lat="36.979060771466905" lon="15.03422789859863"><ele>428.0</ele><time>2026-04-06T15:59:06Z</time></trkpt><trkpt lat="36.97899219845233" lon="15.034386815092548"><ele>428.5</ele><time>2026-04-06T15:59:07Z</time></trkpt><trkpt lat="36.97890592903858" lon="15.03452754638633"><ele>429.0</ele><time>2026-04-06T15:59:08Z</time></trkpt><trkpt lat="36.97880726167807" lon="15.034654050548504"><ele>429.0</ele><time>2026-04-06T15:59:09Z</time></trkpt><trkpt lat="36.97872350949249" lon="15.034801361780348"><ele>429.0</ele><time>2026-04-06T15:59:10Z</time></trkpt><trkpt lat="36.97863829428455" lon="15.034961813943827"><ele>429.0</ele><time>2026-04-06T15:59:11Z</time></trkpt><trkpt lat="36.97855443071055" lon="15.03513044158826"><ele>428.66666666666663</ele><time>2026-04-06T15:59:12Z</time></trkpt><trkpt lat="36.97847156161561" lon="15.035297467520577"><ele>428.3333333333333</ele><time>2026-04-06T15:59:13Z</time></trkpt><trkpt lat="36.97838958505322" lon="15.0354627855379"><ele>428.0</ele><time>2026-04-06T15:59:14Z</time></trkpt><trkpt lat="36.97831055147446" lon="15.035622168588251"><ele>428.0</ele><time>2026-04-06T15:59:15Z</time></trkpt><trkpt lat="36.97823664522754" lon="15.035771211627024"><ele>428.0</ele><time>2026-04-06T15:59:16Z</time></trkpt><trkpt lat="36.97818063652756" lon="15.03592284135602"><ele>428.0</ele><time>2026-04-06T15:59:17Z</time></trkpt><trkpt lat="36.97811144176193" lon="15.036050777930042"><ele>428.0</ele><time>2026-04-06T15:59:18Z</time></trkpt><trkpt lat="36.978042306012036" lon="15.03617458425726"><ele>427.25</ele><time>2026-04-06T15:59:19Z</time></trkpt><trkpt lat="36.97795675598439" lon="15.036299596782493"><ele>426.5</ele><time>2026-04-06T15:59:20Z</time></trkpt><trkpt lat="36.97784127614334" lon="15.036410605917448"><ele>425.75</ele><time>2026-04-06T15:59:21Z</time></trkpt><trkpt lat="36.97774671398397" lon="15.036541691907304"><ele>425.0</ele><time>2026-04-06T15:59:22Z</time></trkpt><trkpt lat="36.97764460894918" lon="15.036654329076278"><ele>424.5</ele><time>2026-04-06T15:59:23Z</time></trkpt><trkpt lat="36.977546147865155" lon="15.036769207578594"><ele>424.0</ele><time>2026-04-06T15:59:24Z</time></trkpt><trkpt lat="36.97744486953461" lon="15.036878148947318"><ele>423.5</ele><time>2026-04-06T15:59:25Z</time></trkpt><trkpt lat="36.97733834524888" lon="15.03699061303209"><ele>423.0</ele><time>2026-04-06T15:59:26Z</time></trkpt><trkpt lat="36.97723089968186" lon="15.037113196000805"><ele>422.25</ele><time>2026-04-06T15:59:27Z</time></trkpt><trkpt lat="36.977106330053445" lon="15.037215627556208"><ele>421.5</ele><time>2026-04-06T15:59:28Z</time></trkpt><trkpt lat="36.97699984564742" lon="15.037339305118714"><ele>420.75</ele><time>2026-04-06T15:59:29Z</time></trkpt><trkpt lat="36.97688390754157" lon="15.037441531287069"><ele>420.0</ele><time>2026-04-06T15:59:30Z</time></trkpt><trkpt lat="36.9767686642573" lon="15.03755123739437"><ele>422.5</ele><time>2026-04-06T15:59:31Z</time></trkpt><trkpt lat="36.976649507525444" lon="15.03765331997466"><ele>425.0</ele><time>2026-04-06T15:59:32Z</time></trkpt><trkpt lat="36.97654203691779" lon="15.037776664052958"><ele>427.5</ele><time>2026-04-06T15:59:33Z</time></trkpt><trkpt lat="36.976437535269824" lon="15.037902647085508"><ele>430.0</ele><time>2026-04-06T15:59:34Z</time></trkpt><trkpt lat="36.97633658120949" lon="15.03803088207374"><ele>430.0</ele><time>2026-04-06T15:59:35Z</time></trkpt><trkpt lat="36.976241829256836" lon="15.038159257175217"><ele>430.0</ele><time>2026-04-06T15:59:36Z</time></trkpt><trkpt lat="36.976153850136505" lon="15.038293111544544"><ele>430.0</ele><time>2026-04-06T15:59:37Z</time></trkpt><trkpt lat="36.976074962792104" lon="15.038441955537465"><ele>430.0</ele><time>2026-04-06T15:59:38Z</time></trkpt><trkpt lat="36.97599843427808" lon="15.038601755911834"><ele>431.6666666666667</ele><time>2026-04-06T15:59:39Z</time></trkpt><trkpt lat="36.975922467240075" lon="15.038770542081439"><ele>433.33333333333337</ele><time>2026-04-06T15:59:40Z</time></trkpt><trkpt lat="36.97584386921127" lon="15.038945097329416"><ele>435.0</ele><time>2026-04-06T15:59:41Z</time></trkpt><trkpt lat="36.975765301060825" lon="15.03911958613608"><ele>433.0</ele><time>2026-04-06T15:59:42Z</time></trkpt><trkpt lat="36.97568774158768" lon="15.03929183509065"><ele>431.0</ele><time>2026-04-06T15:59:43Z</time></trkpt><trkpt lat="36.97561057080937" lon="15.039458640617648"><ele>429.0</ele><time>2026-04-06T15:59:44Z</time></trkpt><trkpt lat="36.97553434160648" lon="15.039622964873786"><ele>429.0</ele><time>2026-04-06T15:59:45Z</time></trkpt><trkpt lat="36.97545979632902" lon="15.039783659121854"><ele>429.0</ele><time>2026-04-06T15:59:46Z</time></trkpt><trkpt lat="36.97538618295788" lon="15.039942344662192"><ele>429.0</ele><time>2026-04-06T15:59:47Z</time></trkpt><trkpt lat="36.975313745673766" lon="15.040101345112905"><ele>429.0</ele><time>2026-04-06T15:59:48Z</time></trkpt><trkpt lat="36.97524543416055" lon="15.040268189824397"><ele>428.33333333333337</ele><time>2026-04-06T15:59:49Z</time></trkpt><trkpt lat="36.975178211475495" lon="15.040447022333893"><ele>427.6666666666667</ele><time>2026-04-06T15:59:50Z</time></trkpt><trkpt lat="36.97511191369588" lon="15.04063271067696"><ele>427.0</ele><time>2026-04-06T15:59:51Z</time></trkpt><trkpt lat="36.97504727805876" lon="15.040828601301882"><ele>428.0</ele><time>2026-04-06T15:59:52Z</time></trkpt><trkpt lat="36.97499107438161" lon="15.04103186551217"><ele>429.0</ele><time>2026-04-06T15:59:53Z</time></trkpt><trkpt lat="36.97493510902848" lon="15.04123586825887"><ele>430.0</ele><time>2026-04-06T15:59:54Z</time></trkpt><trkpt lat="36.97487986559644" lon="15.041439706123091"><ele>429.6666666666667</ele><time>2026-04-06T15:59:55Z</time></trkpt><trkpt lat="36.97482613658831" lon="15.041642707880307"><ele>429.33333333333337</ele><time>2026-04-06T15:59:56Z</time></trkpt><trkpt lat="36.97477341404986" lon="15.041841907662793"><ele>429.0</ele><time>2026-04-06T15:59:57Z</time></trkpt><trkpt lat="36.97471950458567" lon="15.042038339287336"><ele>429.0</ele><time>2026-04-06T15:59:58.001Z</time></trkpt><trkpt lat="36.97466282838613" lon="15.042237910039711"><ele>429.0</ele><time>2026-04-06T15:59:59.001Z</time></trkpt><trkpt lat="36.97460560808615" lon="15.042439396707254"><ele>429.0</ele><time>2026-04-06T16:00:00.001Z</time></trkpt><trkpt lat="36.9745498445152" lon="15.04264123544743"><ele>430.0</ele><time>2026-04-06T16:00:01.001Z</time></trkpt><trkpt lat="36.974497475400995" lon="15.042845117658365"><ele>431.0</ele><time>2026-04-06T16:00:02.001Z</time></trkpt><trkpt lat="36.974445910370044" lon="15.043052330840956"><ele>432.0</ele><time>2026-04-06T16:00:03.001Z</time></trkpt><trkpt lat="36.97439428578298" lon="15.04325528741619"><ele>433.33333333333337</ele><time>2026-04-06T16:00:04.001Z</time></trkpt><trkpt lat="36.97433871582298" lon="15.043449602111362"><ele>434.6666666666667</ele><time>2026-04-06T16:00:05.001Z</time></trkpt><trkpt lat="36.97428092258751" lon="15.043637210170928"><ele>436.0</ele><time>2026-04-06T16:00:06.001Z</time></trkpt><trkpt lat="36.97421983699284" lon="15.043830367897334"><ele>437.0</ele><time>2026-04-06T16:00:07.001Z</time></trkpt><trkpt lat="36.97415585250255" lon="15.044027314708327"><ele>438.0</ele><time>2026-04-06T16:00:08.001Z</time></trkpt><trkpt lat="36.97408838022366" lon="15.044231674499201"><ele>439.0</ele><time>2026-04-06T16:00:09.001Z</time></trkpt><trkpt lat="36.974017033595416" lon="15.04443835490039"><ele>440.0</ele><time>2026-04-06T16:00:10.001Z</time></trkpt><trkpt lat="36.97394355361721" lon="15.04464299882425"><ele>441.0</ele><time>2026-04-06T16:00:11.001Z</time></trkpt><trkpt lat="36.97386916961091" lon="15.044842252287507"><ele>442.0</ele><time>2026-04-06T16:00:12.001Z</time></trkpt><trkpt lat="36.97379993626751" lon="15.045028300474616"><ele>443.33333333333337</ele><time>2026-04-06T16:00:13.001Z</time></trkpt><trkpt lat="36.973736582223594" lon="15.04520129119295"><ele>444.66666666666663</ele><time>2026-04-06T16:00:14.001Z</time></trkpt><trkpt lat="36.97367222701215" lon="15.045385110386585"><ele>446.0</ele><time>2026-04-06T16:00:15.001Z</time></trkpt><trkpt lat="36.97361427594064" lon="15.045571092239364"><ele>446.0</ele><time>2026-04-06T16:00:16.001Z</time></trkpt><trkpt lat="36.973561656145506" lon="15.045769741793258"><ele>446.0</ele><time>2026-04-06T16:00:17.001Z</time></trkpt><trkpt lat="36.973518669445085" lon="15.04597160513202"><ele>446.0</ele><time>2026-04-06T16:00:18.001Z</time></trkpt><trkpt lat="36.97347837009956" lon="15.046169267651639"><ele>448.3333333333333</ele><time>2026-04-06T16:00:19Z</time></trkpt><trkpt lat="36.973438759891025" lon="15.046362702816456"><ele>450.66666666666663</ele><time>2026-04-06T16:00:20Z</time></trkpt><trkpt lat="36.97339395433368" lon="15.0465491720886"><ele>453.0</ele><time>2026-04-06T16:00:21Z</time></trkpt><trkpt lat="36.97334981370698" lon="15.046708193716897"><ele>453.75</ele><time>2026-04-06T16:00:22Z</time></trkpt><trkpt lat="36.97329362135885" lon="15.046851618996827"><ele>454.5</ele><time>2026-04-06T16:00:23Z</time></trkpt><trkpt lat="36.97321850250458" lon="15.04700732783449"><ele>455.25</ele><time>2026-04-06T16:00:24Z</time></trkpt><trkpt lat="36.9731348844508" lon="15.047164107204747"><ele>456.0</ele><time>2026-04-06T16:00:25Z</time></trkpt><trkpt lat="36.97304769221411" lon="15.04731615514456"><ele>456.0</ele><time>2026-04-06T16:00:26Z</time></trkpt><trkpt lat="36.97295566394702" lon="15.047458990058908"><ele>456.0</ele><time>2026-04-06T16:00:27Z</time></trkpt><trkpt lat="36.9728501953174" lon="15.047586046503705"><ele>456.0</ele><time>2026-04-06T16:00:28Z</time></trkpt><trkpt lat="36.97274820352055" lon="15.047724933014052"><ele>456.0</ele><time>2026-04-06T16:00:29Z</time></trkpt><trkpt lat="36.97264137976494" lon="15.047838619565415"><ele>456.8</ele><time>2026-04-06T16:00:30Z</time></trkpt><trkpt lat="36.97254715321892" lon="15.047941165792373"><ele>457.6</ele><time>2026-04-06T16:00:31Z</time></trkpt><trkpt lat="36.97247929593445" lon="15.048032302865915"><ele>458.4</ele><time>2026-04-06T16:00:32Z</time></trkpt><trkpt lat="36.97245709607955" lon="15.0481325607501"><ele>459.2</ele><time>2026-04-06T16:00:33Z</time></trkpt><trkpt lat="36.972424204850626" lon="15.048241670619666"><ele>460.0</ele><time>2026-04-06T16:00:34Z</time></trkpt><trkpt lat="36.97245767445013" lon="15.048378046492477"><ele>462.0</ele><time>2026-04-06T16:00:35Z</time></trkpt><trkpt lat="36.972512514373065" lon="15.048535257577417"><ele>464.0</ele><time>2026-04-06T16:00:36Z</time></trkpt><trkpt lat="36.97258011899783" lon="15.04869917842224"><ele>466.0</ele><time>2026-04-06T16:00:37Z</time></trkpt><trkpt lat="36.97264694035928" lon="15.048865288401728"><ele>468.0</ele><time>2026-04-06T16:00:38Z</time></trkpt><trkpt lat="36.97268254743293" lon="15.04901439798252"><ele>472.0</ele><time>2026-04-06T16:00:39Z</time></trkpt><trkpt lat="36.97270691225936" lon="15.049134210938645"><ele>476.0</ele><time>2026-04-06T16:00:40Z</time></trkpt><trkpt lat="36.972715663242596" lon="15.049271666482923"><ele>480.0</ele><time>2026-04-06T16:00:41Z</time></trkpt><trkpt lat="36.97270293813175" lon="15.04941918209418"><ele>484.0</ele><time>2026-04-06T16:00:42Z</time></trkpt><trkpt lat="36.97267909930444" lon="15.04956938623641"><ele>484.0</ele><time>2026-04-06T16:00:43Z</time></trkpt><trkpt lat="36.972651290917" lon="15.049743004378614"><ele>484.0</ele><time>2026-04-06T16:00:44Z</time></trkpt><trkpt lat="36.97262256322624" lon="15.049931025471617"><ele>484.0</ele><time>2026-04-06T16:00:45Z</time></trkpt><trkpt lat="36.97259405647345" lon="15.050116984875626"><ele>484.0</ele><time>2026-04-06T16:00:46Z</time></trkpt><trkpt lat="36.97255908694967" lon="15.050323010398055"><ele>481.6666666666667</ele><time>2026-04-06T16:00:47Z</time></trkpt><trkpt lat="36.97252189535551" lon="15.050537844449725"><ele>479.33333333333337</ele><time>2026-04-06T16:00:48Z</time></trkpt><trkpt lat="36.97248734645871" lon="15.050758632117399"><ele>477.0</ele><time>2026-04-06T16:00:49Z</time></trkpt><trkpt lat="36.97245246077057" lon="15.050986194682357"><ele>477.0</ele><time>2026-04-06T16:00:50Z</time></trkpt><trkpt lat="36.97241729570814" lon="15.051215579552245"><ele>477.0</ele><time>2026-04-06T16:00:51Z</time></trkpt><trkpt lat="36.97238258100548" lon="15.051434410615117"><ele>477.0</ele><time>2026-04-06T16:00:52Z</time></trkpt><trkpt lat="36.972349098075156" lon="15.051643398466634"><ele>477.75</ele><time>2026-04-06T16:00:53Z</time></trkpt><trkpt lat="36.972318898271446" lon="15.051831536745931"><ele>478.5</ele><time>2026-04-06T16:00:54Z</time></trkpt><trkpt lat="36.9722901363158" lon="15.052009621555417"><ele>479.25</ele><time>2026-04-06T16:00:55Z</time></trkpt><trkpt lat="36.972261022667894" lon="15.052189028337168"><ele>480.0</ele><time>2026-04-06T16:00:56Z</time></trkpt><trkpt lat="36.9722349868582" lon="15.052345821797193"><ele>481.0</ele><time>2026-04-06T16:00:57Z</time></trkpt><trkpt lat="36.97220855861446" lon="15.05249572441768"><ele>482.0</ele><time>2026-04-06T16:00:58Z</time></trkpt><trkpt lat="36.97217739464677" lon="15.052625529805239"><ele>483.0</ele><time>2026-04-06T16:00:59Z</time></trkpt><trkpt lat="36.97212727837387" lon="15.0527415363688"><ele>484.0</ele><time>2026-04-06T16:01:00Z</time></trkpt><trkpt lat="36.97206069153602" lon="15.052870788541727"><ele>484.0</ele><time>2026-04-06T16:01:01Z</time></trkpt><trkpt lat="36.97198096236294" lon="15.053009220793866"><ele>484.0</ele><time>2026-04-06T16:01:02Z</time></trkpt><trkpt lat="36.9718966668316" lon="15.053144909454753"><ele>484.0</ele><time>2026-04-06T16:01:03Z</time></trkpt><trkpt lat="36.97183352979254" lon="15.05327949937925"><ele>484.0</ele><time>2026-04-06T16:01:04Z</time></trkpt><trkpt lat="36.97176675342002" lon="15.053394680171284"><ele>485.0</ele><time>2026-04-06T16:01:05Z</time></trkpt><trkpt lat="36.97170033703604" lon="15.05353015586616"><ele>486.0</ele><time>2026-04-06T16:01:06Z</time></trkpt><trkpt lat="36.97166377150443" lon="15.053725730099897"><ele>487.0</ele><time>2026-04-06T16:01:07Z</time></trkpt><trkpt lat="36.97161860904016" lon="15.05391444519391"><ele>488.0</ele><time>2026-04-06T16:01:08Z</time></trkpt><trkpt lat="36.9715734175492" lon="15.054095252448322"><ele>486.0</ele><time>2026-04-06T16:01:09Z</time></trkpt><trkpt lat="36.97153036428431" lon="15.054267504858673"><ele>484.0</ele><time>2026-04-06T16:01:10Z</time></trkpt><trkpt lat="36.97148954023812" lon="15.054437848667174"><ele>482.0</ele><time>2026-04-06T16:01:11Z</time></trkpt><trkpt lat="36.97144975548382" lon="15.054604046682645"><ele>480.0</ele><time>2026-04-06T16:01:12Z</time></trkpt><trkpt lat="36.97140878947247" lon="15.054775179240691"><ele>480.0</ele><time>2026-04-06T16:01:13Z</time></trkpt><trkpt lat="36.971366446118644" lon="15.054952065563693"><ele>480.0</ele><time>2026-04-06T16:01:14Z</time></trkpt><trkpt lat="36.97132312569733" lon="15.05512409706064"><ele>480.0</ele><time>2026-04-06T16:01:15Z</time></trkpt><trkpt lat="36.97128194410435" lon="15.05527930370476"><ele>480.0</ele><time>2026-04-06T16:01:16Z</time></trkpt><trkpt lat="36.97124515136089" lon="15.055421434015729"><ele>480.0</ele><time>2026-04-06T16:01:17Z</time></trkpt><trkpt lat="36.97121286493912" lon="15.055558370109091"><ele>480.0</ele><time>2026-04-06T16:01:18Z</time></trkpt><trkpt lat="36.97118429349016" lon="15.055700335107762"><ele>480.0</ele><time>2026-04-06T16:01:19Z</time></trkpt><trkpt lat="36.97115844006433" lon="15.055850392533946"><ele>480.0</ele><time>2026-04-06T16:01:20Z</time></trkpt><trkpt lat="36.9711326864716" lon="15.056006857122531"><ele>478.75</ele><time>2026-04-06T16:01:21Z</time></trkpt><trkpt lat="36.97110852337652" lon="15.056167080581991"><ele>477.5</ele><time>2026-04-06T16:01:22Z</time></trkpt><trkpt lat="36.97108452998887" lon="15.05632617882615"><ele>476.25</ele><time>2026-04-06T16:01:23Z</time></trkpt><trkpt lat="36.971059367170206" lon="15.056489872883985"><ele>475.0</ele><time>2026-04-06T16:01:24Z</time></trkpt><trkpt lat="36.971033508830196" lon="15.056650547374003"><ele>473.25</ele><time>2026-04-06T16:01:25Z</time></trkpt><trkpt lat="36.97100773164775" lon="15.05680922100298"><ele>471.5</ele><time>2026-04-06T16:01:26Z</time></trkpt><trkpt lat="36.97098009047214" lon="15.056969313987965"><ele>469.75</ele><time>2026-04-06T16:01:27Z</time></trkpt><trkpt lat="36.970952376584016" lon="15.057121158575178"><ele>468.0</ele><time>2026-04-06T16:01:28Z</time></trkpt><trkpt lat="36.97091110330239" lon="15.057264347001638"><ele>470.0</ele><time>2026-04-06T16:01:29Z</time></trkpt><trkpt lat="36.970853096275555" lon="15.057402574979363"><ele>472.0</ele><time>2026-04-06T16:01:30Z</time></trkpt><trkpt lat="36.97078995456164" lon="15.05753991480605"><ele>474.0</ele><time>2026-04-06T16:01:31Z</time></trkpt><trkpt lat="36.97072275386762" lon="15.057675188937749"><ele>476.0</ele><time>2026-04-06T16:01:32Z</time></trkpt><trkpt lat="36.97065607774271" lon="15.057809407091613"><ele>476.0</ele><time>2026-04-06T16:01:33Z</time></trkpt><trkpt lat="36.97058933781233" lon="15.057943725232455"><ele>476.0</ele><time>2026-04-06T16:01:34Z</time></trkpt><trkpt lat="36.97052102006185" lon="15.058078881626201"><ele>476.0</ele><time>2026-04-06T16:01:35Z</time></trkpt><trkpt lat="36.97045227390189" lon="15.058211315731524"><ele>476.0</ele><time>2026-04-06T16:01:36Z</time></trkpt><trkpt lat="36.970384098319556" lon="15.058349838388134"><ele>474.75</ele><time>2026-04-06T16:01:37Z</time></trkpt><trkpt lat="36.970331118120946" lon="15.0584901318427"><ele>473.5</ele><time>2026-04-06T16:01:38Z</time></trkpt><trkpt lat="36.97029493753129" lon="15.058635453896729"><ele>472.25</ele><time>2026-04-06T16:01:39Z</time></trkpt><trkpt lat="36.97028803910296" lon="15.058796129773741"><ele>471.0</ele><time>2026-04-06T16:01:40Z</time></trkpt><trkpt lat="36.97029372416082" lon="15.058958383547777"><ele>471.75</ele><time>2026-04-06T16:01:41Z</time></trkpt><trkpt lat="36.97031229096513" lon="15.059120681779294"><ele>472.5</ele><time>2026-04-06T16:01:42Z</time></trkpt><trkpt lat="36.97034761778499" lon="15.059285498292011"><ele>473.25</ele><time>2026-04-06T16:01:43Z</time></trkpt><trkpt lat="36.970387083094344" lon="15.059437945802735"><ele>474.0</ele><time>2026-04-06T16:01:44Z</time></trkpt><trkpt lat="36.970425285604826" lon="15.059587476226385"><ele>474.0</ele><time>2026-04-06T16:01:45Z</time></trkpt><trkpt lat="36.97046319448838" lon="15.059738623402751"><ele>474.0</ele><time>2026-04-06T16:01:46Z</time></trkpt><trkpt lat="36.97050083494626" lon="15.059888700777824"><ele>474.0</ele><time>2026-04-06T16:01:47Z</time></trkpt><trkpt lat="36.97053369684125" lon="15.06003411456289"><ele>474.0</ele><time>2026-04-06T16:01:48Z</time></trkpt><trkpt lat="36.97056480932914" lon="15.060172568220999"><ele>475.2</ele><time>2026-04-06T16:01:49Z</time></trkpt><trkpt lat="36.970593997112225" lon="15.060302456246516"><ele>476.4</ele><time>2026-04-06T16:01:50Z</time></trkpt><trkpt lat="36.97062282258504" lon="15.060427411327396"><ele>477.6</ele><time>2026-04-06T16:01:51Z</time></trkpt><trkpt lat="36.970653072349734" lon="15.060553678629041"><ele>478.8</ele><time>2026-04-06T16:01:52Z</time></trkpt><trkpt lat="36.97068249257907" lon="15.060676483266354"><ele>480.0</ele><time>2026-04-06T16:01:53Z</time></trkpt><trkpt lat="36.9707129858497" lon="15.060803768226796"><ele>481.2</ele><time>2026-04-06T16:01:54Z</time></trkpt><trkpt lat="36.97074576817097" lon="15.060935326958614"><ele>482.4</ele><time>2026-04-06T16:01:55Z</time></trkpt><trkpt lat="36.97077742380215" lon="15.061063824100179"><ele>483.6</ele><time>2026-04-06T16:01:56Z</time></trkpt><trkpt lat="36.97080900187185" lon="15.061197496341732"><ele>484.8</ele><time>2026-04-06T16:01:57Z</time></trkpt><trkpt lat="36.97084085898175" lon="15.06133208531031"><ele>486.0</ele><time>2026-04-06T16:01:58Z</time></trkpt><trkpt lat="36.970865289454" lon="15.061460386726228"><ele>487.0</ele><time>2026-04-06T16:01:59Z</time></trkpt><trkpt lat="36.9708770400533" lon="15.061588934039516"><ele>488.0</ele><time>2026-04-06T16:02:00Z</time></trkpt><trkpt lat="36.97087482571242" lon="15.061726221810524"><ele>489.0</ele><time>2026-04-06T16:02:01Z</time></trkpt><trkpt lat="36.97086600603685" lon="15.061868750642875"><ele>490.0</ele><time>2026-04-06T16:02:02Z</time></trkpt><trkpt lat="36.970856696494124" lon="15.062000230192803"><ele>491.0</ele><time>2026-04-06T16:02:03Z</time></trkpt><trkpt lat="36.970847472027216" lon="15.062121548146763"><ele>490.99999999999994</ele><time>2026-04-06T16:02:04.001Z</time></trkpt><trkpt lat="36.97083970440627" lon="15.062223705948684"><ele>491.0</ele><time>2026-04-06T16:02:05.001Z</time></trkpt><trkpt lat="36.97083317719468" lon="15.062319649519953"><ele>491.0</ele><time>2026-04-06T16:02:06.001Z</time></trkpt><trkpt lat="36.97082803391754" lon="15.062399611015522"><ele>491.0</ele><time>2026-04-06T16:02:07.001Z</time></trkpt><trkpt lat="36.97084195612233" lon="15.062483077741463"><ele>490.99999999999994</ele><time>2026-04-06T16:02:08.001Z</time></trkpt><trkpt lat="36.97092003245636" lon="15.062549990999193"><ele>491.0</ele><time>2026-04-06T16:02:09.001Z</time></trkpt><trkpt lat="36.97102052462994" lon="15.062540764449786"><ele>492.8</ele><time>2026-04-06T16:02:10.001Z</time></trkpt><trkpt lat="36.97109778742035" lon="15.062587508483345"><ele>494.6</ele><time>2026-04-06T16:02:11.001Z</time></trkpt><trkpt lat="36.97118508781535" lon="15.062613424012525"><ele>496.4</ele><time>2026-04-06T16:02:12.001Z</time></trkpt><trkpt lat="36.97128003587526" lon="15.0626458453279"><ele>498.2</ele><time>2026-04-06T16:02:13.001Z</time></trkpt><trkpt lat="36.971376359951" lon="15.06267873651697"><ele>500.0</ele><time>2026-04-06T16:02:14.001Z</time></trkpt><trkpt lat="36.97146947419445" lon="15.0627154452489"><ele>500.0</ele><time>2026-04-06T16:02:15.001Z</time></trkpt><trkpt lat="36.97156050613176" lon="15.062760272780281"><ele>500.0</ele><time>2026-04-06T16:02:16.001Z</time></trkpt><trkpt lat="36.971637190448654" lon="15.062815413744762"><ele>500.0</ele><time>2026-04-06T16:02:17.001Z</time></trkpt><trkpt lat="36.971711007279026" lon="15.062880358875917"><ele>500.0</ele><time>2026-04-06T16:02:18.001Z</time></trkpt><trkpt lat="36.97177551097502" lon="15.062965454307882"><ele>500.0</ele><time>2026-04-06T16:02:19Z</time></trkpt><trkpt lat="36.97183460361343" lon="15.063053627726406"><ele>499.6</ele><time>2026-04-06T16:02:20Z</time></trkpt><trkpt lat="36.97189723541489" lon="15.063145230082576"><ele>499.2</ele><time>2026-04-06T16:02:21Z</time></trkpt><trkpt lat="36.97194560984462" lon="15.06325131328053"><ele>498.79999999999995</ele><time>2026-04-06T16:02:22Z</time></trkpt><trkpt lat="36.97199109794106" lon="15.063374463292181"><ele>498.4</ele><time>2026-04-06T16:02:23Z</time></trkpt><trkpt lat="36.972028857909145" lon="15.063517213125346"><ele>498.0</ele><time>2026-04-06T16:02:24Z</time></trkpt><trkpt lat="36.972056729701265" lon="15.06365737025086"><ele>498.0</ele><time>2026-04-06T16:02:25Z</time></trkpt><trkpt lat="36.972082119962174" lon="15.06379272849071"><ele>498.0</ele><time>2026-04-06T16:02:26Z</time></trkpt><trkpt lat="36.972102589952435" lon="15.063932273219178"><ele>498.0</ele><time>2026-04-06T16:02:27Z</time></trkpt><trkpt lat="36.9721177000666" lon="15.064076474401466"><ele>498.0</ele><time>2026-04-06T16:02:28Z</time></trkpt><trkpt lat="36.972129033083874" lon="15.064220943781809"><ele>499.5</ele><time>2026-04-06T16:02:29Z</time></trkpt><trkpt lat="36.97213859787605" lon="15.064366436590227"><ele>501.0</ele><time>2026-04-06T16:02:30Z</time></trkpt><trkpt lat="36.97214705068202" lon="15.064512224144693"><ele>502.5</ele><time>2026-04-06T16:02:31Z</time></trkpt><trkpt lat="36.97215670922018" lon="15.064655243908545"><ele>504.0</ele><time>2026-04-06T16:02:32Z</time></trkpt><trkpt lat="36.972168134680715" lon="15.064792685488868"><ele>504.0</ele><time>2026-04-06T16:02:33Z</time></trkpt><trkpt lat="36.97217544437427" lon="15.064916668126811"><ele>504.0</ele><time>2026-04-06T16:02:34Z</time></trkpt><trkpt lat="36.97217793122495" lon="15.065030264306895"><ele>504.0</ele><time>2026-04-06T16:02:35Z</time></trkpt><trkpt lat="36.97215865445402" lon="15.06513413454424"><ele>504.0</ele><time>2026-04-06T16:02:36Z</time></trkpt><trkpt lat="36.97211699576078" lon="15.06524897909659"><ele>504.0</ele><time>2026-04-06T16:02:37Z</time></trkpt><trkpt lat="36.972067666540866" lon="15.065373638238011"><ele>504.0</ele><time>2026-04-06T16:02:38Z</time></trkpt><trkpt lat="36.9720152142072" lon="15.065499055209182"><ele>504.0</ele><time>2026-04-06T16:02:39Z</time></trkpt><trkpt lat="36.97196432646285" lon="15.065628425757442"><ele>504.0</ele><time>2026-04-06T16:02:40Z</time></trkpt><trkpt lat="36.97191344794838" lon="15.065772550975995"><ele>504.0</ele><time>2026-04-06T16:02:41Z</time></trkpt><trkpt lat="36.97186774961605" lon="15.065924813976775"><ele>502.75</ele><time>2026-04-06T16:02:42Z</time></trkpt><trkpt lat="36.9718325858328" lon="15.066079425603604"><ele>501.5</ele><time>2026-04-06T16:02:43Z</time></trkpt><trkpt lat="36.97180699666067" lon="15.06623205777267"><ele>500.25</ele><time>2026-04-06T16:02:44Z</time></trkpt><trkpt lat="36.97178282618532" lon="15.066384183154167"><ele>499.0</ele><time>2026-04-06T16:02:45Z</time></trkpt><trkpt lat="36.97175971771184" lon="15.066544780715745"><ele>498.25</ele><time>2026-04-06T16:02:46Z</time></trkpt><trkpt lat="36.971733687952806" lon="15.066703197208248"><ele>497.5</ele><time>2026-04-06T16:02:47Z</time></trkpt><trkpt lat="36.97170547730417" lon="15.066854934155574"><ele>496.75</ele><time>2026-04-06T16:02:48Z</time></trkpt><trkpt lat="36.9716741057102" lon="15.067003876952963"><ele>496.0</ele><time>2026-04-06T16:02:49Z</time></trkpt><trkpt lat="36.971640702868235" lon="15.067149351866197"><ele>497.5</ele><time>2026-04-06T16:02:50Z</time></trkpt><trkpt lat="36.97160247351318" lon="15.067294762298305"><ele>499.0</ele><time>2026-04-06T16:02:51Z</time></trkpt><trkpt lat="36.9715489013882" lon="15.06744455502418"><ele>500.5</ele><time>2026-04-06T16:02:52Z</time></trkpt><trkpt lat="36.971485519872516" lon="15.067600886190629"><ele>502.0</ele><time>2026-04-06T16:02:53Z</time></trkpt><trkpt lat="36.97141546529281" lon="15.067763704391167"><ele>502.0</ele><time>2026-04-06T16:02:54Z</time></trkpt><trkpt lat="36.97134851516756" lon="15.06792249415605"><ele>502.0</ele><time>2026-04-06T16:02:55Z</time></trkpt><trkpt lat="36.97128446956636" lon="15.068074394869566"><ele>502.0</ele><time>2026-04-06T16:02:56Z</time></trkpt><trkpt lat="36.97122430581053" lon="15.068219503068201"><ele>502.0</ele><time>2026-04-06T16:02:57Z</time></trkpt><trkpt lat="36.971165258954315" lon="15.068362600094108"><ele>501.0</ele><time>2026-04-06T16:02:58Z</time></trkpt><trkpt lat="36.97110523881399" lon="15.068508055843788"><ele>500.0</ele><time>2026-04-06T16:02:59Z</time></trkpt><trkpt lat="36.97104510030081" lon="15.068652353823525"><ele>499.0</ele><time>2026-04-06T16:03:00Z</time></trkpt><trkpt lat="36.97097844394144" lon="15.068795711251065"><ele>498.0</ele><time>2026-04-06T16:03:01Z</time></trkpt><trkpt lat="36.970903336288515" lon="15.068926828625475"><ele>497.5</ele><time>2026-04-06T16:03:02Z</time></trkpt><trkpt lat="36.970820825853785" lon="15.069041842116983"><ele>497.0</ele><time>2026-04-06T16:03:03Z</time></trkpt><trkpt lat="36.970724721883506" lon="15.069140402367662"><ele>496.5</ele><time>2026-04-06T16:03:04Z</time></trkpt><trkpt lat="36.97062663276988" lon="15.069259585481477"><ele>496.0</ele><time>2026-04-06T16:03:05Z</time></trkpt><trkpt lat="36.97052074927594" lon="15.06936573967194"><ele>496.0</ele><time>2026-04-06T16:03:06Z</time></trkpt><trkpt lat="36.97042778839361" lon="15.069464230791741"><ele>496.0</ele><time>2026-04-06T16:03:07Z</time></trkpt><trkpt lat="36.970335196413416" lon="15.069553153283229"><ele>496.0</ele><time>2026-04-06T16:03:08Z</time></trkpt><trkpt lat="36.970264045734" lon="15.069677840915386"><ele>496.0</ele><time>2026-04-06T16:03:09Z</time></trkpt><trkpt lat="36.97020051986382" lon="15.069806518753202"><ele>496.25</ele><time>2026-04-06T16:03:10Z</time></trkpt><trkpt lat="36.970157943140755" lon="15.06995292477681"><ele>496.5</ele><time>2026-04-06T16:03:11Z</time></trkpt><trkpt lat="36.97013269802835" lon="15.070097688040681"><ele>496.75</ele><time>2026-04-06T16:03:12Z</time></trkpt><trkpt lat="36.970111703277986" lon="15.070228195529834"><ele>497.0</ele><time>2026-04-06T16:03:13Z</time></trkpt><trkpt lat="36.970084294477836" lon="15.070358818591737"><ele>497.0</ele><time>2026-04-06T16:03:14Z</time></trkpt><trkpt lat="36.97004791780856" lon="15.070482843477508"><ele>497.0</ele><time>2026-04-06T16:03:15Z</time></trkpt><trkpt lat="36.9699817788895" lon="15.070594157668857"><ele>497.0</ele><time>2026-04-06T16:03:16Z</time></trkpt><trkpt lat="36.96989426105521" lon="15.070705371562799"><ele>497.0</ele><time>2026-04-06T16:03:17Z</time></trkpt><trkpt lat="36.969816443961335" lon="15.070825887428972"><ele>495.75</ele><time>2026-04-06T16:03:18Z</time></trkpt><trkpt lat="36.969730395678845" lon="15.070933744497882"><ele>494.5</ele><time>2026-04-06T16:03:19Z</time></trkpt><trkpt lat="36.969630843796025" lon="15.07102568144937"><ele>493.25</ele><time>2026-04-06T16:03:20Z</time></trkpt><trkpt lat="36.96956051243296" lon="15.071144720640625"><ele>492.0</ele><time>2026-04-06T16:03:21Z</time></trkpt><trkpt lat="36.96948395051837" lon="15.071250513531892"><ele>492.0</ele><time>2026-04-06T16:03:22Z</time></trkpt><trkpt lat="36.969441068574724" lon="15.07139186572572"><ele>492.0</ele><time>2026-04-06T16:03:23Z</time></trkpt><trkpt lat="36.9694173051881" lon="15.071548366648994"><ele>492.0</ele><time>2026-04-06T16:03:24Z</time></trkpt><trkpt lat="36.96939840878409" lon="15.07169481380943"><ele>492.0</ele><time>2026-04-06T16:03:25Z</time></trkpt><trkpt lat="36.96937836184556" lon="15.071850177517657"><ele>490.75</ele><time>2026-04-06T16:03:26Z</time></trkpt><trkpt lat="36.96935843383482" lon="15.072004619721783"><ele>489.5</ele><time>2026-04-06T16:03:27Z</time></trkpt><trkpt lat="36.96933883002985" lon="15.072153750269349"><ele>488.25</ele><time>2026-04-06T16:03:28Z</time></trkpt><trkpt lat="36.96931746667875" lon="15.0723037210058"><ele>487.0</ele><time>2026-04-06T16:03:29Z</time></trkpt><trkpt lat="36.9692941654688" lon="15.072453718336856"><ele>487.5</ele><time>2026-04-06T16:03:30Z</time></trkpt><trkpt lat="36.96926989398727" lon="15.072603320248135"><ele>488.0</ele><time>2026-04-06T16:03:31Z</time></trkpt><trkpt lat="36.969243944541056" lon="15.072756010488684"><ele>488.5</ele><time>2026-04-06T16:03:32Z</time></trkpt><trkpt lat="36.969217244407524" lon="15.072913117637551"><ele>489.0</ele><time>2026-04-06T16:03:33Z</time></trkpt><trkpt lat="36.96919125632036" lon="15.073066035190996"><ele>489.0</ele><time>2026-04-06T16:03:34Z</time></trkpt><trkpt lat="36.96916784431165" lon="15.073216692790814"><ele>489.0</ele><time>2026-04-06T16:03:35Z</time></trkpt><trkpt lat="36.96913310094753" lon="15.073376777417488"><ele>489.0</ele><time>2026-04-06T16:03:36Z</time></trkpt><trkpt lat="36.96911270747473" lon="15.073550510984727"><ele>489.0</ele><time>2026-04-06T16:03:37Z</time></trkpt><trkpt lat="36.96905862834016" lon="15.073670833743854"><ele>489.0</ele><time>2026-04-06T16:03:38Z</time></trkpt><trkpt lat="36.969014722045635" lon="15.07377563064465"><ele>489.0</ele><time>2026-04-06T16:03:39Z</time></trkpt><trkpt lat="36.968971801316435" lon="15.073880105828778"><ele>489.0</ele><time>2026-04-06T16:03:40Z</time></trkpt><trkpt lat="36.96892590758289" lon="15.073982539372558"><ele>489.0</ele><time>2026-04-06T16:03:41Z</time></trkpt><trkpt lat="36.96888073854004" lon="15.07409122457807"><ele>489.0</ele><time>2026-04-06T16:03:42Z</time></trkpt><trkpt lat="36.96880520725592" lon="15.074185736285228"><ele>488.0</ele><time>2026-04-06T16:03:43Z</time></trkpt><trkpt lat="36.96875073407185" lon="15.074301114515027"><ele>487.0</ele><time>2026-04-06T16:03:44Z</time></trkpt><trkpt lat="36.96869460293025" lon="15.074421378176634"><ele>486.0</ele><time>2026-04-06T16:03:45Z</time></trkpt><trkpt lat="36.96864481868047" lon="15.074556750743112"><ele>485.0</ele><time>2026-04-06T16:03:46Z</time></trkpt><trkpt lat="36.9686099750825" lon="15.07470425317516"><ele>485.0</ele><time>2026-04-06T16:03:47Z</time></trkpt><trkpt lat="36.968582883016566" lon="15.074873148737417"><ele>485.0</ele><time>2026-04-06T16:03:48Z</time></trkpt><trkpt lat="36.96856688982176" lon="15.075036891810086"><ele>485.0</ele><time>2026-04-06T16:03:49Z</time></trkpt><trkpt lat="36.96855317994863" lon="15.075187328227363"><ele>485.0</ele><time>2026-04-06T16:03:50Z</time></trkpt><trkpt lat="36.9685404817792" lon="15.075329734110213"><ele>484.6</ele><time>2026-04-06T16:03:51Z</time></trkpt><trkpt lat="36.96852852812314" lon="15.075463242018763"><ele>484.2</ele><time>2026-04-06T16:03:52Z</time></trkpt><trkpt lat="36.968516161170605" lon="15.075590879708393"><ele>483.79999999999995</ele><time>2026-04-06T16:03:53Z</time></trkpt><trkpt lat="36.9685041513935" lon="15.075714831265591"><ele>483.4</ele><time>2026-04-06T16:03:54Z</time></trkpt><trkpt lat="36.968493004523175" lon="15.075838837221308"><ele>483.0</ele><time>2026-04-06T16:03:55Z</time></trkpt><trkpt lat="36.96848295350197" lon="15.075964944871187"><ele>483.0</ele><time>2026-04-06T16:03:56Z</time></trkpt><trkpt lat="36.96847565291776" lon="15.076092412545691"><ele>483.0</ele><time>2026-04-06T16:03:57Z</time></trkpt><trkpt lat="36.96847333115194" lon="15.076218480202561"><ele>483.0</ele><time>2026-04-06T16:03:58Z</time></trkpt><trkpt lat="36.96850316883173" lon="15.076363606231478"><ele>483.0</ele><time>2026-04-06T16:03:59Z</time></trkpt><trkpt lat="36.96857361575898" lon="15.076504862985033"><ele>483.2</ele><time>2026-04-06T16:04:00Z</time></trkpt><trkpt lat="36.96863654601476" lon="15.07662839784253"><ele>483.4</ele><time>2026-04-06T16:04:01Z</time></trkpt><trkpt lat="36.968693608393615" lon="15.076740413830105"><ele>483.59999999999997</ele><time>2026-04-06T16:04:02Z</time></trkpt><trkpt lat="36.96874451231224" lon="15.07684034045343"><ele>483.79999999999995</ele><time>2026-04-06T16:04:03Z</time></trkpt><trkpt lat="36.968793834072194" lon="15.076937161265453"><ele>484.0</ele><time>2026-04-06T16:04:04Z</time></trkpt><trkpt lat="36.96884066935564" lon="15.07702981702449"><ele>484.00000000000006</ele><time>2026-04-06T16:04:05Z</time></trkpt><trkpt lat="36.96888908872833" lon="15.077125710960315"><ele>484.0</ele><time>2026-04-06T16:04:06Z</time></trkpt><trkpt lat="36.96894019266087" lon="15.077226921471633"><ele>484.0</ele><time>2026-04-06T16:04:07Z</time></trkpt><trkpt lat="36.96899004678068" lon="15.077325618532047"><ele>484.0</ele><time>2026-04-06T16:04:08Z</time></trkpt><trkpt lat="36.96903861099691" lon="15.07741948810634"><ele>484.00000000000006</ele><time>2026-04-06T16:04:09Z</time></trkpt><trkpt lat="36.96907731996365" lon="15.07750591877392"><ele>484.0</ele><time>2026-04-06T16:04:10Z</time></trkpt><trkpt lat="36.96909106628044" lon="15.07760008541793"><ele>484.5</ele><time>2026-04-06T16:04:11Z</time></trkpt><trkpt lat="36.96906644680766" lon="15.077712824185923"><ele>485.0</ele><time>2026-04-06T16:04:12Z</time></trkpt><trkpt lat="36.96902453641657" lon="15.077869877210466"><ele>485.5</ele><time>2026-04-06T16:04:13Z</time></trkpt><trkpt lat="36.96897430487376" lon="15.078054055466081"><ele>486.0</ele><time>2026-04-06T16:04:14Z</time></trkpt><trkpt lat="36.96892094035667" lon="15.07825033434434"><ele>487.33333333333337</ele><time>2026-04-06T16:04:15Z</time></trkpt><trkpt lat="36.96886526031854" lon="15.078455130233788"><ele>488.6666666666667</ele><time>2026-04-06T16:04:16Z</time></trkpt><trkpt lat="36.96881089374915" lon="15.078655094094879"><ele>490.0</ele><time>2026-04-06T16:04:17Z</time></trkpt><trkpt lat="36.96877119217248" lon="15.078865620521041"><ele>490.0</ele><time>2026-04-06T16:04:18Z</time></trkpt><trkpt lat="36.968718143561546" lon="15.079070026000398"><ele>490.0</ele><time>2026-04-06T16:04:19Z</time></trkpt><trkpt lat="36.968654639332904" lon="15.079272533027638"><ele>490.0</ele><time>2026-04-06T16:04:20Z</time></trkpt><trkpt lat="36.968621019891934" lon="15.07947186803506"><ele>490.25</ele><time>2026-04-06T16:04:21Z</time></trkpt><trkpt lat="36.96859903737113" lon="15.07965469783023"><ele>490.5</ele><time>2026-04-06T16:04:22Z</time></trkpt><trkpt lat="36.968581818985015" lon="15.079815492151072"><ele>490.75</ele><time>2026-04-06T16:04:23Z</time></trkpt><trkpt lat="36.96856220142159" lon="15.0799999348145"><ele>491.0</ele><time>2026-04-06T16:04:24Z</time></trkpt><trkpt lat="36.968547136857026" lon="15.080147516521166"><ele>491.0</ele><time>2026-04-06T16:04:25Z</time></trkpt><trkpt lat="36.968533024944854" lon="15.080281347641137"><ele>491.0</ele><time>2026-04-06T16:04:26Z</time></trkpt><trkpt lat="36.96851698338223" lon="15.080402923103712"><ele>491.0</ele><time>2026-04-06T16:04:27Z</time></trkpt><trkpt lat="36.968492626822815" lon="15.080533371165014"><ele>491.0</ele><time>2026-04-06T16:04:28Z</time></trkpt><trkpt lat="36.968449562919005" lon="15.080676496291687"><ele>491.0</ele><time>2026-04-06T16:04:29Z</time></trkpt><trkpt lat="36.968403040548175" lon="15.0808245825994"><ele>491.25</ele><time>2026-04-06T16:04:30Z</time></trkpt><trkpt lat="36.968354359594436" lon="15.080970845880959"><ele>491.5</ele><time>2026-04-06T16:04:31Z</time></trkpt><trkpt lat="36.968303193775036" lon="15.081123055471037"><ele>491.75</ele><time>2026-04-06T16:04:32Z</time></trkpt><trkpt lat="36.96824918408075" lon="15.081283724952769"><ele>492.0</ele><time>2026-04-06T16:04:33Z</time></trkpt><trkpt lat="36.968194703648656" lon="15.081445795120764"><ele>492.0</ele><time>2026-04-06T16:04:34Z</time></trkpt><trkpt lat="36.96815148235201" lon="15.081576461170721"><ele>492.00000000000006</ele><time>2026-04-06T16:04:35Z</time></trkpt><trkpt lat="36.9681127190874" lon="15.081693963683096"><ele>492.00000000000006</ele><time>2026-04-06T16:04:36Z</time></trkpt><trkpt lat="36.9680889186572" lon="15.08181321487536"><ele>492.0</ele><time>2026-04-06T16:04:37Z</time></trkpt><trkpt lat="36.96805346173241" lon="15.081914443482459"><ele>492.0</ele><time>2026-04-06T16:04:38Z</time></trkpt><trkpt lat="36.96801403637798" lon="15.082029399366128"><ele>493.0</ele><time>2026-04-06T16:04:39Z</time></trkpt><trkpt lat="36.96797163689756" lon="15.08215497451634"><ele>494.0</ele><time>2026-04-06T16:04:40Z</time></trkpt><trkpt lat="36.9679298096774" lon="15.082284550665534"><ele>495.0</ele><time>2026-04-06T16:04:41Z</time></trkpt><trkpt lat="36.96787394085507" lon="15.082409719844586"><ele>496.0</ele><time>2026-04-06T16:04:42Z</time></trkpt><trkpt lat="36.96782655724347" lon="15.08254546752842"><ele>496.75</ele><time>2026-04-06T16:04:43Z</time></trkpt><trkpt lat="36.96777155275899" lon="15.08267801862698"><ele>497.5</ele><time>2026-04-06T16:04:44Z</time></trkpt><trkpt lat="36.967702560418466" lon="15.082793998569743"><ele>498.25</ele><time>2026-04-06T16:04:45Z</time></trkpt><trkpt lat="36.967627979978886" lon="15.082913347268907"><ele>499.0</ele><time>2026-04-06T16:04:46Z</time></trkpt><trkpt lat="36.96756997066956" lon="15.08303399611206"><ele>499.25</ele><time>2026-04-06T16:04:47Z</time></trkpt><trkpt lat="36.96749179297911" lon="15.083126676178553"><ele>499.5</ele><time>2026-04-06T16:04:48Z</time></trkpt><trkpt lat="36.967436073540654" lon="15.083246073002684"><ele>499.75</ele><time>2026-04-06T16:04:49Z</time></trkpt><trkpt lat="36.96736039426707" lon="15.083356338203707"><ele>500.0</ele><time>2026-04-06T16:04:50Z</time></trkpt><trkpt lat="36.96727722960051" lon="15.083472910781163"><ele>500.5</ele><time>2026-04-06T16:04:51Z</time></trkpt><trkpt lat="36.96717106904705" lon="15.083590314927148"><ele>501.0</ele><time>2026-04-06T16:04:52Z</time></trkpt><trkpt lat="36.967060930877075" lon="15.083717860909948"><ele>501.5</ele><time>2026-04-06T16:04:53Z</time></trkpt><trkpt lat="36.96694572590888" lon="15.083849928448728"><ele>502.0</ele><time>2026-04-06T16:04:54Z</time></trkpt><trkpt lat="36.96682019873121" lon="15.083994309570922"><ele>501.33333333333337</ele><time>2026-04-06T16:04:55Z</time></trkpt><trkpt lat="36.96669264828157" lon="15.084142052224083"><ele>500.66666666666663</ele><time>2026-04-06T16:04:56Z</time></trkpt><trkpt lat="36.9665772931628" lon="15.08429300604456"><ele>500.0</ele><time>2026-04-06T16:04:57Z</time></trkpt><trkpt lat="36.96645302488604" lon="15.084426840177706"><ele>500.0</ele><time>2026-04-06T16:04:58Z</time></trkpt><trkpt lat="36.96632640520735" lon="15.08455398429057"><ele>500.0</ele><time>2026-04-06T16:04:59Z</time></trkpt><trkpt lat="36.966206167052135" lon="15.08469134315938"><ele>500.0</ele><time>2026-04-06T16:05:00Z</time></trkpt><trkpt lat="36.96609975986269" lon="15.084841180199012"><ele>499.25</ele><time>2026-04-06T16:05:01Z</time></trkpt><trkpt lat="36.965982885146445" lon="15.084971780144867"><ele>498.5</ele><time>2026-04-06T16:05:02Z</time></trkpt><trkpt lat="36.96587032114386" lon="15.085096269378276"><ele>497.75</ele><time>2026-04-06T16:05:03Z</time></trkpt><trkpt lat="36.96577290913126" lon="15.085220802687132"><ele>497.0</ele><time>2026-04-06T16:05:04Z</time></trkpt><trkpt lat="36.9656995762788" lon="15.08535456626132"><ele>497.0</ele><time>2026-04-06T16:05:05Z</time></trkpt><trkpt lat="36.96563447831562" lon="15.085501859508991"><ele>497.0</ele><time>2026-04-06T16:05:06Z</time></trkpt><trkpt lat="36.96562387396785" lon="15.085694980910919"><ele>497.0</ele><time>2026-04-06T16:05:07Z</time></trkpt><trkpt lat="36.96561975957148" lon="15.085895621896041"><ele>496.3333333333333</ele><time>2026-04-06T16:05:08Z</time></trkpt><trkpt lat="36.96559605804916" lon="15.086099339981489"><ele>495.66666666666663</ele><time>2026-04-06T16:05:09Z</time></trkpt><trkpt lat="36.965587271168765" lon="15.086305491999775"><ele>495.0</ele><time>2026-04-06T16:05:10Z</time></trkpt><trkpt lat="36.96557896622744" lon="15.086500337049861"><ele>496.5</ele><time>2026-04-06T16:05:11Z</time></trkpt><trkpt lat="36.965571303852336" lon="15.086680106623499"><ele>498.0</ele><time>2026-04-06T16:05:12Z</time></trkpt><trkpt lat="36.96556455191822" lon="15.086840919136787"><ele>499.5</ele><time>2026-04-06T16:05:13Z</time></trkpt><trkpt lat="36.96555882943727" lon="15.08698067293751"><ele>501.0</ele><time>2026-04-06T16:05:14Z</time></trkpt><trkpt lat="36.96555413044775" lon="15.087095431336685"><ele>501.0</ele><time>2026-04-06T16:05:15Z</time></trkpt><trkpt lat="36.96554247195372" lon="15.087187887806321"><ele>501.0</ele><time>2026-04-06T16:05:16Z</time></trkpt><trkpt lat="36.96551011601589" lon="15.087266500359076"><ele>501.0</ele><time>2026-04-06T16:05:17Z</time></trkpt><trkpt lat="36.96545068264679" lon="15.08734963908623"><ele>501.0</ele><time>2026-04-06T16:05:18Z</time></trkpt><trkpt lat="36.96537238418962" lon="15.087444979391947"><ele>501.0</ele><time>2026-04-06T16:05:19Z</time></trkpt><trkpt lat="36.965278450956205" lon="15.0875236875866"><ele>501.6</ele><time>2026-04-06T16:05:20Z</time></trkpt><trkpt lat="36.965200622313176" lon="15.087599199808551"><ele>502.20000000000005</ele><time>2026-04-06T16:05:21Z</time></trkpt><trkpt lat="36.96513481526923" lon="15.087667520226367"><ele>502.79999999999995</ele><time>2026-04-06T16:05:22Z</time></trkpt><trkpt lat="36.96507532912505" lon="15.087747985054516"><ele>503.4</ele><time>2026-04-06T16:05:23Z</time></trkpt><trkpt lat="36.965056845896314" lon="15.087897817396737"><ele>504.0</ele><time>2026-04-06T16:05:24Z</time></trkpt><trkpt lat="36.965051810268456" lon="15.088077790668777"><ele>502.66666666666663</ele><time>2026-04-06T16:05:25Z</time></trkpt><trkpt lat="36.96504945202428" lon="15.088281211349496"><ele>501.3333333333333</ele><time>2026-04-06T16:05:26Z</time></trkpt><trkpt lat="36.965047840986664" lon="15.088494698061528"><ele>500.0</ele><time>2026-04-06T16:05:27Z</time></trkpt><trkpt lat="36.96504560893614" lon="15.08871194455875"><ele>500.0</ele><time>2026-04-06T16:05:28Z</time></trkpt><trkpt lat="36.9650428724123" lon="15.088942195689167"><ele>500.0</ele><time>2026-04-06T16:05:29Z</time></trkpt><trkpt lat="36.9650402701421" lon="15.089161150626184"><ele>500.0</ele><time>2026-04-06T16:05:30Z</time></trkpt><trkpt lat="36.96503790493561" lon="15.089360159032026"><ele>500.0</ele><time>2026-04-06T16:05:31Z</time></trkpt><trkpt lat="36.965035640856506" lon="15.08955065850116"><ele>500.0</ele><time>2026-04-06T16:05:32Z</time></trkpt><trkpt lat="36.96503345770059" lon="15.089734349217167"><ele>500.0</ele><time>2026-04-06T16:05:33Z</time></trkpt><trkpt lat="36.965028714217866" lon="15.089905533647453"><ele>500.0</ele><time>2026-04-06T16:05:34Z</time></trkpt><trkpt lat="36.96501064413573" lon="15.09006531334371"><ele>500.75</ele><time>2026-04-06T16:05:35Z</time></trkpt><trkpt lat="36.964970605549595" lon="15.090221563166555"><ele>501.5</ele><time>2026-04-06T16:05:36Z</time></trkpt><trkpt lat="36.964902304985074" lon="15.09038524098458"><ele>502.25</ele><time>2026-04-06T16:05:37Z</time></trkpt><trkpt lat="36.9648134101295" lon="15.090565066864293"><ele>503.0</ele><time>2026-04-06T16:05:38Z</time></trkpt><trkpt lat="36.96472471136877" lon="15.090744495983637"><ele>502.3333333333333</ele><time>2026-04-06T16:05:39Z</time></trkpt><trkpt lat="36.9646422420905" lon="15.090915891480478"><ele>501.66666666666663</ele><time>2026-04-06T16:05:40Z</time></trkpt><trkpt lat="36.964563106610896" lon="15.091082601630202"><ele>501.0</ele><time>2026-04-06T16:05:41Z</time></trkpt><trkpt lat="36.96448390762313" lon="15.091239914585662"><ele>501.0</ele><time>2026-04-06T16:05:42Z</time></trkpt><trkpt lat="36.964411587869506" lon="15.091393540001713"><ele>501.0</ele><time>2026-04-06T16:05:43Z</time></trkpt><trkpt lat="36.964354322742956" lon="15.091550629325482"><ele>501.0</ele><time>2026-04-06T16:05:44Z</time></trkpt><trkpt lat="36.96431339748913" lon="15.091714295647257"><ele>501.0</ele><time>2026-04-06T16:05:45Z</time></trkpt><trkpt lat="36.96429513415904" lon="15.091892748620223"><ele>500.25</ele><time>2026-04-06T16:05:46Z</time></trkpt><trkpt lat="36.96428312623449" lon="15.09205757153335"><ele>499.5</ele><time>2026-04-06T16:05:47Z</time></trkpt><trkpt lat="36.96425153247988" lon="15.092210635008056"><ele>498.75</ele><time>2026-04-06T16:05:48Z</time></trkpt><trkpt lat="36.964191529041635" lon="15.092376220927482"><ele>498.0</ele><time>2026-04-06T16:05:49Z</time></trkpt><trkpt lat="36.96411474435372" lon="15.09254936224922"><ele>497.5</ele><time>2026-04-06T16:05:50Z</time></trkpt><trkpt lat="36.96404144185472" lon="15.092714062093624"><ele>497.0</ele><time>2026-04-06T16:05:51Z</time></trkpt><trkpt lat="36.96397964338631" lon="15.092870678423235"><ele>496.5</ele><time>2026-04-06T16:05:52Z</time></trkpt><trkpt lat="36.96392169137368" lon="15.093009631758806"><ele>496.0</ele><time>2026-04-06T16:05:53Z</time></trkpt><trkpt lat="36.96386245579533" lon="15.09313615308656"><ele>495.5</ele><time>2026-04-06T16:05:54Z</time></trkpt><trkpt lat="36.96379543772859" lon="15.093259004290761"><ele>495.0</ele><time>2026-04-06T16:05:55Z</time></trkpt><trkpt lat="36.96372199460344" lon="15.093385066518241"><ele>494.5</ele><time>2026-04-06T16:05:56Z</time></trkpt><trkpt lat="36.96361704480755" lon="15.093503832494303"><ele>494.0</ele><time>2026-04-06T16:05:57Z</time></trkpt><trkpt lat="36.96350397757069" lon="15.093624785170675"><ele>494.0</ele><time>2026-04-06T16:05:58Z</time></trkpt><trkpt lat="36.9633799456028" lon="15.093742292805963"><ele>494.0</ele><time>2026-04-06T16:05:59Z</time></trkpt><trkpt lat="36.963248497161395" lon="15.093860659869078"><ele>494.0</ele><time>2026-04-06T16:06:00Z</time></trkpt><trkpt lat="36.963112370874775" lon="15.09398157766776"><ele>493.66666666666663</ele><time>2026-04-06T16:06:01Z</time></trkpt><trkpt lat="36.96296945493317" lon="15.094104484677667"><ele>493.33333333333337</ele><time>2026-04-06T16:06:02Z</time></trkpt><trkpt lat="36.96281935606205" lon="15.094230144710886"><ele>493.0</ele><time>2026-04-06T16:06:03Z</time></trkpt><trkpt lat="36.962662298162506" lon="15.094357524809045"><ele>492.6666666666667</ele><time>2026-04-06T16:06:04Z</time></trkpt><trkpt lat="36.96251323186283" lon="15.094481603689369"><ele>492.33333333333337</ele><time>2026-04-06T16:06:05Z</time></trkpt><trkpt lat="36.96236454872964" lon="15.094623935416616"><ele>492.0</ele><time>2026-04-06T16:06:06Z</time></trkpt><trkpt lat="36.96221764619045" lon="15.094767564398264"><ele>492.0</ele><time>2026-04-06T16:06:07Z</time></trkpt><trkpt lat="36.962073328797004" lon="15.094907390733008"><ele>492.0</ele><time>2026-04-06T16:06:08Z</time></trkpt><trkpt lat="36.961937345957296" lon="15.095036123843151"><ele>492.0</ele><time>2026-04-06T16:06:09Z</time></trkpt><trkpt lat="36.961806651362856" lon="15.095163783263292"><ele>492.0</ele><time>2026-04-06T16:06:10Z</time></trkpt><trkpt lat="36.961685153625346" lon="15.095320307470622"><ele>492.0</ele><time>2026-04-06T16:06:11Z</time></trkpt><trkpt lat="36.96157594474381" lon="15.09551268494525"><ele>492.0</ele><time>2026-04-06T16:06:12Z</time></trkpt><trkpt lat="36.96147987904148" lon="15.095709386390112"><ele>491.25</ele><time>2026-04-06T16:06:13Z</time></trkpt><trkpt lat="36.96137743152417" lon="15.09586248805054"><ele>490.5</ele><time>2026-04-06T16:06:14Z</time></trkpt><trkpt lat="36.961280517117665" lon="15.095986281683253"><ele>489.75</ele><time>2026-04-06T16:06:15Z</time></trkpt><trkpt lat="36.961174829256" lon="15.096093637496619"><ele>489.0</ele><time>2026-04-06T16:06:16Z</time></trkpt><trkpt lat="36.96103705430122" lon="15.09618818432285"><ele>489.0</ele><time>2026-04-06T16:06:17Z</time></trkpt><trkpt lat="36.960891241659155" lon="15.096306339329535"><ele>489.0</ele><time>2026-04-06T16:06:18Z</time></trkpt><trkpt lat="36.960728508237594" lon="15.096403087485173"><ele>489.0</ele><time>2026-04-06T16:06:19Z</time></trkpt><trkpt lat="36.96056714849915" lon="15.096498091521427"><ele>488.66666666666663</ele><time>2026-04-06T16:06:20Z</time></trkpt><trkpt lat="36.96041264411783" lon="15.096583366371652"><ele>488.3333333333333</ele><time>2026-04-06T16:06:21Z</time></trkpt><trkpt lat="36.96026116692139" lon="15.096666165208655"><ele>488.0</ele><time>2026-04-06T16:06:22Z</time></trkpt><trkpt lat="36.960107839654704" lon="15.096760272100205"><ele>488.66666666666663</ele><time>2026-04-06T16:06:23Z</time></trkpt><trkpt lat="36.959949989554225" lon="15.096864494165105"><ele>489.33333333333337</ele><time>2026-04-06T16:06:24Z</time></trkpt><trkpt lat="36.95979083829133" lon="15.0969759929151"><ele>490.0</ele><time>2026-04-06T16:06:25Z</time></trkpt><trkpt lat="36.95963329230065" lon="15.097096774050106"><ele>490.0</ele><time>2026-04-06T16:06:26Z</time></trkpt><trkpt lat="36.95948708086743" lon="15.097225397160742"><ele>490.0</ele><time>2026-04-06T16:06:27Z</time></trkpt><trkpt lat="36.95934382526628" lon="15.09735597882884"><ele>490.0</ele><time>2026-04-06T16:06:28Z</time></trkpt><trkpt lat="36.95918974070095" lon="15.097465426330027"><ele>489.0</ele><time>2026-04-06T16:06:29Z</time></trkpt><trkpt lat="36.95904726362706" lon="15.097593541065114"><ele>488.0</ele><time>2026-04-06T16:06:30Z</time></trkpt><trkpt lat="36.95892025659168" lon="15.09773338641447"><ele>487.0</ele><time>2026-04-06T16:06:31Z</time></trkpt><trkpt lat="36.958790493003015" lon="15.09785061386927"><ele>487.0</ele><time>2026-04-06T16:06:32Z</time></trkpt><trkpt lat="36.958662284409684" lon="15.097930627469598"><ele>487.0</ele><time>2026-04-06T16:06:33Z</time></trkpt><trkpt lat="36.958545584918745" lon="15.098015535645722"><ele>487.0</ele><time>2026-04-06T16:06:34Z</time></trkpt><trkpt lat="36.95841284415521" lon="15.098035112435435"><ele>487.0</ele><time>2026-04-06T16:06:35Z</time></trkpt><trkpt lat="36.95827207871729" lon="15.09802481706788"><ele>487.0</ele><time>2026-04-06T16:06:36Z</time></trkpt><trkpt lat="36.9581192060638" lon="15.097963820849936"><ele>487.0</ele><time>2026-04-06T16:06:37Z</time></trkpt><trkpt lat="36.957966407379374" lon="15.097913719666433"><ele>487.0</ele><time>2026-04-06T16:06:38Z</time></trkpt><trkpt lat="36.957825503588886" lon="15.097883159919997"><ele>487.0</ele><time>2026-04-06T16:06:39Z</time></trkpt><trkpt lat="36.95769913512459" lon="15.097869580472082"><ele>487.0</ele><time>2026-04-06T16:06:40Z</time></trkpt><trkpt lat="36.95757970730142" lon="15.097887042507026"><ele>487.0</ele><time>2026-04-06T16:06:41Z</time></trkpt><trkpt lat="36.957459201897585" lon="15.09794461559721"><ele>487.0</ele><time>2026-04-06T16:06:42Z</time></trkpt><trkpt lat="36.957336397537226" lon="15.098037447140511"><ele>488.33333333333337</ele><time>2026-04-06T16:06:43Z</time></trkpt><trkpt lat="36.957209893874115" lon="15.098148465220886"><ele>489.66666666666663</ele><time>2026-04-06T16:06:44Z</time></trkpt><trkpt lat="36.957080396943255" lon="15.098257089285815"><ele>491.0</ele><time>2026-04-06T16:06:45Z</time></trkpt><trkpt lat="36.95695409840642" lon="15.098383838461466"><ele>491.3333333333333</ele><time>2026-04-06T16:06:46Z</time></trkpt><trkpt lat="36.95684003409213" lon="15.098538700270648"><ele>491.66666666666663</ele><time>2026-04-06T16:06:47Z</time></trkpt><trkpt lat="36.95674121296306" lon="15.098693039943603"><ele>492.0</ele><time>2026-04-06T16:06:48Z</time></trkpt><trkpt lat="36.956636784880224" lon="15.098847071448812"><ele>492.25</ele><time>2026-04-06T16:06:49Z</time></trkpt><trkpt lat="36.956529094628685" lon="15.098996500446589"><ele>492.5</ele><time>2026-04-06T16:06:50Z</time></trkpt><trkpt lat="36.95642471971096" lon="15.099132244544522"><ele>492.75</ele><time>2026-04-06T16:06:51Z</time></trkpt><trkpt lat="36.95633192299336" lon="15.09925761038786"><ele>493.0</ele><time>2026-04-06T16:06:52Z</time></trkpt><trkpt lat="36.95622636900156" lon="15.09934373802081"><ele>493.0</ele><time>2026-04-06T16:06:53Z</time></trkpt><trkpt lat="36.95609580631045" lon="15.099411637951706"><ele>493.0</ele><time>2026-04-06T16:06:54Z</time></trkpt><trkpt lat="36.95594537074833" lon="15.099465561179235"><ele>493.0</ele><time>2026-04-06T16:06:55Z</time></trkpt><trkpt lat="36.955778693145035" lon="15.099500081335718"><ele>490.6666666666667</ele><time>2026-04-06T16:06:56Z</time></trkpt><trkpt lat="36.955612545513354" lon="15.099507236382726"><ele>488.33333333333337</ele><time>2026-04-06T16:06:57Z</time></trkpt><trkpt lat="36.955464492049444" lon="15.099515803118726"><ele>486.0</ele><time>2026-04-06T16:06:58Z</time></trkpt><trkpt lat="36.95531206140952" lon="15.099526469284188"><ele>486.0</ele><time>2026-04-06T16:06:59Z</time></trkpt><trkpt lat="36.95516259562843" lon="15.099540211823758"><ele>486.0</ele><time>2026-04-06T16:07:00Z</time></trkpt><trkpt lat="36.955005870993666" lon="15.09955739724969"><ele>486.0</ele><time>2026-04-06T16:07:01Z</time></trkpt><trkpt lat="36.95484317265807" lon="15.099590708278377"><ele>483.66666666666663</ele><time>2026-04-06T16:07:02Z</time></trkpt><trkpt lat="36.954679736567954" lon="15.099651946766157"><ele>481.3333333333333</ele><time>2026-04-06T16:07:03Z</time></trkpt><trkpt lat="36.95451511794507" lon="15.09972932425142"><ele>479.0</ele><time>2026-04-06T16:07:04Z</time></trkpt><trkpt lat="36.95434451285268" lon="15.099811326370812"><ele>476.3333333333333</ele><time>2026-04-06T16:07:05Z</time></trkpt><trkpt lat="36.954175643590325" lon="15.099888230740746"><ele>473.66666666666663</ele><time>2026-04-06T16:07:06Z</time></trkpt><trkpt lat="36.95401194939427" lon="15.099959623329866"><ele>471.0</ele><time>2026-04-06T16:07:07Z</time></trkpt><trkpt lat="36.95384962638693" lon="15.100025634341083"><ele>478.0</ele><time>2026-04-06T16:07:08Z</time></trkpt><trkpt lat="36.95369116845519" lon="15.100090529301086"><ele>485.0</ele><time>2026-04-06T16:07:09Z</time></trkpt><trkpt lat="36.95353730250698" lon="15.10015582263341"><ele>492.0</ele><time>2026-04-06T16:07:10Z</time></trkpt><trkpt lat="36.953389419790646" lon="15.10022095258612"><ele>489.0</ele><time>2026-04-06T16:07:11Z</time></trkpt><trkpt lat="36.95324377556155" lon="15.100275234885428"><ele>486.0</ele><time>2026-04-06T16:07:12Z</time></trkpt><trkpt lat="36.95310220814185" lon="15.100314169143092"><ele>483.0</ele><time>2026-04-06T16:07:13Z</time></trkpt><trkpt lat="36.952955736132935" lon="15.100330607236309"><ele>480.0</ele><time>2026-04-06T16:07:14Z</time></trkpt><trkpt lat="36.95278810047197" lon="15.100313336220955"><ele>480.0</ele><time>2026-04-06T16:07:15Z</time></trkpt><trkpt lat="36.95260690473961" lon="15.100289535301513"><ele>480.0</ele><time>2026-04-06T16:07:16Z</time></trkpt><trkpt lat="36.95241804145216" lon="15.100271515804161"><ele>480.0</ele><time>2026-04-06T16:07:17Z</time></trkpt><trkpt lat="36.95222792162168" lon="15.10025558976509"><ele>481.0</ele><time>2026-04-06T16:07:18Z</time></trkpt><trkpt lat="36.9520453669754" lon="15.100233247718936"><ele>482.0</ele><time>2026-04-06T16:07:19Z</time></trkpt><trkpt lat="36.951871470671826" lon="15.100214477003647"><ele>483.0</ele><time>2026-04-06T16:07:20Z</time></trkpt><trkpt lat="36.95169658901664" lon="15.100191076597707"><ele>483.0</ele><time>2026-04-06T16:07:21Z</time></trkpt><trkpt lat="36.95152535481942" lon="15.100168312636612"><ele>483.0</ele><time>2026-04-06T16:07:22Z</time></trkpt><trkpt lat="36.951363352997575" lon="15.100142166908956"><ele>483.0</ele><time>2026-04-06T16:07:23Z</time></trkpt><trkpt lat="36.951202063667395" lon="15.100113930832268"><ele>483.0</ele><time>2026-04-06T16:07:24Z</time></trkpt><trkpt lat="36.951050570073626" lon="15.100085334281864"><ele>483.0</ele><time>2026-04-06T16:07:25Z</time></trkpt><trkpt lat="36.950903322084635" lon="15.100056890506723"><ele>483.0</ele><time>2026-04-06T16:07:26Z</time></trkpt><trkpt lat="36.95076505465022" lon="15.100016918022227"><ele>483.0</ele><time>2026-04-06T16:07:27Z</time></trkpt><trkpt lat="36.950649912761044" lon="15.099966019361217"><ele>481.75</ele><time>2026-04-06T16:07:28Z</time></trkpt><trkpt lat="36.95057158865618" lon="15.099860348098279"><ele>480.5</ele><time>2026-04-06T16:07:29Z</time></trkpt><trkpt lat="36.95051161398386" lon="15.099761347202534"><ele>479.25</ele><time>2026-04-06T16:07:30Z</time></trkpt><trkpt lat="36.95044093926431" lon="15.099632768826757"><ele>478.0</ele><time>2026-04-06T16:07:31Z</time></trkpt><trkpt lat="36.95037669220064" lon="15.099458858025514"><ele>478.0</ele><time>2026-04-06T16:07:32Z</time></trkpt><trkpt lat="36.95028963023327" lon="15.09927502716882"><ele>478.0</ele><time>2026-04-06T16:07:33Z</time></trkpt><trkpt lat="36.95020161936333" lon="15.099087218155478"><ele>478.0</ele><time>2026-04-06T16:07:34Z</time></trkpt><trkpt lat="36.95011993159389" lon="15.09890490645905"><ele>477.0</ele><time>2026-04-06T16:07:35Z</time></trkpt><trkpt lat="36.950042167760095" lon="15.098740947100415"><ele>476.0</ele><time>2026-04-06T16:07:36Z</time></trkpt><trkpt lat="36.949957412914166" lon="15.098605766224761"><ele>475.0</ele><time>2026-04-06T16:07:37Z</time></trkpt><trkpt lat="36.94984095827411" lon="15.098491181117058"><ele>474.0</ele><time>2026-04-06T16:07:38Z</time></trkpt><trkpt lat="36.94968780782481" lon="15.098399644017714"><ele>473.33333333333337</ele><time>2026-04-06T16:07:39Z</time></trkpt><trkpt lat="36.94953973156578" lon="15.098344286579687"><ele>472.6666666666667</ele><time>2026-04-06T16:07:40Z</time></trkpt><trkpt lat="36.9493886234555" lon="15.098325082468374"><ele>472.0</ele><time>2026-04-06T16:07:41Z</time></trkpt><trkpt lat="36.94923513214595" lon="15.098338163974391"><ele>471.6666666666667</ele><time>2026-04-06T16:07:42Z</time></trkpt><trkpt lat="36.949073760169725" lon="15.098388743777784"><ele>471.33333333333337</ele><time>2026-04-06T16:07:43Z</time></trkpt><trkpt lat="36.948912308791606" lon="15.098452386238705"><ele>471.0</ele><time>2026-04-06T16:07:44Z</time></trkpt><trkpt lat="36.94876131214272" lon="15.098515644758463"><ele>471.0</ele><time>2026-04-06T16:07:45Z</time></trkpt><trkpt lat="36.94862148668443" lon="15.098565798403108"><ele>471.0</ele><time>2026-04-06T16:07:46Z</time></trkpt><trkpt lat="36.94848860403889" lon="15.098611682764234"><ele>471.0</ele><time>2026-04-06T16:07:47Z</time></trkpt><trkpt lat="36.94837056896431" lon="15.098661054033945"><ele>471.0</ele><time>2026-04-06T16:07:48Z</time></trkpt><trkpt lat="36.94827741765667" lon="15.098729346598464"><ele>471.4</ele><time>2026-04-06T16:07:49Z</time></trkpt><trkpt lat="36.9482083792185" lon="15.098838389135953"><ele>471.8</ele><time>2026-04-06T16:07:50Z</time></trkpt><trkpt lat="36.94814905123047" lon="15.098960332644939"><ele>472.19999999999993</ele><time>2026-04-06T16:07:51Z</time></trkpt><trkpt lat="36.94809311490164" lon="15.099060510874507"><ele>472.59999999999997</ele><time>2026-04-06T16:07:52Z</time></trkpt><trkpt lat="36.947977813015804" lon="15.099101708678997"><ele>473.0</ele><time>2026-04-06T16:07:53Z</time></trkpt><trkpt lat="36.94785818598179" lon="15.099146215663751"><ele>473.0</ele><time>2026-04-06T16:07:54Z</time></trkpt><trkpt lat="36.94772300090373" lon="15.099137361861164"><ele>473.0</ele><time>2026-04-06T16:07:55Z</time></trkpt><trkpt lat="36.947583136476155" lon="15.099079962884915"><ele>473.0</ele><time>2026-04-06T16:07:56Z</time></trkpt><trkpt lat="36.947455043148395" lon="15.099002518264566"><ele>473.0</ele><time>2026-04-06T16:07:57Z</time></trkpt><trkpt lat="36.94733757123033" lon="15.098955619199836"><ele>472.75</ele><time>2026-04-06T16:07:58Z</time></trkpt><trkpt lat="36.94721667837417" lon="15.09898809882315"><ele>472.5</ele><time>2026-04-06T16:07:59Z</time></trkpt><trkpt lat="36.94709851410658" lon="15.099067028652993"><ele>472.25</ele><time>2026-04-06T16:08:00Z</time></trkpt><trkpt lat="36.946984953433116" lon="15.099183955257567"><ele>472.0</ele><time>2026-04-06T16:08:01Z</time></trkpt><trkpt lat="36.94688488954984" lon="15.09932748112423"><ele>471.6666666666667</ele><time>2026-04-06T16:08:02Z</time></trkpt><trkpt lat="36.94679684433569" lon="15.099494234850324"><ele>471.33333333333337</ele><time>2026-04-06T16:08:03Z</time></trkpt><trkpt lat="36.946702717989005" lon="15.099657718103764"><ele>471.0</ele><time>2026-04-06T16:08:04Z</time></trkpt><trkpt lat="36.94656634945225" lon="15.099786762234428"><ele>472.0</ele><time>2026-04-06T16:08:05Z</time></trkpt><trkpt lat="36.946441599552195" lon="15.099947652608186"><ele>473.0</ele><time>2026-04-06T16:08:06Z</time></trkpt><trkpt lat="36.94630814504249" lon="15.100090848587357"><ele>474.0</ele><time>2026-04-06T16:08:07Z</time></trkpt><trkpt lat="36.94617469212353" lon="15.100242248187039"><ele>474.0</ele><time>2026-04-06T16:08:08Z</time></trkpt><trkpt lat="36.946050342781575" lon="15.100384758515334"><ele>474.0</ele><time>2026-04-06T16:08:09Z</time></trkpt><trkpt lat="36.94593700780116" lon="15.100515904468732"><ele>474.0</ele><time>2026-04-06T16:08:10Z</time></trkpt><trkpt lat="36.94583089565783" lon="15.100633369554805"><ele>474.0</ele><time>2026-04-06T16:08:11Z</time></trkpt><trkpt lat="36.94570760657783" lon="15.100700411342567"><ele>474.0</ele><time>2026-04-06T16:08:12Z</time></trkpt><trkpt lat="36.94557965821456" lon="15.100790098378372"><ele>474.0</ele><time>2026-04-06T16:08:13Z</time></trkpt><trkpt lat="36.945427948527644" lon="15.10085253979819"><ele>474.0</ele><time>2026-04-06T16:08:14Z</time></trkpt><trkpt lat="36.94527581537504" lon="15.100916996911582"><ele>474.0</ele><time>2026-04-06T16:08:15Z</time></trkpt><trkpt lat="36.94512683256739" lon="15.100971991467107"><ele>474.0</ele><time>2026-04-06T16:08:16Z</time></trkpt><trkpt lat="36.94496743700444" lon="15.101018870616302"><ele>474.0</ele><time>2026-04-06T16:08:17Z</time></trkpt><trkpt lat="36.94480593791295" lon="15.101052386633368"><ele>474.0</ele><time>2026-04-06T16:08:18Z</time></trkpt><trkpt lat="36.94464855802346" lon="15.101051918795358"><ele>474.0</ele><time>2026-04-06T16:08:19Z</time></trkpt><trkpt lat="36.94448465606937" lon="15.101034358940634"><ele>474.0</ele><time>2026-04-06T16:08:20Z</time></trkpt><trkpt lat="36.94431715897406" lon="15.101036707391787"><ele>472.66666666666663</ele><time>2026-04-06T16:08:21Z</time></trkpt><trkpt lat="36.94415489694025" lon="15.101068032212016"><ele>471.3333333333333</ele><time>2026-04-06T16:08:22Z</time></trkpt><trkpt lat="36.9439985739813" lon="15.101109444486339"><ele>470.0</ele><time>2026-04-06T16:08:23Z</time></trkpt><trkpt lat="36.943841215813585" lon="15.101141406320874"><ele>470.0</ele><time>2026-04-06T16:08:24Z</time></trkpt><trkpt lat="36.94369509259676" lon="15.1011625612128"><ele>470.0</ele><time>2026-04-06T16:08:25Z</time></trkpt><trkpt lat="36.94356397747361" lon="15.101183929204884"><ele>470.0</ele><time>2026-04-06T16:08:26Z</time></trkpt><trkpt lat="36.94346060163608" lon="15.101215050755384"><ele>470.0</ele><time>2026-04-06T16:08:27Z</time></trkpt><trkpt lat="36.943364984164205" lon="15.101270355658118"><ele>469.66666666666663</ele><time>2026-04-06T16:08:28Z</time></trkpt><trkpt lat="36.94328644066841" lon="15.101337653112358"><ele>469.3333333333333</ele><time>2026-04-06T16:08:29Z</time></trkpt><trkpt lat="36.94322978969367" lon="15.101432184154294"><ele>469.0</ele><time>2026-04-06T16:08:30Z</time></trkpt><trkpt lat="36.94321782867788" lon="15.101535817179217"><ele>468.66666666666663</ele><time>2026-04-06T16:08:31Z</time></trkpt><trkpt lat="36.94321955421179" lon="15.101632724350642"><ele>468.3333333333333</ele><time>2026-04-06T16:08:32Z</time></trkpt><trkpt lat="36.94326407523352" lon="15.101726801265725"><ele>468.0</ele><time>2026-04-06T16:08:33Z</time></trkpt><trkpt lat="36.943361388468176" lon="15.101776588312005"><ele>468.0</ele><time>2026-04-06T16:08:34Z</time></trkpt><trkpt lat="36.94344821639824" lon="15.101862039406525"><ele>468.0</ele><time>2026-04-06T16:08:35Z</time></trkpt><trkpt lat="36.94352987330864" lon="15.10193820892"><ele>468.0</ele><time>2026-04-06T16:08:36Z</time></trkpt><trkpt lat="36.94358937809175" lon="15.102017556514284"><ele>468.0</ele><time>2026-04-06T16:08:37Z</time></trkpt><trkpt lat="36.94363515154041" lon="15.102094305224522"><ele>468.0</ele><time>2026-04-06T16:08:38Z</time></trkpt><trkpt lat="36.943671072252165" lon="15.102163081573694"><ele>468.0</ele><time>2026-04-06T16:08:39Z</time></trkpt><trkpt lat="36.94368253102102" lon="15.102298472205753"><ele>468.2</ele><time>2026-04-06T16:08:41Z</time></trkpt><trkpt lat="36.94363854944737" lon="15.10244329181202"><ele>468.4</ele><time>2026-04-06T16:08:43Z</time></trkpt><trkpt lat="36.94360133736962" lon="15.102526786683688"><ele>468.59999999999997</ele><time>2026-04-06T16:08:44Z</time></trkpt><trkpt lat="36.94352840997556" lon="15.10261232312269"><ele>468.79999999999995</ele><time>2026-04-06T16:08:45Z</time></trkpt><trkpt lat="36.943461440504755" lon="15.102727697497928"><ele>469.0</ele><time>2026-04-06T16:08:46Z</time></trkpt><trkpt lat="36.94340655484429" lon="15.102851457707086"><ele>466.4</ele><time>2026-04-06T16:08:47Z</time></trkpt><trkpt lat="36.94334108293387" lon="15.102953946039262"><ele>463.79999999999995</ele><time>2026-04-06T16:08:48Z</time></trkpt><trkpt lat="36.943277258113945" lon="15.1030648619121"><ele>461.20000000000005</ele><time>2026-04-06T16:08:49Z</time></trkpt><trkpt lat="36.94321915164618" lon="15.103188534326584"><ele>458.6</ele><time>2026-04-06T16:08:50Z</time></trkpt><trkpt lat="36.94314916861568" lon="15.103306940346009"><ele>456.0</ele><time>2026-04-06T16:08:51Z</time></trkpt><trkpt lat="36.943110330688995" lon="15.103450998147355"><ele>455.75</ele><time>2026-04-06T16:08:52Z</time></trkpt><trkpt lat="36.94305731404514" lon="15.103584845426278"><ele>455.5</ele><time>2026-04-06T16:08:53Z</time></trkpt><trkpt lat="36.94300861216207" lon="15.103715145172199"><ele>455.25</ele><time>2026-04-06T16:08:54Z</time></trkpt><trkpt lat="36.94297060930108" lon="15.103847143456639"><ele>455.0</ele><time>2026-04-06T16:08:55Z</time></trkpt><trkpt lat="36.94292481663372" lon="15.103980005578656"><ele>454.4</ele><time>2026-04-06T16:08:56Z</time></trkpt><trkpt lat="36.94288000219654" lon="15.104113445548174"><ele>453.8</ele><time>2026-04-06T16:08:57Z</time></trkpt><trkpt lat="36.94283779670084" lon="15.104243348353078"><ele>453.20000000000005</ele><time>2026-04-06T16:08:58Z</time></trkpt><trkpt lat="36.9428036702446" lon="15.104367918173176"><ele>452.6</ele><time>2026-04-06T16:08:59Z</time></trkpt><trkpt lat="36.942786744233196" lon="15.104483291100404"><ele>452.0</ele><time>2026-04-06T16:09:00Z</time></trkpt><trkpt lat="36.94280122580761" lon="15.10459493040589"><ele>451.99999999999994</ele><time>2026-04-06T16:09:01Z</time></trkpt><trkpt lat="36.94280632576853" lon="15.104702442427424"><ele>452.0</ele><time>2026-04-06T16:09:02Z</time></trkpt><trkpt lat="36.94282698976729" lon="15.104795766744033"><ele>452.0</ele><time>2026-04-06T16:09:03Z</time></trkpt><trkpt lat="36.942856840240374" lon="15.104935591802155"><ele>452.0</ele><time>2026-04-06T16:09:05Z</time></trkpt><trkpt lat="36.94286960897166" lon="15.105030643321797"><ele>451.99999999999994</ele><time>2026-04-06T16:09:07Z</time></trkpt><trkpt lat="36.94280406926959" lon="15.105076427281432"><ele>452.0</ele><time>2026-04-06T16:09:09Z</time></trkpt><trkpt lat="36.94271850073904" lon="15.10501436955016"><ele>452.0</ele><time>2026-04-06T16:09:11Z</time></trkpt><trkpt lat="36.94269307700262" lon="15.104941301500503"><ele>452.0</ele><time>2026-04-06T16:09:12Z</time></trkpt><trkpt lat="36.94267950796273" lon="15.104861030938967"><ele>452.0</ele><time>2026-04-06T16:09:13Z</time></trkpt><trkpt lat="36.942668708464154" lon="15.104778715150555"><ele>452.0</ele><time>2026-04-06T16:09:14Z</time></trkpt><trkpt lat="36.942645694445815" lon="15.1046913221579"><ele>452.0</ele><time>2026-04-06T16:09:15Z</time></trkpt><trkpt lat="36.942614750624955" lon="15.104593220576781"><ele>452.0</ele><time>2026-04-06T16:09:16Z</time></trkpt><trkpt lat="36.94258507889962" lon="15.104494679956211"><ele>452.0</ele><time>2026-04-06T16:09:17Z</time></trkpt><trkpt lat="36.94255544463115" lon="15.104398074126301"><ele>450.16666666666663</ele><time>2026-04-06T16:09:18Z</time></trkpt><trkpt lat="36.94252119753809" lon="15.104303091419249"><ele>448.3333333333333</ele><time>2026-04-06T16:09:19Z</time></trkpt><trkpt lat="36.94248411300009" lon="15.104213335523882"><ele>446.5</ele><time>2026-04-06T16:09:20Z</time></trkpt><trkpt lat="36.94244765943023" lon="15.104121771768682"><ele>444.66666666666663</ele><time>2026-04-06T16:09:21Z</time></trkpt><trkpt lat="36.942411357189755" lon="15.104028207023182"><ele>442.8333333333333</ele><time>2026-04-06T16:09:22Z</time></trkpt><trkpt lat="36.9423658684248" lon="15.103937412409886"><ele>441.0</ele><time>2026-04-06T16:09:23Z</time></trkpt><trkpt lat="36.94230590955293" lon="15.103840809646394"><ele>441.0</ele><time>2026-04-06T16:09:24Z</time></trkpt><trkpt lat="36.94223534684182" lon="15.103743495873989"><ele>441.0</ele><time>2026-04-06T16:09:25Z</time></trkpt><trkpt lat="36.94215121337632" lon="15.103649241789581"><ele>441.0</ele><time>2026-04-06T16:09:26Z</time></trkpt><trkpt lat="36.94206879418699" lon="15.103544577449345"><ele>441.0</ele><time>2026-04-06T16:09:27Z</time></trkpt><trkpt lat="36.94199253345209" lon="15.10345132151585"><ele>441.0</ele><time>2026-04-06T16:09:28Z</time></trkpt><trkpt lat="36.94191938712187" lon="15.103352267073456"><ele>441.0</ele><time>2026-04-06T16:09:29Z</time></trkpt><trkpt lat="36.94185468924462" lon="15.103253326081871"><ele>441.0</ele><time>2026-04-06T16:09:30Z</time></trkpt><trkpt lat="36.941784826243214" lon="15.103162588513563"><ele>441.0</ele><time>2026-04-06T16:09:31Z</time></trkpt><trkpt lat="36.941722756755524" lon="15.103070532783503"><ele>441.0</ele><time>2026-04-06T16:09:32Z</time></trkpt><trkpt lat="36.94166862779745" lon="15.102982397416332"><ele>441.0</ele><time>2026-04-06T16:09:33Z</time></trkpt><trkpt lat="36.941619951508635" lon="15.102907651171236"><ele>439.8333333333333</ele><time>2026-04-06T16:09:34Z</time></trkpt><trkpt lat="36.94156749470847" lon="15.102844387961355"><ele>438.66666666666663</ele><time>2026-04-06T16:09:35Z</time></trkpt><trkpt lat="36.94150423323873" lon="15.102801305062021"><ele>437.5</ele><time>2026-04-06T16:09:36Z</time></trkpt><trkpt lat="36.941430197531645" lon="15.102787868963672"><ele>436.3333333333333</ele><time>2026-04-06T16:09:37Z</time></trkpt><trkpt lat="36.94134402195469" lon="15.102820056600526"><ele>435.16666666666663</ele><time>2026-04-06T16:09:38Z</time></trkpt><trkpt lat="36.94125372896997" lon="15.102878464318334"><ele>434.0</ele><time>2026-04-06T16:09:39Z</time></trkpt><trkpt lat="36.94117415841371" lon="15.102930836254588"><ele>433.99999999999994</ele><time>2026-04-06T16:09:40Z</time></trkpt><trkpt lat="36.941098295654896" lon="15.102970830383144"><ele>434.0</ele><time>2026-04-06T16:09:41Z</time></trkpt><trkpt lat="36.94102713488399" lon="15.1030122161882"><ele>434.0</ele><time>2026-04-06T16:09:42Z</time></trkpt><trkpt lat="36.94095579782897" lon="15.103056643928157"><ele>434.0</ele><time>2026-04-06T16:09:43Z</time></trkpt><trkpt lat="36.94087992564257" lon="15.103099601578824"><ele>433.99999999999994</ele><time>2026-04-06T16:09:44Z</time></trkpt><trkpt lat="36.940799066380926" lon="15.103144935604284"><ele>434.0</ele><time>2026-04-06T16:09:45Z</time></trkpt><trkpt lat="36.94071633332061" lon="15.103193803551836"><ele>433.49999999999994</ele><time>2026-04-06T16:09:46Z</time></trkpt><trkpt lat="36.94063041320443" lon="15.103244203967689"><ele>433.0</ele><time>2026-04-06T16:09:47Z</time></trkpt><trkpt lat="36.94054628391283" lon="15.103294157750947"><ele>432.5</ele><time>2026-04-06T16:09:48Z</time></trkpt><trkpt lat="36.94046574727281" lon="15.103333712092162"><ele>432.0</ele><time>2026-04-06T16:09:49Z</time></trkpt><trkpt lat="36.94038471149553" lon="15.103361059222113"><ele>431.49999999999994</ele><time>2026-04-06T16:09:50Z</time></trkpt><trkpt lat="36.94030671766004" lon="15.103385538986576"><ele>431.0</ele><time>2026-04-06T16:09:51Z</time></trkpt><trkpt lat="36.94022934204618" lon="15.103401051921084"><ele>430.99999999999994</ele><time>2026-04-06T16:09:52Z</time></trkpt><trkpt lat="36.94015169963648" lon="15.10339482342954"><ele>431.0</ele><time>2026-04-06T16:09:53Z</time></trkpt><trkpt lat="36.940076894249735" lon="15.103372394541946"><ele>431.0</ele><time>2026-04-06T16:09:54Z</time></trkpt><trkpt lat="36.94000347691394" lon="15.103331155389112"><ele>431.0</ele><time>2026-04-06T16:09:55Z</time></trkpt><trkpt lat="36.93993477929602" lon="15.10327008133746"><ele>430.99999999999994</ele><time>2026-04-06T16:09:56Z</time></trkpt><trkpt lat="36.93987737623849" lon="15.103200139148049"><ele>431.0</ele><time>2026-04-06T16:09:57Z</time></trkpt><trkpt lat="36.93981708530495" lon="15.103137159058164"><ele>430.99999999999994</ele><time>2026-04-06T16:09:58Z</time></trkpt><trkpt lat="36.93974483157857" lon="15.103102284592191"><ele>431.0</ele><time>2026-04-06T16:09:59Z</time></trkpt><trkpt lat="36.93966368086895" lon="15.10310155591284"><ele>431.0</ele><time>2026-04-06T16:10:00Z</time></trkpt><trkpt lat="36.9395835430812" lon="15.103136789507309"><ele>431.0</ele><time>2026-04-06T16:10:01Z</time></trkpt><trkpt lat="36.93950268654724" lon="15.103195402212789"><ele>430.99999999999994</ele><time>2026-04-06T16:10:02Z</time></trkpt><trkpt lat="36.939416324454655" lon="15.103242238035635"><ele>431.0</ele><time>2026-04-06T16:10:03Z</time></trkpt><trkpt lat="36.93933056786079" lon="15.103291909398873"><ele>428.49999999999994</ele><time>2026-04-06T16:10:04Z</time></trkpt><trkpt lat="36.93924597970216" lon="15.103336111296839"><ele>426.0</ele><time>2026-04-06T16:10:05Z</time></trkpt><trkpt lat="36.93917014402948" lon="15.103375895028572"><ele>423.5</ele><time>2026-04-06T16:10:06Z</time></trkpt><trkpt lat="36.93910313575189" lon="15.103403431513733"><ele>421.0</ele><time>2026-04-06T16:10:07Z</time></trkpt><trkpt lat="36.9390230066199" lon="15.103489031226845"><ele>418.49999999999994</ele><time>2026-04-06T16:10:09Z</time></trkpt><trkpt lat="36.9390753395285" lon="15.10358836811431"><ele>416.0</ele><time>2026-04-06T16:10:11Z</time></trkpt><trkpt lat="36.93919223394421" lon="15.103551486250051"><ele>415.8333333333333</ele><time>2026-04-06T16:10:13Z</time></trkpt><trkpt lat="36.939252420107884" lon="15.103508189970949"><ele>415.66666666666663</ele><time>2026-04-06T16:10:14Z</time></trkpt><trkpt lat="36.93931977072925" lon="15.103466745992312"><ele>415.5</ele><time>2026-04-06T16:10:15Z</time></trkpt><trkpt lat="36.93939876856392" lon="15.10344303860407"><ele>415.33333333333337</ele><time>2026-04-06T16:10:16Z</time></trkpt><trkpt lat="36.93947288133033" lon="15.103399578397427"><ele>415.1666666666667</ele><time>2026-04-06T16:10:17Z</time></trkpt><trkpt lat="36.93954660673928" lon="15.103361593525815"><ele>415.0</ele><time>2026-04-06T16:10:18Z</time></trkpt><trkpt lat="36.93962013644797" lon="15.103341733494986"><ele>415.00000000000006</ele><time>2026-04-06T16:10:19Z</time></trkpt><trkpt lat="36.939696189040006" lon="15.103347634153717"><ele>415.0</ele><time>2026-04-06T16:10:20Z</time></trkpt><trkpt lat="36.939756096651756" lon="15.103397207753929"><ele>415.0</ele><time>2026-04-06T16:10:21Z</time></trkpt><trkpt lat="36.939810917866595" lon="15.103462382538323"><ele>415.0</ele><time>2026-04-06T16:10:22Z</time></trkpt><trkpt lat="36.93988135930289" lon="15.103530134589654"><ele>415.00000000000006</ele><time>2026-04-06T16:10:23Z</time></trkpt><trkpt lat="36.939954226092944" lon="15.103596916162807"><ele>415.0</ele><time>2026-04-06T16:10:24Z</time></trkpt><trkpt lat="36.94003331618407" lon="15.103658052656995"><ele>415.6666666666667</ele><time>2026-04-06T16:10:25Z</time></trkpt><trkpt lat="36.94009971210418" lon="15.103708711062742"><ele>416.33333333333337</ele><time>2026-04-06T16:10:26Z</time></trkpt><trkpt lat="36.940156083136785" lon="15.103751257897068"><ele>417.0</ele><time>2026-04-06T16:10:27Z</time></trkpt><trkpt lat="36.94024494016877" lon="15.103842592003792"><ele>417.66666666666663</ele><time>2026-04-06T16:10:29Z</time></trkpt><trkpt lat="36.940236698120664" lon="15.103973229963785"><ele>418.3333333333333</ele><time>2026-04-06T16:10:31Z</time></trkpt><trkpt lat="36.94019258841838" lon="15.104030969859549"><ele>419.0</ele><time>2026-04-06T16:10:32Z</time></trkpt><trkpt lat="36.94012651399616" lon="15.104059831782067"><ele>418.3333333333333</ele><time>2026-04-06T16:10:33Z</time></trkpt><trkpt lat="36.94004739167974" lon="15.104069608689807"><ele>417.66666666666663</ele><time>2026-04-06T16:10:34Z</time></trkpt><trkpt lat="36.939970186359204" lon="15.104082956883373"><ele>417.0</ele><time>2026-04-06T16:10:35Z</time></trkpt><trkpt lat="36.93989172544266" lon="15.104104794416601"><ele>416.33333333333337</ele><time>2026-04-06T16:10:36Z</time></trkpt><trkpt lat="36.93981001012434" lon="15.104136776697278"><ele>415.6666666666667</ele><time>2026-04-06T16:10:37Z</time></trkpt><trkpt lat="36.93972032514547" lon="15.104179935971478"><ele>415.0</ele><time>2026-04-06T16:10:38Z</time></trkpt><trkpt lat="36.93962594154456" lon="15.104232476230463"><ele>413.2</ele><time>2026-04-06T16:10:39Z</time></trkpt><trkpt lat="36.93953104745125" lon="15.104288990106012"><ele>411.4</ele><time>2026-04-06T16:10:40Z</time></trkpt><trkpt lat="36.939437382460284" lon="15.104348264486985"><ele>409.6</ele><time>2026-04-06T16:10:41Z</time></trkpt><trkpt lat="36.93934460989473" lon="15.104406176282515"><ele>407.8</ele><time>2026-04-06T16:10:42Z</time></trkpt><trkpt lat="36.93925310834516" lon="15.104465564343766"><ele>406.0</ele><time>2026-04-06T16:10:43Z</time></trkpt><trkpt lat="36.93916142919877" lon="15.104523654348423"><ele>402.0</ele><time>2026-04-06T16:10:44Z</time></trkpt><trkpt lat="36.939073038862425" lon="15.104583561041332"><ele>398.0</ele><time>2026-04-06T16:10:45Z</time></trkpt><trkpt lat="36.938983740667226" lon="15.10463899807405"><ele>394.0</ele><time>2026-04-06T16:10:46Z</time></trkpt><trkpt lat="36.93889150882789" lon="15.104687480274155"><ele>390.0</ele><time>2026-04-06T16:10:47Z</time></trkpt><trkpt lat="36.93879583613728" lon="15.104726168561205"><ele>386.0</ele><time>2026-04-06T16:10:48Z</time></trkpt><trkpt lat="36.93869782974592" lon="15.104748929765387"><ele>386.0</ele><time>2026-04-06T16:10:49Z</time></trkpt><trkpt lat="36.938595523881624" lon="15.104758720879826"><ele>386.0</ele><time>2026-04-06T16:10:50Z</time></trkpt><trkpt lat="36.938484738014566" lon="15.104754501619231"><ele>386.0</ele><time>2026-04-06T16:10:51Z</time></trkpt><trkpt lat="36.938369212457694" lon="15.104745449237127"><ele>386.0</ele><time>2026-04-06T16:10:52Z</time></trkpt><trkpt lat="36.938253865037964" lon="15.104738084155192"><ele>386.0</ele><time>2026-04-06T16:10:53Z</time></trkpt><trkpt lat="36.9381385920187" lon="15.104716421439177"><ele>384.0</ele><time>2026-04-06T16:10:54Z</time></trkpt><trkpt lat="36.93802447301304" lon="15.10467966512569"><ele>382.0</ele><time>2026-04-06T16:10:55Z</time></trkpt><trkpt lat="36.937913686644386" lon="15.104629564691328"><ele>380.0</ele><time>2026-04-06T16:10:56Z</time></trkpt><trkpt lat="36.937804677790865" lon="15.104572997919986"><ele>378.0</ele><time>2026-04-06T16:10:57Z</time></trkpt><trkpt lat="36.93769512437164" lon="15.104513154863572"><ele>378.0</ele><time>2026-04-06T16:10:58Z</time></trkpt><trkpt lat="36.93758423996258" lon="15.10445490264788"><ele>378.0</ele><time>2026-04-06T16:10:59Z</time></trkpt><trkpt lat="36.937474016077346" lon="15.10439312495442"><ele>378.0</ele><time>2026-04-06T16:11:00Z</time></trkpt><trkpt lat="36.937365376544285" lon="15.10432770914843"><ele>378.0</ele><time>2026-04-06T16:11:01Z</time></trkpt><trkpt lat="36.93725631771912" lon="15.104261220490185"><ele>376.4</ele><time>2026-04-06T16:11:02Z</time></trkpt><trkpt lat="36.93715375188684" lon="15.104193067705816"><ele>374.79999999999995</ele><time>2026-04-06T16:11:03Z</time></trkpt><trkpt lat="36.93705575818227" lon="15.104123624244647"><ele>373.2</ele><time>2026-04-06T16:11:04Z</time></trkpt><trkpt lat="36.93696098177993" lon="15.104055339554229"><ele>371.6</ele><time>2026-04-06T16:11:05Z</time></trkpt><trkpt lat="36.93686788489997" lon="15.103991188933094"><ele>370.0</ele><time>2026-04-06T16:11:06Z</time></trkpt><trkpt lat="36.93677171303315" lon="15.103936288730772"><ele>364.6</ele><time>2026-04-06T16:11:07Z</time></trkpt><trkpt lat="36.93667231118662" lon="15.103895652993893"><ele>359.2</ele><time>2026-04-06T16:11:08Z</time></trkpt><trkpt lat="36.93656712923296" lon="15.103866219501906"><ele>353.79999999999995</ele><time>2026-04-06T16:11:09Z</time></trkpt><trkpt lat="36.93645747906215" lon="15.103852207444588"><ele>348.4</ele><time>2026-04-06T16:11:10Z</time></trkpt><trkpt lat="36.93635130534871" lon="15.103843749524028"><ele>343.0</ele><time>2026-04-06T16:11:11Z</time></trkpt><trkpt lat="36.936248713005504" lon="15.10384347143302"><ele>343.0</ele><time>2026-04-06T16:11:12Z</time></trkpt><trkpt lat="36.93614521914182" lon="15.103857372413682"><ele>343.0</ele><time>2026-04-06T16:11:13Z</time></trkpt><trkpt lat="36.93604859786176" lon="15.103887568253455"><ele>343.0</ele><time>2026-04-06T16:11:14Z</time></trkpt><trkpt lat="36.93596131529126" lon="15.103932153690172"><ele>343.0</ele><time>2026-04-06T16:11:15Z</time></trkpt><trkpt lat="36.93588049636038" lon="15.103991846392406"><ele>343.0</ele><time>2026-04-06T16:11:16Z</time></trkpt><trkpt lat="36.93580708605855" lon="15.104077232076042"><ele>346.79999999999995</ele><time>2026-04-06T16:11:17Z</time></trkpt><trkpt lat="36.93574353185425" lon="15.104179493884418"><ele>350.6</ele><time>2026-04-06T16:11:18Z</time></trkpt><trkpt lat="36.93568447609344" lon="15.104290338727843"><ele>354.4</ele><time>2026-04-06T16:11:19Z</time></trkpt><trkpt lat="36.935627735871975" lon="15.104401207499638"><ele>358.20000000000005</ele><time>2026-04-06T16:11:20Z</time></trkpt><trkpt lat="36.935570652568956" lon="15.104509043253477"><ele>362.0</ele><time>2026-04-06T16:11:21Z</time></trkpt><trkpt lat="36.935514571676244" lon="15.104611939651043"><ele>362.0</ele><time>2026-04-06T16:11:22Z</time></trkpt><trkpt lat="36.935460171670286" lon="15.104713347035798"><ele>362.0</ele><time>2026-04-06T16:11:23Z</time></trkpt><trkpt lat="36.93540636716806" lon="15.104812156415308"><ele>362.0</ele><time>2026-04-06T16:11:24Z</time></trkpt><trkpt lat="36.93535726184419" lon="15.104911487111767"><ele>362.0</ele><time>2026-04-06T16:11:25Z</time></trkpt><trkpt lat="36.93530688414671" lon="15.105004768688056"><ele>362.0</ele><time>2026-04-06T16:11:26Z</time></trkpt><trkpt lat="36.9352565797645" lon="15.10509231660982"><ele>364.33333333333337</ele><time>2026-04-06T16:11:27Z</time></trkpt><trkpt lat="36.93520386071359" lon="15.105178964758904"><ele>366.6666666666667</ele><time>2026-04-06T16:11:28Z</time></trkpt><trkpt lat="36.93515456115195" lon="15.105265053191221"><ele>369.0</ele><time>2026-04-06T16:11:29Z</time></trkpt><trkpt lat="36.93512390008063" lon="15.105355872041686"><ele>371.3333333333333</ele><time>2026-04-06T16:11:30Z</time></trkpt><trkpt lat="36.935118780287354" lon="15.105446218559015"><ele>373.66666666666663</ele><time>2026-04-06T16:11:31Z</time></trkpt><trkpt lat="36.93513243987927" lon="15.105526097333332"><ele>376.0</ele><time>2026-04-06T16:11:32Z</time></trkpt><trkpt lat="36.935206853415174" lon="15.105595301114244"><ele>376.0</ele><time>2026-04-06T16:11:33Z</time></trkpt><trkpt lat="36.93528873969628" lon="15.105655655980875"><ele>376.0</ele><time>2026-04-06T16:11:34Z</time></trkpt><trkpt lat="36.93536959523469" lon="15.105712090370263"><ele>376.0</ele><time>2026-04-06T16:11:35Z</time></trkpt><trkpt lat="36.935451442472896" lon="15.10576650296737"><ele>376.0</ele><time>2026-04-06T16:11:36Z</time></trkpt><trkpt lat="36.93552501197368" lon="15.105800728437911"><ele>376.0</ele><time>2026-04-06T16:11:37Z</time></trkpt><trkpt lat="36.93559000144977" lon="15.105823650913198"><ele>376.0</ele><time>2026-04-06T16:11:38Z</time></trkpt><trkpt lat="36.935687675972645" lon="15.105859564158905"><ele>371.8</ele><time>2026-04-06T16:11:40Z</time></trkpt><trkpt lat="36.93569278771416" lon="15.105953450671363"><ele>367.6</ele><time>2026-04-06T16:11:43Z</time></trkpt><trkpt lat="36.935571970157156" lon="15.1059761145288"><ele>363.4</ele><time>2026-04-06T16:11:45Z</time></trkpt><trkpt lat="36.93544008404332" lon="15.105970969111283"><ele>359.2</ele><time>2026-04-06T16:11:47Z</time></trkpt><trkpt lat="36.93536829522944" lon="15.105961766438368"><ele>355.0</ele><time>2026-04-06T16:11:48Z</time></trkpt><trkpt lat="36.93529700500508" lon="15.105955625061098"><ele>355.0</ele><time>2026-04-06T16:11:49Z</time></trkpt><trkpt lat="36.935223645643866" lon="15.105957683295944"><ele>355.0</ele><time>2026-04-06T16:11:50Z</time></trkpt><trkpt lat="36.93514727108922" lon="15.105959689148797"><ele>355.0</ele><time>2026-04-06T16:11:51Z</time></trkpt><trkpt lat="36.93506951520415" lon="15.105961072654774"><ele>355.0</ele><time>2026-04-06T16:11:52Z</time></trkpt><trkpt lat="36.93499082395568" lon="15.1059617614725"><ele>355.0</ele><time>2026-04-06T16:11:53Z</time></trkpt><trkpt lat="36.93491301056226" lon="15.105955541850308"><ele>355.0</ele><time>2026-04-06T16:11:54Z</time></trkpt><trkpt lat="36.93483527840797" lon="15.105941718116808"><ele>353.42857142857144</ele><time>2026-04-06T16:11:55Z</time></trkpt><trkpt lat="36.934766575567785" lon="15.105911807179972"><ele>351.8571428571429</ele><time>2026-04-06T16:11:56Z</time></trkpt><trkpt lat="36.93471073448274" lon="15.105861603355487"><ele>350.28571428571433</ele><time>2026-04-06T16:11:57Z</time></trkpt><trkpt lat="36.934677248003844" lon="15.10579123033911"><ele>348.7142857142857</ele><time>2026-04-06T16:11:58Z</time></trkpt><trkpt lat="36.93467191493541" lon="15.10571059864219"><ele>347.14285714285717</ele><time>2026-04-06T16:11:59Z</time></trkpt><trkpt lat="36.93469590384353" lon="15.105613428505388"><ele>345.5714285714286</ele><time>2026-04-06T16:12:00Z</time></trkpt><trkpt lat="36.93473263455778" lon="15.105507605034456"><ele>344.0</ele><time>2026-04-06T16:12:01Z</time></trkpt><trkpt lat="36.93477917369171" lon="15.10539298827867"><ele>343.2</ele><time>2026-04-06T16:12:02Z</time></trkpt><trkpt lat="36.934826503997115" lon="15.105281038246968"><ele>342.4</ele><time>2026-04-06T16:12:03Z</time></trkpt><trkpt lat="36.93487701273335" lon="15.10517080581153"><ele>341.6</ele><time>2026-04-06T16:12:04Z</time></trkpt><trkpt lat="36.934929512836945" lon="15.105048196917807"><ele>340.8</ele><time>2026-04-06T16:12:05Z</time></trkpt><trkpt lat="36.93498896226385" lon="15.104910478223793"><ele>340.0</ele><time>2026-04-06T16:12:06Z</time></trkpt><trkpt lat="36.93505081468447" lon="15.104765392465698"><ele>345.5</ele><time>2026-04-06T16:12:07Z</time></trkpt><trkpt lat="36.93511280753846" lon="15.104616127590461"><ele>351.0</ele><time>2026-04-06T16:12:08Z</time></trkpt><trkpt lat="36.935174578713436" lon="15.104466422419254"><ele>356.5</ele><time>2026-04-06T16:12:09Z</time></trkpt><trkpt lat="36.935231682581446" lon="15.104319181870663"><ele>362.0</ele><time>2026-04-06T16:12:10Z</time></trkpt><trkpt lat="36.935283687165395" lon="15.104172584022024"><ele>354.8</ele><time>2026-04-06T16:12:11Z</time></trkpt><trkpt lat="36.93533099873535" lon="15.104040106781436"><ele>347.6</ele><time>2026-04-06T16:12:12Z</time></trkpt><trkpt lat="36.93537274207533" lon="15.10391785475108"><ele>340.40000000000003</ele><time>2026-04-06T16:12:13Z</time></trkpt><trkpt lat="36.935415788628134" lon="15.103803299255764"><ele>333.20000000000005</ele><time>2026-04-06T16:12:14Z</time></trkpt><trkpt lat="36.9354573284697" lon="15.103699160453438"><ele>326.0</ele><time>2026-04-06T16:12:15Z</time></trkpt><trkpt lat="36.93549758138331" lon="15.103605928967113"><ele>326.0</ele><time>2026-04-06T16:12:16Z</time></trkpt><trkpt lat="36.93553798070054" lon="15.10352031256106"><ele>326.0</ele><time>2026-04-06T16:12:17Z</time></trkpt><trkpt lat="36.93558424640631" lon="15.103454662269579"><ele>326.0</ele><time>2026-04-06T16:12:18Z</time></trkpt><trkpt lat="36.93564629062165" lon="15.103405432312355"><ele>326.0</ele><time>2026-04-06T16:12:19Z</time></trkpt><trkpt lat="36.93572081010447" lon="15.103376931844734"><ele>326.0</ele><time>2026-04-06T16:12:20Z</time></trkpt><trkpt lat="36.93579388687781" lon="15.103362529678305"><ele>326.0</ele><time>2026-04-06T16:12:21Z</time></trkpt><trkpt lat="36.93585927036551" lon="15.103370524802852"><ele>326.0</ele><time>2026-04-06T16:12:22Z</time></trkpt><trkpt lat="36.935952833260984" lon="15.103333048999037"><ele>326.0</ele><time>2026-04-06T16:12:24Z</time></trkpt><trkpt lat="36.93594609485084" lon="15.103212949775019"><ele>326.0</ele><time>2026-04-06T16:12:26Z</time></trkpt><trkpt lat="36.93589890767038" lon="15.10315852405408"><ele>326.0</ele><time>2026-04-06T16:12:27Z</time></trkpt><trkpt lat="36.93582190973494" lon="15.10314500805938"><ele>326.0</ele><time>2026-04-06T16:12:28Z</time></trkpt><trkpt lat="36.93574884250191" lon="15.103167812180905"><ele>326.0</ele><time>2026-04-06T16:12:29Z</time></trkpt><trkpt lat="36.93567657359675" lon="15.103212378282485"><ele>326.0</ele><time>2026-04-06T16:12:30Z</time></trkpt><trkpt lat="36.93559870761198" lon="15.103255319871298"><ele>326.0</ele><time>2026-04-06T16:12:31Z</time></trkpt><trkpt lat="36.93551427174735" lon="15.103319232051142"><ele>326.0</ele><time>2026-04-06T16:12:32Z</time></trkpt><trkpt lat="36.93543662438968" lon="15.103397759894962"><ele>326.0</ele><time>2026-04-06T16:12:33Z</time></trkpt><trkpt lat="36.93537182172596" lon="15.103493558449113"><ele>326.0</ele><time>2026-04-06T16:12:34Z</time></trkpt><trkpt lat="36.93531199332073" lon="15.103594064736342"><ele>326.0</ele><time>2026-04-06T16:12:35Z</time></trkpt><trkpt lat="36.9352548187737" lon="15.103690541812849"><ele>326.0</ele><time>2026-04-06T16:12:36Z</time></trkpt><trkpt lat="36.935205806951394" lon="15.10379182022994"><ele>326.0</ele><time>2026-04-06T16:12:37Z</time></trkpt><trkpt lat="36.935162571003" lon="15.103888760530664"><ele>326.0</ele><time>2026-04-06T16:12:38Z</time></trkpt><trkpt lat="36.93511992387549" lon="15.103979904090664"><ele>326.0</ele><time>2026-04-06T16:12:39Z</time></trkpt><trkpt lat="36.93507759004524" lon="15.104064872302356"><ele>326.0</ele><time>2026-04-06T16:12:40Z</time></trkpt><trkpt lat="36.93503730802242" lon="15.104149317134452"><ele>326.0</ele><time>2026-04-06T16:12:41Z</time></trkpt><trkpt lat="36.93499575634223" lon="15.104234140281202"><ele>324.8</ele><time>2026-04-06T16:12:42Z</time></trkpt><trkpt lat="36.93495645931987" lon="15.104322342909088"><ele>323.6</ele><time>2026-04-06T16:12:43Z</time></trkpt><trkpt lat="36.93491378326436" lon="15.104413490605989"><ele>322.4</ele><time>2026-04-06T16:12:44Z</time></trkpt><trkpt lat="36.934861668957836" lon="15.104513783723915"><ele>321.2</ele><time>2026-04-06T16:12:45Z</time></trkpt><trkpt lat="36.934798948125774" lon="15.104611861569545"><ele>320.0</ele><time>2026-04-06T16:12:46Z</time></trkpt><trkpt lat="36.93472880945897" lon="15.104709342473276"><ele>320.0</ele><time>2026-04-06T16:12:47Z</time></trkpt><trkpt lat="36.93465595924964" lon="15.104809740706775"><ele>320.0</ele><time>2026-04-06T16:12:48Z</time></trkpt><trkpt lat="36.93458003799251" lon="15.104914213352538"><ele>320.0</ele><time>2026-04-06T16:12:49Z</time></trkpt><trkpt lat="36.93450904834978" lon="15.105020152106786"><ele>320.0</ele><time>2026-04-06T16:12:50Z</time></trkpt><trkpt lat="36.93444513078197" lon="15.105128879086584"><ele>320.0</ele><time>2026-04-06T16:12:51Z</time></trkpt><trkpt lat="36.93437338576317" lon="15.1052441958041"><ele>317.2</ele><time>2026-04-06T16:12:52Z</time></trkpt><trkpt lat="36.93433971033928" lon="15.105382395092727"><ele>314.4</ele><time>2026-04-06T16:12:53Z</time></trkpt><trkpt lat="36.93427830509417" lon="15.105503341207863"><ele>311.6</ele><time>2026-04-06T16:12:54Z</time></trkpt><trkpt lat="36.934233404459306" lon="15.105630503785966"><ele>308.8</ele><time>2026-04-06T16:12:55Z</time></trkpt><trkpt lat="36.93420452855692" lon="15.105756447300553"><ele>306.0</ele><time>2026-04-06T16:12:56Z</time></trkpt><trkpt lat="36.93416122857405" lon="15.105872323166317"><ele>306.0</ele><time>2026-04-06T16:12:57Z</time></trkpt><trkpt lat="36.934124984372644" lon="15.105985316434811"><ele>306.0</ele><time>2026-04-06T16:12:58Z</time></trkpt><trkpt lat="36.93408858911144" lon="15.106100614772568"><ele>306.0</ele><time>2026-04-06T16:12:59Z</time></trkpt><trkpt lat="36.934080392973634" lon="15.106254487034445"><ele>306.0</ele><time>2026-04-06T16:13:00Z</time></trkpt><trkpt lat="36.93409816279788" lon="15.10642001333586"><ele>306.0</ele><time>2026-04-06T16:13:01Z</time></trkpt><trkpt lat="36.9341322108759" lon="15.106569239217027"><ele>306.0</ele><time>2026-04-06T16:13:02Z</time></trkpt><trkpt lat="36.93414559742536" lon="15.106713805632769"><ele>306.0</ele><time>2026-04-06T16:13:03Z</time></trkpt><trkpt lat="36.934158833306405" lon="15.106854526280689"><ele>306.0</ele><time>2026-04-06T16:13:04Z</time></trkpt><trkpt lat="36.93417314790174" lon="15.106986631055513"><ele>305.6</ele><time>2026-04-06T16:13:05Z</time></trkpt><trkpt lat="36.93418735507455" lon="15.10710917939745"><ele>305.20000000000005</ele><time>2026-04-06T16:13:06Z</time></trkpt><trkpt lat="36.934187959446824" lon="15.107231362366749"><ele>304.79999999999995</ele><time>2026-04-06T16:13:07Z</time></trkpt><trkpt lat="36.93422771645247" lon="15.10734201235338"><ele>304.4</ele><time>2026-04-06T16:13:08Z</time></trkpt><trkpt lat="36.93428612141951" lon="15.10743230490279"><ele>304.0</ele><time>2026-04-06T16:13:09Z</time></trkpt><trkpt lat="36.934326695487535" lon="15.107522363338981"><ele>302.2857142857143</ele><time>2026-04-06T16:13:10Z</time></trkpt><trkpt lat="36.9343455241543" lon="15.107612236831988"><ele>300.5714285714286</ele><time>2026-04-06T16:13:11Z</time></trkpt><trkpt lat="36.93434431914017" lon="15.107701335122094"><ele>298.8571428571429</ele><time>2026-04-06T16:13:12Z</time></trkpt><trkpt lat="36.934348459036784" lon="15.1077919093261"><ele>297.1428571428571</ele><time>2026-04-06T16:13:13Z</time></trkpt><trkpt lat="36.934328220682765" lon="15.10787467874843"><ele>295.42857142857144</ele><time>2026-04-06T16:13:14Z</time></trkpt><trkpt lat="36.93429211581912" lon="15.107946009432565"><ele>293.7142857142857</ele><time>2026-04-06T16:13:15Z</time></trkpt><trkpt lat="36.9342654442787" lon="15.108017391790428"><ele>292.0</ele><time>2026-04-06T16:13:16Z</time></trkpt><trkpt lat="36.934199778313314" lon="15.108128627918747"><ele>292.0</ele><time>2026-04-06T16:13:18Z</time></trkpt><trkpt lat="36.93411518142368" lon="15.108141278422057"><ele>292.0</ele><time>2026-04-06T16:13:20Z</time></trkpt><trkpt lat="36.934079585114944" lon="15.10802910089509"><ele>292.0</ele><time>2026-04-06T16:13:22Z</time></trkpt><trkpt lat="36.93408694158991" lon="15.107935774601401"><ele>292.0</ele><time>2026-04-06T16:13:23Z</time></trkpt><trkpt lat="36.93408933998276" lon="15.107815977035923"><ele>292.0</ele><time>2026-04-06T16:13:24Z</time></trkpt><trkpt lat="36.93409215024481" lon="15.107699201847131"><ele>292.0</ele><time>2026-04-06T16:13:25Z</time></trkpt><trkpt lat="36.93409339878344" lon="15.107580844723197"><ele>292.0</ele><time>2026-04-06T16:13:26Z</time></trkpt><trkpt lat="36.934089055131246" lon="15.107457246440578"><ele>292.0</ele><time>2026-04-06T16:13:27Z</time></trkpt><trkpt lat="36.93408481183329" lon="15.107331399982636"><ele>292.0</ele><time>2026-04-06T16:13:28Z</time></trkpt><trkpt lat="36.93407701981364" lon="15.107205638197719"><ele>292.0</ele><time>2026-04-06T16:13:29Z</time></trkpt><trkpt lat="36.93406759625094" lon="15.107084238992723"><ele>292.0</ele><time>2026-04-06T16:13:30Z</time></trkpt><trkpt lat="36.9340520719867" lon="15.106959294566266"><ele>294.4</ele><time>2026-04-06T16:13:31Z</time></trkpt><trkpt lat="36.93402947452712" lon="15.106831385742527"><ele>296.79999999999995</ele><time>2026-04-06T16:13:32Z</time></trkpt><trkpt lat="36.933998021483944" lon="15.10670104008916"><ele>299.2</ele><time>2026-04-06T16:13:33Z</time></trkpt><trkpt lat="36.9339611356384" lon="15.106569784630858"><ele>301.59999999999997</ele><time>2026-04-06T16:13:34Z</time></trkpt><trkpt lat="36.933927267952434" lon="15.106445409037958"><ele>304.0</ele><time>2026-04-06T16:13:35Z</time></trkpt><trkpt lat="36.93389697977263" lon="15.106327432490051"><ele>304.3333333333333</ele><time>2026-04-06T16:13:36Z</time></trkpt><trkpt lat="36.93387426725171" lon="15.106217737270025"><ele>304.66666666666663</ele><time>2026-04-06T16:13:37Z</time></trkpt><trkpt lat="36.93386413039703" lon="15.106112701147355"><ele>305.0</ele><time>2026-04-06T16:13:38Z</time></trkpt><trkpt lat="36.93387370059181" lon="15.106005756083656"><ele>305.3333333333333</ele><time>2026-04-06T16:13:39Z</time></trkpt><trkpt lat="36.93389071337725" lon="15.105892844507038"><ele>305.6666666666667</ele><time>2026-04-06T16:13:40Z</time></trkpt><trkpt lat="36.93391560541735" lon="15.105777009246596"><ele>306.0</ele><time>2026-04-06T16:13:41Z</time></trkpt><trkpt lat="36.93393747470487" lon="15.105656132408727"><ele>304.6666666666667</ele><time>2026-04-06T16:13:42Z</time></trkpt><trkpt lat="36.93395731777891" lon="15.10553802427728"><ele>303.3333333333333</ele><time>2026-04-06T16:13:43Z</time></trkpt><trkpt lat="36.933974757186164" lon="15.10542539441912"><ele>302.0</ele><time>2026-04-06T16:13:44Z</time></trkpt><trkpt lat="36.93399022176126" lon="15.10531594843191"><ele>300.66666666666663</ele><time>2026-04-06T16:13:45Z</time></trkpt><trkpt lat="36.934002195163515" lon="15.105210707139603"><ele>299.3333333333333</ele><time>2026-04-06T16:13:46Z</time></trkpt><trkpt lat="36.93401308727694" lon="15.105110638368629"><ele>298.0</ele><time>2026-04-06T16:13:47Z</time></trkpt><trkpt lat="36.93402237868863" lon="15.105012302426834"><ele>298.0</ele><time>2026-04-06T16:13:48Z</time></trkpt><trkpt lat="36.93401794338019" lon="15.104914322726964"><ele>298.0</ele><time>2026-04-06T16:13:49Z</time></trkpt><trkpt lat="36.933991007182264" lon="15.104820789166036"><ele>298.0</ele><time>2026-04-06T16:13:50Z</time></trkpt><trkpt lat="36.93393568651666" lon="15.104749930157492"><ele>298.0</ele><time>2026-04-06T16:13:51Z</time></trkpt><trkpt lat="36.93386565825109" lon="15.104703518112323"><ele>298.0</ele><time>2026-04-06T16:13:52Z</time></trkpt><trkpt lat="36.933781887351095" lon="15.104678374717356"><ele>298.0</ele><time>2026-04-06T16:13:53Z</time></trkpt><trkpt lat="36.933693182822715" lon="15.104678713478025"><ele>297.2</ele><time>2026-04-06T16:13:54Z</time></trkpt><trkpt lat="36.93360410868266" lon="15.104710936098256"><ele>296.4</ele><time>2026-04-06T16:13:55Z</time></trkpt><trkpt lat="36.93352517444749" lon="15.104774892239616"><ele>295.59999999999997</ele><time>2026-04-06T16:13:56Z</time></trkpt><trkpt lat="36.9334546034007" lon="15.104854850095684"><ele>294.8</ele><time>2026-04-06T16:13:57Z</time></trkpt><trkpt lat="36.93338312709913" lon="15.104934084124894"><ele>294.0</ele><time>2026-04-06T16:13:58Z</time></trkpt><trkpt lat="36.933309300076914" lon="15.105015663088382"><ele>291.8</ele><time>2026-04-06T16:13:59Z</time></trkpt><trkpt lat="36.93323159495445" lon="15.105096700078185"><ele>289.59999999999997</ele><time>2026-04-06T16:14:00Z</time></trkpt><trkpt lat="36.933152247813375" lon="15.105180749356954"><ele>287.4</ele><time>2026-04-06T16:14:01Z</time></trkpt><trkpt lat="36.933070978795314" lon="15.105268821061665"><ele>285.2</ele><time>2026-04-06T16:14:02Z</time></trkpt><trkpt lat="36.932990438370574" lon="15.105357820315993"><ele>283.0</ele><time>2026-04-06T16:14:03Z</time></trkpt><trkpt lat="36.93291239726685" lon="15.105444407258556"><ele>283.0</ele><time>2026-04-06T16:14:04Z</time></trkpt><trkpt lat="36.93283292522541" lon="15.105527469819721"><ele>283.0</ele><time>2026-04-06T16:14:05Z</time></trkpt><trkpt lat="36.93275639989954" lon="15.105610037055754"><ele>283.0</ele><time>2026-04-06T16:14:06Z</time></trkpt><trkpt lat="36.93268520631883" lon="15.105688238052787"><ele>283.0</ele><time>2026-04-06T16:14:07Z</time></trkpt><trkpt lat="36.93262272264561" lon="15.1057681437533"><ele>283.0</ele><time>2026-04-06T16:14:08Z</time></trkpt><trkpt lat="36.93257474842734" lon="15.105853876133171"><ele>283.0</ele><time>2026-04-06T16:14:09Z</time></trkpt><trkpt lat="36.93253333833898" lon="15.105947427764765"><ele>283.0</ele><time>2026-04-06T16:14:10Z</time></trkpt><trkpt lat="36.932501581406584" lon="15.106050635149769"><ele>283.0</ele><time>2026-04-06T16:14:11Z</time></trkpt><trkpt lat="36.93248552645645" lon="15.106163648558903"><ele>283.0</ele><time>2026-04-06T16:14:12Z</time></trkpt><trkpt lat="36.932484733721104" lon="15.106275140287615"><ele>283.0</ele><time>2026-04-06T16:14:13Z</time></trkpt><trkpt lat="36.93249112705717" lon="15.106382120219555"><ele>283.0</ele><time>2026-04-06T16:14:14Z</time></trkpt><trkpt lat="36.93250114402543" lon="15.106483303252492"><ele>281.0</ele><time>2026-04-06T16:14:15Z</time></trkpt><trkpt lat="36.93249134428211" lon="15.106588074789764"><ele>279.0</ele><time>2026-04-06T16:14:16Z</time></trkpt><trkpt lat="36.9325122888283" lon="15.106688994856137"><ele>277.0</ele><time>2026-04-06T16:14:17Z</time></trkpt><trkpt lat="36.932511889760676" lon="15.10678792257399"><ele>275.0</ele><time>2026-04-06T16:14:18Z</time></trkpt><trkpt lat="36.932501849789084" lon="15.106882812910134"><ele>273.0</ele><time>2026-04-06T16:14:19Z</time></trkpt><trkpt lat="36.93247598805045" lon="15.106977287403685"><ele>271.0</ele><time>2026-04-06T16:14:20Z</time></trkpt><trkpt lat="36.93243899866017" lon="15.107076611276604"><ele>271.0</ele><time>2026-04-06T16:14:21Z</time></trkpt><trkpt lat="36.93239545165513" lon="15.107167987221244"><ele>271.0</ele><time>2026-04-06T16:14:22Z</time></trkpt><trkpt lat="36.932348642572485" lon="15.107248768133001"><ele>271.0</ele><time>2026-04-06T16:14:23Z</time></trkpt><trkpt lat="36.93229221410214" lon="15.10731404660323"><ele>271.0</ele><time>2026-04-06T16:14:24Z</time></trkpt><trkpt lat="36.93221776850739" lon="15.107370088660748"><ele>271.0</ele><time>2026-04-06T16:14:25Z</time></trkpt><trkpt lat="36.93213367662429" lon="15.107423985263406"><ele>271.0</ele><time>2026-04-06T16:14:26Z</time></trkpt><trkpt lat="36.93204421352519" lon="15.10748111372944"><ele>269.3333333333333</ele><time>2026-04-06T16:14:27Z</time></trkpt><trkpt lat="36.93195772823576" lon="15.107539282691555"><ele>267.66666666666663</ele><time>2026-04-06T16:14:28Z</time></trkpt><trkpt lat="36.931874627824804" lon="15.107593229196455"><ele>266.0</ele><time>2026-04-06T16:14:29Z</time></trkpt><trkpt lat="36.93179445099831" lon="15.107641197151423"><ele>264.3333333333333</ele><time>2026-04-06T16:14:30Z</time></trkpt><trkpt lat="36.93172155041685" lon="15.107685898146899"><ele>262.6666666666667</ele><time>2026-04-06T16:14:31Z</time></trkpt><trkpt lat="36.93165087180496" lon="15.107718892147878"><ele>261.0</ele><time>2026-04-06T16:14:32Z</time></trkpt><trkpt lat="36.93158600005407" lon="15.10773676550479"><ele>261.0</ele><time>2026-04-06T16:14:33Z</time></trkpt><trkpt lat="36.93152428935891" lon="15.107720340724038"><ele>261.0</ele><time>2026-04-06T16:14:34Z</time></trkpt><trkpt lat="36.931443973757084" lon="15.107595882687631"><ele>261.0</ele><time>2026-04-06T16:14:36Z</time></trkpt><trkpt lat="36.931425661035206" lon="15.107509985411976"><ele>261.0</ele><time>2026-04-06T16:14:37Z</time></trkpt><trkpt lat="36.931430570664425" lon="15.107404376299602"><ele>261.0</ele><time>2026-04-06T16:14:38Z</time></trkpt><trkpt lat="36.93144537135191" lon="15.107267938821108"><ele>263.0</ele><time>2026-04-06T16:14:39Z</time></trkpt><trkpt lat="36.931452893425984" lon="15.107098715905286"><ele>265.0</ele><time>2026-04-06T16:14:40Z</time></trkpt><trkpt lat="36.93145466008775" lon="15.106908463653843"><ele>267.0</ele><time>2026-04-06T16:14:41Z</time></trkpt><trkpt lat="36.931448571118445" lon="15.106703162043306"><ele>268.0</ele><time>2026-04-06T16:14:42Z</time></trkpt><trkpt lat="36.931435032221934" lon="15.106506517632447"><ele>269.0</ele><time>2026-04-06T16:14:43Z</time></trkpt><trkpt lat="36.931411050632576" lon="15.106310270947526"><ele>270.0</ele><time>2026-04-06T16:14:44Z</time></trkpt><trkpt lat="36.93138289650054" lon="15.106117078281533"><ele>270.0</ele><time>2026-04-06T16:14:45Z</time></trkpt><trkpt lat="36.93135149162121" lon="15.105926081620272"><ele>270.0</ele><time>2026-04-06T16:14:46Z</time></trkpt><trkpt lat="36.931317350864745" lon="15.105747318792448"><ele>270.0</ele><time>2026-04-06T16:14:47Z</time></trkpt><trkpt lat="36.93128372301678" lon="15.105588113810427"><ele>270.0</ele><time>2026-04-06T16:14:48Z</time></trkpt><trkpt lat="36.93125209904509" lon="15.105446049329789"><ele>270.0</ele><time>2026-04-06T16:14:49Z</time></trkpt><trkpt lat="36.93122172148064" lon="15.105315166285983"><ele>270.0</ele><time>2026-04-06T16:14:50Z</time></trkpt><trkpt lat="36.93119610870878" lon="15.105188898641956"><ele>270.0</ele><time>2026-04-06T16:14:51Z</time></trkpt><trkpt lat="36.931174073519585" lon="15.105074037294832"><ele>270.0</ele><time>2026-04-06T16:14:52Z</time></trkpt><trkpt lat="36.931156901767224" lon="15.104971895260844"><ele>270.0</ele><time>2026-04-06T16:14:53Z</time></trkpt><trkpt lat="36.931144190653086" lon="15.104880958019326"><ele>270.0</ele><time>2026-04-06T16:14:54Z</time></trkpt><trkpt lat="36.931091130545504" lon="15.104754583813527"><ele>270.0</ele><time>2026-04-06T16:14:56Z</time></trkpt><trkpt lat="36.930985221543374" lon="15.104794004305216"><ele>270.0</ele><time>2026-04-06T16:14:58Z</time></trkpt><trkpt lat="36.93095323725225" lon="15.104875365927025"><ele>270.0</ele><time>2026-04-06T16:14:59Z</time></trkpt><trkpt lat="36.930948563133" lon="15.10497688158361"><ele>270.0</ele><time>2026-04-06T16:15:00Z</time></trkpt><trkpt lat="36.93097298483361" lon="15.105098603729386"><ele>270.0</ele><time>2026-04-06T16:15:01Z</time></trkpt><trkpt lat="36.93100906207225" lon="15.105222800071807"><ele>270.0</ele><time>2026-04-06T16:15:02Z</time></trkpt><trkpt lat="36.9310433070153" lon="15.105342917315037"><ele>270.0</ele><time>2026-04-06T16:15:03Z</time></trkpt><trkpt lat="36.93105663986432" lon="15.105492245609895"><ele>270.0</ele><time>2026-04-06T16:15:04Z</time></trkpt><trkpt lat="36.931076684385886" lon="15.105671555158018"><ele>270.0</ele><time>2026-04-06T16:15:05Z</time></trkpt><trkpt lat="36.93110135518471" lon="15.105846516382973"><ele>270.0</ele><time>2026-04-06T16:15:06Z</time></trkpt><trkpt lat="36.93110296286761" lon="15.106025159954868"><ele>270.0</ele><time>2026-04-06T16:15:07Z</time></trkpt><trkpt lat="36.93110134125903" lon="15.10620565654921"><ele>270.0</ele><time>2026-04-06T16:15:08Z</time></trkpt><trkpt lat="36.931097320418054" lon="15.106380189205431"><ele>270.0</ele><time>2026-04-06T16:15:09Z</time></trkpt><trkpt lat="36.93107405763466" lon="15.106544284370283"><ele>270.0</ele><time>2026-04-06T16:15:10Z</time></trkpt><trkpt lat="36.93106309442756" lon="15.106703816987492"><ele>270.0</ele><time>2026-04-06T16:15:11Z</time></trkpt><trkpt lat="36.93104656933817" lon="15.106857887914337"><ele>270.0</ele><time>2026-04-06T16:15:12Z</time></trkpt><trkpt lat="36.93101389183034" lon="15.10700743983493"><ele>269.25</ele><time>2026-04-06T16:15:13Z</time></trkpt><trkpt lat="36.930965962255094" lon="15.107168614993247"><ele>268.5</ele><time>2026-04-06T16:15:14Z</time></trkpt><trkpt lat="36.93091231396401" lon="15.107325790929691"><ele>267.75</ele><time>2026-04-06T16:15:15Z</time></trkpt><trkpt lat="36.93086091992842" lon="15.107479732745327"><ele>267.0</ele><time>2026-04-06T16:15:16Z</time></trkpt><trkpt lat="36.93081230118709" lon="15.107628837040243"><ele>257.75</ele><time>2026-04-06T16:15:17Z</time></trkpt><trkpt lat="36.93076561060643" lon="15.107772028272786"><ele>248.5</ele><time>2026-04-06T16:15:18Z</time></trkpt><trkpt lat="36.930719637251016" lon="15.107913019820037"><ele>239.25</ele><time>2026-04-06T16:15:19Z</time></trkpt><trkpt lat="36.93067399723893" lon="15.108052989176537"><ele>230.0</ele><time>2026-04-06T16:15:20Z</time></trkpt><trkpt lat="36.930630088728925" lon="15.108191053491376"><ele>231.2</ele><time>2026-04-06T16:15:21Z</time></trkpt><trkpt lat="36.930588508173784" lon="15.10832427804659"><ele>232.4</ele><time>2026-04-06T16:15:22Z</time></trkpt><trkpt lat="36.93054866281963" lon="15.108451942954948"><ele>233.60000000000002</ele><time>2026-04-06T16:15:23Z</time></trkpt><trkpt lat="36.93051594101917" lon="15.108562117998403"><ele>234.8</ele><time>2026-04-06T16:15:24Z</time></trkpt><trkpt lat="36.930489394504924" lon="15.108649780209273"><ele>236.0</ele><time>2026-04-06T16:15:25Z</time></trkpt><trkpt lat="36.93045836734332" lon="15.10872475000097"><ele>236.00000000000003</ele><time>2026-04-06T16:15:27Z</time></trkpt><trkpt lat="36.93039153827311" lon="15.10868113753499"><ele>236.0</ele><time>2026-04-06T16:15:30Z</time></trkpt><trkpt lat="36.930418718475295" lon="15.10856679621979"><ele>236.0</ele><time>2026-04-06T16:15:31Z</time></trkpt><trkpt lat="36.93044767294284" lon="15.108476559544231"><ele>236.0</ele><time>2026-04-06T16:15:32Z</time></trkpt><trkpt lat="36.93047462242273" lon="15.108374366237497"><ele>236.00000000000003</ele><time>2026-04-06T16:15:33Z</time></trkpt><trkpt lat="36.930502627718504" lon="15.108255802242576"><ele>236.0</ele><time>2026-04-06T16:15:34Z</time></trkpt><trkpt lat="36.93052973626021" lon="15.10812032359672"><ele>234.8</ele><time>2026-04-06T16:15:35Z</time></trkpt><trkpt lat="36.93055799311905" lon="15.107983988913443"><ele>233.60000000000002</ele><time>2026-04-06T16:15:36Z</time></trkpt><trkpt lat="36.930586007612945" lon="15.10785245077085"><ele>232.4</ele><time>2026-04-06T16:15:37Z</time></trkpt><trkpt lat="36.93061203070862" lon="15.107725923489555"><ele>231.2</ele><time>2026-04-06T16:15:38Z</time></trkpt><trkpt lat="36.93063604543224" lon="15.107599756488652"><ele>230.0</ele><time>2026-04-06T16:15:39Z</time></trkpt><trkpt lat="36.930657004109534" lon="15.107473738802373"><ele>228.5</ele><time>2026-04-06T16:15:40Z</time></trkpt><trkpt lat="36.930674630327125" lon="15.10734585258309"><ele>227.0</ele><time>2026-04-06T16:15:41Z</time></trkpt><trkpt lat="36.930690054336026" lon="15.107211765757102"><ele>225.5</ele><time>2026-04-06T16:15:42Z</time></trkpt><trkpt lat="36.930707786696274" lon="15.1070537698208"><ele>224.0</ele><time>2026-04-06T16:15:43Z</time></trkpt><trkpt lat="36.930720251128434" lon="15.106889276397538"><ele>224.0</ele><time>2026-04-06T16:15:44Z</time></trkpt><trkpt lat="36.93071613098955" lon="15.10673230246692"><ele>224.0</ele><time>2026-04-06T16:15:45Z</time></trkpt><trkpt lat="36.93070274691973" lon="15.106577856400632"><ele>224.0</ele><time>2026-04-06T16:15:46Z</time></trkpt><trkpt lat="36.93069143978759" lon="15.10642432295749"><ele>224.0</ele><time>2026-04-06T16:15:47Z</time></trkpt><trkpt lat="36.93068258997091" lon="15.106271944225927"><ele>225.75</ele><time>2026-04-06T16:15:48Z</time></trkpt><trkpt lat="36.93067428285035" lon="15.106119272406792"><ele>227.5</ele><time>2026-04-06T16:15:49Z</time></trkpt><trkpt lat="36.930658609911006" lon="15.105967086531352"><ele>229.25</ele><time>2026-04-06T16:15:50Z</time></trkpt><trkpt lat="36.93063031158688" lon="15.105816100690731"><ele>231.0</ele><time>2026-04-06T16:15:51Z</time></trkpt><trkpt lat="36.93056902865819" lon="15.105671799858568"><ele>231.75</ele><time>2026-04-06T16:15:52Z</time></trkpt><trkpt lat="36.93048674750164" lon="15.105538834427275"><ele>232.5</ele><time>2026-04-06T16:15:53Z</time></trkpt><trkpt lat="36.93041231617067" lon="15.105423691981551"><ele>233.25</ele><time>2026-04-06T16:15:54Z</time></trkpt><trkpt lat="36.930348895655754" lon="15.105308473984516"><ele>234.0</ele><time>2026-04-06T16:15:55Z</time></trkpt><trkpt lat="36.930299261645736" lon="15.10519068313402"><ele>234.0</ele><time>2026-04-06T16:15:56Z</time></trkpt><trkpt lat="36.930249694278025" lon="15.105071130044356"><ele>233.99999999999997</ele><time>2026-04-06T16:15:57Z</time></trkpt><trkpt lat="36.930206201132556" lon="15.104954339717263"><ele>233.99999999999997</ele><time>2026-04-06T16:15:58Z</time></trkpt><trkpt lat="36.930172828101846" lon="15.104863479259764"><ele>234.0</ele><time>2026-04-06T16:15:59Z</time></trkpt><trkpt lat="36.930136873994" lon="15.104793861526566"><ele>234.0</ele><time>2026-04-06T16:16:00Z</time></trkpt><trkpt lat="36.93002116266467" lon="15.104780059578435"><ele>228.83333333333334</ele><time>2026-04-06T16:16:02Z</time></trkpt><trkpt lat="36.92997192346222" lon="15.104840097380086"><ele>223.66666666666669</ele><time>2026-04-06T16:16:03Z</time></trkpt><trkpt lat="36.92995142825205" lon="15.10492629988469"><ele>218.5</ele><time>2026-04-06T16:16:04Z</time></trkpt><trkpt lat="36.92995333098278" lon="15.105041256148658"><ele>213.33333333333334</ele><time>2026-04-06T16:16:05Z</time></trkpt><trkpt lat="36.92995801975408" lon="15.105169941642847"><ele>208.16666666666669</ele><time>2026-04-06T16:16:06Z</time></trkpt><trkpt lat="36.92998552006108" lon="15.10529073976361"><ele>203.0</ele><time>2026-04-06T16:16:07Z</time></trkpt><trkpt lat="36.930038699216226" lon="15.105407882756714"><ele>208.60000000000002</ele><time>2026-04-06T16:16:08Z</time></trkpt><trkpt lat="36.93011602328194" lon="15.105513465383538"><ele>214.20000000000002</ele><time>2026-04-06T16:16:09Z</time></trkpt><trkpt lat="36.93019785504651" lon="15.105612374992791"><ele>219.8</ele><time>2026-04-06T16:16:10Z</time></trkpt><trkpt lat="36.93027670782445" lon="15.105708212067222"><ele>225.4</ele><time>2026-04-06T16:16:11Z</time></trkpt><trkpt lat="36.93033957568493" lon="15.105812202507702"><ele>231.0</ele><time>2026-04-06T16:16:12Z</time></trkpt><trkpt lat="36.93036885992755" lon="15.105930152303793"><ele>231.0</ele><time>2026-04-06T16:16:13Z</time></trkpt><trkpt lat="36.93038541831999" lon="15.106066193107358"><ele>231.0</ele><time>2026-04-06T16:16:14Z</time></trkpt><trkpt lat="36.930365188164714" lon="15.106216132656558"><ele>231.0</ele><time>2026-04-06T16:16:15Z</time></trkpt><trkpt lat="36.930330585089614" lon="15.10637170353268"><ele>231.0</ele><time>2026-04-06T16:16:16Z</time></trkpt><trkpt lat="36.93028619057733" lon="15.106529656086364"><ele>229.25</ele><time>2026-04-06T16:16:17Z</time></trkpt><trkpt lat="36.9302369563172" lon="15.10669046063528"><ele>227.5</ele><time>2026-04-06T16:16:18Z</time></trkpt><trkpt lat="36.93018275075207" lon="15.106852405877484"><ele>225.75</ele><time>2026-04-06T16:16:19Z</time></trkpt><trkpt lat="36.93012268554249" lon="15.107014497421384"><ele>224.0</ele><time>2026-04-06T16:16:20Z</time></trkpt><trkpt lat="36.93006034577098" lon="15.107177624141755"><ele>216.5</ele><time>2026-04-06T16:16:21Z</time></trkpt><trkpt lat="36.92999935431536" lon="15.107337060615361"><ele>209.0</ele><time>2026-04-06T16:16:22Z</time></trkpt><trkpt lat="36.929939174842964" lon="15.107487025338358"><ele>201.5</ele><time>2026-04-06T16:16:23Z</time></trkpt><trkpt lat="36.92988198614717" lon="15.107634899519956"><ele>194.0</ele><time>2026-04-06T16:16:24Z</time></trkpt><trkpt lat="36.929828939128605" lon="15.107781700130174"><ele>194.0</ele><time>2026-04-06T16:16:25Z</time></trkpt><trkpt lat="36.92977831435835" lon="15.107929472628491"><ele>194.0</ele><time>2026-04-06T16:16:26Z</time></trkpt><trkpt lat="36.92972580364511" lon="15.10809401776004"><ele>194.0</ele><time>2026-04-06T16:16:27Z</time></trkpt><trkpt lat="36.92966770939307" lon="15.108262572942152"><ele>194.0</ele><time>2026-04-06T16:16:28Z</time></trkpt><trkpt lat="36.929592090520615" lon="15.108423581399034"><ele>197.0</ele><time>2026-04-06T16:16:29Z</time></trkpt><trkpt lat="36.92949838680001" lon="15.108572285779454"><ele>200.0</ele><time>2026-04-06T16:16:30Z</time></trkpt><trkpt lat="36.92939205808497" lon="15.108712110664463"><ele>203.0</ele><time>2026-04-06T16:16:31Z</time></trkpt><trkpt lat="36.9292871450868" lon="15.108846969538442"><ele>199.25</ele><time>2026-04-06T16:16:32Z</time></trkpt><trkpt lat="36.92918473853446" lon="15.108983109147694"><ele>195.5</ele><time>2026-04-06T16:16:33Z</time></trkpt><trkpt lat="36.92908513278295" lon="15.109114880076666"><ele>191.75</ele><time>2026-04-06T16:16:34Z</time></trkpt><trkpt lat="36.92898632946875" lon="15.109240149170953"><ele>188.0</ele><time>2026-04-06T16:16:35Z</time></trkpt><trkpt lat="36.92888866508954" lon="15.109361496947644"><ele>188.0</ele><time>2026-04-06T16:16:36Z</time></trkpt><trkpt lat="36.928792430180415" lon="15.10947945825306"><ele>188.0</ele><time>2026-04-06T16:16:37Z</time></trkpt><trkpt lat="36.928702805662745" lon="15.109599681131265"><ele>188.0</ele><time>2026-04-06T16:16:38Z</time></trkpt><trkpt lat="36.9286127669826" lon="15.10972057507277"><ele>188.0</ele><time>2026-04-06T16:16:39Z</time></trkpt><trkpt lat="36.9285202507739" lon="15.109843800449234"><ele>191.25</ele><time>2026-04-06T16:16:40Z</time></trkpt><trkpt lat="36.928427592898345" lon="15.109970181433086"><ele>194.5</ele><time>2026-04-06T16:16:41Z</time></trkpt><trkpt lat="36.92832613322403" lon="15.110090256302042"><ele>197.75</ele><time>2026-04-06T16:16:42Z</time></trkpt><trkpt lat="36.92822093894631" lon="15.110198597087368"><ele>201.0</ele><time>2026-04-06T16:16:43Z</time></trkpt><trkpt lat="36.92811810206035" lon="15.110301963958701"><ele>197.25</ele><time>2026-04-06T16:16:44Z</time></trkpt><trkpt lat="36.928018833737255" lon="15.110405063495891"><ele>193.5</ele><time>2026-04-06T16:16:45Z</time></trkpt><trkpt lat="36.92792661831482" lon="15.110512841392618"><ele>189.75</ele><time>2026-04-06T16:16:46Z</time></trkpt><trkpt lat="36.9278450925195" lon="15.110637259350769"><ele>186.0</ele><time>2026-04-06T16:16:47Z</time></trkpt><trkpt lat="36.92775362170209" lon="15.110784364669374"><ele>186.0</ele><time>2026-04-06T16:16:48Z</time></trkpt><trkpt lat="36.92769730252031" lon="15.110973961911128"><ele>186.0</ele><time>2026-04-06T16:16:49Z</time></trkpt><trkpt lat="36.927632338013076" lon="15.11115123765828"><ele>186.0</ele><time>2026-04-06T16:16:50Z</time></trkpt><trkpt lat="36.92756728120465" lon="15.111320684603033"><ele>181.25</ele><time>2026-04-06T16:16:51Z</time></trkpt><trkpt lat="36.92750119434483" lon="15.111476848011907"><ele>176.5</ele><time>2026-04-06T16:16:52Z</time></trkpt><trkpt lat="36.92743010604716" lon="15.111612944078667"><ele>171.75</ele><time>2026-04-06T16:16:53Z</time></trkpt><trkpt lat="36.92734690950878" lon="15.111724000351286"><ele>167.0</ele><time>2026-04-06T16:16:54Z</time></trkpt><trkpt lat="36.92725720659474" lon="15.111795378905722"><ele>167.0</ele><time>2026-04-06T16:16:55Z</time></trkpt><trkpt lat="36.92716375287258" lon="15.111834018465256"><ele>167.0</ele><time>2026-04-06T16:16:56Z</time></trkpt><trkpt lat="36.927065898950225" lon="15.111826946537802"><ele>167.0</ele><time>2026-04-06T16:16:57Z</time></trkpt><trkpt lat="36.9269701873033" lon="15.111792317134949"><ele>167.0</ele><time>2026-04-06T16:16:58Z</time></trkpt><trkpt lat="36.92686644980592" lon="15.111762653801277"><ele>167.0</ele><time>2026-04-06T16:16:59Z</time></trkpt><trkpt lat="36.92675197928355" lon="15.111768906518884"><ele>165.75</ele><time>2026-04-06T16:17:00Z</time></trkpt><trkpt lat="36.926644877338774" lon="15.111799532753398"><ele>164.5</ele><time>2026-04-06T16:17:01Z</time></trkpt><trkpt lat="36.926540519658445" lon="15.11185613450703"><ele>163.25</ele><time>2026-04-06T16:17:02Z</time></trkpt><trkpt lat="36.92643492009927" lon="15.111935841495432"><ele>162.0</ele><time>2026-04-06T16:17:03Z</time></trkpt><trkpt lat="36.926342732962766" lon="15.112022468187256"><ele>162.0</ele><time>2026-04-06T16:17:04Z</time></trkpt><trkpt lat="36.926269045009676" lon="15.112125993654713"><ele>162.0</ele><time>2026-04-06T16:17:05Z</time></trkpt><trkpt lat="36.92621930115633" lon="15.112247660013212"><ele>162.0</ele><time>2026-04-06T16:17:06Z</time></trkpt><trkpt lat="36.926190125447256" lon="15.112374242955527"><ele>162.0</ele><time>2026-04-06T16:17:07Z</time></trkpt><trkpt lat="36.926179300889366" lon="15.112498025347843"><ele>162.0</ele><time>2026-04-06T16:17:08Z</time></trkpt><trkpt lat="36.92617585642047" lon="15.112618678025965"><ele>162.6</ele><time>2026-04-06T16:17:09Z</time></trkpt><trkpt lat="36.92618242738823" lon="15.112741636248098"><ele>163.2</ele><time>2026-04-06T16:17:10Z</time></trkpt><trkpt lat="36.926212751972876" lon="15.112854620426328"><ele>163.8</ele><time>2026-04-06T16:17:11Z</time></trkpt><trkpt lat="36.92626341718298" lon="15.11295696324229"><ele>164.4</ele><time>2026-04-06T16:17:12Z</time></trkpt><trkpt lat="36.926333875102266" lon="15.113045615094356"><ele>165.0</ele><time>2026-04-06T16:17:13Z</time></trkpt><trkpt lat="36.926410602250634" lon="15.113140375934075"><ele>165.0</ele><time>2026-04-06T16:17:14Z</time></trkpt><trkpt lat="36.92649927528824" lon="15.113219234708948"><ele>165.0</ele><time>2026-04-06T16:17:15Z</time></trkpt><trkpt lat="36.926589585407264" lon="15.11329971828296"><ele>165.0</ele><time>2026-04-06T16:17:16Z</time></trkpt><trkpt lat="36.92668653510049" lon="15.113371662111883"><ele>165.0</ele><time>2026-04-06T16:17:17Z</time></trkpt><trkpt lat="36.92674327121143" lon="15.113495546960454"><ele>165.0</ele><time>2026-04-06T16:17:18Z</time></trkpt><trkpt lat="36.92679696174141" lon="15.113613877980129"><ele>163.8</ele><time>2026-04-06T16:17:19Z</time></trkpt><trkpt lat="36.926835542223294" lon="15.113738127117402"><ele>162.6</ele><time>2026-04-06T16:17:20Z</time></trkpt><trkpt lat="36.92685081638878" lon="15.113865960426862"><ele>161.4</ele><time>2026-04-06T16:17:21Z</time></trkpt><trkpt lat="36.92684916696451" lon="15.11398012771328"><ele>160.2</ele><time>2026-04-06T16:17:22Z</time></trkpt><trkpt lat="36.92684284060964" lon="15.114098770025969"><ele>159.0</ele><time>2026-04-06T16:17:23Z</time></trkpt><trkpt lat="36.926799904313846" lon="15.114210153128031"><ele>156.66666666666666</ele><time>2026-04-06T16:17:24Z</time></trkpt><trkpt lat="36.92673430914013" lon="15.114291082249096"><ele>154.33333333333334</ele><time>2026-04-06T16:17:25Z</time></trkpt><trkpt lat="36.926656058040926" lon="15.114342602329563"><ele>152.0</ele><time>2026-04-06T16:17:26Z</time></trkpt><trkpt lat="36.926582524642875" lon="15.114361092258271"><ele>149.66666666666669</ele><time>2026-04-06T16:17:27Z</time></trkpt><trkpt lat="36.92650770814391" lon="15.114350147605132"><ele>147.33333333333334</ele><time>2026-04-06T16:17:28Z</time></trkpt><trkpt lat="36.92643158381769" lon="15.114308354289145"><ele>145.0</ele><time>2026-04-06T16:17:29Z</time></trkpt><trkpt lat="36.926358940367955" lon="15.114262743255455"><ele>144.4</ele><time>2026-04-06T16:17:30Z</time></trkpt><trkpt lat="36.92627872603195" lon="15.114213721104333"><ele>143.8</ele><time>2026-04-06T16:17:31Z</time></trkpt><trkpt lat="36.926187285907744" lon="15.114159723100721"><ele>143.2</ele><time>2026-04-06T16:17:32Z</time></trkpt><trkpt lat="36.92608371317145" lon="15.114103942548224"><ele>142.6</ele><time>2026-04-06T16:17:33Z</time></trkpt><trkpt lat="36.925971406478844" lon="15.11405321775625"><ele>142.0</ele><time>2026-04-06T16:17:34Z</time></trkpt><trkpt lat="36.92585600814209" lon="15.114017107949751"><ele>142.0</ele><time>2026-04-06T16:17:35Z</time></trkpt><trkpt lat="36.92573601224014" lon="15.114003943902885"><ele>142.0</ele><time>2026-04-06T16:17:36Z</time></trkpt><trkpt lat="36.925620070849284" lon="15.113997213514368"><ele>142.0</ele><time>2026-04-06T16:17:37Z</time></trkpt><trkpt lat="36.925506201084346" lon="15.114011551994066"><ele>142.0</ele><time>2026-04-06T16:17:38Z</time></trkpt><trkpt lat="36.925388621151576" lon="15.114054915157096"><ele>141.5</ele><time>2026-04-06T16:17:39Z</time></trkpt><trkpt lat="36.92526883014605" lon="15.114105845318548"><ele>141.0</ele><time>2026-04-06T16:17:40Z</time></trkpt><trkpt lat="36.92515003962662" lon="15.11416636958182"><ele>140.5</ele><time>2026-04-06T16:17:41Z</time></trkpt><trkpt lat="36.9250362055956" lon="15.114231405821311"><ele>140.0</ele><time>2026-04-06T16:17:42Z</time></trkpt><trkpt lat="36.924926996548365" lon="15.114301622083353"><ele>138.0</ele><time>2026-04-06T16:17:43Z</time></trkpt><trkpt lat="36.92481656280184" lon="15.114376074534828"><ele>136.0</ele><time>2026-04-06T16:17:44Z</time></trkpt><trkpt lat="36.9247063177949" lon="15.114449976592137"><ele>134.0</ele><time>2026-04-06T16:17:45Z</time></trkpt><trkpt lat="36.92459708327913" lon="15.114524851734037"><ele>132.0</ele><time>2026-04-06T16:17:46Z</time></trkpt><trkpt lat="36.924493022837666" lon="15.114597019366027"><ele>132.0</ele><time>2026-04-06T16:17:47Z</time></trkpt><trkpt lat="36.92438963592854" lon="15.114663597799646"><ele>132.0</ele><time>2026-04-06T16:17:48Z</time></trkpt><trkpt lat="36.92428382873266" lon="15.114729776814764"><ele>132.0</ele><time>2026-04-06T16:17:49Z</time></trkpt><trkpt lat="36.92417819621516" lon="15.11479889342499"><ele>132.0</ele><time>2026-04-06T16:17:50Z</time></trkpt><trkpt lat="36.9240707530654" lon="15.114867440027203"><ele>131.0</ele><time>2026-04-06T16:17:51Z</time></trkpt><trkpt lat="36.92396485417885" lon="15.114936594007986"><ele>130.0</ele><time>2026-04-06T16:17:52Z</time></trkpt><trkpt lat="36.92386242995474" lon="15.115005402967846"><ele>129.0</ele><time>2026-04-06T16:17:53Z</time></trkpt><trkpt lat="36.923759638050804" lon="15.115069977415006"><ele>128.0</ele><time>2026-04-06T16:17:54Z</time></trkpt><trkpt lat="36.92365712195621" lon="15.115133364184747"><ele>128.0</ele><time>2026-04-06T16:17:55Z</time></trkpt><trkpt lat="36.92354286745598" lon="15.115207713336813"><ele>128.0</ele><time>2026-04-06T16:17:56Z</time></trkpt><trkpt lat="36.92342101122233" lon="15.115287104238448"><ele>128.0</ele><time>2026-04-06T16:17:57Z</time></trkpt><trkpt lat="36.92330725125737" lon="15.11536011010639"><ele>128.0</ele><time>2026-04-06T16:17:58Z</time></trkpt><trkpt lat="36.923195927584096" lon="15.115429704455623"><ele>126.75</ele><time>2026-04-06T16:17:59Z</time></trkpt><trkpt lat="36.92308599537374" lon="15.11549964769035"><ele>125.5</ele><time>2026-04-06T16:18:00Z</time></trkpt><trkpt lat="36.92297370079932" lon="15.115572937722632"><ele>124.25</ele><time>2026-04-06T16:18:01Z</time></trkpt><trkpt lat="36.92286153131785" lon="15.115652952268885"><ele>123.0</ele><time>2026-04-06T16:18:02Z</time></trkpt><trkpt lat="36.92274963642764" lon="15.115731747140364"><ele>123.0</ele><time>2026-04-06T16:18:03Z</time></trkpt><trkpt lat="36.922633153880476" lon="15.115810176903501"><ele>123.0</ele><time>2026-04-06T16:18:04Z</time></trkpt><trkpt lat="36.922514816959406" lon="15.11588802924948"><ele>123.0</ele><time>2026-04-06T16:18:05Z</time></trkpt><trkpt lat="36.92239779630786" lon="15.115966154453583"><ele>123.0</ele><time>2026-04-06T16:18:06Z</time></trkpt><trkpt lat="36.9222797382766" lon="15.116044826784309"><ele>121.5</ele><time>2026-04-06T16:18:07Z</time></trkpt><trkpt lat="36.92216417283592" lon="15.116120552035062"><ele>120.0</ele><time>2026-04-06T16:18:08Z</time></trkpt><trkpt lat="36.92204869109398" lon="15.116202377532893"><ele>118.5</ele><time>2026-04-06T16:18:09Z</time></trkpt><trkpt lat="36.921922687706704" lon="15.116265764019236"><ele>117.0</ele><time>2026-04-06T16:18:10Z</time></trkpt><trkpt lat="36.92180280297054" lon="15.116349995451241"><ele>116.5</ele><time>2026-04-06T16:18:11Z</time></trkpt><trkpt lat="36.92169661678332" lon="15.116453937766059"><ele>116.0</ele><time>2026-04-06T16:18:12Z</time></trkpt><trkpt lat="36.921585411479846" lon="15.11653848987882"><ele>115.5</ele><time>2026-04-06T16:18:13Z</time></trkpt><trkpt lat="36.92147933350956" lon="15.116623948181104"><ele>115.0</ele><time>2026-04-06T16:18:14Z</time></trkpt><trkpt lat="36.92137360109202" lon="15.116707598723565"><ele>115.0</ele><time>2026-04-06T16:18:15Z</time></trkpt><trkpt lat="36.921270076080354" lon="15.116791570829355"><ele>115.0</ele><time>2026-04-06T16:18:16Z</time></trkpt><trkpt lat="36.921173670064114" lon="15.116880045318005"><ele>115.0</ele><time>2026-04-06T16:18:17Z</time></trkpt><trkpt lat="36.921087668313994" lon="15.11697851134611"><ele>115.0</ele><time>2026-04-06T16:18:18Z</time></trkpt><trkpt lat="36.921011558965354" lon="15.11709607250785"><ele>115.0</ele><time>2026-04-06T16:18:19Z</time></trkpt><trkpt lat="36.920928591529" lon="15.117217147294554"><ele>115.0</ele><time>2026-04-06T16:18:20Z</time></trkpt><trkpt lat="36.92087972488712" lon="15.117363888974936"><ele>115.0</ele><time>2026-04-06T16:18:21Z</time></trkpt><trkpt lat="36.92084126302938" lon="15.11750618549614"><ele>115.0</ele><time>2026-04-06T16:18:22Z</time></trkpt><trkpt lat="36.9208208892341" lon="15.117653072755099"><ele>113.0</ele><time>2026-04-06T16:18:23Z</time></trkpt><trkpt lat="36.920789150952" lon="15.117793005770498"><ele>111.0</ele><time>2026-04-06T16:18:24Z</time></trkpt><trkpt lat="36.9207554155322" lon="15.11793328806313"><ele>109.0</ele><time>2026-04-06T16:18:25Z</time></trkpt><trkpt lat="36.920717139073524" lon="15.118071237559812"><ele>107.0</ele><time>2026-04-06T16:18:26Z</time></trkpt><trkpt lat="36.92067435627529" lon="15.118208693501261"><ele>107.0</ele><time>2026-04-06T16:18:27Z</time></trkpt><trkpt lat="36.92063123512184" lon="15.118347327744154"><ele>107.0</ele><time>2026-04-06T16:18:28Z</time></trkpt><trkpt lat="36.92058612978678" lon="15.118484165731703"><ele>107.0</ele><time>2026-04-06T16:18:29Z</time></trkpt><trkpt lat="36.9205305707534" lon="15.118614946846664"><ele>107.0</ele><time>2026-04-06T16:18:30Z</time></trkpt><trkpt lat="36.920458474701924" lon="15.118736445001172"><ele>107.0</ele><time>2026-04-06T16:18:31Z</time></trkpt><trkpt lat="36.920371671789304" lon="15.11884818526287"><ele>107.0</ele><time>2026-04-06T16:18:32Z</time></trkpt><trkpt lat="36.92028693321049" lon="15.118969295747359"><ele>107.0</ele><time>2026-04-06T16:18:33Z</time></trkpt><trkpt lat="36.92021027791745" lon="15.119094352370553"><ele>107.0</ele><time>2026-04-06T16:18:34Z</time></trkpt><trkpt lat="36.92012809596951" lon="15.119205526493365"><ele>106.25</ele><time>2026-04-06T16:18:35Z</time></trkpt><trkpt lat="36.92006758282864" lon="15.119330858187762"><ele>105.5</ele><time>2026-04-06T16:18:36Z</time></trkpt><trkpt lat="36.92003104959943" lon="15.119469147806983"><ele>104.75</ele><time>2026-04-06T16:18:37Z</time></trkpt><trkpt lat="36.91998038876156" lon="15.119593830552652"><ele>104.0</ele><time>2026-04-06T16:18:38Z</time></trkpt><trkpt lat="36.91993079156804" lon="15.119716211493815"><ele>103.4</ele><time>2026-04-06T16:18:39Z</time></trkpt><trkpt lat="36.919883688775506" lon="15.119834066656516"><ele>102.80000000000001</ele><time>2026-04-06T16:18:40Z</time></trkpt><trkpt lat="36.91983144913408" lon="15.119942903988575"><ele>102.19999999999999</ele><time>2026-04-06T16:18:41Z</time></trkpt><trkpt lat="36.91977518314171" lon="15.120051886364609"><ele>101.6</ele><time>2026-04-06T16:18:42Z</time></trkpt><trkpt lat="36.91970755488441" lon="15.120160094345167"><ele>101.0</ele><time>2026-04-06T16:18:43Z</time></trkpt><trkpt lat="36.91962934979399" lon="15.120274474162992"><ele>100.5</ele><time>2026-04-06T16:18:44Z</time></trkpt><trkpt lat="36.919543482483334" lon="15.120395750687974"><ele>100.0</ele><time>2026-04-06T16:18:45Z</time></trkpt><trkpt lat="36.9194522741158" lon="15.120524292099905"><ele>99.5</ele><time>2026-04-06T16:18:46Z</time></trkpt><trkpt lat="36.91935781605291" lon="15.12065607518787"><ele>99.0</ele><time>2026-04-06T16:18:47Z</time></trkpt><trkpt lat="36.91926390506138" lon="15.120785998772769"><ele>97.0</ele><time>2026-04-06T16:18:48Z</time></trkpt><trkpt lat="36.91915575862026" lon="15.12089855330806"><ele>95.0</ele><time>2026-04-06T16:18:49Z</time></trkpt><trkpt lat="36.9190620838973" lon="15.121029579155884"><ele>93.0</ele><time>2026-04-06T16:18:50Z</time></trkpt><trkpt lat="36.9189858718852" lon="15.121171389412323"><ele>91.0</ele><time>2026-04-06T16:18:51Z</time></trkpt><trkpt lat="36.91889897288416" lon="15.121297305765168"><ele>91.0</ele><time>2026-04-06T16:18:52Z</time></trkpt><trkpt lat="36.918814703492274" lon="15.121422140466008"><ele>91.0</ele><time>2026-04-06T16:18:53Z</time></trkpt><trkpt lat="36.91873442429034" lon="15.121546016099781"><ele>91.0</ele><time>2026-04-06T16:18:54Z</time></trkpt><trkpt lat="36.91865733437666" lon="15.121669108554345"><ele>91.0</ele><time>2026-04-06T16:18:55Z</time></trkpt><trkpt lat="36.91857965602538" lon="15.121788770847896"><ele>90.5</ele><time>2026-04-06T16:18:56Z</time></trkpt><trkpt lat="36.91850210402885" lon="15.121904907577953"><ele>90.0</ele><time>2026-04-06T16:18:57Z</time></trkpt><trkpt lat="36.91842811912292" lon="15.122019689103755"><ele>89.5</ele><time>2026-04-06T16:18:58Z</time></trkpt><trkpt lat="36.91835629013263" lon="15.122130583646355"><ele>89.0</ele><time>2026-04-06T16:18:59Z</time></trkpt><trkpt lat="36.918284327943255" lon="15.122235208909336"><ele>88.2</ele><time>2026-04-06T16:19:00Z</time></trkpt><trkpt lat="36.91821374244251" lon="15.122332068210696"><ele>87.4</ele><time>2026-04-06T16:19:01Z</time></trkpt><trkpt lat="36.918146810654086" lon="15.122429265471457"><ele>86.6</ele><time>2026-04-06T16:19:02Z</time></trkpt><trkpt lat="36.91808076031393" lon="15.122532436062603"><ele>85.8</ele><time>2026-04-06T16:19:03Z</time></trkpt><trkpt lat="36.918010714433635" lon="15.122658512325149"><ele>85.0</ele><time>2026-04-06T16:19:04Z</time></trkpt><trkpt lat="36.91794798392922" lon="15.122805153463695"><ele>84.25</ele><time>2026-04-06T16:19:05Z</time></trkpt><trkpt lat="36.917900046832486" lon="15.122970325251968"><ele>83.5</ele><time>2026-04-06T16:19:06Z</time></trkpt><trkpt lat="36.917865533632565" lon="15.123130912939613"><ele>82.75</ele><time>2026-04-06T16:19:07Z</time></trkpt><trkpt lat="36.91783254873024" lon="15.123288864111496"><ele>82.0</ele><time>2026-04-06T16:19:08Z</time></trkpt><trkpt lat="36.917792058128136" lon="15.123440548465002"><ele>81.0</ele><time>2026-04-06T16:19:09Z</time></trkpt><trkpt lat="36.91774658486171" lon="15.123584876447556"><ele>80.0</ele><time>2026-04-06T16:19:10Z</time></trkpt><trkpt lat="36.917696161388164" lon="15.123730369839095"><ele>79.0</ele><time>2026-04-06T16:19:11Z</time></trkpt><trkpt lat="36.917645510539664" lon="15.123877827082985"><ele>78.0</ele><time>2026-04-06T16:19:12Z</time></trkpt><trkpt lat="36.91759404290431" lon="15.124018688166558"><ele>76.25</ele><time>2026-04-06T16:19:13Z</time></trkpt><trkpt lat="36.917542860943556" lon="15.124153227806225"><ele>74.5</ele><time>2026-04-06T16:19:14Z</time></trkpt><trkpt lat="36.91749021781256" lon="15.124283765530253"><ele>72.75</ele><time>2026-04-06T16:19:15Z</time></trkpt><trkpt lat="36.917434756648795" lon="15.12441483116561"><ele>71.0</ele><time>2026-04-06T16:19:16Z</time></trkpt><trkpt lat="36.91737766462408" lon="15.124544963706477"><ele>71.0</ele><time>2026-04-06T16:19:17Z</time></trkpt><trkpt lat="36.917320742813516" lon="15.124675216131775"><ele>71.0</ele><time>2026-04-06T16:19:18Z</time></trkpt><trkpt lat="36.91727558698092" lon="15.124805960730534"><ele>71.0</ele><time>2026-04-06T16:19:19Z</time></trkpt><trkpt lat="36.9172218893803" lon="15.12492160174217"><ele>71.0</ele><time>2026-04-06T16:19:20Z</time></trkpt><trkpt lat="36.917199557616925" lon="15.125057005635245"><ele>70.6</ele><time>2026-04-06T16:19:21Z</time></trkpt><trkpt lat="36.917202096122914" lon="15.125187175868954"><ele>70.19999999999999</ele><time>2026-04-06T16:19:22Z</time></trkpt><trkpt lat="36.9172148540426" lon="15.125301986414263"><ele>69.80000000000001</ele><time>2026-04-06T16:19:23Z</time></trkpt><trkpt lat="36.91724291971032" lon="15.125411512393256"><ele>69.4</ele><time>2026-04-06T16:19:24Z</time></trkpt><trkpt lat="36.917246027043845" lon="15.125508922062501"><ele>69.0</ele><time>2026-04-06T16:19:25Z</time></trkpt><trkpt lat="36.91723625017369" lon="15.125619120875339"><ele>68.4</ele><time>2026-04-06T16:19:26Z</time></trkpt><trkpt lat="36.917216219879116" lon="15.125730905999076"><ele>67.80000000000001</ele><time>2026-04-06T16:19:27Z</time></trkpt><trkpt lat="36.917178106194626" lon="15.125841710601492"><ele>67.19999999999999</ele><time>2026-04-06T16:19:28Z</time></trkpt><trkpt lat="36.917141662420946" lon="15.12596357284275"><ele>66.6</ele><time>2026-04-06T16:19:29Z</time></trkpt><trkpt lat="36.91711303060226" lon="15.126087578237737"><ele>66.0</ele><time>2026-04-06T16:19:30Z</time></trkpt><trkpt lat="36.91707833834955" lon="15.126209964870695"><ele>66.0</ele><time>2026-04-06T16:19:31Z</time></trkpt><trkpt lat="36.917028655445726" lon="15.126333599259727"><ele>66.0</ele><time>2026-04-06T16:19:32Z</time></trkpt><trkpt lat="36.916973818668986" lon="15.126461816903452"><ele>66.0</ele><time>2026-04-06T16:19:33Z</time></trkpt><trkpt lat="36.91691859781961" lon="15.126588692383569"><ele>66.0</ele><time>2026-04-06T16:19:34Z</time></trkpt><trkpt lat="36.91686103699083" lon="15.126711093321783"><ele>65.6</ele><time>2026-04-06T16:19:35Z</time></trkpt><trkpt lat="36.91680600818256" lon="15.126835798794385"><ele>65.19999999999999</ele><time>2026-04-06T16:19:36Z</time></trkpt><trkpt lat="36.91675263559076" lon="15.126961755376076"><ele>64.80000000000001</ele><time>2026-04-06T16:19:37Z</time></trkpt><trkpt lat="36.91670250410495" lon="15.127085610822057"><ele>64.4</ele><time>2026-04-06T16:19:38Z</time></trkpt><trkpt lat="36.916658274859344" lon="15.127196736510406"><ele>64.0</ele><time>2026-04-06T16:19:39Z</time></trkpt><trkpt lat="36.91661772074711" lon="15.12728825553947"><ele>63.666666666666664</ele><time>2026-04-06T16:19:40Z</time></trkpt><trkpt lat="36.916581051674" lon="15.127364526597786"><ele>63.33333333333333</ele><time>2026-04-06T16:19:41Z</time></trkpt><trkpt lat="36.91652597206528" lon="15.127479858698853"><ele>63.0</ele><time>2026-04-06T16:19:43Z</time></trkpt><trkpt lat="36.9164857377378" lon="15.127569876684415"><ele>62.66666666666667</ele><time>2026-04-06T16:19:46Z</time></trkpt><trkpt lat="36.91645129309742" lon="15.12763949343673"><ele>62.333333333333336</ele><time>2026-04-06T16:19:48Z</time></trkpt><trkpt lat="36.916407297483424" lon="15.127723926772168"><ele>62.0</ele><time>2026-04-06T16:19:50Z</time></trkpt><trkpt lat="36.91636976170928" lon="15.127802975365679"><ele>61.50000000000001</ele><time>2026-04-06T16:19:53Z</time></trkpt><trkpt lat="36.916347342657836" lon="15.12787854450896"><ele>61.0</ele><time>2026-04-06T16:19:56Z</time></trkpt><trkpt lat="36.91643301088662" lon="15.127983923902104"><ele>60.5</ele><time>2026-04-06T16:19:57Z</time></trkpt><trkpt lat="36.91650690499206" lon="15.12807610104813"><ele>60.0</ele><time>2026-04-06T16:19:59Z</time></trkpt><trkpt lat="36.916545624281454" lon="15.128142976445272"><ele>59.50000000000001</ele><time>2026-04-06T16:20:00Z</time></trkpt><trkpt lat="36.916601764245776" lon="15.128213372001996"><ele>59.0</ele><time>2026-04-06T16:20:01Z</time></trkpt><trkpt lat="36.91667700635168" lon="15.128305525981718"><ele>59.25</ele><time>2026-04-06T16:20:02Z</time></trkpt><trkpt lat="36.91677816650985" lon="15.128387362684213"><ele>59.5</ele><time>2026-04-06T16:20:03Z</time></trkpt><trkpt lat="36.91687134530852" lon="15.12848708641945"><ele>59.75</ele><time>2026-04-06T16:20:04Z</time></trkpt><trkpt lat="36.91699396772755" lon="15.128602710741953"><ele>60.0</ele><time>2026-04-06T16:20:05Z</time></trkpt><trkpt lat="36.91712112543613" lon="15.128732190848112"><ele>60.0</ele><time>2026-04-06T16:20:06Z</time></trkpt><trkpt lat="36.91724524729246" lon="15.128864959247641"><ele>60.0</ele><time>2026-04-06T16:20:07Z</time></trkpt><trkpt lat="36.91737997898758" lon="15.129025181036981"><ele>60.0</ele><time>2026-04-06T16:20:08Z</time></trkpt><trkpt lat="36.9174991098499" lon="15.129177022792598"><ele>60.0</ele><time>2026-04-06T16:20:09Z</time></trkpt><trkpt lat="36.91761371542436" lon="15.129327089514149"><ele>60.0</ele><time>2026-04-06T16:20:10Z</time></trkpt><trkpt lat="36.91773125797678" lon="15.129487706953674"><ele>60.0</ele><time>2026-04-06T16:20:11Z</time></trkpt><trkpt lat="36.917859459541425" lon="15.129671076221838"><ele>60.0</ele><time>2026-04-06T16:20:12Z</time></trkpt><trkpt lat="36.91798934435519" lon="15.129870086596704"><ele>60.0</ele><time>2026-04-06T16:20:13Z</time></trkpt><trkpt lat="36.918113942485235" lon="15.130079159096919"><ele>60.0</ele><time>2026-04-06T16:20:14Z</time></trkpt><trkpt lat="36.91823404113837" lon="15.13028797584108"><ele>60.0</ele><time>2026-04-06T16:20:15Z</time></trkpt><trkpt lat="36.918359924769106" lon="15.13049089078463"><ele>60.0</ele><time>2026-04-06T16:20:16Z</time></trkpt><trkpt lat="36.91849511808958" lon="15.130698381516789"><ele>60.0</ele><time>2026-04-06T16:20:17Z</time></trkpt><trkpt lat="36.918627557182376" lon="15.130906786067564"><ele>60.0</ele><time>2026-04-06T16:20:18Z</time></trkpt><trkpt lat="36.91874579326744" lon="15.131110964892603"><ele>60.0</ele><time>2026-04-06T16:20:19Z</time></trkpt><trkpt lat="36.9188539552156" lon="15.131311582713723"><ele>60.0</ele><time>2026-04-06T16:20:20Z</time></trkpt><trkpt lat="36.91896284583532" lon="15.131531319035634"><ele>60.0</ele><time>2026-04-06T16:20:21Z</time></trkpt><trkpt lat="36.91906771081399" lon="15.131745377033102"><ele>60.0</ele><time>2026-04-06T16:20:22Z</time></trkpt><trkpt lat="36.91917079472279" lon="15.131958345547977"><ele>60.0</ele><time>2026-04-06T16:20:23Z</time></trkpt><trkpt lat="36.9192746549546" lon="15.132172583252393"><ele>59.33333333333333</ele><time>2026-04-06T16:20:24Z</time></trkpt><trkpt lat="36.91937533220996" lon="15.132393180423211"><ele>58.666666666666664</ele><time>2026-04-06T16:20:25Z</time></trkpt><trkpt lat="36.919473830436374" lon="15.132628532328605"><ele>58.0</ele><time>2026-04-06T16:20:26Z</time></trkpt><trkpt lat="36.91957050404588" lon="15.13286764719634"><ele>58.0</ele><time>2026-04-06T16:20:27Z</time></trkpt><trkpt lat="36.91966065502801" lon="15.13310636314571"><ele>58.0</ele><time>2026-04-06T16:20:28Z</time></trkpt><trkpt lat="36.91974563144872" lon="15.133345752410131"><ele>58.0</ele><time>2026-04-06T16:20:29Z</time></trkpt><trkpt lat="36.91982780547478" lon="15.133578965825421"><ele>57.33333333333333</ele><time>2026-04-06T16:20:30Z</time></trkpt><trkpt lat="36.919911815478436" lon="15.133819185320272"><ele>56.66666666666667</ele><time>2026-04-06T16:20:31Z</time></trkpt><trkpt lat="36.91998936951564" lon="15.13405741172078"><ele>56.0</ele><time>2026-04-06T16:20:32Z</time></trkpt><trkpt lat="36.9200593258676" lon="15.134286146678237"><ele>55.66666666666667</ele><time>2026-04-06T16:20:33Z</time></trkpt><trkpt lat="36.92013008514078" lon="15.134506525769979"><ele>55.33333333333333</ele><time>2026-04-06T16:20:34Z</time></trkpt><trkpt lat="36.92020352589902" lon="15.134741269913489"><ele>55.0</ele><time>2026-04-06T16:20:35Z</time></trkpt><trkpt lat="36.92027027529157" lon="15.134981003743457"><ele>54.0</ele><time>2026-04-06T16:20:36Z</time></trkpt><trkpt lat="36.92033447060434" lon="15.13522636137294"><ele>53.0</ele><time>2026-04-06T16:20:37Z</time></trkpt><trkpt lat="36.92039892687377" lon="15.135492414342924"><ele>52.0</ele><time>2026-04-06T16:20:38Z</time></trkpt><trkpt lat="36.920460849860405" lon="15.135754377932662"><ele>51.33333333333333</ele><time>2026-04-06T16:20:39Z</time></trkpt><trkpt lat="36.920519587712974" lon="15.136001922563416"><ele>50.66666666666667</ele><time>2026-04-06T16:20:40Z</time></trkpt><trkpt lat="36.92057317985693" lon="15.136237367540566"><ele>50.0</ele><time>2026-04-06T16:20:41Z</time></trkpt><trkpt lat="36.92062499720174" lon="15.136466911169428"><ele>48.66666666666667</ele><time>2026-04-06T16:20:42Z</time></trkpt><trkpt lat="36.92067235493669" lon="15.136686326109217"><ele>47.333333333333336</ele><time>2026-04-06T16:20:43Z</time></trkpt><trkpt lat="36.920717600414775" lon="15.13690910280646"><ele>46.0</ele><time>2026-04-06T16:20:44Z</time></trkpt><trkpt lat="36.92075778306906" lon="15.137157148899819"><ele>46.0</ele><time>2026-04-06T16:20:45Z</time></trkpt><trkpt lat="36.920796440905875" lon="15.137419890007859"><ele>46.0</ele><time>2026-04-06T16:20:46Z</time></trkpt><trkpt lat="36.92083608826594" lon="15.137680078604495"><ele>46.0</ele><time>2026-04-06T16:20:47Z</time></trkpt><trkpt lat="36.920874960501074" lon="15.137932385160436"><ele>46.333333333333336</ele><time>2026-04-06T16:20:48Z</time></trkpt><trkpt lat="36.920907311726005" lon="15.138184986315398"><ele>46.666666666666664</ele><time>2026-04-06T16:20:49Z</time></trkpt><trkpt lat="36.92091675498374" lon="15.138438023840573"><ele>47.0</ele><time>2026-04-06T16:20:50Z</time></trkpt><trkpt lat="36.920944902421695" lon="15.138694016150565"><ele>46.33333333333333</ele><time>2026-04-06T16:20:51Z</time></trkpt><trkpt lat="36.92096055280575" lon="15.138941731553665"><ele>45.666666666666664</ele><time>2026-04-06T16:20:52Z</time></trkpt><trkpt lat="36.92097946548601" lon="15.139192954588722"><ele>45.0</ele><time>2026-04-06T16:20:53Z</time></trkpt><trkpt lat="36.920992050757654" lon="15.139469708890585"><ele>44.666666666666664</ele><time>2026-04-06T16:20:54Z</time></trkpt><trkpt lat="36.92098911615629" lon="15.139732488638566"><ele>44.33333333333333</ele><time>2026-04-06T16:20:55Z</time></trkpt><trkpt lat="36.92098454331216" lon="15.139982648040073"><ele>44.0</ele><time>2026-04-06T16:20:56Z</time></trkpt><trkpt lat="36.92098441626457" lon="15.140235358086985"><ele>43.33333333333333</ele><time>2026-04-06T16:20:57Z</time></trkpt><trkpt lat="36.92098186720281" lon="15.140478184169803"><ele>42.666666666666664</ele><time>2026-04-06T16:20:58Z</time></trkpt><trkpt lat="36.92097844580986" lon="15.140708536098716"><ele>42.0</ele><time>2026-04-06T16:20:59Z</time></trkpt><trkpt lat="36.92097425572174" lon="15.140928160165942"><ele>41.0</ele><time>2026-04-06T16:21:00Z</time></trkpt><trkpt lat="36.92096753667089" lon="15.141138186447673"><ele>40.0</ele><time>2026-04-06T16:21:01Z</time></trkpt><trkpt lat="36.92095799706488" lon="15.141358273464673"><ele>39.0</ele><time>2026-04-06T16:21:02Z</time></trkpt><trkpt lat="36.92094701089134" lon="15.141590544559962"><ele>38.333333333333336</ele><time>2026-04-06T16:21:03Z</time></trkpt><trkpt lat="36.92092941136129" lon="15.141837258944706"><ele>37.66666666666667</ele><time>2026-04-06T16:21:04Z</time></trkpt><trkpt lat="36.92091292299318" lon="15.142079668306678"><ele>37.0</ele><time>2026-04-06T16:21:05Z</time></trkpt><trkpt lat="36.92089865831354" lon="15.142315327729662"><ele>36.66666666666667</ele><time>2026-04-06T16:21:06Z</time></trkpt><trkpt lat="36.92088165833444" lon="15.142551124768033"><ele>36.333333333333336</ele><time>2026-04-06T16:21:07Z</time></trkpt><trkpt lat="36.920862778409145" lon="15.142787469222355"><ele>36.0</ele><time>2026-04-06T16:21:08Z</time></trkpt><trkpt lat="36.920839818129025" lon="15.143015560897018"><ele>34.666666666666664</ele><time>2026-04-06T16:21:09Z</time></trkpt><trkpt lat="36.920816389831266" lon="15.143244202528125"><ele>33.33333333333333</ele><time>2026-04-06T16:21:10Z</time></trkpt><trkpt lat="36.920792231252086" lon="15.14347648523047"><ele>32.0</ele><time>2026-04-06T16:21:11Z</time></trkpt><trkpt lat="36.92077039968786" lon="15.143673349104082"><ele>32.0</ele><time>2026-04-06T16:21:12Z</time></trkpt><trkpt lat="36.92073327284281" lon="15.143892459771385"><ele>32.0</ele><time>2026-04-06T16:21:13Z</time></trkpt><trkpt lat="36.92069063744101" lon="15.144130782866192"><ele>32.0</ele><time>2026-04-06T16:21:14Z</time></trkpt><trkpt lat="36.92064414116446" lon="15.144374179470125"><ele>31.666666666666664</ele><time>2026-04-06T16:21:15Z</time></trkpt><trkpt lat="36.920592182601126" lon="15.14461279007251"><ele>31.333333333333336</ele><time>2026-04-06T16:21:16Z</time></trkpt><trkpt lat="36.920539688427155" lon="15.144853002066162"><ele>31.0</ele><time>2026-04-06T16:21:17Z</time></trkpt><trkpt lat="36.920483350194544" lon="15.145072158827828"><ele>31.0</ele><time>2026-04-06T16:21:18Z</time></trkpt><trkpt lat="36.920426366247725" lon="15.145284225059353"><ele>31.0</ele><time>2026-04-06T16:21:19Z</time></trkpt><trkpt lat="36.92038274302442" lon="15.145495880674362"><ele>31.0</ele><time>2026-04-06T16:21:20Z</time></trkpt><trkpt lat="36.92034497276596" lon="15.145709774139208"><ele>30.666666666666668</ele><time>2026-04-06T16:21:21Z</time></trkpt><trkpt lat="36.92029250838312" lon="15.145914766506227"><ele>30.333333333333336</ele><time>2026-04-06T16:21:22Z</time></trkpt><trkpt lat="36.920237707317845" lon="15.146106412862624"><ele>30.0</ele><time>2026-04-06T16:21:23Z</time></trkpt><trkpt lat="36.92018881217831" lon="15.146285081289744"><ele>30.0</ele><time>2026-04-06T16:21:24Z</time></trkpt><trkpt lat="36.92014664835021" lon="15.146442163915749"><ele>30.0</ele><time>2026-04-06T16:21:25Z</time></trkpt><trkpt lat="36.920100055551124" lon="15.14657602981903"><ele>30.0</ele><time>2026-04-06T16:21:26Z</time></trkpt><trkpt lat="36.920025409933565" lon="15.146673959877436"><ele>30.0</ele><time>2026-04-06T16:21:27Z</time></trkpt><trkpt lat="36.91995132030459" lon="15.14674173503106"><ele>30.0</ele><time>2026-04-06T16:21:28Z</time></trkpt><trkpt lat="36.91988970282828" lon="15.146773887179572"><ele>29.2</ele><time>2026-04-06T16:21:29Z</time></trkpt><trkpt lat="36.919815341653255" lon="15.146796308531744"><ele>28.4</ele><time>2026-04-06T16:21:31Z</time></trkpt><trkpt lat="36.9197263195954" lon="15.146882172401304"><ele>27.6</ele><time>2026-04-06T16:21:35Z</time></trkpt><trkpt lat="36.91964937529652" lon="15.146972639879955"><ele>26.8</ele><time>2026-04-06T16:21:36Z</time></trkpt><trkpt lat="36.9195952254596" lon="15.147065631695757"><ele>26.0</ele><time>2026-04-06T16:21:37Z</time></trkpt><trkpt lat="36.91957053516324" lon="15.147185807937076"><ele>26.0</ele><time>2026-04-06T16:21:38Z</time></trkpt><trkpt lat="36.919586566629185" lon="15.14733025115733"><ele>26.0</ele><time>2026-04-06T16:21:39Z</time></trkpt><trkpt lat="36.91963696425694" lon="15.147470235946267"><ele>26.0</ele><time>2026-04-06T16:21:40Z</time></trkpt><trkpt lat="36.91971345934788" lon="15.14762143827052"><ele>26.0</ele><time>2026-04-06T16:21:41Z</time></trkpt><trkpt lat="36.91979116777693" lon="15.147773374261225"><ele>25.666666666666664</ele><time>2026-04-06T16:21:42Z</time></trkpt><trkpt lat="36.91986747528225" lon="15.147951877794249"><ele>25.333333333333336</ele><time>2026-04-06T16:21:43Z</time></trkpt><trkpt lat="36.91992993726047" lon="15.148134273704178"><ele>25.0</ele><time>2026-04-06T16:21:44Z</time></trkpt><trkpt lat="36.92000553893428" lon="15.148338461909379"><ele>25.333333333333336</ele><time>2026-04-06T16:21:45Z</time></trkpt><trkpt lat="36.92009761762434" lon="15.148553343268414"><ele>25.666666666666664</ele><time>2026-04-06T16:21:46Z</time></trkpt><trkpt lat="36.920190451801474" lon="15.148765549950923"><ele>26.0</ele><time>2026-04-06T16:21:47Z</time></trkpt><trkpt lat="36.92028412675076" lon="15.148982440887215"><ele>26.0</ele><time>2026-04-06T16:21:48Z</time></trkpt><trkpt lat="36.92036792878216" lon="15.149192502829193"><ele>26.0</ele><time>2026-04-06T16:21:49Z</time></trkpt><trkpt lat="36.92045052300013" lon="15.149396615512993"><ele>26.0</ele><time>2026-04-06T16:21:50Z</time></trkpt><trkpt lat="36.92053563409957" lon="15.149604243939065"><ele>26.0</ele><time>2026-04-06T16:21:51Z</time></trkpt><trkpt lat="36.92061489393201" lon="15.14979723388502"><ele>26.0</ele><time>2026-04-06T16:21:52Z</time></trkpt><trkpt lat="36.92068896727469" lon="15.149978110909585"><ele>26.0</ele><time>2026-04-06T16:21:53Z</time></trkpt><trkpt lat="36.92076209837336" lon="15.150154429539349"><ele>26.0</ele><time>2026-04-06T16:21:54Z</time></trkpt><trkpt lat="36.9208381456841" lon="15.150334483964848"><ele>26.0</ele><time>2026-04-06T16:21:55Z</time></trkpt><trkpt lat="36.920910342817244" lon="15.15050531270698"><ele>26.0</ele><time>2026-04-06T16:21:56Z</time></trkpt><trkpt lat="36.92097438746708" lon="15.150667777751652"><ele>25.75</ele><time>2026-04-06T16:21:57Z</time></trkpt><trkpt lat="36.921033004741375" lon="15.150823891755177"><ele>25.5</ele><time>2026-04-06T16:21:58Z</time></trkpt><trkpt lat="36.921088197398625" lon="15.150972833477939"><ele>25.25</ele><time>2026-04-06T16:21:59Z</time></trkpt><trkpt lat="36.92114152741483" lon="15.151111107211442"><ele>25.0</ele><time>2026-04-06T16:22:00Z</time></trkpt><trkpt lat="36.92118636047066" lon="15.151235448909613"><ele>25.000000000000004</ele><time>2026-04-06T16:22:01Z</time></trkpt><trkpt lat="36.921213242202974" lon="15.15134337446625"><ele>25.0</ele><time>2026-04-06T16:22:02Z</time></trkpt><trkpt lat="36.92122357354314" lon="15.151437310848669"><ele>25.0</ele><time>2026-04-06T16:22:03Z</time></trkpt><trkpt lat="36.921222925454714" lon="15.151524445446427"><ele>25.0</ele><time>2026-04-06T16:22:04Z</time></trkpt><trkpt lat="36.92126868490979" lon="15.151607740043236"><ele>25.000000000000004</ele><time>2026-04-06T16:22:05Z</time></trkpt><trkpt lat="36.92125874315107" lon="15.1517309165902"><ele>25.0</ele><time>2026-04-06T16:22:06Z</time></trkpt><trkpt lat="36.9212949037691" lon="15.151812694469768"><ele>24.666666666666668</ele><time>2026-04-06T16:22:07Z</time></trkpt><trkpt lat="36.92135053369384" lon="15.151864370170829"><ele>24.333333333333336</ele><time>2026-04-06T16:22:08Z</time></trkpt><trkpt lat="36.92142195777067" lon="15.151859741372045"><ele>24.0</ele><time>2026-04-06T16:22:10Z</time></trkpt><trkpt lat="36.92147276793768" lon="15.15191682973974"><ele>23.666666666666668</ele><time>2026-04-06T16:22:12Z</time></trkpt><trkpt lat="36.921505385635356" lon="15.152010417455282"><ele>23.333333333333336</ele><time>2026-04-06T16:22:13Z</time></trkpt><trkpt lat="36.92155784922859" lon="15.152141345059126"><ele>23.0</ele><time>2026-04-06T16:22:14Z</time></trkpt><trkpt lat="36.92162114483035" lon="15.152271457261874"><ele>22.333333333333336</ele><time>2026-04-06T16:22:15Z</time></trkpt><trkpt lat="36.92168574778164" lon="15.152418488653378"><ele>21.666666666666668</ele><time>2026-04-06T16:22:16Z</time></trkpt><trkpt lat="36.92175693797334" lon="15.152596909975514"><ele>21.0</ele><time>2026-04-06T16:22:17Z</time></trkpt><trkpt lat="36.921831462982546" lon="15.152785102956498"><ele>20.666666666666668</ele><time>2026-04-06T16:22:18Z</time></trkpt><trkpt lat="36.921914321010384" lon="15.15298073844337"><ele>20.333333333333336</ele><time>2026-04-06T16:22:19Z</time></trkpt><trkpt lat="36.9220121134247" lon="15.153183781620925"><ele>20.0</ele><time>2026-04-06T16:22:20Z</time></trkpt><trkpt lat="36.92212417004354" lon="15.153396443662803"><ele>19.666666666666668</ele><time>2026-04-06T16:22:21Z</time></trkpt><trkpt lat="36.92224108827387" lon="15.15361090371827"><ele>19.333333333333332</ele><time>2026-04-06T16:22:22Z</time></trkpt><trkpt lat="36.922351188918825" lon="15.153824298392724"><ele>19.0</ele><time>2026-04-06T16:22:23Z</time></trkpt><trkpt lat="36.92245770866594" lon="15.154033517759753"><ele>19.0</ele><time>2026-04-06T16:22:24Z</time></trkpt><trkpt lat="36.92256381762099" lon="15.15423589995893"><ele>19.0</ele><time>2026-04-06T16:22:25Z</time></trkpt><trkpt lat="36.922665701481385" lon="15.154420981869343"><ele>19.0</ele><time>2026-04-06T16:22:26Z</time></trkpt><trkpt lat="36.92276279601066" lon="15.154595193921422"><ele>19.0</ele><time>2026-04-06T16:22:27Z</time></trkpt><trkpt lat="36.92285197242312" lon="15.154756821362701"><ele>19.0</ele><time>2026-04-06T16:22:28Z</time></trkpt><trkpt lat="36.92293783240923" lon="15.154909153193879"><ele>19.0</ele><time>2026-04-06T16:22:29Z</time></trkpt><trkpt lat="36.92301116055696" lon="15.155043838733194"><ele>19.0</ele><time>2026-04-06T16:22:30Z</time></trkpt><trkpt lat="36.923065156954934" lon="15.1551570374434"><ele>19.0</ele><time>2026-04-06T16:22:31Z</time></trkpt><trkpt lat="36.923109448450425" lon="15.155255680224242"><ele>19.0</ele><time>2026-04-06T16:22:32Z</time></trkpt><trkpt lat="36.92313891650861" lon="15.155356162190339"><ele>19.0</ele><time>2026-04-06T16:22:33Z</time></trkpt><trkpt lat="36.92314505214999" lon="15.155459316452845"><ele>19.0</ele><time>2026-04-06T16:22:34Z</time></trkpt><trkpt lat="36.92314035639761" lon="15.15555381821849"><ele>19.0</ele><time>2026-04-06T16:22:35Z</time></trkpt><trkpt lat="36.923139948367435" lon="15.155636442297435"><ele>19.0</ele><time>2026-04-06T16:22:36Z</time></trkpt><trkpt lat="36.92317241994585" lon="15.155705401941137"><ele>19.2</ele><time>2026-04-06T16:22:37Z</time></trkpt><trkpt lat="36.92323017429052" lon="15.155742767268205"><ele>19.4</ele><time>2026-04-06T16:22:38Z</time></trkpt><trkpt lat="36.92335978859379" lon="15.155747743216969"><ele>19.6</ele><time>2026-04-06T16:22:40Z</time></trkpt><trkpt lat="36.92343623437375" lon="15.155800643596626"><ele>19.8</ele><time>2026-04-06T16:22:41Z</time></trkpt><trkpt lat="36.92350445445769" lon="15.155869906999188"><ele>20.0</ele><time>2026-04-06T16:22:42Z</time></trkpt><trkpt lat="36.92355264663267" lon="15.15595523799984"><ele>20.4</ele><time>2026-04-06T16:22:43Z</time></trkpt><trkpt lat="36.92359933058945" lon="15.156048894472194"><ele>20.8</ele><time>2026-04-06T16:22:44Z</time></trkpt><trkpt lat="36.92364494127014" lon="15.156138563791984"><ele>21.200000000000003</ele><time>2026-04-06T16:22:45Z</time></trkpt><trkpt lat="36.923688173899755" lon="15.156214372137937"><ele>21.6</ele><time>2026-04-06T16:22:46Z</time></trkpt><trkpt lat="36.92375432028425" lon="15.156336530325797"><ele>22.0</ele><time>2026-04-06T16:22:48Z</time></trkpt><trkpt lat="36.923803955948514" lon="15.156446196544985"><ele>21.833333333333332</ele><time>2026-04-06T16:22:50Z</time></trkpt><trkpt lat="36.92381881151971" lon="15.156555035371667"><ele>21.666666666666664</ele><time>2026-04-06T16:22:52Z</time></trkpt><trkpt lat="36.92382950193695" lon="15.156650603829359"><ele>21.5</ele><time>2026-04-06T16:22:54Z</time></trkpt><trkpt lat="36.92387469631926" lon="15.156739815003686"><ele>21.333333333333332</ele><time>2026-04-06T16:22:57Z</time></trkpt><trkpt lat="36.92394278685056" lon="15.156780778575415"><ele>21.166666666666668</ele><time>2026-04-06T16:26:01Z</time></trkpt><trkpt lat="36.923940277415745" lon="15.156871225083748"><ele>21.0</ele><time>2026-04-06T16:26:20Z</time></trkpt><trkpt lat="36.92386148426746" lon="15.156861368410427"><ele>21.0</ele><time>2026-04-06T16:26:23Z</time></trkpt><trkpt lat="36.92386258127108" lon="15.156712563379251"><ele>21.0</ele><time>2026-04-06T16:26:25Z</time></trkpt><trkpt lat="36.92378518351225" lon="15.15667437359557"><ele>21.0</ele><time>2026-04-06T16:26:27Z</time></trkpt><trkpt lat="36.923706966691796" lon="15.156744892893428"><ele>21.0</ele><time>2026-04-06T16:26:29Z</time></trkpt><trkpt lat="36.923766149058345" lon="15.156803203127213"><ele>21.0</ele><time>2026-04-06T16:26:30Z</time></trkpt><trkpt lat="36.92379196017509" lon="15.1568925113517"><ele>21.0</ele><time>2026-04-06T16:26:33Z</time></trkpt><trkpt lat="36.92386120302259" lon="15.156873202457998"><ele>21.0</ele><time>2026-04-06T16:30:09Z</time></trkpt><trkpt lat="36.92397741650335" lon="15.156911390210913"><ele>21.0</ele><time>2026-04-06T16:30:11Z</time></trkpt><trkpt lat="36.924084009124904" lon="15.156963231944772"><ele>21.0</ele><time>2026-04-06T16:30:13Z</time></trkpt><trkpt lat="36.92415981620357" lon="15.15704087401376"><ele>21.0</ele><time>2026-04-06T16:30:15Z</time></trkpt><trkpt lat="36.924234602010735" lon="15.157170603738972"><ele>21.166666666666668</ele><time>2026-04-06T16:30:17Z</time></trkpt><trkpt lat="36.92428550379986" lon="15.157255059257633"><ele>21.333333333333332</ele><time>2026-04-06T16:30:18Z</time></trkpt><trkpt lat="36.924338126560436" lon="15.157341897874037"><ele>21.5</ele><time>2026-04-06T16:30:19Z</time></trkpt><trkpt lat="36.92438237141123" lon="15.157421217314656"><ele>21.666666666666664</ele><time>2026-04-06T16:30:20Z</time></trkpt><trkpt lat="36.92442288871761" lon="15.157487230231611"><ele>21.833333333333332</ele><time>2026-04-06T16:30:21Z</time></trkpt><trkpt lat="36.924494677748505" lon="15.157612789722856"><ele>22.0</ele><time>2026-04-06T16:30:23Z</time></trkpt><trkpt lat="36.92453005941756" lon="15.157678159723098"><ele>22.0</ele><time>2026-04-06T16:30:24Z</time></trkpt><trkpt lat="36.92456732022829" lon="15.157743737576583"><ele>22.0</ele><time>2026-04-06T16:30:25Z</time></trkpt><trkpt lat="36.92460757354903" lon="15.157817169721483"><ele>22.0</ele><time>2026-04-06T16:30:26Z</time></trkpt><trkpt lat="36.924654162370985" lon="15.157901250627352"><ele>22.0</ele><time>2026-04-06T16:30:27Z</time></trkpt><trkpt lat="36.92470109519333" lon="15.157994940418135"><ele>22.0</ele><time>2026-04-06T16:30:28Z</time></trkpt><trkpt lat="36.924758297894485" lon="15.158107764116075"><ele>22.0</ele><time>2026-04-06T16:30:29Z</time></trkpt><trkpt lat="36.92483175222826" lon="15.158249003116415"><ele>21.8</ele><time>2026-04-06T16:30:30Z</time></trkpt><trkpt lat="36.92489796499761" lon="15.158381207070883"><ele>21.6</ele><time>2026-04-06T16:30:31Z</time></trkpt><trkpt lat="36.92495501093945" lon="15.158506946196868"><ele>21.400000000000002</ele><time>2026-04-06T16:30:32Z</time></trkpt><trkpt lat="36.92500641981407" lon="15.158621388841818"><ele>21.200000000000003</ele><time>2026-04-06T16:30:33Z</time></trkpt><trkpt lat="36.92504904308675" lon="15.158718730404235"><ele>21.0</ele><time>2026-04-06T16:30:34Z</time></trkpt><trkpt lat="36.92508956444459" lon="15.15880495792066"><ele>21.428571428571427</ele><time>2026-04-06T16:30:35Z</time></trkpt><trkpt lat="36.925125254318445" lon="15.158878345725313"><ele>21.857142857142858</ele><time>2026-04-06T16:30:36Z</time></trkpt><trkpt lat="36.92516280539065" lon="15.15895006748714"><ele>22.285714285714285</ele><time>2026-04-06T16:30:37Z</time></trkpt><trkpt lat="36.925199995461874" lon="15.159022350813316"><ele>22.714285714285715</ele><time>2026-04-06T16:30:38Z</time></trkpt><trkpt lat="36.92523734407153" lon="15.159096039798635"><ele>23.142857142857142</ele><time>2026-04-06T16:30:39Z</time></trkpt><trkpt lat="36.92527274224299" lon="15.159171332752868"><ele>23.57142857142857</ele><time>2026-04-06T16:30:40Z</time></trkpt><trkpt lat="36.92531053489287" lon="15.15925172730645"><ele>24.0</ele><time>2026-04-06T16:30:41Z</time></trkpt><trkpt lat="36.92535274176331" lon="15.159338998153084"><ele>24.166666666666668</ele><time>2026-04-06T16:30:42Z</time></trkpt><trkpt lat="36.925395893093025" lon="15.159425897634149"><ele>24.333333333333336</ele><time>2026-04-06T16:30:43Z</time></trkpt><trkpt lat="36.925437010912376" lon="15.159513057111386"><ele>24.5</ele><time>2026-04-06T16:30:44Z</time></trkpt><trkpt lat="36.925472637130106" lon="15.159597785130027"><ele>24.666666666666668</ele><time>2026-04-06T16:30:45Z</time></trkpt><trkpt lat="36.92550088570972" lon="15.159682570875992"><ele>24.833333333333336</ele><time>2026-04-06T16:30:46Z</time></trkpt><trkpt lat="36.92552013860337" lon="15.159768209466945"><ele>25.0</ele><time>2026-04-06T16:30:47Z</time></trkpt><trkpt lat="36.92552975773901" lon="15.159854911909841"><ele>24.571428571428573</ele><time>2026-04-06T16:30:48Z</time></trkpt><trkpt lat="36.92554863793592" lon="15.159936779434961"><ele>24.142857142857142</ele><time>2026-04-06T16:30:49Z</time></trkpt><trkpt lat="36.925578740367754" lon="15.160009630000717"><ele>23.714285714285715</ele><time>2026-04-06T16:30:50Z</time></trkpt><trkpt lat="36.9256229494401" lon="15.160069112977425"><ele>23.285714285714285</ele><time>2026-04-06T16:30:51Z</time></trkpt><trkpt lat="36.92567409386093" lon="15.160118380078226"><ele>22.857142857142858</ele><time>2026-04-06T16:30:52Z</time></trkpt><trkpt lat="36.92573084544379" lon="15.16017347284276"><ele>22.42857142857143</ele><time>2026-04-06T16:30:53Z</time></trkpt><trkpt lat="36.92578282234829" lon="15.160237686535813"><ele>22.0</ele><time>2026-04-06T16:30:54Z</time></trkpt><trkpt lat="36.925827962347704" lon="15.160312674852182"><ele>22.0</ele><time>2026-04-06T16:30:55Z</time></trkpt><trkpt lat="36.92587271234943" lon="15.160392138921383"><ele>22.0</ele><time>2026-04-06T16:30:56Z</time></trkpt><trkpt lat="36.925915738872106" lon="15.160471648731578"><ele>22.0</ele><time>2026-04-06T16:30:57Z</time></trkpt><trkpt lat="36.92595958012366" lon="15.160557542109432"><ele>22.0</ele><time>2026-04-06T16:30:58Z</time></trkpt><trkpt lat="36.92600747204107" lon="15.16064762368948"><ele>22.0</ele><time>2026-04-06T16:30:59Z</time></trkpt><trkpt lat="36.92605728036668" lon="15.160734858169574"><ele>22.0</ele><time>2026-04-06T16:31:00Z</time></trkpt><trkpt lat="36.92610846272235" lon="15.160822307503304"><ele>21.8</ele><time>2026-04-06T16:31:01Z</time></trkpt><trkpt lat="36.926163643271735" lon="15.160910425707463"><ele>21.6</ele><time>2026-04-06T16:31:02Z</time></trkpt><trkpt lat="36.92620549472614" lon="15.161017930790193"><ele>21.400000000000002</ele><time>2026-04-06T16:31:03Z</time></trkpt><trkpt lat="36.926257400643074" lon="15.161109988958446"><ele>21.200000000000003</ele><time>2026-04-06T16:31:04Z</time></trkpt><trkpt lat="36.92632497010137" lon="15.161198360006198"><ele>21.0</ele><time>2026-04-06T16:31:05Z</time></trkpt><trkpt lat="36.92639497537218" lon="15.161301461795604"><ele>21.0</ele><time>2026-04-06T16:31:06Z</time></trkpt><trkpt lat="36.92646753346118" lon="15.161407328935276"><ele>21.0</ele><time>2026-04-06T16:31:07Z</time></trkpt><trkpt lat="36.926535696432126" lon="15.16150620584142"><ele>21.0</ele><time>2026-04-06T16:31:08Z</time></trkpt><trkpt lat="36.92661326798817" lon="15.161592305187282"><ele>21.0</ele><time>2026-04-06T16:31:09Z</time></trkpt><trkpt lat="36.9266772846579" lon="15.16168791509444"><ele>21.0</ele><time>2026-04-06T16:31:10Z</time></trkpt><trkpt lat="36.92674339278149" lon="15.161783738786433"><ele>21.4</ele><time>2026-04-06T16:31:11Z</time></trkpt><trkpt lat="36.92681127383631" lon="15.161883329946619"><ele>21.8</ele><time>2026-04-06T16:31:12Z</time></trkpt><trkpt lat="36.926881661748624" lon="15.161986962979917"><ele>22.2</ele><time>2026-04-06T16:31:13Z</time></trkpt><trkpt lat="36.92695666545462" lon="15.162093457235951"><ele>22.599999999999998</ele><time>2026-04-06T16:31:14Z</time></trkpt><trkpt lat="36.927032763522725" lon="15.162206702487236"><ele>23.0</ele><time>2026-04-06T16:31:15Z</time></trkpt><trkpt lat="36.92710892219175" lon="15.162317413242183"><ele>22.75</ele><time>2026-04-06T16:31:16Z</time></trkpt><trkpt lat="36.92718669662365" lon="15.162426357251226"><ele>22.5</ele><time>2026-04-06T16:31:17Z</time></trkpt><trkpt lat="36.92727426606615" lon="15.162549113490885"><ele>22.25</ele><time>2026-04-06T16:31:18Z</time></trkpt><trkpt lat="36.92736587970131" lon="15.162683337541448"><ele>22.0</ele><time>2026-04-06T16:31:19Z</time></trkpt><trkpt lat="36.927456538252116" lon="15.162821374297383"><ele>22.0</ele><time>2026-04-06T16:31:20Z</time></trkpt><trkpt lat="36.927545145529876" lon="15.162953578459263"><ele>22.0</ele><time>2026-04-06T16:31:21Z</time></trkpt><trkpt lat="36.92763143424029" lon="15.163081197193648"><ele>22.0</ele><time>2026-04-06T16:31:22Z</time></trkpt><trkpt lat="36.92771562801743" lon="15.163205993949273"><ele>22.0</ele><time>2026-04-06T16:31:23Z</time></trkpt><trkpt lat="36.92780784701293" lon="15.16333911554256"><ele>22.25</ele><time>2026-04-06T16:31:24Z</time></trkpt><trkpt lat="36.92790713381221" lon="15.163479973496036"><ele>22.5</ele><time>2026-04-06T16:31:25Z</time></trkpt><trkpt lat="36.92799914922485" lon="15.163617881360786"><ele>22.75</ele><time>2026-04-06T16:31:26Z</time></trkpt><trkpt lat="36.9280848495349" lon="15.163753710414523"><ele>23.0</ele><time>2026-04-06T16:31:27Z</time></trkpt><trkpt lat="36.92818300120944" lon="15.163926333833071"><ele>23.0</ele><time>2026-04-06T16:31:28Z</time></trkpt><trkpt lat="36.92827590964453" lon="15.164058361820464"><ele>23.0</ele><time>2026-04-06T16:31:29Z</time></trkpt><trkpt lat="36.92837634121839" lon="15.164182744488707"><ele>23.0</ele><time>2026-04-06T16:31:30Z</time></trkpt><trkpt lat="36.92848311627499" lon="15.164293943721905"><ele>23.0</ele><time>2026-04-06T16:31:31Z</time></trkpt><trkpt lat="36.92860248207442" lon="15.164382971965386"><ele>23.0</ele><time>2026-04-06T16:31:32Z</time></trkpt><trkpt lat="36.928723290394615" lon="15.164493683771322"><ele>23.0</ele><time>2026-04-06T16:31:33Z</time></trkpt><trkpt lat="36.92885383828277" lon="15.164604586067895"><ele>23.0</ele><time>2026-04-06T16:31:34Z</time></trkpt><trkpt lat="36.92898175924601" lon="15.164711401093873"><ele>23.0</ele><time>2026-04-06T16:31:35Z</time></trkpt><trkpt lat="36.929105552262634" lon="15.164814910894611"><ele>23.0</ele><time>2026-04-06T16:31:36Z</time></trkpt><trkpt lat="36.92922713478037" lon="15.164915935208896"><ele>23.0</ele><time>2026-04-06T16:31:37Z</time></trkpt><trkpt lat="36.92935147578443" lon="15.16501985322132"><ele>23.0</ele><time>2026-04-06T16:31:38Z</time></trkpt><trkpt lat="36.92948102822317" lon="15.165132535648148"><ele>23.0</ele><time>2026-04-06T16:31:39Z</time></trkpt><trkpt lat="36.929616318918235" lon="15.165249741001103"><ele>23.0</ele><time>2026-04-06T16:31:40Z</time></trkpt><trkpt lat="36.92975778201188" lon="15.165367104507904"><ele>23.0</ele><time>2026-04-06T16:31:41Z</time></trkpt><trkpt lat="36.92989747435774" lon="15.16547974348558"><ele>23.0</ele><time>2026-04-06T16:31:42Z</time></trkpt><trkpt lat="36.93004899396559" lon="15.16559370211609"><ele>23.0</ele><time>2026-04-06T16:31:43Z</time></trkpt><trkpt lat="36.93021006210296" lon="15.165710476261243"><ele>23.0</ele><time>2026-04-06T16:31:44Z</time></trkpt><trkpt lat="36.93037805209132" lon="15.165828896544406"><ele>21.333333333333336</ele><time>2026-04-06T16:31:45Z</time></trkpt><trkpt lat="36.93054734423197" lon="15.165950812031939"><ele>19.666666666666668</ele><time>2026-04-06T16:31:46Z</time></trkpt><trkpt lat="36.930715064986444" lon="15.166073967208492"><ele>18.0</ele><time>2026-04-06T16:31:47Z</time></trkpt><trkpt lat="36.93088116397453" lon="15.166197734380349"><ele>18.0</ele><time>2026-04-06T16:31:48Z</time></trkpt><trkpt lat="36.93104546521567" lon="15.166321811746593"><ele>18.0</ele><time>2026-04-06T16:31:49Z</time></trkpt><trkpt lat="36.931208391565214" lon="15.166445044495358"><ele>18.0</ele><time>2026-04-06T16:31:50Z</time></trkpt><trkpt lat="36.9313715944029" lon="15.166567331530942"><ele>17.333333333333332</ele><time>2026-04-06T16:31:51Z</time></trkpt><trkpt lat="36.931545209252754" lon="15.166694167771881"><ele>16.666666666666664</ele><time>2026-04-06T16:31:52Z</time></trkpt><trkpt lat="36.93171593647723" lon="15.166817722499552"><ele>16.0</ele><time>2026-04-06T16:31:53Z</time></trkpt><trkpt lat="36.93188269948296" lon="15.166941356351332"><ele>16.0</ele><time>2026-04-06T16:31:54Z</time></trkpt><trkpt lat="36.932043314094024" lon="15.167060975489223"><ele>16.0</ele><time>2026-04-06T16:31:55Z</time></trkpt><trkpt lat="36.932200705271846" lon="15.167176758355227"><ele>16.0</ele><time>2026-04-06T16:31:56Z</time></trkpt><trkpt lat="36.932347905387495" lon="15.167285352798451"><ele>15.666666666666666</ele><time>2026-04-06T16:31:57Z</time></trkpt><trkpt lat="36.93249324493419" lon="15.16738936186334"><ele>15.333333333333332</ele><time>2026-04-06T16:31:58Z</time></trkpt><trkpt lat="36.93264422743927" lon="15.167495623077823"><ele>15.0</ele><time>2026-04-06T16:31:59Z</time></trkpt><trkpt lat="36.93279514892089" lon="15.16760606981649"><ele>15.0</ele><time>2026-04-06T16:32:00Z</time></trkpt><trkpt lat="36.93293984931614" lon="15.16771240857617"><ele>15.0</ele><time>2026-04-06T16:32:01Z</time></trkpt><trkpt lat="36.933078695738516" lon="15.167815238986993"><ele>15.0</ele><time>2026-04-06T16:32:02Z</time></trkpt><trkpt lat="36.93321507337076" lon="15.167914315834443"><ele>15.0</ele><time>2026-04-06T16:32:03Z</time></trkpt><trkpt lat="36.93334485864094" lon="15.16800540605609"><ele>15.0</ele><time>2026-04-06T16:32:04Z</time></trkpt><trkpt lat="36.933462343212334" lon="15.168087190324602"><ele>15.0</ele><time>2026-04-06T16:32:05Z</time></trkpt><trkpt lat="36.93355623727903" lon="15.168159666054668"><ele>15.0</ele><time>2026-04-06T16:32:06Z</time></trkpt><trkpt lat="36.933628373910274" lon="15.16822183499421"><ele>15.666666666666666</ele><time>2026-04-06T16:32:07Z</time></trkpt><trkpt lat="36.933680517621696" lon="15.168268458208006"><ele>16.333333333333332</ele><time>2026-04-06T16:32:08Z</time></trkpt><trkpt lat="36.933763753405074" lon="15.168320656346406"><ele>17.0</ele><time>2026-04-06T16:32:10Z</time></trkpt><trkpt lat="36.93386877962191" lon="15.16838330682943"><ele>17.666666666666664</ele><time>2026-04-06T16:32:12Z</time></trkpt><trkpt lat="36.93393989875551" lon="15.168433136413174"><ele>18.333333333333332</ele><time>2026-04-06T16:32:13Z</time></trkpt><trkpt lat="36.93401916854273" lon="15.16849635226287"><ele>19.0</ele><time>2026-04-06T16:32:14Z</time></trkpt><trkpt lat="36.934105717436" lon="15.168564133470326"><ele>19.0</ele><time>2026-04-06T16:32:15Z</time></trkpt><trkpt lat="36.93420271182319" lon="15.168632631570565"><ele>19.0</ele><time>2026-04-06T16:32:16Z</time></trkpt><trkpt lat="36.93430116382648" lon="15.168708835482976"><ele>19.0</ele><time>2026-04-06T16:32:17Z</time></trkpt><trkpt lat="36.93439347560866" lon="15.168783509411414"><ele>19.0</ele><time>2026-04-06T16:32:18Z</time></trkpt><trkpt lat="36.934498945137676" lon="15.168859968032859"><ele>19.25</ele><time>2026-04-06T16:32:19Z</time></trkpt><trkpt lat="36.93461774292707" lon="15.168938614902231"><ele>19.5</ele><time>2026-04-06T16:32:20Z</time></trkpt><trkpt lat="36.93474181862318" lon="15.169020471061458"><ele>19.75</ele><time>2026-04-06T16:32:21Z</time></trkpt><trkpt lat="36.93486783975591" lon="15.169109485317822"><ele>20.0</ele><time>2026-04-06T16:32:22Z</time></trkpt><trkpt lat="36.934990596335844" lon="15.169202865129309"><ele>20.0</ele><time>2026-04-06T16:32:23Z</time></trkpt><trkpt lat="36.93511777800866" lon="15.169299333077117"><ele>20.0</ele><time>2026-04-06T16:32:24Z</time></trkpt><trkpt lat="36.935248672232525" lon="15.16939670574666"><ele>20.0</ele><time>2026-04-06T16:32:25Z</time></trkpt><trkpt lat="36.935384597084784" lon="15.169494054778113"><ele>20.0</ele><time>2026-04-06T16:32:26Z</time></trkpt><trkpt lat="36.93552587627019" lon="15.169594641823075"><ele>20.0</ele><time>2026-04-06T16:32:27Z</time></trkpt><trkpt lat="36.9356707925487" lon="15.16970042361007"><ele>20.0</ele><time>2026-04-06T16:32:28Z</time></trkpt><trkpt lat="36.9358148854447" lon="15.169807053405236"><ele>19.333333333333336</ele><time>2026-04-06T16:32:29Z</time></trkpt><trkpt lat="36.93595886689406" lon="15.169914030156558"><ele>18.666666666666668</ele><time>2026-04-06T16:32:30Z</time></trkpt><trkpt lat="36.936103945869036" lon="15.170020178563856"><ele>18.0</ele><time>2026-04-06T16:32:31Z</time></trkpt><trkpt lat="36.93625089496326" lon="15.170128338464007"><ele>18.0</ele><time>2026-04-06T16:32:32Z</time></trkpt><trkpt lat="36.9363981233161" lon="15.170235494787663"><ele>18.0</ele><time>2026-04-06T16:32:33Z</time></trkpt><trkpt lat="36.93654874072699" lon="15.1703410109153"><ele>18.0</ele><time>2026-04-06T16:32:34Z</time></trkpt><trkpt lat="36.93670090351774" lon="15.170444288694185"><ele>18.333333333333332</ele><time>2026-04-06T16:32:35Z</time></trkpt><trkpt lat="36.93684601305207" lon="15.170569127661762"><ele>18.666666666666664</ele><time>2026-04-06T16:32:36Z</time></trkpt><trkpt lat="36.93700158371885" lon="15.170681773723404"><ele>19.0</ele><time>2026-04-06T16:32:37Z</time></trkpt><trkpt lat="36.93716432816253" lon="15.170779560397781"><ele>19.0</ele><time>2026-04-06T16:32:38Z</time></trkpt><trkpt lat="36.93732283535035" lon="15.17089996043467"><ele>19.0</ele><time>2026-04-06T16:32:39Z</time></trkpt><trkpt lat="36.93748552212399" lon="15.171014383164046"><ele>19.0</ele><time>2026-04-06T16:32:40Z</time></trkpt><trkpt lat="36.93764198477332" lon="15.171148702763915"><ele>19.0</ele><time>2026-04-06T16:32:41Z</time></trkpt><trkpt lat="36.93780887297123" lon="15.171270449415433"><ele>19.0</ele><time>2026-04-06T16:32:42Z</time></trkpt><trkpt lat="36.93798766919342" lon="15.171399795181742"><ele>19.0</ele><time>2026-04-06T16:32:43Z</time></trkpt><trkpt lat="36.93817406832171" lon="15.171534479255754"><ele>17.666666666666664</ele><time>2026-04-06T16:32:44Z</time></trkpt><trkpt lat="36.93836331076188" lon="15.171671217303231"><ele>16.333333333333332</ele><time>2026-04-06T16:32:45Z</time></trkpt><trkpt lat="36.938557448515716" lon="15.171814374638057"><ele>15.0</ele><time>2026-04-06T16:32:46Z</time></trkpt><trkpt lat="36.9387567794697" lon="15.17196683480277"><ele>15.0</ele><time>2026-04-06T16:32:47Z</time></trkpt><trkpt lat="36.93895835937615" lon="15.172123279173654"><ele>15.0</ele><time>2026-04-06T16:32:48Z</time></trkpt><trkpt lat="36.939149332721044" lon="15.172275329504163"><ele>15.666666666666668</ele><time>2026-04-06T16:32:49Z</time></trkpt><trkpt lat="36.939330005038386" lon="15.172420169935808"><ele>16.333333333333336</ele><time>2026-04-06T16:32:50Z</time></trkpt><trkpt lat="36.939505378036856" lon="15.172546853723341"><ele>17.0</ele><time>2026-04-06T16:32:51Z</time></trkpt><trkpt lat="36.93966330156891" lon="15.172680555207895"><ele>17.0</ele><time>2026-04-06T16:32:52Z</time></trkpt><trkpt lat="36.9398144899594" lon="15.17281075291533"><ele>17.0</ele><time>2026-04-06T16:32:53Z</time></trkpt><trkpt lat="36.93995585928334" lon="15.172922918939308"><ele>17.0</ele><time>2026-04-06T16:32:54Z</time></trkpt><trkpt lat="36.940092344156" lon="15.173032810151858"><ele>19.333333333333336</ele><time>2026-04-06T16:32:55Z</time></trkpt><trkpt lat="36.94022643968307" lon="15.173142410000738"><ele>21.666666666666668</ele><time>2026-04-06T16:32:56Z</time></trkpt><trkpt lat="36.940357258546776" lon="15.17325287959007"><ele>24.0</ele><time>2026-04-06T16:32:57Z</time></trkpt><trkpt lat="36.94048387684674" lon="15.173361946061279"><ele>24.0</ele><time>2026-04-06T16:32:58Z</time></trkpt><trkpt lat="36.94060817186627" lon="15.173471035752414"><ele>24.0</ele><time>2026-04-06T16:32:59Z</time></trkpt><trkpt lat="36.94073766326316" lon="15.173586844820644"><ele>24.0</ele><time>2026-04-06T16:33:00Z</time></trkpt><trkpt lat="36.94086553423666" lon="15.173700186516353"><ele>24.0</ele><time>2026-04-06T16:33:01Z</time></trkpt><trkpt lat="36.94098809792861" lon="15.173806410647817"><ele>24.0</ele><time>2026-04-06T16:33:02Z</time></trkpt><trkpt lat="36.941113661149956" lon="15.173915923540608"><ele>24.0</ele><time>2026-04-06T16:33:03Z</time></trkpt><trkpt lat="36.94124421239655" lon="15.174031981419809"><ele>24.0</ele><time>2026-04-06T16:33:04Z</time></trkpt><trkpt lat="36.941374539583464" lon="15.17415151424416"><ele>24.0</ele><time>2026-04-06T16:33:05Z</time></trkpt><trkpt lat="36.94150905014178" lon="15.17427359475567"><ele>24.0</ele><time>2026-04-06T16:33:06Z</time></trkpt><trkpt lat="36.9416470053602" lon="15.174402041946474"><ele>24.0</ele><time>2026-04-06T16:33:07Z</time></trkpt><trkpt lat="36.941787265876556" lon="15.174535532879846"><ele>24.0</ele><time>2026-04-06T16:33:08Z</time></trkpt><trkpt lat="36.941930073646716" lon="15.174673886910353"><ele>24.0</ele><time>2026-04-06T16:33:09Z</time></trkpt><trkpt lat="36.942075334949784" lon="15.174814791940161"><ele>23.0</ele><time>2026-04-06T16:33:10Z</time></trkpt><trkpt lat="36.94221699702026" lon="15.174951226078653"><ele>22.0</ele><time>2026-04-06T16:33:11Z</time></trkpt><trkpt lat="36.942356733893355" lon="15.175084071890169"><ele>21.0</ele><time>2026-04-06T16:33:12Z</time></trkpt><trkpt lat="36.94249858400665" lon="15.175217294091569"><ele>22.333333333333336</ele><time>2026-04-06T16:33:13Z</time></trkpt><trkpt lat="36.94263989933685" lon="15.17535493955765"><ele>23.666666666666668</ele><time>2026-04-06T16:33:14Z</time></trkpt><trkpt lat="36.94277663528156" lon="15.175504292012482"><ele>25.0</ele><time>2026-04-06T16:33:15Z</time></trkpt><trkpt lat="36.94290824260559" lon="15.175663881976417"><ele>24.666666666666668</ele><time>2026-04-06T16:33:16Z</time></trkpt><trkpt lat="36.94303403098404" lon="15.17582365707979"><ele>24.333333333333336</ele><time>2026-04-06T16:33:17Z</time></trkpt><trkpt lat="36.94315570344555" lon="15.175977607544965"><ele>24.0</ele><time>2026-04-06T16:33:18Z</time></trkpt><trkpt lat="36.94327333736362" lon="15.17612619668894"><ele>24.0</ele><time>2026-04-06T16:33:19Z</time></trkpt><trkpt lat="36.94337460755467" lon="15.176284493872597"><ele>24.0</ele><time>2026-04-06T16:33:20Z</time></trkpt><trkpt lat="36.94348627340657" lon="15.176428011571863"><ele>24.0</ele><time>2026-04-06T16:33:21Z</time></trkpt><trkpt lat="36.943599836694176" lon="15.176573796360062"><ele>24.333333333333336</ele><time>2026-04-06T16:33:22Z</time></trkpt><trkpt lat="36.94372649238779" lon="15.176708016669105"><ele>24.666666666666668</ele><time>2026-04-06T16:33:23Z</time></trkpt><trkpt lat="36.94383793338811" lon="15.176854162940195"><ele>25.0</ele><time>2026-04-06T16:33:24Z</time></trkpt><trkpt lat="36.943944180906016" lon="15.17699380139892"><ele>25.0</ele><time>2026-04-06T16:33:25Z</time></trkpt><trkpt lat="36.94404606977674" lon="15.177127112469984"><ele>25.0</ele><time>2026-04-06T16:33:26Z</time></trkpt><trkpt lat="36.944144899161806" lon="15.177277881641821"><ele>25.0</ele><time>2026-04-06T16:33:27Z</time></trkpt><trkpt lat="36.94426294668793" lon="15.177430937246848"><ele>25.666666666666668</ele><time>2026-04-06T16:33:28Z</time></trkpt><trkpt lat="36.94439450748501" lon="15.177601513090842"><ele>26.333333333333336</ele><time>2026-04-06T16:33:29Z</time></trkpt><trkpt lat="36.94453971469349" lon="15.177786644392855"><ele>27.0</ele><time>2026-04-06T16:33:30Z</time></trkpt><trkpt lat="36.94468949063426" lon="15.17798035799252"><ele>27.0</ele><time>2026-04-06T16:33:31Z</time></trkpt><trkpt lat="36.944854400414286" lon="15.178165553525524"><ele>27.0</ele><time>2026-04-06T16:33:32Z</time></trkpt><trkpt lat="36.945005604085424" lon="15.178378974728206"><ele>27.333333333333336</ele><time>2026-04-06T16:33:33Z</time></trkpt><trkpt lat="36.94514794257494" lon="15.178571133610706"><ele>27.666666666666668</ele><time>2026-04-06T16:33:34Z</time></trkpt><trkpt lat="36.94528671065112" lon="15.17874838661065"><ele>28.0</ele><time>2026-04-06T16:33:35Z</time></trkpt><trkpt lat="36.94542558772157" lon="15.178922948120071"><ele>27.0</ele><time>2026-04-06T16:33:36Z</time></trkpt><trkpt lat="36.94555993142492" lon="15.179094941293542"><ele>26.0</ele><time>2026-04-06T16:33:37Z</time></trkpt><trkpt lat="36.94568634939335" lon="15.179264010705896"><ele>25.0</ele><time>2026-04-06T16:33:38Z</time></trkpt><trkpt lat="36.945804774050124" lon="15.179435563417066"><ele>25.333333333333336</ele><time>2026-04-06T16:33:39Z</time></trkpt><trkpt lat="36.945932364002445" lon="15.179629525755708"><ele>25.666666666666664</ele><time>2026-04-06T16:33:40Z</time></trkpt><trkpt lat="36.94605865652222" lon="15.179838716030154"><ele>26.0</ele><time>2026-04-06T16:33:41Z</time></trkpt><trkpt lat="36.94617329718995" lon="15.180045621363623"><ele>26.0</ele><time>2026-04-06T16:33:42Z</time></trkpt><trkpt lat="36.946282749597174" lon="15.180254901116546"><ele>26.0</ele><time>2026-04-06T16:33:43Z</time></trkpt><trkpt lat="36.9463857621773" lon="15.180464296655357"><ele>26.0</ele><time>2026-04-06T16:33:44Z</time></trkpt><trkpt lat="36.946469084018645" lon="15.180676123538731"><ele>25.0</ele><time>2026-04-06T16:33:45Z</time></trkpt><trkpt lat="36.94655756535772" lon="15.180875357109127"><ele>24.0</ele><time>2026-04-06T16:33:46Z</time></trkpt><trkpt lat="36.946637655873076" lon="15.181065417112555"><ele>23.0</ele><time>2026-04-06T16:33:47Z</time></trkpt><trkpt lat="36.94671348257405" lon="15.181257440310448"><ele>23.0</ele><time>2026-04-06T16:33:48Z</time></trkpt><trkpt lat="36.94678040582309" lon="15.181446894954863"><ele>23.0</ele><time>2026-04-06T16:33:49Z</time></trkpt><trkpt lat="36.946841217908506" lon="15.181629580299509"><ele>23.0</ele><time>2026-04-06T16:33:50Z</time></trkpt><trkpt lat="36.94691347287707" lon="15.181802827616925"><ele>21.666666666666668</ele><time>2026-04-06T16:33:51Z</time></trkpt><trkpt lat="36.946969296704054" lon="15.181997975001009"><ele>20.333333333333332</ele><time>2026-04-06T16:33:52Z</time></trkpt><trkpt lat="36.947027427293" lon="15.182212799242315"><ele>19.0</ele><time>2026-04-06T16:33:53Z</time></trkpt><trkpt lat="36.94709037855153" lon="15.182451127341354"><ele>17.666666666666664</ele><time>2026-04-06T16:33:54Z</time></trkpt><trkpt lat="36.94715944706882" lon="15.182697525303446"><ele>16.333333333333332</ele><time>2026-04-06T16:33:55Z</time></trkpt><trkpt lat="36.947218472617905" lon="15.1829721932395"><ele>15.0</ele><time>2026-04-06T16:33:56Z</time></trkpt><trkpt lat="36.94729105390342" lon="15.183241751739073"><ele>14.0</ele><time>2026-04-06T16:33:57Z</time></trkpt><trkpt lat="36.947360520401894" lon="15.183499000670727"><ele>13.0</ele><time>2026-04-06T16:33:58Z</time></trkpt><trkpt lat="36.94742847829583" lon="15.18374741095696"><ele>12.0</ele><time>2026-04-06T16:33:59Z</time></trkpt><trkpt lat="36.947499112761314" lon="15.18400623443171"><ele>9.5</ele><time>2026-04-06T16:34:00Z</time></trkpt><trkpt lat="36.94757106033393" lon="15.184272901349438"><ele>7.0</ele><time>2026-04-06T16:34:01Z</time></trkpt><trkpt lat="36.9476505381213" lon="15.184559146337396"><ele>6.5</ele><time>2026-04-06T16:34:02Z</time></trkpt><trkpt lat="36.94773527940187" lon="15.18485281768302"><ele>6.0</ele><time>2026-04-06T16:34:03Z</time></trkpt><trkpt lat="36.94782933610008" lon="15.185111328761648"><ele>6.0</ele><time>2026-04-06T16:34:04Z</time></trkpt><trkpt lat="36.94790235633435" lon="15.185364197338318"><ele>6.0</ele><time>2026-04-06T16:34:05Z</time></trkpt><trkpt lat="36.947992433772804" lon="15.185617265684522"><ele>6.0</ele><time>2026-04-06T16:34:06Z</time></trkpt><trkpt lat="36.94810129961556" lon="15.185884186393405"><ele>6.0</ele><time>2026-04-06T16:34:07Z</time></trkpt><trkpt lat="36.948217943863284" lon="15.186145201823264"><ele>6.0</ele><time>2026-04-06T16:34:08Z</time></trkpt><trkpt lat="36.94833158442269" lon="15.186393334172868"><ele>6.0</ele><time>2026-04-06T16:34:09Z</time></trkpt><trkpt lat="36.94844924034998" lon="15.186646309578878"><ele>6.0</ele><time>2026-04-06T16:34:10Z</time></trkpt><trkpt lat="36.94857683628964" lon="15.18690256844489"><ele>6.0</ele><time>2026-04-06T16:34:11Z</time></trkpt><trkpt lat="36.9487095185734" lon="15.18715776760937"><ele>6.0</ele><time>2026-04-06T16:34:12Z</time></trkpt><trkpt lat="36.94883668263963" lon="15.187399908395625"><ele>5.666666666666667</ele><time>2026-04-06T16:34:13Z</time></trkpt><trkpt lat="36.94895273630191" lon="15.187624011194774"><ele>5.333333333333334</ele><time>2026-04-06T16:34:14Z</time></trkpt><trkpt lat="36.94906859969152" lon="15.187833269414055"><ele>5.0</ele><time>2026-04-06T16:34:15Z</time></trkpt><trkpt lat="36.94918699728553" lon="15.188045897835055"><ele>5.0</ele><time>2026-04-06T16:34:16Z</time></trkpt><trkpt lat="36.94931648830139" lon="15.188274172961636"><ele>5.0</ele><time>2026-04-06T16:34:17Z</time></trkpt><trkpt lat="36.94945159729442" lon="15.188507772116346"><ele>5.0</ele><time>2026-04-06T16:34:18Z</time></trkpt><trkpt lat="36.94959011613118" lon="15.188745967603179"><ele>5.0</ele><time>2026-04-06T16:34:19Z</time></trkpt><trkpt lat="36.94972457807142" lon="15.188986317681907"><ele>6.333333333333334</ele><time>2026-04-06T16:34:20Z</time></trkpt><trkpt lat="36.94984832746236" lon="15.189187152322184"><ele>7.666666666666667</ele><time>2026-04-06T16:34:21Z</time></trkpt><trkpt lat="36.949951111691504" lon="15.189390464937372"><ele>9.0</ele><time>2026-04-06T16:34:22Z</time></trkpt><trkpt lat="36.95005580357431" lon="15.189584358987082"><ele>10.0</ele><time>2026-04-06T16:34:23Z</time></trkpt><trkpt lat="36.95016221137265" lon="15.189768513618294"><ele>11.0</ele><time>2026-04-06T16:34:24Z</time></trkpt><trkpt lat="36.95027404233005" lon="15.189936795111732"><ele>12.0</ele><time>2026-04-06T16:34:25Z</time></trkpt><trkpt lat="36.95039781549517" lon="15.190080753795554"><ele>12.666666666666668</ele><time>2026-04-06T16:34:26Z</time></trkpt><trkpt lat="36.95053713986922" lon="15.190186872496142"><ele>13.333333333333334</ele><time>2026-04-06T16:34:27Z</time></trkpt><trkpt lat="36.95068188352985" lon="15.190295199897838"><ele>14.0</ele><time>2026-04-06T16:34:28Z</time></trkpt><trkpt lat="36.950838552365155" lon="15.190386143521676"><ele>15.333333333333334</ele><time>2026-04-06T16:34:29Z</time></trkpt><trkpt lat="36.95102022214449" lon="15.190437079756407"><ele>16.666666666666668</ele><time>2026-04-06T16:34:30Z</time></trkpt><trkpt lat="36.95120712279665" lon="15.190465398009406"><ele>18.0</ele><time>2026-04-06T16:34:31Z</time></trkpt><trkpt lat="36.95138528428164" lon="15.190472306863013"><ele>18.0</ele><time>2026-04-06T16:34:32Z</time></trkpt><trkpt lat="36.951545641797956" lon="15.19046319850381"><ele>18.0</ele><time>2026-04-06T16:34:33Z</time></trkpt><trkpt lat="36.95168723264223" lon="15.19044913575803"><ele>18.0</ele><time>2026-04-06T16:34:34Z</time></trkpt><trkpt lat="36.95181511453879" lon="15.190441169374989"><ele>18.0</ele><time>2026-04-06T16:34:35Z</time></trkpt><trkpt lat="36.95192584745961" lon="15.190446563595845"><ele>18.2</ele><time>2026-04-06T16:34:36Z</time></trkpt><trkpt lat="36.95202085614064" lon="15.19046312400654"><ele>18.4</ele><time>2026-04-06T16:34:37Z</time></trkpt><trkpt lat="36.9520998819193" lon="15.190502015146393"><ele>18.599999999999998</ele><time>2026-04-06T16:34:38Z</time></trkpt><trkpt lat="36.95216885072057" lon="15.190567383004694"><ele>18.8</ele><time>2026-04-06T16:34:39Z</time></trkpt><trkpt lat="36.95224037841944" lon="15.19065341822469"><ele>19.0</ele><time>2026-04-06T16:34:40Z</time></trkpt><trkpt lat="36.95231228073644" lon="15.190758139346368"><ele>19.0</ele><time>2026-04-06T16:34:41Z</time></trkpt><trkpt lat="36.95237553887327" lon="15.19088922632499"><ele>19.0</ele><time>2026-04-06T16:34:42Z</time></trkpt><trkpt lat="36.95243404586303" lon="15.191049072283283"><ele>19.0</ele><time>2026-04-06T16:34:43Z</time></trkpt><trkpt lat="36.952493843108954" lon="15.19122501894005"><ele>19.0</ele><time>2026-04-06T16:34:44Z</time></trkpt><trkpt lat="36.95255603440369" lon="15.191397267481248"><ele>18.666666666666664</ele><time>2026-04-06T16:34:45Z</time></trkpt><trkpt lat="36.952627462408365" lon="15.191583205828117"><ele>18.333333333333332</ele><time>2026-04-06T16:34:46Z</time></trkpt><trkpt lat="36.952707456623294" lon="15.191786777494318"><ele>18.0</ele><time>2026-04-06T16:34:47Z</time></trkpt><trkpt lat="36.952792348906684" lon="15.19199304975096"><ele>18.0</ele><time>2026-04-06T16:34:48Z</time></trkpt><trkpt lat="36.95287585543789" lon="15.192197812040336"><ele>18.0</ele><time>2026-04-06T16:34:49Z</time></trkpt><trkpt lat="36.952953479729246" lon="15.192393497236585"><ele>18.0</ele><time>2026-04-06T16:34:50Z</time></trkpt><trkpt lat="36.95302911670795" lon="15.192586272501229"><ele>17.666666666666668</ele><time>2026-04-06T16:34:51Z</time></trkpt><trkpt lat="36.95310139894129" lon="15.19277661006049"><ele>17.333333333333336</ele><time>2026-04-06T16:34:52Z</time></trkpt><trkpt lat="36.95317133407942" lon="15.192968264903389"><ele>17.0</ele><time>2026-04-06T16:34:53Z</time></trkpt><trkpt lat="36.95324266136859" lon="15.193167232384404"><ele>17.0</ele><time>2026-04-06T16:34:54Z</time></trkpt><trkpt lat="36.9533125054957" lon="15.19337835613837"><ele>17.0</ele><time>2026-04-06T16:34:55Z</time></trkpt><trkpt lat="36.9533758155483" lon="15.193590751626758"><ele>17.0</ele><time>2026-04-06T16:34:56Z</time></trkpt><trkpt lat="36.953433085865896" lon="15.19379796713401"><ele>17.0</ele><time>2026-04-06T16:34:57Z</time></trkpt><trkpt lat="36.953486641207654" lon="15.1940008095093"><ele>17.0</ele><time>2026-04-06T16:34:58Z</time></trkpt><trkpt lat="36.95353966770282" lon="15.194202690782953"><ele>17.0</ele><time>2026-04-06T16:34:59Z</time></trkpt><trkpt lat="36.95359311572526" lon="15.194398207584282"><ele>17.666666666666668</ele><time>2026-04-06T16:35:00Z</time></trkpt><trkpt lat="36.95364554387831" lon="15.194587517252938"><ele>18.333333333333332</ele><time>2026-04-06T16:35:01Z</time></trkpt><trkpt lat="36.95369904948663" lon="15.19476651650828"><ele>19.0</ele><time>2026-04-06T16:35:02Z</time></trkpt><trkpt lat="36.953759631909556" lon="15.194934207597303"><ele>19.25</ele><time>2026-04-06T16:35:03Z</time></trkpt><trkpt lat="36.953825511541226" lon="15.19509244354092"><ele>19.5</ele><time>2026-04-06T16:35:04Z</time></trkpt><trkpt lat="36.953895627562886" lon="15.195244136361099"><ele>19.75</ele><time>2026-04-06T16:35:05Z</time></trkpt><trkpt lat="36.95396916180403" lon="15.195391105832883"><ele>20.0</ele><time>2026-04-06T16:35:06Z</time></trkpt><trkpt lat="36.95404336415465" lon="15.195531322116423"><ele>19.5</ele><time>2026-04-06T16:35:07Z</time></trkpt><trkpt lat="36.95411455328632" lon="15.195671668599624"><ele>19.0</ele><time>2026-04-06T16:35:08Z</time></trkpt><trkpt lat="36.954186520776574" lon="15.19580708539356"><ele>18.5</ele><time>2026-04-06T16:35:09Z</time></trkpt><trkpt lat="36.95426433589001" lon="15.195939649534534"><ele>18.0</ele><time>2026-04-06T16:35:10Z</time></trkpt><trkpt lat="36.95434041954336" lon="15.196068285314913"><ele>18.0</ele><time>2026-04-06T16:35:11Z</time></trkpt><trkpt lat="36.95441169681813" lon="15.196200446108664"><ele>18.0</ele><time>2026-04-06T16:35:12Z</time></trkpt><trkpt lat="36.95448634739276" lon="15.196339516095604"><ele>18.0</ele><time>2026-04-06T16:35:13Z</time></trkpt><trkpt lat="36.954564743498686" lon="15.196487310984995"><ele>18.0</ele><time>2026-04-06T16:35:14Z</time></trkpt><trkpt lat="36.95464575297522" lon="15.196634685394281"><ele>17.75</ele><time>2026-04-06T16:35:15Z</time></trkpt><trkpt lat="36.954729580555785" lon="15.196778321181432"><ele>17.5</ele><time>2026-04-06T16:35:16Z</time></trkpt><trkpt lat="36.95481785084224" lon="15.196919270921994"><ele>17.25</ele><time>2026-04-06T16:35:17Z</time></trkpt><trkpt lat="36.95491659959848" lon="15.1970609525542"><ele>17.0</ele><time>2026-04-06T16:35:18Z</time></trkpt><trkpt lat="36.955025293361246" lon="15.197201893802141"><ele>16.666666666666668</ele><time>2026-04-06T16:35:19Z</time></trkpt><trkpt lat="36.955146242878484" lon="15.197349333161378"><ele>16.333333333333332</ele><time>2026-04-06T16:35:20Z</time></trkpt><trkpt lat="36.95527562953692" lon="15.197502117056741"><ele>16.0</ele><time>2026-04-06T16:35:21Z</time></trkpt><trkpt lat="36.95541012643355" lon="15.197658847503495"><ele>16.0</ele><time>2026-04-06T16:35:22Z</time></trkpt><trkpt lat="36.95553995872894" lon="15.19782274817127"><ele>16.0</ele><time>2026-04-06T16:35:23Z</time></trkpt><trkpt lat="36.955661594146115" lon="15.197988016538645"><ele>16.0</ele><time>2026-04-06T16:35:24Z</time></trkpt><trkpt lat="36.955786430426706" lon="15.198154275809518"><ele>16.0</ele><time>2026-04-06T16:35:25Z</time></trkpt><trkpt lat="36.95591326295729" lon="15.198319966886135"><ele>16.0</ele><time>2026-04-06T16:35:26Z</time></trkpt><trkpt lat="36.95604021900561" lon="15.198478904231953"><ele>16.0</ele><time>2026-04-06T16:35:27Z</time></trkpt><trkpt lat="36.95616834378407" lon="15.19863192702716"><ele>16.0</ele><time>2026-04-06T16:35:28Z</time></trkpt><trkpt lat="36.95629574246833" lon="15.19877315063054"><ele>16.0</ele><time>2026-04-06T16:35:29Z</time></trkpt><trkpt lat="36.95641579873847" lon="15.198904096091974"><ele>16.0</ele><time>2026-04-06T16:35:30Z</time></trkpt><trkpt lat="36.956532603004035" lon="15.199028641093117"><ele>16.0</ele><time>2026-04-06T16:35:31Z</time></trkpt><trkpt lat="36.956650006958824" lon="15.199138051751797"><ele>16.0</ele><time>2026-04-06T16:35:32Z</time></trkpt><trkpt lat="36.956783060074784" lon="15.199232230257932"><ele>16.0</ele><time>2026-04-06T16:35:33Z</time></trkpt><trkpt lat="36.956933321315056" lon="15.199326181155564"><ele>15.333333333333332</ele><time>2026-04-06T16:35:34Z</time></trkpt><trkpt lat="36.957086504159875" lon="15.199409963480628"><ele>14.666666666666668</ele><time>2026-04-06T16:35:35Z</time></trkpt><trkpt lat="36.95724289563223" lon="15.199485081772858"><ele>14.0</ele><time>2026-04-06T16:35:36Z</time></trkpt><trkpt lat="36.95739296724466" lon="15.19956562712768"><ele>12.333333333333334</ele><time>2026-04-06T16:35:37Z</time></trkpt><trkpt lat="36.957542759702946" lon="15.199653763608582"><ele>10.666666666666668</ele><time>2026-04-06T16:35:38Z</time></trkpt><trkpt lat="36.95769381069766" lon="15.199759747380757"><ele>9.0</ele><time>2026-04-06T16:35:39Z</time></trkpt><trkpt lat="36.95784265683728" lon="15.199873286983697"><ele>8.666666666666666</ele><time>2026-04-06T16:35:40Z</time></trkpt><trkpt lat="36.95798764014584" lon="15.199994701920458"><ele>8.333333333333332</ele><time>2026-04-06T16:35:41Z</time></trkpt><trkpt lat="36.95813294811668" lon="15.20013717840417"><ele>8.0</ele><time>2026-04-06T16:35:42Z</time></trkpt><trkpt lat="36.95828409383244" lon="15.200286350948721"><ele>8.0</ele><time>2026-04-06T16:35:43Z</time></trkpt><trkpt lat="36.95843530862329" lon="15.200435905708765"><ele>8.0</ele><time>2026-04-06T16:35:44Z</time></trkpt><trkpt lat="36.9585815977873" lon="15.200580220843618"><ele>8.0</ele><time>2026-04-06T16:35:45Z</time></trkpt><trkpt lat="36.95872613984795" lon="15.200725455263564"><ele>7.666666666666666</ele><time>2026-04-06T16:35:46Z</time></trkpt><trkpt lat="36.958863299483355" lon="15.200866993052363"><ele>7.333333333333334</ele><time>2026-04-06T16:35:47Z</time></trkpt><trkpt lat="36.958998507442615" lon="15.201012414687744"><ele>7.0</ele><time>2026-04-06T16:35:48Z</time></trkpt><trkpt lat="36.959148219177955" lon="15.201167635154281"><ele>7.333333333333334</ele><time>2026-04-06T16:35:49Z</time></trkpt><trkpt lat="36.959304827148756" lon="15.201315436527947"><ele>7.666666666666666</ele><time>2026-04-06T16:35:50Z</time></trkpt><trkpt lat="36.9594524884418" lon="15.201458208474849"><ele>8.0</ele><time>2026-04-06T16:35:51Z</time></trkpt><trkpt lat="36.959594612491905" lon="15.201592398441033"><ele>8.0</ele><time>2026-04-06T16:35:52Z</time></trkpt><trkpt lat="36.959714539885404" lon="15.201743963327697"><ele>8.0</ele><time>2026-04-06T16:35:53Z</time></trkpt><trkpt lat="36.959838174713596" lon="15.201875184937963"><ele>8.0</ele><time>2026-04-06T16:35:54Z</time></trkpt><trkpt lat="36.959962640982354" lon="15.201989860129856"><ele>8.0</ele><time>2026-04-06T16:35:55Z</time></trkpt><trkpt lat="36.960072298166146" lon="15.202110958246493"><ele>8.0</ele><time>2026-04-06T16:35:56Z</time></trkpt><trkpt lat="36.96017696820808" lon="15.202225580885266"><ele>8.0</ele><time>2026-04-06T16:35:57Z</time></trkpt><trkpt lat="36.960274240110664" lon="15.202338912609974"><ele>8.0</ele><time>2026-04-06T16:35:58Z</time></trkpt><trkpt lat="36.96036805256016" lon="15.202453200206431"><ele>8.0</ele><time>2026-04-06T16:35:59Z</time></trkpt><trkpt lat="36.96045960958569" lon="15.202572700902271"><ele>8.0</ele><time>2026-04-06T16:36:00Z</time></trkpt><trkpt lat="36.9605506200422" lon="15.202694047839985"><ele>8.0</ele><time>2026-04-06T16:36:01Z</time></trkpt><trkpt lat="36.96063413187673" lon="15.20280735031305"><ele>8.0</ele><time>2026-04-06T16:36:02Z</time></trkpt><trkpt lat="36.960701854912514" lon="15.202921528902504"><ele>8.0</ele><time>2026-04-06T16:36:03Z</time></trkpt><trkpt lat="36.96075070366639" lon="15.203045832053082"><ele>8.0</ele><time>2026-04-06T16:36:04Z</time></trkpt><trkpt lat="36.96080016429255" lon="15.20318003870928"><ele>8.0</ele><time>2026-04-06T16:36:05Z</time></trkpt><trkpt lat="36.96084384061864" lon="15.203330096434128"><ele>8.0</ele><time>2026-04-06T16:36:06Z</time></trkpt><trkpt lat="36.96089372454158" lon="15.203491411485276"><ele>9.5</ele><time>2026-04-06T16:36:07Z</time></trkpt><trkpt lat="36.96092230756384" lon="15.203655211917432"><ele>11.0</ele><time>2026-04-06T16:36:08Z</time></trkpt><trkpt lat="36.960961953277945" lon="15.20379905089081"><ele>12.5</ele><time>2026-04-06T16:36:09Z</time></trkpt><trkpt lat="36.96099879820803" lon="15.203921173020372"><ele>14.0</ele><time>2026-04-06T16:36:10Z</time></trkpt><trkpt lat="36.96103718763156" lon="15.204030608720071"><ele>14.000000000000002</ele><time>2026-04-06T16:36:11Z</time></trkpt><trkpt lat="36.9610904430554" lon="15.20411569043735"><ele>14.0</ele><time>2026-04-06T16:36:12Z</time></trkpt><trkpt lat="36.9611319804638" lon="15.204201817314141"><ele>14.0</ele><time>2026-04-06T16:36:13Z</time></trkpt><trkpt lat="36.96118144211917" lon="15.204285397183412"><ele>14.0</ele><time>2026-04-06T16:36:14Z</time></trkpt><trkpt lat="36.96123665488579" lon="15.204369407148626"><ele>14.000000000000002</ele><time>2026-04-06T16:36:15Z</time></trkpt><trkpt lat="36.9612954182524" lon="15.204451480041014"><ele>14.0</ele><time>2026-04-06T16:36:16Z</time></trkpt><trkpt lat="36.96134265894335" lon="15.204545379458601"><ele>14.0</ele><time>2026-04-06T16:36:17Z</time></trkpt><trkpt lat="36.96143197965617" lon="15.204600327942215"><ele>13.999999999999998</ele><time>2026-04-06T16:36:18Z</time></trkpt><trkpt lat="36.961499812817934" lon="15.204667563716933"><ele>13.999999999999998</ele><time>2026-04-06T16:36:19Z</time></trkpt><trkpt lat="36.961570032762545" lon="15.204729642630843"><ele>14.0</ele><time>2026-04-06T16:36:20Z</time></trkpt><trkpt lat="36.961655931406334" lon="15.204786614028414"><ele>14.0</ele><time>2026-04-06T16:36:21Z</time></trkpt><trkpt lat="36.961765000417124" lon="15.204837854461779"><ele>13.75</ele><time>2026-04-06T16:36:22Z</time></trkpt><trkpt lat="36.961861027583694" lon="15.204941104506442"><ele>13.5</ele><time>2026-04-06T16:36:23Z</time></trkpt><trkpt lat="36.9619809384569" lon="15.205015815806437"><ele>13.25</ele><time>2026-04-06T16:36:24Z</time></trkpt><trkpt lat="36.96210525764083" lon="15.205085569357987"><ele>13.0</ele><time>2026-04-06T16:36:25Z</time></trkpt><trkpt lat="36.96221627618425" lon="15.2051570161767"><ele>13.0</ele><time>2026-04-06T16:36:26Z</time></trkpt><trkpt lat="36.96231098988352" lon="15.20525612123858"><ele>13.0</ele><time>2026-04-06T16:36:27Z</time></trkpt><trkpt lat="36.96242906556857" lon="15.2053339315271"><ele>13.0</ele><time>2026-04-06T16:36:28Z</time></trkpt><trkpt lat="36.96253800901857" lon="15.205429301629614"><ele>13.0</ele><time>2026-04-06T16:36:29Z</time></trkpt><trkpt lat="36.96263779708549" lon="15.205518861981298"><ele>13.0</ele><time>2026-04-06T16:36:30Z</time></trkpt><trkpt lat="36.96273190677297" lon="15.205592280169288"><ele>13.0</ele><time>2026-04-06T16:36:31Z</time></trkpt><trkpt lat="36.96282085079214" lon="15.20565697828532"><ele>13.0</ele><time>2026-04-06T16:36:32Z</time></trkpt><trkpt lat="36.96290321021935" lon="15.205723828782471"><ele>13.0</ele><time>2026-04-06T16:36:33Z</time></trkpt><trkpt lat="36.962977216296814" lon="15.205796749323016"><ele>13.0</ele><time>2026-04-06T16:36:34Z</time></trkpt><trkpt lat="36.963044337191036" lon="15.205865954904484"><ele>13.0</ele><time>2026-04-06T16:36:35Z</time></trkpt><trkpt lat="36.963108240121294" lon="15.205929811771128"><ele>13.0</ele><time>2026-04-06T16:36:36Z</time></trkpt><trkpt lat="36.96317169271889" lon="15.206009072356688"><ele>13.0</ele><time>2026-04-06T16:36:37Z</time></trkpt><trkpt lat="36.96325211241426" lon="15.206090928049676"><ele>13.0</ele><time>2026-04-06T16:36:38Z</time></trkpt><trkpt lat="36.96331787859778" lon="15.206177476096059"><ele>13.0</ele><time>2026-04-06T16:36:39Z</time></trkpt><trkpt lat="36.963388981857555" lon="15.206255733328941"><ele>13.4</ele><time>2026-04-06T16:36:40Z</time></trkpt><trkpt lat="36.96346641654164" lon="15.206339944840964"><ele>13.8</ele><time>2026-04-06T16:36:41Z</time></trkpt><trkpt lat="36.963553849870856" lon="15.206408127191176"><ele>14.2</ele><time>2026-04-06T16:36:42Z</time></trkpt><trkpt lat="36.963617908955385" lon="15.206504695358241"><ele>14.6</ele><time>2026-04-06T16:36:43Z</time></trkpt><trkpt lat="36.96368336936374" lon="15.206575884648172"><ele>15.0</ele><time>2026-04-06T16:36:44Z</time></trkpt><trkpt lat="36.963763533221034" lon="15.206637309296573"><ele>15.0</ele><time>2026-04-06T16:36:45Z</time></trkpt><trkpt lat="36.96383151975485" lon="15.206736876701292"><ele>15.0</ele><time>2026-04-06T16:36:46Z</time></trkpt><trkpt lat="36.963910945120986" lon="15.206822126595247"><ele>15.0</ele><time>2026-04-06T16:36:47Z</time></trkpt><trkpt lat="36.964002137211814" lon="15.206917769485035"><ele>15.0</ele><time>2026-04-06T16:36:48Z</time></trkpt><trkpt lat="36.96411905959514" lon="15.207038849101645"><ele>15.25</ele><time>2026-04-06T16:36:49Z</time></trkpt><trkpt lat="36.96423197577338" lon="15.207154022960125"><ele>15.5</ele><time>2026-04-06T16:36:50Z</time></trkpt><trkpt lat="36.96433249833368" lon="15.207249239651391"><ele>15.75</ele><time>2026-04-06T16:36:51Z</time></trkpt><trkpt lat="36.96442104989153" lon="15.207346197268084"><ele>16.0</ele><time>2026-04-06T16:36:52Z</time></trkpt><trkpt lat="36.964507203803564" lon="15.207429854511211"><ele>15.200000000000001</ele><time>2026-04-06T16:36:53Z</time></trkpt><trkpt lat="36.964589334595544" lon="15.20751062075555"><ele>14.400000000000002</ele><time>2026-04-06T16:36:54Z</time></trkpt><trkpt lat="36.96466816217261" lon="15.207595307150296"><ele>13.6</ele><time>2026-04-06T16:36:55Z</time></trkpt><trkpt lat="36.964746723066895" lon="15.20767924328878"><ele>12.8</ele><time>2026-04-06T16:36:56Z</time></trkpt><trkpt lat="36.964828466519656" lon="15.207762779718086"><ele>12.0</ele><time>2026-04-06T16:36:57Z</time></trkpt><trkpt lat="36.964908157818094" lon="15.207838424376208"><ele>12.0</ele><time>2026-04-06T16:36:58Z</time></trkpt><trkpt lat="36.96498158809543" lon="15.207902367908392"><ele>12.0</ele><time>2026-04-06T16:36:59Z</time></trkpt><trkpt lat="36.96505039839823" lon="15.207964430361647"><ele>12.0</ele><time>2026-04-06T16:37:00Z</time></trkpt><trkpt lat="36.96511880669703" lon="15.208056262856308"><ele>12.0</ele><time>2026-04-06T16:37:01Z</time></trkpt><trkpt lat="36.96520424598462" lon="15.208143571572553"><ele>12.0</ele><time>2026-04-06T16:37:02Z</time></trkpt><trkpt lat="36.96529909084068" lon="15.208217712315228"><ele>13.0</ele><time>2026-04-06T16:37:03Z</time></trkpt><trkpt lat="36.965375522368845" lon="15.20830981013025"><ele>14.0</ele><time>2026-04-06T16:37:04Z</time></trkpt><trkpt lat="36.96545422192048" lon="15.208391207720863"><ele>15.0</ele><time>2026-04-06T16:37:05Z</time></trkpt><trkpt lat="36.96552822555942" lon="15.208478372351552"><ele>16.0</ele><time>2026-04-06T16:37:06Z</time></trkpt><trkpt lat="36.96559682026106" lon="15.208551102442547"><ele>17.0</ele><time>2026-04-06T16:37:07Z</time></trkpt><trkpt lat="36.965645918491106" lon="15.208626377960224"><ele>17.0</ele><time>2026-04-06T16:37:08Z</time></trkpt><trkpt lat="36.96570357113372" lon="15.208676773897608"><ele>17.0</ele><time>2026-04-06T16:37:09Z</time></trkpt><trkpt lat="36.96580020852767" lon="15.208768311270598"><ele>17.0</ele><time>2026-04-06T16:37:11Z</time></trkpt><trkpt lat="36.96585316363617" lon="15.208818978818828"><ele>17.0</ele><time>2026-04-06T16:37:12Z</time></trkpt><trkpt lat="36.96591003221872" lon="15.20887939238316"><ele>17.0</ele><time>2026-04-06T16:37:13Z</time></trkpt><trkpt lat="36.96596640332797" lon="15.20894342760483"><ele>17.0</ele><time>2026-04-06T16:37:14Z</time></trkpt><trkpt lat="36.96602527016816" lon="15.209008727208003"><ele>17.333333333333336</ele><time>2026-04-06T16:37:15Z</time></trkpt><trkpt lat="36.966086886515136" lon="15.209068209861282"><ele>17.666666666666668</ele><time>2026-04-06T16:37:16Z</time></trkpt><trkpt lat="36.96613588458378" lon="15.20913863037228"><ele>18.0</ele><time>2026-04-06T16:37:17Z</time></trkpt><trkpt lat="36.96616191968321" lon="15.209225750064476"><ele>18.333333333333332</ele><time>2026-04-06T16:37:18Z</time></trkpt><trkpt lat="36.96614777651942" lon="15.209323385413297"><ele>18.666666666666664</ele><time>2026-04-06T16:37:19Z</time></trkpt><trkpt lat="36.96616385097554" lon="15.209419056287823"><ele>19.0</ele><time>2026-04-06T16:37:20Z</time></trkpt><trkpt lat="36.9661611024359" lon="15.209514088370065"><ele>19.0</ele><time>2026-04-06T16:37:21Z</time></trkpt><trkpt lat="36.96617059413616" lon="15.209596117126662"><ele>19.0</ele><time>2026-04-06T16:37:22Z</time></trkpt><trkpt lat="36.966158954622124" lon="15.209750507755556"><ele>19.0</ele><time>2026-04-06T16:37:24Z</time></trkpt><trkpt lat="36.96615609420871" lon="15.209829616067195"><ele>19.0</ele><time>2026-04-06T16:37:25Z</time></trkpt><trkpt lat="36.966138629273" lon="15.209984530513042"><ele>19.0</ele><time>2026-04-06T16:37:27Z</time></trkpt><trkpt lat="36.96612416883388" lon="15.210064704209818"><ele>19.0</ele><time>2026-04-06T16:37:28Z</time></trkpt><trkpt lat="36.96611434558456" lon="15.21015435012495"><ele>18.833333333333332</ele><time>2026-04-06T16:37:29Z</time></trkpt><trkpt lat="36.96606973545854" lon="15.21021896104074"><ele>18.666666666666664</ele><time>2026-04-06T16:37:30Z</time></trkpt><trkpt lat="36.96600999475812" lon="15.210325851517249"><ele>18.5</ele><time>2026-04-06T16:37:32Z</time></trkpt><trkpt lat="36.96596788277473" lon="15.210399966970249"><ele>18.333333333333332</ele><time>2026-04-06T16:37:34Z</time></trkpt><trkpt lat="36.9659386143468" lon="15.210480739168796"><ele>18.166666666666668</ele><time>2026-04-06T16:37:36Z</time></trkpt><trkpt lat="36.96585618431914" lon="15.21058594961872"><ele>18.0</ele><time>2026-04-06T16:37:38Z</time></trkpt><trkpt lat="36.96581028856032" lon="15.210676581471981"><ele>18.0</ele><time>2026-04-06T16:37:39Z</time></trkpt><trkpt lat="36.96576744452923" lon="15.21075476706867"><ele>18.0</ele><time>2026-04-06T16:37:40Z</time></trkpt><trkpt lat="36.96571659887262" lon="15.210832519390822"><ele>18.0</ele><time>2026-04-06T16:37:41Z</time></trkpt><trkpt lat="36.96565392443299" lon="15.210920690470143"><ele>18.0</ele><time>2026-04-06T16:37:42Z</time></trkpt><trkpt lat="36.96559178581516" lon="15.211022281627116"><ele>18.0</ele><time>2026-04-06T16:37:43Z</time></trkpt><trkpt lat="36.96553548390595" lon="15.211116650958118"><ele>18.0</ele><time>2026-04-06T16:37:44Z</time></trkpt><trkpt lat="36.965482899772034" lon="15.211196504682079"><ele>18.000000000000004</ele><time>2026-04-06T16:37:45Z</time></trkpt><trkpt lat="36.965439915020035" lon="15.211271420348298"><ele>18.0</ele><time>2026-04-06T16:37:46Z</time></trkpt><trkpt lat="36.96540354654087" lon="15.21134075958159"><ele>18.0</ele><time>2026-04-06T16:37:47Z</time></trkpt><trkpt lat="36.965358689678844" lon="15.211408563088725"><ele>18.0</ele><time>2026-04-06T16:37:48Z</time></trkpt><trkpt lat="36.965308217086594" lon="15.211476511131535"><ele>18.0</ele><time>2026-04-06T16:37:49Z</time></trkpt><trkpt lat="36.965257901410844" lon="15.211547405891016"><ele>18.000000000000004</ele><time>2026-04-06T16:37:50Z</time></trkpt><trkpt lat="36.96521009717218" lon="15.211623153784256"><ele>18.0</ele><time>2026-04-06T16:37:51Z</time></trkpt><trkpt lat="36.965165910064414" lon="15.211697311429056"><ele>18.5</ele><time>2026-04-06T16:37:52Z</time></trkpt><trkpt lat="36.965123214641686" lon="15.211774584081006"><ele>19.0</ele><time>2026-04-06T16:37:53Z</time></trkpt><trkpt lat="36.96508142359104" lon="15.211857321995199"><ele>19.5</ele><time>2026-04-06T16:37:54Z</time></trkpt><trkpt lat="36.965041941469906" lon="15.211945517786585"><ele>20.0</ele><time>2026-04-06T16:37:55Z</time></trkpt><trkpt lat="36.96502613240613" lon="15.21204295088927"><ele>20.5</ele><time>2026-04-06T16:37:56Z</time></trkpt><trkpt lat="36.965035566716026" lon="15.212138008031035"><ele>21.0</ele><time>2026-04-06T16:37:57Z</time></trkpt><trkpt lat="36.9650415770454" lon="15.212225979094262"><ele>21.0</ele><time>2026-04-06T16:37:58Z</time></trkpt><trkpt lat="36.96505991732091" lon="15.212313851322781"><ele>21.0</ele><time>2026-04-06T16:37:59Z</time></trkpt><trkpt lat="36.965065026358765" lon="15.21241049986905"><ele>21.0</ele><time>2026-04-06T16:38:00Z</time></trkpt><trkpt lat="36.965086724112915" lon="15.21250453445351"><ele>21.0</ele><time>2026-04-06T16:38:01Z</time></trkpt><trkpt lat="36.96511043970611" lon="15.21259503534858"><ele>21.0</ele><time>2026-04-06T16:38:02Z</time></trkpt><trkpt lat="36.96513372887513" lon="15.212683908947739"><ele>21.0</ele><time>2026-04-06T16:38:03Z</time></trkpt><trkpt lat="36.96515752102793" lon="15.212774541430536"><ele>20.400000000000002</ele><time>2026-04-06T16:38:04Z</time></trkpt><trkpt lat="36.96518361654423" lon="15.21287226463629"><ele>19.8</ele><time>2026-04-06T16:38:05Z</time></trkpt><trkpt lat="36.96522898338748" lon="15.21297406327945"><ele>19.200000000000003</ele><time>2026-04-06T16:38:06Z</time></trkpt><trkpt lat="36.96525929278345" lon="15.213088143417124"><ele>18.6</ele><time>2026-04-06T16:38:07Z</time></trkpt><trkpt lat="36.965285408929724" lon="15.21319771085357"><ele>18.0</ele><time>2026-04-06T16:38:08Z</time></trkpt><trkpt lat="36.965305922830595" lon="15.213305858621133"><ele>17.0</ele><time>2026-04-06T16:38:09Z</time></trkpt><trkpt lat="36.96530634667091" lon="15.21341733438672"><ele>16.0</ele><time>2026-04-06T16:38:10Z</time></trkpt><trkpt lat="36.965285163023935" lon="15.213554482252556"><ele>15.0</ele><time>2026-04-06T16:38:11Z</time></trkpt><trkpt lat="36.96525531382298" lon="15.213707584791258"><ele>14.0</ele><time>2026-04-06T16:38:12Z</time></trkpt><trkpt lat="36.96522583707645" lon="15.21386475459387"><ele>14.75</ele><time>2026-04-06T16:38:13Z</time></trkpt><trkpt lat="36.96518267589477" lon="15.214022043823476"><ele>15.5</ele><time>2026-04-06T16:38:14Z</time></trkpt><trkpt lat="36.96515162834134" lon="15.214167377806419"><ele>16.25</ele><time>2026-04-06T16:38:15Z</time></trkpt><trkpt lat="36.96511666849112" lon="15.214304978436472"><ele>17.0</ele><time>2026-04-06T16:38:16Z</time></trkpt><trkpt lat="36.965094381784304" lon="15.214446341365216"><ele>17.0</ele><time>2026-04-06T16:38:17Z</time></trkpt><trkpt lat="36.96505441663784" lon="15.214578775359799"><ele>17.0</ele><time>2026-04-06T16:38:18Z</time></trkpt><trkpt lat="36.96501336922947" lon="15.214701730696163"><ele>17.0</ele><time>2026-04-06T16:38:19Z</time></trkpt><trkpt lat="36.964973731965074" lon="15.21482884738326"><ele>17.0</ele><time>2026-04-06T16:38:20Z</time></trkpt><trkpt lat="36.96494310575071" lon="15.214960433828374"><ele>17.0</ele><time>2026-04-06T16:38:21Z</time></trkpt><trkpt lat="36.96490730017746" lon="15.21508039830259"><ele>17.0</ele><time>2026-04-06T16:38:22Z</time></trkpt><trkpt lat="36.96493360973136" lon="15.215215778289172"><ele>17.0</ele><time>2026-04-06T16:38:23Z</time></trkpt><trkpt lat="36.964961864945266" lon="15.215348808467835"><ele>17.0</ele><time>2026-04-06T16:38:24Z</time></trkpt><trkpt lat="36.9649958537124" lon="15.215475455372532"><ele>17.0</ele><time>2026-04-06T16:38:25Z</time></trkpt><trkpt lat="36.96502692545434" lon="15.21559198062432"><ele>17.0</ele><time>2026-04-06T16:38:26Z</time></trkpt><trkpt lat="36.96506100552198" lon="15.215701335247772"><ele>19.2</ele><time>2026-04-06T16:38:27Z</time></trkpt><trkpt lat="36.96509257002768" lon="15.215810431953273"><ele>21.4</ele><time>2026-04-06T16:38:28Z</time></trkpt><trkpt lat="36.965127796471236" lon="15.215919041849595"><ele>23.599999999999998</ele><time>2026-04-06T16:38:29Z</time></trkpt><trkpt lat="36.965163388799546" lon="15.216028188073903"><ele>25.799999999999997</ele><time>2026-04-06T16:38:30Z</time></trkpt><trkpt lat="36.96519423796711" lon="15.21613813168816"><ele>28.0</ele><time>2026-04-06T16:38:31Z</time></trkpt><trkpt lat="36.9652243565308" lon="15.2162434320957"><ele>28.000000000000004</ele><time>2026-04-06T16:38:32Z</time></trkpt><trkpt lat="36.96525247684396" lon="15.216335495652999"><ele>28.0</ele><time>2026-04-06T16:38:33Z</time></trkpt><trkpt lat="36.9652763268287" lon="15.216411027070667"><ele>28.0</ele><time>2026-04-06T16:38:34Z</time></trkpt><trkpt lat="36.965301138153535" lon="15.216484807508662"><ele>28.0</ele><time>2026-04-06T16:38:35Z</time></trkpt><trkpt lat="36.96533533480791" lon="15.216580654683606"><ele>28.000000000000004</ele><time>2026-04-06T16:38:36Z</time></trkpt><trkpt lat="36.9653788892797" lon="15.21668043025313"><ele>28.0</ele><time>2026-04-06T16:38:37Z</time></trkpt><trkpt lat="36.96541626648568" lon="15.21679533889808"><ele>28.5</ele><time>2026-04-06T16:38:38Z</time></trkpt><trkpt lat="36.96547381278561" lon="15.216925339861334"><ele>29.0</ele><time>2026-04-06T16:38:39Z</time></trkpt><trkpt lat="36.965546441855984" lon="15.21708167781136"><ele>29.5</ele><time>2026-04-06T16:38:40Z</time></trkpt><trkpt lat="36.96562229983384" lon="15.217238783292"><ele>30.0</ele><time>2026-04-06T16:38:41Z</time></trkpt><trkpt lat="36.965707122553724" lon="15.217410984006667"><ele>30.0</ele><time>2026-04-06T16:38:42Z</time></trkpt><trkpt lat="36.96579196623325" lon="15.217583586978177"><ele>30.0</ele><time>2026-04-06T16:38:43Z</time></trkpt><trkpt lat="36.965881884194225" lon="15.217765314640483"><ele>30.0</ele><time>2026-04-06T16:38:44Z</time></trkpt><trkpt lat="36.9659698747009" lon="15.217943389479242"><ele>30.666666666666664</ele><time>2026-04-06T16:38:45Z</time></trkpt><trkpt lat="36.966037698595315" lon="15.21811542283727"><ele>31.333333333333332</ele><time>2026-04-06T16:38:46Z</time></trkpt><trkpt lat="36.96610520284783" lon="15.218286131951702"><ele>32.0</ele><time>2026-04-06T16:38:47Z</time></trkpt><trkpt lat="36.966183006273944" lon="15.218453948635204"><ele>32.0</ele><time>2026-04-06T16:38:48Z</time></trkpt><trkpt lat="36.96624403256279" lon="15.2186329880848"><ele>32.0</ele><time>2026-04-06T16:38:49Z</time></trkpt><trkpt lat="36.96630695200861" lon="15.218799128229842"><ele>32.0</ele><time>2026-04-06T16:38:50Z</time></trkpt><trkpt lat="36.96637118102953" lon="15.21896586026441"><ele>31.0</ele><time>2026-04-06T16:38:51Z</time></trkpt><trkpt lat="36.96640684166327" lon="15.219162855136736"><ele>30.0</ele><time>2026-04-06T16:38:52Z</time></trkpt><trkpt lat="36.96647081376999" lon="15.219361295704408"><ele>29.0</ele><time>2026-04-06T16:38:53Z</time></trkpt><trkpt lat="36.96653417598405" lon="15.219553136446862"><ele>29.0</ele><time>2026-04-06T16:38:54Z</time></trkpt><trkpt lat="36.96660024302562" lon="15.219715710884865"><ele>29.0</ele><time>2026-04-06T16:38:55Z</time></trkpt><trkpt lat="36.966654513156236" lon="15.219876415693632"><ele>29.0</ele><time>2026-04-06T16:38:56Z</time></trkpt><trkpt lat="36.96669486455794" lon="15.220029955731329"><ele>29.0</ele><time>2026-04-06T16:38:57Z</time></trkpt><trkpt lat="36.966762626108526" lon="15.220170376553245"><ele>30.0</ele><time>2026-04-06T16:38:58Z</time></trkpt><trkpt lat="36.966868437036815" lon="15.220311584749139"><ele>31.0</ele><time>2026-04-06T16:38:59Z</time></trkpt><trkpt lat="36.96697322763694" lon="15.220472984529843"><ele>32.0</ele><time>2026-04-06T16:39:00Z</time></trkpt><trkpt lat="36.96709284215069" lon="15.220635627064246"><ele>30.333333333333332</ele><time>2026-04-06T16:39:01Z</time></trkpt><trkpt lat="36.96721769668259" lon="15.220793741867748"><ele>28.666666666666664</ele><time>2026-04-06T16:39:02Z</time></trkpt><trkpt lat="36.967343268935025" lon="15.220959069888789"><ele>27.0</ele><time>2026-04-06T16:39:03Z</time></trkpt><trkpt lat="36.96746364764838" lon="15.221125030636028"><ele>27.666666666666664</ele><time>2026-04-06T16:39:04Z</time></trkpt><trkpt lat="36.96758331221353" lon="15.221281928114868"><ele>28.333333333333332</ele><time>2026-04-06T16:39:05Z</time></trkpt><trkpt lat="36.96769880286342" lon="15.221424131091025"><ele>29.0</ele><time>2026-04-06T16:39:06Z</time></trkpt><trkpt lat="36.96781953631181" lon="15.221578880774418"><ele>29.0</ele><time>2026-04-06T16:39:07Z</time></trkpt><trkpt lat="36.96794407248475" lon="15.22174636288264"><ele>29.0</ele><time>2026-04-06T16:39:08Z</time></trkpt><trkpt lat="36.96806634804778" lon="15.22190194606704"><ele>29.0</ele><time>2026-04-06T16:39:09Z</time></trkpt><trkpt lat="36.96817810622607" lon="15.22204551467426"><ele>29.0</ele><time>2026-04-06T16:39:10Z</time></trkpt><trkpt lat="36.96828023774442" lon="15.222173134797906"><ele>29.0</ele><time>2026-04-06T16:39:11Z</time></trkpt><trkpt lat="36.968373663764176" lon="15.222290746131133"><ele>29.0</ele><time>2026-04-06T16:39:12Z</time></trkpt><trkpt lat="36.968454807023434" lon="15.22239398441036"><ele>29.0</ele><time>2026-04-06T16:39:13Z</time></trkpt><trkpt lat="36.96851944216321" lon="15.222479884664402"><ele>29.2</ele><time>2026-04-06T16:39:14Z</time></trkpt><trkpt lat="36.968567284313124" lon="15.222540335558229"><ele>29.4</ele><time>2026-04-06T16:39:15Z</time></trkpt><trkpt lat="36.968634683283646" lon="15.222647353043168"><ele>29.6</ele><time>2026-04-06T16:39:17Z</time></trkpt><trkpt lat="36.96875935477665" lon="15.222515079888694"><ele>29.8</ele><time>2026-04-06T16:39:19Z</time></trkpt><trkpt lat="36.96879708156427" lon="15.222432343259353"><ele>30.0</ele><time>2026-04-06T16:39:20Z</time></trkpt><trkpt lat="36.968843055391645" lon="15.2223381854956"><ele>30.2</ele><time>2026-04-06T16:39:21Z</time></trkpt><trkpt lat="36.96890988851034" lon="15.222241365151682"><ele>30.4</ele><time>2026-04-06T16:39:22Z</time></trkpt><trkpt lat="36.96897538039766" lon="15.222137644376584"><ele>30.6</ele><time>2026-04-06T16:39:23Z</time></trkpt><trkpt lat="36.969034910641945" lon="15.222042486059564"><ele>30.8</ele><time>2026-04-06T16:39:24Z</time></trkpt><trkpt lat="36.969087807587606" lon="15.221952006881022"><ele>31.0</ele><time>2026-04-06T16:39:25Z</time></trkpt><trkpt lat="36.96912959384656" lon="15.221868480290205"><ele>31.0</ele><time>2026-04-06T16:39:26Z</time></trkpt><trkpt lat="36.96916829095079" lon="15.221792540638871"><ele>31.0</ele><time>2026-04-06T16:39:27Z</time></trkpt><trkpt lat="36.969225304524805" lon="15.221733005823557"><ele>31.0</ele><time>2026-04-06T16:39:28Z</time></trkpt><trkpt lat="36.96930405515985" lon="15.221680770841223"><ele>31.0</ele><time>2026-04-06T16:39:29Z</time></trkpt><trkpt lat="36.96935092686887" lon="15.221590361127767"><ele>31.0</ele><time>2026-04-06T16:39:30Z</time></trkpt><trkpt lat="36.969501952334575" lon="15.221614421863235"><ele>31.0</ele><time>2026-04-06T16:39:31Z</time></trkpt><trkpt lat="36.96961913451271" lon="15.221631880254373"><ele>31.0</ele><time>2026-04-06T16:39:32Z</time></trkpt><trkpt lat="36.96973692802812" lon="15.221625110301138"><ele>31.0</ele><time>2026-04-06T16:39:33Z</time></trkpt><trkpt lat="36.96986891184068" lon="15.221644907006187"><ele>31.0</ele><time>2026-04-06T16:39:34Z</time></trkpt><trkpt lat="36.97001018230188" lon="15.221654677778469"><ele>30.666666666666668</ele><time>2026-04-06T16:39:35Z</time></trkpt><trkpt lat="36.9701597848001" lon="15.221653778355632"><ele>30.333333333333336</ele><time>2026-04-06T16:39:36Z</time></trkpt><trkpt lat="36.970311818238805" lon="15.221645280530828"><ele>30.0</ele><time>2026-04-06T16:39:37Z</time></trkpt><trkpt lat="36.970474102043156" lon="15.221641002731738"><ele>30.0</ele><time>2026-04-06T16:39:38Z</time></trkpt><trkpt lat="36.9706306706766" lon="15.221641762669273"><ele>30.0</ele><time>2026-04-06T16:39:39Z</time></trkpt><trkpt lat="36.970773703872275" lon="15.221645163923977"><ele>30.0</ele><time>2026-04-06T16:39:40Z</time></trkpt><trkpt lat="36.970903483924886" lon="15.221649654302038"><ele>30.0</ele><time>2026-04-06T16:39:41Z</time></trkpt><trkpt lat="36.97102856093589" lon="15.2216557855879"><ele>30.0</ele><time>2026-04-06T16:39:42Z</time></trkpt><trkpt lat="36.97114632169235" lon="15.221664513289399"><ele>30.0</ele><time>2026-04-06T16:39:43Z</time></trkpt><trkpt lat="36.97126103024807" lon="15.221670189867838"><ele>30.0</ele><time>2026-04-06T16:39:44Z</time></trkpt><trkpt lat="36.97137356908993" lon="15.221674743088688"><ele>30.0</ele><time>2026-04-06T16:39:45Z</time></trkpt><trkpt lat="36.971487584290415" lon="15.221676135957882"><ele>30.0</ele><time>2026-04-06T16:39:46Z</time></trkpt><trkpt lat="36.97159959408188" lon="15.22167763149599"><ele>30.0</ele><time>2026-04-06T16:39:47Z</time></trkpt><trkpt lat="36.97170669187097" lon="15.221681132628262"><ele>30.0</ele><time>2026-04-06T16:39:48Z</time></trkpt><trkpt lat="36.971806924839626" lon="15.221695068913768"><ele>30.0</ele><time>2026-04-06T16:39:49Z</time></trkpt><trkpt lat="36.97191070443145" lon="15.221700214702306"><ele>30.0</ele><time>2026-04-06T16:39:50Z</time></trkpt><trkpt lat="36.9720160674886" lon="15.221697479986794"><ele>30.0</ele><time>2026-04-06T16:39:51Z</time></trkpt><trkpt lat="36.972120658594555" lon="15.221692571524459"><ele>30.0</ele><time>2026-04-06T16:39:52Z</time></trkpt><trkpt lat="36.97222204810981" lon="15.221690554362103"><ele>30.0</ele><time>2026-04-06T16:39:53Z</time></trkpt><trkpt lat="36.97231915153679" lon="15.22169497409515"><ele>30.0</ele><time>2026-04-06T16:39:54Z</time></trkpt><trkpt lat="36.972410565221004" lon="15.221702046508206"><ele>30.0</ele><time>2026-04-06T16:39:55Z</time></trkpt><trkpt lat="36.9724978905578" lon="15.221707187033754"><ele>29.714285714285715</ele><time>2026-04-06T16:39:56Z</time></trkpt><trkpt lat="36.97257983513389" lon="15.22170906616059"><ele>29.428571428571427</ele><time>2026-04-06T16:39:57Z</time></trkpt><trkpt lat="36.97265124029157" lon="15.221709741741126"><ele>29.142857142857142</ele><time>2026-04-06T16:39:58Z</time></trkpt><trkpt lat="36.97271444273793" lon="15.221712852220943"><ele>28.857142857142858</ele><time>2026-04-06T16:39:59Z</time></trkpt><trkpt lat="36.972781176496404" lon="15.221717052382093"><ele>28.57142857142857</ele><time>2026-04-06T16:40:00Z</time></trkpt><trkpt lat="36.972855833624344" lon="15.221719622448996"><ele>28.285714285714285</ele><time>2026-04-06T16:40:01Z</time></trkpt><trkpt lat="36.97293034865196" lon="15.221719925599109"><ele>28.0</ele><time>2026-04-06T16:40:02Z</time></trkpt><trkpt lat="36.973005010567825" lon="15.221725027501837"><ele>28.000000000000004</ele><time>2026-04-06T16:40:03Z</time></trkpt><trkpt lat="36.97309030073399" lon="15.221728776008726"><ele>28.0</ele><time>2026-04-06T16:40:04Z</time></trkpt><trkpt lat="36.97317445619523" lon="15.221726225708588"><ele>28.0</ele><time>2026-04-06T16:40:05Z</time></trkpt><trkpt lat="36.97325567501574" lon="15.22172274621833"><ele>28.0</ele><time>2026-04-06T16:40:06Z</time></trkpt><trkpt lat="36.973342517993665" lon="15.221721344361248"><ele>28.000000000000004</ele><time>2026-04-06T16:40:07Z</time></trkpt><trkpt lat="36.97342731836474" lon="15.221723632521996"><ele>28.0</ele><time>2026-04-06T16:40:08Z</time></trkpt><trkpt lat="36.97351879457826" lon="15.22172452432447"><ele>27.833333333333336</ele><time>2026-04-06T16:40:09Z</time></trkpt><trkpt lat="36.97360719407534" lon="15.22172753963237"><ele>27.666666666666668</ele><time>2026-04-06T16:40:10Z</time></trkpt><trkpt lat="36.97369030168476" lon="15.221750704280817"><ele>27.5</ele><time>2026-04-06T16:40:11Z</time></trkpt><trkpt lat="36.973766862764656" lon="15.221753577989686"><ele>27.333333333333336</ele><time>2026-04-06T16:40:12Z</time></trkpt><trkpt lat="36.97384532395215" lon="15.221756834993519"><ele>27.166666666666668</ele><time>2026-04-06T16:40:13Z</time></trkpt><trkpt lat="36.973914161414186" lon="15.221741489433525"><ele>27.0</ele><time>2026-04-06T16:40:14Z</time></trkpt><trkpt lat="36.97397825748905" lon="15.221753485198475"><ele>27.0</ele><time>2026-04-06T16:40:15Z</time></trkpt><trkpt lat="36.9740945641277" lon="15.221770260343167"><ele>27.000000000000004</ele><time>2026-04-06T16:40:17Z</time></trkpt><trkpt lat="36.974203565739934" lon="15.221764703936326"><ele>27.000000000000004</ele><time>2026-04-06T16:40:19Z</time></trkpt><trkpt lat="36.97429051242693" lon="15.221772205619784"><ele>27.0</ele><time>2026-04-06T16:40:21Z</time></trkpt><trkpt lat="36.97435923624131" lon="15.221763632497247"><ele>27.0</ele><time>2026-04-06T16:40:24Z</time></trkpt><trkpt lat="36.97438782551852" lon="15.221865031029882"><ele>27.0</ele><time>2026-04-06T16:43:53Z</time></trkpt><trkpt lat="36.97438782551852" lon="15.221865031029882"><ele>27.0</ele><time>2026-04-06T16:43:53Z</time></trkpt><trkpt lat="36.97438782551852" lon="15.221865031029882"><ele>27.0</ele><time>2026-04-06T16:43:53Z</time></trkpt><trkpt lat="36.97438782551852" lon="15.221865031029882"><ele>27.0</ele><time>2026-04-06T16:43:53Z</time></trkpt><trkpt lat="36.97438782551852" lon="15.221865031029882"><ele>27.0</ele><time>2026-04-06T16:43:53Z</time></trkpt><trkpt lat="36.97438782551852" lon="15.221865031029882"><ele>27.0</ele><time>2026-04-06T16:43:53Z</time></trkpt><trkpt lat="36.97438782551852" lon="15.221865031029882"><ele>27.0</ele><time>2026-04-06T16:43:53Z</time></trkpt><trkpt lat="36.97438782551852" lon="15.221865031029882"><ele>27.0</ele><time>2026-04-06T16:43:53Z</time></trkpt><trkpt lat="36.97438782551852" lon="15.221865031029882"><ele>27.0</ele><time>2026-04-06T16:43:53Z</time></trkpt><trkpt lat="36.97438782551852" lon="15.221865031029882"><ele>27.0</ele><time>2026-04-06T16:43:53Z</time></trkpt><trkpt lat="36.97438782551852" lon="15.221865031029882"><ele>27.0</ele><time>2026-04-06T16:43:53Z</time></trkpt><trkpt lat="36.97438782551852" lon="15.221865031029882"><ele>27.0</ele><time>2026-04-06T16:43:53Z</time></trkpt><trkpt lat="36.97438782551852" lon="15.221865031029882"><ele>27.0</ele><time>2026-04-06T16:43:53Z</time></trkpt><trkpt lat="36.97438782551852" lon="15.221865031029882"><ele>27.0</ele><time>2026-04-06T16:43:53Z</time></trkpt><trkpt lat="36.97438782551852" lon="15.221865031029882"><ele>27.0</ele><time>2026-04-06T16:43:53Z</time></trkpt><trkpt lat="36.97438782551852" lon="15.221865031029882"><ele>27.0</ele><time>2026-04-06T16:43:53Z</time></trkpt><trkpt lat="36.97438782551852" lon="15.221865031029882"><ele>27.0</ele><time>2026-04-06T16:43:53Z</time></trkpt><trkpt lat="36.97438782551852" lon="15.221865031029882"><ele>27.0</ele><time>2026-04-06T16:43:53Z</time></trkpt><trkpt lat="36.97438782551852" lon="15.221865031029882"><ele>27.0</ele><time>2026-04-06T16:43:53Z</time></trkpt><trkpt lat="36.97438782551852" lon="15.221865031029882"><ele>27.0</ele><time>2026-04-06T16:43:53Z</time></trkpt><trkpt lat="36.97438782551852" lon="15.221865031029882"><ele>27.0</ele><time>2026-04-06T16:43:53Z</time></trkpt><trkpt lat="36.97438782551852" lon="15.221865031029882"><ele>27.0</ele><time>2026-04-06T16:43:53Z</time></trkpt><trkpt lat="36.97438782551852" lon="15.221865031029882"><ele>27.0</ele><time>2026-04-06T16:43:53Z</time></trkpt><trkpt lat="36.97438782551852" lon="15.221865031029882"><ele>27.0</ele><time>2026-04-06T16:43:53Z</time></trkpt><trkpt lat="36.97438782551852" lon="15.221865031029882"><ele>27.0</ele><time>2026-04-06T16:43:53Z</time></trkpt><trkpt lat="36.97438782551852" lon="15.221865031029882"><ele>27.0</ele><time>2026-04-06T16:43:53Z</time></trkpt><trkpt lat="36.97438782551852" lon="15.221865031029882"><ele>27.0</ele><time>2026-04-06T16:43:53Z</time></trkpt><trkpt lat="36.97438782551852" lon="15.221865031029882"><ele>27.0</ele><time>2026-04-06T16:43:53Z</time></trkpt><trkpt lat="36.97438782551852" lon="15.221865031029882"><ele>27.0</ele><time>2026-04-06T16:43:53Z</time></trkpt><trkpt lat="36.97438782551852" lon="15.221865031029882"><ele>27.0</ele><time>2026-04-06T16:43:53Z</time></trkpt><trkpt lat="36.97438782551852" lon="15.221865031029882"><ele>27.0</ele><time>2026-04-06T16:43:53Z</time></trkpt><trkpt lat="36.97438782551852" lon="15.221865031029882"><ele>27.0</ele><time>2026-04-06T16:43:53Z</time></trkpt><trkpt lat="36.97438782551852" lon="15.221865031029882"><ele>27.0</ele><time>2026-04-06T16:43:53Z</time></trkpt><trkpt lat="36.97438782551852" lon="15.221865031029882"><ele>27.0</ele><time>2026-04-06T16:43:53Z</time></trkpt><trkpt lat="36.97438782551852" lon="15.221865031029882"><ele>27.0</ele><time>2026-04-06T16:43:53Z</time></trkpt><trkpt lat="36.97438782551852" lon="15.221865031029882"><ele>27.0</ele><time>2026-04-06T16:43:53Z</time></trkpt><trkpt lat="36.97438782551852" lon="15.221865031029882"><ele>27.0</ele><time>2026-04-06T16:43:53Z</time></trkpt><trkpt lat="36.97438782551852" lon="15.221865031029882"><ele>27.0</ele><time>2026-04-06T16:43:53Z</time></trkpt><trkpt lat="36.97438782551852" lon="15.221865031029882"><ele>27.0</ele><time>2026-04-06T16:43:53Z</time></trkpt><trkpt lat="36.97438782551852" lon="15.221865031029882"><ele>27.0</ele><time>2026-04-06T16:43:53Z</time></trkpt><trkpt lat="36.97438782551852" lon="15.221865031029882"><ele>27.0</ele><time>2026-04-06T16:43:53Z</time></trkpt><trkpt lat="36.97438782551852" lon="15.221865031029882"><ele>27.0</ele><time>2026-04-06T16:43:53Z</time></trkpt><trkpt lat="36.97438782551852" lon="15.221865031029882"><ele>27.0</ele><time>2026-04-06T16:43:53Z</time></trkpt><trkpt lat="36.97438782551852" lon="15.221865031029882"><ele>27.0</ele><time>2026-04-06T16:43:53Z</time></trkpt><trkpt lat="36.97438782551852" lon="15.221865031029882"><ele>27.0</ele><time>2026-04-06T16:43:53Z</time></trkpt><trkpt lat="36.97438782551852" lon="15.221865031029882"><ele>27.0</ele><time>2026-04-06T16:43:53Z</time></trkpt><trkpt lat="36.97438782551852" lon="15.221865031029882"><ele>27.0</ele><time>2026-04-06T16:43:53Z</time></trkpt><trkpt lat="36.97438782551852" lon="15.221865031029882"><ele>27.0</ele><time>2026-04-06T16:43:53Z</time></trkpt><trkpt lat="36.97438782551852" lon="15.221865031029882"><ele>27.0</ele><time>2026-04-06T16:43:53Z</time></trkpt></trkseg></trk></gpx>